<?xml version="1.0" encoding="UTF-8" standalone="no" ?>
<gpx xmlns="http://www.topografix.com/GPX/1/1" xmlns:xsi="http://www.w3.org/2001/XMLSchema-instance" xsi:schemaLocation="http://www.topografix.com/GPX/1/1 http://www.topografix.com/GPX/1/1/gpx.xsd" version="1.1" creator="VisuGPX - https://www.visugpx.com">
  <metadata>
    <name>Soulan/ Arrau/ Cap d'embausses</name>
  </metadata>
  <trk>
    <name><![CDATA[Trace 1782196873000]]></name>
    <trkseg>
      <trkpt lat="42.91337" lon="1.22887">
        <ele>758</ele>
        <time>2026-06-23T06:41:13.000Z</time>
      </trkpt>
      <trkpt lat="42.91337" lon="1.22888">
        <ele>757</ele>
        <time>2026-06-23T06:41:14.000Z</time>
      </trkpt>
      <trkpt lat="42.91347" lon="1.22901">
        <ele>734</ele>
        <time>2026-06-23T06:41:52.000Z</time>
      </trkpt>
      <trkpt lat="42.91347" lon="1.22903">
        <ele>730</ele>
        <time>2026-06-23T06:41:53.000Z</time>
      </trkpt>
      <trkpt lat="42.91348" lon="1.22905">
        <ele>728</ele>
        <time>2026-06-23T06:41:54.000Z</time>
      </trkpt>
      <trkpt lat="42.91349" lon="1.22906">
        <ele>726</ele>
        <time>2026-06-23T06:41:55.000Z</time>
      </trkpt>
      <trkpt lat="42.91349" lon="1.22907">
        <ele>726</ele>
        <time>2026-06-23T06:41:56.000Z</time>
      </trkpt>
      <trkpt lat="42.91348" lon="1.22908">
        <ele>725</ele>
        <time>2026-06-23T06:41:57.000Z</time>
      </trkpt>
      <trkpt lat="42.91348" lon="1.22908">
        <ele>723</ele>
        <time>2026-06-23T06:41:58.000Z</time>
      </trkpt>
      <trkpt lat="42.91347" lon="1.22909">
        <ele>723</ele>
        <time>2026-06-23T06:41:59.000Z</time>
      </trkpt>
      <trkpt lat="42.91347" lon="1.2291">
        <ele>722</ele>
        <time>2026-06-23T06:42:00.000Z</time>
      </trkpt>
      <trkpt lat="42.91347" lon="1.22911">
        <ele>722</ele>
        <time>2026-06-23T06:42:01.000Z</time>
      </trkpt>
      <trkpt lat="42.91347" lon="1.22913">
        <ele>721</ele>
        <time>2026-06-23T06:42:02.000Z</time>
      </trkpt>
      <trkpt lat="42.91346" lon="1.22915">
        <ele>718</ele>
        <time>2026-06-23T06:42:03.000Z</time>
      </trkpt>
      <trkpt lat="42.91347" lon="1.22917">
        <ele>717</ele>
        <time>2026-06-23T06:42:04.000Z</time>
      </trkpt>
      <trkpt lat="42.91347" lon="1.2292">
        <ele>716</ele>
        <time>2026-06-23T06:42:05.000Z</time>
      </trkpt>
      <trkpt lat="42.91346" lon="1.22921">
        <ele>715</ele>
        <time>2026-06-23T06:42:06.000Z</time>
      </trkpt>
      <trkpt lat="42.91347" lon="1.22923">
        <ele>715</ele>
        <time>2026-06-23T06:42:07.000Z</time>
      </trkpt>
      <trkpt lat="42.91347" lon="1.22924">
        <ele>715</ele>
        <time>2026-06-23T06:42:08.000Z</time>
      </trkpt>
      <trkpt lat="42.91347" lon="1.22925">
        <ele>715</ele>
        <time>2026-06-23T06:42:09.000Z</time>
      </trkpt>
      <trkpt lat="42.91347" lon="1.22925">
        <ele>715</ele>
        <time>2026-06-23T06:42:10.000Z</time>
      </trkpt>
      <trkpt lat="42.91345" lon="1.22926">
        <ele>710</ele>
        <time>2026-06-23T06:42:34.000Z</time>
      </trkpt>
      <trkpt lat="42.91344" lon="1.22926">
        <ele>710</ele>
        <time>2026-06-23T06:42:35.000Z</time>
      </trkpt>
      <trkpt lat="42.91343" lon="1.22927">
        <ele>710</ele>
        <time>2026-06-23T06:42:36.000Z</time>
      </trkpt>
      <trkpt lat="42.91342" lon="1.22928">
        <ele>710</ele>
        <time>2026-06-23T06:42:37.000Z</time>
      </trkpt>
      <trkpt lat="42.91342" lon="1.2293">
        <ele>709</ele>
        <time>2026-06-23T06:42:38.000Z</time>
      </trkpt>
      <trkpt lat="42.91343" lon="1.22931">
        <ele>709</ele>
        <time>2026-06-23T06:42:39.000Z</time>
      </trkpt>
      <trkpt lat="42.91343" lon="1.22932">
        <ele>709</ele>
        <time>2026-06-23T06:42:40.000Z</time>
      </trkpt>
      <trkpt lat="42.91344" lon="1.22933">
        <ele>709</ele>
        <time>2026-06-23T06:42:41.000Z</time>
      </trkpt>
      <trkpt lat="42.91344" lon="1.22933">
        <ele>709</ele>
        <time>2026-06-23T06:42:42.000Z</time>
      </trkpt>
      <trkpt lat="42.91344" lon="1.22933">
        <ele>709</ele>
        <time>2026-06-23T06:42:43.000Z</time>
      </trkpt>
      <trkpt lat="42.91345" lon="1.22934">
        <ele>709</ele>
        <time>2026-06-23T06:42:44.000Z</time>
      </trkpt>
      <trkpt lat="42.91345" lon="1.22934">
        <ele>709</ele>
        <time>2026-06-23T06:42:45.000Z</time>
      </trkpt>
      <trkpt lat="42.91344" lon="1.22936">
        <ele>709</ele>
        <time>2026-06-23T06:42:46.000Z</time>
      </trkpt>
      <trkpt lat="42.91345" lon="1.22936">
        <ele>708</ele>
        <time>2026-06-23T06:42:47.000Z</time>
      </trkpt>
      <trkpt lat="42.91345" lon="1.22937">
        <ele>708</ele>
        <time>2026-06-23T06:42:48.000Z</time>
      </trkpt>
      <trkpt lat="42.91345" lon="1.22938">
        <ele>707</ele>
        <time>2026-06-23T06:42:49.000Z</time>
      </trkpt>
      <trkpt lat="42.91345" lon="1.22938">
        <ele>707</ele>
        <time>2026-06-23T06:42:50.000Z</time>
      </trkpt>
      <trkpt lat="42.91345" lon="1.22938">
        <ele>707</ele>
        <time>2026-06-23T06:42:51.000Z</time>
      </trkpt>
      <trkpt lat="42.91347" lon="1.22935">
        <ele>702</ele>
        <time>2026-06-23T06:43:17.000Z</time>
      </trkpt>
      <trkpt lat="42.91348" lon="1.22935">
        <ele>702</ele>
        <time>2026-06-23T06:43:18.000Z</time>
      </trkpt>
      <trkpt lat="42.91348" lon="1.22934">
        <ele>702</ele>
        <time>2026-06-23T06:43:19.000Z</time>
      </trkpt>
      <trkpt lat="42.91348" lon="1.22933">
        <ele>702</ele>
        <time>2026-06-23T06:43:20.000Z</time>
      </trkpt>
      <trkpt lat="42.91348" lon="1.22933">
        <ele>702</ele>
        <time>2026-06-23T06:43:21.000Z</time>
      </trkpt>
      <trkpt lat="42.91348" lon="1.22932">
        <ele>701</ele>
        <time>2026-06-23T06:43:22.000Z</time>
      </trkpt>
      <trkpt lat="42.91349" lon="1.22932">
        <ele>701</ele>
        <time>2026-06-23T06:43:23.000Z</time>
      </trkpt>
      <trkpt lat="42.91349" lon="1.22931">
        <ele>701</ele>
        <time>2026-06-23T06:43:24.000Z</time>
      </trkpt>
      <trkpt lat="42.91349" lon="1.22933">
        <ele>701</ele>
        <time>2026-06-23T06:43:25.000Z</time>
      </trkpt>
      <trkpt lat="42.91349" lon="1.22934">
        <ele>701</ele>
        <time>2026-06-23T06:43:26.000Z</time>
      </trkpt>
      <trkpt lat="42.91349" lon="1.22935">
        <ele>700</ele>
        <time>2026-06-23T06:43:27.000Z</time>
      </trkpt>
      <trkpt lat="42.91349" lon="1.22935">
        <ele>700</ele>
        <time>2026-06-23T06:43:28.000Z</time>
      </trkpt>
      <trkpt lat="42.91349" lon="1.22935">
        <ele>701</ele>
        <time>2026-06-23T06:43:29.000Z</time>
      </trkpt>
      <trkpt lat="42.9135" lon="1.22935">
        <ele>701</ele>
        <time>2026-06-23T06:43:30.000Z</time>
      </trkpt>
      <trkpt lat="42.91351" lon="1.22936">
        <ele>700</ele>
        <time>2026-06-23T06:43:31.000Z</time>
      </trkpt>
      <trkpt lat="42.91352" lon="1.22927">
        <ele>700</ele>
        <time>2026-06-23T06:43:52.000Z</time>
      </trkpt>
      <trkpt lat="42.91351" lon="1.22927">
        <ele>699</ele>
        <time>2026-06-23T06:43:53.000Z</time>
      </trkpt>
      <trkpt lat="42.91351" lon="1.22927">
        <ele>699</ele>
        <time>2026-06-23T06:43:54.000Z</time>
      </trkpt>
      <trkpt lat="42.9135" lon="1.22927">
        <ele>700</ele>
        <time>2026-06-23T06:43:55.000Z</time>
      </trkpt>
      <trkpt lat="42.9135" lon="1.22927">
        <ele>700</ele>
        <time>2026-06-23T06:43:56.000Z</time>
      </trkpt>
      <trkpt lat="42.91349" lon="1.22927">
        <ele>700</ele>
        <time>2026-06-23T06:43:57.000Z</time>
      </trkpt>
      <trkpt lat="42.91348" lon="1.22927">
        <ele>699</ele>
        <time>2026-06-23T06:43:58.000Z</time>
      </trkpt>
      <trkpt lat="42.91349" lon="1.22928">
        <ele>699</ele>
        <time>2026-06-23T06:43:59.000Z</time>
      </trkpt>
      <trkpt lat="42.9135" lon="1.2293">
        <ele>699</ele>
        <time>2026-06-23T06:44:00.000Z</time>
      </trkpt>
      <trkpt lat="42.91351" lon="1.22932">
        <ele>699</ele>
        <time>2026-06-23T06:44:01.000Z</time>
      </trkpt>
      <trkpt lat="42.91352" lon="1.22934">
        <ele>699</ele>
        <time>2026-06-23T06:44:02.000Z</time>
      </trkpt>
      <trkpt lat="42.91354" lon="1.22935">
        <ele>699</ele>
        <time>2026-06-23T06:44:03.000Z</time>
      </trkpt>
      <trkpt lat="42.91356" lon="1.22936">
        <ele>698</ele>
        <time>2026-06-23T06:44:04.000Z</time>
      </trkpt>
      <trkpt lat="42.91356" lon="1.22937">
        <ele>698</ele>
        <time>2026-06-23T06:44:05.000Z</time>
      </trkpt>
      <trkpt lat="42.91357" lon="1.22938">
        <ele>697</ele>
        <time>2026-06-23T06:44:06.000Z</time>
      </trkpt>
      <trkpt lat="42.91357" lon="1.22938">
        <ele>697</ele>
        <time>2026-06-23T06:44:07.000Z</time>
      </trkpt>
      <trkpt lat="42.91357" lon="1.22938">
        <ele>697</ele>
        <time>2026-06-23T06:44:08.000Z</time>
      </trkpt>
      <trkpt lat="42.91357" lon="1.22938">
        <ele>697</ele>
        <time>2026-06-23T06:44:09.000Z</time>
      </trkpt>
      <trkpt lat="42.91357" lon="1.22938">
        <ele>697</ele>
        <time>2026-06-23T06:44:10.000Z</time>
      </trkpt>
      <trkpt lat="42.91357" lon="1.22938">
        <ele>697</ele>
        <time>2026-06-23T06:44:11.000Z</time>
      </trkpt>
      <trkpt lat="42.91358" lon="1.22938">
        <ele>696</ele>
        <time>2026-06-23T06:44:12.000Z</time>
      </trkpt>
      <trkpt lat="42.9136" lon="1.22938">
        <ele>696</ele>
        <time>2026-06-23T06:44:13.000Z</time>
      </trkpt>
      <trkpt lat="42.91361" lon="1.22937">
        <ele>695</ele>
        <time>2026-06-23T06:44:14.000Z</time>
      </trkpt>
      <trkpt lat="42.91358" lon="1.22937">
        <ele>696</ele>
        <time>2026-06-23T06:44:34.000Z</time>
      </trkpt>
      <trkpt lat="42.91357" lon="1.22937">
        <ele>696</ele>
        <time>2026-06-23T06:44:35.000Z</time>
      </trkpt>
      <trkpt lat="42.91357" lon="1.22937">
        <ele>696</ele>
        <time>2026-06-23T06:44:36.000Z</time>
      </trkpt>
      <trkpt lat="42.91357" lon="1.22937">
        <ele>696</ele>
        <time>2026-06-23T06:44:37.000Z</time>
      </trkpt>
      <trkpt lat="42.91357" lon="1.22936">
        <ele>697</ele>
        <time>2026-06-23T06:44:38.000Z</time>
      </trkpt>
      <trkpt lat="42.91357" lon="1.22937">
        <ele>697</ele>
        <time>2026-06-23T06:44:39.000Z</time>
      </trkpt>
      <trkpt lat="42.91357" lon="1.22937">
        <ele>696</ele>
        <time>2026-06-23T06:44:40.000Z</time>
      </trkpt>
      <trkpt lat="42.91356" lon="1.22937">
        <ele>696</ele>
        <time>2026-06-23T06:44:41.000Z</time>
      </trkpt>
      <trkpt lat="42.91355" lon="1.22936">
        <ele>695</ele>
        <time>2026-06-23T06:44:42.000Z</time>
      </trkpt>
      <trkpt lat="42.91355" lon="1.22936">
        <ele>695</ele>
        <time>2026-06-23T06:44:43.000Z</time>
      </trkpt>
      <trkpt lat="42.91355" lon="1.22937">
        <ele>694</ele>
        <time>2026-06-23T06:44:44.000Z</time>
      </trkpt>
      <trkpt lat="42.91354" lon="1.22938">
        <ele>696</ele>
        <time>2026-06-23T06:44:45.000Z</time>
      </trkpt>
      <trkpt lat="42.91353" lon="1.22939">
        <ele>695</ele>
        <time>2026-06-23T06:44:46.000Z</time>
      </trkpt>
      <trkpt lat="42.91353" lon="1.22939">
        <ele>695</ele>
        <time>2026-06-23T06:44:47.000Z</time>
      </trkpt>
      <trkpt lat="42.91352" lon="1.22939">
        <ele>694</ele>
        <time>2026-06-23T06:44:48.000Z</time>
      </trkpt>
      <trkpt lat="42.91352" lon="1.22939">
        <ele>693</ele>
        <time>2026-06-23T06:44:49.000Z</time>
      </trkpt>
      <trkpt lat="42.91351" lon="1.22939">
        <ele>693</ele>
        <time>2026-06-23T06:44:50.000Z</time>
      </trkpt>
      <trkpt lat="42.91353" lon="1.22939">
        <ele>693</ele>
        <time>2026-06-23T06:44:51.000Z</time>
      </trkpt>
      <trkpt lat="42.91353" lon="1.22939">
        <ele>693</ele>
        <time>2026-06-23T06:44:52.000Z</time>
      </trkpt>
      <trkpt lat="42.91353" lon="1.22938">
        <ele>694</ele>
        <time>2026-06-23T06:44:53.000Z</time>
      </trkpt>
      <trkpt lat="42.91352" lon="1.22937">
        <ele>695</ele>
        <time>2026-06-23T06:44:54.000Z</time>
      </trkpt>
      <trkpt lat="42.91352" lon="1.22937">
        <ele>695</ele>
        <time>2026-06-23T06:44:55.000Z</time>
      </trkpt>
      <trkpt lat="42.91352" lon="1.22936">
        <ele>696</ele>
        <time>2026-06-23T06:44:56.000Z</time>
      </trkpt>
      <trkpt lat="42.91352" lon="1.22937">
        <ele>696</ele>
        <time>2026-06-23T06:44:57.000Z</time>
      </trkpt>
      <trkpt lat="42.91352" lon="1.22936">
        <ele>696</ele>
        <time>2026-06-23T06:44:58.000Z</time>
      </trkpt>
      <trkpt lat="42.91352" lon="1.22936">
        <ele>696</ele>
        <time>2026-06-23T06:44:59.000Z</time>
      </trkpt>
      <trkpt lat="42.91352" lon="1.22935">
        <ele>696</ele>
        <time>2026-06-23T06:45:00.000Z</time>
      </trkpt>
      <trkpt lat="42.91352" lon="1.22935">
        <ele>695</ele>
        <time>2026-06-23T06:45:01.000Z</time>
      </trkpt>
      <trkpt lat="42.91352" lon="1.22934">
        <ele>695</ele>
        <time>2026-06-23T06:45:02.000Z</time>
      </trkpt>
      <trkpt lat="42.91351" lon="1.22933">
        <ele>695</ele>
        <time>2026-06-23T06:45:03.000Z</time>
      </trkpt>
      <trkpt lat="42.91351" lon="1.22933">
        <ele>695</ele>
        <time>2026-06-23T06:45:04.000Z</time>
      </trkpt>
      <trkpt lat="42.91352" lon="1.22933">
        <ele>694</ele>
        <time>2026-06-23T06:45:05.000Z</time>
      </trkpt>
      <trkpt lat="42.91352" lon="1.22933">
        <ele>695</ele>
        <time>2026-06-23T06:45:06.000Z</time>
      </trkpt>
      <trkpt lat="42.91351" lon="1.22934">
        <ele>694</ele>
        <time>2026-06-23T06:45:07.000Z</time>
      </trkpt>
      <trkpt lat="42.91351" lon="1.22934">
        <ele>694</ele>
        <time>2026-06-23T06:45:08.000Z</time>
      </trkpt>
      <trkpt lat="42.91351" lon="1.22934">
        <ele>693</ele>
        <time>2026-06-23T06:45:09.000Z</time>
      </trkpt>
      <trkpt lat="42.91352" lon="1.22934">
        <ele>693</ele>
        <time>2026-06-23T06:45:10.000Z</time>
      </trkpt>
      <trkpt lat="42.91352" lon="1.22935">
        <ele>692</ele>
        <time>2026-06-23T06:45:11.000Z</time>
      </trkpt>
      <trkpt lat="42.91352" lon="1.22935">
        <ele>691</ele>
        <time>2026-06-23T06:45:12.000Z</time>
      </trkpt>
      <trkpt lat="42.91352" lon="1.22934">
        <ele>691</ele>
        <time>2026-06-23T06:45:13.000Z</time>
      </trkpt>
      <trkpt lat="42.91352" lon="1.22935">
        <ele>690</ele>
        <time>2026-06-23T06:45:14.000Z</time>
      </trkpt>
      <trkpt lat="42.91353" lon="1.22934">
        <ele>690</ele>
        <time>2026-06-23T06:45:15.000Z</time>
      </trkpt>
      <trkpt lat="42.91353" lon="1.22934">
        <ele>690</ele>
        <time>2026-06-23T06:45:16.000Z</time>
      </trkpt>
      <trkpt lat="42.91353" lon="1.22934">
        <ele>690</ele>
        <time>2026-06-23T06:45:17.000Z</time>
      </trkpt>
      <trkpt lat="42.91353" lon="1.22934">
        <ele>690</ele>
        <time>2026-06-23T06:45:18.000Z</time>
      </trkpt>
      <trkpt lat="42.91352" lon="1.22931">
        <ele>687</ele>
        <time>2026-06-23T06:45:54.000Z</time>
      </trkpt>
      <trkpt lat="42.91352" lon="1.22929">
        <ele>687</ele>
        <time>2026-06-23T06:45:55.000Z</time>
      </trkpt>
      <trkpt lat="42.91353" lon="1.22929">
        <ele>687</ele>
        <time>2026-06-23T06:45:56.000Z</time>
      </trkpt>
      <trkpt lat="42.91354" lon="1.22927">
        <ele>687</ele>
        <time>2026-06-23T06:45:57.000Z</time>
      </trkpt>
      <trkpt lat="42.91355" lon="1.22927">
        <ele>687</ele>
        <time>2026-06-23T06:45:58.000Z</time>
      </trkpt>
      <trkpt lat="42.91356" lon="1.22925">
        <ele>688</ele>
        <time>2026-06-23T06:45:59.000Z</time>
      </trkpt>
      <trkpt lat="42.91355" lon="1.22925">
        <ele>688</ele>
        <time>2026-06-23T06:46:00.000Z</time>
      </trkpt>
      <trkpt lat="42.91355" lon="1.22924">
        <ele>688</ele>
        <time>2026-06-23T06:46:01.000Z</time>
      </trkpt>
      <trkpt lat="42.91355" lon="1.22923">
        <ele>688</ele>
        <time>2026-06-23T06:46:02.000Z</time>
      </trkpt>
      <trkpt lat="42.91355" lon="1.22923">
        <ele>688</ele>
        <time>2026-06-23T06:46:03.000Z</time>
      </trkpt>
      <trkpt lat="42.91354" lon="1.22922">
        <ele>688</ele>
        <time>2026-06-23T06:46:04.000Z</time>
      </trkpt>
      <trkpt lat="42.91354" lon="1.22921">
        <ele>689</ele>
        <time>2026-06-23T06:46:05.000Z</time>
      </trkpt>
      <trkpt lat="42.91354" lon="1.2292">
        <ele>689</ele>
        <time>2026-06-23T06:46:06.000Z</time>
      </trkpt>
      <trkpt lat="42.91353" lon="1.22918">
        <ele>689</ele>
        <time>2026-06-23T06:46:07.000Z</time>
      </trkpt>
      <trkpt lat="42.91352" lon="1.22918">
        <ele>689</ele>
        <time>2026-06-23T06:46:08.000Z</time>
      </trkpt>
      <trkpt lat="42.91352" lon="1.22918">
        <ele>689</ele>
        <time>2026-06-23T06:46:09.000Z</time>
      </trkpt>
      <trkpt lat="42.91352" lon="1.22918">
        <ele>689</ele>
        <time>2026-06-23T06:46:10.000Z</time>
      </trkpt>
      <trkpt lat="42.91352" lon="1.22917">
        <ele>689</ele>
        <time>2026-06-23T06:46:11.000Z</time>
      </trkpt>
      <trkpt lat="42.91352" lon="1.22916">
        <ele>690</ele>
        <time>2026-06-23T06:46:12.000Z</time>
      </trkpt>
      <trkpt lat="42.91352" lon="1.22916">
        <ele>690</ele>
        <time>2026-06-23T06:46:13.000Z</time>
      </trkpt>
      <trkpt lat="42.91352" lon="1.22916">
        <ele>690</ele>
        <time>2026-06-23T06:46:14.000Z</time>
      </trkpt>
      <trkpt lat="42.91352" lon="1.22916">
        <ele>690</ele>
        <time>2026-06-23T06:46:15.000Z</time>
      </trkpt>
      <trkpt lat="42.91351" lon="1.22916">
        <ele>690</ele>
        <time>2026-06-23T06:46:16.000Z</time>
      </trkpt>
      <trkpt lat="42.91352" lon="1.22916">
        <ele>690</ele>
        <time>2026-06-23T06:46:17.000Z</time>
      </trkpt>
      <trkpt lat="42.91352" lon="1.22915">
        <ele>690</ele>
        <time>2026-06-23T06:46:18.000Z</time>
      </trkpt>
      <trkpt lat="42.91351" lon="1.22915">
        <ele>690</ele>
        <time>2026-06-23T06:46:19.000Z</time>
      </trkpt>
      <trkpt lat="42.91352" lon="1.22914">
        <ele>690</ele>
        <time>2026-06-23T06:46:20.000Z</time>
      </trkpt>
      <trkpt lat="42.91351" lon="1.22914">
        <ele>690</ele>
        <time>2026-06-23T06:46:21.000Z</time>
      </trkpt>
      <trkpt lat="42.91351" lon="1.22913">
        <ele>691</ele>
        <time>2026-06-23T06:46:22.000Z</time>
      </trkpt>
      <trkpt lat="42.91351" lon="1.22912">
        <ele>691</ele>
        <time>2026-06-23T06:46:23.000Z</time>
      </trkpt>
      <trkpt lat="42.91352" lon="1.22912">
        <ele>691</ele>
        <time>2026-06-23T06:46:24.000Z</time>
      </trkpt>
      <trkpt lat="42.91352" lon="1.22911">
        <ele>692</ele>
        <time>2026-06-23T06:46:25.000Z</time>
      </trkpt>
      <trkpt lat="42.91353" lon="1.22911">
        <ele>693</ele>
        <time>2026-06-23T06:46:26.000Z</time>
      </trkpt>
      <trkpt lat="42.91353" lon="1.2291">
        <ele>693</ele>
        <time>2026-06-23T06:46:27.000Z</time>
      </trkpt>
      <trkpt lat="42.91354" lon="1.2291">
        <ele>693</ele>
        <time>2026-06-23T06:46:28.000Z</time>
      </trkpt>
      <trkpt lat="42.91354" lon="1.22909">
        <ele>694</ele>
        <time>2026-06-23T06:46:29.000Z</time>
      </trkpt>
      <trkpt lat="42.91355" lon="1.22909">
        <ele>695</ele>
        <time>2026-06-23T06:46:30.000Z</time>
      </trkpt>
      <trkpt lat="42.91355" lon="1.22908">
        <ele>695</ele>
        <time>2026-06-23T06:46:31.000Z</time>
      </trkpt>
      <trkpt lat="42.91355" lon="1.22908">
        <ele>695</ele>
        <time>2026-06-23T06:46:32.000Z</time>
      </trkpt>
      <trkpt lat="42.91355" lon="1.22908">
        <ele>695</ele>
        <time>2026-06-23T06:46:33.000Z</time>
      </trkpt>
      <trkpt lat="42.91356" lon="1.22908">
        <ele>695</ele>
        <time>2026-06-23T06:46:34.000Z</time>
      </trkpt>
      <trkpt lat="42.91356" lon="1.22909">
        <ele>695</ele>
        <time>2026-06-23T06:46:35.000Z</time>
      </trkpt>
      <trkpt lat="42.91357" lon="1.22909">
        <ele>694</ele>
        <time>2026-06-23T06:46:36.000Z</time>
      </trkpt>
      <trkpt lat="42.91357" lon="1.2291">
        <ele>694</ele>
        <time>2026-06-23T06:46:37.000Z</time>
      </trkpt>
      <trkpt lat="42.91357" lon="1.2291">
        <ele>694</ele>
        <time>2026-06-23T06:46:38.000Z</time>
      </trkpt>
      <trkpt lat="42.91357" lon="1.2291">
        <ele>694</ele>
        <time>2026-06-23T06:46:39.000Z</time>
      </trkpt>
      <trkpt lat="42.91356" lon="1.22911">
        <ele>694</ele>
        <time>2026-06-23T06:46:40.000Z</time>
      </trkpt>
      <trkpt lat="42.91356" lon="1.22911">
        <ele>694</ele>
        <time>2026-06-23T06:46:41.000Z</time>
      </trkpt>
      <trkpt lat="42.91356" lon="1.22912">
        <ele>693</ele>
        <time>2026-06-23T06:46:42.000Z</time>
      </trkpt>
      <trkpt lat="42.91355" lon="1.22912">
        <ele>693</ele>
        <time>2026-06-23T06:46:43.000Z</time>
      </trkpt>
      <trkpt lat="42.91354" lon="1.22913">
        <ele>692</ele>
        <time>2026-06-23T06:46:44.000Z</time>
      </trkpt>
      <trkpt lat="42.91353" lon="1.22913">
        <ele>691</ele>
        <time>2026-06-23T06:46:45.000Z</time>
      </trkpt>
      <trkpt lat="42.91353" lon="1.22913">
        <ele>692</ele>
        <time>2026-06-23T06:46:46.000Z</time>
      </trkpt>
      <trkpt lat="42.91353" lon="1.22914">
        <ele>691</ele>
        <time>2026-06-23T06:46:47.000Z</time>
      </trkpt>
      <trkpt lat="42.91353" lon="1.22916">
        <ele>690</ele>
        <time>2026-06-23T06:47:05.000Z</time>
      </trkpt>
      <trkpt lat="42.91353" lon="1.22917">
        <ele>691</ele>
        <time>2026-06-23T06:47:06.000Z</time>
      </trkpt>
      <trkpt lat="42.91353" lon="1.22918">
        <ele>691</ele>
        <time>2026-06-23T06:47:07.000Z</time>
      </trkpt>
      <trkpt lat="42.91354" lon="1.22919">
        <ele>690</ele>
        <time>2026-06-23T06:47:08.000Z</time>
      </trkpt>
      <trkpt lat="42.91354" lon="1.22919">
        <ele>691</ele>
        <time>2026-06-23T06:47:09.000Z</time>
      </trkpt>
      <trkpt lat="42.91353" lon="1.22923">
        <ele>693</ele>
        <time>2026-06-23T06:48:13.000Z</time>
      </trkpt>
      <trkpt lat="42.91353" lon="1.22924">
        <ele>693</ele>
        <time>2026-06-23T06:48:14.000Z</time>
      </trkpt>
      <trkpt lat="42.91352" lon="1.22925">
        <ele>693</ele>
        <time>2026-06-23T06:48:15.000Z</time>
      </trkpt>
      <trkpt lat="42.91352" lon="1.22925">
        <ele>694</ele>
        <time>2026-06-23T06:48:16.000Z</time>
      </trkpt>
      <trkpt lat="42.91352" lon="1.22925">
        <ele>694</ele>
        <time>2026-06-23T06:48:17.000Z</time>
      </trkpt>
      <trkpt lat="42.91352" lon="1.22925">
        <ele>693</ele>
        <time>2026-06-23T06:48:18.000Z</time>
      </trkpt>
      <trkpt lat="42.91353" lon="1.22926">
        <ele>693</ele>
        <time>2026-06-23T06:48:19.000Z</time>
      </trkpt>
      <trkpt lat="42.91353" lon="1.22926">
        <ele>693</ele>
        <time>2026-06-23T06:48:20.000Z</time>
      </trkpt>
      <trkpt lat="42.91353" lon="1.22927">
        <ele>692</ele>
        <time>2026-06-23T06:48:21.000Z</time>
      </trkpt>
      <trkpt lat="42.91353" lon="1.22927">
        <ele>692</ele>
        <time>2026-06-23T06:48:22.000Z</time>
      </trkpt>
      <trkpt lat="42.91354" lon="1.22928">
        <ele>691</ele>
        <time>2026-06-23T06:48:23.000Z</time>
      </trkpt>
      <trkpt lat="42.91354" lon="1.22928">
        <ele>690</ele>
        <time>2026-06-23T06:48:24.000Z</time>
      </trkpt>
      <trkpt lat="42.91354" lon="1.22928">
        <ele>691</ele>
        <time>2026-06-23T06:48:25.000Z</time>
      </trkpt>
      <trkpt lat="42.91355" lon="1.22928">
        <ele>690</ele>
        <time>2026-06-23T06:48:26.000Z</time>
      </trkpt>
      <trkpt lat="42.91356" lon="1.22928">
        <ele>690</ele>
        <time>2026-06-23T06:48:27.000Z</time>
      </trkpt>
      <trkpt lat="42.91356" lon="1.22928">
        <ele>690</ele>
        <time>2026-06-23T06:48:28.000Z</time>
      </trkpt>
      <trkpt lat="42.91357" lon="1.22927">
        <ele>690</ele>
        <time>2026-06-23T06:48:29.000Z</time>
      </trkpt>
      <trkpt lat="42.91358" lon="1.22927">
        <ele>690</ele>
        <time>2026-06-23T06:48:30.000Z</time>
      </trkpt>
      <trkpt lat="42.9136" lon="1.22927">
        <ele>690</ele>
        <time>2026-06-23T06:48:31.000Z</time>
      </trkpt>
      <trkpt lat="42.91361" lon="1.22927">
        <ele>690</ele>
        <time>2026-06-23T06:48:32.000Z</time>
      </trkpt>
      <trkpt lat="42.91362" lon="1.22928">
        <ele>689</ele>
        <time>2026-06-23T06:48:33.000Z</time>
      </trkpt>
      <trkpt lat="42.91364" lon="1.22928">
        <ele>689</ele>
        <time>2026-06-23T06:48:34.000Z</time>
      </trkpt>
      <trkpt lat="42.91365" lon="1.2293">
        <ele>689</ele>
        <time>2026-06-23T06:48:35.000Z</time>
      </trkpt>
      <trkpt lat="42.91367" lon="1.22931">
        <ele>688</ele>
        <time>2026-06-23T06:48:36.000Z</time>
      </trkpt>
      <trkpt lat="42.91369" lon="1.22932">
        <ele>688</ele>
        <time>2026-06-23T06:48:37.000Z</time>
      </trkpt>
      <trkpt lat="42.91371" lon="1.22934">
        <ele>687</ele>
        <time>2026-06-23T06:48:38.000Z</time>
      </trkpt>
      <trkpt lat="42.91373" lon="1.22935">
        <ele>686</ele>
        <time>2026-06-23T06:48:39.000Z</time>
      </trkpt>
      <trkpt lat="42.91374" lon="1.22936">
        <ele>686</ele>
        <time>2026-06-23T06:48:40.000Z</time>
      </trkpt>
      <trkpt lat="42.91375" lon="1.22937">
        <ele>686</ele>
        <time>2026-06-23T06:48:41.000Z</time>
      </trkpt>
      <trkpt lat="42.91375" lon="1.22938">
        <ele>686</ele>
        <time>2026-06-23T06:48:42.000Z</time>
      </trkpt>
      <trkpt lat="42.91375" lon="1.22937">
        <ele>685</ele>
        <time>2026-06-23T06:48:43.000Z</time>
      </trkpt>
      <trkpt lat="42.91376" lon="1.22936">
        <ele>684</ele>
        <time>2026-06-23T06:48:44.000Z</time>
      </trkpt>
      <trkpt lat="42.91378" lon="1.22937">
        <ele>683</ele>
        <time>2026-06-23T06:48:45.000Z</time>
      </trkpt>
      <trkpt lat="42.91379" lon="1.22938">
        <ele>682</ele>
        <time>2026-06-23T06:48:46.000Z</time>
      </trkpt>
      <trkpt lat="42.91381" lon="1.22939">
        <ele>681</ele>
        <time>2026-06-23T06:48:47.000Z</time>
      </trkpt>
      <trkpt lat="42.91384" lon="1.2294">
        <ele>678</ele>
        <time>2026-06-23T06:48:48.000Z</time>
      </trkpt>
      <trkpt lat="42.91386" lon="1.22942">
        <ele>676</ele>
        <time>2026-06-23T06:48:49.000Z</time>
      </trkpt>
      <trkpt lat="42.91389" lon="1.22945">
        <ele>675</ele>
        <time>2026-06-23T06:48:50.000Z</time>
      </trkpt>
      <trkpt lat="42.91392" lon="1.22949">
        <ele>674</ele>
        <time>2026-06-23T06:48:51.000Z</time>
      </trkpt>
      <trkpt lat="42.91395" lon="1.22952">
        <ele>674</ele>
        <time>2026-06-23T06:48:52.000Z</time>
      </trkpt>
      <trkpt lat="42.91398" lon="1.22952">
        <ele>674</ele>
        <time>2026-06-23T06:48:53.000Z</time>
      </trkpt>
      <trkpt lat="42.91401" lon="1.22949">
        <ele>674</ele>
        <time>2026-06-23T06:48:54.000Z</time>
      </trkpt>
      <trkpt lat="42.91404" lon="1.22945">
        <ele>673</ele>
        <time>2026-06-23T06:48:55.000Z</time>
      </trkpt>
      <trkpt lat="42.91405" lon="1.22941">
        <ele>673</ele>
        <time>2026-06-23T06:48:56.000Z</time>
      </trkpt>
      <trkpt lat="42.91407" lon="1.22936">
        <ele>673</ele>
        <time>2026-06-23T06:48:57.000Z</time>
      </trkpt>
      <trkpt lat="42.91409" lon="1.22932">
        <ele>673</ele>
        <time>2026-06-23T06:48:58.000Z</time>
      </trkpt>
      <trkpt lat="42.91412" lon="1.22925">
        <ele>675</ele>
        <time>2026-06-23T06:48:59.000Z</time>
      </trkpt>
      <trkpt lat="42.91414" lon="1.22921">
        <ele>677</ele>
        <time>2026-06-23T06:49:00.000Z</time>
      </trkpt>
      <trkpt lat="42.91416" lon="1.22916">
        <ele>677</ele>
        <time>2026-06-23T06:49:01.000Z</time>
      </trkpt>
      <trkpt lat="42.91418" lon="1.22911">
        <ele>677</ele>
        <time>2026-06-23T06:49:02.000Z</time>
      </trkpt>
      <trkpt lat="42.91419" lon="1.22906">
        <ele>678</ele>
        <time>2026-06-23T06:49:03.000Z</time>
      </trkpt>
      <trkpt lat="42.91421" lon="1.22901">
        <ele>678</ele>
        <time>2026-06-23T06:49:04.000Z</time>
      </trkpt>
      <trkpt lat="42.91424" lon="1.22897">
        <ele>678</ele>
        <time>2026-06-23T06:49:05.000Z</time>
      </trkpt>
      <trkpt lat="42.91427" lon="1.22892">
        <ele>679</ele>
        <time>2026-06-23T06:49:06.000Z</time>
      </trkpt>
      <trkpt lat="42.9143" lon="1.22887">
        <ele>679</ele>
        <time>2026-06-23T06:49:07.000Z</time>
      </trkpt>
      <trkpt lat="42.91433" lon="1.22885">
        <ele>680</ele>
        <time>2026-06-23T06:49:08.000Z</time>
      </trkpt>
      <trkpt lat="42.91436" lon="1.22882">
        <ele>679</ele>
        <time>2026-06-23T06:49:09.000Z</time>
      </trkpt>
      <trkpt lat="42.9144" lon="1.22877">
        <ele>680</ele>
        <time>2026-06-23T06:49:10.000Z</time>
      </trkpt>
      <trkpt lat="42.91444" lon="1.22872">
        <ele>682</ele>
        <time>2026-06-23T06:49:11.000Z</time>
      </trkpt>
      <trkpt lat="42.91448" lon="1.22868">
        <ele>682</ele>
        <time>2026-06-23T06:49:12.000Z</time>
      </trkpt>
      <trkpt lat="42.91452" lon="1.22863">
        <ele>683</ele>
        <time>2026-06-23T06:49:13.000Z</time>
      </trkpt>
      <trkpt lat="42.91455" lon="1.22857">
        <ele>684</ele>
        <time>2026-06-23T06:49:14.000Z</time>
      </trkpt>
      <trkpt lat="42.91459" lon="1.22852">
        <ele>685</ele>
        <time>2026-06-23T06:49:15.000Z</time>
      </trkpt>
      <trkpt lat="42.91463" lon="1.22847">
        <ele>686</ele>
        <time>2026-06-23T06:49:16.000Z</time>
      </trkpt>
      <trkpt lat="42.91466" lon="1.22841">
        <ele>687</ele>
        <time>2026-06-23T06:49:17.000Z</time>
      </trkpt>
      <trkpt lat="42.9147" lon="1.22835">
        <ele>688</ele>
        <time>2026-06-23T06:49:18.000Z</time>
      </trkpt>
      <trkpt lat="42.91474" lon="1.22829">
        <ele>688</ele>
        <time>2026-06-23T06:49:19.000Z</time>
      </trkpt>
      <trkpt lat="42.91478" lon="1.22822">
        <ele>689</ele>
        <time>2026-06-23T06:49:20.000Z</time>
      </trkpt>
      <trkpt lat="42.91482" lon="1.22815">
        <ele>690</ele>
        <time>2026-06-23T06:49:21.000Z</time>
      </trkpt>
      <trkpt lat="42.91484" lon="1.22809">
        <ele>691</ele>
        <time>2026-06-23T06:49:22.000Z</time>
      </trkpt>
      <trkpt lat="42.91486" lon="1.22803">
        <ele>691</ele>
        <time>2026-06-23T06:49:23.000Z</time>
      </trkpt>
      <trkpt lat="42.91487" lon="1.22797">
        <ele>691</ele>
        <time>2026-06-23T06:49:24.000Z</time>
      </trkpt>
      <trkpt lat="42.91487" lon="1.22791">
        <ele>692</ele>
        <time>2026-06-23T06:49:25.000Z</time>
      </trkpt>
      <trkpt lat="42.91486" lon="1.22785">
        <ele>692</ele>
        <time>2026-06-23T06:49:26.000Z</time>
      </trkpt>
      <trkpt lat="42.91485" lon="1.22779">
        <ele>692</ele>
        <time>2026-06-23T06:49:27.000Z</time>
      </trkpt>
      <trkpt lat="42.91484" lon="1.22773">
        <ele>693</ele>
        <time>2026-06-23T06:49:28.000Z</time>
      </trkpt>
      <trkpt lat="42.91482" lon="1.22767">
        <ele>694</ele>
        <time>2026-06-23T06:49:29.000Z</time>
      </trkpt>
      <trkpt lat="42.9148" lon="1.22762">
        <ele>694</ele>
        <time>2026-06-23T06:49:30.000Z</time>
      </trkpt>
      <trkpt lat="42.91479" lon="1.22757">
        <ele>695</ele>
        <time>2026-06-23T06:49:31.000Z</time>
      </trkpt>
      <trkpt lat="42.91476" lon="1.22751">
        <ele>694</ele>
        <time>2026-06-23T06:49:32.000Z</time>
      </trkpt>
      <trkpt lat="42.91473" lon="1.22746">
        <ele>694</ele>
        <time>2026-06-23T06:49:33.000Z</time>
      </trkpt>
      <trkpt lat="42.91471" lon="1.22741">
        <ele>694</ele>
        <time>2026-06-23T06:49:34.000Z</time>
      </trkpt>
      <trkpt lat="42.91468" lon="1.22736">
        <ele>694</ele>
        <time>2026-06-23T06:49:35.000Z</time>
      </trkpt>
      <trkpt lat="42.91465" lon="1.22731">
        <ele>694</ele>
        <time>2026-06-23T06:49:36.000Z</time>
      </trkpt>
      <trkpt lat="42.91462" lon="1.22726">
        <ele>694</ele>
        <time>2026-06-23T06:49:37.000Z</time>
      </trkpt>
      <trkpt lat="42.9146" lon="1.2272">
        <ele>695</ele>
        <time>2026-06-23T06:49:38.000Z</time>
      </trkpt>
      <trkpt lat="42.91457" lon="1.22715">
        <ele>695</ele>
        <time>2026-06-23T06:49:39.000Z</time>
      </trkpt>
      <trkpt lat="42.91454" lon="1.22709">
        <ele>695</ele>
        <time>2026-06-23T06:49:40.000Z</time>
      </trkpt>
      <trkpt lat="42.91451" lon="1.22703">
        <ele>695</ele>
        <time>2026-06-23T06:49:41.000Z</time>
      </trkpt>
      <trkpt lat="42.91448" lon="1.22698">
        <ele>694</ele>
        <time>2026-06-23T06:49:42.000Z</time>
      </trkpt>
      <trkpt lat="42.91445" lon="1.22693">
        <ele>695</ele>
        <time>2026-06-23T06:49:43.000Z</time>
      </trkpt>
      <trkpt lat="42.91442" lon="1.22687">
        <ele>695</ele>
        <time>2026-06-23T06:49:44.000Z</time>
      </trkpt>
      <trkpt lat="42.91439" lon="1.22682">
        <ele>695</ele>
        <time>2026-06-23T06:49:45.000Z</time>
      </trkpt>
      <trkpt lat="42.91436" lon="1.22677">
        <ele>694</ele>
        <time>2026-06-23T06:49:46.000Z</time>
      </trkpt>
      <trkpt lat="42.91433" lon="1.22672">
        <ele>694</ele>
        <time>2026-06-23T06:49:47.000Z</time>
      </trkpt>
      <trkpt lat="42.91431" lon="1.22667">
        <ele>694</ele>
        <time>2026-06-23T06:49:48.000Z</time>
      </trkpt>
      <trkpt lat="42.91429" lon="1.22662">
        <ele>695</ele>
        <time>2026-06-23T06:49:49.000Z</time>
      </trkpt>
      <trkpt lat="42.91426" lon="1.22657">
        <ele>695</ele>
        <time>2026-06-23T06:49:50.000Z</time>
      </trkpt>
      <trkpt lat="42.91424" lon="1.22652">
        <ele>695</ele>
        <time>2026-06-23T06:49:51.000Z</time>
      </trkpt>
      <trkpt lat="42.91422" lon="1.22646">
        <ele>696</ele>
        <time>2026-06-23T06:49:52.000Z</time>
      </trkpt>
      <trkpt lat="42.9142" lon="1.22641">
        <ele>696</ele>
        <time>2026-06-23T06:49:53.000Z</time>
      </trkpt>
      <trkpt lat="42.91418" lon="1.22635">
        <ele>697</ele>
        <time>2026-06-23T06:49:54.000Z</time>
      </trkpt>
      <trkpt lat="42.91417" lon="1.2263">
        <ele>697</ele>
        <time>2026-06-23T06:49:55.000Z</time>
      </trkpt>
      <trkpt lat="42.91415" lon="1.22626">
        <ele>697</ele>
        <time>2026-06-23T06:49:56.000Z</time>
      </trkpt>
      <trkpt lat="42.91412" lon="1.22622">
        <ele>697</ele>
        <time>2026-06-23T06:49:57.000Z</time>
      </trkpt>
      <trkpt lat="42.91409" lon="1.22617">
        <ele>697</ele>
        <time>2026-06-23T06:49:58.000Z</time>
      </trkpt>
      <trkpt lat="42.91407" lon="1.22613">
        <ele>698</ele>
        <time>2026-06-23T06:49:59.000Z</time>
      </trkpt>
      <trkpt lat="42.91405" lon="1.22608">
        <ele>698</ele>
        <time>2026-06-23T06:50:00.000Z</time>
      </trkpt>
      <trkpt lat="42.91401" lon="1.22604">
        <ele>698</ele>
        <time>2026-06-23T06:50:01.000Z</time>
      </trkpt>
      <trkpt lat="42.91397" lon="1.22601">
        <ele>698</ele>
        <time>2026-06-23T06:50:02.000Z</time>
      </trkpt>
      <trkpt lat="42.91393" lon="1.22598">
        <ele>698</ele>
        <time>2026-06-23T06:50:03.000Z</time>
      </trkpt>
      <trkpt lat="42.91389" lon="1.22594">
        <ele>697</ele>
        <time>2026-06-23T06:50:04.000Z</time>
      </trkpt>
      <trkpt lat="42.91386" lon="1.2259">
        <ele>697</ele>
        <time>2026-06-23T06:50:05.000Z</time>
      </trkpt>
      <trkpt lat="42.91382" lon="1.22587">
        <ele>697</ele>
        <time>2026-06-23T06:50:06.000Z</time>
      </trkpt>
      <trkpt lat="42.91379" lon="1.22583">
        <ele>697</ele>
        <time>2026-06-23T06:50:07.000Z</time>
      </trkpt>
      <trkpt lat="42.91375" lon="1.22581">
        <ele>697</ele>
        <time>2026-06-23T06:50:08.000Z</time>
      </trkpt>
      <trkpt lat="42.91371" lon="1.22578">
        <ele>697</ele>
        <time>2026-06-23T06:50:09.000Z</time>
      </trkpt>
      <trkpt lat="42.91368" lon="1.22575">
        <ele>697</ele>
        <time>2026-06-23T06:50:10.000Z</time>
      </trkpt>
      <trkpt lat="42.91364" lon="1.22573">
        <ele>697</ele>
        <time>2026-06-23T06:50:11.000Z</time>
      </trkpt>
      <trkpt lat="42.91361" lon="1.22573">
        <ele>697</ele>
        <time>2026-06-23T06:50:12.000Z</time>
      </trkpt>
      <trkpt lat="42.91357" lon="1.22572">
        <ele>697</ele>
        <time>2026-06-23T06:50:13.000Z</time>
      </trkpt>
      <trkpt lat="42.91354" lon="1.22571">
        <ele>697</ele>
        <time>2026-06-23T06:50:14.000Z</time>
      </trkpt>
      <trkpt lat="42.91351" lon="1.2257">
        <ele>697</ele>
        <time>2026-06-23T06:50:15.000Z</time>
      </trkpt>
      <trkpt lat="42.91348" lon="1.22568">
        <ele>697</ele>
        <time>2026-06-23T06:50:16.000Z</time>
      </trkpt>
      <trkpt lat="42.91345" lon="1.22567">
        <ele>696</ele>
        <time>2026-06-23T06:50:17.000Z</time>
      </trkpt>
      <trkpt lat="42.91342" lon="1.22565">
        <ele>696</ele>
        <time>2026-06-23T06:50:18.000Z</time>
      </trkpt>
      <trkpt lat="42.91339" lon="1.22564">
        <ele>696</ele>
        <time>2026-06-23T06:50:19.000Z</time>
      </trkpt>
      <trkpt lat="42.91336" lon="1.22562">
        <ele>696</ele>
        <time>2026-06-23T06:50:20.000Z</time>
      </trkpt>
      <trkpt lat="42.91333" lon="1.2256">
        <ele>696</ele>
        <time>2026-06-23T06:50:21.000Z</time>
      </trkpt>
      <trkpt lat="42.9133" lon="1.22559">
        <ele>696</ele>
        <time>2026-06-23T06:50:22.000Z</time>
      </trkpt>
      <trkpt lat="42.91327" lon="1.22557">
        <ele>696</ele>
        <time>2026-06-23T06:50:23.000Z</time>
      </trkpt>
      <trkpt lat="42.91324" lon="1.22555">
        <ele>695</ele>
        <time>2026-06-23T06:50:24.000Z</time>
      </trkpt>
      <trkpt lat="42.91321" lon="1.22553">
        <ele>695</ele>
        <time>2026-06-23T06:50:25.000Z</time>
      </trkpt>
      <trkpt lat="42.91318" lon="1.22551">
        <ele>695</ele>
        <time>2026-06-23T06:50:26.000Z</time>
      </trkpt>
      <trkpt lat="42.91315" lon="1.22549">
        <ele>695</ele>
        <time>2026-06-23T06:50:27.000Z</time>
      </trkpt>
      <trkpt lat="42.91311" lon="1.22547">
        <ele>695</ele>
        <time>2026-06-23T06:50:28.000Z</time>
      </trkpt>
      <trkpt lat="42.91308" lon="1.22545">
        <ele>695</ele>
        <time>2026-06-23T06:50:29.000Z</time>
      </trkpt>
      <trkpt lat="42.91304" lon="1.22543">
        <ele>695</ele>
        <time>2026-06-23T06:50:30.000Z</time>
      </trkpt>
      <trkpt lat="42.91301" lon="1.22541">
        <ele>695</ele>
        <time>2026-06-23T06:50:31.000Z</time>
      </trkpt>
      <trkpt lat="42.91298" lon="1.22539">
        <ele>695</ele>
        <time>2026-06-23T06:50:32.000Z</time>
      </trkpt>
      <trkpt lat="42.91295" lon="1.22537">
        <ele>695</ele>
        <time>2026-06-23T06:50:33.000Z</time>
      </trkpt>
      <trkpt lat="42.91293" lon="1.22533">
        <ele>695</ele>
        <time>2026-06-23T06:50:34.000Z</time>
      </trkpt>
      <trkpt lat="42.91291" lon="1.22531">
        <ele>695</ele>
        <time>2026-06-23T06:50:35.000Z</time>
      </trkpt>
      <trkpt lat="42.91289" lon="1.22527">
        <ele>694</ele>
        <time>2026-06-23T06:50:36.000Z</time>
      </trkpt>
      <trkpt lat="42.91287" lon="1.22524">
        <ele>694</ele>
        <time>2026-06-23T06:50:37.000Z</time>
      </trkpt>
      <trkpt lat="42.91285" lon="1.2252">
        <ele>694</ele>
        <time>2026-06-23T06:50:38.000Z</time>
      </trkpt>
      <trkpt lat="42.91283" lon="1.22516">
        <ele>693</ele>
        <time>2026-06-23T06:50:39.000Z</time>
      </trkpt>
      <trkpt lat="42.91281" lon="1.22513">
        <ele>693</ele>
        <time>2026-06-23T06:50:40.000Z</time>
      </trkpt>
      <trkpt lat="42.91279" lon="1.22509">
        <ele>694</ele>
        <time>2026-06-23T06:50:41.000Z</time>
      </trkpt>
      <trkpt lat="42.91278" lon="1.22505">
        <ele>694</ele>
        <time>2026-06-23T06:50:42.000Z</time>
      </trkpt>
      <trkpt lat="42.91276" lon="1.22502">
        <ele>694</ele>
        <time>2026-06-23T06:50:43.000Z</time>
      </trkpt>
      <trkpt lat="42.91274" lon="1.22498">
        <ele>694</ele>
        <time>2026-06-23T06:50:44.000Z</time>
      </trkpt>
      <trkpt lat="42.91271" lon="1.22493">
        <ele>695</ele>
        <time>2026-06-23T06:50:45.000Z</time>
      </trkpt>
      <trkpt lat="42.91269" lon="1.2249">
        <ele>695</ele>
        <time>2026-06-23T06:50:46.000Z</time>
      </trkpt>
      <trkpt lat="42.91266" lon="1.22486">
        <ele>695</ele>
        <time>2026-06-23T06:50:47.000Z</time>
      </trkpt>
      <trkpt lat="42.91262" lon="1.22483">
        <ele>695</ele>
        <time>2026-06-23T06:50:48.000Z</time>
      </trkpt>
      <trkpt lat="42.91259" lon="1.2248">
        <ele>696</ele>
        <time>2026-06-23T06:50:49.000Z</time>
      </trkpt>
      <trkpt lat="42.91255" lon="1.22477">
        <ele>696</ele>
        <time>2026-06-23T06:50:50.000Z</time>
      </trkpt>
      <trkpt lat="42.9125" lon="1.22472">
        <ele>698</ele>
        <time>2026-06-23T06:50:51.000Z</time>
      </trkpt>
      <trkpt lat="42.91246" lon="1.2247">
        <ele>698</ele>
        <time>2026-06-23T06:50:52.000Z</time>
      </trkpt>
      <trkpt lat="42.91242" lon="1.22468">
        <ele>698</ele>
        <time>2026-06-23T06:50:53.000Z</time>
      </trkpt>
      <trkpt lat="42.91238" lon="1.22467">
        <ele>698</ele>
        <time>2026-06-23T06:50:54.000Z</time>
      </trkpt>
      <trkpt lat="42.91234" lon="1.22466">
        <ele>698</ele>
        <time>2026-06-23T06:50:55.000Z</time>
      </trkpt>
      <trkpt lat="42.9123" lon="1.22465">
        <ele>699</ele>
        <time>2026-06-23T06:50:56.000Z</time>
      </trkpt>
      <trkpt lat="42.91226" lon="1.22467">
        <ele>700</ele>
        <time>2026-06-23T06:50:57.000Z</time>
      </trkpt>
      <trkpt lat="42.91222" lon="1.22468">
        <ele>700</ele>
        <time>2026-06-23T06:50:58.000Z</time>
      </trkpt>
      <trkpt lat="42.91218" lon="1.22468">
        <ele>700</ele>
        <time>2026-06-23T06:50:59.000Z</time>
      </trkpt>
      <trkpt lat="42.91215" lon="1.22469">
        <ele>700</ele>
        <time>2026-06-23T06:51:00.000Z</time>
      </trkpt>
      <trkpt lat="42.91211" lon="1.2247">
        <ele>701</ele>
        <time>2026-06-23T06:51:01.000Z</time>
      </trkpt>
      <trkpt lat="42.91207" lon="1.22471">
        <ele>701</ele>
        <time>2026-06-23T06:51:02.000Z</time>
      </trkpt>
      <trkpt lat="42.91203" lon="1.22471">
        <ele>702</ele>
        <time>2026-06-23T06:51:03.000Z</time>
      </trkpt>
      <trkpt lat="42.91199" lon="1.22472">
        <ele>702</ele>
        <time>2026-06-23T06:51:04.000Z</time>
      </trkpt>
      <trkpt lat="42.91197" lon="1.22472">
        <ele>702</ele>
        <time>2026-06-23T06:51:05.000Z</time>
      </trkpt>
      <trkpt lat="42.91193" lon="1.22473">
        <ele>703</ele>
        <time>2026-06-23T06:51:06.000Z</time>
      </trkpt>
      <trkpt lat="42.9119" lon="1.22474">
        <ele>703</ele>
        <time>2026-06-23T06:51:07.000Z</time>
      </trkpt>
      <trkpt lat="42.91187" lon="1.22475">
        <ele>703</ele>
        <time>2026-06-23T06:51:08.000Z</time>
      </trkpt>
      <trkpt lat="42.91183" lon="1.22475">
        <ele>703</ele>
        <time>2026-06-23T06:51:09.000Z</time>
      </trkpt>
      <trkpt lat="42.9118" lon="1.22475">
        <ele>703</ele>
        <time>2026-06-23T06:51:10.000Z</time>
      </trkpt>
      <trkpt lat="42.91176" lon="1.22475">
        <ele>703</ele>
        <time>2026-06-23T06:51:11.000Z</time>
      </trkpt>
      <trkpt lat="42.91172" lon="1.22476">
        <ele>703</ele>
        <time>2026-06-23T06:51:12.000Z</time>
      </trkpt>
      <trkpt lat="42.91169" lon="1.22476">
        <ele>703</ele>
        <time>2026-06-23T06:51:13.000Z</time>
      </trkpt>
      <trkpt lat="42.91166" lon="1.22477">
        <ele>702</ele>
        <time>2026-06-23T06:51:14.000Z</time>
      </trkpt>
      <trkpt lat="42.91163" lon="1.22476">
        <ele>702</ele>
        <time>2026-06-23T06:51:15.000Z</time>
      </trkpt>
      <trkpt lat="42.91158" lon="1.22478">
        <ele>703</ele>
        <time>2026-06-23T06:51:16.000Z</time>
      </trkpt>
      <trkpt lat="42.91154" lon="1.22479">
        <ele>704</ele>
        <time>2026-06-23T06:51:17.000Z</time>
      </trkpt>
      <trkpt lat="42.9115" lon="1.2248">
        <ele>705</ele>
        <time>2026-06-23T06:51:18.000Z</time>
      </trkpt>
      <trkpt lat="42.91145" lon="1.2248">
        <ele>705</ele>
        <time>2026-06-23T06:51:19.000Z</time>
      </trkpt>
      <trkpt lat="42.91141" lon="1.2248">
        <ele>705</ele>
        <time>2026-06-23T06:51:20.000Z</time>
      </trkpt>
      <trkpt lat="42.91137" lon="1.22479">
        <ele>705</ele>
        <time>2026-06-23T06:51:21.000Z</time>
      </trkpt>
      <trkpt lat="42.91134" lon="1.22478">
        <ele>705</ele>
        <time>2026-06-23T06:51:22.000Z</time>
      </trkpt>
      <trkpt lat="42.9113" lon="1.22478">
        <ele>705</ele>
        <time>2026-06-23T06:51:23.000Z</time>
      </trkpt>
      <trkpt lat="42.91127" lon="1.22478">
        <ele>706</ele>
        <time>2026-06-23T06:51:24.000Z</time>
      </trkpt>
      <trkpt lat="42.91124" lon="1.22477">
        <ele>705</ele>
        <time>2026-06-23T06:51:25.000Z</time>
      </trkpt>
      <trkpt lat="42.91121" lon="1.22477">
        <ele>705</ele>
        <time>2026-06-23T06:51:26.000Z</time>
      </trkpt>
      <trkpt lat="42.91117" lon="1.22475">
        <ele>705</ele>
        <time>2026-06-23T06:51:27.000Z</time>
      </trkpt>
      <trkpt lat="42.91115" lon="1.22472">
        <ele>705</ele>
        <time>2026-06-23T06:51:28.000Z</time>
      </trkpt>
      <trkpt lat="42.91112" lon="1.2247">
        <ele>706</ele>
        <time>2026-06-23T06:51:29.000Z</time>
      </trkpt>
      <trkpt lat="42.91109" lon="1.22467">
        <ele>706</ele>
        <time>2026-06-23T06:51:30.000Z</time>
      </trkpt>
      <trkpt lat="42.91106" lon="1.22465">
        <ele>706</ele>
        <time>2026-06-23T06:51:31.000Z</time>
      </trkpt>
      <trkpt lat="42.91104" lon="1.22463">
        <ele>706</ele>
        <time>2026-06-23T06:51:32.000Z</time>
      </trkpt>
      <trkpt lat="42.91102" lon="1.2246">
        <ele>706</ele>
        <time>2026-06-23T06:51:33.000Z</time>
      </trkpt>
      <trkpt lat="42.91101" lon="1.22457">
        <ele>707</ele>
        <time>2026-06-23T06:51:34.000Z</time>
      </trkpt>
      <trkpt lat="42.91101" lon="1.22455">
        <ele>707</ele>
        <time>2026-06-23T06:51:35.000Z</time>
      </trkpt>
      <trkpt lat="42.91102" lon="1.22452">
        <ele>707</ele>
        <time>2026-06-23T06:51:36.000Z</time>
      </trkpt>
      <trkpt lat="42.91103" lon="1.22451">
        <ele>708</ele>
        <time>2026-06-23T06:51:37.000Z</time>
      </trkpt>
      <trkpt lat="42.91104" lon="1.22448">
        <ele>708</ele>
        <time>2026-06-23T06:51:38.000Z</time>
      </trkpt>
      <trkpt lat="42.91106" lon="1.22446">
        <ele>708</ele>
        <time>2026-06-23T06:51:39.000Z</time>
      </trkpt>
      <trkpt lat="42.91108" lon="1.22443">
        <ele>708</ele>
        <time>2026-06-23T06:51:40.000Z</time>
      </trkpt>
      <trkpt lat="42.91109" lon="1.22441">
        <ele>708</ele>
        <time>2026-06-23T06:51:41.000Z</time>
      </trkpt>
      <trkpt lat="42.91111" lon="1.22438">
        <ele>708</ele>
        <time>2026-06-23T06:51:42.000Z</time>
      </trkpt>
      <trkpt lat="42.91112" lon="1.22436">
        <ele>709</ele>
        <time>2026-06-23T06:51:43.000Z</time>
      </trkpt>
      <trkpt lat="42.91113" lon="1.22434">
        <ele>709</ele>
        <time>2026-06-23T06:51:44.000Z</time>
      </trkpt>
      <trkpt lat="42.91115" lon="1.22432">
        <ele>709</ele>
        <time>2026-06-23T06:51:45.000Z</time>
      </trkpt>
      <trkpt lat="42.91117" lon="1.2243">
        <ele>709</ele>
        <time>2026-06-23T06:51:46.000Z</time>
      </trkpt>
      <trkpt lat="42.91119" lon="1.22427">
        <ele>710</ele>
        <time>2026-06-23T06:51:47.000Z</time>
      </trkpt>
      <trkpt lat="42.9112" lon="1.22424">
        <ele>710</ele>
        <time>2026-06-23T06:51:48.000Z</time>
      </trkpt>
      <trkpt lat="42.91122" lon="1.22421">
        <ele>710</ele>
        <time>2026-06-23T06:51:49.000Z</time>
      </trkpt>
      <trkpt lat="42.91122" lon="1.22418">
        <ele>710</ele>
        <time>2026-06-23T06:51:50.000Z</time>
      </trkpt>
      <trkpt lat="42.91122" lon="1.22415">
        <ele>710</ele>
        <time>2026-06-23T06:51:51.000Z</time>
      </trkpt>
      <trkpt lat="42.91122" lon="1.22412">
        <ele>710</ele>
        <time>2026-06-23T06:51:52.000Z</time>
      </trkpt>
      <trkpt lat="42.91123" lon="1.22409">
        <ele>710</ele>
        <time>2026-06-23T06:51:53.000Z</time>
      </trkpt>
      <trkpt lat="42.91123" lon="1.22405">
        <ele>710</ele>
        <time>2026-06-23T06:51:54.000Z</time>
      </trkpt>
      <trkpt lat="42.91124" lon="1.22402">
        <ele>710</ele>
        <time>2026-06-23T06:51:55.000Z</time>
      </trkpt>
      <trkpt lat="42.91124" lon="1.22398">
        <ele>710</ele>
        <time>2026-06-23T06:51:56.000Z</time>
      </trkpt>
      <trkpt lat="42.91124" lon="1.22395">
        <ele>711</ele>
        <time>2026-06-23T06:51:57.000Z</time>
      </trkpt>
      <trkpt lat="42.91124" lon="1.22391">
        <ele>712</ele>
        <time>2026-06-23T06:51:58.000Z</time>
      </trkpt>
      <trkpt lat="42.91125" lon="1.22388">
        <ele>712</ele>
        <time>2026-06-23T06:51:59.000Z</time>
      </trkpt>
      <trkpt lat="42.91125" lon="1.22384">
        <ele>712</ele>
        <time>2026-06-23T06:52:00.000Z</time>
      </trkpt>
      <trkpt lat="42.91125" lon="1.22381">
        <ele>712</ele>
        <time>2026-06-23T06:52:01.000Z</time>
      </trkpt>
      <trkpt lat="42.91126" lon="1.22378">
        <ele>712</ele>
        <time>2026-06-23T06:52:02.000Z</time>
      </trkpt>
      <trkpt lat="42.91126" lon="1.22374">
        <ele>712</ele>
        <time>2026-06-23T06:52:03.000Z</time>
      </trkpt>
      <trkpt lat="42.91126" lon="1.2237">
        <ele>712</ele>
        <time>2026-06-23T06:52:04.000Z</time>
      </trkpt>
      <trkpt lat="42.91126" lon="1.22367">
        <ele>712</ele>
        <time>2026-06-23T06:52:05.000Z</time>
      </trkpt>
      <trkpt lat="42.91126" lon="1.22364">
        <ele>712</ele>
        <time>2026-06-23T06:52:06.000Z</time>
      </trkpt>
      <trkpt lat="42.91126" lon="1.22361">
        <ele>711</ele>
        <time>2026-06-23T06:52:07.000Z</time>
      </trkpt>
      <trkpt lat="42.91126" lon="1.22358">
        <ele>712</ele>
        <time>2026-06-23T06:52:08.000Z</time>
      </trkpt>
      <trkpt lat="42.91127" lon="1.22356">
        <ele>712</ele>
        <time>2026-06-23T06:52:09.000Z</time>
      </trkpt>
      <trkpt lat="42.91127" lon="1.22355">
        <ele>712</ele>
        <time>2026-06-23T06:52:10.000Z</time>
      </trkpt>
      <trkpt lat="42.91128" lon="1.22353">
        <ele>713</ele>
        <time>2026-06-23T06:52:11.000Z</time>
      </trkpt>
      <trkpt lat="42.91128" lon="1.22351">
        <ele>713</ele>
        <time>2026-06-23T06:52:12.000Z</time>
      </trkpt>
      <trkpt lat="42.91128" lon="1.22349">
        <ele>714</ele>
        <time>2026-06-23T06:52:13.000Z</time>
      </trkpt>
      <trkpt lat="42.91127" lon="1.22347">
        <ele>714</ele>
        <time>2026-06-23T06:52:14.000Z</time>
      </trkpt>
      <trkpt lat="42.91126" lon="1.22346">
        <ele>714</ele>
        <time>2026-06-23T06:52:15.000Z</time>
      </trkpt>
      <trkpt lat="42.91125" lon="1.22344">
        <ele>715</ele>
        <time>2026-06-23T06:52:16.000Z</time>
      </trkpt>
      <trkpt lat="42.91124" lon="1.22343">
        <ele>714</ele>
        <time>2026-06-23T06:52:17.000Z</time>
      </trkpt>
      <trkpt lat="42.91123" lon="1.22342">
        <ele>714</ele>
        <time>2026-06-23T06:52:18.000Z</time>
      </trkpt>
      <trkpt lat="42.91122" lon="1.22341">
        <ele>714</ele>
        <time>2026-06-23T06:52:19.000Z</time>
      </trkpt>
      <trkpt lat="42.9112" lon="1.22339">
        <ele>714</ele>
        <time>2026-06-23T06:52:20.000Z</time>
      </trkpt>
      <trkpt lat="42.91119" lon="1.22338">
        <ele>714</ele>
        <time>2026-06-23T06:52:21.000Z</time>
      </trkpt>
      <trkpt lat="42.91118" lon="1.22337">
        <ele>714</ele>
        <time>2026-06-23T06:52:22.000Z</time>
      </trkpt>
      <trkpt lat="42.91117" lon="1.22336">
        <ele>714</ele>
        <time>2026-06-23T06:52:23.000Z</time>
      </trkpt>
      <trkpt lat="42.91116" lon="1.22335">
        <ele>714</ele>
        <time>2026-06-23T06:52:24.000Z</time>
      </trkpt>
      <trkpt lat="42.91114" lon="1.22335">
        <ele>713</ele>
        <time>2026-06-23T06:52:25.000Z</time>
      </trkpt>
      <trkpt lat="42.91113" lon="1.22335">
        <ele>714</ele>
        <time>2026-06-23T06:52:26.000Z</time>
      </trkpt>
      <trkpt lat="42.91111" lon="1.22335">
        <ele>714</ele>
        <time>2026-06-23T06:52:27.000Z</time>
      </trkpt>
      <trkpt lat="42.91109" lon="1.22335">
        <ele>714</ele>
        <time>2026-06-23T06:52:28.000Z</time>
      </trkpt>
      <trkpt lat="42.91108" lon="1.22335">
        <ele>714</ele>
        <time>2026-06-23T06:52:29.000Z</time>
      </trkpt>
      <trkpt lat="42.91106" lon="1.22336">
        <ele>713</ele>
        <time>2026-06-23T06:52:30.000Z</time>
      </trkpt>
      <trkpt lat="42.91104" lon="1.22336">
        <ele>713</ele>
        <time>2026-06-23T06:52:31.000Z</time>
      </trkpt>
      <trkpt lat="42.91102" lon="1.22336">
        <ele>713</ele>
        <time>2026-06-23T06:52:32.000Z</time>
      </trkpt>
      <trkpt lat="42.911" lon="1.22337">
        <ele>713</ele>
        <time>2026-06-23T06:52:33.000Z</time>
      </trkpt>
      <trkpt lat="42.91098" lon="1.22336">
        <ele>713</ele>
        <time>2026-06-23T06:52:34.000Z</time>
      </trkpt>
      <trkpt lat="42.91096" lon="1.22336">
        <ele>713</ele>
        <time>2026-06-23T06:52:35.000Z</time>
      </trkpt>
      <trkpt lat="42.91094" lon="1.22335">
        <ele>713</ele>
        <time>2026-06-23T06:52:36.000Z</time>
      </trkpt>
      <trkpt lat="42.91093" lon="1.22334">
        <ele>714</ele>
        <time>2026-06-23T06:52:37.000Z</time>
      </trkpt>
      <trkpt lat="42.91091" lon="1.22332">
        <ele>714</ele>
        <time>2026-06-23T06:52:38.000Z</time>
      </trkpt>
      <trkpt lat="42.9109" lon="1.22332">
        <ele>714</ele>
        <time>2026-06-23T06:52:39.000Z</time>
      </trkpt>
      <trkpt lat="42.91088" lon="1.2233">
        <ele>715</ele>
        <time>2026-06-23T06:52:40.000Z</time>
      </trkpt>
      <trkpt lat="42.91086" lon="1.22329">
        <ele>715</ele>
        <time>2026-06-23T06:52:41.000Z</time>
      </trkpt>
      <trkpt lat="42.91085" lon="1.22329">
        <ele>716</ele>
        <time>2026-06-23T06:52:42.000Z</time>
      </trkpt>
      <trkpt lat="42.91084" lon="1.22328">
        <ele>716</ele>
        <time>2026-06-23T06:52:43.000Z</time>
      </trkpt>
      <trkpt lat="42.91082" lon="1.22327">
        <ele>716</ele>
        <time>2026-06-23T06:52:44.000Z</time>
      </trkpt>
      <trkpt lat="42.9108" lon="1.22326">
        <ele>717</ele>
        <time>2026-06-23T06:52:45.000Z</time>
      </trkpt>
      <trkpt lat="42.91079" lon="1.22325">
        <ele>718</ele>
        <time>2026-06-23T06:52:46.000Z</time>
      </trkpt>
      <trkpt lat="42.91077" lon="1.22324">
        <ele>718</ele>
        <time>2026-06-23T06:52:47.000Z</time>
      </trkpt>
      <trkpt lat="42.91076" lon="1.22323">
        <ele>718</ele>
        <time>2026-06-23T06:52:48.000Z</time>
      </trkpt>
      <trkpt lat="42.91075" lon="1.22322">
        <ele>719</ele>
        <time>2026-06-23T06:52:49.000Z</time>
      </trkpt>
      <trkpt lat="42.91073" lon="1.22321">
        <ele>719</ele>
        <time>2026-06-23T06:52:50.000Z</time>
      </trkpt>
      <trkpt lat="42.91072" lon="1.22319">
        <ele>719</ele>
        <time>2026-06-23T06:52:51.000Z</time>
      </trkpt>
      <trkpt lat="42.91071" lon="1.22318">
        <ele>720</ele>
        <time>2026-06-23T06:52:52.000Z</time>
      </trkpt>
      <trkpt lat="42.9107" lon="1.22316">
        <ele>721</ele>
        <time>2026-06-23T06:52:53.000Z</time>
      </trkpt>
      <trkpt lat="42.91069" lon="1.22314">
        <ele>721</ele>
        <time>2026-06-23T06:52:54.000Z</time>
      </trkpt>
      <trkpt lat="42.91068" lon="1.22313">
        <ele>721</ele>
        <time>2026-06-23T06:52:55.000Z</time>
      </trkpt>
      <trkpt lat="42.91067" lon="1.22311">
        <ele>722</ele>
        <time>2026-06-23T06:52:56.000Z</time>
      </trkpt>
      <trkpt lat="42.91066" lon="1.22308">
        <ele>722</ele>
        <time>2026-06-23T06:52:57.000Z</time>
      </trkpt>
      <trkpt lat="42.91066" lon="1.22304">
        <ele>723</ele>
        <time>2026-06-23T06:52:58.000Z</time>
      </trkpt>
      <trkpt lat="42.91066" lon="1.22301">
        <ele>723</ele>
        <time>2026-06-23T06:52:59.000Z</time>
      </trkpt>
      <trkpt lat="42.91065" lon="1.22299">
        <ele>724</ele>
        <time>2026-06-23T06:53:00.000Z</time>
      </trkpt>
      <trkpt lat="42.91065" lon="1.22297">
        <ele>724</ele>
        <time>2026-06-23T06:53:01.000Z</time>
      </trkpt>
      <trkpt lat="42.91064" lon="1.22296">
        <ele>725</ele>
        <time>2026-06-23T06:53:02.000Z</time>
      </trkpt>
      <trkpt lat="42.91064" lon="1.22294">
        <ele>725</ele>
        <time>2026-06-23T06:53:03.000Z</time>
      </trkpt>
      <trkpt lat="42.91063" lon="1.22293">
        <ele>725</ele>
        <time>2026-06-23T06:53:04.000Z</time>
      </trkpt>
      <trkpt lat="42.91062" lon="1.22291">
        <ele>725</ele>
        <time>2026-06-23T06:53:05.000Z</time>
      </trkpt>
      <trkpt lat="42.91062" lon="1.2229">
        <ele>725</ele>
        <time>2026-06-23T06:53:06.000Z</time>
      </trkpt>
      <trkpt lat="42.91061" lon="1.22289">
        <ele>725</ele>
        <time>2026-06-23T06:53:07.000Z</time>
      </trkpt>
      <trkpt lat="42.91061" lon="1.22287">
        <ele>726</ele>
        <time>2026-06-23T06:53:08.000Z</time>
      </trkpt>
      <trkpt lat="42.91062" lon="1.22285">
        <ele>726</ele>
        <time>2026-06-23T06:53:09.000Z</time>
      </trkpt>
      <trkpt lat="42.91062" lon="1.22283">
        <ele>726</ele>
        <time>2026-06-23T06:53:10.000Z</time>
      </trkpt>
      <trkpt lat="42.91063" lon="1.22281">
        <ele>726</ele>
        <time>2026-06-23T06:53:11.000Z</time>
      </trkpt>
      <trkpt lat="42.91064" lon="1.22279">
        <ele>726</ele>
        <time>2026-06-23T06:53:12.000Z</time>
      </trkpt>
      <trkpt lat="42.91064" lon="1.22277">
        <ele>726</ele>
        <time>2026-06-23T06:53:13.000Z</time>
      </trkpt>
      <trkpt lat="42.91065" lon="1.22275">
        <ele>726</ele>
        <time>2026-06-23T06:53:14.000Z</time>
      </trkpt>
      <trkpt lat="42.91065" lon="1.22273">
        <ele>726</ele>
        <time>2026-06-23T06:53:15.000Z</time>
      </trkpt>
      <trkpt lat="42.91065" lon="1.22272">
        <ele>725</ele>
        <time>2026-06-23T06:53:16.000Z</time>
      </trkpt>
      <trkpt lat="42.91066" lon="1.22271">
        <ele>725</ele>
        <time>2026-06-23T06:53:17.000Z</time>
      </trkpt>
      <trkpt lat="42.91066" lon="1.2227">
        <ele>725</ele>
        <time>2026-06-23T06:53:18.000Z</time>
      </trkpt>
      <trkpt lat="42.91067" lon="1.22268">
        <ele>724</ele>
        <time>2026-06-23T06:53:19.000Z</time>
      </trkpt>
      <trkpt lat="42.91067" lon="1.22266">
        <ele>724</ele>
        <time>2026-06-23T06:53:20.000Z</time>
      </trkpt>
      <trkpt lat="42.91068" lon="1.22265">
        <ele>724</ele>
        <time>2026-06-23T06:53:21.000Z</time>
      </trkpt>
      <trkpt lat="42.91068" lon="1.22263">
        <ele>724</ele>
        <time>2026-06-23T06:53:22.000Z</time>
      </trkpt>
      <trkpt lat="42.91069" lon="1.22261">
        <ele>723</ele>
        <time>2026-06-23T06:53:23.000Z</time>
      </trkpt>
      <trkpt lat="42.91068" lon="1.22259">
        <ele>723</ele>
        <time>2026-06-23T06:53:24.000Z</time>
      </trkpt>
      <trkpt lat="42.91069" lon="1.22257">
        <ele>722</ele>
        <time>2026-06-23T06:53:25.000Z</time>
      </trkpt>
      <trkpt lat="42.91069" lon="1.22253">
        <ele>722</ele>
        <time>2026-06-23T06:53:26.000Z</time>
      </trkpt>
      <trkpt lat="42.9107" lon="1.2225">
        <ele>722</ele>
        <time>2026-06-23T06:53:27.000Z</time>
      </trkpt>
      <trkpt lat="42.9107" lon="1.22247">
        <ele>722</ele>
        <time>2026-06-23T06:53:28.000Z</time>
      </trkpt>
      <trkpt lat="42.91072" lon="1.22245">
        <ele>722</ele>
        <time>2026-06-23T06:53:29.000Z</time>
      </trkpt>
      <trkpt lat="42.91072" lon="1.22242">
        <ele>722</ele>
        <time>2026-06-23T06:53:30.000Z</time>
      </trkpt>
      <trkpt lat="42.91073" lon="1.22239">
        <ele>723</ele>
        <time>2026-06-23T06:53:31.000Z</time>
      </trkpt>
      <trkpt lat="42.91074" lon="1.22237">
        <ele>723</ele>
        <time>2026-06-23T06:53:32.000Z</time>
      </trkpt>
      <trkpt lat="42.91075" lon="1.22235">
        <ele>723</ele>
        <time>2026-06-23T06:53:33.000Z</time>
      </trkpt>
      <trkpt lat="42.91075" lon="1.22233">
        <ele>724</ele>
        <time>2026-06-23T06:53:34.000Z</time>
      </trkpt>
      <trkpt lat="42.91076" lon="1.2223">
        <ele>724</ele>
        <time>2026-06-23T06:53:35.000Z</time>
      </trkpt>
      <trkpt lat="42.91077" lon="1.22228">
        <ele>723</ele>
        <time>2026-06-23T06:53:36.000Z</time>
      </trkpt>
      <trkpt lat="42.91078" lon="1.22225">
        <ele>723</ele>
        <time>2026-06-23T06:53:37.000Z</time>
      </trkpt>
      <trkpt lat="42.91078" lon="1.22223">
        <ele>724</ele>
        <time>2026-06-23T06:53:38.000Z</time>
      </trkpt>
      <trkpt lat="42.91079" lon="1.22221">
        <ele>724</ele>
        <time>2026-06-23T06:53:39.000Z</time>
      </trkpt>
      <trkpt lat="42.91081" lon="1.22218">
        <ele>724</ele>
        <time>2026-06-23T06:53:40.000Z</time>
      </trkpt>
      <trkpt lat="42.91083" lon="1.22215">
        <ele>725</ele>
        <time>2026-06-23T06:53:41.000Z</time>
      </trkpt>
      <trkpt lat="42.91084" lon="1.22212">
        <ele>724</ele>
        <time>2026-06-23T06:53:42.000Z</time>
      </trkpt>
      <trkpt lat="42.91085" lon="1.22207">
        <ele>725</ele>
        <time>2026-06-23T06:53:43.000Z</time>
      </trkpt>
      <trkpt lat="42.91087" lon="1.22204">
        <ele>725</ele>
        <time>2026-06-23T06:53:44.000Z</time>
      </trkpt>
      <trkpt lat="42.91088" lon="1.222">
        <ele>725</ele>
        <time>2026-06-23T06:53:45.000Z</time>
      </trkpt>
      <trkpt lat="42.9109" lon="1.22196">
        <ele>725</ele>
        <time>2026-06-23T06:53:46.000Z</time>
      </trkpt>
      <trkpt lat="42.91092" lon="1.22192">
        <ele>725</ele>
        <time>2026-06-23T06:53:47.000Z</time>
      </trkpt>
      <trkpt lat="42.91093" lon="1.22188">
        <ele>725</ele>
        <time>2026-06-23T06:53:48.000Z</time>
      </trkpt>
      <trkpt lat="42.91095" lon="1.22183">
        <ele>725</ele>
        <time>2026-06-23T06:53:49.000Z</time>
      </trkpt>
      <trkpt lat="42.91098" lon="1.22178">
        <ele>725</ele>
        <time>2026-06-23T06:53:50.000Z</time>
      </trkpt>
      <trkpt lat="42.911" lon="1.22173">
        <ele>725</ele>
        <time>2026-06-23T06:53:51.000Z</time>
      </trkpt>
      <trkpt lat="42.91103" lon="1.22167">
        <ele>725</ele>
        <time>2026-06-23T06:53:52.000Z</time>
      </trkpt>
      <trkpt lat="42.91107" lon="1.22161">
        <ele>726</ele>
        <time>2026-06-23T06:53:53.000Z</time>
      </trkpt>
      <trkpt lat="42.91109" lon="1.22154">
        <ele>727</ele>
        <time>2026-06-23T06:53:54.000Z</time>
      </trkpt>
      <trkpt lat="42.91112" lon="1.22146">
        <ele>726</ele>
        <time>2026-06-23T06:53:55.000Z</time>
      </trkpt>
      <trkpt lat="42.91114" lon="1.2214">
        <ele>726</ele>
        <time>2026-06-23T06:53:56.000Z</time>
      </trkpt>
      <trkpt lat="42.91116" lon="1.22136">
        <ele>726</ele>
        <time>2026-06-23T06:53:57.000Z</time>
      </trkpt>
      <trkpt lat="42.91118" lon="1.22132">
        <ele>726</ele>
        <time>2026-06-23T06:53:58.000Z</time>
      </trkpt>
      <trkpt lat="42.9112" lon="1.22127">
        <ele>727</ele>
        <time>2026-06-23T06:53:59.000Z</time>
      </trkpt>
      <trkpt lat="42.91123" lon="1.22123">
        <ele>727</ele>
        <time>2026-06-23T06:54:00.000Z</time>
      </trkpt>
      <trkpt lat="42.91125" lon="1.22119">
        <ele>727</ele>
        <time>2026-06-23T06:54:01.000Z</time>
      </trkpt>
      <trkpt lat="42.91127" lon="1.22116">
        <ele>727</ele>
        <time>2026-06-23T06:54:02.000Z</time>
      </trkpt>
      <trkpt lat="42.91129" lon="1.2211">
        <ele>727</ele>
        <time>2026-06-23T06:54:03.000Z</time>
      </trkpt>
      <trkpt lat="42.91133" lon="1.22104">
        <ele>727</ele>
        <time>2026-06-23T06:54:04.000Z</time>
      </trkpt>
      <trkpt lat="42.91135" lon="1.22099">
        <ele>727</ele>
        <time>2026-06-23T06:54:05.000Z</time>
      </trkpt>
      <trkpt lat="42.91138" lon="1.22096">
        <ele>727</ele>
        <time>2026-06-23T06:54:06.000Z</time>
      </trkpt>
      <trkpt lat="42.9114" lon="1.22091">
        <ele>728</ele>
        <time>2026-06-23T06:54:07.000Z</time>
      </trkpt>
      <trkpt lat="42.91142" lon="1.22088">
        <ele>727</ele>
        <time>2026-06-23T06:54:08.000Z</time>
      </trkpt>
      <trkpt lat="42.91144" lon="1.22084">
        <ele>727</ele>
        <time>2026-06-23T06:54:09.000Z</time>
      </trkpt>
      <trkpt lat="42.91147" lon="1.2208">
        <ele>728</ele>
        <time>2026-06-23T06:54:10.000Z</time>
      </trkpt>
      <trkpt lat="42.9115" lon="1.22076">
        <ele>728</ele>
        <time>2026-06-23T06:54:11.000Z</time>
      </trkpt>
      <trkpt lat="42.91154" lon="1.22072">
        <ele>729</ele>
        <time>2026-06-23T06:54:12.000Z</time>
      </trkpt>
      <trkpt lat="42.91156" lon="1.22068">
        <ele>730</ele>
        <time>2026-06-23T06:54:13.000Z</time>
      </trkpt>
      <trkpt lat="42.91159" lon="1.22064">
        <ele>730</ele>
        <time>2026-06-23T06:54:14.000Z</time>
      </trkpt>
      <trkpt lat="42.91162" lon="1.2206">
        <ele>730</ele>
        <time>2026-06-23T06:54:15.000Z</time>
      </trkpt>
      <trkpt lat="42.91164" lon="1.22056">
        <ele>730</ele>
        <time>2026-06-23T06:54:16.000Z</time>
      </trkpt>
      <trkpt lat="42.91167" lon="1.22053">
        <ele>730</ele>
        <time>2026-06-23T06:54:17.000Z</time>
      </trkpt>
      <trkpt lat="42.9117" lon="1.2205">
        <ele>730</ele>
        <time>2026-06-23T06:54:18.000Z</time>
      </trkpt>
      <trkpt lat="42.91173" lon="1.22046">
        <ele>730</ele>
        <time>2026-06-23T06:54:19.000Z</time>
      </trkpt>
      <trkpt lat="42.91176" lon="1.22043">
        <ele>730</ele>
        <time>2026-06-23T06:54:20.000Z</time>
      </trkpt>
      <trkpt lat="42.91179" lon="1.22039">
        <ele>730</ele>
        <time>2026-06-23T06:54:21.000Z</time>
      </trkpt>
      <trkpt lat="42.91183" lon="1.22036">
        <ele>730</ele>
        <time>2026-06-23T06:54:22.000Z</time>
      </trkpt>
      <trkpt lat="42.91185" lon="1.22035">
        <ele>730</ele>
        <time>2026-06-23T06:54:23.000Z</time>
      </trkpt>
      <trkpt lat="42.91188" lon="1.22032">
        <ele>730</ele>
        <time>2026-06-23T06:54:24.000Z</time>
      </trkpt>
      <trkpt lat="42.91192" lon="1.2203">
        <ele>731</ele>
        <time>2026-06-23T06:54:25.000Z</time>
      </trkpt>
      <trkpt lat="42.91195" lon="1.22028">
        <ele>731</ele>
        <time>2026-06-23T06:54:26.000Z</time>
      </trkpt>
      <trkpt lat="42.91199" lon="1.22024">
        <ele>731</ele>
        <time>2026-06-23T06:54:27.000Z</time>
      </trkpt>
      <trkpt lat="42.91203" lon="1.22019">
        <ele>730</ele>
        <time>2026-06-23T06:54:28.000Z</time>
      </trkpt>
      <trkpt lat="42.91208" lon="1.22014">
        <ele>730</ele>
        <time>2026-06-23T06:54:29.000Z</time>
      </trkpt>
      <trkpt lat="42.91212" lon="1.2201">
        <ele>731</ele>
        <time>2026-06-23T06:54:30.000Z</time>
      </trkpt>
      <trkpt lat="42.91215" lon="1.22005">
        <ele>732</ele>
        <time>2026-06-23T06:54:31.000Z</time>
      </trkpt>
      <trkpt lat="42.91219" lon="1.22">
        <ele>733</ele>
        <time>2026-06-23T06:54:32.000Z</time>
      </trkpt>
      <trkpt lat="42.91223" lon="1.21996">
        <ele>734</ele>
        <time>2026-06-23T06:54:33.000Z</time>
      </trkpt>
      <trkpt lat="42.91227" lon="1.21992">
        <ele>735</ele>
        <time>2026-06-23T06:54:34.000Z</time>
      </trkpt>
      <trkpt lat="42.91231" lon="1.21987">
        <ele>735</ele>
        <time>2026-06-23T06:54:35.000Z</time>
      </trkpt>
      <trkpt lat="42.91235" lon="1.21981">
        <ele>734</ele>
        <time>2026-06-23T06:54:36.000Z</time>
      </trkpt>
      <trkpt lat="42.91239" lon="1.21975">
        <ele>734</ele>
        <time>2026-06-23T06:54:37.000Z</time>
      </trkpt>
      <trkpt lat="42.91241" lon="1.21968">
        <ele>734</ele>
        <time>2026-06-23T06:54:38.000Z</time>
      </trkpt>
      <trkpt lat="42.91243" lon="1.21962">
        <ele>735</ele>
        <time>2026-06-23T06:54:39.000Z</time>
      </trkpt>
      <trkpt lat="42.91245" lon="1.21956">
        <ele>736</ele>
        <time>2026-06-23T06:54:40.000Z</time>
      </trkpt>
      <trkpt lat="42.91248" lon="1.21951">
        <ele>737</ele>
        <time>2026-06-23T06:54:41.000Z</time>
      </trkpt>
      <trkpt lat="42.91251" lon="1.21945">
        <ele>738</ele>
        <time>2026-06-23T06:54:42.000Z</time>
      </trkpt>
      <trkpt lat="42.91254" lon="1.2194">
        <ele>738</ele>
        <time>2026-06-23T06:54:43.000Z</time>
      </trkpt>
      <trkpt lat="42.91258" lon="1.21935">
        <ele>738</ele>
        <time>2026-06-23T06:54:44.000Z</time>
      </trkpt>
      <trkpt lat="42.91262" lon="1.21929">
        <ele>739</ele>
        <time>2026-06-23T06:54:45.000Z</time>
      </trkpt>
      <trkpt lat="42.91264" lon="1.21923">
        <ele>741</ele>
        <time>2026-06-23T06:54:46.000Z</time>
      </trkpt>
      <trkpt lat="42.91267" lon="1.2192">
        <ele>741</ele>
        <time>2026-06-23T06:54:47.000Z</time>
      </trkpt>
      <trkpt lat="42.9127" lon="1.21916">
        <ele>741</ele>
        <time>2026-06-23T06:54:48.000Z</time>
      </trkpt>
      <trkpt lat="42.91273" lon="1.21911">
        <ele>742</ele>
        <time>2026-06-23T06:54:49.000Z</time>
      </trkpt>
      <trkpt lat="42.91275" lon="1.21907">
        <ele>742</ele>
        <time>2026-06-23T06:54:50.000Z</time>
      </trkpt>
      <trkpt lat="42.91276" lon="1.21903">
        <ele>743</ele>
        <time>2026-06-23T06:54:51.000Z</time>
      </trkpt>
      <trkpt lat="42.91279" lon="1.21898">
        <ele>745</ele>
        <time>2026-06-23T06:54:52.000Z</time>
      </trkpt>
      <trkpt lat="42.91281" lon="1.21895">
        <ele>745</ele>
        <time>2026-06-23T06:54:53.000Z</time>
      </trkpt>
      <trkpt lat="42.91284" lon="1.2189">
        <ele>746</ele>
        <time>2026-06-23T06:54:54.000Z</time>
      </trkpt>
      <trkpt lat="42.91288" lon="1.21886">
        <ele>746</ele>
        <time>2026-06-23T06:54:55.000Z</time>
      </trkpt>
      <trkpt lat="42.91291" lon="1.21881">
        <ele>747</ele>
        <time>2026-06-23T06:54:56.000Z</time>
      </trkpt>
      <trkpt lat="42.91295" lon="1.21878">
        <ele>747</ele>
        <time>2026-06-23T06:54:57.000Z</time>
      </trkpt>
      <trkpt lat="42.91298" lon="1.21874">
        <ele>748</ele>
        <time>2026-06-23T06:54:58.000Z</time>
      </trkpt>
      <trkpt lat="42.91301" lon="1.2187">
        <ele>748</ele>
        <time>2026-06-23T06:54:59.000Z</time>
      </trkpt>
      <trkpt lat="42.91305" lon="1.21868">
        <ele>748</ele>
        <time>2026-06-23T06:55:00.000Z</time>
      </trkpt>
      <trkpt lat="42.91308" lon="1.21866">
        <ele>747</ele>
        <time>2026-06-23T06:55:01.000Z</time>
      </trkpt>
      <trkpt lat="42.91311" lon="1.21865">
        <ele>747</ele>
        <time>2026-06-23T06:55:02.000Z</time>
      </trkpt>
      <trkpt lat="42.91315" lon="1.21864">
        <ele>748</ele>
        <time>2026-06-23T06:55:03.000Z</time>
      </trkpt>
      <trkpt lat="42.91319" lon="1.21862">
        <ele>748</ele>
        <time>2026-06-23T06:55:04.000Z</time>
      </trkpt>
      <trkpt lat="42.91323" lon="1.21861">
        <ele>748</ele>
        <time>2026-06-23T06:55:05.000Z</time>
      </trkpt>
      <trkpt lat="42.91325" lon="1.21861">
        <ele>749</ele>
        <time>2026-06-23T06:55:06.000Z</time>
      </trkpt>
      <trkpt lat="42.91328" lon="1.2186">
        <ele>749</ele>
        <time>2026-06-23T06:55:07.000Z</time>
      </trkpt>
      <trkpt lat="42.91331" lon="1.21859">
        <ele>750</ele>
        <time>2026-06-23T06:55:08.000Z</time>
      </trkpt>
      <trkpt lat="42.91332" lon="1.21858">
        <ele>750</ele>
        <time>2026-06-23T06:55:09.000Z</time>
      </trkpt>
      <trkpt lat="42.91334" lon="1.21857">
        <ele>751</ele>
        <time>2026-06-23T06:55:10.000Z</time>
      </trkpt>
      <trkpt lat="42.91335" lon="1.21855">
        <ele>751</ele>
        <time>2026-06-23T06:55:11.000Z</time>
      </trkpt>
      <trkpt lat="42.91338" lon="1.21854">
        <ele>751</ele>
        <time>2026-06-23T06:55:12.000Z</time>
      </trkpt>
      <trkpt lat="42.91342" lon="1.21851">
        <ele>752</ele>
        <time>2026-06-23T06:55:13.000Z</time>
      </trkpt>
      <trkpt lat="42.91345" lon="1.21846">
        <ele>752</ele>
        <time>2026-06-23T06:55:14.000Z</time>
      </trkpt>
      <trkpt lat="42.91348" lon="1.2184">
        <ele>752</ele>
        <time>2026-06-23T06:55:15.000Z</time>
      </trkpt>
      <trkpt lat="42.9135" lon="1.21836">
        <ele>752</ele>
        <time>2026-06-23T06:55:16.000Z</time>
      </trkpt>
      <trkpt lat="42.91353" lon="1.21832">
        <ele>752</ele>
        <time>2026-06-23T06:55:17.000Z</time>
      </trkpt>
      <trkpt lat="42.91355" lon="1.21827">
        <ele>752</ele>
        <time>2026-06-23T06:55:18.000Z</time>
      </trkpt>
      <trkpt lat="42.91357" lon="1.21823">
        <ele>753</ele>
        <time>2026-06-23T06:55:19.000Z</time>
      </trkpt>
      <trkpt lat="42.91359" lon="1.21818">
        <ele>753</ele>
        <time>2026-06-23T06:55:20.000Z</time>
      </trkpt>
      <trkpt lat="42.9136" lon="1.21812">
        <ele>753</ele>
        <time>2026-06-23T06:55:21.000Z</time>
      </trkpt>
      <trkpt lat="42.91363" lon="1.21804">
        <ele>754</ele>
        <time>2026-06-23T06:55:22.000Z</time>
      </trkpt>
      <trkpt lat="42.91365" lon="1.21799">
        <ele>754</ele>
        <time>2026-06-23T06:55:23.000Z</time>
      </trkpt>
      <trkpt lat="42.91367" lon="1.21792">
        <ele>754</ele>
        <time>2026-06-23T06:55:24.000Z</time>
      </trkpt>
      <trkpt lat="42.9137" lon="1.21785">
        <ele>754</ele>
        <time>2026-06-23T06:55:25.000Z</time>
      </trkpt>
      <trkpt lat="42.91373" lon="1.21776">
        <ele>754</ele>
        <time>2026-06-23T06:55:26.000Z</time>
      </trkpt>
      <trkpt lat="42.91376" lon="1.21768">
        <ele>754</ele>
        <time>2026-06-23T06:55:27.000Z</time>
      </trkpt>
      <trkpt lat="42.91379" lon="1.21761">
        <ele>753</ele>
        <time>2026-06-23T06:55:28.000Z</time>
      </trkpt>
      <trkpt lat="42.91384" lon="1.21755">
        <ele>754</ele>
        <time>2026-06-23T06:55:29.000Z</time>
      </trkpt>
      <trkpt lat="42.9139" lon="1.2175">
        <ele>754</ele>
        <time>2026-06-23T06:55:30.000Z</time>
      </trkpt>
      <trkpt lat="42.91396" lon="1.21746">
        <ele>754</ele>
        <time>2026-06-23T06:55:31.000Z</time>
      </trkpt>
      <trkpt lat="42.91405" lon="1.21742">
        <ele>753</ele>
        <time>2026-06-23T06:55:32.000Z</time>
      </trkpt>
      <trkpt lat="42.91413" lon="1.21737">
        <ele>753</ele>
        <time>2026-06-23T06:55:33.000Z</time>
      </trkpt>
      <trkpt lat="42.91418" lon="1.21733">
        <ele>754</ele>
        <time>2026-06-23T06:55:34.000Z</time>
      </trkpt>
      <trkpt lat="42.91423" lon="1.21729">
        <ele>754</ele>
        <time>2026-06-23T06:55:35.000Z</time>
      </trkpt>
      <trkpt lat="42.91428" lon="1.21725">
        <ele>753</ele>
        <time>2026-06-23T06:55:36.000Z</time>
      </trkpt>
      <trkpt lat="42.91431" lon="1.21718">
        <ele>753</ele>
        <time>2026-06-23T06:55:37.000Z</time>
      </trkpt>
      <trkpt lat="42.91433" lon="1.21711">
        <ele>754</ele>
        <time>2026-06-23T06:55:38.000Z</time>
      </trkpt>
      <trkpt lat="42.91434" lon="1.21705">
        <ele>754</ele>
        <time>2026-06-23T06:55:39.000Z</time>
      </trkpt>
      <trkpt lat="42.91435" lon="1.21699">
        <ele>754</ele>
        <time>2026-06-23T06:55:40.000Z</time>
      </trkpt>
      <trkpt lat="42.91437" lon="1.21693">
        <ele>754</ele>
        <time>2026-06-23T06:55:41.000Z</time>
      </trkpt>
      <trkpt lat="42.91438" lon="1.21688">
        <ele>753</ele>
        <time>2026-06-23T06:55:42.000Z</time>
      </trkpt>
      <trkpt lat="42.91439" lon="1.21682">
        <ele>753</ele>
        <time>2026-06-23T06:55:43.000Z</time>
      </trkpt>
      <trkpt lat="42.91441" lon="1.21676">
        <ele>753</ele>
        <time>2026-06-23T06:55:44.000Z</time>
      </trkpt>
      <trkpt lat="42.91442" lon="1.21671">
        <ele>753</ele>
        <time>2026-06-23T06:55:45.000Z</time>
      </trkpt>
      <trkpt lat="42.91444" lon="1.21666">
        <ele>752</ele>
        <time>2026-06-23T06:55:46.000Z</time>
      </trkpt>
      <trkpt lat="42.91444" lon="1.2166">
        <ele>752</ele>
        <time>2026-06-23T06:55:47.000Z</time>
      </trkpt>
      <trkpt lat="42.91445" lon="1.21654">
        <ele>752</ele>
        <time>2026-06-23T06:55:48.000Z</time>
      </trkpt>
      <trkpt lat="42.91445" lon="1.21648">
        <ele>752</ele>
        <time>2026-06-23T06:55:49.000Z</time>
      </trkpt>
      <trkpt lat="42.91446" lon="1.21643">
        <ele>752</ele>
        <time>2026-06-23T06:55:50.000Z</time>
      </trkpt>
      <trkpt lat="42.91447" lon="1.21637">
        <ele>752</ele>
        <time>2026-06-23T06:55:51.000Z</time>
      </trkpt>
      <trkpt lat="42.91447" lon="1.21631">
        <ele>752</ele>
        <time>2026-06-23T06:55:52.000Z</time>
      </trkpt>
      <trkpt lat="42.91448" lon="1.21622">
        <ele>752</ele>
        <time>2026-06-23T06:55:53.000Z</time>
      </trkpt>
      <trkpt lat="42.91449" lon="1.21615">
        <ele>753</ele>
        <time>2026-06-23T06:55:54.000Z</time>
      </trkpt>
      <trkpt lat="42.91452" lon="1.21609">
        <ele>752</ele>
        <time>2026-06-23T06:55:55.000Z</time>
      </trkpt>
      <trkpt lat="42.91454" lon="1.21602">
        <ele>752</ele>
        <time>2026-06-23T06:55:56.000Z</time>
      </trkpt>
      <trkpt lat="42.91455" lon="1.21595">
        <ele>752</ele>
        <time>2026-06-23T06:55:57.000Z</time>
      </trkpt>
      <trkpt lat="42.91456" lon="1.21587">
        <ele>752</ele>
        <time>2026-06-23T06:55:58.000Z</time>
      </trkpt>
      <trkpt lat="42.91457" lon="1.21581">
        <ele>752</ele>
        <time>2026-06-23T06:55:59.000Z</time>
      </trkpt>
      <trkpt lat="42.91458" lon="1.21576">
        <ele>752</ele>
        <time>2026-06-23T06:56:00.000Z</time>
      </trkpt>
      <trkpt lat="42.91458" lon="1.21571">
        <ele>752</ele>
        <time>2026-06-23T06:56:01.000Z</time>
      </trkpt>
      <trkpt lat="42.91458" lon="1.21566">
        <ele>753</ele>
        <time>2026-06-23T06:56:02.000Z</time>
      </trkpt>
      <trkpt lat="42.91459" lon="1.21563">
        <ele>753</ele>
        <time>2026-06-23T06:56:03.000Z</time>
      </trkpt>
      <trkpt lat="42.91458" lon="1.21559">
        <ele>753</ele>
        <time>2026-06-23T06:56:04.000Z</time>
      </trkpt>
      <trkpt lat="42.91458" lon="1.21554">
        <ele>753</ele>
        <time>2026-06-23T06:56:05.000Z</time>
      </trkpt>
      <trkpt lat="42.91458" lon="1.21549">
        <ele>752</ele>
        <time>2026-06-23T06:56:06.000Z</time>
      </trkpt>
      <trkpt lat="42.91457" lon="1.21544">
        <ele>752</ele>
        <time>2026-06-23T06:56:07.000Z</time>
      </trkpt>
      <trkpt lat="42.91456" lon="1.21539">
        <ele>752</ele>
        <time>2026-06-23T06:56:08.000Z</time>
      </trkpt>
      <trkpt lat="42.91454" lon="1.21534">
        <ele>752</ele>
        <time>2026-06-23T06:56:09.000Z</time>
      </trkpt>
      <trkpt lat="42.91453" lon="1.21529">
        <ele>751</ele>
        <time>2026-06-23T06:56:10.000Z</time>
      </trkpt>
      <trkpt lat="42.9145" lon="1.21525">
        <ele>751</ele>
        <time>2026-06-23T06:56:11.000Z</time>
      </trkpt>
      <trkpt lat="42.91449" lon="1.2152">
        <ele>751</ele>
        <time>2026-06-23T06:56:12.000Z</time>
      </trkpt>
      <trkpt lat="42.91449" lon="1.21515">
        <ele>751</ele>
        <time>2026-06-23T06:56:13.000Z</time>
      </trkpt>
      <trkpt lat="42.91448" lon="1.21509">
        <ele>750</ele>
        <time>2026-06-23T06:56:14.000Z</time>
      </trkpt>
      <trkpt lat="42.91448" lon="1.21503">
        <ele>750</ele>
        <time>2026-06-23T06:56:15.000Z</time>
      </trkpt>
      <trkpt lat="42.91447" lon="1.21497">
        <ele>750</ele>
        <time>2026-06-23T06:56:16.000Z</time>
      </trkpt>
      <trkpt lat="42.91447" lon="1.21491">
        <ele>750</ele>
        <time>2026-06-23T06:56:17.000Z</time>
      </trkpt>
      <trkpt lat="42.91448" lon="1.21485">
        <ele>750</ele>
        <time>2026-06-23T06:56:18.000Z</time>
      </trkpt>
      <trkpt lat="42.9145" lon="1.2148">
        <ele>750</ele>
        <time>2026-06-23T06:56:19.000Z</time>
      </trkpt>
      <trkpt lat="42.91451" lon="1.21474">
        <ele>749</ele>
        <time>2026-06-23T06:56:20.000Z</time>
      </trkpt>
      <trkpt lat="42.91452" lon="1.21465">
        <ele>749</ele>
        <time>2026-06-23T06:56:21.000Z</time>
      </trkpt>
      <trkpt lat="42.91454" lon="1.21456">
        <ele>750</ele>
        <time>2026-06-23T06:56:22.000Z</time>
      </trkpt>
      <trkpt lat="42.91455" lon="1.21448">
        <ele>751</ele>
        <time>2026-06-23T06:56:23.000Z</time>
      </trkpt>
      <trkpt lat="42.91456" lon="1.2144">
        <ele>751</ele>
        <time>2026-06-23T06:56:24.000Z</time>
      </trkpt>
      <trkpt lat="42.91458" lon="1.21431">
        <ele>752</ele>
        <time>2026-06-23T06:56:25.000Z</time>
      </trkpt>
      <trkpt lat="42.9146" lon="1.21424">
        <ele>751</ele>
        <time>2026-06-23T06:56:26.000Z</time>
      </trkpt>
      <trkpt lat="42.91462" lon="1.21416">
        <ele>751</ele>
        <time>2026-06-23T06:56:27.000Z</time>
      </trkpt>
      <trkpt lat="42.91464" lon="1.21409">
        <ele>751</ele>
        <time>2026-06-23T06:56:28.000Z</time>
      </trkpt>
      <trkpt lat="42.91467" lon="1.21401">
        <ele>752</ele>
        <time>2026-06-23T06:56:29.000Z</time>
      </trkpt>
      <trkpt lat="42.91469" lon="1.21392">
        <ele>751</ele>
        <time>2026-06-23T06:56:30.000Z</time>
      </trkpt>
      <trkpt lat="42.91471" lon="1.21385">
        <ele>751</ele>
        <time>2026-06-23T06:56:31.000Z</time>
      </trkpt>
      <trkpt lat="42.91474" lon="1.21379">
        <ele>751</ele>
        <time>2026-06-23T06:56:32.000Z</time>
      </trkpt>
      <trkpt lat="42.91476" lon="1.21372">
        <ele>751</ele>
        <time>2026-06-23T06:56:33.000Z</time>
      </trkpt>
      <trkpt lat="42.91479" lon="1.21365">
        <ele>751</ele>
        <time>2026-06-23T06:56:34.000Z</time>
      </trkpt>
      <trkpt lat="42.91483" lon="1.21359">
        <ele>750</ele>
        <time>2026-06-23T06:56:35.000Z</time>
      </trkpt>
      <trkpt lat="42.91487" lon="1.21353">
        <ele>750</ele>
        <time>2026-06-23T06:56:36.000Z</time>
      </trkpt>
      <trkpt lat="42.91491" lon="1.21347">
        <ele>749</ele>
        <time>2026-06-23T06:56:37.000Z</time>
      </trkpt>
      <trkpt lat="42.91496" lon="1.21342">
        <ele>749</ele>
        <time>2026-06-23T06:56:38.000Z</time>
      </trkpt>
      <trkpt lat="42.915" lon="1.21336">
        <ele>749</ele>
        <time>2026-06-23T06:56:39.000Z</time>
      </trkpt>
      <trkpt lat="42.91505" lon="1.21332">
        <ele>749</ele>
        <time>2026-06-23T06:56:40.000Z</time>
      </trkpt>
      <trkpt lat="42.9151" lon="1.21328">
        <ele>748</ele>
        <time>2026-06-23T06:56:41.000Z</time>
      </trkpt>
      <trkpt lat="42.91515" lon="1.21324">
        <ele>748</ele>
        <time>2026-06-23T06:56:42.000Z</time>
      </trkpt>
      <trkpt lat="42.9152" lon="1.21319">
        <ele>748</ele>
        <time>2026-06-23T06:56:43.000Z</time>
      </trkpt>
      <trkpt lat="42.91525" lon="1.21312">
        <ele>748</ele>
        <time>2026-06-23T06:56:44.000Z</time>
      </trkpt>
      <trkpt lat="42.91531" lon="1.21308">
        <ele>748</ele>
        <time>2026-06-23T06:56:45.000Z</time>
      </trkpt>
      <trkpt lat="42.91538" lon="1.21303">
        <ele>747</ele>
        <time>2026-06-23T06:56:46.000Z</time>
      </trkpt>
      <trkpt lat="42.91543" lon="1.21299">
        <ele>747</ele>
        <time>2026-06-23T06:56:47.000Z</time>
      </trkpt>
      <trkpt lat="42.91549" lon="1.21295">
        <ele>747</ele>
        <time>2026-06-23T06:56:48.000Z</time>
      </trkpt>
      <trkpt lat="42.91555" lon="1.21291">
        <ele>747</ele>
        <time>2026-06-23T06:56:49.000Z</time>
      </trkpt>
      <trkpt lat="42.91562" lon="1.21287">
        <ele>747</ele>
        <time>2026-06-23T06:56:50.000Z</time>
      </trkpt>
      <trkpt lat="42.91568" lon="1.21284">
        <ele>747</ele>
        <time>2026-06-23T06:56:51.000Z</time>
      </trkpt>
      <trkpt lat="42.91574" lon="1.21279">
        <ele>747</ele>
        <time>2026-06-23T06:56:52.000Z</time>
      </trkpt>
      <trkpt lat="42.91579" lon="1.21277">
        <ele>748</ele>
        <time>2026-06-23T06:56:53.000Z</time>
      </trkpt>
      <trkpt lat="42.91585" lon="1.21272">
        <ele>748</ele>
        <time>2026-06-23T06:56:54.000Z</time>
      </trkpt>
      <trkpt lat="42.91589" lon="1.21267">
        <ele>748</ele>
        <time>2026-06-23T06:56:55.000Z</time>
      </trkpt>
      <trkpt lat="42.91593" lon="1.21263">
        <ele>748</ele>
        <time>2026-06-23T06:56:56.000Z</time>
      </trkpt>
      <trkpt lat="42.91596" lon="1.2126">
        <ele>748</ele>
        <time>2026-06-23T06:56:57.000Z</time>
      </trkpt>
      <trkpt lat="42.91599" lon="1.21255">
        <ele>749</ele>
        <time>2026-06-23T06:56:58.000Z</time>
      </trkpt>
      <trkpt lat="42.916" lon="1.21251">
        <ele>749</ele>
        <time>2026-06-23T06:56:59.000Z</time>
      </trkpt>
      <trkpt lat="42.91601" lon="1.21247">
        <ele>749</ele>
        <time>2026-06-23T06:57:00.000Z</time>
      </trkpt>
      <trkpt lat="42.91602" lon="1.21242">
        <ele>749</ele>
        <time>2026-06-23T06:57:01.000Z</time>
      </trkpt>
      <trkpt lat="42.91601" lon="1.21236">
        <ele>749</ele>
        <time>2026-06-23T06:57:02.000Z</time>
      </trkpt>
      <trkpt lat="42.91599" lon="1.2123">
        <ele>749</ele>
        <time>2026-06-23T06:57:03.000Z</time>
      </trkpt>
      <trkpt lat="42.91598" lon="1.21225">
        <ele>748</ele>
        <time>2026-06-23T06:57:04.000Z</time>
      </trkpt>
      <trkpt lat="42.91597" lon="1.21219">
        <ele>748</ele>
        <time>2026-06-23T06:57:05.000Z</time>
      </trkpt>
      <trkpt lat="42.91596" lon="1.21213">
        <ele>748</ele>
        <time>2026-06-23T06:57:06.000Z</time>
      </trkpt>
      <trkpt lat="42.91595" lon="1.21206">
        <ele>748</ele>
        <time>2026-06-23T06:57:07.000Z</time>
      </trkpt>
      <trkpt lat="42.91595" lon="1.21199">
        <ele>748</ele>
        <time>2026-06-23T06:57:08.000Z</time>
      </trkpt>
      <trkpt lat="42.91594" lon="1.21192">
        <ele>749</ele>
        <time>2026-06-23T06:57:09.000Z</time>
      </trkpt>
      <trkpt lat="42.91593" lon="1.21185">
        <ele>748</ele>
        <time>2026-06-23T06:57:10.000Z</time>
      </trkpt>
      <trkpt lat="42.91592" lon="1.2118">
        <ele>748</ele>
        <time>2026-06-23T06:57:11.000Z</time>
      </trkpt>
      <trkpt lat="42.91592" lon="1.21174">
        <ele>748</ele>
        <time>2026-06-23T06:57:12.000Z</time>
      </trkpt>
      <trkpt lat="42.91592" lon="1.21167">
        <ele>748</ele>
        <time>2026-06-23T06:57:13.000Z</time>
      </trkpt>
      <trkpt lat="42.91593" lon="1.2116">
        <ele>748</ele>
        <time>2026-06-23T06:57:14.000Z</time>
      </trkpt>
      <trkpt lat="42.91594" lon="1.21151">
        <ele>749</ele>
        <time>2026-06-23T06:57:15.000Z</time>
      </trkpt>
      <trkpt lat="42.91594" lon="1.21145">
        <ele>749</ele>
        <time>2026-06-23T06:57:16.000Z</time>
      </trkpt>
      <trkpt lat="42.91595" lon="1.2114">
        <ele>749</ele>
        <time>2026-06-23T06:57:17.000Z</time>
      </trkpt>
      <trkpt lat="42.91596" lon="1.21134">
        <ele>748</ele>
        <time>2026-06-23T06:57:18.000Z</time>
      </trkpt>
      <trkpt lat="42.91599" lon="1.21127">
        <ele>748</ele>
        <time>2026-06-23T06:57:19.000Z</time>
      </trkpt>
      <trkpt lat="42.91601" lon="1.21121">
        <ele>749</ele>
        <time>2026-06-23T06:57:20.000Z</time>
      </trkpt>
      <trkpt lat="42.91603" lon="1.21114">
        <ele>748</ele>
        <time>2026-06-23T06:57:21.000Z</time>
      </trkpt>
      <trkpt lat="42.91605" lon="1.21107">
        <ele>747</ele>
        <time>2026-06-23T06:57:22.000Z</time>
      </trkpt>
      <trkpt lat="42.91607" lon="1.21099">
        <ele>747</ele>
        <time>2026-06-23T06:57:23.000Z</time>
      </trkpt>
      <trkpt lat="42.9161" lon="1.21092">
        <ele>747</ele>
        <time>2026-06-23T06:57:24.000Z</time>
      </trkpt>
      <trkpt lat="42.91612" lon="1.21085">
        <ele>747</ele>
        <time>2026-06-23T06:57:25.000Z</time>
      </trkpt>
      <trkpt lat="42.91615" lon="1.21078">
        <ele>747</ele>
        <time>2026-06-23T06:57:26.000Z</time>
      </trkpt>
      <trkpt lat="42.91617" lon="1.21072">
        <ele>747</ele>
        <time>2026-06-23T06:57:27.000Z</time>
      </trkpt>
      <trkpt lat="42.9162" lon="1.21065">
        <ele>747</ele>
        <time>2026-06-23T06:57:28.000Z</time>
      </trkpt>
      <trkpt lat="42.91622" lon="1.21059">
        <ele>747</ele>
        <time>2026-06-23T06:57:29.000Z</time>
      </trkpt>
      <trkpt lat="42.91623" lon="1.21054">
        <ele>747</ele>
        <time>2026-06-23T06:57:30.000Z</time>
      </trkpt>
      <trkpt lat="42.91625" lon="1.21048">
        <ele>746</ele>
        <time>2026-06-23T06:57:31.000Z</time>
      </trkpt>
      <trkpt lat="42.91627" lon="1.21044">
        <ele>746</ele>
        <time>2026-06-23T06:57:32.000Z</time>
      </trkpt>
      <trkpt lat="42.91628" lon="1.2104">
        <ele>746</ele>
        <time>2026-06-23T06:57:33.000Z</time>
      </trkpt>
      <trkpt lat="42.9163" lon="1.21036">
        <ele>746</ele>
        <time>2026-06-23T06:57:34.000Z</time>
      </trkpt>
      <trkpt lat="42.91631" lon="1.21033">
        <ele>746</ele>
        <time>2026-06-23T06:57:35.000Z</time>
      </trkpt>
      <trkpt lat="42.91632" lon="1.2103">
        <ele>745</ele>
        <time>2026-06-23T06:57:36.000Z</time>
      </trkpt>
      <trkpt lat="42.91633" lon="1.21027">
        <ele>745</ele>
        <time>2026-06-23T06:57:37.000Z</time>
      </trkpt>
      <trkpt lat="42.91635" lon="1.21024">
        <ele>745</ele>
        <time>2026-06-23T06:57:38.000Z</time>
      </trkpt>
      <trkpt lat="42.91635" lon="1.2102">
        <ele>745</ele>
        <time>2026-06-23T06:57:39.000Z</time>
      </trkpt>
      <trkpt lat="42.91636" lon="1.21017">
        <ele>745</ele>
        <time>2026-06-23T06:57:40.000Z</time>
      </trkpt>
      <trkpt lat="42.91636" lon="1.21014">
        <ele>745</ele>
        <time>2026-06-23T06:57:41.000Z</time>
      </trkpt>
      <trkpt lat="42.91638" lon="1.21012">
        <ele>744</ele>
        <time>2026-06-23T06:57:42.000Z</time>
      </trkpt>
      <trkpt lat="42.9164" lon="1.21009">
        <ele>744</ele>
        <time>2026-06-23T06:57:43.000Z</time>
      </trkpt>
      <trkpt lat="42.91642" lon="1.21006">
        <ele>744</ele>
        <time>2026-06-23T06:57:44.000Z</time>
      </trkpt>
      <trkpt lat="42.91645" lon="1.21003">
        <ele>744</ele>
        <time>2026-06-23T06:57:45.000Z</time>
      </trkpt>
      <trkpt lat="42.91647" lon="1.20999">
        <ele>744</ele>
        <time>2026-06-23T06:57:46.000Z</time>
      </trkpt>
      <trkpt lat="42.91649" lon="1.20996">
        <ele>743</ele>
        <time>2026-06-23T06:57:47.000Z</time>
      </trkpt>
      <trkpt lat="42.91652" lon="1.20992">
        <ele>743</ele>
        <time>2026-06-23T06:57:48.000Z</time>
      </trkpt>
      <trkpt lat="42.91654" lon="1.20988">
        <ele>743</ele>
        <time>2026-06-23T06:57:49.000Z</time>
      </trkpt>
      <trkpt lat="42.91656" lon="1.20984">
        <ele>743</ele>
        <time>2026-06-23T06:57:50.000Z</time>
      </trkpt>
      <trkpt lat="42.91659" lon="1.20978">
        <ele>743</ele>
        <time>2026-06-23T06:57:51.000Z</time>
      </trkpt>
      <trkpt lat="42.91662" lon="1.20973">
        <ele>743</ele>
        <time>2026-06-23T06:57:52.000Z</time>
      </trkpt>
      <trkpt lat="42.91663" lon="1.20968">
        <ele>742</ele>
        <time>2026-06-23T06:57:53.000Z</time>
      </trkpt>
      <trkpt lat="42.91664" lon="1.20962">
        <ele>742</ele>
        <time>2026-06-23T06:57:54.000Z</time>
      </trkpt>
      <trkpt lat="42.91664" lon="1.20957">
        <ele>742</ele>
        <time>2026-06-23T06:57:55.000Z</time>
      </trkpt>
      <trkpt lat="42.91662" lon="1.20952">
        <ele>742</ele>
        <time>2026-06-23T06:57:56.000Z</time>
      </trkpt>
      <trkpt lat="42.91661" lon="1.20947">
        <ele>741</ele>
        <time>2026-06-23T06:57:57.000Z</time>
      </trkpt>
      <trkpt lat="42.9166" lon="1.20942">
        <ele>741</ele>
        <time>2026-06-23T06:57:58.000Z</time>
      </trkpt>
      <trkpt lat="42.9166" lon="1.20936">
        <ele>741</ele>
        <time>2026-06-23T06:57:59.000Z</time>
      </trkpt>
      <trkpt lat="42.91659" lon="1.20931">
        <ele>740</ele>
        <time>2026-06-23T06:58:00.000Z</time>
      </trkpt>
      <trkpt lat="42.91658" lon="1.20925">
        <ele>740</ele>
        <time>2026-06-23T06:58:01.000Z</time>
      </trkpt>
      <trkpt lat="42.91657" lon="1.20918">
        <ele>740</ele>
        <time>2026-06-23T06:58:02.000Z</time>
      </trkpt>
      <trkpt lat="42.91657" lon="1.20911">
        <ele>739</ele>
        <time>2026-06-23T06:58:03.000Z</time>
      </trkpt>
      <trkpt lat="42.91656" lon="1.20905">
        <ele>739</ele>
        <time>2026-06-23T06:58:04.000Z</time>
      </trkpt>
      <trkpt lat="42.91656" lon="1.20898">
        <ele>739</ele>
        <time>2026-06-23T06:58:05.000Z</time>
      </trkpt>
      <trkpt lat="42.91657" lon="1.20892">
        <ele>738</ele>
        <time>2026-06-23T06:58:06.000Z</time>
      </trkpt>
      <trkpt lat="42.91657" lon="1.20886">
        <ele>738</ele>
        <time>2026-06-23T06:58:07.000Z</time>
      </trkpt>
      <trkpt lat="42.91659" lon="1.20881">
        <ele>737</ele>
        <time>2026-06-23T06:58:08.000Z</time>
      </trkpt>
      <trkpt lat="42.91661" lon="1.20877">
        <ele>737</ele>
        <time>2026-06-23T06:58:09.000Z</time>
      </trkpt>
      <trkpt lat="42.91663" lon="1.20871">
        <ele>736</ele>
        <time>2026-06-23T06:58:10.000Z</time>
      </trkpt>
      <trkpt lat="42.91666" lon="1.20867">
        <ele>736</ele>
        <time>2026-06-23T06:58:11.000Z</time>
      </trkpt>
      <trkpt lat="42.91669" lon="1.20862">
        <ele>735</ele>
        <time>2026-06-23T06:58:12.000Z</time>
      </trkpt>
      <trkpt lat="42.91671" lon="1.20856">
        <ele>735</ele>
        <time>2026-06-23T06:58:13.000Z</time>
      </trkpt>
      <trkpt lat="42.91676" lon="1.20849">
        <ele>734</ele>
        <time>2026-06-23T06:58:14.000Z</time>
      </trkpt>
      <trkpt lat="42.91678" lon="1.20845">
        <ele>733</ele>
        <time>2026-06-23T06:58:15.000Z</time>
      </trkpt>
      <trkpt lat="42.91681" lon="1.20842">
        <ele>732</ele>
        <time>2026-06-23T06:58:16.000Z</time>
      </trkpt>
      <trkpt lat="42.91682" lon="1.20839">
        <ele>732</ele>
        <time>2026-06-23T06:58:17.000Z</time>
      </trkpt>
      <trkpt lat="42.91684" lon="1.20838">
        <ele>731</ele>
        <time>2026-06-23T06:58:18.000Z</time>
      </trkpt>
      <trkpt lat="42.91686" lon="1.20834">
        <ele>731</ele>
        <time>2026-06-23T06:58:19.000Z</time>
      </trkpt>
      <trkpt lat="42.91688" lon="1.20831">
        <ele>730</ele>
        <time>2026-06-23T06:58:20.000Z</time>
      </trkpt>
      <trkpt lat="42.91689" lon="1.20828">
        <ele>729</ele>
        <time>2026-06-23T06:58:21.000Z</time>
      </trkpt>
      <trkpt lat="42.91691" lon="1.20823">
        <ele>729</ele>
        <time>2026-06-23T06:58:22.000Z</time>
      </trkpt>
      <trkpt lat="42.91693" lon="1.20819">
        <ele>729</ele>
        <time>2026-06-23T06:58:23.000Z</time>
      </trkpt>
      <trkpt lat="42.91696" lon="1.20814">
        <ele>728</ele>
        <time>2026-06-23T06:58:24.000Z</time>
      </trkpt>
      <trkpt lat="42.91698" lon="1.2081">
        <ele>728</ele>
        <time>2026-06-23T06:58:25.000Z</time>
      </trkpt>
      <trkpt lat="42.917" lon="1.20806">
        <ele>728</ele>
        <time>2026-06-23T06:58:26.000Z</time>
      </trkpt>
      <trkpt lat="42.91702" lon="1.20802">
        <ele>727</ele>
        <time>2026-06-23T06:58:27.000Z</time>
      </trkpt>
      <trkpt lat="42.91704" lon="1.20796">
        <ele>728</ele>
        <time>2026-06-23T06:58:28.000Z</time>
      </trkpt>
      <trkpt lat="42.91706" lon="1.20792">
        <ele>728</ele>
        <time>2026-06-23T06:58:29.000Z</time>
      </trkpt>
      <trkpt lat="42.91708" lon="1.20787">
        <ele>728</ele>
        <time>2026-06-23T06:58:30.000Z</time>
      </trkpt>
      <trkpt lat="42.9171" lon="1.20782">
        <ele>728</ele>
        <time>2026-06-23T06:58:31.000Z</time>
      </trkpt>
      <trkpt lat="42.91712" lon="1.20776">
        <ele>728</ele>
        <time>2026-06-23T06:58:32.000Z</time>
      </trkpt>
      <trkpt lat="42.91715" lon="1.20771">
        <ele>728</ele>
        <time>2026-06-23T06:58:33.000Z</time>
      </trkpt>
      <trkpt lat="42.91717" lon="1.20767">
        <ele>728</ele>
        <time>2026-06-23T06:58:34.000Z</time>
      </trkpt>
      <trkpt lat="42.91718" lon="1.20763">
        <ele>728</ele>
        <time>2026-06-23T06:58:35.000Z</time>
      </trkpt>
      <trkpt lat="42.9172" lon="1.20758">
        <ele>728</ele>
        <time>2026-06-23T06:58:36.000Z</time>
      </trkpt>
      <trkpt lat="42.91723" lon="1.20752">
        <ele>728</ele>
        <time>2026-06-23T06:58:37.000Z</time>
      </trkpt>
      <trkpt lat="42.91725" lon="1.20747">
        <ele>728</ele>
        <time>2026-06-23T06:58:38.000Z</time>
      </trkpt>
      <trkpt lat="42.91728" lon="1.20741">
        <ele>727</ele>
        <time>2026-06-23T06:58:39.000Z</time>
      </trkpt>
      <trkpt lat="42.9173" lon="1.20736">
        <ele>727</ele>
        <time>2026-06-23T06:58:40.000Z</time>
      </trkpt>
      <trkpt lat="42.91731" lon="1.20729">
        <ele>726</ele>
        <time>2026-06-23T06:58:41.000Z</time>
      </trkpt>
      <trkpt lat="42.91732" lon="1.20723">
        <ele>726</ele>
        <time>2026-06-23T06:58:42.000Z</time>
      </trkpt>
      <trkpt lat="42.91733" lon="1.20716">
        <ele>726</ele>
        <time>2026-06-23T06:58:43.000Z</time>
      </trkpt>
      <trkpt lat="42.91734" lon="1.20711">
        <ele>725</ele>
        <time>2026-06-23T06:58:44.000Z</time>
      </trkpt>
      <trkpt lat="42.91735" lon="1.20705">
        <ele>725</ele>
        <time>2026-06-23T06:58:45.000Z</time>
      </trkpt>
      <trkpt lat="42.91737" lon="1.20699">
        <ele>725</ele>
        <time>2026-06-23T06:58:46.000Z</time>
      </trkpt>
      <trkpt lat="42.91739" lon="1.20694">
        <ele>725</ele>
        <time>2026-06-23T06:58:47.000Z</time>
      </trkpt>
      <trkpt lat="42.91741" lon="1.20688">
        <ele>725</ele>
        <time>2026-06-23T06:58:48.000Z</time>
      </trkpt>
      <trkpt lat="42.91744" lon="1.20683">
        <ele>724</ele>
        <time>2026-06-23T06:58:49.000Z</time>
      </trkpt>
      <trkpt lat="42.91746" lon="1.20677">
        <ele>724</ele>
        <time>2026-06-23T06:58:50.000Z</time>
      </trkpt>
      <trkpt lat="42.9175" lon="1.20673">
        <ele>723</ele>
        <time>2026-06-23T06:58:51.000Z</time>
      </trkpt>
      <trkpt lat="42.91753" lon="1.20668">
        <ele>722</ele>
        <time>2026-06-23T06:58:52.000Z</time>
      </trkpt>
      <trkpt lat="42.91758" lon="1.20664">
        <ele>722</ele>
        <time>2026-06-23T06:58:53.000Z</time>
      </trkpt>
      <trkpt lat="42.91762" lon="1.2066">
        <ele>722</ele>
        <time>2026-06-23T06:58:54.000Z</time>
      </trkpt>
      <trkpt lat="42.91766" lon="1.20656">
        <ele>722</ele>
        <time>2026-06-23T06:58:55.000Z</time>
      </trkpt>
      <trkpt lat="42.9177" lon="1.20654">
        <ele>721</ele>
        <time>2026-06-23T06:58:56.000Z</time>
      </trkpt>
      <trkpt lat="42.91774" lon="1.20651">
        <ele>721</ele>
        <time>2026-06-23T06:58:57.000Z</time>
      </trkpt>
      <trkpt lat="42.91781" lon="1.20648">
        <ele>720</ele>
        <time>2026-06-23T06:58:58.000Z</time>
      </trkpt>
      <trkpt lat="42.91786" lon="1.20645">
        <ele>720</ele>
        <time>2026-06-23T06:58:59.000Z</time>
      </trkpt>
      <trkpt lat="42.91792" lon="1.20643">
        <ele>719</ele>
        <time>2026-06-23T06:59:00.000Z</time>
      </trkpt>
      <trkpt lat="42.91798" lon="1.20641">
        <ele>718</ele>
        <time>2026-06-23T06:59:01.000Z</time>
      </trkpt>
      <trkpt lat="42.91804" lon="1.20641">
        <ele>719</ele>
        <time>2026-06-23T06:59:02.000Z</time>
      </trkpt>
      <trkpt lat="42.9181" lon="1.2064">
        <ele>719</ele>
        <time>2026-06-23T06:59:03.000Z</time>
      </trkpt>
      <trkpt lat="42.91815" lon="1.20638">
        <ele>718</ele>
        <time>2026-06-23T06:59:04.000Z</time>
      </trkpt>
      <trkpt lat="42.91819" lon="1.20637">
        <ele>718</ele>
        <time>2026-06-23T06:59:05.000Z</time>
      </trkpt>
      <trkpt lat="42.91824" lon="1.20637">
        <ele>718</ele>
        <time>2026-06-23T06:59:06.000Z</time>
      </trkpt>
      <trkpt lat="42.91827" lon="1.20637">
        <ele>717</ele>
        <time>2026-06-23T06:59:07.000Z</time>
      </trkpt>
      <trkpt lat="42.91831" lon="1.20636">
        <ele>718</ele>
        <time>2026-06-23T06:59:08.000Z</time>
      </trkpt>
      <trkpt lat="42.91836" lon="1.20635">
        <ele>717</ele>
        <time>2026-06-23T06:59:09.000Z</time>
      </trkpt>
      <trkpt lat="42.91839" lon="1.20634">
        <ele>717</ele>
        <time>2026-06-23T06:59:10.000Z</time>
      </trkpt>
      <trkpt lat="42.91843" lon="1.20633">
        <ele>718</ele>
        <time>2026-06-23T06:59:11.000Z</time>
      </trkpt>
      <trkpt lat="42.91846" lon="1.20631">
        <ele>718</ele>
        <time>2026-06-23T06:59:12.000Z</time>
      </trkpt>
      <trkpt lat="42.91848" lon="1.20628">
        <ele>718</ele>
        <time>2026-06-23T06:59:13.000Z</time>
      </trkpt>
      <trkpt lat="42.9185" lon="1.20625">
        <ele>718</ele>
        <time>2026-06-23T06:59:14.000Z</time>
      </trkpt>
      <trkpt lat="42.9185" lon="1.20622">
        <ele>718</ele>
        <time>2026-06-23T06:59:15.000Z</time>
      </trkpt>
      <trkpt lat="42.91851" lon="1.2062">
        <ele>717</ele>
        <time>2026-06-23T06:59:16.000Z</time>
      </trkpt>
      <trkpt lat="42.91851" lon="1.20619">
        <ele>717</ele>
        <time>2026-06-23T06:59:17.000Z</time>
      </trkpt>
      <trkpt lat="42.91851" lon="1.20617">
        <ele>717</ele>
        <time>2026-06-23T06:59:18.000Z</time>
      </trkpt>
      <trkpt lat="42.91851" lon="1.20615">
        <ele>717</ele>
        <time>2026-06-23T06:59:19.000Z</time>
      </trkpt>
      <trkpt lat="42.91851" lon="1.20612">
        <ele>717</ele>
        <time>2026-06-23T06:59:20.000Z</time>
      </trkpt>
      <trkpt lat="42.91851" lon="1.20611">
        <ele>716</ele>
        <time>2026-06-23T06:59:21.000Z</time>
      </trkpt>
      <trkpt lat="42.91851" lon="1.20609">
        <ele>716</ele>
        <time>2026-06-23T06:59:22.000Z</time>
      </trkpt>
      <trkpt lat="42.9185" lon="1.20608">
        <ele>716</ele>
        <time>2026-06-23T06:59:23.000Z</time>
      </trkpt>
      <trkpt lat="42.91849" lon="1.20605">
        <ele>716</ele>
        <time>2026-06-23T06:59:24.000Z</time>
      </trkpt>
      <trkpt lat="42.91848" lon="1.20601">
        <ele>716</ele>
        <time>2026-06-23T06:59:25.000Z</time>
      </trkpt>
      <trkpt lat="42.91848" lon="1.20597">
        <ele>716</ele>
        <time>2026-06-23T06:59:26.000Z</time>
      </trkpt>
      <trkpt lat="42.91847" lon="1.20593">
        <ele>715</ele>
        <time>2026-06-23T06:59:27.000Z</time>
      </trkpt>
      <trkpt lat="42.91846" lon="1.2059">
        <ele>715</ele>
        <time>2026-06-23T06:59:28.000Z</time>
      </trkpt>
      <trkpt lat="42.91844" lon="1.20586">
        <ele>714</ele>
        <time>2026-06-23T06:59:29.000Z</time>
      </trkpt>
      <trkpt lat="42.91844" lon="1.20581">
        <ele>714</ele>
        <time>2026-06-23T06:59:30.000Z</time>
      </trkpt>
      <trkpt lat="42.91844" lon="1.20576">
        <ele>714</ele>
        <time>2026-06-23T06:59:31.000Z</time>
      </trkpt>
      <trkpt lat="42.91844" lon="1.20572">
        <ele>713</ele>
        <time>2026-06-23T06:59:32.000Z</time>
      </trkpt>
      <trkpt lat="42.91846" lon="1.20568">
        <ele>713</ele>
        <time>2026-06-23T06:59:33.000Z</time>
      </trkpt>
      <trkpt lat="42.91847" lon="1.20564">
        <ele>713</ele>
        <time>2026-06-23T06:59:34.000Z</time>
      </trkpt>
      <trkpt lat="42.91849" lon="1.2056">
        <ele>713</ele>
        <time>2026-06-23T06:59:35.000Z</time>
      </trkpt>
      <trkpt lat="42.91851" lon="1.20556">
        <ele>713</ele>
        <time>2026-06-23T06:59:36.000Z</time>
      </trkpt>
      <trkpt lat="42.91852" lon="1.20553">
        <ele>712</ele>
        <time>2026-06-23T06:59:37.000Z</time>
      </trkpt>
      <trkpt lat="42.91854" lon="1.20549">
        <ele>712</ele>
        <time>2026-06-23T06:59:38.000Z</time>
      </trkpt>
      <trkpt lat="42.91855" lon="1.20545">
        <ele>711</ele>
        <time>2026-06-23T06:59:39.000Z</time>
      </trkpt>
      <trkpt lat="42.91857" lon="1.20542">
        <ele>711</ele>
        <time>2026-06-23T06:59:40.000Z</time>
      </trkpt>
      <trkpt lat="42.91859" lon="1.20537">
        <ele>711</ele>
        <time>2026-06-23T06:59:41.000Z</time>
      </trkpt>
      <trkpt lat="42.9186" lon="1.20531">
        <ele>711</ele>
        <time>2026-06-23T06:59:42.000Z</time>
      </trkpt>
      <trkpt lat="42.91862" lon="1.20525">
        <ele>711</ele>
        <time>2026-06-23T06:59:43.000Z</time>
      </trkpt>
      <trkpt lat="42.91864" lon="1.20518">
        <ele>711</ele>
        <time>2026-06-23T06:59:44.000Z</time>
      </trkpt>
      <trkpt lat="42.91867" lon="1.20511">
        <ele>710</ele>
        <time>2026-06-23T06:59:45.000Z</time>
      </trkpt>
      <trkpt lat="42.91869" lon="1.20505">
        <ele>709</ele>
        <time>2026-06-23T06:59:46.000Z</time>
      </trkpt>
      <trkpt lat="42.91871" lon="1.205">
        <ele>709</ele>
        <time>2026-06-23T06:59:47.000Z</time>
      </trkpt>
      <trkpt lat="42.91873" lon="1.20495">
        <ele>709</ele>
        <time>2026-06-23T06:59:48.000Z</time>
      </trkpt>
      <trkpt lat="42.91876" lon="1.2049">
        <ele>709</ele>
        <time>2026-06-23T06:59:49.000Z</time>
      </trkpt>
      <trkpt lat="42.91878" lon="1.20484">
        <ele>709</ele>
        <time>2026-06-23T06:59:50.000Z</time>
      </trkpt>
      <trkpt lat="42.91881" lon="1.20478">
        <ele>709</ele>
        <time>2026-06-23T06:59:51.000Z</time>
      </trkpt>
      <trkpt lat="42.91883" lon="1.20472">
        <ele>709</ele>
        <time>2026-06-23T06:59:52.000Z</time>
      </trkpt>
      <trkpt lat="42.91886" lon="1.20466">
        <ele>709</ele>
        <time>2026-06-23T06:59:53.000Z</time>
      </trkpt>
      <trkpt lat="42.91888" lon="1.2046">
        <ele>708</ele>
        <time>2026-06-23T06:59:54.000Z</time>
      </trkpt>
      <trkpt lat="42.9189" lon="1.20454">
        <ele>708</ele>
        <time>2026-06-23T06:59:55.000Z</time>
      </trkpt>
      <trkpt lat="42.91893" lon="1.20447">
        <ele>708</ele>
        <time>2026-06-23T06:59:56.000Z</time>
      </trkpt>
      <trkpt lat="42.91895" lon="1.2044">
        <ele>708</ele>
        <time>2026-06-23T06:59:57.000Z</time>
      </trkpt>
      <trkpt lat="42.91895" lon="1.20432">
        <ele>709</ele>
        <time>2026-06-23T06:59:58.000Z</time>
      </trkpt>
      <trkpt lat="42.91896" lon="1.20426">
        <ele>709</ele>
        <time>2026-06-23T06:59:59.000Z</time>
      </trkpt>
      <trkpt lat="42.91896" lon="1.20418">
        <ele>708</ele>
        <time>2026-06-23T07:00:00.000Z</time>
      </trkpt>
      <trkpt lat="42.91896" lon="1.20411">
        <ele>709</ele>
        <time>2026-06-23T07:00:01.000Z</time>
      </trkpt>
      <trkpt lat="42.91897" lon="1.20404">
        <ele>709</ele>
        <time>2026-06-23T07:00:02.000Z</time>
      </trkpt>
      <trkpt lat="42.91898" lon="1.20397">
        <ele>709</ele>
        <time>2026-06-23T07:00:03.000Z</time>
      </trkpt>
      <trkpt lat="42.91901" lon="1.20391">
        <ele>709</ele>
        <time>2026-06-23T07:00:04.000Z</time>
      </trkpt>
      <trkpt lat="42.91902" lon="1.20387">
        <ele>709</ele>
        <time>2026-06-23T07:00:05.000Z</time>
      </trkpt>
      <trkpt lat="42.91903" lon="1.20383">
        <ele>709</ele>
        <time>2026-06-23T07:00:06.000Z</time>
      </trkpt>
      <trkpt lat="42.91904" lon="1.20379">
        <ele>708</ele>
        <time>2026-06-23T07:00:07.000Z</time>
      </trkpt>
      <trkpt lat="42.91905" lon="1.20375">
        <ele>708</ele>
        <time>2026-06-23T07:00:08.000Z</time>
      </trkpt>
      <trkpt lat="42.91905" lon="1.2037">
        <ele>708</ele>
        <time>2026-06-23T07:00:09.000Z</time>
      </trkpt>
      <trkpt lat="42.91904" lon="1.20366">
        <ele>707</ele>
        <time>2026-06-23T07:00:10.000Z</time>
      </trkpt>
      <trkpt lat="42.91903" lon="1.2036">
        <ele>707</ele>
        <time>2026-06-23T07:00:11.000Z</time>
      </trkpt>
      <trkpt lat="42.91902" lon="1.20354">
        <ele>707</ele>
        <time>2026-06-23T07:00:12.000Z</time>
      </trkpt>
      <trkpt lat="42.91901" lon="1.20347">
        <ele>708</ele>
        <time>2026-06-23T07:00:13.000Z</time>
      </trkpt>
      <trkpt lat="42.91901" lon="1.20341">
        <ele>708</ele>
        <time>2026-06-23T07:00:14.000Z</time>
      </trkpt>
      <trkpt lat="42.91899" lon="1.20336">
        <ele>708</ele>
        <time>2026-06-23T07:00:15.000Z</time>
      </trkpt>
      <trkpt lat="42.91896" lon="1.20329">
        <ele>707</ele>
        <time>2026-06-23T07:00:16.000Z</time>
      </trkpt>
      <trkpt lat="42.91893" lon="1.20322">
        <ele>707</ele>
        <time>2026-06-23T07:00:17.000Z</time>
      </trkpt>
      <trkpt lat="42.91891" lon="1.20316">
        <ele>706</ele>
        <time>2026-06-23T07:00:18.000Z</time>
      </trkpt>
      <trkpt lat="42.9189" lon="1.20311">
        <ele>706</ele>
        <time>2026-06-23T07:00:19.000Z</time>
      </trkpt>
      <trkpt lat="42.91889" lon="1.20306">
        <ele>705</ele>
        <time>2026-06-23T07:00:20.000Z</time>
      </trkpt>
      <trkpt lat="42.91888" lon="1.20302">
        <ele>705</ele>
        <time>2026-06-23T07:00:21.000Z</time>
      </trkpt>
      <trkpt lat="42.91888" lon="1.20297">
        <ele>704</ele>
        <time>2026-06-23T07:00:22.000Z</time>
      </trkpt>
      <trkpt lat="42.91887" lon="1.20293">
        <ele>704</ele>
        <time>2026-06-23T07:00:23.000Z</time>
      </trkpt>
      <trkpt lat="42.91886" lon="1.20289">
        <ele>703</ele>
        <time>2026-06-23T07:00:24.000Z</time>
      </trkpt>
      <trkpt lat="42.91884" lon="1.20284">
        <ele>703</ele>
        <time>2026-06-23T07:00:25.000Z</time>
      </trkpt>
      <trkpt lat="42.91883" lon="1.20279">
        <ele>703</ele>
        <time>2026-06-23T07:00:26.000Z</time>
      </trkpt>
      <trkpt lat="42.91883" lon="1.20273">
        <ele>703</ele>
        <time>2026-06-23T07:00:27.000Z</time>
      </trkpt>
      <trkpt lat="42.91883" lon="1.20268">
        <ele>703</ele>
        <time>2026-06-23T07:00:28.000Z</time>
      </trkpt>
      <trkpt lat="42.91883" lon="1.20263">
        <ele>703</ele>
        <time>2026-06-23T07:00:29.000Z</time>
      </trkpt>
      <trkpt lat="42.91884" lon="1.20258">
        <ele>703</ele>
        <time>2026-06-23T07:00:30.000Z</time>
      </trkpt>
      <trkpt lat="42.91884" lon="1.20252">
        <ele>703</ele>
        <time>2026-06-23T07:00:31.000Z</time>
      </trkpt>
      <trkpt lat="42.91884" lon="1.20247">
        <ele>703</ele>
        <time>2026-06-23T07:00:32.000Z</time>
      </trkpt>
      <trkpt lat="42.91884" lon="1.20242">
        <ele>703</ele>
        <time>2026-06-23T07:00:33.000Z</time>
      </trkpt>
      <trkpt lat="42.91884" lon="1.20237">
        <ele>702</ele>
        <time>2026-06-23T07:00:34.000Z</time>
      </trkpt>
      <trkpt lat="42.91883" lon="1.20233">
        <ele>702</ele>
        <time>2026-06-23T07:00:35.000Z</time>
      </trkpt>
      <trkpt lat="42.91884" lon="1.20228">
        <ele>702</ele>
        <time>2026-06-23T07:00:36.000Z</time>
      </trkpt>
      <trkpt lat="42.91884" lon="1.20223">
        <ele>701</ele>
        <time>2026-06-23T07:00:37.000Z</time>
      </trkpt>
      <trkpt lat="42.91883" lon="1.20218">
        <ele>701</ele>
        <time>2026-06-23T07:00:38.000Z</time>
      </trkpt>
      <trkpt lat="42.91884" lon="1.20213">
        <ele>701</ele>
        <time>2026-06-23T07:00:39.000Z</time>
      </trkpt>
      <trkpt lat="42.91884" lon="1.20208">
        <ele>701</ele>
        <time>2026-06-23T07:00:40.000Z</time>
      </trkpt>
      <trkpt lat="42.91884" lon="1.20203">
        <ele>701</ele>
        <time>2026-06-23T07:00:41.000Z</time>
      </trkpt>
      <trkpt lat="42.91884" lon="1.20199">
        <ele>701</ele>
        <time>2026-06-23T07:00:42.000Z</time>
      </trkpt>
      <trkpt lat="42.91884" lon="1.20195">
        <ele>701</ele>
        <time>2026-06-23T07:00:43.000Z</time>
      </trkpt>
      <trkpt lat="42.91884" lon="1.20191">
        <ele>701</ele>
        <time>2026-06-23T07:00:44.000Z</time>
      </trkpt>
      <trkpt lat="42.91884" lon="1.20187">
        <ele>701</ele>
        <time>2026-06-23T07:00:45.000Z</time>
      </trkpt>
      <trkpt lat="42.91884" lon="1.20183">
        <ele>701</ele>
        <time>2026-06-23T07:00:46.000Z</time>
      </trkpt>
      <trkpt lat="42.91883" lon="1.2018">
        <ele>701</ele>
        <time>2026-06-23T07:00:47.000Z</time>
      </trkpt>
      <trkpt lat="42.91882" lon="1.20176">
        <ele>701</ele>
        <time>2026-06-23T07:00:48.000Z</time>
      </trkpt>
      <trkpt lat="42.91881" lon="1.20172">
        <ele>701</ele>
        <time>2026-06-23T07:00:49.000Z</time>
      </trkpt>
      <trkpt lat="42.91879" lon="1.20169">
        <ele>700</ele>
        <time>2026-06-23T07:00:50.000Z</time>
      </trkpt>
      <trkpt lat="42.91878" lon="1.20166">
        <ele>700</ele>
        <time>2026-06-23T07:00:51.000Z</time>
      </trkpt>
      <trkpt lat="42.91877" lon="1.20161">
        <ele>699</ele>
        <time>2026-06-23T07:00:52.000Z</time>
      </trkpt>
      <trkpt lat="42.91877" lon="1.20158">
        <ele>699</ele>
        <time>2026-06-23T07:00:53.000Z</time>
      </trkpt>
      <trkpt lat="42.91875" lon="1.20154">
        <ele>699</ele>
        <time>2026-06-23T07:00:54.000Z</time>
      </trkpt>
      <trkpt lat="42.91873" lon="1.2015">
        <ele>699</ele>
        <time>2026-06-23T07:00:55.000Z</time>
      </trkpt>
      <trkpt lat="42.91871" lon="1.20147">
        <ele>699</ele>
        <time>2026-06-23T07:00:56.000Z</time>
      </trkpt>
      <trkpt lat="42.91868" lon="1.20143">
        <ele>699</ele>
        <time>2026-06-23T07:00:57.000Z</time>
      </trkpt>
      <trkpt lat="42.91866" lon="1.2014">
        <ele>699</ele>
        <time>2026-06-23T07:00:58.000Z</time>
      </trkpt>
      <trkpt lat="42.91864" lon="1.20136">
        <ele>698</ele>
        <time>2026-06-23T07:00:59.000Z</time>
      </trkpt>
      <trkpt lat="42.91862" lon="1.20131">
        <ele>698</ele>
        <time>2026-06-23T07:01:00.000Z</time>
      </trkpt>
      <trkpt lat="42.9186" lon="1.20127">
        <ele>698</ele>
        <time>2026-06-23T07:01:01.000Z</time>
      </trkpt>
      <trkpt lat="42.91857" lon="1.20122">
        <ele>698</ele>
        <time>2026-06-23T07:01:02.000Z</time>
      </trkpt>
      <trkpt lat="42.91856" lon="1.20117">
        <ele>699</ele>
        <time>2026-06-23T07:01:03.000Z</time>
      </trkpt>
      <trkpt lat="42.91856" lon="1.20113">
        <ele>699</ele>
        <time>2026-06-23T07:01:04.000Z</time>
      </trkpt>
      <trkpt lat="42.91857" lon="1.20109">
        <ele>700</ele>
        <time>2026-06-23T07:01:05.000Z</time>
      </trkpt>
      <trkpt lat="42.91857" lon="1.20105">
        <ele>700</ele>
        <time>2026-06-23T07:01:06.000Z</time>
      </trkpt>
      <trkpt lat="42.91859" lon="1.20101">
        <ele>700</ele>
        <time>2026-06-23T07:01:07.000Z</time>
      </trkpt>
      <trkpt lat="42.9186" lon="1.20097">
        <ele>701</ele>
        <time>2026-06-23T07:01:08.000Z</time>
      </trkpt>
      <trkpt lat="42.91861" lon="1.20093">
        <ele>701</ele>
        <time>2026-06-23T07:01:09.000Z</time>
      </trkpt>
      <trkpt lat="42.91862" lon="1.20089">
        <ele>702</ele>
        <time>2026-06-23T07:01:10.000Z</time>
      </trkpt>
      <trkpt lat="42.91863" lon="1.20085">
        <ele>702</ele>
        <time>2026-06-23T07:01:11.000Z</time>
      </trkpt>
      <trkpt lat="42.91863" lon="1.20082">
        <ele>701</ele>
        <time>2026-06-23T07:01:12.000Z</time>
      </trkpt>
      <trkpt lat="42.91864" lon="1.20078">
        <ele>701</ele>
        <time>2026-06-23T07:01:13.000Z</time>
      </trkpt>
      <trkpt lat="42.91864" lon="1.20074">
        <ele>701</ele>
        <time>2026-06-23T07:01:14.000Z</time>
      </trkpt>
      <trkpt lat="42.91866" lon="1.20069">
        <ele>701</ele>
        <time>2026-06-23T07:01:15.000Z</time>
      </trkpt>
      <trkpt lat="42.91866" lon="1.20065">
        <ele>701</ele>
        <time>2026-06-23T07:01:16.000Z</time>
      </trkpt>
      <trkpt lat="42.91868" lon="1.2006">
        <ele>701</ele>
        <time>2026-06-23T07:01:17.000Z</time>
      </trkpt>
      <trkpt lat="42.91869" lon="1.20055">
        <ele>701</ele>
        <time>2026-06-23T07:01:18.000Z</time>
      </trkpt>
      <trkpt lat="42.9187" lon="1.20051">
        <ele>701</ele>
        <time>2026-06-23T07:01:19.000Z</time>
      </trkpt>
      <trkpt lat="42.91871" lon="1.20046">
        <ele>701</ele>
        <time>2026-06-23T07:01:20.000Z</time>
      </trkpt>
      <trkpt lat="42.91872" lon="1.20041">
        <ele>701</ele>
        <time>2026-06-23T07:01:21.000Z</time>
      </trkpt>
      <trkpt lat="42.91874" lon="1.20036">
        <ele>701</ele>
        <time>2026-06-23T07:01:22.000Z</time>
      </trkpt>
      <trkpt lat="42.91876" lon="1.20032">
        <ele>700</ele>
        <time>2026-06-23T07:01:23.000Z</time>
      </trkpt>
      <trkpt lat="42.91877" lon="1.20028">
        <ele>700</ele>
        <time>2026-06-23T07:01:24.000Z</time>
      </trkpt>
      <trkpt lat="42.91878" lon="1.20023">
        <ele>700</ele>
        <time>2026-06-23T07:01:25.000Z</time>
      </trkpt>
      <trkpt lat="42.91879" lon="1.20019">
        <ele>700</ele>
        <time>2026-06-23T07:01:26.000Z</time>
      </trkpt>
      <trkpt lat="42.9188" lon="1.20015">
        <ele>701</ele>
        <time>2026-06-23T07:01:27.000Z</time>
      </trkpt>
      <trkpt lat="42.91882" lon="1.2001">
        <ele>701</ele>
        <time>2026-06-23T07:01:28.000Z</time>
      </trkpt>
      <trkpt lat="42.91883" lon="1.20006">
        <ele>701</ele>
        <time>2026-06-23T07:01:29.000Z</time>
      </trkpt>
      <trkpt lat="42.91885" lon="1.20002">
        <ele>701</ele>
        <time>2026-06-23T07:01:30.000Z</time>
      </trkpt>
      <trkpt lat="42.91887" lon="1.19998">
        <ele>701</ele>
        <time>2026-06-23T07:01:31.000Z</time>
      </trkpt>
      <trkpt lat="42.91888" lon="1.19994">
        <ele>700</ele>
        <time>2026-06-23T07:01:32.000Z</time>
      </trkpt>
      <trkpt lat="42.9189" lon="1.1999">
        <ele>700</ele>
        <time>2026-06-23T07:01:33.000Z</time>
      </trkpt>
      <trkpt lat="42.91891" lon="1.19986">
        <ele>700</ele>
        <time>2026-06-23T07:01:34.000Z</time>
      </trkpt>
      <trkpt lat="42.91893" lon="1.19981">
        <ele>700</ele>
        <time>2026-06-23T07:01:35.000Z</time>
      </trkpt>
      <trkpt lat="42.91894" lon="1.19976">
        <ele>700</ele>
        <time>2026-06-23T07:01:36.000Z</time>
      </trkpt>
      <trkpt lat="42.91895" lon="1.19972">
        <ele>700</ele>
        <time>2026-06-23T07:01:37.000Z</time>
      </trkpt>
      <trkpt lat="42.91896" lon="1.19968">
        <ele>700</ele>
        <time>2026-06-23T07:01:38.000Z</time>
      </trkpt>
      <trkpt lat="42.91897" lon="1.19963">
        <ele>700</ele>
        <time>2026-06-23T07:01:39.000Z</time>
      </trkpt>
      <trkpt lat="42.91898" lon="1.19959">
        <ele>700</ele>
        <time>2026-06-23T07:01:40.000Z</time>
      </trkpt>
      <trkpt lat="42.919" lon="1.19954">
        <ele>700</ele>
        <time>2026-06-23T07:01:41.000Z</time>
      </trkpt>
      <trkpt lat="42.91901" lon="1.19949">
        <ele>700</ele>
        <time>2026-06-23T07:01:42.000Z</time>
      </trkpt>
      <trkpt lat="42.91902" lon="1.19946">
        <ele>700</ele>
        <time>2026-06-23T07:01:43.000Z</time>
      </trkpt>
      <trkpt lat="42.91902" lon="1.19941">
        <ele>699</ele>
        <time>2026-06-23T07:01:44.000Z</time>
      </trkpt>
      <trkpt lat="42.91902" lon="1.19937">
        <ele>700</ele>
        <time>2026-06-23T07:01:45.000Z</time>
      </trkpt>
      <trkpt lat="42.91902" lon="1.19932">
        <ele>700</ele>
        <time>2026-06-23T07:01:46.000Z</time>
      </trkpt>
      <trkpt lat="42.91901" lon="1.19928">
        <ele>700</ele>
        <time>2026-06-23T07:01:47.000Z</time>
      </trkpt>
      <trkpt lat="42.91901" lon="1.19926">
        <ele>700</ele>
        <time>2026-06-23T07:01:48.000Z</time>
      </trkpt>
      <trkpt lat="42.919" lon="1.19924">
        <ele>699</ele>
        <time>2026-06-23T07:01:49.000Z</time>
      </trkpt>
      <trkpt lat="42.919" lon="1.19921">
        <ele>698</ele>
        <time>2026-06-23T07:01:50.000Z</time>
      </trkpt>
      <trkpt lat="42.91899" lon="1.19918">
        <ele>698</ele>
        <time>2026-06-23T07:01:51.000Z</time>
      </trkpt>
      <trkpt lat="42.91898" lon="1.19913">
        <ele>697</ele>
        <time>2026-06-23T07:01:52.000Z</time>
      </trkpt>
      <trkpt lat="42.91897" lon="1.19909">
        <ele>697</ele>
        <time>2026-06-23T07:01:53.000Z</time>
      </trkpt>
      <trkpt lat="42.91897" lon="1.19904">
        <ele>698</ele>
        <time>2026-06-23T07:01:54.000Z</time>
      </trkpt>
      <trkpt lat="42.91897" lon="1.199">
        <ele>697</ele>
        <time>2026-06-23T07:01:55.000Z</time>
      </trkpt>
      <trkpt lat="42.91897" lon="1.19893">
        <ele>696</ele>
        <time>2026-06-23T07:01:56.000Z</time>
      </trkpt>
      <trkpt lat="42.91896" lon="1.19884">
        <ele>694</ele>
        <time>2026-06-23T07:01:57.000Z</time>
      </trkpt>
      <trkpt lat="42.91896" lon="1.19877">
        <ele>692</ele>
        <time>2026-06-23T07:01:58.000Z</time>
      </trkpt>
      <trkpt lat="42.91896" lon="1.19867">
        <ele>692</ele>
        <time>2026-06-23T07:01:59.000Z</time>
      </trkpt>
      <trkpt lat="42.91898" lon="1.19857">
        <ele>693</ele>
        <time>2026-06-23T07:02:00.000Z</time>
      </trkpt>
      <trkpt lat="42.91899" lon="1.19845">
        <ele>693</ele>
        <time>2026-06-23T07:02:01.000Z</time>
      </trkpt>
      <trkpt lat="42.919" lon="1.19835">
        <ele>692</ele>
        <time>2026-06-23T07:02:02.000Z</time>
      </trkpt>
      <trkpt lat="42.91902" lon="1.1983">
        <ele>692</ele>
        <time>2026-06-23T07:02:03.000Z</time>
      </trkpt>
      <trkpt lat="42.91904" lon="1.19826">
        <ele>691</ele>
        <time>2026-06-23T07:02:04.000Z</time>
      </trkpt>
      <trkpt lat="42.91906" lon="1.19822">
        <ele>691</ele>
        <time>2026-06-23T07:02:05.000Z</time>
      </trkpt>
      <trkpt lat="42.91908" lon="1.19819">
        <ele>691</ele>
        <time>2026-06-23T07:02:06.000Z</time>
      </trkpt>
      <trkpt lat="42.91909" lon="1.19817">
        <ele>690</ele>
        <time>2026-06-23T07:02:07.000Z</time>
      </trkpt>
      <trkpt lat="42.91911" lon="1.19813">
        <ele>690</ele>
        <time>2026-06-23T07:02:08.000Z</time>
      </trkpt>
      <trkpt lat="42.91912" lon="1.19809">
        <ele>690</ele>
        <time>2026-06-23T07:02:09.000Z</time>
      </trkpt>
      <trkpt lat="42.91914" lon="1.19804">
        <ele>689</ele>
        <time>2026-06-23T07:02:10.000Z</time>
      </trkpt>
      <trkpt lat="42.91915" lon="1.19799">
        <ele>689</ele>
        <time>2026-06-23T07:02:11.000Z</time>
      </trkpt>
      <trkpt lat="42.91918" lon="1.19793">
        <ele>689</ele>
        <time>2026-06-23T07:02:12.000Z</time>
      </trkpt>
      <trkpt lat="42.91922" lon="1.19786">
        <ele>689</ele>
        <time>2026-06-23T07:02:13.000Z</time>
      </trkpt>
      <trkpt lat="42.91927" lon="1.19779">
        <ele>689</ele>
        <time>2026-06-23T07:02:14.000Z</time>
      </trkpt>
      <trkpt lat="42.91931" lon="1.19772">
        <ele>689</ele>
        <time>2026-06-23T07:02:15.000Z</time>
      </trkpt>
      <trkpt lat="42.91937" lon="1.19766">
        <ele>688</ele>
        <time>2026-06-23T07:02:16.000Z</time>
      </trkpt>
      <trkpt lat="42.91943" lon="1.19759">
        <ele>687</ele>
        <time>2026-06-23T07:02:17.000Z</time>
      </trkpt>
      <trkpt lat="42.91948" lon="1.19753">
        <ele>687</ele>
        <time>2026-06-23T07:02:18.000Z</time>
      </trkpt>
      <trkpt lat="42.91953" lon="1.19748">
        <ele>687</ele>
        <time>2026-06-23T07:02:19.000Z</time>
      </trkpt>
      <trkpt lat="42.91959" lon="1.19744">
        <ele>687</ele>
        <time>2026-06-23T07:02:20.000Z</time>
      </trkpt>
      <trkpt lat="42.91963" lon="1.1974">
        <ele>687</ele>
        <time>2026-06-23T07:02:21.000Z</time>
      </trkpt>
      <trkpt lat="42.91963" lon="1.19736">
        <ele>687</ele>
        <time>2026-06-23T07:02:22.000Z</time>
      </trkpt>
      <trkpt lat="42.91962" lon="1.19732">
        <ele>687</ele>
        <time>2026-06-23T07:02:23.000Z</time>
      </trkpt>
      <trkpt lat="42.9196" lon="1.19728">
        <ele>686</ele>
        <time>2026-06-23T07:02:24.000Z</time>
      </trkpt>
      <trkpt lat="42.91957" lon="1.19725">
        <ele>686</ele>
        <time>2026-06-23T07:02:25.000Z</time>
      </trkpt>
      <trkpt lat="42.91955" lon="1.1972">
        <ele>686</ele>
        <time>2026-06-23T07:02:26.000Z</time>
      </trkpt>
      <trkpt lat="42.91953" lon="1.19715">
        <ele>686</ele>
        <time>2026-06-23T07:02:27.000Z</time>
      </trkpt>
      <trkpt lat="42.9195" lon="1.1971">
        <ele>685</ele>
        <time>2026-06-23T07:02:28.000Z</time>
      </trkpt>
      <trkpt lat="42.91948" lon="1.19706">
        <ele>685</ele>
        <time>2026-06-23T07:02:29.000Z</time>
      </trkpt>
      <trkpt lat="42.91945" lon="1.19702">
        <ele>685</ele>
        <time>2026-06-23T07:02:30.000Z</time>
      </trkpt>
      <trkpt lat="42.91943" lon="1.19698">
        <ele>685</ele>
        <time>2026-06-23T07:02:31.000Z</time>
      </trkpt>
      <trkpt lat="42.91941" lon="1.19694">
        <ele>685</ele>
        <time>2026-06-23T07:02:32.000Z</time>
      </trkpt>
      <trkpt lat="42.9194" lon="1.1969">
        <ele>685</ele>
        <time>2026-06-23T07:02:33.000Z</time>
      </trkpt>
      <trkpt lat="42.91938" lon="1.19686">
        <ele>684</ele>
        <time>2026-06-23T07:02:34.000Z</time>
      </trkpt>
      <trkpt lat="42.91937" lon="1.19681">
        <ele>684</ele>
        <time>2026-06-23T07:02:35.000Z</time>
      </trkpt>
      <trkpt lat="42.91937" lon="1.19676">
        <ele>684</ele>
        <time>2026-06-23T07:02:36.000Z</time>
      </trkpt>
      <trkpt lat="42.91939" lon="1.19672">
        <ele>684</ele>
        <time>2026-06-23T07:02:37.000Z</time>
      </trkpt>
      <trkpt lat="42.9194" lon="1.19667">
        <ele>684</ele>
        <time>2026-06-23T07:02:38.000Z</time>
      </trkpt>
      <trkpt lat="42.91941" lon="1.19663">
        <ele>684</ele>
        <time>2026-06-23T07:02:39.000Z</time>
      </trkpt>
      <trkpt lat="42.91942" lon="1.1966">
        <ele>684</ele>
        <time>2026-06-23T07:02:40.000Z</time>
      </trkpt>
      <trkpt lat="42.91943" lon="1.19656">
        <ele>684</ele>
        <time>2026-06-23T07:02:41.000Z</time>
      </trkpt>
      <trkpt lat="42.91944" lon="1.19652">
        <ele>683</ele>
        <time>2026-06-23T07:02:42.000Z</time>
      </trkpt>
      <trkpt lat="42.91947" lon="1.19649">
        <ele>683</ele>
        <time>2026-06-23T07:02:43.000Z</time>
      </trkpt>
      <trkpt lat="42.91948" lon="1.19645">
        <ele>683</ele>
        <time>2026-06-23T07:02:44.000Z</time>
      </trkpt>
      <trkpt lat="42.91951" lon="1.19641">
        <ele>683</ele>
        <time>2026-06-23T07:02:45.000Z</time>
      </trkpt>
      <trkpt lat="42.91953" lon="1.19637">
        <ele>683</ele>
        <time>2026-06-23T07:02:46.000Z</time>
      </trkpt>
      <trkpt lat="42.91955" lon="1.19634">
        <ele>682</ele>
        <time>2026-06-23T07:02:47.000Z</time>
      </trkpt>
      <trkpt lat="42.91955" lon="1.19631">
        <ele>681</ele>
        <time>2026-06-23T07:02:48.000Z</time>
      </trkpt>
      <trkpt lat="42.91957" lon="1.19627">
        <ele>681</ele>
        <time>2026-06-23T07:02:49.000Z</time>
      </trkpt>
      <trkpt lat="42.91958" lon="1.19624">
        <ele>681</ele>
        <time>2026-06-23T07:02:50.000Z</time>
      </trkpt>
      <trkpt lat="42.9196" lon="1.19623">
        <ele>680</ele>
        <time>2026-06-23T07:02:51.000Z</time>
      </trkpt>
      <trkpt lat="42.91961" lon="1.19621">
        <ele>680</ele>
        <time>2026-06-23T07:02:52.000Z</time>
      </trkpt>
      <trkpt lat="42.91963" lon="1.1962">
        <ele>679</ele>
        <time>2026-06-23T07:02:53.000Z</time>
      </trkpt>
      <trkpt lat="42.91965" lon="1.19619">
        <ele>679</ele>
        <time>2026-06-23T07:02:54.000Z</time>
      </trkpt>
      <trkpt lat="42.91966" lon="1.19617">
        <ele>680</ele>
        <time>2026-06-23T07:02:55.000Z</time>
      </trkpt>
      <trkpt lat="42.91967" lon="1.19616">
        <ele>680</ele>
        <time>2026-06-23T07:02:56.000Z</time>
      </trkpt>
      <trkpt lat="42.91968" lon="1.19615">
        <ele>680</ele>
        <time>2026-06-23T07:02:57.000Z</time>
      </trkpt>
      <trkpt lat="42.91969" lon="1.19614">
        <ele>680</ele>
        <time>2026-06-23T07:02:58.000Z</time>
      </trkpt>
      <trkpt lat="42.9197" lon="1.19612">
        <ele>680</ele>
        <time>2026-06-23T07:02:59.000Z</time>
      </trkpt>
      <trkpt lat="42.91971" lon="1.19611">
        <ele>680</ele>
        <time>2026-06-23T07:03:00.000Z</time>
      </trkpt>
      <trkpt lat="42.91973" lon="1.1961">
        <ele>680</ele>
        <time>2026-06-23T07:03:01.000Z</time>
      </trkpt>
      <trkpt lat="42.91973" lon="1.19609">
        <ele>679</ele>
        <time>2026-06-23T07:03:02.000Z</time>
      </trkpt>
      <trkpt lat="42.91974" lon="1.19608">
        <ele>680</ele>
        <time>2026-06-23T07:03:03.000Z</time>
      </trkpt>
      <trkpt lat="42.91975" lon="1.19608">
        <ele>679</ele>
        <time>2026-06-23T07:03:04.000Z</time>
      </trkpt>
      <trkpt lat="42.91975" lon="1.19608">
        <ele>679</ele>
        <time>2026-06-23T07:03:05.000Z</time>
      </trkpt>
      <trkpt lat="42.91976" lon="1.19608">
        <ele>679</ele>
        <time>2026-06-23T07:03:06.000Z</time>
      </trkpt>
      <trkpt lat="42.91977" lon="1.19609">
        <ele>679</ele>
        <time>2026-06-23T07:03:07.000Z</time>
      </trkpt>
      <trkpt lat="42.91979" lon="1.19608">
        <ele>679</ele>
        <time>2026-06-23T07:03:08.000Z</time>
      </trkpt>
      <trkpt lat="42.91981" lon="1.19608">
        <ele>679</ele>
        <time>2026-06-23T07:03:09.000Z</time>
      </trkpt>
      <trkpt lat="42.91982" lon="1.19607">
        <ele>679</ele>
        <time>2026-06-23T07:03:10.000Z</time>
      </trkpt>
      <trkpt lat="42.91982" lon="1.19606">
        <ele>680</ele>
        <time>2026-06-23T07:03:11.000Z</time>
      </trkpt>
      <trkpt lat="42.91983" lon="1.19606">
        <ele>680</ele>
        <time>2026-06-23T07:03:12.000Z</time>
      </trkpt>
      <trkpt lat="42.91983" lon="1.19604">
        <ele>681</ele>
        <time>2026-06-23T07:03:13.000Z</time>
      </trkpt>
      <trkpt lat="42.91984" lon="1.19603">
        <ele>681</ele>
        <time>2026-06-23T07:03:14.000Z</time>
      </trkpt>
      <trkpt lat="42.91984" lon="1.19601">
        <ele>681</ele>
        <time>2026-06-23T07:03:15.000Z</time>
      </trkpt>
      <trkpt lat="42.91985" lon="1.196">
        <ele>681</ele>
        <time>2026-06-23T07:03:16.000Z</time>
      </trkpt>
      <trkpt lat="42.91986" lon="1.19599">
        <ele>681</ele>
        <time>2026-06-23T07:03:17.000Z</time>
      </trkpt>
      <trkpt lat="42.91987" lon="1.19598">
        <ele>681</ele>
        <time>2026-06-23T07:03:18.000Z</time>
      </trkpt>
      <trkpt lat="42.91987" lon="1.19598">
        <ele>681</ele>
        <time>2026-06-23T07:03:19.000Z</time>
      </trkpt>
      <trkpt lat="42.91989" lon="1.19599">
        <ele>682</ele>
        <time>2026-06-23T07:03:20.000Z</time>
      </trkpt>
      <trkpt lat="42.91991" lon="1.19599">
        <ele>682</ele>
        <time>2026-06-23T07:03:21.000Z</time>
      </trkpt>
      <trkpt lat="42.91992" lon="1.196">
        <ele>682</ele>
        <time>2026-06-23T07:03:22.000Z</time>
      </trkpt>
      <trkpt lat="42.91993" lon="1.19599">
        <ele>682</ele>
        <time>2026-06-23T07:03:23.000Z</time>
      </trkpt>
      <trkpt lat="42.91994" lon="1.19599">
        <ele>681</ele>
        <time>2026-06-23T07:03:24.000Z</time>
      </trkpt>
      <trkpt lat="42.91994" lon="1.19599">
        <ele>681</ele>
        <time>2026-06-23T07:03:25.000Z</time>
      </trkpt>
      <trkpt lat="42.91995" lon="1.19598">
        <ele>681</ele>
        <time>2026-06-23T07:03:26.000Z</time>
      </trkpt>
      <trkpt lat="42.91995" lon="1.19596">
        <ele>681</ele>
        <time>2026-06-23T07:03:27.000Z</time>
      </trkpt>
      <trkpt lat="42.91997" lon="1.19595">
        <ele>681</ele>
        <time>2026-06-23T07:03:28.000Z</time>
      </trkpt>
      <trkpt lat="42.91998" lon="1.19593">
        <ele>681</ele>
        <time>2026-06-23T07:03:29.000Z</time>
      </trkpt>
      <trkpt lat="42.92" lon="1.19592">
        <ele>681</ele>
        <time>2026-06-23T07:03:30.000Z</time>
      </trkpt>
      <trkpt lat="42.92001" lon="1.1959">
        <ele>681</ele>
        <time>2026-06-23T07:03:31.000Z</time>
      </trkpt>
      <trkpt lat="42.92003" lon="1.19589">
        <ele>682</ele>
        <time>2026-06-23T07:03:32.000Z</time>
      </trkpt>
      <trkpt lat="42.92004" lon="1.19587">
        <ele>682</ele>
        <time>2026-06-23T07:03:33.000Z</time>
      </trkpt>
      <trkpt lat="42.92005" lon="1.19586">
        <ele>683</ele>
        <time>2026-06-23T07:03:34.000Z</time>
      </trkpt>
      <trkpt lat="42.92007" lon="1.19584">
        <ele>684</ele>
        <time>2026-06-23T07:03:35.000Z</time>
      </trkpt>
      <trkpt lat="42.92008" lon="1.19583">
        <ele>684</ele>
        <time>2026-06-23T07:03:36.000Z</time>
      </trkpt>
      <trkpt lat="42.9201" lon="1.19583">
        <ele>684</ele>
        <time>2026-06-23T07:03:37.000Z</time>
      </trkpt>
      <trkpt lat="42.9201" lon="1.19584">
        <ele>686</ele>
        <time>2026-06-23T07:03:38.000Z</time>
      </trkpt>
      <trkpt lat="42.92009" lon="1.19586">
        <ele>687</ele>
        <time>2026-06-23T07:03:39.000Z</time>
      </trkpt>
      <trkpt lat="42.92008" lon="1.19588">
        <ele>688</ele>
        <time>2026-06-23T07:03:40.000Z</time>
      </trkpt>
      <trkpt lat="42.92007" lon="1.1959">
        <ele>688</ele>
        <time>2026-06-23T07:03:41.000Z</time>
      </trkpt>
      <trkpt lat="42.92007" lon="1.19592">
        <ele>689</ele>
        <time>2026-06-23T07:03:42.000Z</time>
      </trkpt>
      <trkpt lat="42.92008" lon="1.19594">
        <ele>690</ele>
        <time>2026-06-23T07:03:43.000Z</time>
      </trkpt>
      <trkpt lat="42.92008" lon="1.19596">
        <ele>691</ele>
        <time>2026-06-23T07:03:44.000Z</time>
      </trkpt>
      <trkpt lat="42.92009" lon="1.19597">
        <ele>691</ele>
        <time>2026-06-23T07:03:45.000Z</time>
      </trkpt>
      <trkpt lat="42.9201" lon="1.19598">
        <ele>692</ele>
        <time>2026-06-23T07:03:46.000Z</time>
      </trkpt>
      <trkpt lat="42.9201" lon="1.19598">
        <ele>692</ele>
        <time>2026-06-23T07:03:47.000Z</time>
      </trkpt>
      <trkpt lat="42.92011" lon="1.19597">
        <ele>692</ele>
        <time>2026-06-23T07:03:48.000Z</time>
      </trkpt>
      <trkpt lat="42.92012" lon="1.19597">
        <ele>692</ele>
        <time>2026-06-23T07:03:49.000Z</time>
      </trkpt>
      <trkpt lat="42.92012" lon="1.19597">
        <ele>691</ele>
        <time>2026-06-23T07:03:50.000Z</time>
      </trkpt>
      <trkpt lat="42.92012" lon="1.19597">
        <ele>691</ele>
        <time>2026-06-23T07:03:51.000Z</time>
      </trkpt>
      <trkpt lat="42.92013" lon="1.19598">
        <ele>691</ele>
        <time>2026-06-23T07:03:52.000Z</time>
      </trkpt>
      <trkpt lat="42.92014" lon="1.19599">
        <ele>691</ele>
        <time>2026-06-23T07:03:53.000Z</time>
      </trkpt>
      <trkpt lat="42.92014" lon="1.196">
        <ele>692</ele>
        <time>2026-06-23T07:03:54.000Z</time>
      </trkpt>
      <trkpt lat="42.92015" lon="1.19601">
        <ele>692</ele>
        <time>2026-06-23T07:03:55.000Z</time>
      </trkpt>
      <trkpt lat="42.92015" lon="1.19601">
        <ele>693</ele>
        <time>2026-06-23T07:03:56.000Z</time>
      </trkpt>
      <trkpt lat="42.92015" lon="1.19602">
        <ele>694</ele>
        <time>2026-06-23T07:03:57.000Z</time>
      </trkpt>
      <trkpt lat="42.92015" lon="1.19603">
        <ele>693</ele>
        <time>2026-06-23T07:03:58.000Z</time>
      </trkpt>
      <trkpt lat="42.92015" lon="1.19604">
        <ele>694</ele>
        <time>2026-06-23T07:03:59.000Z</time>
      </trkpt>
      <trkpt lat="42.92016" lon="1.19604">
        <ele>694</ele>
        <time>2026-06-23T07:04:00.000Z</time>
      </trkpt>
      <trkpt lat="42.92016" lon="1.19606">
        <ele>696</ele>
        <time>2026-06-23T07:04:01.000Z</time>
      </trkpt>
      <trkpt lat="42.92016" lon="1.19607">
        <ele>695</ele>
        <time>2026-06-23T07:04:02.000Z</time>
      </trkpt>
      <trkpt lat="42.92016" lon="1.19608">
        <ele>696</ele>
        <time>2026-06-23T07:04:03.000Z</time>
      </trkpt>
      <trkpt lat="42.92017" lon="1.1961">
        <ele>697</ele>
        <time>2026-06-23T07:04:04.000Z</time>
      </trkpt>
      <trkpt lat="42.92018" lon="1.19612">
        <ele>697</ele>
        <time>2026-06-23T07:04:05.000Z</time>
      </trkpt>
      <trkpt lat="42.92019" lon="1.19612">
        <ele>698</ele>
        <time>2026-06-23T07:04:06.000Z</time>
      </trkpt>
      <trkpt lat="42.9202" lon="1.19613">
        <ele>699</ele>
        <time>2026-06-23T07:04:07.000Z</time>
      </trkpt>
      <trkpt lat="42.92021" lon="1.19614">
        <ele>700</ele>
        <time>2026-06-23T07:04:08.000Z</time>
      </trkpt>
      <trkpt lat="42.92022" lon="1.19615">
        <ele>701</ele>
        <time>2026-06-23T07:04:09.000Z</time>
      </trkpt>
      <trkpt lat="42.92023" lon="1.19617">
        <ele>701</ele>
        <time>2026-06-23T07:04:10.000Z</time>
      </trkpt>
      <trkpt lat="42.92024" lon="1.19617">
        <ele>702</ele>
        <time>2026-06-23T07:04:11.000Z</time>
      </trkpt>
      <trkpt lat="42.92024" lon="1.19618">
        <ele>703</ele>
        <time>2026-06-23T07:04:12.000Z</time>
      </trkpt>
      <trkpt lat="42.92025" lon="1.1962">
        <ele>703</ele>
        <time>2026-06-23T07:04:13.000Z</time>
      </trkpt>
      <trkpt lat="42.92026" lon="1.19621">
        <ele>704</ele>
        <time>2026-06-23T07:04:14.000Z</time>
      </trkpt>
      <trkpt lat="42.92027" lon="1.19622">
        <ele>704</ele>
        <time>2026-06-23T07:04:15.000Z</time>
      </trkpt>
      <trkpt lat="42.92028" lon="1.19624">
        <ele>704</ele>
        <time>2026-06-23T07:04:16.000Z</time>
      </trkpt>
      <trkpt lat="42.92028" lon="1.19626">
        <ele>705</ele>
        <time>2026-06-23T07:04:17.000Z</time>
      </trkpt>
      <trkpt lat="42.92029" lon="1.19627">
        <ele>705</ele>
        <time>2026-06-23T07:04:18.000Z</time>
      </trkpt>
      <trkpt lat="42.9203" lon="1.19629">
        <ele>706</ele>
        <time>2026-06-23T07:04:19.000Z</time>
      </trkpt>
      <trkpt lat="42.92031" lon="1.1963">
        <ele>706</ele>
        <time>2026-06-23T07:04:20.000Z</time>
      </trkpt>
      <trkpt lat="42.92033" lon="1.19631">
        <ele>706</ele>
        <time>2026-06-23T07:04:21.000Z</time>
      </trkpt>
      <trkpt lat="42.92035" lon="1.19631">
        <ele>707</ele>
        <time>2026-06-23T07:04:22.000Z</time>
      </trkpt>
      <trkpt lat="42.92036" lon="1.19633">
        <ele>707</ele>
        <time>2026-06-23T07:04:23.000Z</time>
      </trkpt>
      <trkpt lat="42.92038" lon="1.19635">
        <ele>708</ele>
        <time>2026-06-23T07:04:24.000Z</time>
      </trkpt>
      <trkpt lat="42.92039" lon="1.19636">
        <ele>707</ele>
        <time>2026-06-23T07:04:25.000Z</time>
      </trkpt>
      <trkpt lat="42.9204" lon="1.19638">
        <ele>707</ele>
        <time>2026-06-23T07:04:26.000Z</time>
      </trkpt>
      <trkpt lat="42.92041" lon="1.19639">
        <ele>707</ele>
        <time>2026-06-23T07:04:27.000Z</time>
      </trkpt>
      <trkpt lat="42.92042" lon="1.19641">
        <ele>707</ele>
        <time>2026-06-23T07:04:28.000Z</time>
      </trkpt>
      <trkpt lat="42.92043" lon="1.19643">
        <ele>707</ele>
        <time>2026-06-23T07:04:29.000Z</time>
      </trkpt>
      <trkpt lat="42.92044" lon="1.19645">
        <ele>708</ele>
        <time>2026-06-23T07:04:30.000Z</time>
      </trkpt>
      <trkpt lat="42.92045" lon="1.19646">
        <ele>708</ele>
        <time>2026-06-23T07:04:31.000Z</time>
      </trkpt>
      <trkpt lat="42.92046" lon="1.19649">
        <ele>708</ele>
        <time>2026-06-23T07:04:32.000Z</time>
      </trkpt>
      <trkpt lat="42.92047" lon="1.19651">
        <ele>708</ele>
        <time>2026-06-23T07:04:33.000Z</time>
      </trkpt>
      <trkpt lat="42.92048" lon="1.19653">
        <ele>708</ele>
        <time>2026-06-23T07:04:34.000Z</time>
      </trkpt>
      <trkpt lat="42.92049" lon="1.19654">
        <ele>708</ele>
        <time>2026-06-23T07:04:35.000Z</time>
      </trkpt>
      <trkpt lat="42.9205" lon="1.19656">
        <ele>708</ele>
        <time>2026-06-23T07:04:36.000Z</time>
      </trkpt>
      <trkpt lat="42.92051" lon="1.19658">
        <ele>708</ele>
        <time>2026-06-23T07:04:37.000Z</time>
      </trkpt>
      <trkpt lat="42.92053" lon="1.19659">
        <ele>709</ele>
        <time>2026-06-23T07:04:38.000Z</time>
      </trkpt>
      <trkpt lat="42.92055" lon="1.19661">
        <ele>709</ele>
        <time>2026-06-23T07:04:39.000Z</time>
      </trkpt>
      <trkpt lat="42.92056" lon="1.19662">
        <ele>709</ele>
        <time>2026-06-23T07:04:40.000Z</time>
      </trkpt>
      <trkpt lat="42.92057" lon="1.19663">
        <ele>709</ele>
        <time>2026-06-23T07:04:41.000Z</time>
      </trkpt>
      <trkpt lat="42.92059" lon="1.19663">
        <ele>708</ele>
        <time>2026-06-23T07:04:42.000Z</time>
      </trkpt>
      <trkpt lat="42.9206" lon="1.19663">
        <ele>709</ele>
        <time>2026-06-23T07:04:43.000Z</time>
      </trkpt>
      <trkpt lat="42.92061" lon="1.19663">
        <ele>708</ele>
        <time>2026-06-23T07:04:44.000Z</time>
      </trkpt>
      <trkpt lat="42.92062" lon="1.19664">
        <ele>709</ele>
        <time>2026-06-23T07:04:45.000Z</time>
      </trkpt>
      <trkpt lat="42.92064" lon="1.19664">
        <ele>709</ele>
        <time>2026-06-23T07:04:46.000Z</time>
      </trkpt>
      <trkpt lat="42.92065" lon="1.19664">
        <ele>709</ele>
        <time>2026-06-23T07:04:47.000Z</time>
      </trkpt>
      <trkpt lat="42.92068" lon="1.19663">
        <ele>708</ele>
        <time>2026-06-23T07:04:48.000Z</time>
      </trkpt>
      <trkpt lat="42.92069" lon="1.19662">
        <ele>708</ele>
        <time>2026-06-23T07:04:49.000Z</time>
      </trkpt>
      <trkpt lat="42.9207" lon="1.19662">
        <ele>709</ele>
        <time>2026-06-23T07:04:50.000Z</time>
      </trkpt>
      <trkpt lat="42.92071" lon="1.19663">
        <ele>709</ele>
        <time>2026-06-23T07:04:51.000Z</time>
      </trkpt>
      <trkpt lat="42.92073" lon="1.19664">
        <ele>709</ele>
        <time>2026-06-23T07:04:52.000Z</time>
      </trkpt>
      <trkpt lat="42.92074" lon="1.19664">
        <ele>709</ele>
        <time>2026-06-23T07:04:53.000Z</time>
      </trkpt>
      <trkpt lat="42.92076" lon="1.19665">
        <ele>708</ele>
        <time>2026-06-23T07:04:54.000Z</time>
      </trkpt>
      <trkpt lat="42.92077" lon="1.19665">
        <ele>708</ele>
        <time>2026-06-23T07:04:55.000Z</time>
      </trkpt>
      <trkpt lat="42.92079" lon="1.19666">
        <ele>708</ele>
        <time>2026-06-23T07:04:56.000Z</time>
      </trkpt>
      <trkpt lat="42.9208" lon="1.19666">
        <ele>708</ele>
        <time>2026-06-23T07:04:57.000Z</time>
      </trkpt>
      <trkpt lat="42.92082" lon="1.19666">
        <ele>709</ele>
        <time>2026-06-23T07:04:58.000Z</time>
      </trkpt>
      <trkpt lat="42.92083" lon="1.19666">
        <ele>709</ele>
        <time>2026-06-23T07:04:59.000Z</time>
      </trkpt>
      <trkpt lat="42.92085" lon="1.19667">
        <ele>709</ele>
        <time>2026-06-23T07:05:00.000Z</time>
      </trkpt>
      <trkpt lat="42.92086" lon="1.19667">
        <ele>709</ele>
        <time>2026-06-23T07:05:01.000Z</time>
      </trkpt>
      <trkpt lat="42.92087" lon="1.19667">
        <ele>710</ele>
        <time>2026-06-23T07:05:02.000Z</time>
      </trkpt>
      <trkpt lat="42.92088" lon="1.19667">
        <ele>709</ele>
        <time>2026-06-23T07:05:03.000Z</time>
      </trkpt>
      <trkpt lat="42.92089" lon="1.19666">
        <ele>709</ele>
        <time>2026-06-23T07:05:04.000Z</time>
      </trkpt>
      <trkpt lat="42.9209" lon="1.19666">
        <ele>709</ele>
        <time>2026-06-23T07:05:05.000Z</time>
      </trkpt>
      <trkpt lat="42.9209" lon="1.19665">
        <ele>710</ele>
        <time>2026-06-23T07:05:06.000Z</time>
      </trkpt>
      <trkpt lat="42.92092" lon="1.19665">
        <ele>711</ele>
        <time>2026-06-23T07:05:07.000Z</time>
      </trkpt>
      <trkpt lat="42.92093" lon="1.19663">
        <ele>711</ele>
        <time>2026-06-23T07:05:08.000Z</time>
      </trkpt>
      <trkpt lat="42.92094" lon="1.19663">
        <ele>711</ele>
        <time>2026-06-23T07:05:09.000Z</time>
      </trkpt>
      <trkpt lat="42.92095" lon="1.19661">
        <ele>712</ele>
        <time>2026-06-23T07:05:10.000Z</time>
      </trkpt>
      <trkpt lat="42.92095" lon="1.19661">
        <ele>712</ele>
        <time>2026-06-23T07:05:11.000Z</time>
      </trkpt>
      <trkpt lat="42.92096" lon="1.1966">
        <ele>713</ele>
        <time>2026-06-23T07:05:12.000Z</time>
      </trkpt>
      <trkpt lat="42.92097" lon="1.1966">
        <ele>712</ele>
        <time>2026-06-23T07:05:13.000Z</time>
      </trkpt>
      <trkpt lat="42.92099" lon="1.19659">
        <ele>712</ele>
        <time>2026-06-23T07:05:14.000Z</time>
      </trkpt>
      <trkpt lat="42.92101" lon="1.19659">
        <ele>712</ele>
        <time>2026-06-23T07:05:15.000Z</time>
      </trkpt>
      <trkpt lat="42.92103" lon="1.19658">
        <ele>712</ele>
        <time>2026-06-23T07:05:16.000Z</time>
      </trkpt>
      <trkpt lat="42.92104" lon="1.19657">
        <ele>713</ele>
        <time>2026-06-23T07:05:17.000Z</time>
      </trkpt>
      <trkpt lat="42.92106" lon="1.19657">
        <ele>713</ele>
        <time>2026-06-23T07:05:18.000Z</time>
      </trkpt>
      <trkpt lat="42.92107" lon="1.19656">
        <ele>714</ele>
        <time>2026-06-23T07:05:19.000Z</time>
      </trkpt>
      <trkpt lat="42.92109" lon="1.19656">
        <ele>714</ele>
        <time>2026-06-23T07:05:20.000Z</time>
      </trkpt>
      <trkpt lat="42.9211" lon="1.19655">
        <ele>714</ele>
        <time>2026-06-23T07:05:21.000Z</time>
      </trkpt>
      <trkpt lat="42.92112" lon="1.19655">
        <ele>715</ele>
        <time>2026-06-23T07:05:22.000Z</time>
      </trkpt>
      <trkpt lat="42.92112" lon="1.19655">
        <ele>716</ele>
        <time>2026-06-23T07:05:23.000Z</time>
      </trkpt>
      <trkpt lat="42.92114" lon="1.19655">
        <ele>717</ele>
        <time>2026-06-23T07:05:24.000Z</time>
      </trkpt>
      <trkpt lat="42.92115" lon="1.19655">
        <ele>716</ele>
        <time>2026-06-23T07:05:25.000Z</time>
      </trkpt>
      <trkpt lat="42.92117" lon="1.19654">
        <ele>718</ele>
        <time>2026-06-23T07:05:26.000Z</time>
      </trkpt>
      <trkpt lat="42.92118" lon="1.19654">
        <ele>718</ele>
        <time>2026-06-23T07:05:27.000Z</time>
      </trkpt>
      <trkpt lat="42.92119" lon="1.19654">
        <ele>718</ele>
        <time>2026-06-23T07:05:28.000Z</time>
      </trkpt>
      <trkpt lat="42.9212" lon="1.19653">
        <ele>719</ele>
        <time>2026-06-23T07:05:29.000Z</time>
      </trkpt>
      <trkpt lat="42.92121" lon="1.19652">
        <ele>719</ele>
        <time>2026-06-23T07:05:30.000Z</time>
      </trkpt>
      <trkpt lat="42.92123" lon="1.19652">
        <ele>720</ele>
        <time>2026-06-23T07:05:31.000Z</time>
      </trkpt>
      <trkpt lat="42.92124" lon="1.19653">
        <ele>720</ele>
        <time>2026-06-23T07:05:32.000Z</time>
      </trkpt>
      <trkpt lat="42.92126" lon="1.19653">
        <ele>721</ele>
        <time>2026-06-23T07:05:33.000Z</time>
      </trkpt>
      <trkpt lat="42.92127" lon="1.19654">
        <ele>721</ele>
        <time>2026-06-23T07:05:34.000Z</time>
      </trkpt>
      <trkpt lat="42.92128" lon="1.19653">
        <ele>721</ele>
        <time>2026-06-23T07:05:35.000Z</time>
      </trkpt>
      <trkpt lat="42.92129" lon="1.19654">
        <ele>722</ele>
        <time>2026-06-23T07:05:36.000Z</time>
      </trkpt>
      <trkpt lat="42.9213" lon="1.19653">
        <ele>722</ele>
        <time>2026-06-23T07:05:37.000Z</time>
      </trkpt>
      <trkpt lat="42.92131" lon="1.19654">
        <ele>721</ele>
        <time>2026-06-23T07:05:38.000Z</time>
      </trkpt>
      <trkpt lat="42.92132" lon="1.19654">
        <ele>722</ele>
        <time>2026-06-23T07:05:39.000Z</time>
      </trkpt>
      <trkpt lat="42.92133" lon="1.19653">
        <ele>721</ele>
        <time>2026-06-23T07:05:40.000Z</time>
      </trkpt>
      <trkpt lat="42.92134" lon="1.19651">
        <ele>721</ele>
        <time>2026-06-23T07:05:41.000Z</time>
      </trkpt>
      <trkpt lat="42.92135" lon="1.1965">
        <ele>721</ele>
        <time>2026-06-23T07:05:42.000Z</time>
      </trkpt>
      <trkpt lat="42.92137" lon="1.19649">
        <ele>722</ele>
        <time>2026-06-23T07:05:43.000Z</time>
      </trkpt>
      <trkpt lat="42.92138" lon="1.19649">
        <ele>722</ele>
        <time>2026-06-23T07:05:44.000Z</time>
      </trkpt>
      <trkpt lat="42.92139" lon="1.19648">
        <ele>722</ele>
        <time>2026-06-23T07:05:45.000Z</time>
      </trkpt>
      <trkpt lat="42.92141" lon="1.19649">
        <ele>723</ele>
        <time>2026-06-23T07:05:46.000Z</time>
      </trkpt>
      <trkpt lat="42.92142" lon="1.19647">
        <ele>724</ele>
        <time>2026-06-23T07:05:47.000Z</time>
      </trkpt>
      <trkpt lat="42.92143" lon="1.19646">
        <ele>724</ele>
        <time>2026-06-23T07:05:48.000Z</time>
      </trkpt>
      <trkpt lat="42.92143" lon="1.19645">
        <ele>724</ele>
        <time>2026-06-23T07:05:49.000Z</time>
      </trkpt>
      <trkpt lat="42.92144" lon="1.19643">
        <ele>725</ele>
        <time>2026-06-23T07:05:50.000Z</time>
      </trkpt>
      <trkpt lat="42.92144" lon="1.1964">
        <ele>725</ele>
        <time>2026-06-23T07:05:51.000Z</time>
      </trkpt>
      <trkpt lat="42.92143" lon="1.19638">
        <ele>725</ele>
        <time>2026-06-23T07:05:52.000Z</time>
      </trkpt>
      <trkpt lat="42.92143" lon="1.19636">
        <ele>726</ele>
        <time>2026-06-23T07:05:53.000Z</time>
      </trkpt>
      <trkpt lat="42.92144" lon="1.19635">
        <ele>726</ele>
        <time>2026-06-23T07:05:54.000Z</time>
      </trkpt>
      <trkpt lat="42.92145" lon="1.19633">
        <ele>727</ele>
        <time>2026-06-23T07:05:55.000Z</time>
      </trkpt>
      <trkpt lat="42.92145" lon="1.19634">
        <ele>727</ele>
        <time>2026-06-23T07:05:56.000Z</time>
      </trkpt>
      <trkpt lat="42.92146" lon="1.19633">
        <ele>727</ele>
        <time>2026-06-23T07:05:57.000Z</time>
      </trkpt>
      <trkpt lat="42.92149" lon="1.19634">
        <ele>728</ele>
        <time>2026-06-23T07:05:58.000Z</time>
      </trkpt>
      <trkpt lat="42.92151" lon="1.19634">
        <ele>729</ele>
        <time>2026-06-23T07:05:59.000Z</time>
      </trkpt>
      <trkpt lat="42.92153" lon="1.19634">
        <ele>729</ele>
        <time>2026-06-23T07:06:00.000Z</time>
      </trkpt>
      <trkpt lat="42.92154" lon="1.19635">
        <ele>730</ele>
        <time>2026-06-23T07:06:01.000Z</time>
      </trkpt>
      <trkpt lat="42.92156" lon="1.19635">
        <ele>730</ele>
        <time>2026-06-23T07:06:02.000Z</time>
      </trkpt>
      <trkpt lat="42.92159" lon="1.19635">
        <ele>731</ele>
        <time>2026-06-23T07:06:03.000Z</time>
      </trkpt>
      <trkpt lat="42.92161" lon="1.19635">
        <ele>732</ele>
        <time>2026-06-23T07:06:04.000Z</time>
      </trkpt>
      <trkpt lat="42.92163" lon="1.19636">
        <ele>732</ele>
        <time>2026-06-23T07:06:05.000Z</time>
      </trkpt>
      <trkpt lat="42.92166" lon="1.19637">
        <ele>733</ele>
        <time>2026-06-23T07:06:06.000Z</time>
      </trkpt>
      <trkpt lat="42.92168" lon="1.19637">
        <ele>733</ele>
        <time>2026-06-23T07:06:07.000Z</time>
      </trkpt>
      <trkpt lat="42.92171" lon="1.19639">
        <ele>734</ele>
        <time>2026-06-23T07:06:08.000Z</time>
      </trkpt>
      <trkpt lat="42.92173" lon="1.19639">
        <ele>735</ele>
        <time>2026-06-23T07:06:09.000Z</time>
      </trkpt>
      <trkpt lat="42.92176" lon="1.1964">
        <ele>736</ele>
        <time>2026-06-23T07:06:10.000Z</time>
      </trkpt>
      <trkpt lat="42.92179" lon="1.19641">
        <ele>736</ele>
        <time>2026-06-23T07:06:11.000Z</time>
      </trkpt>
      <trkpt lat="42.92181" lon="1.19641">
        <ele>737</ele>
        <time>2026-06-23T07:06:12.000Z</time>
      </trkpt>
      <trkpt lat="42.92184" lon="1.19641">
        <ele>737</ele>
        <time>2026-06-23T07:06:13.000Z</time>
      </trkpt>
      <trkpt lat="42.92186" lon="1.19642">
        <ele>738</ele>
        <time>2026-06-23T07:06:14.000Z</time>
      </trkpt>
      <trkpt lat="42.92189" lon="1.19643">
        <ele>738</ele>
        <time>2026-06-23T07:06:15.000Z</time>
      </trkpt>
      <trkpt lat="42.92192" lon="1.19643">
        <ele>738</ele>
        <time>2026-06-23T07:06:16.000Z</time>
      </trkpt>
      <trkpt lat="42.92194" lon="1.19643">
        <ele>738</ele>
        <time>2026-06-23T07:06:17.000Z</time>
      </trkpt>
      <trkpt lat="42.92197" lon="1.19644">
        <ele>739</ele>
        <time>2026-06-23T07:06:18.000Z</time>
      </trkpt>
      <trkpt lat="42.922" lon="1.19644">
        <ele>739</ele>
        <time>2026-06-23T07:06:19.000Z</time>
      </trkpt>
      <trkpt lat="42.92202" lon="1.19644">
        <ele>741</ele>
        <time>2026-06-23T07:06:20.000Z</time>
      </trkpt>
      <trkpt lat="42.92205" lon="1.19645">
        <ele>742</ele>
        <time>2026-06-23T07:06:21.000Z</time>
      </trkpt>
      <trkpt lat="42.92207" lon="1.19645">
        <ele>742</ele>
        <time>2026-06-23T07:06:22.000Z</time>
      </trkpt>
      <trkpt lat="42.9221" lon="1.19645">
        <ele>743</ele>
        <time>2026-06-23T07:06:23.000Z</time>
      </trkpt>
      <trkpt lat="42.92212" lon="1.19646">
        <ele>744</ele>
        <time>2026-06-23T07:06:24.000Z</time>
      </trkpt>
      <trkpt lat="42.92215" lon="1.19647">
        <ele>745</ele>
        <time>2026-06-23T07:06:25.000Z</time>
      </trkpt>
      <trkpt lat="42.92217" lon="1.19647">
        <ele>746</ele>
        <time>2026-06-23T07:06:26.000Z</time>
      </trkpt>
      <trkpt lat="42.92219" lon="1.19649">
        <ele>746</ele>
        <time>2026-06-23T07:06:27.000Z</time>
      </trkpt>
      <trkpt lat="42.92221" lon="1.19649">
        <ele>746</ele>
        <time>2026-06-23T07:06:28.000Z</time>
      </trkpt>
      <trkpt lat="42.92223" lon="1.1965">
        <ele>745</ele>
        <time>2026-06-23T07:06:29.000Z</time>
      </trkpt>
      <trkpt lat="42.92225" lon="1.19651">
        <ele>745</ele>
        <time>2026-06-23T07:06:30.000Z</time>
      </trkpt>
      <trkpt lat="42.92227" lon="1.19651">
        <ele>745</ele>
        <time>2026-06-23T07:06:31.000Z</time>
      </trkpt>
      <trkpt lat="42.92229" lon="1.19651">
        <ele>746</ele>
        <time>2026-06-23T07:06:32.000Z</time>
      </trkpt>
      <trkpt lat="42.9223" lon="1.19651">
        <ele>746</ele>
        <time>2026-06-23T07:06:33.000Z</time>
      </trkpt>
      <trkpt lat="42.92232" lon="1.19651">
        <ele>746</ele>
        <time>2026-06-23T07:06:34.000Z</time>
      </trkpt>
      <trkpt lat="42.92233" lon="1.19651">
        <ele>747</ele>
        <time>2026-06-23T07:06:35.000Z</time>
      </trkpt>
      <trkpt lat="42.92235" lon="1.1965">
        <ele>747</ele>
        <time>2026-06-23T07:06:36.000Z</time>
      </trkpt>
      <trkpt lat="42.92237" lon="1.1965">
        <ele>747</ele>
        <time>2026-06-23T07:06:37.000Z</time>
      </trkpt>
      <trkpt lat="42.92238" lon="1.19649">
        <ele>747</ele>
        <time>2026-06-23T07:06:38.000Z</time>
      </trkpt>
      <trkpt lat="42.9224" lon="1.19648">
        <ele>748</ele>
        <time>2026-06-23T07:06:39.000Z</time>
      </trkpt>
      <trkpt lat="42.92242" lon="1.19648">
        <ele>748</ele>
        <time>2026-06-23T07:06:40.000Z</time>
      </trkpt>
      <trkpt lat="42.92244" lon="1.19646">
        <ele>748</ele>
        <time>2026-06-23T07:06:41.000Z</time>
      </trkpt>
      <trkpt lat="42.92247" lon="1.19645">
        <ele>748</ele>
        <time>2026-06-23T07:06:42.000Z</time>
      </trkpt>
      <trkpt lat="42.92248" lon="1.19643">
        <ele>748</ele>
        <time>2026-06-23T07:06:43.000Z</time>
      </trkpt>
      <trkpt lat="42.92251" lon="1.19641">
        <ele>748</ele>
        <time>2026-06-23T07:06:44.000Z</time>
      </trkpt>
      <trkpt lat="42.92253" lon="1.1964">
        <ele>748</ele>
        <time>2026-06-23T07:06:45.000Z</time>
      </trkpt>
      <trkpt lat="42.92255" lon="1.19638">
        <ele>749</ele>
        <time>2026-06-23T07:06:46.000Z</time>
      </trkpt>
      <trkpt lat="42.92257" lon="1.19638">
        <ele>749</ele>
        <time>2026-06-23T07:06:47.000Z</time>
      </trkpt>
      <trkpt lat="42.92259" lon="1.19637">
        <ele>750</ele>
        <time>2026-06-23T07:06:48.000Z</time>
      </trkpt>
      <trkpt lat="42.92261" lon="1.19637">
        <ele>750</ele>
        <time>2026-06-23T07:06:49.000Z</time>
      </trkpt>
      <trkpt lat="42.92263" lon="1.19636">
        <ele>750</ele>
        <time>2026-06-23T07:06:50.000Z</time>
      </trkpt>
      <trkpt lat="42.92265" lon="1.19635">
        <ele>751</ele>
        <time>2026-06-23T07:06:51.000Z</time>
      </trkpt>
      <trkpt lat="42.92267" lon="1.19635">
        <ele>751</ele>
        <time>2026-06-23T07:06:52.000Z</time>
      </trkpt>
      <trkpt lat="42.9227" lon="1.19635">
        <ele>752</ele>
        <time>2026-06-23T07:06:53.000Z</time>
      </trkpt>
      <trkpt lat="42.92272" lon="1.19635">
        <ele>751</ele>
        <time>2026-06-23T07:06:54.000Z</time>
      </trkpt>
      <trkpt lat="42.92275" lon="1.19635">
        <ele>751</ele>
        <time>2026-06-23T07:06:55.000Z</time>
      </trkpt>
      <trkpt lat="42.92278" lon="1.19636">
        <ele>752</ele>
        <time>2026-06-23T07:06:56.000Z</time>
      </trkpt>
      <trkpt lat="42.92281" lon="1.19637">
        <ele>752</ele>
        <time>2026-06-23T07:06:57.000Z</time>
      </trkpt>
      <trkpt lat="42.92284" lon="1.19637">
        <ele>752</ele>
        <time>2026-06-23T07:06:58.000Z</time>
      </trkpt>
      <trkpt lat="42.92286" lon="1.19638">
        <ele>753</ele>
        <time>2026-06-23T07:06:59.000Z</time>
      </trkpt>
      <trkpt lat="42.92289" lon="1.19639">
        <ele>754</ele>
        <time>2026-06-23T07:07:00.000Z</time>
      </trkpt>
      <trkpt lat="42.92291" lon="1.1964">
        <ele>754</ele>
        <time>2026-06-23T07:07:01.000Z</time>
      </trkpt>
      <trkpt lat="42.92293" lon="1.19641">
        <ele>754</ele>
        <time>2026-06-23T07:07:02.000Z</time>
      </trkpt>
      <trkpt lat="42.92294" lon="1.19642">
        <ele>755</ele>
        <time>2026-06-23T07:07:03.000Z</time>
      </trkpt>
      <trkpt lat="42.92295" lon="1.19643">
        <ele>755</ele>
        <time>2026-06-23T07:07:04.000Z</time>
      </trkpt>
      <trkpt lat="42.92297" lon="1.19643">
        <ele>756</ele>
        <time>2026-06-23T07:07:05.000Z</time>
      </trkpt>
      <trkpt lat="42.92298" lon="1.19644">
        <ele>756</ele>
        <time>2026-06-23T07:07:06.000Z</time>
      </trkpt>
      <trkpt lat="42.923" lon="1.19644">
        <ele>756</ele>
        <time>2026-06-23T07:07:07.000Z</time>
      </trkpt>
      <trkpt lat="42.92302" lon="1.19644">
        <ele>757</ele>
        <time>2026-06-23T07:07:08.000Z</time>
      </trkpt>
      <trkpt lat="42.92303" lon="1.19645">
        <ele>757</ele>
        <time>2026-06-23T07:07:09.000Z</time>
      </trkpt>
      <trkpt lat="42.92305" lon="1.19647">
        <ele>758</ele>
        <time>2026-06-23T07:07:10.000Z</time>
      </trkpt>
      <trkpt lat="42.92306" lon="1.19649">
        <ele>759</ele>
        <time>2026-06-23T07:07:11.000Z</time>
      </trkpt>
      <trkpt lat="42.92307" lon="1.19653">
        <ele>760</ele>
        <time>2026-06-23T07:07:12.000Z</time>
      </trkpt>
      <trkpt lat="42.92308" lon="1.19656">
        <ele>761</ele>
        <time>2026-06-23T07:07:13.000Z</time>
      </trkpt>
      <trkpt lat="42.92307" lon="1.1966">
        <ele>762</ele>
        <time>2026-06-23T07:07:14.000Z</time>
      </trkpt>
      <trkpt lat="42.92307" lon="1.19662">
        <ele>763</ele>
        <time>2026-06-23T07:07:15.000Z</time>
      </trkpt>
      <trkpt lat="42.92306" lon="1.19666">
        <ele>763</ele>
        <time>2026-06-23T07:07:16.000Z</time>
      </trkpt>
      <trkpt lat="42.92305" lon="1.19669">
        <ele>764</ele>
        <time>2026-06-23T07:07:17.000Z</time>
      </trkpt>
      <trkpt lat="42.92305" lon="1.19672">
        <ele>764</ele>
        <time>2026-06-23T07:07:18.000Z</time>
      </trkpt>
      <trkpt lat="42.92304" lon="1.19675">
        <ele>765</ele>
        <time>2026-06-23T07:07:19.000Z</time>
      </trkpt>
      <trkpt lat="42.92304" lon="1.19678">
        <ele>765</ele>
        <time>2026-06-23T07:07:20.000Z</time>
      </trkpt>
      <trkpt lat="42.92304" lon="1.19682">
        <ele>767</ele>
        <time>2026-06-23T07:07:21.000Z</time>
      </trkpt>
      <trkpt lat="42.92303" lon="1.19686">
        <ele>767</ele>
        <time>2026-06-23T07:07:22.000Z</time>
      </trkpt>
      <trkpt lat="42.92303" lon="1.1969">
        <ele>768</ele>
        <time>2026-06-23T07:07:23.000Z</time>
      </trkpt>
      <trkpt lat="42.92304" lon="1.19694">
        <ele>768</ele>
        <time>2026-06-23T07:07:24.000Z</time>
      </trkpt>
      <trkpt lat="42.92304" lon="1.19698">
        <ele>769</ele>
        <time>2026-06-23T07:07:25.000Z</time>
      </trkpt>
      <trkpt lat="42.92304" lon="1.19701">
        <ele>769</ele>
        <time>2026-06-23T07:07:26.000Z</time>
      </trkpt>
      <trkpt lat="42.92304" lon="1.19704">
        <ele>770</ele>
        <time>2026-06-23T07:07:27.000Z</time>
      </trkpt>
      <trkpt lat="42.92304" lon="1.19707">
        <ele>770</ele>
        <time>2026-06-23T07:07:28.000Z</time>
      </trkpt>
      <trkpt lat="42.92304" lon="1.19711">
        <ele>770</ele>
        <time>2026-06-23T07:07:29.000Z</time>
      </trkpt>
      <trkpt lat="42.92305" lon="1.19715">
        <ele>770</ele>
        <time>2026-06-23T07:07:30.000Z</time>
      </trkpt>
      <trkpt lat="42.92306" lon="1.19718">
        <ele>770</ele>
        <time>2026-06-23T07:07:31.000Z</time>
      </trkpt>
      <trkpt lat="42.92306" lon="1.19721">
        <ele>770</ele>
        <time>2026-06-23T07:07:32.000Z</time>
      </trkpt>
      <trkpt lat="42.92306" lon="1.19724">
        <ele>770</ele>
        <time>2026-06-23T07:07:33.000Z</time>
      </trkpt>
      <trkpt lat="42.92305" lon="1.19726">
        <ele>771</ele>
        <time>2026-06-23T07:07:34.000Z</time>
      </trkpt>
      <trkpt lat="42.92305" lon="1.19728">
        <ele>772</ele>
        <time>2026-06-23T07:07:35.000Z</time>
      </trkpt>
      <trkpt lat="42.92305" lon="1.19731">
        <ele>772</ele>
        <time>2026-06-23T07:07:36.000Z</time>
      </trkpt>
      <trkpt lat="42.92305" lon="1.19734">
        <ele>772</ele>
        <time>2026-06-23T07:07:37.000Z</time>
      </trkpt>
      <trkpt lat="42.92305" lon="1.19737">
        <ele>772</ele>
        <time>2026-06-23T07:07:38.000Z</time>
      </trkpt>
      <trkpt lat="42.92306" lon="1.1974">
        <ele>773</ele>
        <time>2026-06-23T07:07:39.000Z</time>
      </trkpt>
      <trkpt lat="42.92306" lon="1.19744">
        <ele>773</ele>
        <time>2026-06-23T07:07:40.000Z</time>
      </trkpt>
      <trkpt lat="42.92307" lon="1.19746">
        <ele>773</ele>
        <time>2026-06-23T07:07:41.000Z</time>
      </trkpt>
      <trkpt lat="42.92307" lon="1.19749">
        <ele>773</ele>
        <time>2026-06-23T07:07:42.000Z</time>
      </trkpt>
      <trkpt lat="42.92307" lon="1.1975">
        <ele>773</ele>
        <time>2026-06-23T07:07:43.000Z</time>
      </trkpt>
      <trkpt lat="42.92308" lon="1.19752">
        <ele>773</ele>
        <time>2026-06-23T07:07:44.000Z</time>
      </trkpt>
      <trkpt lat="42.92309" lon="1.19755">
        <ele>773</ele>
        <time>2026-06-23T07:07:45.000Z</time>
      </trkpt>
      <trkpt lat="42.9231" lon="1.19758">
        <ele>773</ele>
        <time>2026-06-23T07:07:46.000Z</time>
      </trkpt>
      <trkpt lat="42.92312" lon="1.19761">
        <ele>773</ele>
        <time>2026-06-23T07:07:47.000Z</time>
      </trkpt>
      <trkpt lat="42.92314" lon="1.19765">
        <ele>774</ele>
        <time>2026-06-23T07:07:48.000Z</time>
      </trkpt>
      <trkpt lat="42.92315" lon="1.19767">
        <ele>775</ele>
        <time>2026-06-23T07:07:49.000Z</time>
      </trkpt>
      <trkpt lat="42.92317" lon="1.1977">
        <ele>774</ele>
        <time>2026-06-23T07:07:50.000Z</time>
      </trkpt>
      <trkpt lat="42.92319" lon="1.19773">
        <ele>774</ele>
        <time>2026-06-23T07:07:51.000Z</time>
      </trkpt>
      <trkpt lat="42.9232" lon="1.19776">
        <ele>774</ele>
        <time>2026-06-23T07:07:52.000Z</time>
      </trkpt>
      <trkpt lat="42.92321" lon="1.1978">
        <ele>775</ele>
        <time>2026-06-23T07:07:53.000Z</time>
      </trkpt>
      <trkpt lat="42.92322" lon="1.19782">
        <ele>775</ele>
        <time>2026-06-23T07:07:54.000Z</time>
      </trkpt>
      <trkpt lat="42.92323" lon="1.19786">
        <ele>776</ele>
        <time>2026-06-23T07:07:55.000Z</time>
      </trkpt>
      <trkpt lat="42.92326" lon="1.19789">
        <ele>776</ele>
        <time>2026-06-23T07:07:56.000Z</time>
      </trkpt>
      <trkpt lat="42.92327" lon="1.19793">
        <ele>776</ele>
        <time>2026-06-23T07:07:57.000Z</time>
      </trkpt>
      <trkpt lat="42.92328" lon="1.19799">
        <ele>775</ele>
        <time>2026-06-23T07:07:58.000Z</time>
      </trkpt>
      <trkpt lat="42.92327" lon="1.19805">
        <ele>776</ele>
        <time>2026-06-23T07:07:59.000Z</time>
      </trkpt>
      <trkpt lat="42.92325" lon="1.19812">
        <ele>777</ele>
        <time>2026-06-23T07:08:00.000Z</time>
      </trkpt>
      <trkpt lat="42.92322" lon="1.19819">
        <ele>778</ele>
        <time>2026-06-23T07:08:01.000Z</time>
      </trkpt>
      <trkpt lat="42.92319" lon="1.19824">
        <ele>779</ele>
        <time>2026-06-23T07:08:02.000Z</time>
      </trkpt>
      <trkpt lat="42.92315" lon="1.19829">
        <ele>779</ele>
        <time>2026-06-23T07:08:03.000Z</time>
      </trkpt>
      <trkpt lat="42.92313" lon="1.19833">
        <ele>781</ele>
        <time>2026-06-23T07:08:04.000Z</time>
      </trkpt>
      <trkpt lat="42.92311" lon="1.19836">
        <ele>781</ele>
        <time>2026-06-23T07:08:05.000Z</time>
      </trkpt>
      <trkpt lat="42.92308" lon="1.1984">
        <ele>783</ele>
        <time>2026-06-23T07:08:06.000Z</time>
      </trkpt>
      <trkpt lat="42.92306" lon="1.19843">
        <ele>784</ele>
        <time>2026-06-23T07:08:07.000Z</time>
      </trkpt>
      <trkpt lat="42.92304" lon="1.19847">
        <ele>785</ele>
        <time>2026-06-23T07:08:08.000Z</time>
      </trkpt>
      <trkpt lat="42.92302" lon="1.19851">
        <ele>786</ele>
        <time>2026-06-23T07:08:09.000Z</time>
      </trkpt>
      <trkpt lat="42.923" lon="1.19855">
        <ele>787</ele>
        <time>2026-06-23T07:08:10.000Z</time>
      </trkpt>
      <trkpt lat="42.92299" lon="1.19858">
        <ele>788</ele>
        <time>2026-06-23T07:08:11.000Z</time>
      </trkpt>
      <trkpt lat="42.92296" lon="1.19861">
        <ele>789</ele>
        <time>2026-06-23T07:08:12.000Z</time>
      </trkpt>
      <trkpt lat="42.92293" lon="1.19865">
        <ele>789</ele>
        <time>2026-06-23T07:08:13.000Z</time>
      </trkpt>
      <trkpt lat="42.92289" lon="1.1987">
        <ele>790</ele>
        <time>2026-06-23T07:08:14.000Z</time>
      </trkpt>
      <trkpt lat="42.92285" lon="1.19873">
        <ele>791</ele>
        <time>2026-06-23T07:08:15.000Z</time>
      </trkpt>
      <trkpt lat="42.92282" lon="1.19877">
        <ele>792</ele>
        <time>2026-06-23T07:08:16.000Z</time>
      </trkpt>
      <trkpt lat="42.92278" lon="1.19883">
        <ele>795</ele>
        <time>2026-06-23T07:08:17.000Z</time>
      </trkpt>
      <trkpt lat="42.92274" lon="1.19888">
        <ele>796</ele>
        <time>2026-06-23T07:08:18.000Z</time>
      </trkpt>
      <trkpt lat="42.92271" lon="1.19893">
        <ele>798</ele>
        <time>2026-06-23T07:08:19.000Z</time>
      </trkpt>
      <trkpt lat="42.92268" lon="1.19898">
        <ele>798</ele>
        <time>2026-06-23T07:08:20.000Z</time>
      </trkpt>
      <trkpt lat="42.92264" lon="1.19903">
        <ele>798</ele>
        <time>2026-06-23T07:08:21.000Z</time>
      </trkpt>
      <trkpt lat="42.92262" lon="1.19908">
        <ele>799</ele>
        <time>2026-06-23T07:08:22.000Z</time>
      </trkpt>
      <trkpt lat="42.92259" lon="1.19913">
        <ele>800</ele>
        <time>2026-06-23T07:08:23.000Z</time>
      </trkpt>
      <trkpt lat="42.92257" lon="1.1992">
        <ele>802</ele>
        <time>2026-06-23T07:08:24.000Z</time>
      </trkpt>
      <trkpt lat="42.92256" lon="1.19926">
        <ele>803</ele>
        <time>2026-06-23T07:08:25.000Z</time>
      </trkpt>
      <trkpt lat="42.92254" lon="1.19931">
        <ele>803</ele>
        <time>2026-06-23T07:08:26.000Z</time>
      </trkpt>
      <trkpt lat="42.92251" lon="1.19936">
        <ele>804</ele>
        <time>2026-06-23T07:08:27.000Z</time>
      </trkpt>
      <trkpt lat="42.92252" lon="1.19939">
        <ele>804</ele>
        <time>2026-06-23T07:08:28.000Z</time>
      </trkpt>
      <trkpt lat="42.92254" lon="1.19941">
        <ele>803</ele>
        <time>2026-06-23T07:08:29.000Z</time>
      </trkpt>
      <trkpt lat="42.92257" lon="1.19941">
        <ele>803</ele>
        <time>2026-06-23T07:08:30.000Z</time>
      </trkpt>
      <trkpt lat="42.9226" lon="1.1994">
        <ele>803</ele>
        <time>2026-06-23T07:08:31.000Z</time>
      </trkpt>
      <trkpt lat="42.92263" lon="1.19939">
        <ele>803</ele>
        <time>2026-06-23T07:08:32.000Z</time>
      </trkpt>
      <trkpt lat="42.92266" lon="1.19936">
        <ele>804</ele>
        <time>2026-06-23T07:08:33.000Z</time>
      </trkpt>
      <trkpt lat="42.9227" lon="1.19934">
        <ele>803</ele>
        <time>2026-06-23T07:08:34.000Z</time>
      </trkpt>
      <trkpt lat="42.92273" lon="1.19931">
        <ele>803</ele>
        <time>2026-06-23T07:08:35.000Z</time>
      </trkpt>
      <trkpt lat="42.92276" lon="1.19928">
        <ele>803</ele>
        <time>2026-06-23T07:08:36.000Z</time>
      </trkpt>
      <trkpt lat="42.92279" lon="1.19925">
        <ele>803</ele>
        <time>2026-06-23T07:08:37.000Z</time>
      </trkpt>
      <trkpt lat="42.92282" lon="1.19923">
        <ele>803</ele>
        <time>2026-06-23T07:08:38.000Z</time>
      </trkpt>
      <trkpt lat="42.92285" lon="1.19919">
        <ele>803</ele>
        <time>2026-06-23T07:08:39.000Z</time>
      </trkpt>
      <trkpt lat="42.92288" lon="1.19916">
        <ele>804</ele>
        <time>2026-06-23T07:08:40.000Z</time>
      </trkpt>
      <trkpt lat="42.9229" lon="1.19913">
        <ele>804</ele>
        <time>2026-06-23T07:08:41.000Z</time>
      </trkpt>
      <trkpt lat="42.92293" lon="1.1991">
        <ele>804</ele>
        <time>2026-06-23T07:08:42.000Z</time>
      </trkpt>
      <trkpt lat="42.92295" lon="1.19907">
        <ele>804</ele>
        <time>2026-06-23T07:08:43.000Z</time>
      </trkpt>
      <trkpt lat="42.92297" lon="1.19904">
        <ele>804</ele>
        <time>2026-06-23T07:08:44.000Z</time>
      </trkpt>
      <trkpt lat="42.923" lon="1.19902">
        <ele>804</ele>
        <time>2026-06-23T07:08:45.000Z</time>
      </trkpt>
      <trkpt lat="42.92302" lon="1.19899">
        <ele>804</ele>
        <time>2026-06-23T07:08:46.000Z</time>
      </trkpt>
      <trkpt lat="42.92305" lon="1.19896">
        <ele>804</ele>
        <time>2026-06-23T07:08:47.000Z</time>
      </trkpt>
      <trkpt lat="42.92308" lon="1.19893">
        <ele>804</ele>
        <time>2026-06-23T07:08:48.000Z</time>
      </trkpt>
      <trkpt lat="42.9231" lon="1.1989">
        <ele>804</ele>
        <time>2026-06-23T07:08:49.000Z</time>
      </trkpt>
      <trkpt lat="42.92313" lon="1.19887">
        <ele>804</ele>
        <time>2026-06-23T07:08:50.000Z</time>
      </trkpt>
      <trkpt lat="42.92316" lon="1.19886">
        <ele>803</ele>
        <time>2026-06-23T07:08:51.000Z</time>
      </trkpt>
      <trkpt lat="42.92319" lon="1.19884">
        <ele>803</ele>
        <time>2026-06-23T07:08:52.000Z</time>
      </trkpt>
      <trkpt lat="42.92321" lon="1.19882">
        <ele>803</ele>
        <time>2026-06-23T07:08:53.000Z</time>
      </trkpt>
      <trkpt lat="42.92324" lon="1.19881">
        <ele>804</ele>
        <time>2026-06-23T07:08:54.000Z</time>
      </trkpt>
      <trkpt lat="42.92326" lon="1.1988">
        <ele>804</ele>
        <time>2026-06-23T07:08:55.000Z</time>
      </trkpt>
      <trkpt lat="42.92329" lon="1.1988">
        <ele>804</ele>
        <time>2026-06-23T07:08:56.000Z</time>
      </trkpt>
      <trkpt lat="42.92332" lon="1.19879">
        <ele>803</ele>
        <time>2026-06-23T07:08:57.000Z</time>
      </trkpt>
      <trkpt lat="42.92335" lon="1.19878">
        <ele>803</ele>
        <time>2026-06-23T07:08:58.000Z</time>
      </trkpt>
      <trkpt lat="42.92337" lon="1.19878">
        <ele>803</ele>
        <time>2026-06-23T07:08:59.000Z</time>
      </trkpt>
      <trkpt lat="42.9234" lon="1.19877">
        <ele>803</ele>
        <time>2026-06-23T07:09:00.000Z</time>
      </trkpt>
      <trkpt lat="42.92343" lon="1.19876">
        <ele>803</ele>
        <time>2026-06-23T07:09:01.000Z</time>
      </trkpt>
      <trkpt lat="42.92346" lon="1.19874">
        <ele>803</ele>
        <time>2026-06-23T07:09:02.000Z</time>
      </trkpt>
      <trkpt lat="42.92349" lon="1.19873">
        <ele>803</ele>
        <time>2026-06-23T07:09:03.000Z</time>
      </trkpt>
      <trkpt lat="42.92351" lon="1.19873">
        <ele>803</ele>
        <time>2026-06-23T07:09:04.000Z</time>
      </trkpt>
      <trkpt lat="42.92354" lon="1.19872">
        <ele>803</ele>
        <time>2026-06-23T07:09:05.000Z</time>
      </trkpt>
      <trkpt lat="42.92356" lon="1.1987">
        <ele>803</ele>
        <time>2026-06-23T07:09:06.000Z</time>
      </trkpt>
      <trkpt lat="42.92359" lon="1.19868">
        <ele>802</ele>
        <time>2026-06-23T07:09:07.000Z</time>
      </trkpt>
      <trkpt lat="42.92361" lon="1.19866">
        <ele>802</ele>
        <time>2026-06-23T07:09:08.000Z</time>
      </trkpt>
      <trkpt lat="42.92364" lon="1.19865">
        <ele>802</ele>
        <time>2026-06-23T07:09:09.000Z</time>
      </trkpt>
      <trkpt lat="42.92366" lon="1.19863">
        <ele>802</ele>
        <time>2026-06-23T07:09:10.000Z</time>
      </trkpt>
      <trkpt lat="42.92369" lon="1.19863">
        <ele>802</ele>
        <time>2026-06-23T07:09:11.000Z</time>
      </trkpt>
      <trkpt lat="42.9237" lon="1.19861">
        <ele>802</ele>
        <time>2026-06-23T07:09:12.000Z</time>
      </trkpt>
      <trkpt lat="42.92371" lon="1.19859">
        <ele>802</ele>
        <time>2026-06-23T07:09:13.000Z</time>
      </trkpt>
      <trkpt lat="42.92374" lon="1.19857">
        <ele>801</ele>
        <time>2026-06-23T07:09:14.000Z</time>
      </trkpt>
      <trkpt lat="42.92375" lon="1.19855">
        <ele>801</ele>
        <time>2026-06-23T07:09:15.000Z</time>
      </trkpt>
      <trkpt lat="42.92377" lon="1.19853">
        <ele>801</ele>
        <time>2026-06-23T07:09:16.000Z</time>
      </trkpt>
      <trkpt lat="42.92379" lon="1.19852">
        <ele>801</ele>
        <time>2026-06-23T07:09:17.000Z</time>
      </trkpt>
      <trkpt lat="42.92381" lon="1.1985">
        <ele>801</ele>
        <time>2026-06-23T07:09:18.000Z</time>
      </trkpt>
      <trkpt lat="42.92383" lon="1.19849">
        <ele>802</ele>
        <time>2026-06-23T07:09:19.000Z</time>
      </trkpt>
      <trkpt lat="42.92386" lon="1.19847">
        <ele>802</ele>
        <time>2026-06-23T07:09:20.000Z</time>
      </trkpt>
      <trkpt lat="42.92388" lon="1.19844">
        <ele>802</ele>
        <time>2026-06-23T07:09:21.000Z</time>
      </trkpt>
      <trkpt lat="42.92389" lon="1.19842">
        <ele>801</ele>
        <time>2026-06-23T07:09:22.000Z</time>
      </trkpt>
      <trkpt lat="42.92391" lon="1.19838">
        <ele>801</ele>
        <time>2026-06-23T07:09:23.000Z</time>
      </trkpt>
      <trkpt lat="42.92392" lon="1.19835">
        <ele>802</ele>
        <time>2026-06-23T07:09:24.000Z</time>
      </trkpt>
      <trkpt lat="42.92393" lon="1.19831">
        <ele>802</ele>
        <time>2026-06-23T07:09:25.000Z</time>
      </trkpt>
      <trkpt lat="42.92394" lon="1.19828">
        <ele>803</ele>
        <time>2026-06-23T07:09:26.000Z</time>
      </trkpt>
      <trkpt lat="42.92394" lon="1.19825">
        <ele>803</ele>
        <time>2026-06-23T07:09:27.000Z</time>
      </trkpt>
      <trkpt lat="42.92394" lon="1.19822">
        <ele>803</ele>
        <time>2026-06-23T07:09:28.000Z</time>
      </trkpt>
      <trkpt lat="42.92394" lon="1.1982">
        <ele>803</ele>
        <time>2026-06-23T07:09:29.000Z</time>
      </trkpt>
      <trkpt lat="42.92394" lon="1.19817">
        <ele>803</ele>
        <time>2026-06-23T07:09:30.000Z</time>
      </trkpt>
      <trkpt lat="42.92393" lon="1.19815">
        <ele>803</ele>
        <time>2026-06-23T07:09:31.000Z</time>
      </trkpt>
      <trkpt lat="42.92392" lon="1.19813">
        <ele>803</ele>
        <time>2026-06-23T07:09:32.000Z</time>
      </trkpt>
      <trkpt lat="42.92391" lon="1.1981">
        <ele>804</ele>
        <time>2026-06-23T07:09:33.000Z</time>
      </trkpt>
      <trkpt lat="42.9239" lon="1.19807">
        <ele>804</ele>
        <time>2026-06-23T07:09:34.000Z</time>
      </trkpt>
      <trkpt lat="42.9239" lon="1.19804">
        <ele>804</ele>
        <time>2026-06-23T07:09:35.000Z</time>
      </trkpt>
      <trkpt lat="42.92392" lon="1.19801">
        <ele>805</ele>
        <time>2026-06-23T07:09:36.000Z</time>
      </trkpt>
      <trkpt lat="42.92395" lon="1.19798">
        <ele>805</ele>
        <time>2026-06-23T07:09:37.000Z</time>
      </trkpt>
      <trkpt lat="42.92396" lon="1.19795">
        <ele>805</ele>
        <time>2026-06-23T07:09:38.000Z</time>
      </trkpt>
      <trkpt lat="42.92397" lon="1.19792">
        <ele>805</ele>
        <time>2026-06-23T07:09:39.000Z</time>
      </trkpt>
      <trkpt lat="42.92399" lon="1.19789">
        <ele>806</ele>
        <time>2026-06-23T07:09:40.000Z</time>
      </trkpt>
      <trkpt lat="42.92401" lon="1.19787">
        <ele>806</ele>
        <time>2026-06-23T07:09:41.000Z</time>
      </trkpt>
      <trkpt lat="42.92402" lon="1.19786">
        <ele>806</ele>
        <time>2026-06-23T07:09:42.000Z</time>
      </trkpt>
      <trkpt lat="42.92404" lon="1.19784">
        <ele>806</ele>
        <time>2026-06-23T07:09:43.000Z</time>
      </trkpt>
      <trkpt lat="42.92405" lon="1.19784">
        <ele>806</ele>
        <time>2026-06-23T07:09:44.000Z</time>
      </trkpt>
      <trkpt lat="42.92407" lon="1.19782">
        <ele>806</ele>
        <time>2026-06-23T07:09:45.000Z</time>
      </trkpt>
      <trkpt lat="42.92409" lon="1.19782">
        <ele>807</ele>
        <time>2026-06-23T07:09:46.000Z</time>
      </trkpt>
      <trkpt lat="42.92411" lon="1.1978">
        <ele>807</ele>
        <time>2026-06-23T07:09:47.000Z</time>
      </trkpt>
      <trkpt lat="42.92413" lon="1.19779">
        <ele>807</ele>
        <time>2026-06-23T07:09:48.000Z</time>
      </trkpt>
      <trkpt lat="42.92415" lon="1.19777">
        <ele>808</ele>
        <time>2026-06-23T07:09:49.000Z</time>
      </trkpt>
      <trkpt lat="42.92416" lon="1.19775">
        <ele>808</ele>
        <time>2026-06-23T07:09:50.000Z</time>
      </trkpt>
      <trkpt lat="42.92418" lon="1.19775">
        <ele>808</ele>
        <time>2026-06-23T07:09:51.000Z</time>
      </trkpt>
      <trkpt lat="42.9242" lon="1.19774">
        <ele>809</ele>
        <time>2026-06-23T07:09:52.000Z</time>
      </trkpt>
      <trkpt lat="42.92421" lon="1.19772">
        <ele>809</ele>
        <time>2026-06-23T07:09:53.000Z</time>
      </trkpt>
      <trkpt lat="42.92423" lon="1.19769">
        <ele>809</ele>
        <time>2026-06-23T07:09:54.000Z</time>
      </trkpt>
      <trkpt lat="42.92424" lon="1.19768">
        <ele>809</ele>
        <time>2026-06-23T07:09:55.000Z</time>
      </trkpt>
      <trkpt lat="42.92426" lon="1.19767">
        <ele>809</ele>
        <time>2026-06-23T07:09:56.000Z</time>
      </trkpt>
      <trkpt lat="42.92427" lon="1.19767">
        <ele>809</ele>
        <time>2026-06-23T07:09:57.000Z</time>
      </trkpt>
      <trkpt lat="42.92427" lon="1.19767">
        <ele>809</ele>
        <time>2026-06-23T07:09:58.000Z</time>
      </trkpt>
      <trkpt lat="42.92426" lon="1.19768">
        <ele>810</ele>
        <time>2026-06-23T07:09:59.000Z</time>
      </trkpt>
      <trkpt lat="42.92425" lon="1.19769">
        <ele>811</ele>
        <time>2026-06-23T07:10:00.000Z</time>
      </trkpt>
      <trkpt lat="42.92425" lon="1.19772">
        <ele>813</ele>
        <time>2026-06-23T07:10:01.000Z</time>
      </trkpt>
      <trkpt lat="42.92424" lon="1.19773">
        <ele>814</ele>
        <time>2026-06-23T07:10:02.000Z</time>
      </trkpt>
      <trkpt lat="42.92424" lon="1.19775">
        <ele>815</ele>
        <time>2026-06-23T07:10:03.000Z</time>
      </trkpt>
      <trkpt lat="42.92423" lon="1.19777">
        <ele>817</ele>
        <time>2026-06-23T07:10:04.000Z</time>
      </trkpt>
      <trkpt lat="42.92423" lon="1.19778">
        <ele>817</ele>
        <time>2026-06-23T07:10:05.000Z</time>
      </trkpt>
      <trkpt lat="42.92423" lon="1.1978">
        <ele>818</ele>
        <time>2026-06-23T07:10:06.000Z</time>
      </trkpt>
      <trkpt lat="42.92423" lon="1.19782">
        <ele>819</ele>
        <time>2026-06-23T07:10:07.000Z</time>
      </trkpt>
      <trkpt lat="42.92422" lon="1.19785">
        <ele>820</ele>
        <time>2026-06-23T07:10:08.000Z</time>
      </trkpt>
      <trkpt lat="42.92422" lon="1.19787">
        <ele>820</ele>
        <time>2026-06-23T07:10:09.000Z</time>
      </trkpt>
      <trkpt lat="42.92422" lon="1.19789">
        <ele>821</ele>
        <time>2026-06-23T07:10:10.000Z</time>
      </trkpt>
      <trkpt lat="42.92423" lon="1.19791">
        <ele>821</ele>
        <time>2026-06-23T07:10:11.000Z</time>
      </trkpt>
      <trkpt lat="42.92423" lon="1.19792">
        <ele>822</ele>
        <time>2026-06-23T07:10:12.000Z</time>
      </trkpt>
      <trkpt lat="42.92423" lon="1.19793">
        <ele>822</ele>
        <time>2026-06-23T07:10:13.000Z</time>
      </trkpt>
      <trkpt lat="42.92423" lon="1.19794">
        <ele>822</ele>
        <time>2026-06-23T07:10:14.000Z</time>
      </trkpt>
      <trkpt lat="42.92424" lon="1.19795">
        <ele>823</ele>
        <time>2026-06-23T07:10:15.000Z</time>
      </trkpt>
      <trkpt lat="42.92425" lon="1.19795">
        <ele>823</ele>
        <time>2026-06-23T07:10:16.000Z</time>
      </trkpt>
      <trkpt lat="42.92426" lon="1.19797">
        <ele>822</ele>
        <time>2026-06-23T07:10:17.000Z</time>
      </trkpt>
      <trkpt lat="42.92427" lon="1.19798">
        <ele>822</ele>
        <time>2026-06-23T07:10:18.000Z</time>
      </trkpt>
      <trkpt lat="42.92428" lon="1.19798">
        <ele>823</ele>
        <time>2026-06-23T07:10:19.000Z</time>
      </trkpt>
      <trkpt lat="42.92429" lon="1.198">
        <ele>823</ele>
        <time>2026-06-23T07:10:20.000Z</time>
      </trkpt>
      <trkpt lat="42.9243" lon="1.19801">
        <ele>823</ele>
        <time>2026-06-23T07:10:21.000Z</time>
      </trkpt>
      <trkpt lat="42.92432" lon="1.19802">
        <ele>823</ele>
        <time>2026-06-23T07:10:22.000Z</time>
      </trkpt>
      <trkpt lat="42.92435" lon="1.19802">
        <ele>823</ele>
        <time>2026-06-23T07:10:23.000Z</time>
      </trkpt>
      <trkpt lat="42.92437" lon="1.19801">
        <ele>824</ele>
        <time>2026-06-23T07:10:24.000Z</time>
      </trkpt>
      <trkpt lat="42.92438" lon="1.19798">
        <ele>825</ele>
        <time>2026-06-23T07:10:25.000Z</time>
      </trkpt>
      <trkpt lat="42.92439" lon="1.19796">
        <ele>826</ele>
        <time>2026-06-23T07:10:26.000Z</time>
      </trkpt>
      <trkpt lat="42.9244" lon="1.19793">
        <ele>827</ele>
        <time>2026-06-23T07:10:27.000Z</time>
      </trkpt>
      <trkpt lat="42.9244" lon="1.1979">
        <ele>828</ele>
        <time>2026-06-23T07:10:28.000Z</time>
      </trkpt>
      <trkpt lat="42.92441" lon="1.19786">
        <ele>829</ele>
        <time>2026-06-23T07:10:29.000Z</time>
      </trkpt>
      <trkpt lat="42.92441" lon="1.19782">
        <ele>830</ele>
        <time>2026-06-23T07:10:30.000Z</time>
      </trkpt>
      <trkpt lat="42.92443" lon="1.19778">
        <ele>831</ele>
        <time>2026-06-23T07:10:31.000Z</time>
      </trkpt>
      <trkpt lat="42.92444" lon="1.19773">
        <ele>832</ele>
        <time>2026-06-23T07:10:32.000Z</time>
      </trkpt>
      <trkpt lat="42.92445" lon="1.19768">
        <ele>833</ele>
        <time>2026-06-23T07:10:33.000Z</time>
      </trkpt>
      <trkpt lat="42.92447" lon="1.19763">
        <ele>833</ele>
        <time>2026-06-23T07:10:34.000Z</time>
      </trkpt>
      <trkpt lat="42.92449" lon="1.19757">
        <ele>835</ele>
        <time>2026-06-23T07:10:35.000Z</time>
      </trkpt>
      <trkpt lat="42.92451" lon="1.19752">
        <ele>837</ele>
        <time>2026-06-23T07:10:36.000Z</time>
      </trkpt>
      <trkpt lat="42.92453" lon="1.19748">
        <ele>839</ele>
        <time>2026-06-23T07:10:37.000Z</time>
      </trkpt>
      <trkpt lat="42.92456" lon="1.19744">
        <ele>839</ele>
        <time>2026-06-23T07:10:38.000Z</time>
      </trkpt>
      <trkpt lat="42.9246" lon="1.19741">
        <ele>839</ele>
        <time>2026-06-23T07:10:39.000Z</time>
      </trkpt>
      <trkpt lat="42.92463" lon="1.19738">
        <ele>840</ele>
        <time>2026-06-23T07:10:40.000Z</time>
      </trkpt>
      <trkpt lat="42.92466" lon="1.19736">
        <ele>840</ele>
        <time>2026-06-23T07:10:41.000Z</time>
      </trkpt>
      <trkpt lat="42.92469" lon="1.19734">
        <ele>840</ele>
        <time>2026-06-23T07:10:42.000Z</time>
      </trkpt>
      <trkpt lat="42.92472" lon="1.19733">
        <ele>840</ele>
        <time>2026-06-23T07:10:43.000Z</time>
      </trkpt>
      <trkpt lat="42.92475" lon="1.19733">
        <ele>840</ele>
        <time>2026-06-23T07:10:44.000Z</time>
      </trkpt>
      <trkpt lat="42.92479" lon="1.19732">
        <ele>841</ele>
        <time>2026-06-23T07:10:45.000Z</time>
      </trkpt>
      <trkpt lat="42.92482" lon="1.1973">
        <ele>841</ele>
        <time>2026-06-23T07:10:46.000Z</time>
      </trkpt>
      <trkpt lat="42.92485" lon="1.19729">
        <ele>841</ele>
        <time>2026-06-23T07:10:47.000Z</time>
      </trkpt>
      <trkpt lat="42.92488" lon="1.19728">
        <ele>841</ele>
        <time>2026-06-23T07:10:48.000Z</time>
      </trkpt>
      <trkpt lat="42.92491" lon="1.19728">
        <ele>841</ele>
        <time>2026-06-23T07:10:49.000Z</time>
      </trkpt>
      <trkpt lat="42.92494" lon="1.19726">
        <ele>841</ele>
        <time>2026-06-23T07:10:50.000Z</time>
      </trkpt>
      <trkpt lat="42.92497" lon="1.19725">
        <ele>841</ele>
        <time>2026-06-23T07:10:51.000Z</time>
      </trkpt>
      <trkpt lat="42.92499" lon="1.19723">
        <ele>842</ele>
        <time>2026-06-23T07:10:52.000Z</time>
      </trkpt>
      <trkpt lat="42.92501" lon="1.19721">
        <ele>842</ele>
        <time>2026-06-23T07:10:53.000Z</time>
      </trkpt>
      <trkpt lat="42.92503" lon="1.19719">
        <ele>842</ele>
        <time>2026-06-23T07:10:54.000Z</time>
      </trkpt>
      <trkpt lat="42.92505" lon="1.19717">
        <ele>842</ele>
        <time>2026-06-23T07:10:55.000Z</time>
      </trkpt>
      <trkpt lat="42.92507" lon="1.19714">
        <ele>843</ele>
        <time>2026-06-23T07:10:56.000Z</time>
      </trkpt>
      <trkpt lat="42.92509" lon="1.19712">
        <ele>843</ele>
        <time>2026-06-23T07:10:57.000Z</time>
      </trkpt>
      <trkpt lat="42.9251" lon="1.19709">
        <ele>843</ele>
        <time>2026-06-23T07:10:58.000Z</time>
      </trkpt>
      <trkpt lat="42.92511" lon="1.19705">
        <ele>843</ele>
        <time>2026-06-23T07:10:59.000Z</time>
      </trkpt>
      <trkpt lat="42.92511" lon="1.19701">
        <ele>843</ele>
        <time>2026-06-23T07:11:00.000Z</time>
      </trkpt>
      <trkpt lat="42.92511" lon="1.19696">
        <ele>843</ele>
        <time>2026-06-23T07:11:01.000Z</time>
      </trkpt>
      <trkpt lat="42.92511" lon="1.19692">
        <ele>843</ele>
        <time>2026-06-23T07:11:02.000Z</time>
      </trkpt>
      <trkpt lat="42.9251" lon="1.19689">
        <ele>843</ele>
        <time>2026-06-23T07:11:03.000Z</time>
      </trkpt>
      <trkpt lat="42.92508" lon="1.19684">
        <ele>844</ele>
        <time>2026-06-23T07:11:04.000Z</time>
      </trkpt>
      <trkpt lat="42.92506" lon="1.1968">
        <ele>843</ele>
        <time>2026-06-23T07:11:05.000Z</time>
      </trkpt>
      <trkpt lat="42.92503" lon="1.19676">
        <ele>843</ele>
        <time>2026-06-23T07:11:06.000Z</time>
      </trkpt>
      <trkpt lat="42.925" lon="1.19671">
        <ele>843</ele>
        <time>2026-06-23T07:11:07.000Z</time>
      </trkpt>
      <trkpt lat="42.92497" lon="1.19665">
        <ele>843</ele>
        <time>2026-06-23T07:11:08.000Z</time>
      </trkpt>
      <trkpt lat="42.92494" lon="1.19658">
        <ele>843</ele>
        <time>2026-06-23T07:11:09.000Z</time>
      </trkpt>
      <trkpt lat="42.92493" lon="1.1965">
        <ele>845</ele>
        <time>2026-06-23T07:11:10.000Z</time>
      </trkpt>
      <trkpt lat="42.92494" lon="1.19643">
        <ele>845</ele>
        <time>2026-06-23T07:11:11.000Z</time>
      </trkpt>
      <trkpt lat="42.92496" lon="1.19637">
        <ele>846</ele>
        <time>2026-06-23T07:11:12.000Z</time>
      </trkpt>
      <trkpt lat="42.92499" lon="1.19632">
        <ele>847</ele>
        <time>2026-06-23T07:11:13.000Z</time>
      </trkpt>
      <trkpt lat="42.92502" lon="1.19627">
        <ele>848</ele>
        <time>2026-06-23T07:11:14.000Z</time>
      </trkpt>
      <trkpt lat="42.92505" lon="1.19621">
        <ele>848</ele>
        <time>2026-06-23T07:11:15.000Z</time>
      </trkpt>
      <trkpt lat="42.92508" lon="1.19617">
        <ele>848</ele>
        <time>2026-06-23T07:11:16.000Z</time>
      </trkpt>
      <trkpt lat="42.92511" lon="1.19612">
        <ele>850</ele>
        <time>2026-06-23T07:11:17.000Z</time>
      </trkpt>
      <trkpt lat="42.92514" lon="1.19608">
        <ele>850</ele>
        <time>2026-06-23T07:11:18.000Z</time>
      </trkpt>
      <trkpt lat="42.92516" lon="1.19603">
        <ele>850</ele>
        <time>2026-06-23T07:11:19.000Z</time>
      </trkpt>
      <trkpt lat="42.92518" lon="1.19598">
        <ele>849</ele>
        <time>2026-06-23T07:11:20.000Z</time>
      </trkpt>
      <trkpt lat="42.9252" lon="1.19592">
        <ele>850</ele>
        <time>2026-06-23T07:11:21.000Z</time>
      </trkpt>
      <trkpt lat="42.92522" lon="1.19586">
        <ele>850</ele>
        <time>2026-06-23T07:11:22.000Z</time>
      </trkpt>
      <trkpt lat="42.92522" lon="1.19578">
        <ele>850</ele>
        <time>2026-06-23T07:11:23.000Z</time>
      </trkpt>
      <trkpt lat="42.92522" lon="1.19572">
        <ele>850</ele>
        <time>2026-06-23T07:11:24.000Z</time>
      </trkpt>
      <trkpt lat="42.92522" lon="1.19566">
        <ele>851</ele>
        <time>2026-06-23T07:11:25.000Z</time>
      </trkpt>
      <trkpt lat="42.92522" lon="1.19561">
        <ele>851</ele>
        <time>2026-06-23T07:11:26.000Z</time>
      </trkpt>
      <trkpt lat="42.92523" lon="1.19558">
        <ele>850</ele>
        <time>2026-06-23T07:11:27.000Z</time>
      </trkpt>
      <trkpt lat="42.92524" lon="1.19557">
        <ele>850</ele>
        <time>2026-06-23T07:11:28.000Z</time>
      </trkpt>
      <trkpt lat="42.92524" lon="1.19557">
        <ele>850</ele>
        <time>2026-06-23T07:11:29.000Z</time>
      </trkpt>
      <trkpt lat="42.92525" lon="1.19558">
        <ele>850</ele>
        <time>2026-06-23T07:11:30.000Z</time>
      </trkpt>
      <trkpt lat="42.92524" lon="1.19556">
        <ele>849</ele>
        <time>2026-06-23T07:11:31.000Z</time>
      </trkpt>
      <trkpt lat="42.92525" lon="1.19555">
        <ele>849</ele>
        <time>2026-06-23T07:11:32.000Z</time>
      </trkpt>
      <trkpt lat="42.92525" lon="1.19555">
        <ele>849</ele>
        <time>2026-06-23T07:11:33.000Z</time>
      </trkpt>
      <trkpt lat="42.92524" lon="1.19556">
        <ele>848</ele>
        <time>2026-06-23T07:11:34.000Z</time>
      </trkpt>
      <trkpt lat="42.92524" lon="1.19558">
        <ele>848</ele>
        <time>2026-06-23T07:11:35.000Z</time>
      </trkpt>
      <trkpt lat="42.92523" lon="1.19562">
        <ele>848</ele>
        <time>2026-06-23T07:11:36.000Z</time>
      </trkpt>
      <trkpt lat="42.92523" lon="1.19566">
        <ele>849</ele>
        <time>2026-06-23T07:11:37.000Z</time>
      </trkpt>
      <trkpt lat="42.92522" lon="1.19571">
        <ele>850</ele>
        <time>2026-06-23T07:11:38.000Z</time>
      </trkpt>
      <trkpt lat="42.92522" lon="1.19576">
        <ele>851</ele>
        <time>2026-06-23T07:11:39.000Z</time>
      </trkpt>
      <trkpt lat="42.92522" lon="1.19581">
        <ele>851</ele>
        <time>2026-06-23T07:11:40.000Z</time>
      </trkpt>
      <trkpt lat="42.92523" lon="1.19585">
        <ele>852</ele>
        <time>2026-06-23T07:11:41.000Z</time>
      </trkpt>
      <trkpt lat="42.92523" lon="1.1959">
        <ele>852</ele>
        <time>2026-06-23T07:11:42.000Z</time>
      </trkpt>
      <trkpt lat="42.92524" lon="1.19595">
        <ele>853</ele>
        <time>2026-06-23T07:11:43.000Z</time>
      </trkpt>
      <trkpt lat="42.92523" lon="1.196">
        <ele>853</ele>
        <time>2026-06-23T07:11:44.000Z</time>
      </trkpt>
      <trkpt lat="42.92522" lon="1.19609">
        <ele>856</ele>
        <time>2026-06-23T07:11:45.000Z</time>
      </trkpt>
      <trkpt lat="42.9252" lon="1.19616">
        <ele>857</ele>
        <time>2026-06-23T07:11:46.000Z</time>
      </trkpt>
      <trkpt lat="42.92519" lon="1.19623">
        <ele>859</ele>
        <time>2026-06-23T07:11:47.000Z</time>
      </trkpt>
      <trkpt lat="42.92517" lon="1.19627">
        <ele>860</ele>
        <time>2026-06-23T07:11:48.000Z</time>
      </trkpt>
      <trkpt lat="42.92515" lon="1.1963">
        <ele>860</ele>
        <time>2026-06-23T07:11:49.000Z</time>
      </trkpt>
      <trkpt lat="42.92514" lon="1.19635">
        <ele>860</ele>
        <time>2026-06-23T07:11:50.000Z</time>
      </trkpt>
      <trkpt lat="42.92514" lon="1.19638">
        <ele>860</ele>
        <time>2026-06-23T07:11:51.000Z</time>
      </trkpt>
      <trkpt lat="42.92513" lon="1.19641">
        <ele>860</ele>
        <time>2026-06-23T07:11:52.000Z</time>
      </trkpt>
      <trkpt lat="42.92513" lon="1.19645">
        <ele>860</ele>
        <time>2026-06-23T07:11:53.000Z</time>
      </trkpt>
      <trkpt lat="42.92515" lon="1.19648">
        <ele>862</ele>
        <time>2026-06-23T07:11:54.000Z</time>
      </trkpt>
      <trkpt lat="42.92516" lon="1.19651">
        <ele>863</ele>
        <time>2026-06-23T07:11:55.000Z</time>
      </trkpt>
      <trkpt lat="42.92518" lon="1.19657">
        <ele>863</ele>
        <time>2026-06-23T07:11:56.000Z</time>
      </trkpt>
      <trkpt lat="42.92519" lon="1.19662">
        <ele>863</ele>
        <time>2026-06-23T07:11:57.000Z</time>
      </trkpt>
      <trkpt lat="42.92521" lon="1.19665">
        <ele>864</ele>
        <time>2026-06-23T07:11:58.000Z</time>
      </trkpt>
      <trkpt lat="42.92523" lon="1.19668">
        <ele>864</ele>
        <time>2026-06-23T07:11:59.000Z</time>
      </trkpt>
      <trkpt lat="42.92524" lon="1.19671">
        <ele>864</ele>
        <time>2026-06-23T07:12:00.000Z</time>
      </trkpt>
      <trkpt lat="42.92525" lon="1.19674">
        <ele>865</ele>
        <time>2026-06-23T07:12:01.000Z</time>
      </trkpt>
      <trkpt lat="42.92526" lon="1.19678">
        <ele>865</ele>
        <time>2026-06-23T07:12:02.000Z</time>
      </trkpt>
      <trkpt lat="42.92527" lon="1.19681">
        <ele>866</ele>
        <time>2026-06-23T07:12:03.000Z</time>
      </trkpt>
      <trkpt lat="42.92528" lon="1.19685">
        <ele>866</ele>
        <time>2026-06-23T07:12:04.000Z</time>
      </trkpt>
      <trkpt lat="42.92528" lon="1.19689">
        <ele>866</ele>
        <time>2026-06-23T07:12:05.000Z</time>
      </trkpt>
      <trkpt lat="42.92528" lon="1.19694">
        <ele>867</ele>
        <time>2026-06-23T07:12:06.000Z</time>
      </trkpt>
      <trkpt lat="42.92528" lon="1.19699">
        <ele>868</ele>
        <time>2026-06-23T07:12:07.000Z</time>
      </trkpt>
      <trkpt lat="42.92529" lon="1.19703">
        <ele>868</ele>
        <time>2026-06-23T07:12:08.000Z</time>
      </trkpt>
      <trkpt lat="42.92529" lon="1.19708">
        <ele>869</ele>
        <time>2026-06-23T07:12:09.000Z</time>
      </trkpt>
      <trkpt lat="42.92529" lon="1.19712">
        <ele>869</ele>
        <time>2026-06-23T07:12:10.000Z</time>
      </trkpt>
      <trkpt lat="42.9253" lon="1.19716">
        <ele>869</ele>
        <time>2026-06-23T07:12:11.000Z</time>
      </trkpt>
      <trkpt lat="42.92529" lon="1.1972">
        <ele>870</ele>
        <time>2026-06-23T07:12:12.000Z</time>
      </trkpt>
      <trkpt lat="42.9253" lon="1.19723">
        <ele>871</ele>
        <time>2026-06-23T07:12:13.000Z</time>
      </trkpt>
      <trkpt lat="42.9253" lon="1.19728">
        <ele>871</ele>
        <time>2026-06-23T07:12:14.000Z</time>
      </trkpt>
      <trkpt lat="42.92531" lon="1.19732">
        <ele>871</ele>
        <time>2026-06-23T07:12:15.000Z</time>
      </trkpt>
      <trkpt lat="42.92531" lon="1.19736">
        <ele>871</ele>
        <time>2026-06-23T07:12:16.000Z</time>
      </trkpt>
      <trkpt lat="42.92531" lon="1.19741">
        <ele>871</ele>
        <time>2026-06-23T07:12:17.000Z</time>
      </trkpt>
      <trkpt lat="42.9253" lon="1.19744">
        <ele>872</ele>
        <time>2026-06-23T07:12:18.000Z</time>
      </trkpt>
      <trkpt lat="42.92529" lon="1.19749">
        <ele>872</ele>
        <time>2026-06-23T07:12:19.000Z</time>
      </trkpt>
      <trkpt lat="42.92528" lon="1.19753">
        <ele>872</ele>
        <time>2026-06-23T07:12:20.000Z</time>
      </trkpt>
      <trkpt lat="42.92526" lon="1.19757">
        <ele>872</ele>
        <time>2026-06-23T07:12:21.000Z</time>
      </trkpt>
      <trkpt lat="42.92524" lon="1.1976">
        <ele>873</ele>
        <time>2026-06-23T07:12:22.000Z</time>
      </trkpt>
      <trkpt lat="42.92521" lon="1.19764">
        <ele>873</ele>
        <time>2026-06-23T07:12:23.000Z</time>
      </trkpt>
      <trkpt lat="42.92519" lon="1.19767">
        <ele>873</ele>
        <time>2026-06-23T07:12:24.000Z</time>
      </trkpt>
      <trkpt lat="42.92516" lon="1.19771">
        <ele>874</ele>
        <time>2026-06-23T07:12:25.000Z</time>
      </trkpt>
      <trkpt lat="42.92514" lon="1.19774">
        <ele>874</ele>
        <time>2026-06-23T07:12:26.000Z</time>
      </trkpt>
      <trkpt lat="42.92513" lon="1.19778">
        <ele>875</ele>
        <time>2026-06-23T07:12:27.000Z</time>
      </trkpt>
      <trkpt lat="42.92511" lon="1.19782">
        <ele>876</ele>
        <time>2026-06-23T07:12:28.000Z</time>
      </trkpt>
      <trkpt lat="42.92509" lon="1.19786">
        <ele>876</ele>
        <time>2026-06-23T07:12:29.000Z</time>
      </trkpt>
      <trkpt lat="42.92508" lon="1.1979">
        <ele>876</ele>
        <time>2026-06-23T07:12:30.000Z</time>
      </trkpt>
      <trkpt lat="42.92506" lon="1.19794">
        <ele>876</ele>
        <time>2026-06-23T07:12:31.000Z</time>
      </trkpt>
      <trkpt lat="42.92505" lon="1.19797">
        <ele>876</ele>
        <time>2026-06-23T07:12:32.000Z</time>
      </trkpt>
      <trkpt lat="42.92503" lon="1.198">
        <ele>877</ele>
        <time>2026-06-23T07:12:33.000Z</time>
      </trkpt>
      <trkpt lat="42.92502" lon="1.19803">
        <ele>877</ele>
        <time>2026-06-23T07:12:34.000Z</time>
      </trkpt>
      <trkpt lat="42.92502" lon="1.19807">
        <ele>877</ele>
        <time>2026-06-23T07:12:35.000Z</time>
      </trkpt>
      <trkpt lat="42.92501" lon="1.19812">
        <ele>877</ele>
        <time>2026-06-23T07:12:36.000Z</time>
      </trkpt>
      <trkpt lat="42.925" lon="1.19815">
        <ele>877</ele>
        <time>2026-06-23T07:12:37.000Z</time>
      </trkpt>
      <trkpt lat="42.92499" lon="1.19819">
        <ele>878</ele>
        <time>2026-06-23T07:12:38.000Z</time>
      </trkpt>
      <trkpt lat="42.92499" lon="1.19823">
        <ele>878</ele>
        <time>2026-06-23T07:12:39.000Z</time>
      </trkpt>
      <trkpt lat="42.92499" lon="1.19826">
        <ele>879</ele>
        <time>2026-06-23T07:12:40.000Z</time>
      </trkpt>
      <trkpt lat="42.92499" lon="1.19829">
        <ele>880</ele>
        <time>2026-06-23T07:12:41.000Z</time>
      </trkpt>
      <trkpt lat="42.925" lon="1.19832">
        <ele>880</ele>
        <time>2026-06-23T07:12:42.000Z</time>
      </trkpt>
      <trkpt lat="42.925" lon="1.19836">
        <ele>880</ele>
        <time>2026-06-23T07:12:43.000Z</time>
      </trkpt>
      <trkpt lat="42.92501" lon="1.19839">
        <ele>880</ele>
        <time>2026-06-23T07:12:44.000Z</time>
      </trkpt>
      <trkpt lat="42.92501" lon="1.19843">
        <ele>881</ele>
        <time>2026-06-23T07:12:45.000Z</time>
      </trkpt>
      <trkpt lat="42.925" lon="1.19846">
        <ele>882</ele>
        <time>2026-06-23T07:12:46.000Z</time>
      </trkpt>
      <trkpt lat="42.925" lon="1.19849">
        <ele>882</ele>
        <time>2026-06-23T07:12:47.000Z</time>
      </trkpt>
      <trkpt lat="42.92499" lon="1.19853">
        <ele>883</ele>
        <time>2026-06-23T07:12:48.000Z</time>
      </trkpt>
      <trkpt lat="42.92499" lon="1.19856">
        <ele>884</ele>
        <time>2026-06-23T07:12:49.000Z</time>
      </trkpt>
      <trkpt lat="42.92499" lon="1.19859">
        <ele>884</ele>
        <time>2026-06-23T07:12:50.000Z</time>
      </trkpt>
      <trkpt lat="42.92498" lon="1.19862">
        <ele>884</ele>
        <time>2026-06-23T07:12:51.000Z</time>
      </trkpt>
      <trkpt lat="42.92499" lon="1.19865">
        <ele>884</ele>
        <time>2026-06-23T07:12:52.000Z</time>
      </trkpt>
      <trkpt lat="42.92499" lon="1.19868">
        <ele>885</ele>
        <time>2026-06-23T07:12:53.000Z</time>
      </trkpt>
      <trkpt lat="42.925" lon="1.19871">
        <ele>885</ele>
        <time>2026-06-23T07:12:54.000Z</time>
      </trkpt>
      <trkpt lat="42.92501" lon="1.19873">
        <ele>885</ele>
        <time>2026-06-23T07:12:55.000Z</time>
      </trkpt>
      <trkpt lat="42.92501" lon="1.19877">
        <ele>885</ele>
        <time>2026-06-23T07:12:56.000Z</time>
      </trkpt>
      <trkpt lat="42.92502" lon="1.19881">
        <ele>885</ele>
        <time>2026-06-23T07:12:57.000Z</time>
      </trkpt>
      <trkpt lat="42.92503" lon="1.19884">
        <ele>886</ele>
        <time>2026-06-23T07:12:58.000Z</time>
      </trkpt>
      <trkpt lat="42.92504" lon="1.19887">
        <ele>886</ele>
        <time>2026-06-23T07:12:59.000Z</time>
      </trkpt>
      <trkpt lat="42.92505" lon="1.1989">
        <ele>887</ele>
        <time>2026-06-23T07:13:00.000Z</time>
      </trkpt>
      <trkpt lat="42.92506" lon="1.19892">
        <ele>888</ele>
        <time>2026-06-23T07:13:01.000Z</time>
      </trkpt>
      <trkpt lat="42.92506" lon="1.19895">
        <ele>888</ele>
        <time>2026-06-23T07:13:02.000Z</time>
      </trkpt>
      <trkpt lat="42.92506" lon="1.19897">
        <ele>888</ele>
        <time>2026-06-23T07:13:03.000Z</time>
      </trkpt>
      <trkpt lat="42.92507" lon="1.19898">
        <ele>889</ele>
        <time>2026-06-23T07:13:04.000Z</time>
      </trkpt>
      <trkpt lat="42.92508" lon="1.19901">
        <ele>889</ele>
        <time>2026-06-23T07:13:05.000Z</time>
      </trkpt>
      <trkpt lat="42.92509" lon="1.19904">
        <ele>888</ele>
        <time>2026-06-23T07:13:06.000Z</time>
      </trkpt>
      <trkpt lat="42.9251" lon="1.19906">
        <ele>889</ele>
        <time>2026-06-23T07:13:07.000Z</time>
      </trkpt>
      <trkpt lat="42.92512" lon="1.19909">
        <ele>889</ele>
        <time>2026-06-23T07:13:08.000Z</time>
      </trkpt>
      <trkpt lat="42.92514" lon="1.19911">
        <ele>889</ele>
        <time>2026-06-23T07:13:09.000Z</time>
      </trkpt>
      <trkpt lat="42.92516" lon="1.19913">
        <ele>889</ele>
        <time>2026-06-23T07:13:10.000Z</time>
      </trkpt>
      <trkpt lat="42.92518" lon="1.19916">
        <ele>888</ele>
        <time>2026-06-23T07:13:11.000Z</time>
      </trkpt>
      <trkpt lat="42.9252" lon="1.19918">
        <ele>888</ele>
        <time>2026-06-23T07:13:12.000Z</time>
      </trkpt>
      <trkpt lat="42.92521" lon="1.19921">
        <ele>888</ele>
        <time>2026-06-23T07:13:13.000Z</time>
      </trkpt>
      <trkpt lat="42.92523" lon="1.19923">
        <ele>888</ele>
        <time>2026-06-23T07:13:14.000Z</time>
      </trkpt>
      <trkpt lat="42.92523" lon="1.19926">
        <ele>888</ele>
        <time>2026-06-23T07:13:15.000Z</time>
      </trkpt>
      <trkpt lat="42.92524" lon="1.19928">
        <ele>889</ele>
        <time>2026-06-23T07:13:16.000Z</time>
      </trkpt>
      <trkpt lat="42.92525" lon="1.19931">
        <ele>889</ele>
        <time>2026-06-23T07:13:17.000Z</time>
      </trkpt>
      <trkpt lat="42.92526" lon="1.19935">
        <ele>889</ele>
        <time>2026-06-23T07:13:18.000Z</time>
      </trkpt>
      <trkpt lat="42.92527" lon="1.19938">
        <ele>889</ele>
        <time>2026-06-23T07:13:19.000Z</time>
      </trkpt>
      <trkpt lat="42.92528" lon="1.19942">
        <ele>889</ele>
        <time>2026-06-23T07:13:20.000Z</time>
      </trkpt>
      <trkpt lat="42.92528" lon="1.19945">
        <ele>888</ele>
        <time>2026-06-23T07:13:21.000Z</time>
      </trkpt>
      <trkpt lat="42.92529" lon="1.19949">
        <ele>889</ele>
        <time>2026-06-23T07:13:22.000Z</time>
      </trkpt>
      <trkpt lat="42.9253" lon="1.19952">
        <ele>889</ele>
        <time>2026-06-23T07:13:23.000Z</time>
      </trkpt>
      <trkpt lat="42.92531" lon="1.19954">
        <ele>891</ele>
        <time>2026-06-23T07:13:24.000Z</time>
      </trkpt>
      <trkpt lat="42.92531" lon="1.19957">
        <ele>891</ele>
        <time>2026-06-23T07:13:25.000Z</time>
      </trkpt>
      <trkpt lat="42.9253" lon="1.1996">
        <ele>892</ele>
        <time>2026-06-23T07:13:26.000Z</time>
      </trkpt>
      <trkpt lat="42.9253" lon="1.19963">
        <ele>893</ele>
        <time>2026-06-23T07:13:27.000Z</time>
      </trkpt>
      <trkpt lat="42.9253" lon="1.19965">
        <ele>894</ele>
        <time>2026-06-23T07:13:28.000Z</time>
      </trkpt>
      <trkpt lat="42.9253" lon="1.19966">
        <ele>894</ele>
        <time>2026-06-23T07:13:29.000Z</time>
      </trkpt>
      <trkpt lat="42.9253" lon="1.1997">
        <ele>895</ele>
        <time>2026-06-23T07:13:30.000Z</time>
      </trkpt>
      <trkpt lat="42.92529" lon="1.19973">
        <ele>896</ele>
        <time>2026-06-23T07:13:31.000Z</time>
      </trkpt>
      <trkpt lat="42.92528" lon="1.19976">
        <ele>896</ele>
        <time>2026-06-23T07:13:32.000Z</time>
      </trkpt>
      <trkpt lat="42.92527" lon="1.19978">
        <ele>898</ele>
        <time>2026-06-23T07:13:33.000Z</time>
      </trkpt>
      <trkpt lat="42.92525" lon="1.19981">
        <ele>898</ele>
        <time>2026-06-23T07:13:34.000Z</time>
      </trkpt>
      <trkpt lat="42.92523" lon="1.19984">
        <ele>899</ele>
        <time>2026-06-23T07:13:35.000Z</time>
      </trkpt>
      <trkpt lat="42.92522" lon="1.19986">
        <ele>901</ele>
        <time>2026-06-23T07:13:36.000Z</time>
      </trkpt>
      <trkpt lat="42.92519" lon="1.19988">
        <ele>902</ele>
        <time>2026-06-23T07:13:37.000Z</time>
      </trkpt>
      <trkpt lat="42.92517" lon="1.19989">
        <ele>903</ele>
        <time>2026-06-23T07:13:38.000Z</time>
      </trkpt>
      <trkpt lat="42.92514" lon="1.1999">
        <ele>904</ele>
        <time>2026-06-23T07:13:39.000Z</time>
      </trkpt>
      <trkpt lat="42.92512" lon="1.19992">
        <ele>904</ele>
        <time>2026-06-23T07:13:40.000Z</time>
      </trkpt>
      <trkpt lat="42.9251" lon="1.19994">
        <ele>905</ele>
        <time>2026-06-23T07:13:41.000Z</time>
      </trkpt>
      <trkpt lat="42.92508" lon="1.19996">
        <ele>906</ele>
        <time>2026-06-23T07:13:42.000Z</time>
      </trkpt>
      <trkpt lat="42.92506" lon="1.19999">
        <ele>907</ele>
        <time>2026-06-23T07:13:43.000Z</time>
      </trkpt>
      <trkpt lat="42.92503" lon="1.19999">
        <ele>908</ele>
        <time>2026-06-23T07:13:44.000Z</time>
      </trkpt>
      <trkpt lat="42.92502" lon="1.20002">
        <ele>909</ele>
        <time>2026-06-23T07:13:45.000Z</time>
      </trkpt>
      <trkpt lat="42.925" lon="1.20004">
        <ele>910</ele>
        <time>2026-06-23T07:13:46.000Z</time>
      </trkpt>
      <trkpt lat="42.92498" lon="1.20007">
        <ele>910</ele>
        <time>2026-06-23T07:13:47.000Z</time>
      </trkpt>
      <trkpt lat="42.92496" lon="1.20009">
        <ele>910</ele>
        <time>2026-06-23T07:13:48.000Z</time>
      </trkpt>
      <trkpt lat="42.92494" lon="1.20012">
        <ele>910</ele>
        <time>2026-06-23T07:13:49.000Z</time>
      </trkpt>
      <trkpt lat="42.92492" lon="1.20015">
        <ele>910</ele>
        <time>2026-06-23T07:13:50.000Z</time>
      </trkpt>
      <trkpt lat="42.92491" lon="1.20018">
        <ele>910</ele>
        <time>2026-06-23T07:13:51.000Z</time>
      </trkpt>
      <trkpt lat="42.92489" lon="1.2002">
        <ele>910</ele>
        <time>2026-06-23T07:13:52.000Z</time>
      </trkpt>
      <trkpt lat="42.92488" lon="1.20023">
        <ele>911</ele>
        <time>2026-06-23T07:13:53.000Z</time>
      </trkpt>
      <trkpt lat="42.92487" lon="1.20026">
        <ele>911</ele>
        <time>2026-06-23T07:13:54.000Z</time>
      </trkpt>
      <trkpt lat="42.92485" lon="1.20029">
        <ele>911</ele>
        <time>2026-06-23T07:13:55.000Z</time>
      </trkpt>
      <trkpt lat="42.92484" lon="1.20033">
        <ele>911</ele>
        <time>2026-06-23T07:13:56.000Z</time>
      </trkpt>
      <trkpt lat="42.92482" lon="1.20036">
        <ele>912</ele>
        <time>2026-06-23T07:13:57.000Z</time>
      </trkpt>
      <trkpt lat="42.9248" lon="1.2004">
        <ele>911</ele>
        <time>2026-06-23T07:13:58.000Z</time>
      </trkpt>
      <trkpt lat="42.92477" lon="1.20045">
        <ele>911</ele>
        <time>2026-06-23T07:13:59.000Z</time>
      </trkpt>
      <trkpt lat="42.92474" lon="1.20054">
        <ele>912</ele>
        <time>2026-06-23T07:14:00.000Z</time>
      </trkpt>
      <trkpt lat="42.92472" lon="1.20062">
        <ele>912</ele>
        <time>2026-06-23T07:14:01.000Z</time>
      </trkpt>
      <trkpt lat="42.92468" lon="1.20067">
        <ele>912</ele>
        <time>2026-06-23T07:14:02.000Z</time>
      </trkpt>
      <trkpt lat="42.92464" lon="1.20074">
        <ele>910</ele>
        <time>2026-06-23T07:14:03.000Z</time>
      </trkpt>
      <trkpt lat="42.92459" lon="1.20081">
        <ele>910</ele>
        <time>2026-06-23T07:14:04.000Z</time>
      </trkpt>
      <trkpt lat="42.92454" lon="1.20089">
        <ele>910</ele>
        <time>2026-06-23T07:14:05.000Z</time>
      </trkpt>
      <trkpt lat="42.92449" lon="1.20095">
        <ele>909</ele>
        <time>2026-06-23T07:14:06.000Z</time>
      </trkpt>
      <trkpt lat="42.92444" lon="1.20101">
        <ele>908</ele>
        <time>2026-06-23T07:14:07.000Z</time>
      </trkpt>
      <trkpt lat="42.92438" lon="1.20106">
        <ele>908</ele>
        <time>2026-06-23T07:14:08.000Z</time>
      </trkpt>
      <trkpt lat="42.92434" lon="1.20111">
        <ele>907</ele>
        <time>2026-06-23T07:14:09.000Z</time>
      </trkpt>
      <trkpt lat="42.9243" lon="1.20115">
        <ele>907</ele>
        <time>2026-06-23T07:14:10.000Z</time>
      </trkpt>
      <trkpt lat="42.92426" lon="1.20119">
        <ele>907</ele>
        <time>2026-06-23T07:14:11.000Z</time>
      </trkpt>
      <trkpt lat="42.92422" lon="1.2012">
        <ele>907</ele>
        <time>2026-06-23T07:14:12.000Z</time>
      </trkpt>
      <trkpt lat="42.92419" lon="1.20122">
        <ele>908</ele>
        <time>2026-06-23T07:14:13.000Z</time>
      </trkpt>
      <trkpt lat="42.92416" lon="1.20124">
        <ele>908</ele>
        <time>2026-06-23T07:14:14.000Z</time>
      </trkpt>
      <trkpt lat="42.92412" lon="1.20125">
        <ele>908</ele>
        <time>2026-06-23T07:14:15.000Z</time>
      </trkpt>
      <trkpt lat="42.92409" lon="1.20128">
        <ele>908</ele>
        <time>2026-06-23T07:14:16.000Z</time>
      </trkpt>
      <trkpt lat="42.92405" lon="1.20131">
        <ele>909</ele>
        <time>2026-06-23T07:14:17.000Z</time>
      </trkpt>
      <trkpt lat="42.92402" lon="1.20138">
        <ele>908</ele>
        <time>2026-06-23T07:14:18.000Z</time>
      </trkpt>
      <trkpt lat="42.92401" lon="1.20143">
        <ele>908</ele>
        <time>2026-06-23T07:14:19.000Z</time>
      </trkpt>
      <trkpt lat="42.92403" lon="1.20147">
        <ele>908</ele>
        <time>2026-06-23T07:14:20.000Z</time>
      </trkpt>
      <trkpt lat="42.92404" lon="1.20151">
        <ele>908</ele>
        <time>2026-06-23T07:14:21.000Z</time>
      </trkpt>
      <trkpt lat="42.92404" lon="1.20154">
        <ele>907</ele>
        <time>2026-06-23T07:14:22.000Z</time>
      </trkpt>
      <trkpt lat="42.92405" lon="1.20157">
        <ele>907</ele>
        <time>2026-06-23T07:14:23.000Z</time>
      </trkpt>
      <trkpt lat="42.92407" lon="1.2016">
        <ele>907</ele>
        <time>2026-06-23T07:14:24.000Z</time>
      </trkpt>
      <trkpt lat="42.92408" lon="1.20164">
        <ele>907</ele>
        <time>2026-06-23T07:14:25.000Z</time>
      </trkpt>
      <trkpt lat="42.92409" lon="1.20166">
        <ele>907</ele>
        <time>2026-06-23T07:14:26.000Z</time>
      </trkpt>
      <trkpt lat="42.92411" lon="1.20169">
        <ele>907</ele>
        <time>2026-06-23T07:14:27.000Z</time>
      </trkpt>
      <trkpt lat="42.92412" lon="1.20172">
        <ele>907</ele>
        <time>2026-06-23T07:14:28.000Z</time>
      </trkpt>
      <trkpt lat="42.92413" lon="1.20175">
        <ele>907</ele>
        <time>2026-06-23T07:14:29.000Z</time>
      </trkpt>
      <trkpt lat="42.92414" lon="1.20178">
        <ele>908</ele>
        <time>2026-06-23T07:14:30.000Z</time>
      </trkpt>
      <trkpt lat="42.92415" lon="1.20181">
        <ele>908</ele>
        <time>2026-06-23T07:14:31.000Z</time>
      </trkpt>
      <trkpt lat="42.92416" lon="1.20184">
        <ele>908</ele>
        <time>2026-06-23T07:14:32.000Z</time>
      </trkpt>
      <trkpt lat="42.92417" lon="1.20187">
        <ele>908</ele>
        <time>2026-06-23T07:14:33.000Z</time>
      </trkpt>
      <trkpt lat="42.92418" lon="1.20189">
        <ele>907</ele>
        <time>2026-06-23T07:14:34.000Z</time>
      </trkpt>
      <trkpt lat="42.92419" lon="1.20193">
        <ele>907</ele>
        <time>2026-06-23T07:14:35.000Z</time>
      </trkpt>
      <trkpt lat="42.92419" lon="1.20196">
        <ele>907</ele>
        <time>2026-06-23T07:14:36.000Z</time>
      </trkpt>
      <trkpt lat="42.92419" lon="1.202">
        <ele>908</ele>
        <time>2026-06-23T07:14:37.000Z</time>
      </trkpt>
      <trkpt lat="42.92418" lon="1.20205">
        <ele>908</ele>
        <time>2026-06-23T07:14:38.000Z</time>
      </trkpt>
      <trkpt lat="42.92418" lon="1.20209">
        <ele>909</ele>
        <time>2026-06-23T07:14:39.000Z</time>
      </trkpt>
      <trkpt lat="42.92418" lon="1.20215">
        <ele>910</ele>
        <time>2026-06-23T07:14:40.000Z</time>
      </trkpt>
      <trkpt lat="42.92418" lon="1.20218">
        <ele>910</ele>
        <time>2026-06-23T07:14:41.000Z</time>
      </trkpt>
      <trkpt lat="42.92417" lon="1.20222">
        <ele>911</ele>
        <time>2026-06-23T07:14:42.000Z</time>
      </trkpt>
      <trkpt lat="42.92417" lon="1.20227">
        <ele>911</ele>
        <time>2026-06-23T07:14:43.000Z</time>
      </trkpt>
      <trkpt lat="42.92417" lon="1.20231">
        <ele>911</ele>
        <time>2026-06-23T07:14:44.000Z</time>
      </trkpt>
      <trkpt lat="42.92416" lon="1.20234">
        <ele>911</ele>
        <time>2026-06-23T07:14:45.000Z</time>
      </trkpt>
      <trkpt lat="42.92414" lon="1.20237">
        <ele>910</ele>
        <time>2026-06-23T07:14:46.000Z</time>
      </trkpt>
      <trkpt lat="42.92414" lon="1.20241">
        <ele>910</ele>
        <time>2026-06-23T07:14:47.000Z</time>
      </trkpt>
      <trkpt lat="42.92413" lon="1.20244">
        <ele>911</ele>
        <time>2026-06-23T07:14:48.000Z</time>
      </trkpt>
      <trkpt lat="42.92413" lon="1.20246">
        <ele>910</ele>
        <time>2026-06-23T07:14:49.000Z</time>
      </trkpt>
      <trkpt lat="42.92412" lon="1.2025">
        <ele>911</ele>
        <time>2026-06-23T07:14:50.000Z</time>
      </trkpt>
      <trkpt lat="42.92411" lon="1.20253">
        <ele>911</ele>
        <time>2026-06-23T07:14:51.000Z</time>
      </trkpt>
      <trkpt lat="42.9241" lon="1.20256">
        <ele>911</ele>
        <time>2026-06-23T07:14:52.000Z</time>
      </trkpt>
      <trkpt lat="42.92409" lon="1.2026">
        <ele>911</ele>
        <time>2026-06-23T07:14:53.000Z</time>
      </trkpt>
      <trkpt lat="42.92408" lon="1.20264">
        <ele>911</ele>
        <time>2026-06-23T07:14:54.000Z</time>
      </trkpt>
      <trkpt lat="42.92407" lon="1.20267">
        <ele>911</ele>
        <time>2026-06-23T07:14:55.000Z</time>
      </trkpt>
      <trkpt lat="42.92407" lon="1.2027">
        <ele>912</ele>
        <time>2026-06-23T07:14:56.000Z</time>
      </trkpt>
      <trkpt lat="42.92406" lon="1.20274">
        <ele>912</ele>
        <time>2026-06-23T07:14:57.000Z</time>
      </trkpt>
      <trkpt lat="42.92406" lon="1.20278">
        <ele>913</ele>
        <time>2026-06-23T07:14:58.000Z</time>
      </trkpt>
      <trkpt lat="42.92406" lon="1.20283">
        <ele>912</ele>
        <time>2026-06-23T07:14:59.000Z</time>
      </trkpt>
      <trkpt lat="42.92406" lon="1.20287">
        <ele>912</ele>
        <time>2026-06-23T07:15:00.000Z</time>
      </trkpt>
      <trkpt lat="42.92407" lon="1.20291">
        <ele>913</ele>
        <time>2026-06-23T07:15:01.000Z</time>
      </trkpt>
      <trkpt lat="42.92407" lon="1.20294">
        <ele>913</ele>
        <time>2026-06-23T07:15:02.000Z</time>
      </trkpt>
      <trkpt lat="42.92408" lon="1.20299">
        <ele>913</ele>
        <time>2026-06-23T07:15:03.000Z</time>
      </trkpt>
      <trkpt lat="42.92409" lon="1.20302">
        <ele>913</ele>
        <time>2026-06-23T07:15:04.000Z</time>
      </trkpt>
      <trkpt lat="42.92409" lon="1.20306">
        <ele>913</ele>
        <time>2026-06-23T07:15:05.000Z</time>
      </trkpt>
      <trkpt lat="42.92411" lon="1.20309">
        <ele>912</ele>
        <time>2026-06-23T07:15:06.000Z</time>
      </trkpt>
      <trkpt lat="42.92412" lon="1.20312">
        <ele>911</ele>
        <time>2026-06-23T07:15:07.000Z</time>
      </trkpt>
      <trkpt lat="42.92414" lon="1.20315">
        <ele>911</ele>
        <time>2026-06-23T07:15:08.000Z</time>
      </trkpt>
      <trkpt lat="42.92416" lon="1.20317">
        <ele>911</ele>
        <time>2026-06-23T07:15:09.000Z</time>
      </trkpt>
      <trkpt lat="42.92418" lon="1.20319">
        <ele>911</ele>
        <time>2026-06-23T07:15:10.000Z</time>
      </trkpt>
      <trkpt lat="42.9242" lon="1.20322">
        <ele>910</ele>
        <time>2026-06-23T07:15:11.000Z</time>
      </trkpt>
      <trkpt lat="42.92422" lon="1.20325">
        <ele>909</ele>
        <time>2026-06-23T07:15:12.000Z</time>
      </trkpt>
      <trkpt lat="42.92423" lon="1.20328">
        <ele>909</ele>
        <time>2026-06-23T07:15:13.000Z</time>
      </trkpt>
      <trkpt lat="42.92425" lon="1.20331">
        <ele>908</ele>
        <time>2026-06-23T07:15:14.000Z</time>
      </trkpt>
      <trkpt lat="42.92427" lon="1.20334">
        <ele>908</ele>
        <time>2026-06-23T07:15:15.000Z</time>
      </trkpt>
      <trkpt lat="42.92429" lon="1.20336">
        <ele>908</ele>
        <time>2026-06-23T07:15:16.000Z</time>
      </trkpt>
      <trkpt lat="42.92431" lon="1.20339">
        <ele>908</ele>
        <time>2026-06-23T07:15:17.000Z</time>
      </trkpt>
      <trkpt lat="42.92433" lon="1.2034">
        <ele>908</ele>
        <time>2026-06-23T07:15:18.000Z</time>
      </trkpt>
      <trkpt lat="42.92435" lon="1.2034">
        <ele>909</ele>
        <time>2026-06-23T07:15:19.000Z</time>
      </trkpt>
      <trkpt lat="42.92437" lon="1.20341">
        <ele>909</ele>
        <time>2026-06-23T07:15:20.000Z</time>
      </trkpt>
      <trkpt lat="42.92439" lon="1.20343">
        <ele>910</ele>
        <time>2026-06-23T07:15:21.000Z</time>
      </trkpt>
      <trkpt lat="42.92441" lon="1.20345">
        <ele>911</ele>
        <time>2026-06-23T07:15:22.000Z</time>
      </trkpt>
      <trkpt lat="42.92443" lon="1.20348">
        <ele>912</ele>
        <time>2026-06-23T07:15:23.000Z</time>
      </trkpt>
      <trkpt lat="42.92445" lon="1.20349">
        <ele>912</ele>
        <time>2026-06-23T07:15:24.000Z</time>
      </trkpt>
      <trkpt lat="42.92447" lon="1.20351">
        <ele>912</ele>
        <time>2026-06-23T07:15:25.000Z</time>
      </trkpt>
      <trkpt lat="42.92449" lon="1.20351">
        <ele>912</ele>
        <time>2026-06-23T07:15:26.000Z</time>
      </trkpt>
      <trkpt lat="42.92451" lon="1.20352">
        <ele>912</ele>
        <time>2026-06-23T07:15:27.000Z</time>
      </trkpt>
      <trkpt lat="42.92454" lon="1.20351">
        <ele>911</ele>
        <time>2026-06-23T07:15:28.000Z</time>
      </trkpt>
      <trkpt lat="42.92456" lon="1.2035">
        <ele>911</ele>
        <time>2026-06-23T07:15:29.000Z</time>
      </trkpt>
      <trkpt lat="42.92458" lon="1.20349">
        <ele>911</ele>
        <time>2026-06-23T07:15:30.000Z</time>
      </trkpt>
      <trkpt lat="42.9246" lon="1.20348">
        <ele>910</ele>
        <time>2026-06-23T07:15:31.000Z</time>
      </trkpt>
      <trkpt lat="42.92462" lon="1.20347">
        <ele>910</ele>
        <time>2026-06-23T07:15:32.000Z</time>
      </trkpt>
      <trkpt lat="42.92464" lon="1.20345">
        <ele>909</ele>
        <time>2026-06-23T07:15:33.000Z</time>
      </trkpt>
      <trkpt lat="42.92466" lon="1.20344">
        <ele>910</ele>
        <time>2026-06-23T07:15:34.000Z</time>
      </trkpt>
      <trkpt lat="42.92468" lon="1.20344">
        <ele>909</ele>
        <time>2026-06-23T07:15:35.000Z</time>
      </trkpt>
      <trkpt lat="42.92469" lon="1.20343">
        <ele>910</ele>
        <time>2026-06-23T07:15:36.000Z</time>
      </trkpt>
      <trkpt lat="42.92471" lon="1.20343">
        <ele>910</ele>
        <time>2026-06-23T07:15:37.000Z</time>
      </trkpt>
      <trkpt lat="42.92473" lon="1.20343">
        <ele>910</ele>
        <time>2026-06-23T07:15:38.000Z</time>
      </trkpt>
      <trkpt lat="42.92474" lon="1.20342">
        <ele>910</ele>
        <time>2026-06-23T07:15:39.000Z</time>
      </trkpt>
      <trkpt lat="42.92476" lon="1.20341">
        <ele>910</ele>
        <time>2026-06-23T07:15:40.000Z</time>
      </trkpt>
      <trkpt lat="42.92478" lon="1.20341">
        <ele>911</ele>
        <time>2026-06-23T07:15:41.000Z</time>
      </trkpt>
      <trkpt lat="42.92479" lon="1.2034">
        <ele>911</ele>
        <time>2026-06-23T07:15:42.000Z</time>
      </trkpt>
      <trkpt lat="42.92481" lon="1.20339">
        <ele>912</ele>
        <time>2026-06-23T07:15:43.000Z</time>
      </trkpt>
      <trkpt lat="42.92483" lon="1.20337">
        <ele>912</ele>
        <time>2026-06-23T07:15:44.000Z</time>
      </trkpt>
      <trkpt lat="42.92485" lon="1.20335">
        <ele>913</ele>
        <time>2026-06-23T07:15:45.000Z</time>
      </trkpt>
      <trkpt lat="42.92486" lon="1.20334">
        <ele>913</ele>
        <time>2026-06-23T07:15:46.000Z</time>
      </trkpt>
      <trkpt lat="42.92487" lon="1.20333">
        <ele>914</ele>
        <time>2026-06-23T07:15:47.000Z</time>
      </trkpt>
      <trkpt lat="42.92488" lon="1.20332">
        <ele>914</ele>
        <time>2026-06-23T07:15:48.000Z</time>
      </trkpt>
      <trkpt lat="42.92489" lon="1.20331">
        <ele>915</ele>
        <time>2026-06-23T07:15:49.000Z</time>
      </trkpt>
      <trkpt lat="42.9249" lon="1.2033">
        <ele>915</ele>
        <time>2026-06-23T07:15:50.000Z</time>
      </trkpt>
      <trkpt lat="42.92492" lon="1.20329">
        <ele>915</ele>
        <time>2026-06-23T07:15:51.000Z</time>
      </trkpt>
      <trkpt lat="42.92493" lon="1.20328">
        <ele>915</ele>
        <time>2026-06-23T07:15:52.000Z</time>
      </trkpt>
      <trkpt lat="42.92494" lon="1.20328">
        <ele>915</ele>
        <time>2026-06-23T07:15:53.000Z</time>
      </trkpt>
      <trkpt lat="42.92495" lon="1.20327">
        <ele>915</ele>
        <time>2026-06-23T07:15:54.000Z</time>
      </trkpt>
      <trkpt lat="42.92497" lon="1.20326">
        <ele>916</ele>
        <time>2026-06-23T07:15:55.000Z</time>
      </trkpt>
      <trkpt lat="42.92498" lon="1.20325">
        <ele>916</ele>
        <time>2026-06-23T07:15:56.000Z</time>
      </trkpt>
      <trkpt lat="42.925" lon="1.20324">
        <ele>915</ele>
        <time>2026-06-23T07:15:57.000Z</time>
      </trkpt>
      <trkpt lat="42.92502" lon="1.20322">
        <ele>915</ele>
        <time>2026-06-23T07:15:58.000Z</time>
      </trkpt>
      <trkpt lat="42.92503" lon="1.2032">
        <ele>915</ele>
        <time>2026-06-23T07:15:59.000Z</time>
      </trkpt>
      <trkpt lat="42.92504" lon="1.20319">
        <ele>915</ele>
        <time>2026-06-23T07:16:00.000Z</time>
      </trkpt>
      <trkpt lat="42.92505" lon="1.20319">
        <ele>915</ele>
        <time>2026-06-23T07:16:01.000Z</time>
      </trkpt>
      <trkpt lat="42.92506" lon="1.20319">
        <ele>916</ele>
        <time>2026-06-23T07:16:02.000Z</time>
      </trkpt>
      <trkpt lat="42.92507" lon="1.20319">
        <ele>916</ele>
        <time>2026-06-23T07:16:03.000Z</time>
      </trkpt>
      <trkpt lat="42.92509" lon="1.2032">
        <ele>917</ele>
        <time>2026-06-23T07:16:04.000Z</time>
      </trkpt>
      <trkpt lat="42.9251" lon="1.20322">
        <ele>918</ele>
        <time>2026-06-23T07:16:05.000Z</time>
      </trkpt>
      <trkpt lat="42.92512" lon="1.20323">
        <ele>918</ele>
        <time>2026-06-23T07:16:06.000Z</time>
      </trkpt>
      <trkpt lat="42.92513" lon="1.20323">
        <ele>919</ele>
        <time>2026-06-23T07:16:07.000Z</time>
      </trkpt>
      <trkpt lat="42.92513" lon="1.20324">
        <ele>919</ele>
        <time>2026-06-23T07:16:08.000Z</time>
      </trkpt>
      <trkpt lat="42.92515" lon="1.20325">
        <ele>919</ele>
        <time>2026-06-23T07:16:09.000Z</time>
      </trkpt>
      <trkpt lat="42.92516" lon="1.20326">
        <ele>920</ele>
        <time>2026-06-23T07:16:10.000Z</time>
      </trkpt>
      <trkpt lat="42.92516" lon="1.20326">
        <ele>920</ele>
        <time>2026-06-23T07:16:11.000Z</time>
      </trkpt>
      <trkpt lat="42.92518" lon="1.20326">
        <ele>920</ele>
        <time>2026-06-23T07:16:12.000Z</time>
      </trkpt>
      <trkpt lat="42.9252" lon="1.20325">
        <ele>920</ele>
        <time>2026-06-23T07:16:13.000Z</time>
      </trkpt>
      <trkpt lat="42.92522" lon="1.20326">
        <ele>921</ele>
        <time>2026-06-23T07:16:14.000Z</time>
      </trkpt>
      <trkpt lat="42.92524" lon="1.20328">
        <ele>921</ele>
        <time>2026-06-23T07:16:15.000Z</time>
      </trkpt>
      <trkpt lat="42.92525" lon="1.20329">
        <ele>922</ele>
        <time>2026-06-23T07:16:16.000Z</time>
      </trkpt>
      <trkpt lat="42.92526" lon="1.2033">
        <ele>922</ele>
        <time>2026-06-23T07:16:17.000Z</time>
      </trkpt>
      <trkpt lat="42.92527" lon="1.20331">
        <ele>922</ele>
        <time>2026-06-23T07:16:18.000Z</time>
      </trkpt>
      <trkpt lat="42.92529" lon="1.20331">
        <ele>922</ele>
        <time>2026-06-23T07:16:19.000Z</time>
      </trkpt>
      <trkpt lat="42.92531" lon="1.2033">
        <ele>922</ele>
        <time>2026-06-23T07:16:20.000Z</time>
      </trkpt>
      <trkpt lat="42.92533" lon="1.20329">
        <ele>923</ele>
        <time>2026-06-23T07:16:21.000Z</time>
      </trkpt>
      <trkpt lat="42.92535" lon="1.20328">
        <ele>923</ele>
        <time>2026-06-23T07:16:22.000Z</time>
      </trkpt>
      <trkpt lat="42.92538" lon="1.20326">
        <ele>923</ele>
        <time>2026-06-23T07:16:23.000Z</time>
      </trkpt>
      <trkpt lat="42.9254" lon="1.20326">
        <ele>924</ele>
        <time>2026-06-23T07:16:24.000Z</time>
      </trkpt>
      <trkpt lat="42.92543" lon="1.20326">
        <ele>924</ele>
        <time>2026-06-23T07:16:25.000Z</time>
      </trkpt>
      <trkpt lat="42.92545" lon="1.20327">
        <ele>924</ele>
        <time>2026-06-23T07:16:26.000Z</time>
      </trkpt>
      <trkpt lat="42.92547" lon="1.20327">
        <ele>925</ele>
        <time>2026-06-23T07:16:27.000Z</time>
      </trkpt>
      <trkpt lat="42.92549" lon="1.20327">
        <ele>925</ele>
        <time>2026-06-23T07:16:28.000Z</time>
      </trkpt>
      <trkpt lat="42.92551" lon="1.20327">
        <ele>924</ele>
        <time>2026-06-23T07:16:29.000Z</time>
      </trkpt>
      <trkpt lat="42.92553" lon="1.20327">
        <ele>925</ele>
        <time>2026-06-23T07:16:30.000Z</time>
      </trkpt>
      <trkpt lat="42.92555" lon="1.20326">
        <ele>924</ele>
        <time>2026-06-23T07:16:31.000Z</time>
      </trkpt>
      <trkpt lat="42.92556" lon="1.20325">
        <ele>924</ele>
        <time>2026-06-23T07:16:32.000Z</time>
      </trkpt>
      <trkpt lat="42.92559" lon="1.20325">
        <ele>925</ele>
        <time>2026-06-23T07:16:33.000Z</time>
      </trkpt>
      <trkpt lat="42.9256" lon="1.20325">
        <ele>925</ele>
        <time>2026-06-23T07:16:34.000Z</time>
      </trkpt>
      <trkpt lat="42.92562" lon="1.20325">
        <ele>926</ele>
        <time>2026-06-23T07:16:35.000Z</time>
      </trkpt>
      <trkpt lat="42.92564" lon="1.20324">
        <ele>926</ele>
        <time>2026-06-23T07:16:36.000Z</time>
      </trkpt>
      <trkpt lat="42.92565" lon="1.20325">
        <ele>926</ele>
        <time>2026-06-23T07:16:37.000Z</time>
      </trkpt>
      <trkpt lat="42.92567" lon="1.20324">
        <ele>926</ele>
        <time>2026-06-23T07:16:38.000Z</time>
      </trkpt>
      <trkpt lat="42.92568" lon="1.20324">
        <ele>927</ele>
        <time>2026-06-23T07:16:39.000Z</time>
      </trkpt>
      <trkpt lat="42.9257" lon="1.20322">
        <ele>926</ele>
        <time>2026-06-23T07:16:40.000Z</time>
      </trkpt>
      <trkpt lat="42.92573" lon="1.20322">
        <ele>927</ele>
        <time>2026-06-23T07:16:41.000Z</time>
      </trkpt>
      <trkpt lat="42.92575" lon="1.20321">
        <ele>927</ele>
        <time>2026-06-23T07:16:42.000Z</time>
      </trkpt>
      <trkpt lat="42.92578" lon="1.20319">
        <ele>928</ele>
        <time>2026-06-23T07:16:43.000Z</time>
      </trkpt>
      <trkpt lat="42.9258" lon="1.20319">
        <ele>928</ele>
        <time>2026-06-23T07:16:44.000Z</time>
      </trkpt>
      <trkpt lat="42.92582" lon="1.20318">
        <ele>928</ele>
        <time>2026-06-23T07:16:45.000Z</time>
      </trkpt>
      <trkpt lat="42.92583" lon="1.20318">
        <ele>928</ele>
        <time>2026-06-23T07:16:46.000Z</time>
      </trkpt>
      <trkpt lat="42.92586" lon="1.20318">
        <ele>928</ele>
        <time>2026-06-23T07:16:47.000Z</time>
      </trkpt>
      <trkpt lat="42.92588" lon="1.20318">
        <ele>929</ele>
        <time>2026-06-23T07:16:48.000Z</time>
      </trkpt>
      <trkpt lat="42.9259" lon="1.20319">
        <ele>929</ele>
        <time>2026-06-23T07:16:49.000Z</time>
      </trkpt>
      <trkpt lat="42.92592" lon="1.20317">
        <ele>929</ele>
        <time>2026-06-23T07:16:50.000Z</time>
      </trkpt>
      <trkpt lat="42.92594" lon="1.20317">
        <ele>929</ele>
        <time>2026-06-23T07:16:51.000Z</time>
      </trkpt>
      <trkpt lat="42.92596" lon="1.20317">
        <ele>930</ele>
        <time>2026-06-23T07:16:52.000Z</time>
      </trkpt>
      <trkpt lat="42.92598" lon="1.20315">
        <ele>930</ele>
        <time>2026-06-23T07:16:53.000Z</time>
      </trkpt>
      <trkpt lat="42.926" lon="1.20313">
        <ele>930</ele>
        <time>2026-06-23T07:16:54.000Z</time>
      </trkpt>
      <trkpt lat="42.92602" lon="1.20311">
        <ele>930</ele>
        <time>2026-06-23T07:16:55.000Z</time>
      </trkpt>
      <trkpt lat="42.92604" lon="1.2031">
        <ele>930</ele>
        <time>2026-06-23T07:16:56.000Z</time>
      </trkpt>
      <trkpt lat="42.92605" lon="1.2031">
        <ele>930</ele>
        <time>2026-06-23T07:16:57.000Z</time>
      </trkpt>
      <trkpt lat="42.92607" lon="1.20309">
        <ele>931</ele>
        <time>2026-06-23T07:16:58.000Z</time>
      </trkpt>
      <trkpt lat="42.9261" lon="1.20308">
        <ele>932</ele>
        <time>2026-06-23T07:16:59.000Z</time>
      </trkpt>
      <trkpt lat="42.92613" lon="1.20308">
        <ele>932</ele>
        <time>2026-06-23T07:17:00.000Z</time>
      </trkpt>
      <trkpt lat="42.92616" lon="1.20309">
        <ele>932</ele>
        <time>2026-06-23T07:17:01.000Z</time>
      </trkpt>
      <trkpt lat="42.92618" lon="1.20309">
        <ele>932</ele>
        <time>2026-06-23T07:17:02.000Z</time>
      </trkpt>
      <trkpt lat="42.92619" lon="1.20309">
        <ele>932</ele>
        <time>2026-06-23T07:17:03.000Z</time>
      </trkpt>
      <trkpt lat="42.92622" lon="1.2031">
        <ele>933</ele>
        <time>2026-06-23T07:17:04.000Z</time>
      </trkpt>
      <trkpt lat="42.92624" lon="1.20309">
        <ele>933</ele>
        <time>2026-06-23T07:17:05.000Z</time>
      </trkpt>
      <trkpt lat="42.92626" lon="1.20308">
        <ele>933</ele>
        <time>2026-06-23T07:17:06.000Z</time>
      </trkpt>
      <trkpt lat="42.92627" lon="1.20309">
        <ele>933</ele>
        <time>2026-06-23T07:17:07.000Z</time>
      </trkpt>
      <trkpt lat="42.92627" lon="1.20309">
        <ele>933</ele>
        <time>2026-06-23T07:17:08.000Z</time>
      </trkpt>
      <trkpt lat="42.92628" lon="1.20309">
        <ele>932</ele>
        <time>2026-06-23T07:17:09.000Z</time>
      </trkpt>
      <trkpt lat="42.92629" lon="1.20308">
        <ele>933</ele>
        <time>2026-06-23T07:17:10.000Z</time>
      </trkpt>
      <trkpt lat="42.92631" lon="1.20309">
        <ele>933</ele>
        <time>2026-06-23T07:17:11.000Z</time>
      </trkpt>
      <trkpt lat="42.92633" lon="1.2031">
        <ele>934</ele>
        <time>2026-06-23T07:17:12.000Z</time>
      </trkpt>
      <trkpt lat="42.92635" lon="1.20311">
        <ele>934</ele>
        <time>2026-06-23T07:17:13.000Z</time>
      </trkpt>
      <trkpt lat="42.92636" lon="1.20311">
        <ele>933</ele>
        <time>2026-06-23T07:17:14.000Z</time>
      </trkpt>
      <trkpt lat="42.92638" lon="1.20312">
        <ele>934</ele>
        <time>2026-06-23T07:17:15.000Z</time>
      </trkpt>
      <trkpt lat="42.92639" lon="1.20313">
        <ele>934</ele>
        <time>2026-06-23T07:17:16.000Z</time>
      </trkpt>
      <trkpt lat="42.9264" lon="1.20314">
        <ele>934</ele>
        <time>2026-06-23T07:17:17.000Z</time>
      </trkpt>
      <trkpt lat="42.92641" lon="1.20315">
        <ele>934</ele>
        <time>2026-06-23T07:17:18.000Z</time>
      </trkpt>
      <trkpt lat="42.92644" lon="1.20315">
        <ele>934</ele>
        <time>2026-06-23T07:17:19.000Z</time>
      </trkpt>
      <trkpt lat="42.92646" lon="1.20315">
        <ele>934</ele>
        <time>2026-06-23T07:17:20.000Z</time>
      </trkpt>
      <trkpt lat="42.92648" lon="1.20314">
        <ele>934</ele>
        <time>2026-06-23T07:17:21.000Z</time>
      </trkpt>
      <trkpt lat="42.9265" lon="1.20313">
        <ele>934</ele>
        <time>2026-06-23T07:17:22.000Z</time>
      </trkpt>
      <trkpt lat="42.92653" lon="1.20313">
        <ele>934</ele>
        <time>2026-06-23T07:17:23.000Z</time>
      </trkpt>
      <trkpt lat="42.92655" lon="1.20314">
        <ele>933</ele>
        <time>2026-06-23T07:17:24.000Z</time>
      </trkpt>
      <trkpt lat="42.92657" lon="1.20315">
        <ele>933</ele>
        <time>2026-06-23T07:17:25.000Z</time>
      </trkpt>
      <trkpt lat="42.92659" lon="1.20317">
        <ele>933</ele>
        <time>2026-06-23T07:17:26.000Z</time>
      </trkpt>
      <trkpt lat="42.92662" lon="1.20319">
        <ele>934</ele>
        <time>2026-06-23T07:17:27.000Z</time>
      </trkpt>
      <trkpt lat="42.92664" lon="1.20321">
        <ele>933</ele>
        <time>2026-06-23T07:17:28.000Z</time>
      </trkpt>
      <trkpt lat="42.9267" lon="1.20323">
        <ele>935</ele>
        <time>2026-06-23T07:17:29.000Z</time>
      </trkpt>
      <trkpt lat="42.92672" lon="1.20325">
        <ele>935</ele>
        <time>2026-06-23T07:17:30.000Z</time>
      </trkpt>
      <trkpt lat="42.92675" lon="1.20327">
        <ele>935</ele>
        <time>2026-06-23T07:17:31.000Z</time>
      </trkpt>
      <trkpt lat="42.92677" lon="1.20329">
        <ele>935</ele>
        <time>2026-06-23T07:17:32.000Z</time>
      </trkpt>
      <trkpt lat="42.92679" lon="1.20333">
        <ele>936</ele>
        <time>2026-06-23T07:17:33.000Z</time>
      </trkpt>
      <trkpt lat="42.92681" lon="1.20335">
        <ele>936</ele>
        <time>2026-06-23T07:17:34.000Z</time>
      </trkpt>
      <trkpt lat="42.92682" lon="1.20337">
        <ele>936</ele>
        <time>2026-06-23T07:17:35.000Z</time>
      </trkpt>
      <trkpt lat="42.92684" lon="1.2034">
        <ele>936</ele>
        <time>2026-06-23T07:17:36.000Z</time>
      </trkpt>
      <trkpt lat="42.92686" lon="1.20343">
        <ele>936</ele>
        <time>2026-06-23T07:17:37.000Z</time>
      </trkpt>
      <trkpt lat="42.92687" lon="1.20347">
        <ele>936</ele>
        <time>2026-06-23T07:17:38.000Z</time>
      </trkpt>
      <trkpt lat="42.92692" lon="1.20349">
        <ele>939</ele>
        <time>2026-06-23T07:17:39.000Z</time>
      </trkpt>
      <trkpt lat="42.92693" lon="1.20354">
        <ele>939</ele>
        <time>2026-06-23T07:17:40.000Z</time>
      </trkpt>
      <trkpt lat="42.92696" lon="1.20358">
        <ele>938</ele>
        <time>2026-06-23T07:17:41.000Z</time>
      </trkpt>
      <trkpt lat="42.92697" lon="1.20361">
        <ele>938</ele>
        <time>2026-06-23T07:17:42.000Z</time>
      </trkpt>
      <trkpt lat="42.927" lon="1.20364">
        <ele>938</ele>
        <time>2026-06-23T07:17:43.000Z</time>
      </trkpt>
      <trkpt lat="42.92702" lon="1.20367">
        <ele>938</ele>
        <time>2026-06-23T07:17:44.000Z</time>
      </trkpt>
      <trkpt lat="42.92704" lon="1.20369">
        <ele>938</ele>
        <time>2026-06-23T07:17:45.000Z</time>
      </trkpt>
      <trkpt lat="42.92707" lon="1.2037">
        <ele>939</ele>
        <time>2026-06-23T07:17:46.000Z</time>
      </trkpt>
      <trkpt lat="42.92709" lon="1.20371">
        <ele>939</ele>
        <time>2026-06-23T07:17:47.000Z</time>
      </trkpt>
      <trkpt lat="42.92711" lon="1.20374">
        <ele>939</ele>
        <time>2026-06-23T07:17:48.000Z</time>
      </trkpt>
      <trkpt lat="42.92713" lon="1.20376">
        <ele>939</ele>
        <time>2026-06-23T07:17:49.000Z</time>
      </trkpt>
      <trkpt lat="42.92715" lon="1.20379">
        <ele>940</ele>
        <time>2026-06-23T07:17:50.000Z</time>
      </trkpt>
      <trkpt lat="42.92719" lon="1.2038">
        <ele>941</ele>
        <time>2026-06-23T07:17:51.000Z</time>
      </trkpt>
      <trkpt lat="42.92722" lon="1.20383">
        <ele>941</ele>
        <time>2026-06-23T07:17:52.000Z</time>
      </trkpt>
      <trkpt lat="42.92725" lon="1.20385">
        <ele>942</ele>
        <time>2026-06-23T07:17:53.000Z</time>
      </trkpt>
      <trkpt lat="42.92728" lon="1.20387">
        <ele>942</ele>
        <time>2026-06-23T07:17:54.000Z</time>
      </trkpt>
      <trkpt lat="42.92731" lon="1.20389">
        <ele>942</ele>
        <time>2026-06-23T07:17:55.000Z</time>
      </trkpt>
      <trkpt lat="42.92733" lon="1.20391">
        <ele>943</ele>
        <time>2026-06-23T07:17:56.000Z</time>
      </trkpt>
      <trkpt lat="42.92735" lon="1.20393">
        <ele>943</ele>
        <time>2026-06-23T07:17:57.000Z</time>
      </trkpt>
      <trkpt lat="42.92737" lon="1.20395">
        <ele>943</ele>
        <time>2026-06-23T07:17:58.000Z</time>
      </trkpt>
      <trkpt lat="42.92739" lon="1.20397">
        <ele>943</ele>
        <time>2026-06-23T07:17:59.000Z</time>
      </trkpt>
      <trkpt lat="42.92741" lon="1.20401">
        <ele>943</ele>
        <time>2026-06-23T07:18:00.000Z</time>
      </trkpt>
      <trkpt lat="42.92744" lon="1.20404">
        <ele>944</ele>
        <time>2026-06-23T07:18:01.000Z</time>
      </trkpt>
      <trkpt lat="42.92747" lon="1.20406">
        <ele>944</ele>
        <time>2026-06-23T07:18:02.000Z</time>
      </trkpt>
      <trkpt lat="42.92751" lon="1.20408">
        <ele>945</ele>
        <time>2026-06-23T07:18:03.000Z</time>
      </trkpt>
      <trkpt lat="42.92753" lon="1.20411">
        <ele>945</ele>
        <time>2026-06-23T07:18:04.000Z</time>
      </trkpt>
      <trkpt lat="42.92756" lon="1.20413">
        <ele>946</ele>
        <time>2026-06-23T07:18:05.000Z</time>
      </trkpt>
      <trkpt lat="42.92759" lon="1.20414">
        <ele>946</ele>
        <time>2026-06-23T07:18:06.000Z</time>
      </trkpt>
      <trkpt lat="42.92763" lon="1.20416">
        <ele>947</ele>
        <time>2026-06-23T07:18:07.000Z</time>
      </trkpt>
      <trkpt lat="42.92766" lon="1.20417">
        <ele>948</ele>
        <time>2026-06-23T07:18:08.000Z</time>
      </trkpt>
      <trkpt lat="42.9277" lon="1.20419">
        <ele>950</ele>
        <time>2026-06-23T07:18:09.000Z</time>
      </trkpt>
      <trkpt lat="42.92772" lon="1.2042">
        <ele>951</ele>
        <time>2026-06-23T07:18:10.000Z</time>
      </trkpt>
      <trkpt lat="42.92775" lon="1.20422">
        <ele>951</ele>
        <time>2026-06-23T07:18:11.000Z</time>
      </trkpt>
      <trkpt lat="42.92778" lon="1.20423">
        <ele>951</ele>
        <time>2026-06-23T07:18:12.000Z</time>
      </trkpt>
      <trkpt lat="42.92781" lon="1.20425">
        <ele>951</ele>
        <time>2026-06-23T07:18:13.000Z</time>
      </trkpt>
      <trkpt lat="42.92783" lon="1.20427">
        <ele>952</ele>
        <time>2026-06-23T07:18:14.000Z</time>
      </trkpt>
      <trkpt lat="42.92786" lon="1.20429">
        <ele>952</ele>
        <time>2026-06-23T07:18:15.000Z</time>
      </trkpt>
      <trkpt lat="42.9279" lon="1.20431">
        <ele>952</ele>
        <time>2026-06-23T07:18:16.000Z</time>
      </trkpt>
      <trkpt lat="42.92793" lon="1.20434">
        <ele>953</ele>
        <time>2026-06-23T07:18:17.000Z</time>
      </trkpt>
      <trkpt lat="42.92796" lon="1.20437">
        <ele>953</ele>
        <time>2026-06-23T07:18:18.000Z</time>
      </trkpt>
      <trkpt lat="42.928" lon="1.20439">
        <ele>955</ele>
        <time>2026-06-23T07:18:19.000Z</time>
      </trkpt>
      <trkpt lat="42.92804" lon="1.20442">
        <ele>955</ele>
        <time>2026-06-23T07:18:20.000Z</time>
      </trkpt>
      <trkpt lat="42.92808" lon="1.20443">
        <ele>955</ele>
        <time>2026-06-23T07:18:21.000Z</time>
      </trkpt>
      <trkpt lat="42.92812" lon="1.20445">
        <ele>957</ele>
        <time>2026-06-23T07:18:22.000Z</time>
      </trkpt>
      <trkpt lat="42.92815" lon="1.20448">
        <ele>957</ele>
        <time>2026-06-23T07:18:23.000Z</time>
      </trkpt>
      <trkpt lat="42.92818" lon="1.2045">
        <ele>957</ele>
        <time>2026-06-23T07:18:24.000Z</time>
      </trkpt>
      <trkpt lat="42.92821" lon="1.20453">
        <ele>957</ele>
        <time>2026-06-23T07:18:25.000Z</time>
      </trkpt>
      <trkpt lat="42.92824" lon="1.20456">
        <ele>956</ele>
        <time>2026-06-23T07:18:26.000Z</time>
      </trkpt>
      <trkpt lat="42.92827" lon="1.20458">
        <ele>957</ele>
        <time>2026-06-23T07:18:27.000Z</time>
      </trkpt>
      <trkpt lat="42.92831" lon="1.20461">
        <ele>957</ele>
        <time>2026-06-23T07:18:28.000Z</time>
      </trkpt>
      <trkpt lat="42.92834" lon="1.20464">
        <ele>957</ele>
        <time>2026-06-23T07:18:29.000Z</time>
      </trkpt>
      <trkpt lat="42.92838" lon="1.20466">
        <ele>958</ele>
        <time>2026-06-23T07:18:30.000Z</time>
      </trkpt>
      <trkpt lat="42.92841" lon="1.20469">
        <ele>958</ele>
        <time>2026-06-23T07:18:31.000Z</time>
      </trkpt>
      <trkpt lat="42.92845" lon="1.20471">
        <ele>958</ele>
        <time>2026-06-23T07:18:32.000Z</time>
      </trkpt>
      <trkpt lat="42.92848" lon="1.20472">
        <ele>959</ele>
        <time>2026-06-23T07:18:33.000Z</time>
      </trkpt>
      <trkpt lat="42.92852" lon="1.20475">
        <ele>959</ele>
        <time>2026-06-23T07:18:34.000Z</time>
      </trkpt>
      <trkpt lat="42.92855" lon="1.20476">
        <ele>959</ele>
        <time>2026-06-23T07:18:35.000Z</time>
      </trkpt>
      <trkpt lat="42.92857" lon="1.20479">
        <ele>959</ele>
        <time>2026-06-23T07:18:36.000Z</time>
      </trkpt>
      <trkpt lat="42.9286" lon="1.20481">
        <ele>960</ele>
        <time>2026-06-23T07:18:37.000Z</time>
      </trkpt>
      <trkpt lat="42.92862" lon="1.20483">
        <ele>960</ele>
        <time>2026-06-23T07:18:38.000Z</time>
      </trkpt>
      <trkpt lat="42.92863" lon="1.20483">
        <ele>960</ele>
        <time>2026-06-23T07:18:39.000Z</time>
      </trkpt>
      <trkpt lat="42.92865" lon="1.20485">
        <ele>960</ele>
        <time>2026-06-23T07:18:40.000Z</time>
      </trkpt>
      <trkpt lat="42.92866" lon="1.20488">
        <ele>960</ele>
        <time>2026-06-23T07:18:41.000Z</time>
      </trkpt>
      <trkpt lat="42.92867" lon="1.2049">
        <ele>960</ele>
        <time>2026-06-23T07:18:42.000Z</time>
      </trkpt>
      <trkpt lat="42.92869" lon="1.20492">
        <ele>960</ele>
        <time>2026-06-23T07:18:43.000Z</time>
      </trkpt>
      <trkpt lat="42.9287" lon="1.20494">
        <ele>960</ele>
        <time>2026-06-23T07:18:44.000Z</time>
      </trkpt>
      <trkpt lat="42.92872" lon="1.20496">
        <ele>960</ele>
        <time>2026-06-23T07:18:45.000Z</time>
      </trkpt>
      <trkpt lat="42.92873" lon="1.20499">
        <ele>960</ele>
        <time>2026-06-23T07:18:46.000Z</time>
      </trkpt>
      <trkpt lat="42.92875" lon="1.20502">
        <ele>961</ele>
        <time>2026-06-23T07:18:47.000Z</time>
      </trkpt>
      <trkpt lat="42.92876" lon="1.20505">
        <ele>961</ele>
        <time>2026-06-23T07:18:48.000Z</time>
      </trkpt>
      <trkpt lat="42.92878" lon="1.20507">
        <ele>960</ele>
        <time>2026-06-23T07:18:49.000Z</time>
      </trkpt>
      <trkpt lat="42.92879" lon="1.20509">
        <ele>961</ele>
        <time>2026-06-23T07:18:50.000Z</time>
      </trkpt>
      <trkpt lat="42.92881" lon="1.20511">
        <ele>961</ele>
        <time>2026-06-23T07:18:51.000Z</time>
      </trkpt>
      <trkpt lat="42.92882" lon="1.20512">
        <ele>961</ele>
        <time>2026-06-23T07:18:52.000Z</time>
      </trkpt>
      <trkpt lat="42.92883" lon="1.20514">
        <ele>961</ele>
        <time>2026-06-23T07:18:53.000Z</time>
      </trkpt>
      <trkpt lat="42.92884" lon="1.20516">
        <ele>961</ele>
        <time>2026-06-23T07:18:54.000Z</time>
      </trkpt>
      <trkpt lat="42.92885" lon="1.20518">
        <ele>961</ele>
        <time>2026-06-23T07:18:55.000Z</time>
      </trkpt>
      <trkpt lat="42.92885" lon="1.2052">
        <ele>961</ele>
        <time>2026-06-23T07:18:56.000Z</time>
      </trkpt>
      <trkpt lat="42.92886" lon="1.20523">
        <ele>962</ele>
        <time>2026-06-23T07:18:57.000Z</time>
      </trkpt>
      <trkpt lat="42.92887" lon="1.20525">
        <ele>962</ele>
        <time>2026-06-23T07:18:58.000Z</time>
      </trkpt>
      <trkpt lat="42.92888" lon="1.20528">
        <ele>963</ele>
        <time>2026-06-23T07:18:59.000Z</time>
      </trkpt>
      <trkpt lat="42.92889" lon="1.20531">
        <ele>963</ele>
        <time>2026-06-23T07:19:00.000Z</time>
      </trkpt>
      <trkpt lat="42.9289" lon="1.20532">
        <ele>963</ele>
        <time>2026-06-23T07:19:01.000Z</time>
      </trkpt>
      <trkpt lat="42.92892" lon="1.20534">
        <ele>963</ele>
        <time>2026-06-23T07:19:02.000Z</time>
      </trkpt>
      <trkpt lat="42.92893" lon="1.20537">
        <ele>963</ele>
        <time>2026-06-23T07:19:03.000Z</time>
      </trkpt>
      <trkpt lat="42.92894" lon="1.2054">
        <ele>964</ele>
        <time>2026-06-23T07:19:04.000Z</time>
      </trkpt>
      <trkpt lat="42.92896" lon="1.20542">
        <ele>964</ele>
        <time>2026-06-23T07:19:05.000Z</time>
      </trkpt>
      <trkpt lat="42.92898" lon="1.20544">
        <ele>964</ele>
        <time>2026-06-23T07:19:06.000Z</time>
      </trkpt>
      <trkpt lat="42.92899" lon="1.20546">
        <ele>964</ele>
        <time>2026-06-23T07:19:07.000Z</time>
      </trkpt>
      <trkpt lat="42.92901" lon="1.20548">
        <ele>964</ele>
        <time>2026-06-23T07:19:08.000Z</time>
      </trkpt>
      <trkpt lat="42.92902" lon="1.2055">
        <ele>964</ele>
        <time>2026-06-23T07:19:09.000Z</time>
      </trkpt>
      <trkpt lat="42.92904" lon="1.20552">
        <ele>964</ele>
        <time>2026-06-23T07:19:10.000Z</time>
      </trkpt>
      <trkpt lat="42.92905" lon="1.20554">
        <ele>965</ele>
        <time>2026-06-23T07:19:11.000Z</time>
      </trkpt>
      <trkpt lat="42.92906" lon="1.20556">
        <ele>965</ele>
        <time>2026-06-23T07:19:12.000Z</time>
      </trkpt>
      <trkpt lat="42.92907" lon="1.20559">
        <ele>965</ele>
        <time>2026-06-23T07:19:13.000Z</time>
      </trkpt>
      <trkpt lat="42.92908" lon="1.20561">
        <ele>965</ele>
        <time>2026-06-23T07:19:14.000Z</time>
      </trkpt>
      <trkpt lat="42.92909" lon="1.20563">
        <ele>965</ele>
        <time>2026-06-23T07:19:15.000Z</time>
      </trkpt>
      <trkpt lat="42.92911" lon="1.20564">
        <ele>966</ele>
        <time>2026-06-23T07:19:16.000Z</time>
      </trkpt>
      <trkpt lat="42.92912" lon="1.20566">
        <ele>966</ele>
        <time>2026-06-23T07:19:17.000Z</time>
      </trkpt>
      <trkpt lat="42.92913" lon="1.20568">
        <ele>966</ele>
        <time>2026-06-23T07:19:18.000Z</time>
      </trkpt>
      <trkpt lat="42.92914" lon="1.2057">
        <ele>966</ele>
        <time>2026-06-23T07:19:19.000Z</time>
      </trkpt>
      <trkpt lat="42.92916" lon="1.20572">
        <ele>967</ele>
        <time>2026-06-23T07:19:20.000Z</time>
      </trkpt>
      <trkpt lat="42.92917" lon="1.20574">
        <ele>967</ele>
        <time>2026-06-23T07:19:21.000Z</time>
      </trkpt>
      <trkpt lat="42.92918" lon="1.20575">
        <ele>967</ele>
        <time>2026-06-23T07:19:22.000Z</time>
      </trkpt>
      <trkpt lat="42.92919" lon="1.20577">
        <ele>966</ele>
        <time>2026-06-23T07:19:23.000Z</time>
      </trkpt>
      <trkpt lat="42.9292" lon="1.20579">
        <ele>966</ele>
        <time>2026-06-23T07:19:24.000Z</time>
      </trkpt>
      <trkpt lat="42.92921" lon="1.20581">
        <ele>966</ele>
        <time>2026-06-23T07:19:25.000Z</time>
      </trkpt>
      <trkpt lat="42.92922" lon="1.20582">
        <ele>967</ele>
        <time>2026-06-23T07:19:26.000Z</time>
      </trkpt>
      <trkpt lat="42.92924" lon="1.20585">
        <ele>966</ele>
        <time>2026-06-23T07:19:27.000Z</time>
      </trkpt>
      <trkpt lat="42.92925" lon="1.20587">
        <ele>967</ele>
        <time>2026-06-23T07:19:28.000Z</time>
      </trkpt>
      <trkpt lat="42.92926" lon="1.20589">
        <ele>967</ele>
        <time>2026-06-23T07:19:29.000Z</time>
      </trkpt>
      <trkpt lat="42.92927" lon="1.2059">
        <ele>967</ele>
        <time>2026-06-23T07:19:30.000Z</time>
      </trkpt>
      <trkpt lat="42.92928" lon="1.20592">
        <ele>967</ele>
        <time>2026-06-23T07:19:31.000Z</time>
      </trkpt>
      <trkpt lat="42.92929" lon="1.20594">
        <ele>967</ele>
        <time>2026-06-23T07:19:32.000Z</time>
      </trkpt>
      <trkpt lat="42.9293" lon="1.20595">
        <ele>967</ele>
        <time>2026-06-23T07:19:33.000Z</time>
      </trkpt>
      <trkpt lat="42.92931" lon="1.20596">
        <ele>967</ele>
        <time>2026-06-23T07:19:34.000Z</time>
      </trkpt>
      <trkpt lat="42.92933" lon="1.20597">
        <ele>967</ele>
        <time>2026-06-23T07:19:35.000Z</time>
      </trkpt>
      <trkpt lat="42.92934" lon="1.20599">
        <ele>967</ele>
        <time>2026-06-23T07:19:36.000Z</time>
      </trkpt>
      <trkpt lat="42.92934" lon="1.206">
        <ele>967</ele>
        <time>2026-06-23T07:19:37.000Z</time>
      </trkpt>
      <trkpt lat="42.92935" lon="1.20601">
        <ele>968</ele>
        <time>2026-06-23T07:19:38.000Z</time>
      </trkpt>
      <trkpt lat="42.92936" lon="1.20603">
        <ele>968</ele>
        <time>2026-06-23T07:19:39.000Z</time>
      </trkpt>
      <trkpt lat="42.92937" lon="1.20604">
        <ele>968</ele>
        <time>2026-06-23T07:19:40.000Z</time>
      </trkpt>
      <trkpt lat="42.92938" lon="1.20605">
        <ele>968</ele>
        <time>2026-06-23T07:19:41.000Z</time>
      </trkpt>
      <trkpt lat="42.92939" lon="1.20607">
        <ele>969</ele>
        <time>2026-06-23T07:19:42.000Z</time>
      </trkpt>
      <trkpt lat="42.9294" lon="1.20608">
        <ele>969</ele>
        <time>2026-06-23T07:19:43.000Z</time>
      </trkpt>
      <trkpt lat="42.92941" lon="1.20611">
        <ele>969</ele>
        <time>2026-06-23T07:19:44.000Z</time>
      </trkpt>
      <trkpt lat="42.92943" lon="1.20612">
        <ele>970</ele>
        <time>2026-06-23T07:19:45.000Z</time>
      </trkpt>
      <trkpt lat="42.92945" lon="1.20614">
        <ele>971</ele>
        <time>2026-06-23T07:19:46.000Z</time>
      </trkpt>
      <trkpt lat="42.92946" lon="1.20616">
        <ele>972</ele>
        <time>2026-06-23T07:19:47.000Z</time>
      </trkpt>
      <trkpt lat="42.92948" lon="1.20617">
        <ele>972</ele>
        <time>2026-06-23T07:19:48.000Z</time>
      </trkpt>
      <trkpt lat="42.92949" lon="1.20619">
        <ele>973</ele>
        <time>2026-06-23T07:19:49.000Z</time>
      </trkpt>
      <trkpt lat="42.9295" lon="1.2062">
        <ele>973</ele>
        <time>2026-06-23T07:19:50.000Z</time>
      </trkpt>
      <trkpt lat="42.92952" lon="1.20622">
        <ele>973</ele>
        <time>2026-06-23T07:19:51.000Z</time>
      </trkpt>
      <trkpt lat="42.92954" lon="1.20623">
        <ele>974</ele>
        <time>2026-06-23T07:19:52.000Z</time>
      </trkpt>
      <trkpt lat="42.92956" lon="1.20624">
        <ele>974</ele>
        <time>2026-06-23T07:19:53.000Z</time>
      </trkpt>
      <trkpt lat="42.92958" lon="1.20625">
        <ele>974</ele>
        <time>2026-06-23T07:19:54.000Z</time>
      </trkpt>
      <trkpt lat="42.9296" lon="1.20626">
        <ele>974</ele>
        <time>2026-06-23T07:19:55.000Z</time>
      </trkpt>
      <trkpt lat="42.92962" lon="1.20627">
        <ele>974</ele>
        <time>2026-06-23T07:19:56.000Z</time>
      </trkpt>
      <trkpt lat="42.92963" lon="1.20628">
        <ele>974</ele>
        <time>2026-06-23T07:19:57.000Z</time>
      </trkpt>
      <trkpt lat="42.92965" lon="1.20629">
        <ele>975</ele>
        <time>2026-06-23T07:19:58.000Z</time>
      </trkpt>
      <trkpt lat="42.92966" lon="1.2063">
        <ele>976</ele>
        <time>2026-06-23T07:19:59.000Z</time>
      </trkpt>
      <trkpt lat="42.92968" lon="1.20631">
        <ele>977</ele>
        <time>2026-06-23T07:20:00.000Z</time>
      </trkpt>
      <trkpt lat="42.92969" lon="1.20632">
        <ele>978</ele>
        <time>2026-06-23T07:20:01.000Z</time>
      </trkpt>
      <trkpt lat="42.92971" lon="1.20633">
        <ele>979</ele>
        <time>2026-06-23T07:20:02.000Z</time>
      </trkpt>
      <trkpt lat="42.92972" lon="1.20633">
        <ele>980</ele>
        <time>2026-06-23T07:20:03.000Z</time>
      </trkpt>
      <trkpt lat="42.92973" lon="1.20634">
        <ele>980</ele>
        <time>2026-06-23T07:20:04.000Z</time>
      </trkpt>
      <trkpt lat="42.92974" lon="1.20636">
        <ele>980</ele>
        <time>2026-06-23T07:20:05.000Z</time>
      </trkpt>
      <trkpt lat="42.92976" lon="1.20637">
        <ele>980</ele>
        <time>2026-06-23T07:20:06.000Z</time>
      </trkpt>
      <trkpt lat="42.92978" lon="1.20637">
        <ele>980</ele>
        <time>2026-06-23T07:20:07.000Z</time>
      </trkpt>
      <trkpt lat="42.92979" lon="1.20638">
        <ele>980</ele>
        <time>2026-06-23T07:20:08.000Z</time>
      </trkpt>
      <trkpt lat="42.92981" lon="1.20638">
        <ele>981</ele>
        <time>2026-06-23T07:20:09.000Z</time>
      </trkpt>
      <trkpt lat="42.92982" lon="1.20639">
        <ele>981</ele>
        <time>2026-06-23T07:20:10.000Z</time>
      </trkpt>
      <trkpt lat="42.92983" lon="1.20641">
        <ele>982</ele>
        <time>2026-06-23T07:20:11.000Z</time>
      </trkpt>
      <trkpt lat="42.92984" lon="1.20642">
        <ele>982</ele>
        <time>2026-06-23T07:20:12.000Z</time>
      </trkpt>
      <trkpt lat="42.92986" lon="1.20642">
        <ele>983</ele>
        <time>2026-06-23T07:20:13.000Z</time>
      </trkpt>
      <trkpt lat="42.92987" lon="1.20643">
        <ele>983</ele>
        <time>2026-06-23T07:20:14.000Z</time>
      </trkpt>
      <trkpt lat="42.92988" lon="1.20644">
        <ele>984</ele>
        <time>2026-06-23T07:20:15.000Z</time>
      </trkpt>
      <trkpt lat="42.92989" lon="1.20644">
        <ele>985</ele>
        <time>2026-06-23T07:20:16.000Z</time>
      </trkpt>
      <trkpt lat="42.9299" lon="1.20644">
        <ele>986</ele>
        <time>2026-06-23T07:20:17.000Z</time>
      </trkpt>
      <trkpt lat="42.92992" lon="1.20645">
        <ele>986</ele>
        <time>2026-06-23T07:20:18.000Z</time>
      </trkpt>
      <trkpt lat="42.92994" lon="1.20646">
        <ele>986</ele>
        <time>2026-06-23T07:20:19.000Z</time>
      </trkpt>
      <trkpt lat="42.92995" lon="1.20647">
        <ele>986</ele>
        <time>2026-06-23T07:20:20.000Z</time>
      </trkpt>
      <trkpt lat="42.92997" lon="1.20649">
        <ele>986</ele>
        <time>2026-06-23T07:20:21.000Z</time>
      </trkpt>
      <trkpt lat="42.92998" lon="1.20649">
        <ele>987</ele>
        <time>2026-06-23T07:20:22.000Z</time>
      </trkpt>
      <trkpt lat="42.93001" lon="1.20651">
        <ele>987</ele>
        <time>2026-06-23T07:20:23.000Z</time>
      </trkpt>
      <trkpt lat="42.93003" lon="1.20652">
        <ele>987</ele>
        <time>2026-06-23T07:20:24.000Z</time>
      </trkpt>
      <trkpt lat="42.93005" lon="1.20653">
        <ele>987</ele>
        <time>2026-06-23T07:20:25.000Z</time>
      </trkpt>
      <trkpt lat="42.93007" lon="1.20654">
        <ele>988</ele>
        <time>2026-06-23T07:20:26.000Z</time>
      </trkpt>
      <trkpt lat="42.93009" lon="1.20655">
        <ele>987</ele>
        <time>2026-06-23T07:20:27.000Z</time>
      </trkpt>
      <trkpt lat="42.93011" lon="1.20657">
        <ele>987</ele>
        <time>2026-06-23T07:20:28.000Z</time>
      </trkpt>
      <trkpt lat="42.93013" lon="1.20658">
        <ele>987</ele>
        <time>2026-06-23T07:20:29.000Z</time>
      </trkpt>
      <trkpt lat="42.93015" lon="1.20659">
        <ele>987</ele>
        <time>2026-06-23T07:20:30.000Z</time>
      </trkpt>
      <trkpt lat="42.93016" lon="1.20661">
        <ele>987</ele>
        <time>2026-06-23T07:20:31.000Z</time>
      </trkpt>
      <trkpt lat="42.93018" lon="1.20663">
        <ele>988</ele>
        <time>2026-06-23T07:20:32.000Z</time>
      </trkpt>
      <trkpt lat="42.93019" lon="1.20665">
        <ele>987</ele>
        <time>2026-06-23T07:20:33.000Z</time>
      </trkpt>
      <trkpt lat="42.93021" lon="1.20667">
        <ele>987</ele>
        <time>2026-06-23T07:20:34.000Z</time>
      </trkpt>
      <trkpt lat="42.93023" lon="1.20668">
        <ele>988</ele>
        <time>2026-06-23T07:20:35.000Z</time>
      </trkpt>
      <trkpt lat="42.93024" lon="1.2067">
        <ele>987</ele>
        <time>2026-06-23T07:20:36.000Z</time>
      </trkpt>
      <trkpt lat="42.93026" lon="1.20673">
        <ele>987</ele>
        <time>2026-06-23T07:20:37.000Z</time>
      </trkpt>
      <trkpt lat="42.93027" lon="1.20674">
        <ele>987</ele>
        <time>2026-06-23T07:20:38.000Z</time>
      </trkpt>
      <trkpt lat="42.93028" lon="1.20676">
        <ele>987</ele>
        <time>2026-06-23T07:20:39.000Z</time>
      </trkpt>
      <trkpt lat="42.93029" lon="1.20678">
        <ele>987</ele>
        <time>2026-06-23T07:20:40.000Z</time>
      </trkpt>
      <trkpt lat="42.9303" lon="1.20681">
        <ele>987</ele>
        <time>2026-06-23T07:20:41.000Z</time>
      </trkpt>
      <trkpt lat="42.93031" lon="1.20684">
        <ele>987</ele>
        <time>2026-06-23T07:20:42.000Z</time>
      </trkpt>
      <trkpt lat="42.93033" lon="1.20687">
        <ele>987</ele>
        <time>2026-06-23T07:20:43.000Z</time>
      </trkpt>
      <trkpt lat="42.93034" lon="1.20689">
        <ele>988</ele>
        <time>2026-06-23T07:20:44.000Z</time>
      </trkpt>
      <trkpt lat="42.93035" lon="1.20692">
        <ele>988</ele>
        <time>2026-06-23T07:20:45.000Z</time>
      </trkpt>
      <trkpt lat="42.93035" lon="1.20695">
        <ele>987</ele>
        <time>2026-06-23T07:20:46.000Z</time>
      </trkpt>
      <trkpt lat="42.93035" lon="1.20698">
        <ele>987</ele>
        <time>2026-06-23T07:20:47.000Z</time>
      </trkpt>
      <trkpt lat="42.93034" lon="1.20705">
        <ele>991</ele>
        <time>2026-06-23T07:20:48.000Z</time>
      </trkpt>
      <trkpt lat="42.93034" lon="1.20709">
        <ele>991</ele>
        <time>2026-06-23T07:20:49.000Z</time>
      </trkpt>
      <trkpt lat="42.93034" lon="1.20712">
        <ele>991</ele>
        <time>2026-06-23T07:20:50.000Z</time>
      </trkpt>
      <trkpt lat="42.93034" lon="1.20716">
        <ele>992</ele>
        <time>2026-06-23T07:20:51.000Z</time>
      </trkpt>
      <trkpt lat="42.93033" lon="1.2072">
        <ele>992</ele>
        <time>2026-06-23T07:20:52.000Z</time>
      </trkpt>
      <trkpt lat="42.93031" lon="1.20725">
        <ele>993</ele>
        <time>2026-06-23T07:20:53.000Z</time>
      </trkpt>
      <trkpt lat="42.93028" lon="1.20728">
        <ele>994</ele>
        <time>2026-06-23T07:20:54.000Z</time>
      </trkpt>
      <trkpt lat="42.93026" lon="1.20731">
        <ele>994</ele>
        <time>2026-06-23T07:20:55.000Z</time>
      </trkpt>
      <trkpt lat="42.93024" lon="1.20735">
        <ele>994</ele>
        <time>2026-06-23T07:20:56.000Z</time>
      </trkpt>
      <trkpt lat="42.93021" lon="1.20737">
        <ele>995</ele>
        <time>2026-06-23T07:20:57.000Z</time>
      </trkpt>
      <trkpt lat="42.93017" lon="1.2074">
        <ele>996</ele>
        <time>2026-06-23T07:20:58.000Z</time>
      </trkpt>
      <trkpt lat="42.93013" lon="1.20742">
        <ele>997</ele>
        <time>2026-06-23T07:20:59.000Z</time>
      </trkpt>
      <trkpt lat="42.93007" lon="1.20741">
        <ele>998</ele>
        <time>2026-06-23T07:21:00.000Z</time>
      </trkpt>
      <trkpt lat="42.92999" lon="1.20742">
        <ele>999</ele>
        <time>2026-06-23T07:21:01.000Z</time>
      </trkpt>
      <trkpt lat="42.92991" lon="1.20743">
        <ele>1000</ele>
        <time>2026-06-23T07:21:02.000Z</time>
      </trkpt>
      <trkpt lat="42.92983" lon="1.20743">
        <ele>1001</ele>
        <time>2026-06-23T07:21:03.000Z</time>
      </trkpt>
      <trkpt lat="42.92976" lon="1.20743">
        <ele>1001</ele>
        <time>2026-06-23T07:21:04.000Z</time>
      </trkpt>
      <trkpt lat="42.9297" lon="1.20743">
        <ele>1001</ele>
        <time>2026-06-23T07:21:05.000Z</time>
      </trkpt>
      <trkpt lat="42.92963" lon="1.20742">
        <ele>1002</ele>
        <time>2026-06-23T07:21:06.000Z</time>
      </trkpt>
      <trkpt lat="42.92957" lon="1.20742">
        <ele>1003</ele>
        <time>2026-06-23T07:21:07.000Z</time>
      </trkpt>
      <trkpt lat="42.9295" lon="1.20742">
        <ele>1002</ele>
        <time>2026-06-23T07:21:08.000Z</time>
      </trkpt>
      <trkpt lat="42.92942" lon="1.20744">
        <ele>1002</ele>
        <time>2026-06-23T07:21:09.000Z</time>
      </trkpt>
      <trkpt lat="42.92935" lon="1.20747">
        <ele>1002</ele>
        <time>2026-06-23T07:21:10.000Z</time>
      </trkpt>
      <trkpt lat="42.92928" lon="1.20751">
        <ele>1002</ele>
        <time>2026-06-23T07:21:11.000Z</time>
      </trkpt>
      <trkpt lat="42.92921" lon="1.20754">
        <ele>1001</ele>
        <time>2026-06-23T07:21:12.000Z</time>
      </trkpt>
      <trkpt lat="42.92915" lon="1.20758">
        <ele>1001</ele>
        <time>2026-06-23T07:21:13.000Z</time>
      </trkpt>
      <trkpt lat="42.9291" lon="1.20763">
        <ele>1001</ele>
        <time>2026-06-23T07:21:14.000Z</time>
      </trkpt>
      <trkpt lat="42.92905" lon="1.20767">
        <ele>1001</ele>
        <time>2026-06-23T07:21:15.000Z</time>
      </trkpt>
      <trkpt lat="42.929" lon="1.20772">
        <ele>1001</ele>
        <time>2026-06-23T07:21:16.000Z</time>
      </trkpt>
      <trkpt lat="42.92896" lon="1.20776">
        <ele>1001</ele>
        <time>2026-06-23T07:21:17.000Z</time>
      </trkpt>
      <trkpt lat="42.92893" lon="1.20779">
        <ele>1002</ele>
        <time>2026-06-23T07:21:18.000Z</time>
      </trkpt>
      <trkpt lat="42.92889" lon="1.20783">
        <ele>1002</ele>
        <time>2026-06-23T07:21:19.000Z</time>
      </trkpt>
      <trkpt lat="42.92886" lon="1.20786">
        <ele>1001</ele>
        <time>2026-06-23T07:21:20.000Z</time>
      </trkpt>
      <trkpt lat="42.92882" lon="1.20791">
        <ele>1001</ele>
        <time>2026-06-23T07:21:21.000Z</time>
      </trkpt>
      <trkpt lat="42.92878" lon="1.20795">
        <ele>1002</ele>
        <time>2026-06-23T07:21:22.000Z</time>
      </trkpt>
      <trkpt lat="42.92874" lon="1.208">
        <ele>1003</ele>
        <time>2026-06-23T07:21:23.000Z</time>
      </trkpt>
      <trkpt lat="42.9287" lon="1.20805">
        <ele>1003</ele>
        <time>2026-06-23T07:21:24.000Z</time>
      </trkpt>
      <trkpt lat="42.92866" lon="1.2081">
        <ele>1004</ele>
        <time>2026-06-23T07:21:25.000Z</time>
      </trkpt>
      <trkpt lat="42.92862" lon="1.20816">
        <ele>1004</ele>
        <time>2026-06-23T07:21:26.000Z</time>
      </trkpt>
      <trkpt lat="42.92858" lon="1.20821">
        <ele>1004</ele>
        <time>2026-06-23T07:21:27.000Z</time>
      </trkpt>
      <trkpt lat="42.92855" lon="1.20828">
        <ele>1005</ele>
        <time>2026-06-23T07:21:28.000Z</time>
      </trkpt>
      <trkpt lat="42.92851" lon="1.20833">
        <ele>1005</ele>
        <time>2026-06-23T07:21:29.000Z</time>
      </trkpt>
      <trkpt lat="42.92847" lon="1.20838">
        <ele>1004</ele>
        <time>2026-06-23T07:21:30.000Z</time>
      </trkpt>
      <trkpt lat="42.92843" lon="1.20843">
        <ele>1004</ele>
        <time>2026-06-23T07:21:31.000Z</time>
      </trkpt>
      <trkpt lat="42.92839" lon="1.20849">
        <ele>1004</ele>
        <time>2026-06-23T07:21:32.000Z</time>
      </trkpt>
      <trkpt lat="42.92835" lon="1.20855">
        <ele>1005</ele>
        <time>2026-06-23T07:21:33.000Z</time>
      </trkpt>
      <trkpt lat="42.92832" lon="1.2086">
        <ele>1005</ele>
        <time>2026-06-23T07:21:34.000Z</time>
      </trkpt>
      <trkpt lat="42.92828" lon="1.20865">
        <ele>1005</ele>
        <time>2026-06-23T07:21:35.000Z</time>
      </trkpt>
      <trkpt lat="42.92825" lon="1.20871">
        <ele>1005</ele>
        <time>2026-06-23T07:21:36.000Z</time>
      </trkpt>
      <trkpt lat="42.92823" lon="1.20876">
        <ele>1005</ele>
        <time>2026-06-23T07:21:37.000Z</time>
      </trkpt>
      <trkpt lat="42.92819" lon="1.20881">
        <ele>1004</ele>
        <time>2026-06-23T07:21:38.000Z</time>
      </trkpt>
      <trkpt lat="42.92816" lon="1.20886">
        <ele>1004</ele>
        <time>2026-06-23T07:21:39.000Z</time>
      </trkpt>
      <trkpt lat="42.92813" lon="1.2089">
        <ele>1005</ele>
        <time>2026-06-23T07:21:40.000Z</time>
      </trkpt>
      <trkpt lat="42.9281" lon="1.20896">
        <ele>1005</ele>
        <time>2026-06-23T07:21:41.000Z</time>
      </trkpt>
      <trkpt lat="42.92807" lon="1.20901">
        <ele>1005</ele>
        <time>2026-06-23T07:21:42.000Z</time>
      </trkpt>
      <trkpt lat="42.92804" lon="1.20906">
        <ele>1005</ele>
        <time>2026-06-23T07:21:43.000Z</time>
      </trkpt>
      <trkpt lat="42.92802" lon="1.20911">
        <ele>1005</ele>
        <time>2026-06-23T07:21:44.000Z</time>
      </trkpt>
      <trkpt lat="42.92799" lon="1.20917">
        <ele>1005</ele>
        <time>2026-06-23T07:21:45.000Z</time>
      </trkpt>
      <trkpt lat="42.92795" lon="1.20922">
        <ele>1006</ele>
        <time>2026-06-23T07:21:46.000Z</time>
      </trkpt>
      <trkpt lat="42.92792" lon="1.20926">
        <ele>1006</ele>
        <time>2026-06-23T07:21:47.000Z</time>
      </trkpt>
      <trkpt lat="42.92789" lon="1.2093">
        <ele>1007</ele>
        <time>2026-06-23T07:21:48.000Z</time>
      </trkpt>
      <trkpt lat="42.92785" lon="1.20933">
        <ele>1007</ele>
        <time>2026-06-23T07:21:49.000Z</time>
      </trkpt>
      <trkpt lat="42.92783" lon="1.20939">
        <ele>1008</ele>
        <time>2026-06-23T07:21:50.000Z</time>
      </trkpt>
      <trkpt lat="42.9278" lon="1.20945">
        <ele>1008</ele>
        <time>2026-06-23T07:21:51.000Z</time>
      </trkpt>
      <trkpt lat="42.92776" lon="1.2095">
        <ele>1008</ele>
        <time>2026-06-23T07:21:52.000Z</time>
      </trkpt>
      <trkpt lat="42.92773" lon="1.20954">
        <ele>1009</ele>
        <time>2026-06-23T07:21:53.000Z</time>
      </trkpt>
      <trkpt lat="42.92769" lon="1.2096">
        <ele>1008</ele>
        <time>2026-06-23T07:21:54.000Z</time>
      </trkpt>
      <trkpt lat="42.92766" lon="1.20965">
        <ele>1008</ele>
        <time>2026-06-23T07:21:55.000Z</time>
      </trkpt>
      <trkpt lat="42.92763" lon="1.20971">
        <ele>1008</ele>
        <time>2026-06-23T07:21:56.000Z</time>
      </trkpt>
      <trkpt lat="42.9276" lon="1.20977">
        <ele>1009</ele>
        <time>2026-06-23T07:21:57.000Z</time>
      </trkpt>
      <trkpt lat="42.92758" lon="1.20983">
        <ele>1009</ele>
        <time>2026-06-23T07:21:58.000Z</time>
      </trkpt>
      <trkpt lat="42.92754" lon="1.20989">
        <ele>1009</ele>
        <time>2026-06-23T07:21:59.000Z</time>
      </trkpt>
      <trkpt lat="42.9275" lon="1.20995">
        <ele>1008</ele>
        <time>2026-06-23T07:22:00.000Z</time>
      </trkpt>
      <trkpt lat="42.92744" lon="1.20999">
        <ele>1008</ele>
        <time>2026-06-23T07:22:01.000Z</time>
      </trkpt>
      <trkpt lat="42.92739" lon="1.21003">
        <ele>1008</ele>
        <time>2026-06-23T07:22:02.000Z</time>
      </trkpt>
      <trkpt lat="42.92733" lon="1.21007">
        <ele>1008</ele>
        <time>2026-06-23T07:22:03.000Z</time>
      </trkpt>
      <trkpt lat="42.92726" lon="1.2101">
        <ele>1008</ele>
        <time>2026-06-23T07:22:04.000Z</time>
      </trkpt>
      <trkpt lat="42.9272" lon="1.21014">
        <ele>1008</ele>
        <time>2026-06-23T07:22:05.000Z</time>
      </trkpt>
      <trkpt lat="42.92713" lon="1.21018">
        <ele>1007</ele>
        <time>2026-06-23T07:22:06.000Z</time>
      </trkpt>
      <trkpt lat="42.92706" lon="1.21022">
        <ele>1007</ele>
        <time>2026-06-23T07:22:07.000Z</time>
      </trkpt>
      <trkpt lat="42.92699" lon="1.21026">
        <ele>1007</ele>
        <time>2026-06-23T07:22:08.000Z</time>
      </trkpt>
      <trkpt lat="42.92693" lon="1.2103">
        <ele>1007</ele>
        <time>2026-06-23T07:22:09.000Z</time>
      </trkpt>
      <trkpt lat="42.92686" lon="1.21034">
        <ele>1007</ele>
        <time>2026-06-23T07:22:10.000Z</time>
      </trkpt>
      <trkpt lat="42.92679" lon="1.21038">
        <ele>1007</ele>
        <time>2026-06-23T07:22:11.000Z</time>
      </trkpt>
      <trkpt lat="42.92672" lon="1.21042">
        <ele>1007</ele>
        <time>2026-06-23T07:22:12.000Z</time>
      </trkpt>
      <trkpt lat="42.92664" lon="1.21046">
        <ele>1008</ele>
        <time>2026-06-23T07:22:13.000Z</time>
      </trkpt>
      <trkpt lat="42.92658" lon="1.21051">
        <ele>1007</ele>
        <time>2026-06-23T07:22:14.000Z</time>
      </trkpt>
      <trkpt lat="42.92651" lon="1.21056">
        <ele>1008</ele>
        <time>2026-06-23T07:22:15.000Z</time>
      </trkpt>
      <trkpt lat="42.92645" lon="1.21061">
        <ele>1008</ele>
        <time>2026-06-23T07:22:16.000Z</time>
      </trkpt>
      <trkpt lat="42.92638" lon="1.21065">
        <ele>1007</ele>
        <time>2026-06-23T07:22:17.000Z</time>
      </trkpt>
      <trkpt lat="42.92631" lon="1.2107">
        <ele>1007</ele>
        <time>2026-06-23T07:22:18.000Z</time>
      </trkpt>
      <trkpt lat="42.92623" lon="1.21075">
        <ele>1007</ele>
        <time>2026-06-23T07:22:19.000Z</time>
      </trkpt>
      <trkpt lat="42.92615" lon="1.21079">
        <ele>1007</ele>
        <time>2026-06-23T07:22:20.000Z</time>
      </trkpt>
      <trkpt lat="42.92608" lon="1.21083">
        <ele>1006</ele>
        <time>2026-06-23T07:22:21.000Z</time>
      </trkpt>
      <trkpt lat="42.926" lon="1.21088">
        <ele>1006</ele>
        <time>2026-06-23T07:22:22.000Z</time>
      </trkpt>
      <trkpt lat="42.92592" lon="1.21093">
        <ele>1006</ele>
        <time>2026-06-23T07:22:23.000Z</time>
      </trkpt>
      <trkpt lat="42.92585" lon="1.21099">
        <ele>1006</ele>
        <time>2026-06-23T07:22:24.000Z</time>
      </trkpt>
      <trkpt lat="42.92578" lon="1.21104">
        <ele>1004</ele>
        <time>2026-06-23T07:22:25.000Z</time>
      </trkpt>
      <trkpt lat="42.92571" lon="1.21111">
        <ele>1004</ele>
        <time>2026-06-23T07:22:26.000Z</time>
      </trkpt>
      <trkpt lat="42.92565" lon="1.21117">
        <ele>1003</ele>
        <time>2026-06-23T07:22:27.000Z</time>
      </trkpt>
      <trkpt lat="42.92559" lon="1.21124">
        <ele>1002</ele>
        <time>2026-06-23T07:22:28.000Z</time>
      </trkpt>
      <trkpt lat="42.92552" lon="1.2113">
        <ele>1002</ele>
        <time>2026-06-23T07:22:29.000Z</time>
      </trkpt>
      <trkpt lat="42.92546" lon="1.21137">
        <ele>1001</ele>
        <time>2026-06-23T07:22:30.000Z</time>
      </trkpt>
      <trkpt lat="42.9254" lon="1.21143">
        <ele>1001</ele>
        <time>2026-06-23T07:22:31.000Z</time>
      </trkpt>
      <trkpt lat="42.92533" lon="1.21151">
        <ele>1000</ele>
        <time>2026-06-23T07:22:32.000Z</time>
      </trkpt>
      <trkpt lat="42.92527" lon="1.21157">
        <ele>1000</ele>
        <time>2026-06-23T07:22:33.000Z</time>
      </trkpt>
      <trkpt lat="42.9252" lon="1.21164">
        <ele>1000</ele>
        <time>2026-06-23T07:22:34.000Z</time>
      </trkpt>
      <trkpt lat="42.92514" lon="1.2117">
        <ele>999</ele>
        <time>2026-06-23T07:22:35.000Z</time>
      </trkpt>
      <trkpt lat="42.92509" lon="1.21178">
        <ele>999</ele>
        <time>2026-06-23T07:22:36.000Z</time>
      </trkpt>
      <trkpt lat="42.92502" lon="1.21184">
        <ele>999</ele>
        <time>2026-06-23T07:22:37.000Z</time>
      </trkpt>
      <trkpt lat="42.92496" lon="1.2119">
        <ele>1000</ele>
        <time>2026-06-23T07:22:38.000Z</time>
      </trkpt>
      <trkpt lat="42.92489" lon="1.21196">
        <ele>999</ele>
        <time>2026-06-23T07:22:39.000Z</time>
      </trkpt>
      <trkpt lat="42.92481" lon="1.21201">
        <ele>999</ele>
        <time>2026-06-23T07:22:40.000Z</time>
      </trkpt>
      <trkpt lat="42.92475" lon="1.21207">
        <ele>998</ele>
        <time>2026-06-23T07:22:41.000Z</time>
      </trkpt>
      <trkpt lat="42.92468" lon="1.21212">
        <ele>998</ele>
        <time>2026-06-23T07:22:42.000Z</time>
      </trkpt>
      <trkpt lat="42.9246" lon="1.21217">
        <ele>998</ele>
        <time>2026-06-23T07:22:43.000Z</time>
      </trkpt>
      <trkpt lat="42.92452" lon="1.21221">
        <ele>997</ele>
        <time>2026-06-23T07:22:44.000Z</time>
      </trkpt>
      <trkpt lat="42.92444" lon="1.21225">
        <ele>998</ele>
        <time>2026-06-23T07:22:45.000Z</time>
      </trkpt>
      <trkpt lat="42.92436" lon="1.21229">
        <ele>998</ele>
        <time>2026-06-23T07:22:46.000Z</time>
      </trkpt>
      <trkpt lat="42.92428" lon="1.21233">
        <ele>998</ele>
        <time>2026-06-23T07:22:47.000Z</time>
      </trkpt>
      <trkpt lat="42.9242" lon="1.21236">
        <ele>998</ele>
        <time>2026-06-23T07:22:48.000Z</time>
      </trkpt>
      <trkpt lat="42.92412" lon="1.21239">
        <ele>998</ele>
        <time>2026-06-23T07:22:49.000Z</time>
      </trkpt>
      <trkpt lat="42.92403" lon="1.21243">
        <ele>998</ele>
        <time>2026-06-23T07:22:50.000Z</time>
      </trkpt>
      <trkpt lat="42.92394" lon="1.21246">
        <ele>998</ele>
        <time>2026-06-23T07:22:51.000Z</time>
      </trkpt>
      <trkpt lat="42.92385" lon="1.2125">
        <ele>998</ele>
        <time>2026-06-23T07:22:52.000Z</time>
      </trkpt>
      <trkpt lat="42.92377" lon="1.21252">
        <ele>997</ele>
        <time>2026-06-23T07:22:53.000Z</time>
      </trkpt>
      <trkpt lat="42.92368" lon="1.21256">
        <ele>996</ele>
        <time>2026-06-23T07:22:54.000Z</time>
      </trkpt>
      <trkpt lat="42.9236" lon="1.2126">
        <ele>996</ele>
        <time>2026-06-23T07:22:55.000Z</time>
      </trkpt>
      <trkpt lat="42.92352" lon="1.21265">
        <ele>997</ele>
        <time>2026-06-23T07:22:56.000Z</time>
      </trkpt>
      <trkpt lat="42.92345" lon="1.21271">
        <ele>996</ele>
        <time>2026-06-23T07:22:57.000Z</time>
      </trkpt>
      <trkpt lat="42.92338" lon="1.21276">
        <ele>994</ele>
        <time>2026-06-23T07:22:58.000Z</time>
      </trkpt>
      <trkpt lat="42.92331" lon="1.2128">
        <ele>994</ele>
        <time>2026-06-23T07:22:59.000Z</time>
      </trkpt>
      <trkpt lat="42.92324" lon="1.21282">
        <ele>993</ele>
        <time>2026-06-23T07:23:00.000Z</time>
      </trkpt>
      <trkpt lat="42.92316" lon="1.21284">
        <ele>993</ele>
        <time>2026-06-23T07:23:01.000Z</time>
      </trkpt>
      <trkpt lat="42.92308" lon="1.21286">
        <ele>993</ele>
        <time>2026-06-23T07:23:02.000Z</time>
      </trkpt>
      <trkpt lat="42.92301" lon="1.21287">
        <ele>992</ele>
        <time>2026-06-23T07:23:03.000Z</time>
      </trkpt>
      <trkpt lat="42.92293" lon="1.21288">
        <ele>992</ele>
        <time>2026-06-23T07:23:04.000Z</time>
      </trkpt>
      <trkpt lat="42.92285" lon="1.21289">
        <ele>992</ele>
        <time>2026-06-23T07:23:05.000Z</time>
      </trkpt>
      <trkpt lat="42.92278" lon="1.21291">
        <ele>992</ele>
        <time>2026-06-23T07:23:06.000Z</time>
      </trkpt>
      <trkpt lat="42.92271" lon="1.21293">
        <ele>991</ele>
        <time>2026-06-23T07:23:07.000Z</time>
      </trkpt>
      <trkpt lat="42.92264" lon="1.21295">
        <ele>991</ele>
        <time>2026-06-23T07:23:08.000Z</time>
      </trkpt>
      <trkpt lat="42.92257" lon="1.21297">
        <ele>989</ele>
        <time>2026-06-23T07:23:09.000Z</time>
      </trkpt>
      <trkpt lat="42.9225" lon="1.21298">
        <ele>989</ele>
        <time>2026-06-23T07:23:10.000Z</time>
      </trkpt>
      <trkpt lat="42.92243" lon="1.213">
        <ele>988</ele>
        <time>2026-06-23T07:23:11.000Z</time>
      </trkpt>
      <trkpt lat="42.92236" lon="1.21301">
        <ele>988</ele>
        <time>2026-06-23T07:23:12.000Z</time>
      </trkpt>
      <trkpt lat="42.92229" lon="1.21301">
        <ele>988</ele>
        <time>2026-06-23T07:23:13.000Z</time>
      </trkpt>
      <trkpt lat="42.92221" lon="1.21301">
        <ele>987</ele>
        <time>2026-06-23T07:23:14.000Z</time>
      </trkpt>
      <trkpt lat="42.92214" lon="1.21302">
        <ele>986</ele>
        <time>2026-06-23T07:23:15.000Z</time>
      </trkpt>
      <trkpt lat="42.92207" lon="1.21304">
        <ele>986</ele>
        <time>2026-06-23T07:23:16.000Z</time>
      </trkpt>
      <trkpt lat="42.922" lon="1.21304">
        <ele>985</ele>
        <time>2026-06-23T07:23:17.000Z</time>
      </trkpt>
      <trkpt lat="42.92194" lon="1.21306">
        <ele>985</ele>
        <time>2026-06-23T07:23:18.000Z</time>
      </trkpt>
      <trkpt lat="42.92186" lon="1.21306">
        <ele>985</ele>
        <time>2026-06-23T07:23:19.000Z</time>
      </trkpt>
      <trkpt lat="42.92179" lon="1.21308">
        <ele>985</ele>
        <time>2026-06-23T07:23:20.000Z</time>
      </trkpt>
      <trkpt lat="42.92172" lon="1.21309">
        <ele>985</ele>
        <time>2026-06-23T07:23:21.000Z</time>
      </trkpt>
      <trkpt lat="42.92165" lon="1.21311">
        <ele>985</ele>
        <time>2026-06-23T07:23:22.000Z</time>
      </trkpt>
      <trkpt lat="42.92159" lon="1.21313">
        <ele>985</ele>
        <time>2026-06-23T07:23:23.000Z</time>
      </trkpt>
      <trkpt lat="42.92154" lon="1.21315">
        <ele>985</ele>
        <time>2026-06-23T07:23:24.000Z</time>
      </trkpt>
      <trkpt lat="42.92148" lon="1.21318">
        <ele>985</ele>
        <time>2026-06-23T07:23:25.000Z</time>
      </trkpt>
      <trkpt lat="42.92143" lon="1.2132">
        <ele>985</ele>
        <time>2026-06-23T07:23:26.000Z</time>
      </trkpt>
      <trkpt lat="42.92137" lon="1.21324">
        <ele>985</ele>
        <time>2026-06-23T07:23:27.000Z</time>
      </trkpt>
      <trkpt lat="42.92131" lon="1.21329">
        <ele>984</ele>
        <time>2026-06-23T07:23:28.000Z</time>
      </trkpt>
      <trkpt lat="42.92124" lon="1.21334">
        <ele>984</ele>
        <time>2026-06-23T07:23:29.000Z</time>
      </trkpt>
      <trkpt lat="42.92118" lon="1.21339">
        <ele>984</ele>
        <time>2026-06-23T07:23:30.000Z</time>
      </trkpt>
      <trkpt lat="42.9211" lon="1.21345">
        <ele>984</ele>
        <time>2026-06-23T07:23:31.000Z</time>
      </trkpt>
      <trkpt lat="42.92103" lon="1.2135">
        <ele>984</ele>
        <time>2026-06-23T07:23:32.000Z</time>
      </trkpt>
      <trkpt lat="42.92097" lon="1.21357">
        <ele>984</ele>
        <time>2026-06-23T07:23:33.000Z</time>
      </trkpt>
      <trkpt lat="42.92089" lon="1.21364">
        <ele>984</ele>
        <time>2026-06-23T07:23:34.000Z</time>
      </trkpt>
      <trkpt lat="42.92082" lon="1.21371">
        <ele>984</ele>
        <time>2026-06-23T07:23:35.000Z</time>
      </trkpt>
      <trkpt lat="42.92075" lon="1.2138">
        <ele>983</ele>
        <time>2026-06-23T07:23:36.000Z</time>
      </trkpt>
      <trkpt lat="42.92067" lon="1.21389">
        <ele>983</ele>
        <time>2026-06-23T07:23:37.000Z</time>
      </trkpt>
      <trkpt lat="42.9206" lon="1.21398">
        <ele>983</ele>
        <time>2026-06-23T07:23:38.000Z</time>
      </trkpt>
      <trkpt lat="42.92053" lon="1.21409">
        <ele>982</ele>
        <time>2026-06-23T07:23:39.000Z</time>
      </trkpt>
      <trkpt lat="42.92046" lon="1.2142">
        <ele>982</ele>
        <time>2026-06-23T07:23:40.000Z</time>
      </trkpt>
      <trkpt lat="42.9204" lon="1.2143">
        <ele>982</ele>
        <time>2026-06-23T07:23:41.000Z</time>
      </trkpt>
      <trkpt lat="42.92034" lon="1.21441">
        <ele>982</ele>
        <time>2026-06-23T07:23:42.000Z</time>
      </trkpt>
      <trkpt lat="42.92028" lon="1.2145">
        <ele>982</ele>
        <time>2026-06-23T07:23:43.000Z</time>
      </trkpt>
      <trkpt lat="42.92022" lon="1.2146">
        <ele>982</ele>
        <time>2026-06-23T07:23:44.000Z</time>
      </trkpt>
      <trkpt lat="42.92018" lon="1.2147">
        <ele>982</ele>
        <time>2026-06-23T07:23:45.000Z</time>
      </trkpt>
      <trkpt lat="42.92012" lon="1.2148">
        <ele>981</ele>
        <time>2026-06-23T07:23:46.000Z</time>
      </trkpt>
      <trkpt lat="42.92007" lon="1.21491">
        <ele>981</ele>
        <time>2026-06-23T07:23:47.000Z</time>
      </trkpt>
      <trkpt lat="42.92002" lon="1.21502">
        <ele>981</ele>
        <time>2026-06-23T07:23:48.000Z</time>
      </trkpt>
      <trkpt lat="42.91997" lon="1.21515">
        <ele>980</ele>
        <time>2026-06-23T07:23:49.000Z</time>
      </trkpt>
      <trkpt lat="42.91992" lon="1.21526">
        <ele>980</ele>
        <time>2026-06-23T07:23:50.000Z</time>
      </trkpt>
      <trkpt lat="42.91987" lon="1.21537">
        <ele>980</ele>
        <time>2026-06-23T07:23:51.000Z</time>
      </trkpt>
      <trkpt lat="42.91983" lon="1.21549">
        <ele>979</ele>
        <time>2026-06-23T07:23:52.000Z</time>
      </trkpt>
      <trkpt lat="42.91978" lon="1.2156">
        <ele>980</ele>
        <time>2026-06-23T07:23:53.000Z</time>
      </trkpt>
      <trkpt lat="42.91972" lon="1.21571">
        <ele>979</ele>
        <time>2026-06-23T07:23:54.000Z</time>
      </trkpt>
      <trkpt lat="42.91967" lon="1.21583">
        <ele>979</ele>
        <time>2026-06-23T07:23:55.000Z</time>
      </trkpt>
      <trkpt lat="42.91961" lon="1.21594">
        <ele>978</ele>
        <time>2026-06-23T07:23:56.000Z</time>
      </trkpt>
      <trkpt lat="42.91955" lon="1.21605">
        <ele>977</ele>
        <time>2026-06-23T07:23:57.000Z</time>
      </trkpt>
      <trkpt lat="42.91949" lon="1.21617">
        <ele>977</ele>
        <time>2026-06-23T07:23:58.000Z</time>
      </trkpt>
      <trkpt lat="42.91943" lon="1.2163">
        <ele>975</ele>
        <time>2026-06-23T07:23:59.000Z</time>
      </trkpt>
      <trkpt lat="42.91937" lon="1.21642">
        <ele>974</ele>
        <time>2026-06-23T07:24:00.000Z</time>
      </trkpt>
      <trkpt lat="42.91931" lon="1.21654">
        <ele>973</ele>
        <time>2026-06-23T07:24:01.000Z</time>
      </trkpt>
      <trkpt lat="42.91925" lon="1.21665">
        <ele>971</ele>
        <time>2026-06-23T07:24:02.000Z</time>
      </trkpt>
      <trkpt lat="42.91919" lon="1.21676">
        <ele>968</ele>
        <time>2026-06-23T07:24:03.000Z</time>
      </trkpt>
      <trkpt lat="42.91912" lon="1.21686">
        <ele>967</ele>
        <time>2026-06-23T07:24:04.000Z</time>
      </trkpt>
      <trkpt lat="42.91905" lon="1.21694">
        <ele>966</ele>
        <time>2026-06-23T07:24:05.000Z</time>
      </trkpt>
      <trkpt lat="42.91897" lon="1.21704">
        <ele>964</ele>
        <time>2026-06-23T07:24:06.000Z</time>
      </trkpt>
      <trkpt lat="42.91891" lon="1.21713">
        <ele>963</ele>
        <time>2026-06-23T07:24:07.000Z</time>
      </trkpt>
      <trkpt lat="42.91884" lon="1.21723">
        <ele>961</ele>
        <time>2026-06-23T07:24:08.000Z</time>
      </trkpt>
      <trkpt lat="42.91877" lon="1.21733">
        <ele>960</ele>
        <time>2026-06-23T07:24:09.000Z</time>
      </trkpt>
      <trkpt lat="42.91869" lon="1.21743">
        <ele>959</ele>
        <time>2026-06-23T07:24:10.000Z</time>
      </trkpt>
      <trkpt lat="42.91861" lon="1.21751">
        <ele>958</ele>
        <time>2026-06-23T07:24:11.000Z</time>
      </trkpt>
      <trkpt lat="42.91854" lon="1.21761">
        <ele>958</ele>
        <time>2026-06-23T07:24:12.000Z</time>
      </trkpt>
      <trkpt lat="42.91847" lon="1.21771">
        <ele>957</ele>
        <time>2026-06-23T07:24:13.000Z</time>
      </trkpt>
      <trkpt lat="42.9184" lon="1.21781">
        <ele>956</ele>
        <time>2026-06-23T07:24:14.000Z</time>
      </trkpt>
      <trkpt lat="42.91834" lon="1.21792">
        <ele>954</ele>
        <time>2026-06-23T07:24:15.000Z</time>
      </trkpt>
      <trkpt lat="42.91827" lon="1.21803">
        <ele>953</ele>
        <time>2026-06-23T07:24:16.000Z</time>
      </trkpt>
      <trkpt lat="42.91821" lon="1.21814">
        <ele>952</ele>
        <time>2026-06-23T07:24:17.000Z</time>
      </trkpt>
      <trkpt lat="42.91816" lon="1.21825">
        <ele>951</ele>
        <time>2026-06-23T07:24:18.000Z</time>
      </trkpt>
      <trkpt lat="42.91813" lon="1.21835">
        <ele>951</ele>
        <time>2026-06-23T07:24:19.000Z</time>
      </trkpt>
      <trkpt lat="42.9181" lon="1.21845">
        <ele>951</ele>
        <time>2026-06-23T07:24:20.000Z</time>
      </trkpt>
      <trkpt lat="42.91809" lon="1.21853">
        <ele>951</ele>
        <time>2026-06-23T07:24:21.000Z</time>
      </trkpt>
      <trkpt lat="42.9181" lon="1.21859">
        <ele>950</ele>
        <time>2026-06-23T07:24:22.000Z</time>
      </trkpt>
      <trkpt lat="42.91812" lon="1.21865">
        <ele>950</ele>
        <time>2026-06-23T07:24:23.000Z</time>
      </trkpt>
      <trkpt lat="42.91815" lon="1.21869">
        <ele>951</ele>
        <time>2026-06-23T07:24:24.000Z</time>
      </trkpt>
      <trkpt lat="42.91817" lon="1.2187">
        <ele>951</ele>
        <time>2026-06-23T07:24:25.000Z</time>
      </trkpt>
      <trkpt lat="42.9182" lon="1.21872">
        <ele>951</ele>
        <time>2026-06-23T07:24:26.000Z</time>
      </trkpt>
      <trkpt lat="42.91823" lon="1.21874">
        <ele>951</ele>
        <time>2026-06-23T07:24:27.000Z</time>
      </trkpt>
      <trkpt lat="42.91826" lon="1.21875">
        <ele>951</ele>
        <time>2026-06-23T07:24:28.000Z</time>
      </trkpt>
      <trkpt lat="42.91829" lon="1.21876">
        <ele>951</ele>
        <time>2026-06-23T07:24:29.000Z</time>
      </trkpt>
      <trkpt lat="42.91833" lon="1.21877">
        <ele>951</ele>
        <time>2026-06-23T07:24:30.000Z</time>
      </trkpt>
      <trkpt lat="42.91835" lon="1.21877">
        <ele>951</ele>
        <time>2026-06-23T07:24:31.000Z</time>
      </trkpt>
      <trkpt lat="42.91839" lon="1.21878">
        <ele>951</ele>
        <time>2026-06-23T07:24:32.000Z</time>
      </trkpt>
      <trkpt lat="42.91841" lon="1.21879">
        <ele>950</ele>
        <time>2026-06-23T07:24:33.000Z</time>
      </trkpt>
      <trkpt lat="42.91844" lon="1.21879">
        <ele>950</ele>
        <time>2026-06-23T07:24:34.000Z</time>
      </trkpt>
      <trkpt lat="42.91847" lon="1.21879">
        <ele>951</ele>
        <time>2026-06-23T07:24:35.000Z</time>
      </trkpt>
      <trkpt lat="42.9185" lon="1.21878">
        <ele>950</ele>
        <time>2026-06-23T07:24:36.000Z</time>
      </trkpt>
      <trkpt lat="42.91853" lon="1.21878">
        <ele>950</ele>
        <time>2026-06-23T07:24:37.000Z</time>
      </trkpt>
      <trkpt lat="42.91855" lon="1.21877">
        <ele>950</ele>
        <time>2026-06-23T07:24:38.000Z</time>
      </trkpt>
      <trkpt lat="42.91858" lon="1.21878">
        <ele>950</ele>
        <time>2026-06-23T07:24:39.000Z</time>
      </trkpt>
      <trkpt lat="42.91861" lon="1.21878">
        <ele>950</ele>
        <time>2026-06-23T07:24:40.000Z</time>
      </trkpt>
      <trkpt lat="42.91863" lon="1.21879">
        <ele>950</ele>
        <time>2026-06-23T07:24:41.000Z</time>
      </trkpt>
      <trkpt lat="42.91865" lon="1.21879">
        <ele>950</ele>
        <time>2026-06-23T07:24:42.000Z</time>
      </trkpt>
      <trkpt lat="42.91868" lon="1.21879">
        <ele>950</ele>
        <time>2026-06-23T07:24:43.000Z</time>
      </trkpt>
      <trkpt lat="42.91871" lon="1.21879">
        <ele>950</ele>
        <time>2026-06-23T07:24:44.000Z</time>
      </trkpt>
      <trkpt lat="42.91873" lon="1.21879">
        <ele>950</ele>
        <time>2026-06-23T07:24:45.000Z</time>
      </trkpt>
      <trkpt lat="42.91875" lon="1.21879">
        <ele>950</ele>
        <time>2026-06-23T07:24:46.000Z</time>
      </trkpt>
      <trkpt lat="42.91878" lon="1.21879">
        <ele>951</ele>
        <time>2026-06-23T07:24:47.000Z</time>
      </trkpt>
      <trkpt lat="42.9188" lon="1.21879">
        <ele>951</ele>
        <time>2026-06-23T07:24:48.000Z</time>
      </trkpt>
      <trkpt lat="42.91883" lon="1.21878">
        <ele>951</ele>
        <time>2026-06-23T07:24:49.000Z</time>
      </trkpt>
      <trkpt lat="42.91887" lon="1.21878">
        <ele>951</ele>
        <time>2026-06-23T07:24:50.000Z</time>
      </trkpt>
      <trkpt lat="42.91889" lon="1.21878">
        <ele>951</ele>
        <time>2026-06-23T07:24:51.000Z</time>
      </trkpt>
      <trkpt lat="42.91891" lon="1.21879">
        <ele>951</ele>
        <time>2026-06-23T07:24:52.000Z</time>
      </trkpt>
      <trkpt lat="42.91894" lon="1.2188">
        <ele>951</ele>
        <time>2026-06-23T07:24:53.000Z</time>
      </trkpt>
      <trkpt lat="42.91897" lon="1.2188">
        <ele>951</ele>
        <time>2026-06-23T07:24:54.000Z</time>
      </trkpt>
      <trkpt lat="42.919" lon="1.2188">
        <ele>951</ele>
        <time>2026-06-23T07:24:55.000Z</time>
      </trkpt>
      <trkpt lat="42.91903" lon="1.2188">
        <ele>951</ele>
        <time>2026-06-23T07:24:56.000Z</time>
      </trkpt>
      <trkpt lat="42.91906" lon="1.2188">
        <ele>951</ele>
        <time>2026-06-23T07:24:57.000Z</time>
      </trkpt>
      <trkpt lat="42.91909" lon="1.2188">
        <ele>951</ele>
        <time>2026-06-23T07:24:58.000Z</time>
      </trkpt>
      <trkpt lat="42.91912" lon="1.21879">
        <ele>951</ele>
        <time>2026-06-23T07:24:59.000Z</time>
      </trkpt>
      <trkpt lat="42.91914" lon="1.21879">
        <ele>951</ele>
        <time>2026-06-23T07:25:00.000Z</time>
      </trkpt>
      <trkpt lat="42.91917" lon="1.21877">
        <ele>951</ele>
        <time>2026-06-23T07:25:01.000Z</time>
      </trkpt>
      <trkpt lat="42.9192" lon="1.21876">
        <ele>951</ele>
        <time>2026-06-23T07:25:02.000Z</time>
      </trkpt>
      <trkpt lat="42.91923" lon="1.21875">
        <ele>950</ele>
        <time>2026-06-23T07:25:03.000Z</time>
      </trkpt>
      <trkpt lat="42.91925" lon="1.21874">
        <ele>950</ele>
        <time>2026-06-23T07:25:04.000Z</time>
      </trkpt>
      <trkpt lat="42.91928" lon="1.21873">
        <ele>950</ele>
        <time>2026-06-23T07:25:05.000Z</time>
      </trkpt>
      <trkpt lat="42.91931" lon="1.21871">
        <ele>950</ele>
        <time>2026-06-23T07:25:06.000Z</time>
      </trkpt>
      <trkpt lat="42.91933" lon="1.2187">
        <ele>950</ele>
        <time>2026-06-23T07:25:07.000Z</time>
      </trkpt>
      <trkpt lat="42.91936" lon="1.21869">
        <ele>950</ele>
        <time>2026-06-23T07:25:08.000Z</time>
      </trkpt>
      <trkpt lat="42.91939" lon="1.21868">
        <ele>950</ele>
        <time>2026-06-23T07:25:09.000Z</time>
      </trkpt>
      <trkpt lat="42.91941" lon="1.21868">
        <ele>950</ele>
        <time>2026-06-23T07:25:10.000Z</time>
      </trkpt>
      <trkpt lat="42.91944" lon="1.21866">
        <ele>951</ele>
        <time>2026-06-23T07:25:11.000Z</time>
      </trkpt>
      <trkpt lat="42.91946" lon="1.21866">
        <ele>951</ele>
        <time>2026-06-23T07:25:12.000Z</time>
      </trkpt>
      <trkpt lat="42.91949" lon="1.21865">
        <ele>951</ele>
        <time>2026-06-23T07:25:13.000Z</time>
      </trkpt>
      <trkpt lat="42.91952" lon="1.21864">
        <ele>951</ele>
        <time>2026-06-23T07:25:14.000Z</time>
      </trkpt>
      <trkpt lat="42.91955" lon="1.21863">
        <ele>951</ele>
        <time>2026-06-23T07:25:15.000Z</time>
      </trkpt>
      <trkpt lat="42.91958" lon="1.21862">
        <ele>951</ele>
        <time>2026-06-23T07:25:16.000Z</time>
      </trkpt>
      <trkpt lat="42.91961" lon="1.21861">
        <ele>950</ele>
        <time>2026-06-23T07:25:17.000Z</time>
      </trkpt>
      <trkpt lat="42.91964" lon="1.21859">
        <ele>951</ele>
        <time>2026-06-23T07:25:18.000Z</time>
      </trkpt>
      <trkpt lat="42.91966" lon="1.21858">
        <ele>950</ele>
        <time>2026-06-23T07:25:19.000Z</time>
      </trkpt>
      <trkpt lat="42.91968" lon="1.21856">
        <ele>950</ele>
        <time>2026-06-23T07:25:20.000Z</time>
      </trkpt>
      <trkpt lat="42.91971" lon="1.21855">
        <ele>950</ele>
        <time>2026-06-23T07:25:21.000Z</time>
      </trkpt>
      <trkpt lat="42.91974" lon="1.21855">
        <ele>950</ele>
        <time>2026-06-23T07:25:22.000Z</time>
      </trkpt>
      <trkpt lat="42.91977" lon="1.21853">
        <ele>949</ele>
        <time>2026-06-23T07:25:23.000Z</time>
      </trkpt>
      <trkpt lat="42.9198" lon="1.21852">
        <ele>950</ele>
        <time>2026-06-23T07:25:24.000Z</time>
      </trkpt>
      <trkpt lat="42.91982" lon="1.21852">
        <ele>950</ele>
        <time>2026-06-23T07:25:25.000Z</time>
      </trkpt>
      <trkpt lat="42.91984" lon="1.21852">
        <ele>951</ele>
        <time>2026-06-23T07:25:26.000Z</time>
      </trkpt>
      <trkpt lat="42.91986" lon="1.21853">
        <ele>951</ele>
        <time>2026-06-23T07:25:27.000Z</time>
      </trkpt>
      <trkpt lat="42.91988" lon="1.21853">
        <ele>951</ele>
        <time>2026-06-23T07:25:28.000Z</time>
      </trkpt>
      <trkpt lat="42.91991" lon="1.21853">
        <ele>951</ele>
        <time>2026-06-23T07:25:29.000Z</time>
      </trkpt>
      <trkpt lat="42.91993" lon="1.21852">
        <ele>952</ele>
        <time>2026-06-23T07:25:30.000Z</time>
      </trkpt>
      <trkpt lat="42.91996" lon="1.21852">
        <ele>953</ele>
        <time>2026-06-23T07:25:31.000Z</time>
      </trkpt>
      <trkpt lat="42.91999" lon="1.2185">
        <ele>953</ele>
        <time>2026-06-23T07:25:32.000Z</time>
      </trkpt>
      <trkpt lat="42.92002" lon="1.21849">
        <ele>954</ele>
        <time>2026-06-23T07:25:33.000Z</time>
      </trkpt>
      <trkpt lat="42.92005" lon="1.21848">
        <ele>954</ele>
        <time>2026-06-23T07:25:34.000Z</time>
      </trkpt>
      <trkpt lat="42.92008" lon="1.21846">
        <ele>955</ele>
        <time>2026-06-23T07:25:35.000Z</time>
      </trkpt>
      <trkpt lat="42.92011" lon="1.21844">
        <ele>955</ele>
        <time>2026-06-23T07:25:36.000Z</time>
      </trkpt>
      <trkpt lat="42.92014" lon="1.21842">
        <ele>956</ele>
        <time>2026-06-23T07:25:37.000Z</time>
      </trkpt>
      <trkpt lat="42.92017" lon="1.21839">
        <ele>956</ele>
        <time>2026-06-23T07:25:38.000Z</time>
      </trkpt>
      <trkpt lat="42.9202" lon="1.21837">
        <ele>956</ele>
        <time>2026-06-23T07:25:39.000Z</time>
      </trkpt>
      <trkpt lat="42.92023" lon="1.21836">
        <ele>957</ele>
        <time>2026-06-23T07:25:40.000Z</time>
      </trkpt>
      <trkpt lat="42.92026" lon="1.21834">
        <ele>957</ele>
        <time>2026-06-23T07:25:41.000Z</time>
      </trkpt>
      <trkpt lat="42.92029" lon="1.21833">
        <ele>957</ele>
        <time>2026-06-23T07:25:42.000Z</time>
      </trkpt>
      <trkpt lat="42.92032" lon="1.21831">
        <ele>957</ele>
        <time>2026-06-23T07:25:43.000Z</time>
      </trkpt>
      <trkpt lat="42.92034" lon="1.21829">
        <ele>956</ele>
        <time>2026-06-23T07:25:44.000Z</time>
      </trkpt>
      <trkpt lat="42.92037" lon="1.21827">
        <ele>956</ele>
        <time>2026-06-23T07:25:45.000Z</time>
      </trkpt>
      <trkpt lat="42.92039" lon="1.21826">
        <ele>956</ele>
        <time>2026-06-23T07:25:46.000Z</time>
      </trkpt>
      <trkpt lat="42.92043" lon="1.21824">
        <ele>956</ele>
        <time>2026-06-23T07:25:47.000Z</time>
      </trkpt>
      <trkpt lat="42.92045" lon="1.21823">
        <ele>957</ele>
        <time>2026-06-23T07:25:48.000Z</time>
      </trkpt>
      <trkpt lat="42.92047" lon="1.21822">
        <ele>957</ele>
        <time>2026-06-23T07:25:49.000Z</time>
      </trkpt>
      <trkpt lat="42.9205" lon="1.21821">
        <ele>957</ele>
        <time>2026-06-23T07:25:50.000Z</time>
      </trkpt>
      <trkpt lat="42.92052" lon="1.2182">
        <ele>957</ele>
        <time>2026-06-23T07:25:51.000Z</time>
      </trkpt>
      <trkpt lat="42.92055" lon="1.2182">
        <ele>957</ele>
        <time>2026-06-23T07:25:52.000Z</time>
      </trkpt>
      <trkpt lat="42.92057" lon="1.2182">
        <ele>957</ele>
        <time>2026-06-23T07:25:53.000Z</time>
      </trkpt>
      <trkpt lat="42.9206" lon="1.2182">
        <ele>957</ele>
        <time>2026-06-23T07:25:54.000Z</time>
      </trkpt>
      <trkpt lat="42.92062" lon="1.2182">
        <ele>958</ele>
        <time>2026-06-23T07:25:55.000Z</time>
      </trkpt>
      <trkpt lat="42.92065" lon="1.21819">
        <ele>958</ele>
        <time>2026-06-23T07:25:56.000Z</time>
      </trkpt>
      <trkpt lat="42.92067" lon="1.21819">
        <ele>959</ele>
        <time>2026-06-23T07:25:57.000Z</time>
      </trkpt>
      <trkpt lat="42.92069" lon="1.21819">
        <ele>959</ele>
        <time>2026-06-23T07:25:58.000Z</time>
      </trkpt>
      <trkpt lat="42.92071" lon="1.21817">
        <ele>959</ele>
        <time>2026-06-23T07:25:59.000Z</time>
      </trkpt>
      <trkpt lat="42.92074" lon="1.21816">
        <ele>960</ele>
        <time>2026-06-23T07:26:00.000Z</time>
      </trkpt>
      <trkpt lat="42.92077" lon="1.21815">
        <ele>961</ele>
        <time>2026-06-23T07:26:01.000Z</time>
      </trkpt>
      <trkpt lat="42.92079" lon="1.21814">
        <ele>960</ele>
        <time>2026-06-23T07:26:02.000Z</time>
      </trkpt>
      <trkpt lat="42.92082" lon="1.21812">
        <ele>961</ele>
        <time>2026-06-23T07:26:03.000Z</time>
      </trkpt>
      <trkpt lat="42.92085" lon="1.21811">
        <ele>961</ele>
        <time>2026-06-23T07:26:04.000Z</time>
      </trkpt>
      <trkpt lat="42.92088" lon="1.2181">
        <ele>962</ele>
        <time>2026-06-23T07:26:05.000Z</time>
      </trkpt>
      <trkpt lat="42.92091" lon="1.21809">
        <ele>962</ele>
        <time>2026-06-23T07:26:06.000Z</time>
      </trkpt>
      <trkpt lat="42.92094" lon="1.21808">
        <ele>963</ele>
        <time>2026-06-23T07:26:07.000Z</time>
      </trkpt>
      <trkpt lat="42.92096" lon="1.21807">
        <ele>963</ele>
        <time>2026-06-23T07:26:08.000Z</time>
      </trkpt>
      <trkpt lat="42.92099" lon="1.21806">
        <ele>964</ele>
        <time>2026-06-23T07:26:09.000Z</time>
      </trkpt>
      <trkpt lat="42.92101" lon="1.21805">
        <ele>965</ele>
        <time>2026-06-23T07:26:10.000Z</time>
      </trkpt>
      <trkpt lat="42.92104" lon="1.21803">
        <ele>966</ele>
        <time>2026-06-23T07:26:11.000Z</time>
      </trkpt>
      <trkpt lat="42.92106" lon="1.21801">
        <ele>966</ele>
        <time>2026-06-23T07:26:12.000Z</time>
      </trkpt>
      <trkpt lat="42.92109" lon="1.21799">
        <ele>966</ele>
        <time>2026-06-23T07:26:13.000Z</time>
      </trkpt>
      <trkpt lat="42.92112" lon="1.21796">
        <ele>965</ele>
        <time>2026-06-23T07:26:14.000Z</time>
      </trkpt>
      <trkpt lat="42.92115" lon="1.21794">
        <ele>965</ele>
        <time>2026-06-23T07:26:15.000Z</time>
      </trkpt>
      <trkpt lat="42.92118" lon="1.21793">
        <ele>965</ele>
        <time>2026-06-23T07:26:16.000Z</time>
      </trkpt>
      <trkpt lat="42.92121" lon="1.21791">
        <ele>965</ele>
        <time>2026-06-23T07:26:17.000Z</time>
      </trkpt>
      <trkpt lat="42.92124" lon="1.21789">
        <ele>965</ele>
        <time>2026-06-23T07:26:18.000Z</time>
      </trkpt>
      <trkpt lat="42.92126" lon="1.21787">
        <ele>966</ele>
        <time>2026-06-23T07:26:19.000Z</time>
      </trkpt>
      <trkpt lat="42.92129" lon="1.21785">
        <ele>967</ele>
        <time>2026-06-23T07:26:20.000Z</time>
      </trkpt>
      <trkpt lat="42.92133" lon="1.21783">
        <ele>967</ele>
        <time>2026-06-23T07:26:21.000Z</time>
      </trkpt>
      <trkpt lat="42.92136" lon="1.2178">
        <ele>967</ele>
        <time>2026-06-23T07:26:22.000Z</time>
      </trkpt>
      <trkpt lat="42.9214" lon="1.21778">
        <ele>968</ele>
        <time>2026-06-23T07:26:23.000Z</time>
      </trkpt>
      <trkpt lat="42.92143" lon="1.21775">
        <ele>968</ele>
        <time>2026-06-23T07:26:24.000Z</time>
      </trkpt>
      <trkpt lat="42.92147" lon="1.21773">
        <ele>968</ele>
        <time>2026-06-23T07:26:25.000Z</time>
      </trkpt>
      <trkpt lat="42.92151" lon="1.21771">
        <ele>968</ele>
        <time>2026-06-23T07:26:26.000Z</time>
      </trkpt>
      <trkpt lat="42.92154" lon="1.21768">
        <ele>968</ele>
        <time>2026-06-23T07:26:27.000Z</time>
      </trkpt>
      <trkpt lat="42.92158" lon="1.21765">
        <ele>969</ele>
        <time>2026-06-23T07:26:28.000Z</time>
      </trkpt>
      <trkpt lat="42.92162" lon="1.21762">
        <ele>969</ele>
        <time>2026-06-23T07:26:29.000Z</time>
      </trkpt>
      <trkpt lat="42.92166" lon="1.21759">
        <ele>970</ele>
        <time>2026-06-23T07:26:30.000Z</time>
      </trkpt>
      <trkpt lat="42.92169" lon="1.21755">
        <ele>969</ele>
        <time>2026-06-23T07:26:31.000Z</time>
      </trkpt>
      <trkpt lat="42.92173" lon="1.21751">
        <ele>969</ele>
        <time>2026-06-23T07:26:32.000Z</time>
      </trkpt>
      <trkpt lat="42.92176" lon="1.21747">
        <ele>968</ele>
        <time>2026-06-23T07:26:33.000Z</time>
      </trkpt>
      <trkpt lat="42.92179" lon="1.21743">
        <ele>968</ele>
        <time>2026-06-23T07:26:34.000Z</time>
      </trkpt>
      <trkpt lat="42.92183" lon="1.2174">
        <ele>969</ele>
        <time>2026-06-23T07:26:35.000Z</time>
      </trkpt>
      <trkpt lat="42.92186" lon="1.21737">
        <ele>969</ele>
        <time>2026-06-23T07:26:36.000Z</time>
      </trkpt>
      <trkpt lat="42.92189" lon="1.21735">
        <ele>968</ele>
        <time>2026-06-23T07:26:37.000Z</time>
      </trkpt>
      <trkpt lat="42.92192" lon="1.21733">
        <ele>968</ele>
        <time>2026-06-23T07:26:38.000Z</time>
      </trkpt>
      <trkpt lat="42.92195" lon="1.21732">
        <ele>969</ele>
        <time>2026-06-23T07:26:39.000Z</time>
      </trkpt>
      <trkpt lat="42.92199" lon="1.2173">
        <ele>970</ele>
        <time>2026-06-23T07:26:40.000Z</time>
      </trkpt>
      <trkpt lat="42.92201" lon="1.2173">
        <ele>970</ele>
        <time>2026-06-23T07:26:41.000Z</time>
      </trkpt>
      <trkpt lat="42.92205" lon="1.2173">
        <ele>970</ele>
        <time>2026-06-23T07:26:42.000Z</time>
      </trkpt>
      <trkpt lat="42.92208" lon="1.2173">
        <ele>970</ele>
        <time>2026-06-23T07:26:43.000Z</time>
      </trkpt>
      <trkpt lat="42.92212" lon="1.21731">
        <ele>970</ele>
        <time>2026-06-23T07:26:44.000Z</time>
      </trkpt>
      <trkpt lat="42.92216" lon="1.21731">
        <ele>970</ele>
        <time>2026-06-23T07:26:45.000Z</time>
      </trkpt>
      <trkpt lat="42.9222" lon="1.2173">
        <ele>970</ele>
        <time>2026-06-23T07:26:46.000Z</time>
      </trkpt>
      <trkpt lat="42.92224" lon="1.2173">
        <ele>970</ele>
        <time>2026-06-23T07:26:47.000Z</time>
      </trkpt>
      <trkpt lat="42.92229" lon="1.21728">
        <ele>970</ele>
        <time>2026-06-23T07:26:48.000Z</time>
      </trkpt>
      <trkpt lat="42.92233" lon="1.21726">
        <ele>970</ele>
        <time>2026-06-23T07:26:49.000Z</time>
      </trkpt>
      <trkpt lat="42.92238" lon="1.21723">
        <ele>971</ele>
        <time>2026-06-23T07:26:50.000Z</time>
      </trkpt>
      <trkpt lat="42.92243" lon="1.21722">
        <ele>972</ele>
        <time>2026-06-23T07:26:51.000Z</time>
      </trkpt>
      <trkpt lat="42.92247" lon="1.21721">
        <ele>972</ele>
        <time>2026-06-23T07:26:52.000Z</time>
      </trkpt>
      <trkpt lat="42.92251" lon="1.2172">
        <ele>972</ele>
        <time>2026-06-23T07:26:53.000Z</time>
      </trkpt>
      <trkpt lat="42.92255" lon="1.2172">
        <ele>972</ele>
        <time>2026-06-23T07:26:54.000Z</time>
      </trkpt>
      <trkpt lat="42.92264" lon="1.21718">
        <ele>973</ele>
        <time>2026-06-23T07:26:55.000Z</time>
      </trkpt>
      <trkpt lat="42.92269" lon="1.21717">
        <ele>974</ele>
        <time>2026-06-23T07:26:56.000Z</time>
      </trkpt>
      <trkpt lat="42.92273" lon="1.21716">
        <ele>975</ele>
        <time>2026-06-23T07:26:57.000Z</time>
      </trkpt>
      <trkpt lat="42.92278" lon="1.21715">
        <ele>976</ele>
        <time>2026-06-23T07:26:58.000Z</time>
      </trkpt>
      <trkpt lat="42.92282" lon="1.21713">
        <ele>976</ele>
        <time>2026-06-23T07:26:59.000Z</time>
      </trkpt>
      <trkpt lat="42.92287" lon="1.21711">
        <ele>977</ele>
        <time>2026-06-23T07:27:00.000Z</time>
      </trkpt>
      <trkpt lat="42.92292" lon="1.21708">
        <ele>977</ele>
        <time>2026-06-23T07:27:01.000Z</time>
      </trkpt>
      <trkpt lat="42.92297" lon="1.21705">
        <ele>977</ele>
        <time>2026-06-23T07:27:02.000Z</time>
      </trkpt>
      <trkpt lat="42.92304" lon="1.21702">
        <ele>977</ele>
        <time>2026-06-23T07:27:03.000Z</time>
      </trkpt>
      <trkpt lat="42.9231" lon="1.21699">
        <ele>975</ele>
        <time>2026-06-23T07:27:04.000Z</time>
      </trkpt>
      <trkpt lat="42.92315" lon="1.21695">
        <ele>975</ele>
        <time>2026-06-23T07:27:05.000Z</time>
      </trkpt>
      <trkpt lat="42.9232" lon="1.21693">
        <ele>975</ele>
        <time>2026-06-23T07:27:06.000Z</time>
      </trkpt>
      <trkpt lat="42.92325" lon="1.2169">
        <ele>974</ele>
        <time>2026-06-23T07:27:07.000Z</time>
      </trkpt>
      <trkpt lat="42.9233" lon="1.21688">
        <ele>974</ele>
        <time>2026-06-23T07:27:08.000Z</time>
      </trkpt>
      <trkpt lat="42.92334" lon="1.21686">
        <ele>973</ele>
        <time>2026-06-23T07:27:09.000Z</time>
      </trkpt>
      <trkpt lat="42.92339" lon="1.21684">
        <ele>974</ele>
        <time>2026-06-23T07:27:10.000Z</time>
      </trkpt>
      <trkpt lat="42.92344" lon="1.21683">
        <ele>974</ele>
        <time>2026-06-23T07:27:11.000Z</time>
      </trkpt>
      <trkpt lat="42.92349" lon="1.21682">
        <ele>974</ele>
        <time>2026-06-23T07:27:12.000Z</time>
      </trkpt>
      <trkpt lat="42.92353" lon="1.2168">
        <ele>973</ele>
        <time>2026-06-23T07:27:13.000Z</time>
      </trkpt>
      <trkpt lat="42.92357" lon="1.21678">
        <ele>974</ele>
        <time>2026-06-23T07:27:14.000Z</time>
      </trkpt>
      <trkpt lat="42.9236" lon="1.21677">
        <ele>974</ele>
        <time>2026-06-23T07:27:15.000Z</time>
      </trkpt>
      <trkpt lat="42.92364" lon="1.21676">
        <ele>974</ele>
        <time>2026-06-23T07:27:16.000Z</time>
      </trkpt>
      <trkpt lat="42.92368" lon="1.21675">
        <ele>974</ele>
        <time>2026-06-23T07:27:17.000Z</time>
      </trkpt>
      <trkpt lat="42.92371" lon="1.21673">
        <ele>974</ele>
        <time>2026-06-23T07:27:18.000Z</time>
      </trkpt>
      <trkpt lat="42.92374" lon="1.21671">
        <ele>974</ele>
        <time>2026-06-23T07:27:19.000Z</time>
      </trkpt>
      <trkpt lat="42.92378" lon="1.21669">
        <ele>974</ele>
        <time>2026-06-23T07:27:20.000Z</time>
      </trkpt>
      <trkpt lat="42.92383" lon="1.21666">
        <ele>975</ele>
        <time>2026-06-23T07:27:21.000Z</time>
      </trkpt>
      <trkpt lat="42.92386" lon="1.21663">
        <ele>975</ele>
        <time>2026-06-23T07:27:22.000Z</time>
      </trkpt>
      <trkpt lat="42.9239" lon="1.21662">
        <ele>975</ele>
        <time>2026-06-23T07:27:23.000Z</time>
      </trkpt>
      <trkpt lat="42.92394" lon="1.2166">
        <ele>976</ele>
        <time>2026-06-23T07:27:24.000Z</time>
      </trkpt>
      <trkpt lat="42.92397" lon="1.21658">
        <ele>976</ele>
        <time>2026-06-23T07:27:25.000Z</time>
      </trkpt>
      <trkpt lat="42.92401" lon="1.21656">
        <ele>976</ele>
        <time>2026-06-23T07:27:26.000Z</time>
      </trkpt>
      <trkpt lat="42.92404" lon="1.21654">
        <ele>976</ele>
        <time>2026-06-23T07:27:27.000Z</time>
      </trkpt>
      <trkpt lat="42.92407" lon="1.21652">
        <ele>976</ele>
        <time>2026-06-23T07:27:28.000Z</time>
      </trkpt>
      <trkpt lat="42.92411" lon="1.2165">
        <ele>976</ele>
        <time>2026-06-23T07:27:29.000Z</time>
      </trkpt>
      <trkpt lat="42.92414" lon="1.21648">
        <ele>976</ele>
        <time>2026-06-23T07:27:30.000Z</time>
      </trkpt>
      <trkpt lat="42.92418" lon="1.21645">
        <ele>977</ele>
        <time>2026-06-23T07:27:31.000Z</time>
      </trkpt>
      <trkpt lat="42.92421" lon="1.21642">
        <ele>977</ele>
        <time>2026-06-23T07:27:32.000Z</time>
      </trkpt>
      <trkpt lat="42.92425" lon="1.21639">
        <ele>977</ele>
        <time>2026-06-23T07:27:33.000Z</time>
      </trkpt>
      <trkpt lat="42.92428" lon="1.21636">
        <ele>977</ele>
        <time>2026-06-23T07:27:34.000Z</time>
      </trkpt>
      <trkpt lat="42.92432" lon="1.21634">
        <ele>977</ele>
        <time>2026-06-23T07:27:35.000Z</time>
      </trkpt>
      <trkpt lat="42.92436" lon="1.21631">
        <ele>977</ele>
        <time>2026-06-23T07:27:36.000Z</time>
      </trkpt>
      <trkpt lat="42.92441" lon="1.21628">
        <ele>978</ele>
        <time>2026-06-23T07:27:37.000Z</time>
      </trkpt>
      <trkpt lat="42.92445" lon="1.21625">
        <ele>978</ele>
        <time>2026-06-23T07:27:38.000Z</time>
      </trkpt>
      <trkpt lat="42.92449" lon="1.21622">
        <ele>979</ele>
        <time>2026-06-23T07:27:39.000Z</time>
      </trkpt>
      <trkpt lat="42.92452" lon="1.21619">
        <ele>979</ele>
        <time>2026-06-23T07:27:40.000Z</time>
      </trkpt>
      <trkpt lat="42.92455" lon="1.21617">
        <ele>979</ele>
        <time>2026-06-23T07:27:41.000Z</time>
      </trkpt>
      <trkpt lat="42.92458" lon="1.21615">
        <ele>979</ele>
        <time>2026-06-23T07:27:42.000Z</time>
      </trkpt>
      <trkpt lat="42.92461" lon="1.21613">
        <ele>979</ele>
        <time>2026-06-23T07:27:43.000Z</time>
      </trkpt>
      <trkpt lat="42.92464" lon="1.2161">
        <ele>979</ele>
        <time>2026-06-23T07:27:44.000Z</time>
      </trkpt>
      <trkpt lat="42.92467" lon="1.21607">
        <ele>979</ele>
        <time>2026-06-23T07:27:45.000Z</time>
      </trkpt>
      <trkpt lat="42.92469" lon="1.21606">
        <ele>979</ele>
        <time>2026-06-23T07:27:46.000Z</time>
      </trkpt>
      <trkpt lat="42.92472" lon="1.21606">
        <ele>980</ele>
        <time>2026-06-23T07:27:47.000Z</time>
      </trkpt>
      <trkpt lat="42.92474" lon="1.21606">
        <ele>980</ele>
        <time>2026-06-23T07:27:48.000Z</time>
      </trkpt>
      <trkpt lat="42.92478" lon="1.21605">
        <ele>980</ele>
        <time>2026-06-23T07:27:49.000Z</time>
      </trkpt>
      <trkpt lat="42.92481" lon="1.21605">
        <ele>980</ele>
        <time>2026-06-23T07:27:50.000Z</time>
      </trkpt>
      <trkpt lat="42.92484" lon="1.21607">
        <ele>980</ele>
        <time>2026-06-23T07:27:51.000Z</time>
      </trkpt>
      <trkpt lat="42.92487" lon="1.21608">
        <ele>980</ele>
        <time>2026-06-23T07:27:52.000Z</time>
      </trkpt>
      <trkpt lat="42.9249" lon="1.21608">
        <ele>980</ele>
        <time>2026-06-23T07:27:53.000Z</time>
      </trkpt>
      <trkpt lat="42.92493" lon="1.21608">
        <ele>980</ele>
        <time>2026-06-23T07:27:54.000Z</time>
      </trkpt>
      <trkpt lat="42.92496" lon="1.21609">
        <ele>980</ele>
        <time>2026-06-23T07:27:55.000Z</time>
      </trkpt>
      <trkpt lat="42.925" lon="1.21611">
        <ele>980</ele>
        <time>2026-06-23T07:27:56.000Z</time>
      </trkpt>
      <trkpt lat="42.92504" lon="1.21611">
        <ele>980</ele>
        <time>2026-06-23T07:27:57.000Z</time>
      </trkpt>
      <trkpt lat="42.92507" lon="1.21613">
        <ele>980</ele>
        <time>2026-06-23T07:27:58.000Z</time>
      </trkpt>
      <trkpt lat="42.92511" lon="1.21615">
        <ele>980</ele>
        <time>2026-06-23T07:27:59.000Z</time>
      </trkpt>
      <trkpt lat="42.92514" lon="1.21617">
        <ele>980</ele>
        <time>2026-06-23T07:28:00.000Z</time>
      </trkpt>
      <trkpt lat="42.92518" lon="1.21619">
        <ele>980</ele>
        <time>2026-06-23T07:28:01.000Z</time>
      </trkpt>
      <trkpt lat="42.92521" lon="1.2162">
        <ele>980</ele>
        <time>2026-06-23T07:28:02.000Z</time>
      </trkpt>
      <trkpt lat="42.92524" lon="1.21621">
        <ele>980</ele>
        <time>2026-06-23T07:28:03.000Z</time>
      </trkpt>
      <trkpt lat="42.92527" lon="1.2162">
        <ele>980</ele>
        <time>2026-06-23T07:28:04.000Z</time>
      </trkpt>
      <trkpt lat="42.92529" lon="1.21621">
        <ele>980</ele>
        <time>2026-06-23T07:28:05.000Z</time>
      </trkpt>
      <trkpt lat="42.92532" lon="1.21621">
        <ele>979</ele>
        <time>2026-06-23T07:28:06.000Z</time>
      </trkpt>
      <trkpt lat="42.92535" lon="1.21621">
        <ele>979</ele>
        <time>2026-06-23T07:28:07.000Z</time>
      </trkpt>
      <trkpt lat="42.92537" lon="1.21622">
        <ele>979</ele>
        <time>2026-06-23T07:28:08.000Z</time>
      </trkpt>
      <trkpt lat="42.9254" lon="1.21621">
        <ele>979</ele>
        <time>2026-06-23T07:28:09.000Z</time>
      </trkpt>
      <trkpt lat="42.92544" lon="1.21621">
        <ele>979</ele>
        <time>2026-06-23T07:28:10.000Z</time>
      </trkpt>
      <trkpt lat="42.92548" lon="1.21621">
        <ele>979</ele>
        <time>2026-06-23T07:28:11.000Z</time>
      </trkpt>
      <trkpt lat="42.92551" lon="1.21619">
        <ele>979</ele>
        <time>2026-06-23T07:28:12.000Z</time>
      </trkpt>
      <trkpt lat="42.92554" lon="1.21618">
        <ele>978</ele>
        <time>2026-06-23T07:28:13.000Z</time>
      </trkpt>
      <trkpt lat="42.92557" lon="1.21618">
        <ele>978</ele>
        <time>2026-06-23T07:28:14.000Z</time>
      </trkpt>
      <trkpt lat="42.92559" lon="1.21617">
        <ele>978</ele>
        <time>2026-06-23T07:28:15.000Z</time>
      </trkpt>
      <trkpt lat="42.92563" lon="1.21615">
        <ele>977</ele>
        <time>2026-06-23T07:28:16.000Z</time>
      </trkpt>
      <trkpt lat="42.92566" lon="1.21614">
        <ele>977</ele>
        <time>2026-06-23T07:28:17.000Z</time>
      </trkpt>
      <trkpt lat="42.92569" lon="1.21612">
        <ele>977</ele>
        <time>2026-06-23T07:28:18.000Z</time>
      </trkpt>
      <trkpt lat="42.92572" lon="1.21609">
        <ele>977</ele>
        <time>2026-06-23T07:28:19.000Z</time>
      </trkpt>
      <trkpt lat="42.92575" lon="1.21607">
        <ele>977</ele>
        <time>2026-06-23T07:28:20.000Z</time>
      </trkpt>
      <trkpt lat="42.92578" lon="1.21605">
        <ele>977</ele>
        <time>2026-06-23T07:28:21.000Z</time>
      </trkpt>
      <trkpt lat="42.92581" lon="1.21604">
        <ele>977</ele>
        <time>2026-06-23T07:28:22.000Z</time>
      </trkpt>
      <trkpt lat="42.92584" lon="1.21603">
        <ele>977</ele>
        <time>2026-06-23T07:28:23.000Z</time>
      </trkpt>
      <trkpt lat="42.92587" lon="1.21602">
        <ele>977</ele>
        <time>2026-06-23T07:28:24.000Z</time>
      </trkpt>
      <trkpt lat="42.9259" lon="1.216">
        <ele>976</ele>
        <time>2026-06-23T07:28:25.000Z</time>
      </trkpt>
      <trkpt lat="42.92593" lon="1.21597">
        <ele>976</ele>
        <time>2026-06-23T07:28:26.000Z</time>
      </trkpt>
      <trkpt lat="42.92596" lon="1.21595">
        <ele>976</ele>
        <time>2026-06-23T07:28:27.000Z</time>
      </trkpt>
      <trkpt lat="42.92599" lon="1.21592">
        <ele>976</ele>
        <time>2026-06-23T07:28:28.000Z</time>
      </trkpt>
      <trkpt lat="42.92602" lon="1.2159">
        <ele>976</ele>
        <time>2026-06-23T07:28:29.000Z</time>
      </trkpt>
      <trkpt lat="42.92605" lon="1.21587">
        <ele>977</ele>
        <time>2026-06-23T07:28:30.000Z</time>
      </trkpt>
      <trkpt lat="42.92608" lon="1.21585">
        <ele>977</ele>
        <time>2026-06-23T07:28:31.000Z</time>
      </trkpt>
      <trkpt lat="42.92612" lon="1.21582">
        <ele>977</ele>
        <time>2026-06-23T07:28:32.000Z</time>
      </trkpt>
      <trkpt lat="42.92615" lon="1.2158">
        <ele>977</ele>
        <time>2026-06-23T07:28:33.000Z</time>
      </trkpt>
      <trkpt lat="42.92619" lon="1.21577">
        <ele>977</ele>
        <time>2026-06-23T07:28:34.000Z</time>
      </trkpt>
      <trkpt lat="42.92621" lon="1.21574">
        <ele>977</ele>
        <time>2026-06-23T07:28:35.000Z</time>
      </trkpt>
      <trkpt lat="42.92625" lon="1.21571">
        <ele>977</ele>
        <time>2026-06-23T07:28:36.000Z</time>
      </trkpt>
      <trkpt lat="42.92628" lon="1.21569">
        <ele>977</ele>
        <time>2026-06-23T07:28:37.000Z</time>
      </trkpt>
      <trkpt lat="42.92632" lon="1.21566">
        <ele>977</ele>
        <time>2026-06-23T07:28:38.000Z</time>
      </trkpt>
      <trkpt lat="42.92635" lon="1.21563">
        <ele>977</ele>
        <time>2026-06-23T07:28:39.000Z</time>
      </trkpt>
      <trkpt lat="42.9264" lon="1.21558">
        <ele>976</ele>
        <time>2026-06-23T07:28:40.000Z</time>
      </trkpt>
      <trkpt lat="42.92645" lon="1.21553">
        <ele>976</ele>
        <time>2026-06-23T07:28:41.000Z</time>
      </trkpt>
      <trkpt lat="42.9265" lon="1.21549">
        <ele>977</ele>
        <time>2026-06-23T07:28:42.000Z</time>
      </trkpt>
      <trkpt lat="42.92653" lon="1.21545">
        <ele>976</ele>
        <time>2026-06-23T07:28:43.000Z</time>
      </trkpt>
      <trkpt lat="42.92657" lon="1.21543">
        <ele>977</ele>
        <time>2026-06-23T07:28:44.000Z</time>
      </trkpt>
      <trkpt lat="42.92661" lon="1.2154">
        <ele>977</ele>
        <time>2026-06-23T07:28:45.000Z</time>
      </trkpt>
      <trkpt lat="42.92664" lon="1.21536">
        <ele>977</ele>
        <time>2026-06-23T07:28:46.000Z</time>
      </trkpt>
      <trkpt lat="42.92669" lon="1.21532">
        <ele>977</ele>
        <time>2026-06-23T07:28:47.000Z</time>
      </trkpt>
      <trkpt lat="42.92675" lon="1.21528">
        <ele>979</ele>
        <time>2026-06-23T07:28:48.000Z</time>
      </trkpt>
      <trkpt lat="42.92681" lon="1.21524">
        <ele>978</ele>
        <time>2026-06-23T07:28:49.000Z</time>
      </trkpt>
      <trkpt lat="42.92686" lon="1.21519">
        <ele>977</ele>
        <time>2026-06-23T07:28:50.000Z</time>
      </trkpt>
      <trkpt lat="42.92692" lon="1.21515">
        <ele>978</ele>
        <time>2026-06-23T07:28:51.000Z</time>
      </trkpt>
      <trkpt lat="42.92697" lon="1.2151">
        <ele>977</ele>
        <time>2026-06-23T07:28:52.000Z</time>
      </trkpt>
      <trkpt lat="42.92703" lon="1.21505">
        <ele>976</ele>
        <time>2026-06-23T07:28:53.000Z</time>
      </trkpt>
      <trkpt lat="42.92708" lon="1.21499">
        <ele>976</ele>
        <time>2026-06-23T07:28:54.000Z</time>
      </trkpt>
      <trkpt lat="42.92714" lon="1.21493">
        <ele>976</ele>
        <time>2026-06-23T07:28:55.000Z</time>
      </trkpt>
      <trkpt lat="42.92721" lon="1.21488">
        <ele>975</ele>
        <time>2026-06-23T07:28:56.000Z</time>
      </trkpt>
      <trkpt lat="42.9273" lon="1.21484">
        <ele>976</ele>
        <time>2026-06-23T07:28:57.000Z</time>
      </trkpt>
      <trkpt lat="42.92738" lon="1.2148">
        <ele>976</ele>
        <time>2026-06-23T07:28:58.000Z</time>
      </trkpt>
      <trkpt lat="42.92745" lon="1.21477">
        <ele>977</ele>
        <time>2026-06-23T07:28:59.000Z</time>
      </trkpt>
      <trkpt lat="42.92752" lon="1.21474">
        <ele>978</ele>
        <time>2026-06-23T07:29:00.000Z</time>
      </trkpt>
      <trkpt lat="42.92758" lon="1.21472">
        <ele>978</ele>
        <time>2026-06-23T07:29:01.000Z</time>
      </trkpt>
      <trkpt lat="42.92763" lon="1.2147">
        <ele>979</ele>
        <time>2026-06-23T07:29:02.000Z</time>
      </trkpt>
      <trkpt lat="42.92768" lon="1.21468">
        <ele>979</ele>
        <time>2026-06-23T07:29:03.000Z</time>
      </trkpt>
      <trkpt lat="42.92773" lon="1.21466">
        <ele>979</ele>
        <time>2026-06-23T07:29:04.000Z</time>
      </trkpt>
      <trkpt lat="42.92777" lon="1.21465">
        <ele>979</ele>
        <time>2026-06-23T07:29:05.000Z</time>
      </trkpt>
      <trkpt lat="42.92783" lon="1.21463">
        <ele>980</ele>
        <time>2026-06-23T07:29:06.000Z</time>
      </trkpt>
      <trkpt lat="42.92786" lon="1.21462">
        <ele>979</ele>
        <time>2026-06-23T07:29:07.000Z</time>
      </trkpt>
      <trkpt lat="42.9279" lon="1.21463">
        <ele>979</ele>
        <time>2026-06-23T07:29:08.000Z</time>
      </trkpt>
      <trkpt lat="42.92794" lon="1.21463">
        <ele>979</ele>
        <time>2026-06-23T07:29:09.000Z</time>
      </trkpt>
      <trkpt lat="42.928" lon="1.21464">
        <ele>980</ele>
        <time>2026-06-23T07:29:10.000Z</time>
      </trkpt>
      <trkpt lat="42.92806" lon="1.21465">
        <ele>981</ele>
        <time>2026-06-23T07:29:11.000Z</time>
      </trkpt>
      <trkpt lat="42.92813" lon="1.21467">
        <ele>981</ele>
        <time>2026-06-23T07:29:12.000Z</time>
      </trkpt>
      <trkpt lat="42.92818" lon="1.2147">
        <ele>981</ele>
        <time>2026-06-23T07:29:13.000Z</time>
      </trkpt>
      <trkpt lat="42.92824" lon="1.21472">
        <ele>982</ele>
        <time>2026-06-23T07:29:14.000Z</time>
      </trkpt>
      <trkpt lat="42.92828" lon="1.21476">
        <ele>981</ele>
        <time>2026-06-23T07:29:15.000Z</time>
      </trkpt>
      <trkpt lat="42.92829" lon="1.21479">
        <ele>981</ele>
        <time>2026-06-23T07:29:16.000Z</time>
      </trkpt>
      <trkpt lat="42.92831" lon="1.21485">
        <ele>981</ele>
        <time>2026-06-23T07:29:17.000Z</time>
      </trkpt>
      <trkpt lat="42.9283" lon="1.2149">
        <ele>981</ele>
        <time>2026-06-23T07:29:18.000Z</time>
      </trkpt>
      <trkpt lat="42.92831" lon="1.21496">
        <ele>981</ele>
        <time>2026-06-23T07:29:19.000Z</time>
      </trkpt>
      <trkpt lat="42.92832" lon="1.21502">
        <ele>981</ele>
        <time>2026-06-23T07:29:20.000Z</time>
      </trkpt>
      <trkpt lat="42.92835" lon="1.21509">
        <ele>981</ele>
        <time>2026-06-23T07:29:21.000Z</time>
      </trkpt>
      <trkpt lat="42.92837" lon="1.21517">
        <ele>981</ele>
        <time>2026-06-23T07:29:22.000Z</time>
      </trkpt>
      <trkpt lat="42.9284" lon="1.21526">
        <ele>981</ele>
        <time>2026-06-23T07:29:23.000Z</time>
      </trkpt>
      <trkpt lat="42.92843" lon="1.21533">
        <ele>981</ele>
        <time>2026-06-23T07:29:24.000Z</time>
      </trkpt>
      <trkpt lat="42.92847" lon="1.2154">
        <ele>980</ele>
        <time>2026-06-23T07:29:25.000Z</time>
      </trkpt>
      <trkpt lat="42.92851" lon="1.21546">
        <ele>980</ele>
        <time>2026-06-23T07:29:26.000Z</time>
      </trkpt>
      <trkpt lat="42.92857" lon="1.21552">
        <ele>980</ele>
        <time>2026-06-23T07:29:27.000Z</time>
      </trkpt>
      <trkpt lat="42.92862" lon="1.21558">
        <ele>980</ele>
        <time>2026-06-23T07:29:28.000Z</time>
      </trkpt>
      <trkpt lat="42.92868" lon="1.21563">
        <ele>980</ele>
        <time>2026-06-23T07:29:29.000Z</time>
      </trkpt>
      <trkpt lat="42.92873" lon="1.21567">
        <ele>979</ele>
        <time>2026-06-23T07:29:30.000Z</time>
      </trkpt>
      <trkpt lat="42.92879" lon="1.21572">
        <ele>979</ele>
        <time>2026-06-23T07:29:31.000Z</time>
      </trkpt>
      <trkpt lat="42.92884" lon="1.21576">
        <ele>978</ele>
        <time>2026-06-23T07:29:32.000Z</time>
      </trkpt>
      <trkpt lat="42.9289" lon="1.2158">
        <ele>977</ele>
        <time>2026-06-23T07:29:33.000Z</time>
      </trkpt>
      <trkpt lat="42.92896" lon="1.21585">
        <ele>977</ele>
        <time>2026-06-23T07:29:34.000Z</time>
      </trkpt>
      <trkpt lat="42.92902" lon="1.21589">
        <ele>977</ele>
        <time>2026-06-23T07:29:35.000Z</time>
      </trkpt>
      <trkpt lat="42.92908" lon="1.21592">
        <ele>976</ele>
        <time>2026-06-23T07:29:36.000Z</time>
      </trkpt>
      <trkpt lat="42.92915" lon="1.21595">
        <ele>976</ele>
        <time>2026-06-23T07:29:37.000Z</time>
      </trkpt>
      <trkpt lat="42.92921" lon="1.21598">
        <ele>976</ele>
        <time>2026-06-23T07:29:38.000Z</time>
      </trkpt>
      <trkpt lat="42.92927" lon="1.21601">
        <ele>976</ele>
        <time>2026-06-23T07:29:39.000Z</time>
      </trkpt>
      <trkpt lat="42.92934" lon="1.21604">
        <ele>975</ele>
        <time>2026-06-23T07:29:40.000Z</time>
      </trkpt>
      <trkpt lat="42.9294" lon="1.21605">
        <ele>975</ele>
        <time>2026-06-23T07:29:41.000Z</time>
      </trkpt>
      <trkpt lat="42.92946" lon="1.21605">
        <ele>975</ele>
        <time>2026-06-23T07:29:42.000Z</time>
      </trkpt>
      <trkpt lat="42.92952" lon="1.21606">
        <ele>975</ele>
        <time>2026-06-23T07:29:43.000Z</time>
      </trkpt>
      <trkpt lat="42.92957" lon="1.21606">
        <ele>975</ele>
        <time>2026-06-23T07:29:44.000Z</time>
      </trkpt>
      <trkpt lat="42.92963" lon="1.21606">
        <ele>975</ele>
        <time>2026-06-23T07:29:45.000Z</time>
      </trkpt>
      <trkpt lat="42.92969" lon="1.21605">
        <ele>975</ele>
        <time>2026-06-23T07:29:46.000Z</time>
      </trkpt>
      <trkpt lat="42.92975" lon="1.21603">
        <ele>975</ele>
        <time>2026-06-23T07:29:47.000Z</time>
      </trkpt>
      <trkpt lat="42.9298" lon="1.21601">
        <ele>975</ele>
        <time>2026-06-23T07:29:48.000Z</time>
      </trkpt>
      <trkpt lat="42.92984" lon="1.21599">
        <ele>975</ele>
        <time>2026-06-23T07:29:49.000Z</time>
      </trkpt>
      <trkpt lat="42.92988" lon="1.21596">
        <ele>975</ele>
        <time>2026-06-23T07:29:50.000Z</time>
      </trkpt>
      <trkpt lat="42.92992" lon="1.21593">
        <ele>975</ele>
        <time>2026-06-23T07:29:51.000Z</time>
      </trkpt>
      <trkpt lat="42.92997" lon="1.2159">
        <ele>975</ele>
        <time>2026-06-23T07:29:52.000Z</time>
      </trkpt>
      <trkpt lat="42.93002" lon="1.21588">
        <ele>975</ele>
        <time>2026-06-23T07:29:53.000Z</time>
      </trkpt>
      <trkpt lat="42.93007" lon="1.21586">
        <ele>975</ele>
        <time>2026-06-23T07:29:54.000Z</time>
      </trkpt>
      <trkpt lat="42.93011" lon="1.21584">
        <ele>975</ele>
        <time>2026-06-23T07:29:55.000Z</time>
      </trkpt>
      <trkpt lat="42.93015" lon="1.21582">
        <ele>976</ele>
        <time>2026-06-23T07:29:56.000Z</time>
      </trkpt>
      <trkpt lat="42.93018" lon="1.21582">
        <ele>975</ele>
        <time>2026-06-23T07:29:57.000Z</time>
      </trkpt>
      <trkpt lat="42.93021" lon="1.21583">
        <ele>975</ele>
        <time>2026-06-23T07:29:58.000Z</time>
      </trkpt>
      <trkpt lat="42.93023" lon="1.21586">
        <ele>975</ele>
        <time>2026-06-23T07:29:59.000Z</time>
      </trkpt>
      <trkpt lat="42.93024" lon="1.21591">
        <ele>976</ele>
        <time>2026-06-23T07:30:00.000Z</time>
      </trkpt>
      <trkpt lat="42.93025" lon="1.21597">
        <ele>976</ele>
        <time>2026-06-23T07:30:01.000Z</time>
      </trkpt>
      <trkpt lat="42.93026" lon="1.21602">
        <ele>976</ele>
        <time>2026-06-23T07:30:02.000Z</time>
      </trkpt>
      <trkpt lat="42.93026" lon="1.21608">
        <ele>976</ele>
        <time>2026-06-23T07:30:03.000Z</time>
      </trkpt>
      <trkpt lat="42.93022" lon="1.21615">
        <ele>976</ele>
        <time>2026-06-23T07:30:04.000Z</time>
      </trkpt>
      <trkpt lat="42.93021" lon="1.21623">
        <ele>977</ele>
        <time>2026-06-23T07:30:05.000Z</time>
      </trkpt>
      <trkpt lat="42.93019" lon="1.21629">
        <ele>978</ele>
        <time>2026-06-23T07:30:06.000Z</time>
      </trkpt>
      <trkpt lat="42.93016" lon="1.21635">
        <ele>979</ele>
        <time>2026-06-23T07:30:07.000Z</time>
      </trkpt>
      <trkpt lat="42.93013" lon="1.21641">
        <ele>980</ele>
        <time>2026-06-23T07:30:08.000Z</time>
      </trkpt>
      <trkpt lat="42.93011" lon="1.21647">
        <ele>981</ele>
        <time>2026-06-23T07:30:09.000Z</time>
      </trkpt>
      <trkpt lat="42.9301" lon="1.21654">
        <ele>982</ele>
        <time>2026-06-23T07:30:10.000Z</time>
      </trkpt>
      <trkpt lat="42.93011" lon="1.21661">
        <ele>982</ele>
        <time>2026-06-23T07:30:11.000Z</time>
      </trkpt>
      <trkpt lat="42.93012" lon="1.21668">
        <ele>982</ele>
        <time>2026-06-23T07:30:12.000Z</time>
      </trkpt>
      <trkpt lat="42.93014" lon="1.21675">
        <ele>982</ele>
        <time>2026-06-23T07:30:13.000Z</time>
      </trkpt>
      <trkpt lat="42.93016" lon="1.21683">
        <ele>983</ele>
        <time>2026-06-23T07:30:14.000Z</time>
      </trkpt>
      <trkpt lat="42.93019" lon="1.21688">
        <ele>983</ele>
        <time>2026-06-23T07:30:15.000Z</time>
      </trkpt>
      <trkpt lat="42.93022" lon="1.21692">
        <ele>982</ele>
        <time>2026-06-23T07:30:16.000Z</time>
      </trkpt>
      <trkpt lat="42.93026" lon="1.21697">
        <ele>982</ele>
        <time>2026-06-23T07:30:17.000Z</time>
      </trkpt>
      <trkpt lat="42.93028" lon="1.21702">
        <ele>983</ele>
        <time>2026-06-23T07:30:18.000Z</time>
      </trkpt>
      <trkpt lat="42.93032" lon="1.21707">
        <ele>983</ele>
        <time>2026-06-23T07:30:19.000Z</time>
      </trkpt>
      <trkpt lat="42.93035" lon="1.21711">
        <ele>983</ele>
        <time>2026-06-23T07:30:20.000Z</time>
      </trkpt>
      <trkpt lat="42.93037" lon="1.21715">
        <ele>982</ele>
        <time>2026-06-23T07:30:21.000Z</time>
      </trkpt>
      <trkpt lat="42.9304" lon="1.21719">
        <ele>982</ele>
        <time>2026-06-23T07:30:22.000Z</time>
      </trkpt>
      <trkpt lat="42.93043" lon="1.21724">
        <ele>982</ele>
        <time>2026-06-23T07:30:23.000Z</time>
      </trkpt>
      <trkpt lat="42.93045" lon="1.21728">
        <ele>982</ele>
        <time>2026-06-23T07:30:24.000Z</time>
      </trkpt>
      <trkpt lat="42.93047" lon="1.21732">
        <ele>982</ele>
        <time>2026-06-23T07:30:25.000Z</time>
      </trkpt>
      <trkpt lat="42.93049" lon="1.21737">
        <ele>981</ele>
        <time>2026-06-23T07:30:26.000Z</time>
      </trkpt>
      <trkpt lat="42.93051" lon="1.21741">
        <ele>981</ele>
        <time>2026-06-23T07:30:27.000Z</time>
      </trkpt>
      <trkpt lat="42.93053" lon="1.21745">
        <ele>981</ele>
        <time>2026-06-23T07:30:28.000Z</time>
      </trkpt>
      <trkpt lat="42.93056" lon="1.21749">
        <ele>981</ele>
        <time>2026-06-23T07:30:29.000Z</time>
      </trkpt>
      <trkpt lat="42.93058" lon="1.21753">
        <ele>981</ele>
        <time>2026-06-23T07:30:30.000Z</time>
      </trkpt>
      <trkpt lat="42.9306" lon="1.21758">
        <ele>981</ele>
        <time>2026-06-23T07:30:31.000Z</time>
      </trkpt>
      <trkpt lat="42.93063" lon="1.21762">
        <ele>981</ele>
        <time>2026-06-23T07:30:32.000Z</time>
      </trkpt>
      <trkpt lat="42.93068" lon="1.21765">
        <ele>981</ele>
        <time>2026-06-23T07:30:33.000Z</time>
      </trkpt>
      <trkpt lat="42.93072" lon="1.21768">
        <ele>980</ele>
        <time>2026-06-23T07:30:34.000Z</time>
      </trkpt>
      <trkpt lat="42.93076" lon="1.21771">
        <ele>980</ele>
        <time>2026-06-23T07:30:35.000Z</time>
      </trkpt>
      <trkpt lat="42.93082" lon="1.21773">
        <ele>981</ele>
        <time>2026-06-23T07:30:36.000Z</time>
      </trkpt>
      <trkpt lat="42.93086" lon="1.21775">
        <ele>980</ele>
        <time>2026-06-23T07:30:37.000Z</time>
      </trkpt>
      <trkpt lat="42.93091" lon="1.21777">
        <ele>980</ele>
        <time>2026-06-23T07:30:38.000Z</time>
      </trkpt>
      <trkpt lat="42.93096" lon="1.21778">
        <ele>980</ele>
        <time>2026-06-23T07:30:39.000Z</time>
      </trkpt>
      <trkpt lat="42.93101" lon="1.21779">
        <ele>980</ele>
        <time>2026-06-23T07:30:40.000Z</time>
      </trkpt>
      <trkpt lat="42.93106" lon="1.21779">
        <ele>979</ele>
        <time>2026-06-23T07:30:41.000Z</time>
      </trkpt>
      <trkpt lat="42.93111" lon="1.21779">
        <ele>980</ele>
        <time>2026-06-23T07:30:42.000Z</time>
      </trkpt>
      <trkpt lat="42.93115" lon="1.2178">
        <ele>980</ele>
        <time>2026-06-23T07:30:43.000Z</time>
      </trkpt>
      <trkpt lat="42.9312" lon="1.21782">
        <ele>980</ele>
        <time>2026-06-23T07:30:44.000Z</time>
      </trkpt>
      <trkpt lat="42.93125" lon="1.21783">
        <ele>980</ele>
        <time>2026-06-23T07:30:45.000Z</time>
      </trkpt>
      <trkpt lat="42.9313" lon="1.21785">
        <ele>979</ele>
        <time>2026-06-23T07:30:46.000Z</time>
      </trkpt>
      <trkpt lat="42.93135" lon="1.21786">
        <ele>979</ele>
        <time>2026-06-23T07:30:47.000Z</time>
      </trkpt>
      <trkpt lat="42.93139" lon="1.21788">
        <ele>979</ele>
        <time>2026-06-23T07:30:48.000Z</time>
      </trkpt>
      <trkpt lat="42.93144" lon="1.21789">
        <ele>979</ele>
        <time>2026-06-23T07:30:49.000Z</time>
      </trkpt>
      <trkpt lat="42.93149" lon="1.2179">
        <ele>979</ele>
        <time>2026-06-23T07:30:50.000Z</time>
      </trkpt>
      <trkpt lat="42.93154" lon="1.21793">
        <ele>979</ele>
        <time>2026-06-23T07:30:51.000Z</time>
      </trkpt>
      <trkpt lat="42.93159" lon="1.21794">
        <ele>978</ele>
        <time>2026-06-23T07:30:52.000Z</time>
      </trkpt>
      <trkpt lat="42.93164" lon="1.21795">
        <ele>978</ele>
        <time>2026-06-23T07:30:53.000Z</time>
      </trkpt>
      <trkpt lat="42.93169" lon="1.21796">
        <ele>978</ele>
        <time>2026-06-23T07:30:54.000Z</time>
      </trkpt>
      <trkpt lat="42.93173" lon="1.21798">
        <ele>977</ele>
        <time>2026-06-23T07:30:55.000Z</time>
      </trkpt>
      <trkpt lat="42.93179" lon="1.21797">
        <ele>978</ele>
        <time>2026-06-23T07:30:56.000Z</time>
      </trkpt>
      <trkpt lat="42.93185" lon="1.21797">
        <ele>977</ele>
        <time>2026-06-23T07:30:57.000Z</time>
      </trkpt>
      <trkpt lat="42.93189" lon="1.21797">
        <ele>977</ele>
        <time>2026-06-23T07:30:58.000Z</time>
      </trkpt>
      <trkpt lat="42.93192" lon="1.21796">
        <ele>977</ele>
        <time>2026-06-23T07:30:59.000Z</time>
      </trkpt>
      <trkpt lat="42.93196" lon="1.21795">
        <ele>977</ele>
        <time>2026-06-23T07:31:00.000Z</time>
      </trkpt>
      <trkpt lat="42.93201" lon="1.21795">
        <ele>977</ele>
        <time>2026-06-23T07:31:01.000Z</time>
      </trkpt>
      <trkpt lat="42.93206" lon="1.21793">
        <ele>976</ele>
        <time>2026-06-23T07:31:02.000Z</time>
      </trkpt>
      <trkpt lat="42.9321" lon="1.21791">
        <ele>976</ele>
        <time>2026-06-23T07:31:03.000Z</time>
      </trkpt>
      <trkpt lat="42.93215" lon="1.2179">
        <ele>976</ele>
        <time>2026-06-23T07:31:04.000Z</time>
      </trkpt>
      <trkpt lat="42.93219" lon="1.2179">
        <ele>976</ele>
        <time>2026-06-23T07:31:05.000Z</time>
      </trkpt>
      <trkpt lat="42.93222" lon="1.21791">
        <ele>976</ele>
        <time>2026-06-23T07:31:06.000Z</time>
      </trkpt>
      <trkpt lat="42.93225" lon="1.21794">
        <ele>976</ele>
        <time>2026-06-23T07:31:07.000Z</time>
      </trkpt>
      <trkpt lat="42.93228" lon="1.21798">
        <ele>976</ele>
        <time>2026-06-23T07:31:08.000Z</time>
      </trkpt>
      <trkpt lat="42.93233" lon="1.21802">
        <ele>975</ele>
        <time>2026-06-23T07:31:09.000Z</time>
      </trkpt>
      <trkpt lat="42.93238" lon="1.21804">
        <ele>975</ele>
        <time>2026-06-23T07:31:10.000Z</time>
      </trkpt>
      <trkpt lat="42.93242" lon="1.21805">
        <ele>975</ele>
        <time>2026-06-23T07:31:11.000Z</time>
      </trkpt>
      <trkpt lat="42.93245" lon="1.21807">
        <ele>975</ele>
        <time>2026-06-23T07:31:12.000Z</time>
      </trkpt>
      <trkpt lat="42.9325" lon="1.21809">
        <ele>975</ele>
        <time>2026-06-23T07:31:13.000Z</time>
      </trkpt>
      <trkpt lat="42.93255" lon="1.21812">
        <ele>974</ele>
        <time>2026-06-23T07:31:14.000Z</time>
      </trkpt>
      <trkpt lat="42.93261" lon="1.21814">
        <ele>974</ele>
        <time>2026-06-23T07:31:15.000Z</time>
      </trkpt>
      <trkpt lat="42.93267" lon="1.21816">
        <ele>974</ele>
        <time>2026-06-23T07:31:16.000Z</time>
      </trkpt>
      <trkpt lat="42.93272" lon="1.21819">
        <ele>974</ele>
        <time>2026-06-23T07:31:17.000Z</time>
      </trkpt>
      <trkpt lat="42.93277" lon="1.21822">
        <ele>974</ele>
        <time>2026-06-23T07:31:18.000Z</time>
      </trkpt>
      <trkpt lat="42.93282" lon="1.21827">
        <ele>973</ele>
        <time>2026-06-23T07:31:19.000Z</time>
      </trkpt>
      <trkpt lat="42.93288" lon="1.2183">
        <ele>973</ele>
        <time>2026-06-23T07:31:20.000Z</time>
      </trkpt>
      <trkpt lat="42.93293" lon="1.21835">
        <ele>973</ele>
        <time>2026-06-23T07:31:21.000Z</time>
      </trkpt>
      <trkpt lat="42.93299" lon="1.2184">
        <ele>972</ele>
        <time>2026-06-23T07:31:22.000Z</time>
      </trkpt>
      <trkpt lat="42.93306" lon="1.21845">
        <ele>972</ele>
        <time>2026-06-23T07:31:23.000Z</time>
      </trkpt>
      <trkpt lat="42.93312" lon="1.21848">
        <ele>972</ele>
        <time>2026-06-23T07:31:24.000Z</time>
      </trkpt>
      <trkpt lat="42.93317" lon="1.2185">
        <ele>972</ele>
        <time>2026-06-23T07:31:25.000Z</time>
      </trkpt>
      <trkpt lat="42.93321" lon="1.21856">
        <ele>972</ele>
        <time>2026-06-23T07:31:26.000Z</time>
      </trkpt>
      <trkpt lat="42.93324" lon="1.21861">
        <ele>972</ele>
        <time>2026-06-23T07:31:27.000Z</time>
      </trkpt>
      <trkpt lat="42.93325" lon="1.21867">
        <ele>973</ele>
        <time>2026-06-23T07:31:28.000Z</time>
      </trkpt>
      <trkpt lat="42.93324" lon="1.21876">
        <ele>974</ele>
        <time>2026-06-23T07:31:29.000Z</time>
      </trkpt>
      <trkpt lat="42.93322" lon="1.21884">
        <ele>974</ele>
        <time>2026-06-23T07:31:30.000Z</time>
      </trkpt>
      <trkpt lat="42.9332" lon="1.21894">
        <ele>974</ele>
        <time>2026-06-23T07:31:31.000Z</time>
      </trkpt>
      <trkpt lat="42.93318" lon="1.21903">
        <ele>975</ele>
        <time>2026-06-23T07:31:32.000Z</time>
      </trkpt>
      <trkpt lat="42.93316" lon="1.21914">
        <ele>975</ele>
        <time>2026-06-23T07:31:33.000Z</time>
      </trkpt>
      <trkpt lat="42.93315" lon="1.21924">
        <ele>975</ele>
        <time>2026-06-23T07:31:34.000Z</time>
      </trkpt>
      <trkpt lat="42.93316" lon="1.21934">
        <ele>976</ele>
        <time>2026-06-23T07:31:35.000Z</time>
      </trkpt>
      <trkpt lat="42.93317" lon="1.21942">
        <ele>977</ele>
        <time>2026-06-23T07:31:36.000Z</time>
      </trkpt>
      <trkpt lat="42.93316" lon="1.21952">
        <ele>977</ele>
        <time>2026-06-23T07:31:37.000Z</time>
      </trkpt>
      <trkpt lat="42.93316" lon="1.21961">
        <ele>977</ele>
        <time>2026-06-23T07:31:38.000Z</time>
      </trkpt>
      <trkpt lat="42.93316" lon="1.2197">
        <ele>977</ele>
        <time>2026-06-23T07:31:39.000Z</time>
      </trkpt>
      <trkpt lat="42.93317" lon="1.21979">
        <ele>977</ele>
        <time>2026-06-23T07:31:40.000Z</time>
      </trkpt>
      <trkpt lat="42.93318" lon="1.21989">
        <ele>977</ele>
        <time>2026-06-23T07:31:41.000Z</time>
      </trkpt>
      <trkpt lat="42.9332" lon="1.21997">
        <ele>978</ele>
        <time>2026-06-23T07:31:42.000Z</time>
      </trkpt>
      <trkpt lat="42.93322" lon="1.22005">
        <ele>978</ele>
        <time>2026-06-23T07:31:43.000Z</time>
      </trkpt>
      <trkpt lat="42.93324" lon="1.22013">
        <ele>978</ele>
        <time>2026-06-23T07:31:44.000Z</time>
      </trkpt>
      <trkpt lat="42.93327" lon="1.22021">
        <ele>978</ele>
        <time>2026-06-23T07:31:45.000Z</time>
      </trkpt>
      <trkpt lat="42.93328" lon="1.22029">
        <ele>978</ele>
        <time>2026-06-23T07:31:46.000Z</time>
      </trkpt>
      <trkpt lat="42.93331" lon="1.22035">
        <ele>978</ele>
        <time>2026-06-23T07:31:47.000Z</time>
      </trkpt>
      <trkpt lat="42.93333" lon="1.22041">
        <ele>978</ele>
        <time>2026-06-23T07:31:48.000Z</time>
      </trkpt>
      <trkpt lat="42.93336" lon="1.22046">
        <ele>978</ele>
        <time>2026-06-23T07:31:49.000Z</time>
      </trkpt>
      <trkpt lat="42.9334" lon="1.2205">
        <ele>979</ele>
        <time>2026-06-23T07:31:50.000Z</time>
      </trkpt>
      <trkpt lat="42.93342" lon="1.22054">
        <ele>978</ele>
        <time>2026-06-23T07:31:51.000Z</time>
      </trkpt>
      <trkpt lat="42.93346" lon="1.22059">
        <ele>977</ele>
        <time>2026-06-23T07:31:52.000Z</time>
      </trkpt>
      <trkpt lat="42.93349" lon="1.22063">
        <ele>978</ele>
        <time>2026-06-23T07:31:53.000Z</time>
      </trkpt>
      <trkpt lat="42.93353" lon="1.22066">
        <ele>978</ele>
        <time>2026-06-23T07:31:54.000Z</time>
      </trkpt>
      <trkpt lat="42.93355" lon="1.22069">
        <ele>978</ele>
        <time>2026-06-23T07:31:55.000Z</time>
      </trkpt>
      <trkpt lat="42.93358" lon="1.22073">
        <ele>978</ele>
        <time>2026-06-23T07:31:56.000Z</time>
      </trkpt>
      <trkpt lat="42.93362" lon="1.22075">
        <ele>978</ele>
        <time>2026-06-23T07:31:57.000Z</time>
      </trkpt>
      <trkpt lat="42.93365" lon="1.22078">
        <ele>979</ele>
        <time>2026-06-23T07:31:58.000Z</time>
      </trkpt>
      <trkpt lat="42.93368" lon="1.22082">
        <ele>978</ele>
        <time>2026-06-23T07:31:59.000Z</time>
      </trkpt>
      <trkpt lat="42.9337" lon="1.22085">
        <ele>978</ele>
        <time>2026-06-23T07:32:00.000Z</time>
      </trkpt>
      <trkpt lat="42.93373" lon="1.22088">
        <ele>979</ele>
        <time>2026-06-23T07:32:01.000Z</time>
      </trkpt>
      <trkpt lat="42.93376" lon="1.22091">
        <ele>979</ele>
        <time>2026-06-23T07:32:02.000Z</time>
      </trkpt>
      <trkpt lat="42.93378" lon="1.22093">
        <ele>978</ele>
        <time>2026-06-23T07:32:03.000Z</time>
      </trkpt>
      <trkpt lat="42.93381" lon="1.22096">
        <ele>978</ele>
        <time>2026-06-23T07:32:04.000Z</time>
      </trkpt>
      <trkpt lat="42.93384" lon="1.22099">
        <ele>978</ele>
        <time>2026-06-23T07:32:05.000Z</time>
      </trkpt>
      <trkpt lat="42.93387" lon="1.22102">
        <ele>977</ele>
        <time>2026-06-23T07:32:06.000Z</time>
      </trkpt>
      <trkpt lat="42.9339" lon="1.22104">
        <ele>977</ele>
        <time>2026-06-23T07:32:07.000Z</time>
      </trkpt>
      <trkpt lat="42.93393" lon="1.22108">
        <ele>977</ele>
        <time>2026-06-23T07:32:08.000Z</time>
      </trkpt>
      <trkpt lat="42.93396" lon="1.22111">
        <ele>977</ele>
        <time>2026-06-23T07:32:09.000Z</time>
      </trkpt>
      <trkpt lat="42.93398" lon="1.22115">
        <ele>977</ele>
        <time>2026-06-23T07:32:10.000Z</time>
      </trkpt>
      <trkpt lat="42.934" lon="1.22118">
        <ele>977</ele>
        <time>2026-06-23T07:32:11.000Z</time>
      </trkpt>
      <trkpt lat="42.93403" lon="1.22123">
        <ele>977</ele>
        <time>2026-06-23T07:32:12.000Z</time>
      </trkpt>
      <trkpt lat="42.93406" lon="1.22126">
        <ele>977</ele>
        <time>2026-06-23T07:32:13.000Z</time>
      </trkpt>
      <trkpt lat="42.9341" lon="1.22129">
        <ele>977</ele>
        <time>2026-06-23T07:32:14.000Z</time>
      </trkpt>
      <trkpt lat="42.93413" lon="1.22132">
        <ele>978</ele>
        <time>2026-06-23T07:32:15.000Z</time>
      </trkpt>
      <trkpt lat="42.93416" lon="1.22135">
        <ele>977</ele>
        <time>2026-06-23T07:32:16.000Z</time>
      </trkpt>
      <trkpt lat="42.9342" lon="1.22138">
        <ele>977</ele>
        <time>2026-06-23T07:32:17.000Z</time>
      </trkpt>
      <trkpt lat="42.93423" lon="1.2214">
        <ele>977</ele>
        <time>2026-06-23T07:32:18.000Z</time>
      </trkpt>
      <trkpt lat="42.93426" lon="1.22144">
        <ele>977</ele>
        <time>2026-06-23T07:32:19.000Z</time>
      </trkpt>
      <trkpt lat="42.93428" lon="1.22147">
        <ele>977</ele>
        <time>2026-06-23T07:32:20.000Z</time>
      </trkpt>
      <trkpt lat="42.93431" lon="1.2215">
        <ele>977</ele>
        <time>2026-06-23T07:32:21.000Z</time>
      </trkpt>
      <trkpt lat="42.93434" lon="1.22153">
        <ele>977</ele>
        <time>2026-06-23T07:32:22.000Z</time>
      </trkpt>
      <trkpt lat="42.93438" lon="1.22155">
        <ele>977</ele>
        <time>2026-06-23T07:32:23.000Z</time>
      </trkpt>
      <trkpt lat="42.93441" lon="1.22157">
        <ele>977</ele>
        <time>2026-06-23T07:32:24.000Z</time>
      </trkpt>
      <trkpt lat="42.93444" lon="1.22159">
        <ele>977</ele>
        <time>2026-06-23T07:32:25.000Z</time>
      </trkpt>
      <trkpt lat="42.93448" lon="1.22161">
        <ele>977</ele>
        <time>2026-06-23T07:32:26.000Z</time>
      </trkpt>
      <trkpt lat="42.93452" lon="1.22162">
        <ele>977</ele>
        <time>2026-06-23T07:32:27.000Z</time>
      </trkpt>
      <trkpt lat="42.93455" lon="1.22165">
        <ele>977</ele>
        <time>2026-06-23T07:32:28.000Z</time>
      </trkpt>
      <trkpt lat="42.93459" lon="1.22168">
        <ele>977</ele>
        <time>2026-06-23T07:32:29.000Z</time>
      </trkpt>
      <trkpt lat="42.93463" lon="1.22169">
        <ele>977</ele>
        <time>2026-06-23T07:32:30.000Z</time>
      </trkpt>
      <trkpt lat="42.93466" lon="1.22171">
        <ele>977</ele>
        <time>2026-06-23T07:32:31.000Z</time>
      </trkpt>
      <trkpt lat="42.9347" lon="1.22172">
        <ele>977</ele>
        <time>2026-06-23T07:32:32.000Z</time>
      </trkpt>
      <trkpt lat="42.93474" lon="1.22173">
        <ele>977</ele>
        <time>2026-06-23T07:32:33.000Z</time>
      </trkpt>
      <trkpt lat="42.93479" lon="1.22174">
        <ele>977</ele>
        <time>2026-06-23T07:32:34.000Z</time>
      </trkpt>
      <trkpt lat="42.93483" lon="1.22174">
        <ele>977</ele>
        <time>2026-06-23T07:32:35.000Z</time>
      </trkpt>
      <trkpt lat="42.93487" lon="1.22174">
        <ele>978</ele>
        <time>2026-06-23T07:32:36.000Z</time>
      </trkpt>
      <trkpt lat="42.93491" lon="1.22174">
        <ele>977</ele>
        <time>2026-06-23T07:32:37.000Z</time>
      </trkpt>
      <trkpt lat="42.93495" lon="1.22174">
        <ele>978</ele>
        <time>2026-06-23T07:32:38.000Z</time>
      </trkpt>
      <trkpt lat="42.93499" lon="1.22174">
        <ele>978</ele>
        <time>2026-06-23T07:32:39.000Z</time>
      </trkpt>
      <trkpt lat="42.93502" lon="1.22173">
        <ele>977</ele>
        <time>2026-06-23T07:32:40.000Z</time>
      </trkpt>
      <trkpt lat="42.93506" lon="1.22173">
        <ele>978</ele>
        <time>2026-06-23T07:32:41.000Z</time>
      </trkpt>
      <trkpt lat="42.93509" lon="1.22172">
        <ele>978</ele>
        <time>2026-06-23T07:32:42.000Z</time>
      </trkpt>
      <trkpt lat="42.93512" lon="1.22173">
        <ele>978</ele>
        <time>2026-06-23T07:32:43.000Z</time>
      </trkpt>
      <trkpt lat="42.93516" lon="1.22174">
        <ele>979</ele>
        <time>2026-06-23T07:32:44.000Z</time>
      </trkpt>
      <trkpt lat="42.9352" lon="1.22175">
        <ele>978</ele>
        <time>2026-06-23T07:32:45.000Z</time>
      </trkpt>
      <trkpt lat="42.93522" lon="1.22175">
        <ele>979</ele>
        <time>2026-06-23T07:32:46.000Z</time>
      </trkpt>
      <trkpt lat="42.93526" lon="1.22176">
        <ele>978</ele>
        <time>2026-06-23T07:32:47.000Z</time>
      </trkpt>
      <trkpt lat="42.9353" lon="1.22176">
        <ele>979</ele>
        <time>2026-06-23T07:32:48.000Z</time>
      </trkpt>
      <trkpt lat="42.93533" lon="1.22177">
        <ele>979</ele>
        <time>2026-06-23T07:32:49.000Z</time>
      </trkpt>
      <trkpt lat="42.93536" lon="1.22179">
        <ele>979</ele>
        <time>2026-06-23T07:32:50.000Z</time>
      </trkpt>
      <trkpt lat="42.93538" lon="1.2218">
        <ele>979</ele>
        <time>2026-06-23T07:32:51.000Z</time>
      </trkpt>
      <trkpt lat="42.93541" lon="1.22182">
        <ele>979</ele>
        <time>2026-06-23T07:32:52.000Z</time>
      </trkpt>
      <trkpt lat="42.93544" lon="1.22183">
        <ele>979</ele>
        <time>2026-06-23T07:32:53.000Z</time>
      </trkpt>
      <trkpt lat="42.93547" lon="1.22185">
        <ele>979</ele>
        <time>2026-06-23T07:32:54.000Z</time>
      </trkpt>
      <trkpt lat="42.9355" lon="1.22187">
        <ele>979</ele>
        <time>2026-06-23T07:32:55.000Z</time>
      </trkpt>
      <trkpt lat="42.93551" lon="1.2219">
        <ele>979</ele>
        <time>2026-06-23T07:32:56.000Z</time>
      </trkpt>
      <trkpt lat="42.93553" lon="1.22193">
        <ele>979</ele>
        <time>2026-06-23T07:32:57.000Z</time>
      </trkpt>
      <trkpt lat="42.93555" lon="1.22196">
        <ele>979</ele>
        <time>2026-06-23T07:32:58.000Z</time>
      </trkpt>
      <trkpt lat="42.93557" lon="1.22199">
        <ele>979</ele>
        <time>2026-06-23T07:32:59.000Z</time>
      </trkpt>
      <trkpt lat="42.93559" lon="1.22202">
        <ele>979</ele>
        <time>2026-06-23T07:33:00.000Z</time>
      </trkpt>
      <trkpt lat="42.93561" lon="1.22205">
        <ele>979</ele>
        <time>2026-06-23T07:33:01.000Z</time>
      </trkpt>
      <trkpt lat="42.93563" lon="1.22209">
        <ele>979</ele>
        <time>2026-06-23T07:33:02.000Z</time>
      </trkpt>
      <trkpt lat="42.93565" lon="1.22211">
        <ele>979</ele>
        <time>2026-06-23T07:33:03.000Z</time>
      </trkpt>
      <trkpt lat="42.93567" lon="1.22215">
        <ele>980</ele>
        <time>2026-06-23T07:33:04.000Z</time>
      </trkpt>
      <trkpt lat="42.93568" lon="1.22218">
        <ele>980</ele>
        <time>2026-06-23T07:33:05.000Z</time>
      </trkpt>
      <trkpt lat="42.93571" lon="1.22221">
        <ele>981</ele>
        <time>2026-06-23T07:33:06.000Z</time>
      </trkpt>
      <trkpt lat="42.93572" lon="1.22225">
        <ele>982</ele>
        <time>2026-06-23T07:33:07.000Z</time>
      </trkpt>
      <trkpt lat="42.93575" lon="1.22228">
        <ele>982</ele>
        <time>2026-06-23T07:33:08.000Z</time>
      </trkpt>
      <trkpt lat="42.93576" lon="1.22232">
        <ele>983</ele>
        <time>2026-06-23T07:33:09.000Z</time>
      </trkpt>
      <trkpt lat="42.93578" lon="1.22236">
        <ele>984</ele>
        <time>2026-06-23T07:33:10.000Z</time>
      </trkpt>
      <trkpt lat="42.9358" lon="1.22241">
        <ele>985</ele>
        <time>2026-06-23T07:33:11.000Z</time>
      </trkpt>
      <trkpt lat="42.93582" lon="1.22245">
        <ele>985</ele>
        <time>2026-06-23T07:33:12.000Z</time>
      </trkpt>
      <trkpt lat="42.93584" lon="1.22248">
        <ele>986</ele>
        <time>2026-06-23T07:33:13.000Z</time>
      </trkpt>
      <trkpt lat="42.93586" lon="1.22251">
        <ele>987</ele>
        <time>2026-06-23T07:33:14.000Z</time>
      </trkpt>
      <trkpt lat="42.93588" lon="1.22254">
        <ele>987</ele>
        <time>2026-06-23T07:33:15.000Z</time>
      </trkpt>
      <trkpt lat="42.9359" lon="1.22257">
        <ele>988</ele>
        <time>2026-06-23T07:33:16.000Z</time>
      </trkpt>
      <trkpt lat="42.93593" lon="1.22259">
        <ele>989</ele>
        <time>2026-06-23T07:33:17.000Z</time>
      </trkpt>
      <trkpt lat="42.93596" lon="1.22262">
        <ele>991</ele>
        <time>2026-06-23T07:33:18.000Z</time>
      </trkpt>
      <trkpt lat="42.93599" lon="1.22264">
        <ele>992</ele>
        <time>2026-06-23T07:33:19.000Z</time>
      </trkpt>
      <trkpt lat="42.93603" lon="1.22267">
        <ele>992</ele>
        <time>2026-06-23T07:33:20.000Z</time>
      </trkpt>
      <trkpt lat="42.93608" lon="1.22269">
        <ele>992</ele>
        <time>2026-06-23T07:33:21.000Z</time>
      </trkpt>
      <trkpt lat="42.93612" lon="1.22271">
        <ele>992</ele>
        <time>2026-06-23T07:33:22.000Z</time>
      </trkpt>
      <trkpt lat="42.93616" lon="1.22272">
        <ele>992</ele>
        <time>2026-06-23T07:33:23.000Z</time>
      </trkpt>
      <trkpt lat="42.9362" lon="1.22274">
        <ele>992</ele>
        <time>2026-06-23T07:33:24.000Z</time>
      </trkpt>
      <trkpt lat="42.93624" lon="1.22274">
        <ele>992</ele>
        <time>2026-06-23T07:33:25.000Z</time>
      </trkpt>
      <trkpt lat="42.93628" lon="1.22273">
        <ele>993</ele>
        <time>2026-06-23T07:33:26.000Z</time>
      </trkpt>
      <trkpt lat="42.93631" lon="1.22271">
        <ele>994</ele>
        <time>2026-06-23T07:33:27.000Z</time>
      </trkpt>
      <trkpt lat="42.93633" lon="1.2227">
        <ele>994</ele>
        <time>2026-06-23T07:33:28.000Z</time>
      </trkpt>
      <trkpt lat="42.93636" lon="1.2227">
        <ele>994</ele>
        <time>2026-06-23T07:33:29.000Z</time>
      </trkpt>
      <trkpt lat="42.93638" lon="1.2227">
        <ele>995</ele>
        <time>2026-06-23T07:33:30.000Z</time>
      </trkpt>
      <trkpt lat="42.93641" lon="1.22271">
        <ele>993</ele>
        <time>2026-06-23T07:33:31.000Z</time>
      </trkpt>
      <trkpt lat="42.93644" lon="1.22272">
        <ele>993</ele>
        <time>2026-06-23T07:33:32.000Z</time>
      </trkpt>
      <trkpt lat="42.93647" lon="1.22274">
        <ele>993</ele>
        <time>2026-06-23T07:33:33.000Z</time>
      </trkpt>
      <trkpt lat="42.9365" lon="1.22276">
        <ele>993</ele>
        <time>2026-06-23T07:33:34.000Z</time>
      </trkpt>
      <trkpt lat="42.93653" lon="1.22278">
        <ele>992</ele>
        <time>2026-06-23T07:33:35.000Z</time>
      </trkpt>
      <trkpt lat="42.93657" lon="1.2228">
        <ele>992</ele>
        <time>2026-06-23T07:33:36.000Z</time>
      </trkpt>
      <trkpt lat="42.9366" lon="1.22282">
        <ele>992</ele>
        <time>2026-06-23T07:33:37.000Z</time>
      </trkpt>
      <trkpt lat="42.93664" lon="1.22284">
        <ele>991</ele>
        <time>2026-06-23T07:33:38.000Z</time>
      </trkpt>
      <trkpt lat="42.93666" lon="1.22286">
        <ele>991</ele>
        <time>2026-06-23T07:33:39.000Z</time>
      </trkpt>
      <trkpt lat="42.93668" lon="1.22288">
        <ele>991</ele>
        <time>2026-06-23T07:33:40.000Z</time>
      </trkpt>
      <trkpt lat="42.93671" lon="1.2229">
        <ele>991</ele>
        <time>2026-06-23T07:33:41.000Z</time>
      </trkpt>
      <trkpt lat="42.93673" lon="1.22292">
        <ele>991</ele>
        <time>2026-06-23T07:33:42.000Z</time>
      </trkpt>
      <trkpt lat="42.93677" lon="1.22294">
        <ele>991</ele>
        <time>2026-06-23T07:33:43.000Z</time>
      </trkpt>
      <trkpt lat="42.93682" lon="1.22297">
        <ele>991</ele>
        <time>2026-06-23T07:33:44.000Z</time>
      </trkpt>
      <trkpt lat="42.93687" lon="1.22299">
        <ele>991</ele>
        <time>2026-06-23T07:33:45.000Z</time>
      </trkpt>
      <trkpt lat="42.93692" lon="1.223">
        <ele>991</ele>
        <time>2026-06-23T07:33:46.000Z</time>
      </trkpt>
      <trkpt lat="42.93696" lon="1.22304">
        <ele>991</ele>
        <time>2026-06-23T07:33:47.000Z</time>
      </trkpt>
      <trkpt lat="42.93698" lon="1.22308">
        <ele>991</ele>
        <time>2026-06-23T07:33:48.000Z</time>
      </trkpt>
      <trkpt lat="42.93703" lon="1.22309">
        <ele>992</ele>
        <time>2026-06-23T07:33:49.000Z</time>
      </trkpt>
      <trkpt lat="42.93707" lon="1.22312">
        <ele>992</ele>
        <time>2026-06-23T07:33:50.000Z</time>
      </trkpt>
      <trkpt lat="42.93712" lon="1.22314">
        <ele>993</ele>
        <time>2026-06-23T07:33:51.000Z</time>
      </trkpt>
      <trkpt lat="42.93716" lon="1.22314">
        <ele>993</ele>
        <time>2026-06-23T07:33:52.000Z</time>
      </trkpt>
      <trkpt lat="42.93719" lon="1.22315">
        <ele>993</ele>
        <time>2026-06-23T07:33:53.000Z</time>
      </trkpt>
      <trkpt lat="42.93723" lon="1.22316">
        <ele>992</ele>
        <time>2026-06-23T07:33:54.000Z</time>
      </trkpt>
      <trkpt lat="42.93727" lon="1.22317">
        <ele>992</ele>
        <time>2026-06-23T07:33:55.000Z</time>
      </trkpt>
      <trkpt lat="42.93731" lon="1.22319">
        <ele>991</ele>
        <time>2026-06-23T07:33:56.000Z</time>
      </trkpt>
      <trkpt lat="42.93734" lon="1.22319">
        <ele>990</ele>
        <time>2026-06-23T07:33:57.000Z</time>
      </trkpt>
      <trkpt lat="42.93738" lon="1.22319">
        <ele>989</ele>
        <time>2026-06-23T07:33:58.000Z</time>
      </trkpt>
      <trkpt lat="42.93742" lon="1.2232">
        <ele>989</ele>
        <time>2026-06-23T07:33:59.000Z</time>
      </trkpt>
      <trkpt lat="42.93746" lon="1.22321">
        <ele>989</ele>
        <time>2026-06-23T07:34:00.000Z</time>
      </trkpt>
      <trkpt lat="42.9375" lon="1.22322">
        <ele>989</ele>
        <time>2026-06-23T07:34:01.000Z</time>
      </trkpt>
      <trkpt lat="42.93754" lon="1.22323">
        <ele>989</ele>
        <time>2026-06-23T07:34:02.000Z</time>
      </trkpt>
      <trkpt lat="42.93758" lon="1.22326">
        <ele>988</ele>
        <time>2026-06-23T07:34:03.000Z</time>
      </trkpt>
      <trkpt lat="42.93763" lon="1.22328">
        <ele>988</ele>
        <time>2026-06-23T07:34:04.000Z</time>
      </trkpt>
      <trkpt lat="42.93768" lon="1.2233">
        <ele>987</ele>
        <time>2026-06-23T07:34:05.000Z</time>
      </trkpt>
      <trkpt lat="42.93774" lon="1.22333">
        <ele>987</ele>
        <time>2026-06-23T07:34:06.000Z</time>
      </trkpt>
      <trkpt lat="42.93779" lon="1.22335">
        <ele>987</ele>
        <time>2026-06-23T07:34:07.000Z</time>
      </trkpt>
      <trkpt lat="42.93784" lon="1.22336">
        <ele>987</ele>
        <time>2026-06-23T07:34:08.000Z</time>
      </trkpt>
      <trkpt lat="42.9379" lon="1.22336">
        <ele>987</ele>
        <time>2026-06-23T07:34:09.000Z</time>
      </trkpt>
      <trkpt lat="42.93794" lon="1.22335">
        <ele>987</ele>
        <time>2026-06-23T07:34:10.000Z</time>
      </trkpt>
      <trkpt lat="42.93799" lon="1.22334">
        <ele>986</ele>
        <time>2026-06-23T07:34:11.000Z</time>
      </trkpt>
      <trkpt lat="42.93804" lon="1.22334">
        <ele>987</ele>
        <time>2026-06-23T07:34:12.000Z</time>
      </trkpt>
      <trkpt lat="42.93808" lon="1.22334">
        <ele>987</ele>
        <time>2026-06-23T07:34:13.000Z</time>
      </trkpt>
      <trkpt lat="42.93813" lon="1.22333">
        <ele>987</ele>
        <time>2026-06-23T07:34:14.000Z</time>
      </trkpt>
      <trkpt lat="42.93817" lon="1.22333">
        <ele>988</ele>
        <time>2026-06-23T07:34:15.000Z</time>
      </trkpt>
      <trkpt lat="42.93822" lon="1.22332">
        <ele>988</ele>
        <time>2026-06-23T07:34:16.000Z</time>
      </trkpt>
      <trkpt lat="42.93827" lon="1.22331">
        <ele>988</ele>
        <time>2026-06-23T07:34:17.000Z</time>
      </trkpt>
      <trkpt lat="42.93833" lon="1.22331">
        <ele>989</ele>
        <time>2026-06-23T07:34:18.000Z</time>
      </trkpt>
      <trkpt lat="42.9384" lon="1.2233">
        <ele>988</ele>
        <time>2026-06-23T07:34:19.000Z</time>
      </trkpt>
      <trkpt lat="42.93846" lon="1.22327">
        <ele>989</ele>
        <time>2026-06-23T07:34:20.000Z</time>
      </trkpt>
      <trkpt lat="42.93853" lon="1.22325">
        <ele>989</ele>
        <time>2026-06-23T07:34:21.000Z</time>
      </trkpt>
      <trkpt lat="42.93859" lon="1.22323">
        <ele>989</ele>
        <time>2026-06-23T07:34:22.000Z</time>
      </trkpt>
      <trkpt lat="42.93865" lon="1.22322">
        <ele>989</ele>
        <time>2026-06-23T07:34:23.000Z</time>
      </trkpt>
      <trkpt lat="42.93871" lon="1.2232">
        <ele>989</ele>
        <time>2026-06-23T07:34:24.000Z</time>
      </trkpt>
      <trkpt lat="42.93877" lon="1.22319">
        <ele>990</ele>
        <time>2026-06-23T07:34:25.000Z</time>
      </trkpt>
      <trkpt lat="42.93883" lon="1.2232">
        <ele>989</ele>
        <time>2026-06-23T07:34:26.000Z</time>
      </trkpt>
      <trkpt lat="42.93889" lon="1.22318">
        <ele>990</ele>
        <time>2026-06-23T07:34:27.000Z</time>
      </trkpt>
      <trkpt lat="42.93895" lon="1.22317">
        <ele>990</ele>
        <time>2026-06-23T07:34:28.000Z</time>
      </trkpt>
      <trkpt lat="42.93901" lon="1.22317">
        <ele>991</ele>
        <time>2026-06-23T07:34:29.000Z</time>
      </trkpt>
      <trkpt lat="42.93908" lon="1.22316">
        <ele>991</ele>
        <time>2026-06-23T07:34:30.000Z</time>
      </trkpt>
      <trkpt lat="42.93915" lon="1.22316">
        <ele>990</ele>
        <time>2026-06-23T07:34:31.000Z</time>
      </trkpt>
      <trkpt lat="42.93922" lon="1.22316">
        <ele>991</ele>
        <time>2026-06-23T07:34:32.000Z</time>
      </trkpt>
      <trkpt lat="42.93928" lon="1.22316">
        <ele>992</ele>
        <time>2026-06-23T07:34:33.000Z</time>
      </trkpt>
      <trkpt lat="42.93936" lon="1.22315">
        <ele>993</ele>
        <time>2026-06-23T07:34:34.000Z</time>
      </trkpt>
      <trkpt lat="42.93941" lon="1.22315">
        <ele>994</ele>
        <time>2026-06-23T07:34:35.000Z</time>
      </trkpt>
      <trkpt lat="42.93945" lon="1.22315">
        <ele>994</ele>
        <time>2026-06-23T07:34:36.000Z</time>
      </trkpt>
      <trkpt lat="42.93949" lon="1.22314">
        <ele>994</ele>
        <time>2026-06-23T07:34:37.000Z</time>
      </trkpt>
      <trkpt lat="42.93954" lon="1.22313">
        <ele>994</ele>
        <time>2026-06-23T07:34:38.000Z</time>
      </trkpt>
      <trkpt lat="42.93959" lon="1.22311">
        <ele>995</ele>
        <time>2026-06-23T07:34:39.000Z</time>
      </trkpt>
      <trkpt lat="42.93964" lon="1.22309">
        <ele>995</ele>
        <time>2026-06-23T07:34:40.000Z</time>
      </trkpt>
      <trkpt lat="42.93969" lon="1.22307">
        <ele>995</ele>
        <time>2026-06-23T07:34:41.000Z</time>
      </trkpt>
      <trkpt lat="42.93972" lon="1.22304">
        <ele>995</ele>
        <time>2026-06-23T07:34:42.000Z</time>
      </trkpt>
      <trkpt lat="42.93976" lon="1.223">
        <ele>995</ele>
        <time>2026-06-23T07:34:43.000Z</time>
      </trkpt>
      <trkpt lat="42.93978" lon="1.22296">
        <ele>995</ele>
        <time>2026-06-23T07:34:44.000Z</time>
      </trkpt>
      <trkpt lat="42.93982" lon="1.22293">
        <ele>995</ele>
        <time>2026-06-23T07:34:45.000Z</time>
      </trkpt>
      <trkpt lat="42.93986" lon="1.22291">
        <ele>995</ele>
        <time>2026-06-23T07:34:46.000Z</time>
      </trkpt>
      <trkpt lat="42.9399" lon="1.22288">
        <ele>995</ele>
        <time>2026-06-23T07:34:47.000Z</time>
      </trkpt>
      <trkpt lat="42.93994" lon="1.22284">
        <ele>995</ele>
        <time>2026-06-23T07:34:48.000Z</time>
      </trkpt>
      <trkpt lat="42.93997" lon="1.22282">
        <ele>995</ele>
        <time>2026-06-23T07:34:49.000Z</time>
      </trkpt>
      <trkpt lat="42.94002" lon="1.2228">
        <ele>995</ele>
        <time>2026-06-23T07:34:50.000Z</time>
      </trkpt>
      <trkpt lat="42.94006" lon="1.22279">
        <ele>995</ele>
        <time>2026-06-23T07:34:51.000Z</time>
      </trkpt>
      <trkpt lat="42.9401" lon="1.22278">
        <ele>995</ele>
        <time>2026-06-23T07:34:52.000Z</time>
      </trkpt>
      <trkpt lat="42.94013" lon="1.22277">
        <ele>995</ele>
        <time>2026-06-23T07:34:53.000Z</time>
      </trkpt>
      <trkpt lat="42.94017" lon="1.22276">
        <ele>995</ele>
        <time>2026-06-23T07:34:54.000Z</time>
      </trkpt>
      <trkpt lat="42.94022" lon="1.22275">
        <ele>995</ele>
        <time>2026-06-23T07:34:55.000Z</time>
      </trkpt>
      <trkpt lat="42.94026" lon="1.22274">
        <ele>995</ele>
        <time>2026-06-23T07:34:56.000Z</time>
      </trkpt>
      <trkpt lat="42.9403" lon="1.22274">
        <ele>995</ele>
        <time>2026-06-23T07:34:57.000Z</time>
      </trkpt>
      <trkpt lat="42.94033" lon="1.22273">
        <ele>995</ele>
        <time>2026-06-23T07:34:58.000Z</time>
      </trkpt>
      <trkpt lat="42.94036" lon="1.22273">
        <ele>995</ele>
        <time>2026-06-23T07:34:59.000Z</time>
      </trkpt>
      <trkpt lat="42.9404" lon="1.22273">
        <ele>995</ele>
        <time>2026-06-23T07:35:00.000Z</time>
      </trkpt>
      <trkpt lat="42.94043" lon="1.22274">
        <ele>995</ele>
        <time>2026-06-23T07:35:01.000Z</time>
      </trkpt>
      <trkpt lat="42.94045" lon="1.22274">
        <ele>994</ele>
        <time>2026-06-23T07:35:02.000Z</time>
      </trkpt>
      <trkpt lat="42.94048" lon="1.22274">
        <ele>994</ele>
        <time>2026-06-23T07:35:03.000Z</time>
      </trkpt>
      <trkpt lat="42.94052" lon="1.22274">
        <ele>995</ele>
        <time>2026-06-23T07:35:04.000Z</time>
      </trkpt>
      <trkpt lat="42.94055" lon="1.22275">
        <ele>995</ele>
        <time>2026-06-23T07:35:05.000Z</time>
      </trkpt>
      <trkpt lat="42.94059" lon="1.22275">
        <ele>995</ele>
        <time>2026-06-23T07:35:06.000Z</time>
      </trkpt>
      <trkpt lat="42.94062" lon="1.22275">
        <ele>995</ele>
        <time>2026-06-23T07:35:07.000Z</time>
      </trkpt>
      <trkpt lat="42.94066" lon="1.22277">
        <ele>995</ele>
        <time>2026-06-23T07:35:08.000Z</time>
      </trkpt>
      <trkpt lat="42.94069" lon="1.22278">
        <ele>995</ele>
        <time>2026-06-23T07:35:09.000Z</time>
      </trkpt>
      <trkpt lat="42.94073" lon="1.22278">
        <ele>995</ele>
        <time>2026-06-23T07:35:10.000Z</time>
      </trkpt>
      <trkpt lat="42.94076" lon="1.22278">
        <ele>995</ele>
        <time>2026-06-23T07:35:11.000Z</time>
      </trkpt>
      <trkpt lat="42.9408" lon="1.22278">
        <ele>995</ele>
        <time>2026-06-23T07:35:12.000Z</time>
      </trkpt>
      <trkpt lat="42.94083" lon="1.22279">
        <ele>995</ele>
        <time>2026-06-23T07:35:13.000Z</time>
      </trkpt>
      <trkpt lat="42.94087" lon="1.2228">
        <ele>996</ele>
        <time>2026-06-23T07:35:14.000Z</time>
      </trkpt>
      <trkpt lat="42.94091" lon="1.22281">
        <ele>996</ele>
        <time>2026-06-23T07:35:15.000Z</time>
      </trkpt>
      <trkpt lat="42.94095" lon="1.22281">
        <ele>996</ele>
        <time>2026-06-23T07:35:16.000Z</time>
      </trkpt>
      <trkpt lat="42.94098" lon="1.2228">
        <ele>997</ele>
        <time>2026-06-23T07:35:17.000Z</time>
      </trkpt>
      <trkpt lat="42.94101" lon="1.22279">
        <ele>997</ele>
        <time>2026-06-23T07:35:18.000Z</time>
      </trkpt>
      <trkpt lat="42.94105" lon="1.22279">
        <ele>997</ele>
        <time>2026-06-23T07:35:19.000Z</time>
      </trkpt>
      <trkpt lat="42.94109" lon="1.22278">
        <ele>997</ele>
        <time>2026-06-23T07:35:20.000Z</time>
      </trkpt>
      <trkpt lat="42.94112" lon="1.22278">
        <ele>997</ele>
        <time>2026-06-23T07:35:21.000Z</time>
      </trkpt>
      <trkpt lat="42.94116" lon="1.22279">
        <ele>997</ele>
        <time>2026-06-23T07:35:22.000Z</time>
      </trkpt>
      <trkpt lat="42.94118" lon="1.22279">
        <ele>997</ele>
        <time>2026-06-23T07:35:23.000Z</time>
      </trkpt>
      <trkpt lat="42.94121" lon="1.2228">
        <ele>998</ele>
        <time>2026-06-23T07:35:24.000Z</time>
      </trkpt>
      <trkpt lat="42.94124" lon="1.22279">
        <ele>997</ele>
        <time>2026-06-23T07:35:25.000Z</time>
      </trkpt>
      <trkpt lat="42.94127" lon="1.22279">
        <ele>998</ele>
        <time>2026-06-23T07:35:26.000Z</time>
      </trkpt>
      <trkpt lat="42.9413" lon="1.2228">
        <ele>998</ele>
        <time>2026-06-23T07:35:27.000Z</time>
      </trkpt>
      <trkpt lat="42.94134" lon="1.2228">
        <ele>999</ele>
        <time>2026-06-23T07:35:28.000Z</time>
      </trkpt>
      <trkpt lat="42.94137" lon="1.2228">
        <ele>999</ele>
        <time>2026-06-23T07:35:29.000Z</time>
      </trkpt>
      <trkpt lat="42.9414" lon="1.2228">
        <ele>1000</ele>
        <time>2026-06-23T07:35:30.000Z</time>
      </trkpt>
      <trkpt lat="42.94144" lon="1.22281">
        <ele>1000</ele>
        <time>2026-06-23T07:35:31.000Z</time>
      </trkpt>
      <trkpt lat="42.94147" lon="1.22281">
        <ele>1000</ele>
        <time>2026-06-23T07:35:32.000Z</time>
      </trkpt>
      <trkpt lat="42.9415" lon="1.22281">
        <ele>1000</ele>
        <time>2026-06-23T07:35:33.000Z</time>
      </trkpt>
      <trkpt lat="42.94154" lon="1.22281">
        <ele>1000</ele>
        <time>2026-06-23T07:35:34.000Z</time>
      </trkpt>
      <trkpt lat="42.94158" lon="1.22282">
        <ele>999</ele>
        <time>2026-06-23T07:35:35.000Z</time>
      </trkpt>
      <trkpt lat="42.9416" lon="1.22282">
        <ele>1000</ele>
        <time>2026-06-23T07:35:36.000Z</time>
      </trkpt>
      <trkpt lat="42.94163" lon="1.22281">
        <ele>1000</ele>
        <time>2026-06-23T07:35:37.000Z</time>
      </trkpt>
      <trkpt lat="42.94166" lon="1.22278">
        <ele>1000</ele>
        <time>2026-06-23T07:35:38.000Z</time>
      </trkpt>
      <trkpt lat="42.94169" lon="1.22276">
        <ele>1001</ele>
        <time>2026-06-23T07:35:39.000Z</time>
      </trkpt>
      <trkpt lat="42.94172" lon="1.22273">
        <ele>1001</ele>
        <time>2026-06-23T07:35:40.000Z</time>
      </trkpt>
      <trkpt lat="42.94175" lon="1.22271">
        <ele>1001</ele>
        <time>2026-06-23T07:35:41.000Z</time>
      </trkpt>
      <trkpt lat="42.94178" lon="1.2227">
        <ele>1001</ele>
        <time>2026-06-23T07:35:42.000Z</time>
      </trkpt>
      <trkpt lat="42.94181" lon="1.22268">
        <ele>1002</ele>
        <time>2026-06-23T07:35:43.000Z</time>
      </trkpt>
      <trkpt lat="42.94184" lon="1.22265">
        <ele>1002</ele>
        <time>2026-06-23T07:35:44.000Z</time>
      </trkpt>
      <trkpt lat="42.94187" lon="1.22263">
        <ele>1002</ele>
        <time>2026-06-23T07:35:45.000Z</time>
      </trkpt>
      <trkpt lat="42.9419" lon="1.22261">
        <ele>1002</ele>
        <time>2026-06-23T07:35:46.000Z</time>
      </trkpt>
      <trkpt lat="42.94193" lon="1.2226">
        <ele>1002</ele>
        <time>2026-06-23T07:35:47.000Z</time>
      </trkpt>
      <trkpt lat="42.94196" lon="1.22259">
        <ele>1002</ele>
        <time>2026-06-23T07:35:48.000Z</time>
      </trkpt>
      <trkpt lat="42.94198" lon="1.22258">
        <ele>1003</ele>
        <time>2026-06-23T07:35:49.000Z</time>
      </trkpt>
      <trkpt lat="42.94201" lon="1.22258">
        <ele>1003</ele>
        <time>2026-06-23T07:35:50.000Z</time>
      </trkpt>
      <trkpt lat="42.94204" lon="1.22257">
        <ele>1004</ele>
        <time>2026-06-23T07:35:51.000Z</time>
      </trkpt>
      <trkpt lat="42.94207" lon="1.22257">
        <ele>1005</ele>
        <time>2026-06-23T07:35:52.000Z</time>
      </trkpt>
      <trkpt lat="42.9421" lon="1.22256">
        <ele>1005</ele>
        <time>2026-06-23T07:35:53.000Z</time>
      </trkpt>
      <trkpt lat="42.94212" lon="1.22256">
        <ele>1006</ele>
        <time>2026-06-23T07:35:54.000Z</time>
      </trkpt>
      <trkpt lat="42.94215" lon="1.22256">
        <ele>1006</ele>
        <time>2026-06-23T07:35:55.000Z</time>
      </trkpt>
      <trkpt lat="42.94217" lon="1.22255">
        <ele>1006</ele>
        <time>2026-06-23T07:35:56.000Z</time>
      </trkpt>
      <trkpt lat="42.9422" lon="1.22255">
        <ele>1006</ele>
        <time>2026-06-23T07:35:57.000Z</time>
      </trkpt>
      <trkpt lat="42.94222" lon="1.22257">
        <ele>1006</ele>
        <time>2026-06-23T07:35:58.000Z</time>
      </trkpt>
      <trkpt lat="42.94223" lon="1.22257">
        <ele>1006</ele>
        <time>2026-06-23T07:35:59.000Z</time>
      </trkpt>
      <trkpt lat="42.94225" lon="1.22258">
        <ele>1006</ele>
        <time>2026-06-23T07:36:00.000Z</time>
      </trkpt>
      <trkpt lat="42.94227" lon="1.22259">
        <ele>1006</ele>
        <time>2026-06-23T07:36:01.000Z</time>
      </trkpt>
      <trkpt lat="42.94229" lon="1.2226">
        <ele>1006</ele>
        <time>2026-06-23T07:36:02.000Z</time>
      </trkpt>
      <trkpt lat="42.94232" lon="1.22261">
        <ele>1007</ele>
        <time>2026-06-23T07:36:03.000Z</time>
      </trkpt>
      <trkpt lat="42.94235" lon="1.22263">
        <ele>1006</ele>
        <time>2026-06-23T07:36:04.000Z</time>
      </trkpt>
      <trkpt lat="42.94239" lon="1.22264">
        <ele>1006</ele>
        <time>2026-06-23T07:36:05.000Z</time>
      </trkpt>
      <trkpt lat="42.94242" lon="1.22266">
        <ele>1006</ele>
        <time>2026-06-23T07:36:06.000Z</time>
      </trkpt>
      <trkpt lat="42.94245" lon="1.22268">
        <ele>1007</ele>
        <time>2026-06-23T07:36:07.000Z</time>
      </trkpt>
      <trkpt lat="42.94248" lon="1.22269">
        <ele>1007</ele>
        <time>2026-06-23T07:36:08.000Z</time>
      </trkpt>
      <trkpt lat="42.94251" lon="1.22272">
        <ele>1008</ele>
        <time>2026-06-23T07:36:09.000Z</time>
      </trkpt>
      <trkpt lat="42.94254" lon="1.22274">
        <ele>1008</ele>
        <time>2026-06-23T07:36:10.000Z</time>
      </trkpt>
      <trkpt lat="42.94258" lon="1.22277">
        <ele>1007</ele>
        <time>2026-06-23T07:36:11.000Z</time>
      </trkpt>
      <trkpt lat="42.94263" lon="1.22279">
        <ele>1008</ele>
        <time>2026-06-23T07:36:12.000Z</time>
      </trkpt>
      <trkpt lat="42.94269" lon="1.22278">
        <ele>1008</ele>
        <time>2026-06-23T07:36:13.000Z</time>
      </trkpt>
      <trkpt lat="42.94273" lon="1.22281">
        <ele>1007</ele>
        <time>2026-06-23T07:36:14.000Z</time>
      </trkpt>
      <trkpt lat="42.94278" lon="1.22283">
        <ele>1007</ele>
        <time>2026-06-23T07:36:15.000Z</time>
      </trkpt>
      <trkpt lat="42.94284" lon="1.22285">
        <ele>1007</ele>
        <time>2026-06-23T07:36:16.000Z</time>
      </trkpt>
      <trkpt lat="42.94289" lon="1.22288">
        <ele>1008</ele>
        <time>2026-06-23T07:36:17.000Z</time>
      </trkpt>
      <trkpt lat="42.94296" lon="1.22289">
        <ele>1007</ele>
        <time>2026-06-23T07:36:18.000Z</time>
      </trkpt>
      <trkpt lat="42.94302" lon="1.22292">
        <ele>1008</ele>
        <time>2026-06-23T07:36:19.000Z</time>
      </trkpt>
      <trkpt lat="42.94308" lon="1.22297">
        <ele>1008</ele>
        <time>2026-06-23T07:36:20.000Z</time>
      </trkpt>
      <trkpt lat="42.94313" lon="1.22302">
        <ele>1006</ele>
        <time>2026-06-23T07:36:21.000Z</time>
      </trkpt>
      <trkpt lat="42.94317" lon="1.2231">
        <ele>1005</ele>
        <time>2026-06-23T07:36:22.000Z</time>
      </trkpt>
      <trkpt lat="42.94321" lon="1.22316">
        <ele>1006</ele>
        <time>2026-06-23T07:36:23.000Z</time>
      </trkpt>
      <trkpt lat="42.94325" lon="1.22323">
        <ele>1004</ele>
        <time>2026-06-23T07:36:24.000Z</time>
      </trkpt>
      <trkpt lat="42.94329" lon="1.22331">
        <ele>1003</ele>
        <time>2026-06-23T07:36:25.000Z</time>
      </trkpt>
      <trkpt lat="42.94333" lon="1.22338">
        <ele>1002</ele>
        <time>2026-06-23T07:36:26.000Z</time>
      </trkpt>
      <trkpt lat="42.94336" lon="1.22343">
        <ele>1002</ele>
        <time>2026-06-23T07:36:27.000Z</time>
      </trkpt>
      <trkpt lat="42.94341" lon="1.22345">
        <ele>1002</ele>
        <time>2026-06-23T07:36:28.000Z</time>
      </trkpt>
      <trkpt lat="42.94345" lon="1.22348">
        <ele>1002</ele>
        <time>2026-06-23T07:36:29.000Z</time>
      </trkpt>
      <trkpt lat="42.9435" lon="1.2235">
        <ele>1003</ele>
        <time>2026-06-23T07:36:30.000Z</time>
      </trkpt>
      <trkpt lat="42.94355" lon="1.22352">
        <ele>1004</ele>
        <time>2026-06-23T07:36:31.000Z</time>
      </trkpt>
      <trkpt lat="42.94363" lon="1.22356">
        <ele>1005</ele>
        <time>2026-06-23T07:36:32.000Z</time>
      </trkpt>
      <trkpt lat="42.94368" lon="1.22357">
        <ele>1006</ele>
        <time>2026-06-23T07:36:33.000Z</time>
      </trkpt>
      <trkpt lat="42.94373" lon="1.22358">
        <ele>1006</ele>
        <time>2026-06-23T07:36:34.000Z</time>
      </trkpt>
      <trkpt lat="42.94377" lon="1.22359">
        <ele>1007</ele>
        <time>2026-06-23T07:36:35.000Z</time>
      </trkpt>
      <trkpt lat="42.9438" lon="1.2236">
        <ele>1008</ele>
        <time>2026-06-23T07:36:36.000Z</time>
      </trkpt>
      <trkpt lat="42.94384" lon="1.22361">
        <ele>1008</ele>
        <time>2026-06-23T07:36:37.000Z</time>
      </trkpt>
      <trkpt lat="42.94387" lon="1.22363">
        <ele>1009</ele>
        <time>2026-06-23T07:36:38.000Z</time>
      </trkpt>
      <trkpt lat="42.94391" lon="1.22362">
        <ele>1009</ele>
        <time>2026-06-23T07:36:39.000Z</time>
      </trkpt>
      <trkpt lat="42.94395" lon="1.22362">
        <ele>1010</ele>
        <time>2026-06-23T07:36:40.000Z</time>
      </trkpt>
      <trkpt lat="42.94399" lon="1.22361">
        <ele>1010</ele>
        <time>2026-06-23T07:36:41.000Z</time>
      </trkpt>
      <trkpt lat="42.94403" lon="1.22361">
        <ele>1010</ele>
        <time>2026-06-23T07:36:42.000Z</time>
      </trkpt>
      <trkpt lat="42.94407" lon="1.22361">
        <ele>1010</ele>
        <time>2026-06-23T07:36:43.000Z</time>
      </trkpt>
      <trkpt lat="42.94411" lon="1.22361">
        <ele>1010</ele>
        <time>2026-06-23T07:36:44.000Z</time>
      </trkpt>
      <trkpt lat="42.94414" lon="1.22362">
        <ele>1010</ele>
        <time>2026-06-23T07:36:45.000Z</time>
      </trkpt>
      <trkpt lat="42.94418" lon="1.22363">
        <ele>1010</ele>
        <time>2026-06-23T07:36:46.000Z</time>
      </trkpt>
      <trkpt lat="42.94423" lon="1.22364">
        <ele>1011</ele>
        <time>2026-06-23T07:36:47.000Z</time>
      </trkpt>
      <trkpt lat="42.94428" lon="1.22365">
        <ele>1011</ele>
        <time>2026-06-23T07:36:48.000Z</time>
      </trkpt>
      <trkpt lat="42.94436" lon="1.22366">
        <ele>1010</ele>
        <time>2026-06-23T07:36:49.000Z</time>
      </trkpt>
      <trkpt lat="42.94444" lon="1.22367">
        <ele>1008</ele>
        <time>2026-06-23T07:36:50.000Z</time>
      </trkpt>
      <trkpt lat="42.94448" lon="1.22369">
        <ele>1007</ele>
        <time>2026-06-23T07:36:51.000Z</time>
      </trkpt>
      <trkpt lat="42.94454" lon="1.2237">
        <ele>1008</ele>
        <time>2026-06-23T07:36:52.000Z</time>
      </trkpt>
      <trkpt lat="42.94456" lon="1.22371">
        <ele>1008</ele>
        <time>2026-06-23T07:36:53.000Z</time>
      </trkpt>
      <trkpt lat="42.94459" lon="1.22372">
        <ele>1007</ele>
        <time>2026-06-23T07:36:54.000Z</time>
      </trkpt>
      <trkpt lat="42.94462" lon="1.22372">
        <ele>1007</ele>
        <time>2026-06-23T07:36:55.000Z</time>
      </trkpt>
      <trkpt lat="42.94463" lon="1.22371">
        <ele>1006</ele>
        <time>2026-06-23T07:36:56.000Z</time>
      </trkpt>
      <trkpt lat="42.94467" lon="1.22371">
        <ele>1007</ele>
        <time>2026-06-23T07:36:57.000Z</time>
      </trkpt>
      <trkpt lat="42.94471" lon="1.22371">
        <ele>1008</ele>
        <time>2026-06-23T07:36:58.000Z</time>
      </trkpt>
      <trkpt lat="42.94474" lon="1.2237">
        <ele>1009</ele>
        <time>2026-06-23T07:36:59.000Z</time>
      </trkpt>
      <trkpt lat="42.94476" lon="1.22369">
        <ele>1009</ele>
        <time>2026-06-23T07:37:00.000Z</time>
      </trkpt>
      <trkpt lat="42.94478" lon="1.22369">
        <ele>1009</ele>
        <time>2026-06-23T07:37:01.000Z</time>
      </trkpt>
      <trkpt lat="42.94479" lon="1.2237">
        <ele>1009</ele>
        <time>2026-06-23T07:37:02.000Z</time>
      </trkpt>
      <trkpt lat="42.94479" lon="1.2237">
        <ele>1009</ele>
        <time>2026-06-23T07:37:03.000Z</time>
      </trkpt>
      <trkpt lat="42.94479" lon="1.2237">
        <ele>1009</ele>
        <time>2026-06-23T07:37:04.000Z</time>
      </trkpt>
      <trkpt lat="42.94479" lon="1.2237">
        <ele>1009</ele>
        <time>2026-06-23T07:37:05.000Z</time>
      </trkpt>
      <trkpt lat="42.94479" lon="1.2237">
        <ele>1009</ele>
        <time>2026-06-23T07:37:06.000Z</time>
      </trkpt>
      <trkpt lat="42.94479" lon="1.2237">
        <ele>1009</ele>
        <time>2026-06-23T07:37:07.000Z</time>
      </trkpt>
      <trkpt lat="42.94479" lon="1.2237">
        <ele>1009</ele>
        <time>2026-06-23T07:37:08.000Z</time>
      </trkpt>
      <trkpt lat="42.94479" lon="1.2237">
        <ele>1009</ele>
        <time>2026-06-23T07:37:09.000Z</time>
      </trkpt>
      <trkpt lat="42.94481" lon="1.22368">
        <ele>1011</ele>
        <time>2026-06-23T07:37:10.000Z</time>
      </trkpt>
      <trkpt lat="42.94482" lon="1.22368">
        <ele>1011</ele>
        <time>2026-06-23T07:37:11.000Z</time>
      </trkpt>
      <trkpt lat="42.94482" lon="1.22368">
        <ele>1011</ele>
        <time>2026-06-23T07:37:12.000Z</time>
      </trkpt>
      <trkpt lat="42.94482" lon="1.22368">
        <ele>1011</ele>
        <time>2026-06-23T07:37:13.000Z</time>
      </trkpt>
      <trkpt lat="42.94482" lon="1.22368">
        <ele>1011</ele>
        <time>2026-06-23T07:37:14.000Z</time>
      </trkpt>
      <trkpt lat="42.94483" lon="1.22369">
        <ele>1012</ele>
        <time>2026-06-23T07:37:15.000Z</time>
      </trkpt>
      <trkpt lat="42.94482" lon="1.22369">
        <ele>1012</ele>
        <time>2026-06-23T07:37:16.000Z</time>
      </trkpt>
      <trkpt lat="42.94484" lon="1.22369">
        <ele>1012</ele>
        <time>2026-06-23T07:37:17.000Z</time>
      </trkpt>
      <trkpt lat="42.94484" lon="1.22369">
        <ele>1012</ele>
        <time>2026-06-23T07:37:18.000Z</time>
      </trkpt>
      <trkpt lat="42.94484" lon="1.22369">
        <ele>1012</ele>
        <time>2026-06-23T07:37:19.000Z</time>
      </trkpt>
      <trkpt lat="42.94486" lon="1.22369">
        <ele>1014</ele>
        <time>2026-06-23T07:37:20.000Z</time>
      </trkpt>
      <trkpt lat="42.94486" lon="1.22369">
        <ele>1014</ele>
        <time>2026-06-23T07:37:21.000Z</time>
      </trkpt>
      <trkpt lat="42.94486" lon="1.22369">
        <ele>1014</ele>
        <time>2026-06-23T07:37:22.000Z</time>
      </trkpt>
      <trkpt lat="42.94486" lon="1.22369">
        <ele>1014</ele>
        <time>2026-06-23T07:37:23.000Z</time>
      </trkpt>
      <trkpt lat="42.94486" lon="1.22369">
        <ele>1014</ele>
        <time>2026-06-23T07:37:24.000Z</time>
      </trkpt>
      <trkpt lat="42.94487" lon="1.22369">
        <ele>1015</ele>
        <time>2026-06-23T07:37:25.000Z</time>
      </trkpt>
      <trkpt lat="42.94488" lon="1.22369">
        <ele>1015</ele>
        <time>2026-06-23T07:37:44.000Z</time>
      </trkpt>
      <trkpt lat="42.94487" lon="1.22368">
        <ele>1015</ele>
        <time>2026-06-23T07:37:45.000Z</time>
      </trkpt>
      <trkpt lat="42.94488" lon="1.22367">
        <ele>1015</ele>
        <time>2026-06-23T07:37:46.000Z</time>
      </trkpt>
      <trkpt lat="42.94488" lon="1.22367">
        <ele>1015</ele>
        <time>2026-06-23T07:37:47.000Z</time>
      </trkpt>
      <trkpt lat="42.94489" lon="1.22367">
        <ele>1015</ele>
        <time>2026-06-23T07:37:48.000Z</time>
      </trkpt>
      <trkpt lat="42.9449" lon="1.22368">
        <ele>1014</ele>
        <time>2026-06-23T07:37:49.000Z</time>
      </trkpt>
      <trkpt lat="42.94492" lon="1.22367">
        <ele>1014</ele>
        <time>2026-06-23T07:37:50.000Z</time>
      </trkpt>
      <trkpt lat="42.94495" lon="1.22369">
        <ele>1014</ele>
        <time>2026-06-23T07:37:51.000Z</time>
      </trkpt>
      <trkpt lat="42.94499" lon="1.2237">
        <ele>1014</ele>
        <time>2026-06-23T07:37:52.000Z</time>
      </trkpt>
      <trkpt lat="42.94506" lon="1.22373">
        <ele>1013</ele>
        <time>2026-06-23T07:37:53.000Z</time>
      </trkpt>
      <trkpt lat="42.94513" lon="1.22374">
        <ele>1013</ele>
        <time>2026-06-23T07:37:54.000Z</time>
      </trkpt>
      <trkpt lat="42.94519" lon="1.22376">
        <ele>1013</ele>
        <time>2026-06-23T07:37:55.000Z</time>
      </trkpt>
      <trkpt lat="42.94523" lon="1.22377">
        <ele>1012</ele>
        <time>2026-06-23T07:37:56.000Z</time>
      </trkpt>
      <trkpt lat="42.9453" lon="1.22378">
        <ele>1011</ele>
        <time>2026-06-23T07:37:57.000Z</time>
      </trkpt>
      <trkpt lat="42.94538" lon="1.22381">
        <ele>1012</ele>
        <time>2026-06-23T07:37:58.000Z</time>
      </trkpt>
      <trkpt lat="42.94544" lon="1.22383">
        <ele>1012</ele>
        <time>2026-06-23T07:37:59.000Z</time>
      </trkpt>
      <trkpt lat="42.9455" lon="1.22386">
        <ele>1011</ele>
        <time>2026-06-23T07:38:00.000Z</time>
      </trkpt>
      <trkpt lat="42.94556" lon="1.2239">
        <ele>1010</ele>
        <time>2026-06-23T07:38:01.000Z</time>
      </trkpt>
      <trkpt lat="42.94562" lon="1.22392">
        <ele>1010</ele>
        <time>2026-06-23T07:38:02.000Z</time>
      </trkpt>
      <trkpt lat="42.94568" lon="1.22393">
        <ele>1011</ele>
        <time>2026-06-23T07:38:03.000Z</time>
      </trkpt>
      <trkpt lat="42.94575" lon="1.22395">
        <ele>1011</ele>
        <time>2026-06-23T07:38:04.000Z</time>
      </trkpt>
      <trkpt lat="42.94583" lon="1.22396">
        <ele>1011</ele>
        <time>2026-06-23T07:38:05.000Z</time>
      </trkpt>
      <trkpt lat="42.94593" lon="1.22397">
        <ele>1011</ele>
        <time>2026-06-23T07:38:06.000Z</time>
      </trkpt>
      <trkpt lat="42.94604" lon="1.22399">
        <ele>1009</ele>
        <time>2026-06-23T07:38:07.000Z</time>
      </trkpt>
      <trkpt lat="42.94617" lon="1.22401">
        <ele>1007</ele>
        <time>2026-06-23T07:38:08.000Z</time>
      </trkpt>
      <trkpt lat="42.94627" lon="1.22404">
        <ele>1005</ele>
        <time>2026-06-23T07:38:09.000Z</time>
      </trkpt>
      <trkpt lat="42.94635" lon="1.2241">
        <ele>1004</ele>
        <time>2026-06-23T07:38:10.000Z</time>
      </trkpt>
      <trkpt lat="42.94643" lon="1.22417">
        <ele>1003</ele>
        <time>2026-06-23T07:38:11.000Z</time>
      </trkpt>
      <trkpt lat="42.9465" lon="1.22425">
        <ele>1002</ele>
        <time>2026-06-23T07:38:12.000Z</time>
      </trkpt>
      <trkpt lat="42.94656" lon="1.22434">
        <ele>1001</ele>
        <time>2026-06-23T07:38:13.000Z</time>
      </trkpt>
      <trkpt lat="42.94662" lon="1.22442">
        <ele>1001</ele>
        <time>2026-06-23T07:38:14.000Z</time>
      </trkpt>
      <trkpt lat="42.94667" lon="1.22451">
        <ele>1001</ele>
        <time>2026-06-23T07:38:15.000Z</time>
      </trkpt>
      <trkpt lat="42.94671" lon="1.2246">
        <ele>1000</ele>
        <time>2026-06-23T07:38:16.000Z</time>
      </trkpt>
      <trkpt lat="42.94672" lon="1.22468">
        <ele>1000</ele>
        <time>2026-06-23T07:38:17.000Z</time>
      </trkpt>
      <trkpt lat="42.94674" lon="1.22476">
        <ele>999</ele>
        <time>2026-06-23T07:38:18.000Z</time>
      </trkpt>
      <trkpt lat="42.94674" lon="1.22484">
        <ele>998</ele>
        <time>2026-06-23T07:38:19.000Z</time>
      </trkpt>
      <trkpt lat="42.94673" lon="1.22493">
        <ele>998</ele>
        <time>2026-06-23T07:38:20.000Z</time>
      </trkpt>
      <trkpt lat="42.94672" lon="1.22503">
        <ele>997</ele>
        <time>2026-06-23T07:38:21.000Z</time>
      </trkpt>
      <trkpt lat="42.94672" lon="1.22512">
        <ele>997</ele>
        <time>2026-06-23T07:38:22.000Z</time>
      </trkpt>
      <trkpt lat="42.94672" lon="1.22522">
        <ele>997</ele>
        <time>2026-06-23T07:38:23.000Z</time>
      </trkpt>
      <trkpt lat="42.94673" lon="1.22532">
        <ele>996</ele>
        <time>2026-06-23T07:38:24.000Z</time>
      </trkpt>
      <trkpt lat="42.94674" lon="1.22541">
        <ele>996</ele>
        <time>2026-06-23T07:38:25.000Z</time>
      </trkpt>
      <trkpt lat="42.94675" lon="1.22551">
        <ele>996</ele>
        <time>2026-06-23T07:38:26.000Z</time>
      </trkpt>
      <trkpt lat="42.94675" lon="1.2256">
        <ele>996</ele>
        <time>2026-06-23T07:38:27.000Z</time>
      </trkpt>
      <trkpt lat="42.94676" lon="1.2257">
        <ele>995</ele>
        <time>2026-06-23T07:38:28.000Z</time>
      </trkpt>
      <trkpt lat="42.94677" lon="1.22579">
        <ele>995</ele>
        <time>2026-06-23T07:38:29.000Z</time>
      </trkpt>
      <trkpt lat="42.94677" lon="1.22588">
        <ele>995</ele>
        <time>2026-06-23T07:38:30.000Z</time>
      </trkpt>
      <trkpt lat="42.94678" lon="1.22596">
        <ele>995</ele>
        <time>2026-06-23T07:38:31.000Z</time>
      </trkpt>
      <trkpt lat="42.94678" lon="1.22605">
        <ele>994</ele>
        <time>2026-06-23T07:38:32.000Z</time>
      </trkpt>
      <trkpt lat="42.94678" lon="1.22613">
        <ele>993</ele>
        <time>2026-06-23T07:38:33.000Z</time>
      </trkpt>
      <trkpt lat="42.94678" lon="1.22622">
        <ele>993</ele>
        <time>2026-06-23T07:38:34.000Z</time>
      </trkpt>
      <trkpt lat="42.94678" lon="1.2263">
        <ele>993</ele>
        <time>2026-06-23T07:38:35.000Z</time>
      </trkpt>
      <trkpt lat="42.94679" lon="1.22639">
        <ele>993</ele>
        <time>2026-06-23T07:38:36.000Z</time>
      </trkpt>
      <trkpt lat="42.9468" lon="1.22645">
        <ele>992</ele>
        <time>2026-06-23T07:38:37.000Z</time>
      </trkpt>
      <trkpt lat="42.94681" lon="1.22653">
        <ele>993</ele>
        <time>2026-06-23T07:38:38.000Z</time>
      </trkpt>
      <trkpt lat="42.94682" lon="1.2266">
        <ele>992</ele>
        <time>2026-06-23T07:38:39.000Z</time>
      </trkpt>
      <trkpt lat="42.94683" lon="1.22668">
        <ele>992</ele>
        <time>2026-06-23T07:38:40.000Z</time>
      </trkpt>
      <trkpt lat="42.94684" lon="1.22676">
        <ele>992</ele>
        <time>2026-06-23T07:38:41.000Z</time>
      </trkpt>
      <trkpt lat="42.94684" lon="1.22684">
        <ele>992</ele>
        <time>2026-06-23T07:38:42.000Z</time>
      </trkpt>
      <trkpt lat="42.94684" lon="1.22692">
        <ele>991</ele>
        <time>2026-06-23T07:38:43.000Z</time>
      </trkpt>
      <trkpt lat="42.94684" lon="1.22701">
        <ele>991</ele>
        <time>2026-06-23T07:38:44.000Z</time>
      </trkpt>
      <trkpt lat="42.94685" lon="1.22709">
        <ele>991</ele>
        <time>2026-06-23T07:38:45.000Z</time>
      </trkpt>
      <trkpt lat="42.94685" lon="1.22719">
        <ele>991</ele>
        <time>2026-06-23T07:38:46.000Z</time>
      </trkpt>
      <trkpt lat="42.94684" lon="1.22728">
        <ele>991</ele>
        <time>2026-06-23T07:38:47.000Z</time>
      </trkpt>
      <trkpt lat="42.94683" lon="1.22736">
        <ele>991</ele>
        <time>2026-06-23T07:38:48.000Z</time>
      </trkpt>
      <trkpt lat="42.94681" lon="1.22744">
        <ele>991</ele>
        <time>2026-06-23T07:38:49.000Z</time>
      </trkpt>
      <trkpt lat="42.94679" lon="1.22753">
        <ele>991</ele>
        <time>2026-06-23T07:38:50.000Z</time>
      </trkpt>
      <trkpt lat="42.94677" lon="1.22762">
        <ele>991</ele>
        <time>2026-06-23T07:38:51.000Z</time>
      </trkpt>
      <trkpt lat="42.94674" lon="1.2277">
        <ele>990</ele>
        <time>2026-06-23T07:38:52.000Z</time>
      </trkpt>
      <trkpt lat="42.9467" lon="1.22778">
        <ele>990</ele>
        <time>2026-06-23T07:38:53.000Z</time>
      </trkpt>
      <trkpt lat="42.94666" lon="1.22784">
        <ele>990</ele>
        <time>2026-06-23T07:38:54.000Z</time>
      </trkpt>
      <trkpt lat="42.94663" lon="1.2279">
        <ele>989</ele>
        <time>2026-06-23T07:38:55.000Z</time>
      </trkpt>
      <trkpt lat="42.94657" lon="1.22795">
        <ele>989</ele>
        <time>2026-06-23T07:38:56.000Z</time>
      </trkpt>
      <trkpt lat="42.94652" lon="1.228">
        <ele>990</ele>
        <time>2026-06-23T07:38:57.000Z</time>
      </trkpt>
      <trkpt lat="42.94647" lon="1.22803">
        <ele>990</ele>
        <time>2026-06-23T07:38:58.000Z</time>
      </trkpt>
      <trkpt lat="42.94641" lon="1.22807">
        <ele>992</ele>
        <time>2026-06-23T07:38:59.000Z</time>
      </trkpt>
      <trkpt lat="42.94634" lon="1.22812">
        <ele>993</ele>
        <time>2026-06-23T07:39:00.000Z</time>
      </trkpt>
      <trkpt lat="42.94628" lon="1.22817">
        <ele>994</ele>
        <time>2026-06-23T07:39:01.000Z</time>
      </trkpt>
      <trkpt lat="42.94622" lon="1.22823">
        <ele>993</ele>
        <time>2026-06-23T07:39:02.000Z</time>
      </trkpt>
      <trkpt lat="42.94616" lon="1.22827">
        <ele>993</ele>
        <time>2026-06-23T07:39:03.000Z</time>
      </trkpt>
      <trkpt lat="42.94612" lon="1.22832">
        <ele>993</ele>
        <time>2026-06-23T07:39:04.000Z</time>
      </trkpt>
      <trkpt lat="42.94609" lon="1.22835">
        <ele>992</ele>
        <time>2026-06-23T07:39:05.000Z</time>
      </trkpt>
      <trkpt lat="42.94607" lon="1.22837">
        <ele>992</ele>
        <time>2026-06-23T07:39:06.000Z</time>
      </trkpt>
      <trkpt lat="42.94605" lon="1.2284">
        <ele>991</ele>
        <time>2026-06-23T07:39:07.000Z</time>
      </trkpt>
      <trkpt lat="42.94602" lon="1.22844">
        <ele>991</ele>
        <time>2026-06-23T07:39:08.000Z</time>
      </trkpt>
      <trkpt lat="42.94599" lon="1.22848">
        <ele>991</ele>
        <time>2026-06-23T07:39:09.000Z</time>
      </trkpt>
      <trkpt lat="42.94597" lon="1.22851">
        <ele>991</ele>
        <time>2026-06-23T07:39:10.000Z</time>
      </trkpt>
      <trkpt lat="42.94595" lon="1.22854">
        <ele>990</ele>
        <time>2026-06-23T07:39:11.000Z</time>
      </trkpt>
      <trkpt lat="42.94593" lon="1.22857">
        <ele>990</ele>
        <time>2026-06-23T07:39:12.000Z</time>
      </trkpt>
      <trkpt lat="42.94592" lon="1.2286">
        <ele>990</ele>
        <time>2026-06-23T07:39:13.000Z</time>
      </trkpt>
      <trkpt lat="42.9459" lon="1.22863">
        <ele>990</ele>
        <time>2026-06-23T07:39:14.000Z</time>
      </trkpt>
      <trkpt lat="42.94588" lon="1.22866">
        <ele>990</ele>
        <time>2026-06-23T07:39:15.000Z</time>
      </trkpt>
      <trkpt lat="42.94587" lon="1.22868">
        <ele>990</ele>
        <time>2026-06-23T07:39:16.000Z</time>
      </trkpt>
      <trkpt lat="42.94587" lon="1.22869">
        <ele>990</ele>
        <time>2026-06-23T07:39:17.000Z</time>
      </trkpt>
      <trkpt lat="42.94587" lon="1.22869">
        <ele>989</ele>
        <time>2026-06-23T07:39:18.000Z</time>
      </trkpt>
      <trkpt lat="42.94587" lon="1.22869">
        <ele>989</ele>
        <time>2026-06-23T07:39:19.000Z</time>
      </trkpt>
      <trkpt lat="42.94587" lon="1.22869">
        <ele>989</ele>
        <time>2026-06-23T07:39:20.000Z</time>
      </trkpt>
      <trkpt lat="42.94588" lon="1.22868">
        <ele>990</ele>
        <time>2026-06-23T07:39:21.000Z</time>
      </trkpt>
      <trkpt lat="42.94588" lon="1.22869">
        <ele>990</ele>
        <time>2026-06-23T07:39:22.000Z</time>
      </trkpt>
      <trkpt lat="42.94588" lon="1.2287">
        <ele>990</ele>
        <time>2026-06-23T07:39:23.000Z</time>
      </trkpt>
      <trkpt lat="42.94588" lon="1.22871">
        <ele>990</ele>
        <time>2026-06-23T07:39:24.000Z</time>
      </trkpt>
      <trkpt lat="42.94587" lon="1.22872">
        <ele>990</ele>
        <time>2026-06-23T07:39:25.000Z</time>
      </trkpt>
      <trkpt lat="42.94588" lon="1.22871">
        <ele>990</ele>
        <time>2026-06-23T07:39:26.000Z</time>
      </trkpt>
      <trkpt lat="42.94585" lon="1.22879">
        <ele>989</ele>
        <time>2026-06-23T07:39:40.000Z</time>
      </trkpt>
      <trkpt lat="42.94583" lon="1.22882">
        <ele>989</ele>
        <time>2026-06-23T07:39:41.000Z</time>
      </trkpt>
      <trkpt lat="42.94582" lon="1.22885">
        <ele>989</ele>
        <time>2026-06-23T07:39:42.000Z</time>
      </trkpt>
      <trkpt lat="42.94581" lon="1.22887">
        <ele>989</ele>
        <time>2026-06-23T07:39:43.000Z</time>
      </trkpt>
      <trkpt lat="42.94579" lon="1.2289">
        <ele>989</ele>
        <time>2026-06-23T07:39:44.000Z</time>
      </trkpt>
      <trkpt lat="42.94576" lon="1.22893">
        <ele>989</ele>
        <time>2026-06-23T07:39:45.000Z</time>
      </trkpt>
      <trkpt lat="42.94574" lon="1.22896">
        <ele>989</ele>
        <time>2026-06-23T07:39:46.000Z</time>
      </trkpt>
      <trkpt lat="42.94572" lon="1.22898">
        <ele>989</ele>
        <time>2026-06-23T07:39:47.000Z</time>
      </trkpt>
      <trkpt lat="42.94569" lon="1.22901">
        <ele>989</ele>
        <time>2026-06-23T07:39:48.000Z</time>
      </trkpt>
      <trkpt lat="42.94567" lon="1.22902">
        <ele>989</ele>
        <time>2026-06-23T07:39:49.000Z</time>
      </trkpt>
      <trkpt lat="42.94565" lon="1.22904">
        <ele>989</ele>
        <time>2026-06-23T07:39:50.000Z</time>
      </trkpt>
      <trkpt lat="42.94562" lon="1.22906">
        <ele>989</ele>
        <time>2026-06-23T07:39:51.000Z</time>
      </trkpt>
      <trkpt lat="42.9456" lon="1.22907">
        <ele>989</ele>
        <time>2026-06-23T07:39:52.000Z</time>
      </trkpt>
      <trkpt lat="42.94557" lon="1.22909">
        <ele>989</ele>
        <time>2026-06-23T07:39:53.000Z</time>
      </trkpt>
      <trkpt lat="42.94554" lon="1.2291">
        <ele>988</ele>
        <time>2026-06-23T07:39:54.000Z</time>
      </trkpt>
      <trkpt lat="42.94551" lon="1.22912">
        <ele>988</ele>
        <time>2026-06-23T07:39:55.000Z</time>
      </trkpt>
      <trkpt lat="42.94549" lon="1.22912">
        <ele>988</ele>
        <time>2026-06-23T07:39:56.000Z</time>
      </trkpt>
      <trkpt lat="42.94547" lon="1.22913">
        <ele>988</ele>
        <time>2026-06-23T07:39:57.000Z</time>
      </trkpt>
      <trkpt lat="42.94545" lon="1.22914">
        <ele>989</ele>
        <time>2026-06-23T07:39:58.000Z</time>
      </trkpt>
      <trkpt lat="42.94543" lon="1.22915">
        <ele>989</ele>
        <time>2026-06-23T07:39:59.000Z</time>
      </trkpt>
      <trkpt lat="42.94541" lon="1.22916">
        <ele>989</ele>
        <time>2026-06-23T07:40:00.000Z</time>
      </trkpt>
      <trkpt lat="42.94539" lon="1.22917">
        <ele>990</ele>
        <time>2026-06-23T07:40:01.000Z</time>
      </trkpt>
      <trkpt lat="42.94537" lon="1.22918">
        <ele>990</ele>
        <time>2026-06-23T07:40:02.000Z</time>
      </trkpt>
      <trkpt lat="42.94534" lon="1.22918">
        <ele>991</ele>
        <time>2026-06-23T07:40:03.000Z</time>
      </trkpt>
      <trkpt lat="42.94532" lon="1.2292">
        <ele>991</ele>
        <time>2026-06-23T07:40:04.000Z</time>
      </trkpt>
      <trkpt lat="42.9453" lon="1.22921">
        <ele>991</ele>
        <time>2026-06-23T07:40:05.000Z</time>
      </trkpt>
      <trkpt lat="42.94529" lon="1.22922">
        <ele>992</ele>
        <time>2026-06-23T07:40:06.000Z</time>
      </trkpt>
      <trkpt lat="42.94527" lon="1.22924">
        <ele>992</ele>
        <time>2026-06-23T07:40:07.000Z</time>
      </trkpt>
      <trkpt lat="42.94524" lon="1.22925">
        <ele>992</ele>
        <time>2026-06-23T07:40:08.000Z</time>
      </trkpt>
      <trkpt lat="42.94522" lon="1.22928">
        <ele>992</ele>
        <time>2026-06-23T07:40:09.000Z</time>
      </trkpt>
      <trkpt lat="42.9452" lon="1.22929">
        <ele>992</ele>
        <time>2026-06-23T07:40:10.000Z</time>
      </trkpt>
      <trkpt lat="42.94518" lon="1.22932">
        <ele>993</ele>
        <time>2026-06-23T07:40:11.000Z</time>
      </trkpt>
      <trkpt lat="42.94515" lon="1.22934">
        <ele>992</ele>
        <time>2026-06-23T07:40:12.000Z</time>
      </trkpt>
      <trkpt lat="42.94512" lon="1.22935">
        <ele>991</ele>
        <time>2026-06-23T07:40:13.000Z</time>
      </trkpt>
      <trkpt lat="42.94509" lon="1.22937">
        <ele>991</ele>
        <time>2026-06-23T07:40:14.000Z</time>
      </trkpt>
      <trkpt lat="42.94506" lon="1.22938">
        <ele>992</ele>
        <time>2026-06-23T07:40:15.000Z</time>
      </trkpt>
      <trkpt lat="42.94503" lon="1.2294">
        <ele>992</ele>
        <time>2026-06-23T07:40:16.000Z</time>
      </trkpt>
      <trkpt lat="42.94499" lon="1.22941">
        <ele>992</ele>
        <time>2026-06-23T07:40:17.000Z</time>
      </trkpt>
      <trkpt lat="42.94496" lon="1.22941">
        <ele>991</ele>
        <time>2026-06-23T07:40:18.000Z</time>
      </trkpt>
      <trkpt lat="42.94494" lon="1.22942">
        <ele>992</ele>
        <time>2026-06-23T07:40:19.000Z</time>
      </trkpt>
      <trkpt lat="42.94492" lon="1.22942">
        <ele>992</ele>
        <time>2026-06-23T07:40:20.000Z</time>
      </trkpt>
      <trkpt lat="42.9449" lon="1.22942">
        <ele>992</ele>
        <time>2026-06-23T07:40:21.000Z</time>
      </trkpt>
      <trkpt lat="42.94488" lon="1.22943">
        <ele>991</ele>
        <time>2026-06-23T07:40:22.000Z</time>
      </trkpt>
      <trkpt lat="42.94485" lon="1.22943">
        <ele>991</ele>
        <time>2026-06-23T07:40:23.000Z</time>
      </trkpt>
      <trkpt lat="42.94482" lon="1.22944">
        <ele>991</ele>
        <time>2026-06-23T07:40:24.000Z</time>
      </trkpt>
      <trkpt lat="42.94479" lon="1.22948">
        <ele>991</ele>
        <time>2026-06-23T07:40:25.000Z</time>
      </trkpt>
      <trkpt lat="42.94475" lon="1.22951">
        <ele>993</ele>
        <time>2026-06-23T07:40:26.000Z</time>
      </trkpt>
      <trkpt lat="42.94473" lon="1.22955">
        <ele>993</ele>
        <time>2026-06-23T07:40:27.000Z</time>
      </trkpt>
      <trkpt lat="42.94469" lon="1.22956">
        <ele>993</ele>
        <time>2026-06-23T07:40:28.000Z</time>
      </trkpt>
      <trkpt lat="42.94465" lon="1.22959">
        <ele>993</ele>
        <time>2026-06-23T07:40:29.000Z</time>
      </trkpt>
      <trkpt lat="42.9446" lon="1.22964">
        <ele>993</ele>
        <time>2026-06-23T07:40:30.000Z</time>
      </trkpt>
      <trkpt lat="42.94457" lon="1.22967">
        <ele>993</ele>
        <time>2026-06-23T07:40:31.000Z</time>
      </trkpt>
      <trkpt lat="42.94455" lon="1.22971">
        <ele>994</ele>
        <time>2026-06-23T07:40:32.000Z</time>
      </trkpt>
      <trkpt lat="42.94453" lon="1.22976">
        <ele>995</ele>
        <time>2026-06-23T07:40:33.000Z</time>
      </trkpt>
      <trkpt lat="42.94452" lon="1.2298">
        <ele>995</ele>
        <time>2026-06-23T07:40:34.000Z</time>
      </trkpt>
      <trkpt lat="42.94452" lon="1.22984">
        <ele>996</ele>
        <time>2026-06-23T07:40:35.000Z</time>
      </trkpt>
      <trkpt lat="42.94453" lon="1.22989">
        <ele>997</ele>
        <time>2026-06-23T07:40:36.000Z</time>
      </trkpt>
      <trkpt lat="42.94454" lon="1.22993">
        <ele>998</ele>
        <time>2026-06-23T07:40:37.000Z</time>
      </trkpt>
      <trkpt lat="42.94454" lon="1.22996">
        <ele>998</ele>
        <time>2026-06-23T07:40:38.000Z</time>
      </trkpt>
      <trkpt lat="42.94455" lon="1.23">
        <ele>999</ele>
        <time>2026-06-23T07:40:39.000Z</time>
      </trkpt>
      <trkpt lat="42.94452" lon="1.23004">
        <ele>999</ele>
        <time>2026-06-23T07:40:40.000Z</time>
      </trkpt>
      <trkpt lat="42.94452" lon="1.23006">
        <ele>1000</ele>
        <time>2026-06-23T07:40:41.000Z</time>
      </trkpt>
      <trkpt lat="42.94451" lon="1.23012">
        <ele>1001</ele>
        <time>2026-06-23T07:40:42.000Z</time>
      </trkpt>
      <trkpt lat="42.94451" lon="1.23017">
        <ele>1001</ele>
        <time>2026-06-23T07:40:43.000Z</time>
      </trkpt>
      <trkpt lat="42.94452" lon="1.23022">
        <ele>1002</ele>
        <time>2026-06-23T07:40:44.000Z</time>
      </trkpt>
      <trkpt lat="42.94453" lon="1.23025">
        <ele>1004</ele>
        <time>2026-06-23T07:40:45.000Z</time>
      </trkpt>
      <trkpt lat="42.94454" lon="1.23029">
        <ele>1004</ele>
        <time>2026-06-23T07:40:46.000Z</time>
      </trkpt>
      <trkpt lat="42.94453" lon="1.23032">
        <ele>1004</ele>
        <time>2026-06-23T07:40:47.000Z</time>
      </trkpt>
      <trkpt lat="42.94453" lon="1.23034">
        <ele>1004</ele>
        <time>2026-06-23T07:40:48.000Z</time>
      </trkpt>
      <trkpt lat="42.94454" lon="1.23038">
        <ele>1004</ele>
        <time>2026-06-23T07:40:49.000Z</time>
      </trkpt>
      <trkpt lat="42.94456" lon="1.2304">
        <ele>1004</ele>
        <time>2026-06-23T07:40:50.000Z</time>
      </trkpt>
      <trkpt lat="42.94456" lon="1.23043">
        <ele>1004</ele>
        <time>2026-06-23T07:40:51.000Z</time>
      </trkpt>
      <trkpt lat="42.94455" lon="1.23044">
        <ele>1005</ele>
        <time>2026-06-23T07:40:52.000Z</time>
      </trkpt>
      <trkpt lat="42.94454" lon="1.23046">
        <ele>1005</ele>
        <time>2026-06-23T07:40:53.000Z</time>
      </trkpt>
      <trkpt lat="42.94453" lon="1.23049">
        <ele>1005</ele>
        <time>2026-06-23T07:40:54.000Z</time>
      </trkpt>
      <trkpt lat="42.94452" lon="1.23052">
        <ele>1005</ele>
        <time>2026-06-23T07:40:55.000Z</time>
      </trkpt>
      <trkpt lat="42.94451" lon="1.23056">
        <ele>1006</ele>
        <time>2026-06-23T07:40:56.000Z</time>
      </trkpt>
      <trkpt lat="42.94451" lon="1.23059">
        <ele>1006</ele>
        <time>2026-06-23T07:40:57.000Z</time>
      </trkpt>
      <trkpt lat="42.94451" lon="1.23063">
        <ele>1006</ele>
        <time>2026-06-23T07:40:58.000Z</time>
      </trkpt>
      <trkpt lat="42.94449" lon="1.23065">
        <ele>1006</ele>
        <time>2026-06-23T07:40:59.000Z</time>
      </trkpt>
      <trkpt lat="42.94448" lon="1.23069">
        <ele>1006</ele>
        <time>2026-06-23T07:41:00.000Z</time>
      </trkpt>
      <trkpt lat="42.94447" lon="1.23071">
        <ele>1006</ele>
        <time>2026-06-23T07:41:01.000Z</time>
      </trkpt>
      <trkpt lat="42.94446" lon="1.23074">
        <ele>1007</ele>
        <time>2026-06-23T07:41:02.000Z</time>
      </trkpt>
      <trkpt lat="42.94445" lon="1.23076">
        <ele>1007</ele>
        <time>2026-06-23T07:41:03.000Z</time>
      </trkpt>
      <trkpt lat="42.94444" lon="1.23078">
        <ele>1007</ele>
        <time>2026-06-23T07:41:04.000Z</time>
      </trkpt>
      <trkpt lat="42.94442" lon="1.23079">
        <ele>1007</ele>
        <time>2026-06-23T07:41:05.000Z</time>
      </trkpt>
      <trkpt lat="42.9444" lon="1.23081">
        <ele>1007</ele>
        <time>2026-06-23T07:41:06.000Z</time>
      </trkpt>
      <trkpt lat="42.94437" lon="1.23083">
        <ele>1008</ele>
        <time>2026-06-23T07:41:07.000Z</time>
      </trkpt>
      <trkpt lat="42.94436" lon="1.23084">
        <ele>1008</ele>
        <time>2026-06-23T07:41:08.000Z</time>
      </trkpt>
      <trkpt lat="42.94434" lon="1.23086">
        <ele>1008</ele>
        <time>2026-06-23T07:41:09.000Z</time>
      </trkpt>
      <trkpt lat="42.94432" lon="1.23087">
        <ele>1008</ele>
        <time>2026-06-23T07:41:10.000Z</time>
      </trkpt>
      <trkpt lat="42.9443" lon="1.23088">
        <ele>1008</ele>
        <time>2026-06-23T07:41:11.000Z</time>
      </trkpt>
      <trkpt lat="42.94428" lon="1.23089">
        <ele>1008</ele>
        <time>2026-06-23T07:41:12.000Z</time>
      </trkpt>
      <trkpt lat="42.94426" lon="1.2309">
        <ele>1008</ele>
        <time>2026-06-23T07:41:13.000Z</time>
      </trkpt>
      <trkpt lat="42.94423" lon="1.23092">
        <ele>1008</ele>
        <time>2026-06-23T07:41:14.000Z</time>
      </trkpt>
      <trkpt lat="42.94421" lon="1.23093">
        <ele>1009</ele>
        <time>2026-06-23T07:41:15.000Z</time>
      </trkpt>
      <trkpt lat="42.9442" lon="1.23094">
        <ele>1009</ele>
        <time>2026-06-23T07:41:16.000Z</time>
      </trkpt>
      <trkpt lat="42.94418" lon="1.23095">
        <ele>1010</ele>
        <time>2026-06-23T07:41:17.000Z</time>
      </trkpt>
      <trkpt lat="42.94415" lon="1.23095">
        <ele>1010</ele>
        <time>2026-06-23T07:41:18.000Z</time>
      </trkpt>
      <trkpt lat="42.94413" lon="1.23096">
        <ele>1010</ele>
        <time>2026-06-23T07:41:19.000Z</time>
      </trkpt>
      <trkpt lat="42.94412" lon="1.23096">
        <ele>1010</ele>
        <time>2026-06-23T07:41:20.000Z</time>
      </trkpt>
      <trkpt lat="42.94411" lon="1.23096">
        <ele>1010</ele>
        <time>2026-06-23T07:41:21.000Z</time>
      </trkpt>
      <trkpt lat="42.9441" lon="1.23095">
        <ele>1011</ele>
        <time>2026-06-23T07:41:22.000Z</time>
      </trkpt>
      <trkpt lat="42.94408" lon="1.23094">
        <ele>1010</ele>
        <time>2026-06-23T07:41:23.000Z</time>
      </trkpt>
      <trkpt lat="42.94406" lon="1.23094">
        <ele>1010</ele>
        <time>2026-06-23T07:41:24.000Z</time>
      </trkpt>
      <trkpt lat="42.94404" lon="1.23095">
        <ele>1011</ele>
        <time>2026-06-23T07:41:25.000Z</time>
      </trkpt>
      <trkpt lat="42.94402" lon="1.23096">
        <ele>1010</ele>
        <time>2026-06-23T07:41:26.000Z</time>
      </trkpt>
      <trkpt lat="42.944" lon="1.23097">
        <ele>1010</ele>
        <time>2026-06-23T07:41:27.000Z</time>
      </trkpt>
      <trkpt lat="42.94398" lon="1.23098">
        <ele>1010</ele>
        <time>2026-06-23T07:41:28.000Z</time>
      </trkpt>
      <trkpt lat="42.94396" lon="1.23101">
        <ele>1010</ele>
        <time>2026-06-23T07:41:29.000Z</time>
      </trkpt>
      <trkpt lat="42.94394" lon="1.23103">
        <ele>1010</ele>
        <time>2026-06-23T07:41:30.000Z</time>
      </trkpt>
      <trkpt lat="42.94391" lon="1.23104">
        <ele>1010</ele>
        <time>2026-06-23T07:41:31.000Z</time>
      </trkpt>
      <trkpt lat="42.94389" lon="1.23105">
        <ele>1011</ele>
        <time>2026-06-23T07:41:32.000Z</time>
      </trkpt>
      <trkpt lat="42.94386" lon="1.23108">
        <ele>1011</ele>
        <time>2026-06-23T07:41:33.000Z</time>
      </trkpt>
      <trkpt lat="42.94384" lon="1.2311">
        <ele>1011</ele>
        <time>2026-06-23T07:41:34.000Z</time>
      </trkpt>
      <trkpt lat="42.94381" lon="1.23112">
        <ele>1011</ele>
        <time>2026-06-23T07:41:35.000Z</time>
      </trkpt>
      <trkpt lat="42.94378" lon="1.23114">
        <ele>1011</ele>
        <time>2026-06-23T07:41:36.000Z</time>
      </trkpt>
      <trkpt lat="42.94375" lon="1.23117">
        <ele>1011</ele>
        <time>2026-06-23T07:41:37.000Z</time>
      </trkpt>
      <trkpt lat="42.94372" lon="1.2312">
        <ele>1011</ele>
        <time>2026-06-23T07:41:38.000Z</time>
      </trkpt>
      <trkpt lat="42.94369" lon="1.23123">
        <ele>1012</ele>
        <time>2026-06-23T07:41:39.000Z</time>
      </trkpt>
      <trkpt lat="42.94368" lon="1.23126">
        <ele>1012</ele>
        <time>2026-06-23T07:41:40.000Z</time>
      </trkpt>
      <trkpt lat="42.94365" lon="1.23128">
        <ele>1012</ele>
        <time>2026-06-23T07:41:41.000Z</time>
      </trkpt>
      <trkpt lat="42.94363" lon="1.2313">
        <ele>1012</ele>
        <time>2026-06-23T07:41:42.000Z</time>
      </trkpt>
      <trkpt lat="42.94362" lon="1.23132">
        <ele>1012</ele>
        <time>2026-06-23T07:41:43.000Z</time>
      </trkpt>
      <trkpt lat="42.9436" lon="1.23133">
        <ele>1012</ele>
        <time>2026-06-23T07:41:44.000Z</time>
      </trkpt>
      <trkpt lat="42.94358" lon="1.23134">
        <ele>1013</ele>
        <time>2026-06-23T07:41:45.000Z</time>
      </trkpt>
      <trkpt lat="42.94356" lon="1.23135">
        <ele>1014</ele>
        <time>2026-06-23T07:41:46.000Z</time>
      </trkpt>
      <trkpt lat="42.94355" lon="1.23137">
        <ele>1015</ele>
        <time>2026-06-23T07:41:47.000Z</time>
      </trkpt>
      <trkpt lat="42.94354" lon="1.2314">
        <ele>1016</ele>
        <time>2026-06-23T07:41:48.000Z</time>
      </trkpt>
      <trkpt lat="42.94354" lon="1.23144">
        <ele>1016</ele>
        <time>2026-06-23T07:41:49.000Z</time>
      </trkpt>
      <trkpt lat="42.94353" lon="1.23147">
        <ele>1017</ele>
        <time>2026-06-23T07:41:50.000Z</time>
      </trkpt>
      <trkpt lat="42.94353" lon="1.23152">
        <ele>1017</ele>
        <time>2026-06-23T07:41:51.000Z</time>
      </trkpt>
      <trkpt lat="42.94352" lon="1.23155">
        <ele>1018</ele>
        <time>2026-06-23T07:41:52.000Z</time>
      </trkpt>
      <trkpt lat="42.94351" lon="1.23159">
        <ele>1019</ele>
        <time>2026-06-23T07:41:53.000Z</time>
      </trkpt>
      <trkpt lat="42.9435" lon="1.23162">
        <ele>1019</ele>
        <time>2026-06-23T07:41:54.000Z</time>
      </trkpt>
      <trkpt lat="42.94348" lon="1.23166">
        <ele>1019</ele>
        <time>2026-06-23T07:41:55.000Z</time>
      </trkpt>
      <trkpt lat="42.94346" lon="1.2317">
        <ele>1019</ele>
        <time>2026-06-23T07:41:56.000Z</time>
      </trkpt>
      <trkpt lat="42.94345" lon="1.23172">
        <ele>1019</ele>
        <time>2026-06-23T07:41:57.000Z</time>
      </trkpt>
      <trkpt lat="42.94343" lon="1.23174">
        <ele>1019</ele>
        <time>2026-06-23T07:41:58.000Z</time>
      </trkpt>
      <trkpt lat="42.9434" lon="1.23177">
        <ele>1020</ele>
        <time>2026-06-23T07:41:59.000Z</time>
      </trkpt>
      <trkpt lat="42.94338" lon="1.23181">
        <ele>1020</ele>
        <time>2026-06-23T07:42:00.000Z</time>
      </trkpt>
      <trkpt lat="42.94336" lon="1.23184">
        <ele>1020</ele>
        <time>2026-06-23T07:42:01.000Z</time>
      </trkpt>
      <trkpt lat="42.94334" lon="1.23187">
        <ele>1020</ele>
        <time>2026-06-23T07:42:02.000Z</time>
      </trkpt>
      <trkpt lat="42.94333" lon="1.23189">
        <ele>1021</ele>
        <time>2026-06-23T07:42:03.000Z</time>
      </trkpt>
      <trkpt lat="42.9433" lon="1.23192">
        <ele>1022</ele>
        <time>2026-06-23T07:42:04.000Z</time>
      </trkpt>
      <trkpt lat="42.94328" lon="1.23195">
        <ele>1022</ele>
        <time>2026-06-23T07:42:05.000Z</time>
      </trkpt>
      <trkpt lat="42.94325" lon="1.23198">
        <ele>1022</ele>
        <time>2026-06-23T07:42:06.000Z</time>
      </trkpt>
      <trkpt lat="42.94322" lon="1.23201">
        <ele>1023</ele>
        <time>2026-06-23T07:42:07.000Z</time>
      </trkpt>
      <trkpt lat="42.9432" lon="1.23203">
        <ele>1024</ele>
        <time>2026-06-23T07:42:08.000Z</time>
      </trkpt>
      <trkpt lat="42.94318" lon="1.23207">
        <ele>1024</ele>
        <time>2026-06-23T07:42:09.000Z</time>
      </trkpt>
      <trkpt lat="42.94317" lon="1.23211">
        <ele>1025</ele>
        <time>2026-06-23T07:42:10.000Z</time>
      </trkpt>
      <trkpt lat="42.94316" lon="1.23215">
        <ele>1026</ele>
        <time>2026-06-23T07:42:11.000Z</time>
      </trkpt>
      <trkpt lat="42.94315" lon="1.23219">
        <ele>1027</ele>
        <time>2026-06-23T07:42:12.000Z</time>
      </trkpt>
      <trkpt lat="42.94313" lon="1.23222">
        <ele>1028</ele>
        <time>2026-06-23T07:42:13.000Z</time>
      </trkpt>
      <trkpt lat="42.94311" lon="1.23225">
        <ele>1028</ele>
        <time>2026-06-23T07:42:14.000Z</time>
      </trkpt>
      <trkpt lat="42.94309" lon="1.23228">
        <ele>1028</ele>
        <time>2026-06-23T07:42:15.000Z</time>
      </trkpt>
      <trkpt lat="42.94307" lon="1.23231">
        <ele>1028</ele>
        <time>2026-06-23T07:42:16.000Z</time>
      </trkpt>
      <trkpt lat="42.94305" lon="1.23233">
        <ele>1028</ele>
        <time>2026-06-23T07:42:17.000Z</time>
      </trkpt>
      <trkpt lat="42.94304" lon="1.23237">
        <ele>1028</ele>
        <time>2026-06-23T07:42:18.000Z</time>
      </trkpt>
      <trkpt lat="42.94303" lon="1.23241">
        <ele>1029</ele>
        <time>2026-06-23T07:42:19.000Z</time>
      </trkpt>
      <trkpt lat="42.94301" lon="1.23244">
        <ele>1029</ele>
        <time>2026-06-23T07:42:20.000Z</time>
      </trkpt>
      <trkpt lat="42.943" lon="1.23248">
        <ele>1029</ele>
        <time>2026-06-23T07:42:21.000Z</time>
      </trkpt>
      <trkpt lat="42.943" lon="1.23251">
        <ele>1029</ele>
        <time>2026-06-23T07:42:22.000Z</time>
      </trkpt>
      <trkpt lat="42.94299" lon="1.23254">
        <ele>1029</ele>
        <time>2026-06-23T07:42:23.000Z</time>
      </trkpt>
      <trkpt lat="42.94299" lon="1.23258">
        <ele>1031</ele>
        <time>2026-06-23T07:42:24.000Z</time>
      </trkpt>
      <trkpt lat="42.94299" lon="1.23263">
        <ele>1030</ele>
        <time>2026-06-23T07:42:25.000Z</time>
      </trkpt>
      <trkpt lat="42.94299" lon="1.23267">
        <ele>1030</ele>
        <time>2026-06-23T07:42:26.000Z</time>
      </trkpt>
      <trkpt lat="42.943" lon="1.23272">
        <ele>1029</ele>
        <time>2026-06-23T07:42:27.000Z</time>
      </trkpt>
      <trkpt lat="42.943" lon="1.23276">
        <ele>1029</ele>
        <time>2026-06-23T07:42:28.000Z</time>
      </trkpt>
      <trkpt lat="42.94301" lon="1.2328">
        <ele>1029</ele>
        <time>2026-06-23T07:42:29.000Z</time>
      </trkpt>
      <trkpt lat="42.94302" lon="1.23285">
        <ele>1030</ele>
        <time>2026-06-23T07:42:30.000Z</time>
      </trkpt>
      <trkpt lat="42.94303" lon="1.23289">
        <ele>1030</ele>
        <time>2026-06-23T07:42:31.000Z</time>
      </trkpt>
      <trkpt lat="42.94305" lon="1.23292">
        <ele>1030</ele>
        <time>2026-06-23T07:42:32.000Z</time>
      </trkpt>
      <trkpt lat="42.94306" lon="1.23297">
        <ele>1032</ele>
        <time>2026-06-23T07:42:33.000Z</time>
      </trkpt>
      <trkpt lat="42.94308" lon="1.23301">
        <ele>1033</ele>
        <time>2026-06-23T07:42:34.000Z</time>
      </trkpt>
      <trkpt lat="42.94309" lon="1.23305">
        <ele>1035</ele>
        <time>2026-06-23T07:42:35.000Z</time>
      </trkpt>
      <trkpt lat="42.94311" lon="1.23308">
        <ele>1035</ele>
        <time>2026-06-23T07:42:36.000Z</time>
      </trkpt>
      <trkpt lat="42.94312" lon="1.23311">
        <ele>1035</ele>
        <time>2026-06-23T07:42:37.000Z</time>
      </trkpt>
      <trkpt lat="42.94313" lon="1.23316">
        <ele>1037</ele>
        <time>2026-06-23T07:42:38.000Z</time>
      </trkpt>
      <trkpt lat="42.94314" lon="1.2332">
        <ele>1037</ele>
        <time>2026-06-23T07:42:39.000Z</time>
      </trkpt>
      <trkpt lat="42.94316" lon="1.23323">
        <ele>1037</ele>
        <time>2026-06-23T07:42:40.000Z</time>
      </trkpt>
      <trkpt lat="42.94316" lon="1.23327">
        <ele>1038</ele>
        <time>2026-06-23T07:42:41.000Z</time>
      </trkpt>
      <trkpt lat="42.94318" lon="1.2333">
        <ele>1039</ele>
        <time>2026-06-23T07:42:42.000Z</time>
      </trkpt>
      <trkpt lat="42.9432" lon="1.23334">
        <ele>1038</ele>
        <time>2026-06-23T07:42:43.000Z</time>
      </trkpt>
      <trkpt lat="42.94321" lon="1.23338">
        <ele>1038</ele>
        <time>2026-06-23T07:42:44.000Z</time>
      </trkpt>
      <trkpt lat="42.94323" lon="1.23341">
        <ele>1038</ele>
        <time>2026-06-23T07:42:45.000Z</time>
      </trkpt>
      <trkpt lat="42.94325" lon="1.23345">
        <ele>1037</ele>
        <time>2026-06-23T07:42:46.000Z</time>
      </trkpt>
      <trkpt lat="42.94326" lon="1.23349">
        <ele>1037</ele>
        <time>2026-06-23T07:42:47.000Z</time>
      </trkpt>
      <trkpt lat="42.94328" lon="1.23352">
        <ele>1037</ele>
        <time>2026-06-23T07:42:48.000Z</time>
      </trkpt>
      <trkpt lat="42.9433" lon="1.23353">
        <ele>1038</ele>
        <time>2026-06-23T07:42:49.000Z</time>
      </trkpt>
      <trkpt lat="42.94332" lon="1.23355">
        <ele>1038</ele>
        <time>2026-06-23T07:42:50.000Z</time>
      </trkpt>
      <trkpt lat="42.94334" lon="1.23357">
        <ele>1038</ele>
        <time>2026-06-23T07:42:51.000Z</time>
      </trkpt>
      <trkpt lat="42.94337" lon="1.23359">
        <ele>1037</ele>
        <time>2026-06-23T07:42:52.000Z</time>
      </trkpt>
      <trkpt lat="42.94338" lon="1.23361">
        <ele>1036</ele>
        <time>2026-06-23T07:42:53.000Z</time>
      </trkpt>
      <trkpt lat="42.94339" lon="1.23364">
        <ele>1036</ele>
        <time>2026-06-23T07:42:54.000Z</time>
      </trkpt>
      <trkpt lat="42.9434" lon="1.23367">
        <ele>1036</ele>
        <time>2026-06-23T07:42:55.000Z</time>
      </trkpt>
      <trkpt lat="42.94342" lon="1.2337">
        <ele>1037</ele>
        <time>2026-06-23T07:42:56.000Z</time>
      </trkpt>
      <trkpt lat="42.94343" lon="1.23373">
        <ele>1038</ele>
        <time>2026-06-23T07:42:57.000Z</time>
      </trkpt>
      <trkpt lat="42.94344" lon="1.23376">
        <ele>1038</ele>
        <time>2026-06-23T07:42:58.000Z</time>
      </trkpt>
      <trkpt lat="42.94344" lon="1.23378">
        <ele>1039</ele>
        <time>2026-06-23T07:42:59.000Z</time>
      </trkpt>
      <trkpt lat="42.94344" lon="1.23381">
        <ele>1038</ele>
        <time>2026-06-23T07:43:00.000Z</time>
      </trkpt>
      <trkpt lat="42.94345" lon="1.23384">
        <ele>1038</ele>
        <time>2026-06-23T07:43:01.000Z</time>
      </trkpt>
      <trkpt lat="42.94345" lon="1.23387">
        <ele>1039</ele>
        <time>2026-06-23T07:43:02.000Z</time>
      </trkpt>
      <trkpt lat="42.94345" lon="1.2339">
        <ele>1040</ele>
        <time>2026-06-23T07:43:03.000Z</time>
      </trkpt>
      <trkpt lat="42.94345" lon="1.23393">
        <ele>1039</ele>
        <time>2026-06-23T07:43:04.000Z</time>
      </trkpt>
      <trkpt lat="42.94345" lon="1.23397">
        <ele>1040</ele>
        <time>2026-06-23T07:43:05.000Z</time>
      </trkpt>
      <trkpt lat="42.94345" lon="1.23401">
        <ele>1042</ele>
        <time>2026-06-23T07:43:06.000Z</time>
      </trkpt>
      <trkpt lat="42.94345" lon="1.23403">
        <ele>1042</ele>
        <time>2026-06-23T07:43:07.000Z</time>
      </trkpt>
      <trkpt lat="42.94345" lon="1.23405">
        <ele>1042</ele>
        <time>2026-06-23T07:43:08.000Z</time>
      </trkpt>
      <trkpt lat="42.94345" lon="1.23408">
        <ele>1042</ele>
        <time>2026-06-23T07:43:09.000Z</time>
      </trkpt>
      <trkpt lat="42.94344" lon="1.23411">
        <ele>1042</ele>
        <time>2026-06-23T07:43:10.000Z</time>
      </trkpt>
      <trkpt lat="42.94344" lon="1.23415">
        <ele>1042</ele>
        <time>2026-06-23T07:43:11.000Z</time>
      </trkpt>
      <trkpt lat="42.94345" lon="1.23418">
        <ele>1043</ele>
        <time>2026-06-23T07:43:12.000Z</time>
      </trkpt>
      <trkpt lat="42.94345" lon="1.23421">
        <ele>1043</ele>
        <time>2026-06-23T07:43:13.000Z</time>
      </trkpt>
      <trkpt lat="42.94346" lon="1.23424">
        <ele>1043</ele>
        <time>2026-06-23T07:43:14.000Z</time>
      </trkpt>
      <trkpt lat="42.94346" lon="1.23427">
        <ele>1043</ele>
        <time>2026-06-23T07:43:15.000Z</time>
      </trkpt>
      <trkpt lat="42.94347" lon="1.2343">
        <ele>1043</ele>
        <time>2026-06-23T07:43:16.000Z</time>
      </trkpt>
      <trkpt lat="42.94349" lon="1.23433">
        <ele>1042</ele>
        <time>2026-06-23T07:43:17.000Z</time>
      </trkpt>
      <trkpt lat="42.9435" lon="1.23437">
        <ele>1041</ele>
        <time>2026-06-23T07:43:18.000Z</time>
      </trkpt>
      <trkpt lat="42.94351" lon="1.2344">
        <ele>1041</ele>
        <time>2026-06-23T07:43:19.000Z</time>
      </trkpt>
      <trkpt lat="42.94353" lon="1.23444">
        <ele>1040</ele>
        <time>2026-06-23T07:43:20.000Z</time>
      </trkpt>
      <trkpt lat="42.94354" lon="1.23447">
        <ele>1040</ele>
        <time>2026-06-23T07:43:21.000Z</time>
      </trkpt>
      <trkpt lat="42.94355" lon="1.2345">
        <ele>1040</ele>
        <time>2026-06-23T07:43:22.000Z</time>
      </trkpt>
      <trkpt lat="42.94357" lon="1.23453">
        <ele>1039</ele>
        <time>2026-06-23T07:43:23.000Z</time>
      </trkpt>
      <trkpt lat="42.94358" lon="1.23457">
        <ele>1040</ele>
        <time>2026-06-23T07:43:24.000Z</time>
      </trkpt>
      <trkpt lat="42.9436" lon="1.2346">
        <ele>1040</ele>
        <time>2026-06-23T07:43:25.000Z</time>
      </trkpt>
      <trkpt lat="42.94361" lon="1.23463">
        <ele>1040</ele>
        <time>2026-06-23T07:43:26.000Z</time>
      </trkpt>
      <trkpt lat="42.94363" lon="1.23466">
        <ele>1040</ele>
        <time>2026-06-23T07:43:27.000Z</time>
      </trkpt>
      <trkpt lat="42.94364" lon="1.23469">
        <ele>1040</ele>
        <time>2026-06-23T07:43:28.000Z</time>
      </trkpt>
      <trkpt lat="42.94365" lon="1.23473">
        <ele>1040</ele>
        <time>2026-06-23T07:43:29.000Z</time>
      </trkpt>
      <trkpt lat="42.94367" lon="1.23475">
        <ele>1040</ele>
        <time>2026-06-23T07:43:30.000Z</time>
      </trkpt>
      <trkpt lat="42.94368" lon="1.23478">
        <ele>1039</ele>
        <time>2026-06-23T07:43:31.000Z</time>
      </trkpt>
      <trkpt lat="42.9437" lon="1.23481">
        <ele>1039</ele>
        <time>2026-06-23T07:43:32.000Z</time>
      </trkpt>
      <trkpt lat="42.94372" lon="1.23484">
        <ele>1037</ele>
        <time>2026-06-23T07:43:33.000Z</time>
      </trkpt>
      <trkpt lat="42.94373" lon="1.23487">
        <ele>1038</ele>
        <time>2026-06-23T07:43:34.000Z</time>
      </trkpt>
      <trkpt lat="42.94374" lon="1.2349">
        <ele>1038</ele>
        <time>2026-06-23T07:43:35.000Z</time>
      </trkpt>
      <trkpt lat="42.94375" lon="1.23491">
        <ele>1039</ele>
        <time>2026-06-23T07:43:36.000Z</time>
      </trkpt>
      <trkpt lat="42.94376" lon="1.23492">
        <ele>1039</ele>
        <time>2026-06-23T07:43:37.000Z</time>
      </trkpt>
      <trkpt lat="42.94377" lon="1.23495">
        <ele>1039</ele>
        <time>2026-06-23T07:43:38.000Z</time>
      </trkpt>
      <trkpt lat="42.94379" lon="1.23498">
        <ele>1039</ele>
        <time>2026-06-23T07:43:39.000Z</time>
      </trkpt>
      <trkpt lat="42.94381" lon="1.235">
        <ele>1039</ele>
        <time>2026-06-23T07:43:40.000Z</time>
      </trkpt>
      <trkpt lat="42.94383" lon="1.23502">
        <ele>1039</ele>
        <time>2026-06-23T07:43:41.000Z</time>
      </trkpt>
      <trkpt lat="42.94385" lon="1.23504">
        <ele>1039</ele>
        <time>2026-06-23T07:43:42.000Z</time>
      </trkpt>
      <trkpt lat="42.94387" lon="1.23506">
        <ele>1039</ele>
        <time>2026-06-23T07:43:43.000Z</time>
      </trkpt>
      <trkpt lat="42.9439" lon="1.23508">
        <ele>1039</ele>
        <time>2026-06-23T07:43:44.000Z</time>
      </trkpt>
      <trkpt lat="42.94393" lon="1.23511">
        <ele>1040</ele>
        <time>2026-06-23T07:43:45.000Z</time>
      </trkpt>
      <trkpt lat="42.94394" lon="1.23513">
        <ele>1040</ele>
        <time>2026-06-23T07:43:46.000Z</time>
      </trkpt>
      <trkpt lat="42.94397" lon="1.23515">
        <ele>1040</ele>
        <time>2026-06-23T07:43:47.000Z</time>
      </trkpt>
      <trkpt lat="42.944" lon="1.23515">
        <ele>1040</ele>
        <time>2026-06-23T07:43:48.000Z</time>
      </trkpt>
      <trkpt lat="42.94403" lon="1.23516">
        <ele>1040</ele>
        <time>2026-06-23T07:43:49.000Z</time>
      </trkpt>
      <trkpt lat="42.94405" lon="1.23517">
        <ele>1041</ele>
        <time>2026-06-23T07:43:50.000Z</time>
      </trkpt>
      <trkpt lat="42.94408" lon="1.23518">
        <ele>1041</ele>
        <time>2026-06-23T07:43:51.000Z</time>
      </trkpt>
      <trkpt lat="42.9441" lon="1.23519">
        <ele>1041</ele>
        <time>2026-06-23T07:43:52.000Z</time>
      </trkpt>
      <trkpt lat="42.94412" lon="1.23521">
        <ele>1041</ele>
        <time>2026-06-23T07:43:53.000Z</time>
      </trkpt>
      <trkpt lat="42.94415" lon="1.23523">
        <ele>1041</ele>
        <time>2026-06-23T07:43:54.000Z</time>
      </trkpt>
      <trkpt lat="42.94418" lon="1.23523">
        <ele>1041</ele>
        <time>2026-06-23T07:43:55.000Z</time>
      </trkpt>
      <trkpt lat="42.9442" lon="1.23526">
        <ele>1041</ele>
        <time>2026-06-23T07:43:56.000Z</time>
      </trkpt>
      <trkpt lat="42.94422" lon="1.23527">
        <ele>1042</ele>
        <time>2026-06-23T07:43:57.000Z</time>
      </trkpt>
      <trkpt lat="42.94425" lon="1.23528">
        <ele>1042</ele>
        <time>2026-06-23T07:43:58.000Z</time>
      </trkpt>
      <trkpt lat="42.94426" lon="1.2353">
        <ele>1043</ele>
        <time>2026-06-23T07:43:59.000Z</time>
      </trkpt>
      <trkpt lat="42.94428" lon="1.23533">
        <ele>1043</ele>
        <time>2026-06-23T07:44:00.000Z</time>
      </trkpt>
      <trkpt lat="42.9443" lon="1.23534">
        <ele>1043</ele>
        <time>2026-06-23T07:44:01.000Z</time>
      </trkpt>
      <trkpt lat="42.94433" lon="1.23535">
        <ele>1043</ele>
        <time>2026-06-23T07:44:02.000Z</time>
      </trkpt>
      <trkpt lat="42.94436" lon="1.23537">
        <ele>1043</ele>
        <time>2026-06-23T07:44:03.000Z</time>
      </trkpt>
      <trkpt lat="42.94438" lon="1.23537">
        <ele>1043</ele>
        <time>2026-06-23T07:44:04.000Z</time>
      </trkpt>
      <trkpt lat="42.94441" lon="1.23537">
        <ele>1043</ele>
        <time>2026-06-23T07:44:05.000Z</time>
      </trkpt>
      <trkpt lat="42.94443" lon="1.23537">
        <ele>1043</ele>
        <time>2026-06-23T07:44:06.000Z</time>
      </trkpt>
      <trkpt lat="42.94446" lon="1.23538">
        <ele>1043</ele>
        <time>2026-06-23T07:44:07.000Z</time>
      </trkpt>
      <trkpt lat="42.94449" lon="1.23539">
        <ele>1043</ele>
        <time>2026-06-23T07:44:08.000Z</time>
      </trkpt>
      <trkpt lat="42.94451" lon="1.2354">
        <ele>1043</ele>
        <time>2026-06-23T07:44:09.000Z</time>
      </trkpt>
      <trkpt lat="42.94453" lon="1.23542">
        <ele>1042</ele>
        <time>2026-06-23T07:44:10.000Z</time>
      </trkpt>
      <trkpt lat="42.94455" lon="1.23543">
        <ele>1042</ele>
        <time>2026-06-23T07:44:11.000Z</time>
      </trkpt>
      <trkpt lat="42.94457" lon="1.23544">
        <ele>1043</ele>
        <time>2026-06-23T07:44:12.000Z</time>
      </trkpt>
      <trkpt lat="42.94459" lon="1.23545">
        <ele>1043</ele>
        <time>2026-06-23T07:44:13.000Z</time>
      </trkpt>
      <trkpt lat="42.94462" lon="1.23545">
        <ele>1042</ele>
        <time>2026-06-23T07:44:14.000Z</time>
      </trkpt>
      <trkpt lat="42.94464" lon="1.23546">
        <ele>1043</ele>
        <time>2026-06-23T07:44:15.000Z</time>
      </trkpt>
      <trkpt lat="42.94466" lon="1.23548">
        <ele>1043</ele>
        <time>2026-06-23T07:44:16.000Z</time>
      </trkpt>
      <trkpt lat="42.94468" lon="1.2355">
        <ele>1043</ele>
        <time>2026-06-23T07:44:17.000Z</time>
      </trkpt>
      <trkpt lat="42.94469" lon="1.23552">
        <ele>1044</ele>
        <time>2026-06-23T07:44:18.000Z</time>
      </trkpt>
      <trkpt lat="42.94471" lon="1.23554">
        <ele>1044</ele>
        <time>2026-06-23T07:44:19.000Z</time>
      </trkpt>
      <trkpt lat="42.94474" lon="1.23554">
        <ele>1045</ele>
        <time>2026-06-23T07:44:20.000Z</time>
      </trkpt>
      <trkpt lat="42.94476" lon="1.23554">
        <ele>1045</ele>
        <time>2026-06-23T07:44:21.000Z</time>
      </trkpt>
      <trkpt lat="42.94479" lon="1.23556">
        <ele>1045</ele>
        <time>2026-06-23T07:44:22.000Z</time>
      </trkpt>
      <trkpt lat="42.94481" lon="1.23557">
        <ele>1046</ele>
        <time>2026-06-23T07:44:23.000Z</time>
      </trkpt>
      <trkpt lat="42.94484" lon="1.23558">
        <ele>1047</ele>
        <time>2026-06-23T07:44:24.000Z</time>
      </trkpt>
      <trkpt lat="42.94486" lon="1.2356">
        <ele>1047</ele>
        <time>2026-06-23T07:44:25.000Z</time>
      </trkpt>
      <trkpt lat="42.94488" lon="1.23562">
        <ele>1046</ele>
        <time>2026-06-23T07:44:26.000Z</time>
      </trkpt>
      <trkpt lat="42.9449" lon="1.23565">
        <ele>1046</ele>
        <time>2026-06-23T07:44:27.000Z</time>
      </trkpt>
      <trkpt lat="42.94493" lon="1.23567">
        <ele>1046</ele>
        <time>2026-06-23T07:44:28.000Z</time>
      </trkpt>
      <trkpt lat="42.94495" lon="1.23569">
        <ele>1047</ele>
        <time>2026-06-23T07:44:29.000Z</time>
      </trkpt>
      <trkpt lat="42.94497" lon="1.23572">
        <ele>1047</ele>
        <time>2026-06-23T07:44:30.000Z</time>
      </trkpt>
      <trkpt lat="42.94499" lon="1.23575">
        <ele>1047</ele>
        <time>2026-06-23T07:44:31.000Z</time>
      </trkpt>
      <trkpt lat="42.945" lon="1.23577">
        <ele>1048</ele>
        <time>2026-06-23T07:44:32.000Z</time>
      </trkpt>
      <trkpt lat="42.94502" lon="1.2358">
        <ele>1048</ele>
        <time>2026-06-23T07:44:33.000Z</time>
      </trkpt>
      <trkpt lat="42.94503" lon="1.23583">
        <ele>1048</ele>
        <time>2026-06-23T07:44:34.000Z</time>
      </trkpt>
      <trkpt lat="42.94505" lon="1.23585">
        <ele>1048</ele>
        <time>2026-06-23T07:44:35.000Z</time>
      </trkpt>
      <trkpt lat="42.94506" lon="1.23589">
        <ele>1047</ele>
        <time>2026-06-23T07:44:36.000Z</time>
      </trkpt>
      <trkpt lat="42.94508" lon="1.23592">
        <ele>1047</ele>
        <time>2026-06-23T07:44:37.000Z</time>
      </trkpt>
      <trkpt lat="42.94509" lon="1.23595">
        <ele>1046</ele>
        <time>2026-06-23T07:44:38.000Z</time>
      </trkpt>
      <trkpt lat="42.9451" lon="1.23597">
        <ele>1047</ele>
        <time>2026-06-23T07:44:39.000Z</time>
      </trkpt>
      <trkpt lat="42.94511" lon="1.23601">
        <ele>1047</ele>
        <time>2026-06-23T07:44:40.000Z</time>
      </trkpt>
      <trkpt lat="42.94511" lon="1.23604">
        <ele>1048</ele>
        <time>2026-06-23T07:44:41.000Z</time>
      </trkpt>
      <trkpt lat="42.94513" lon="1.23607">
        <ele>1047</ele>
        <time>2026-06-23T07:44:42.000Z</time>
      </trkpt>
      <trkpt lat="42.94515" lon="1.23611">
        <ele>1046</ele>
        <time>2026-06-23T07:44:43.000Z</time>
      </trkpt>
      <trkpt lat="42.94516" lon="1.23614">
        <ele>1047</ele>
        <time>2026-06-23T07:44:44.000Z</time>
      </trkpt>
      <trkpt lat="42.94518" lon="1.23618">
        <ele>1047</ele>
        <time>2026-06-23T07:44:45.000Z</time>
      </trkpt>
      <trkpt lat="42.94519" lon="1.2362">
        <ele>1047</ele>
        <time>2026-06-23T07:44:46.000Z</time>
      </trkpt>
      <trkpt lat="42.9452" lon="1.23622">
        <ele>1048</ele>
        <time>2026-06-23T07:44:47.000Z</time>
      </trkpt>
      <trkpt lat="42.94522" lon="1.23625">
        <ele>1048</ele>
        <time>2026-06-23T07:44:48.000Z</time>
      </trkpt>
      <trkpt lat="42.94524" lon="1.23628">
        <ele>1048</ele>
        <time>2026-06-23T07:44:49.000Z</time>
      </trkpt>
      <trkpt lat="42.94525" lon="1.2363">
        <ele>1049</ele>
        <time>2026-06-23T07:44:50.000Z</time>
      </trkpt>
      <trkpt lat="42.94527" lon="1.23632">
        <ele>1049</ele>
        <time>2026-06-23T07:44:51.000Z</time>
      </trkpt>
      <trkpt lat="42.94529" lon="1.23635">
        <ele>1050</ele>
        <time>2026-06-23T07:44:52.000Z</time>
      </trkpt>
      <trkpt lat="42.9453" lon="1.23637">
        <ele>1051</ele>
        <time>2026-06-23T07:44:53.000Z</time>
      </trkpt>
      <trkpt lat="42.94532" lon="1.23639">
        <ele>1050</ele>
        <time>2026-06-23T07:44:54.000Z</time>
      </trkpt>
      <trkpt lat="42.94533" lon="1.23642">
        <ele>1050</ele>
        <time>2026-06-23T07:44:55.000Z</time>
      </trkpt>
      <trkpt lat="42.94533" lon="1.23646">
        <ele>1050</ele>
        <time>2026-06-23T07:44:56.000Z</time>
      </trkpt>
      <trkpt lat="42.94534" lon="1.2365">
        <ele>1050</ele>
        <time>2026-06-23T07:44:57.000Z</time>
      </trkpt>
      <trkpt lat="42.94535" lon="1.23653">
        <ele>1050</ele>
        <time>2026-06-23T07:44:58.000Z</time>
      </trkpt>
      <trkpt lat="42.94537" lon="1.23656">
        <ele>1051</ele>
        <time>2026-06-23T07:44:59.000Z</time>
      </trkpt>
      <trkpt lat="42.94539" lon="1.23659">
        <ele>1051</ele>
        <time>2026-06-23T07:45:00.000Z</time>
      </trkpt>
      <trkpt lat="42.94541" lon="1.23663">
        <ele>1051</ele>
        <time>2026-06-23T07:45:01.000Z</time>
      </trkpt>
      <trkpt lat="42.94543" lon="1.23666">
        <ele>1051</ele>
        <time>2026-06-23T07:45:02.000Z</time>
      </trkpt>
      <trkpt lat="42.94544" lon="1.2367">
        <ele>1051</ele>
        <time>2026-06-23T07:45:03.000Z</time>
      </trkpt>
      <trkpt lat="42.94545" lon="1.23673">
        <ele>1051</ele>
        <time>2026-06-23T07:45:04.000Z</time>
      </trkpt>
      <trkpt lat="42.94545" lon="1.23677">
        <ele>1051</ele>
        <time>2026-06-23T07:45:05.000Z</time>
      </trkpt>
      <trkpt lat="42.94545" lon="1.23679">
        <ele>1050</ele>
        <time>2026-06-23T07:45:06.000Z</time>
      </trkpt>
      <trkpt lat="42.94545" lon="1.23679">
        <ele>1049</ele>
        <time>2026-06-23T07:45:07.000Z</time>
      </trkpt>
      <trkpt lat="42.94544" lon="1.23678">
        <ele>1050</ele>
        <time>2026-06-23T07:45:08.000Z</time>
      </trkpt>
      <trkpt lat="42.94543" lon="1.23678">
        <ele>1052</ele>
        <time>2026-06-23T07:45:09.000Z</time>
      </trkpt>
      <trkpt lat="42.94542" lon="1.23678">
        <ele>1053</ele>
        <time>2026-06-23T07:45:10.000Z</time>
      </trkpt>
      <trkpt lat="42.94541" lon="1.23677">
        <ele>1055</ele>
        <time>2026-06-23T07:45:11.000Z</time>
      </trkpt>
      <trkpt lat="42.94541" lon="1.23675">
        <ele>1056</ele>
        <time>2026-06-23T07:45:12.000Z</time>
      </trkpt>
      <trkpt lat="42.9454" lon="1.23672">
        <ele>1057</ele>
        <time>2026-06-23T07:45:13.000Z</time>
      </trkpt>
      <trkpt lat="42.94539" lon="1.23671">
        <ele>1059</ele>
        <time>2026-06-23T07:45:14.000Z</time>
      </trkpt>
      <trkpt lat="42.94537" lon="1.23669">
        <ele>1060</ele>
        <time>2026-06-23T07:45:15.000Z</time>
      </trkpt>
      <trkpt lat="42.94536" lon="1.23668">
        <ele>1062</ele>
        <time>2026-06-23T07:45:16.000Z</time>
      </trkpt>
      <trkpt lat="42.94534" lon="1.23665">
        <ele>1063</ele>
        <time>2026-06-23T07:45:17.000Z</time>
      </trkpt>
      <trkpt lat="42.94533" lon="1.23663">
        <ele>1064</ele>
        <time>2026-06-23T07:45:18.000Z</time>
      </trkpt>
      <trkpt lat="42.94532" lon="1.2366">
        <ele>1065</ele>
        <time>2026-06-23T07:45:19.000Z</time>
      </trkpt>
      <trkpt lat="42.94531" lon="1.23658">
        <ele>1066</ele>
        <time>2026-06-23T07:45:20.000Z</time>
      </trkpt>
      <trkpt lat="42.94529" lon="1.23656">
        <ele>1066</ele>
        <time>2026-06-23T07:45:21.000Z</time>
      </trkpt>
      <trkpt lat="42.94527" lon="1.23654">
        <ele>1066</ele>
        <time>2026-06-23T07:45:22.000Z</time>
      </trkpt>
      <trkpt lat="42.94526" lon="1.23651">
        <ele>1067</ele>
        <time>2026-06-23T07:45:23.000Z</time>
      </trkpt>
      <trkpt lat="42.94525" lon="1.2365">
        <ele>1068</ele>
        <time>2026-06-23T07:45:24.000Z</time>
      </trkpt>
      <trkpt lat="42.94523" lon="1.23648">
        <ele>1069</ele>
        <time>2026-06-23T07:45:25.000Z</time>
      </trkpt>
      <trkpt lat="42.94522" lon="1.23646">
        <ele>1069</ele>
        <time>2026-06-23T07:45:26.000Z</time>
      </trkpt>
      <trkpt lat="42.9452" lon="1.23645">
        <ele>1070</ele>
        <time>2026-06-23T07:45:27.000Z</time>
      </trkpt>
      <trkpt lat="42.94518" lon="1.23642">
        <ele>1070</ele>
        <time>2026-06-23T07:45:28.000Z</time>
      </trkpt>
      <trkpt lat="42.94516" lon="1.2364">
        <ele>1070</ele>
        <time>2026-06-23T07:45:29.000Z</time>
      </trkpt>
      <trkpt lat="42.94514" lon="1.23638">
        <ele>1071</ele>
        <time>2026-06-23T07:45:30.000Z</time>
      </trkpt>
      <trkpt lat="42.94512" lon="1.23636">
        <ele>1072</ele>
        <time>2026-06-23T07:45:31.000Z</time>
      </trkpt>
      <trkpt lat="42.9451" lon="1.23634">
        <ele>1073</ele>
        <time>2026-06-23T07:45:32.000Z</time>
      </trkpt>
      <trkpt lat="42.94508" lon="1.23632">
        <ele>1074</ele>
        <time>2026-06-23T07:45:33.000Z</time>
      </trkpt>
      <trkpt lat="42.94506" lon="1.23629">
        <ele>1074</ele>
        <time>2026-06-23T07:45:34.000Z</time>
      </trkpt>
      <trkpt lat="42.94505" lon="1.23627">
        <ele>1074</ele>
        <time>2026-06-23T07:45:35.000Z</time>
      </trkpt>
      <trkpt lat="42.94503" lon="1.23625">
        <ele>1075</ele>
        <time>2026-06-23T07:45:36.000Z</time>
      </trkpt>
      <trkpt lat="42.94501" lon="1.23623">
        <ele>1075</ele>
        <time>2026-06-23T07:45:37.000Z</time>
      </trkpt>
      <trkpt lat="42.945" lon="1.2362">
        <ele>1075</ele>
        <time>2026-06-23T07:45:38.000Z</time>
      </trkpt>
      <trkpt lat="42.94498" lon="1.23618">
        <ele>1076</ele>
        <time>2026-06-23T07:45:39.000Z</time>
      </trkpt>
      <trkpt lat="42.94496" lon="1.23616">
        <ele>1076</ele>
        <time>2026-06-23T07:45:40.000Z</time>
      </trkpt>
      <trkpt lat="42.94495" lon="1.23614">
        <ele>1077</ele>
        <time>2026-06-23T07:45:41.000Z</time>
      </trkpt>
      <trkpt lat="42.94493" lon="1.23612">
        <ele>1077</ele>
        <time>2026-06-23T07:45:42.000Z</time>
      </trkpt>
      <trkpt lat="42.9449" lon="1.2361">
        <ele>1077</ele>
        <time>2026-06-23T07:45:43.000Z</time>
      </trkpt>
      <trkpt lat="42.94488" lon="1.23607">
        <ele>1077</ele>
        <time>2026-06-23T07:45:44.000Z</time>
      </trkpt>
      <trkpt lat="42.94486" lon="1.23605">
        <ele>1077</ele>
        <time>2026-06-23T07:45:45.000Z</time>
      </trkpt>
      <trkpt lat="42.94484" lon="1.23603">
        <ele>1078</ele>
        <time>2026-06-23T07:45:46.000Z</time>
      </trkpt>
      <trkpt lat="42.94482" lon="1.23601">
        <ele>1078</ele>
        <time>2026-06-23T07:45:47.000Z</time>
      </trkpt>
      <trkpt lat="42.94479" lon="1.236">
        <ele>1078</ele>
        <time>2026-06-23T07:45:48.000Z</time>
      </trkpt>
      <trkpt lat="42.94477" lon="1.23598">
        <ele>1078</ele>
        <time>2026-06-23T07:45:49.000Z</time>
      </trkpt>
      <trkpt lat="42.94476" lon="1.23596">
        <ele>1078</ele>
        <time>2026-06-23T07:45:50.000Z</time>
      </trkpt>
      <trkpt lat="42.94474" lon="1.23596">
        <ele>1078</ele>
        <time>2026-06-23T07:45:51.000Z</time>
      </trkpt>
      <trkpt lat="42.94472" lon="1.23596">
        <ele>1078</ele>
        <time>2026-06-23T07:45:52.000Z</time>
      </trkpt>
      <trkpt lat="42.9447" lon="1.23596">
        <ele>1078</ele>
        <time>2026-06-23T07:45:53.000Z</time>
      </trkpt>
      <trkpt lat="42.94469" lon="1.23595">
        <ele>1078</ele>
        <time>2026-06-23T07:45:54.000Z</time>
      </trkpt>
      <trkpt lat="42.94467" lon="1.23595">
        <ele>1078</ele>
        <time>2026-06-23T07:45:55.000Z</time>
      </trkpt>
      <trkpt lat="42.94465" lon="1.23594">
        <ele>1078</ele>
        <time>2026-06-23T07:45:56.000Z</time>
      </trkpt>
      <trkpt lat="42.94464" lon="1.23593">
        <ele>1078</ele>
        <time>2026-06-23T07:45:57.000Z</time>
      </trkpt>
      <trkpt lat="42.94462" lon="1.23593">
        <ele>1077</ele>
        <time>2026-06-23T07:45:58.000Z</time>
      </trkpt>
      <trkpt lat="42.9446" lon="1.23592">
        <ele>1078</ele>
        <time>2026-06-23T07:45:59.000Z</time>
      </trkpt>
      <trkpt lat="42.94457" lon="1.23592">
        <ele>1078</ele>
        <time>2026-06-23T07:46:00.000Z</time>
      </trkpt>
      <trkpt lat="42.94455" lon="1.23591">
        <ele>1078</ele>
        <time>2026-06-23T07:46:01.000Z</time>
      </trkpt>
      <trkpt lat="42.94453" lon="1.23592">
        <ele>1078</ele>
        <time>2026-06-23T07:46:02.000Z</time>
      </trkpt>
      <trkpt lat="42.9445" lon="1.23592">
        <ele>1079</ele>
        <time>2026-06-23T07:46:03.000Z</time>
      </trkpt>
      <trkpt lat="42.94448" lon="1.23592">
        <ele>1079</ele>
        <time>2026-06-23T07:46:04.000Z</time>
      </trkpt>
      <trkpt lat="42.94446" lon="1.23591">
        <ele>1080</ele>
        <time>2026-06-23T07:46:05.000Z</time>
      </trkpt>
      <trkpt lat="42.94443" lon="1.23591">
        <ele>1080</ele>
        <time>2026-06-23T07:46:06.000Z</time>
      </trkpt>
      <trkpt lat="42.94441" lon="1.23591">
        <ele>1080</ele>
        <time>2026-06-23T07:46:07.000Z</time>
      </trkpt>
      <trkpt lat="42.94439" lon="1.23591">
        <ele>1080</ele>
        <time>2026-06-23T07:46:08.000Z</time>
      </trkpt>
      <trkpt lat="42.94437" lon="1.23591">
        <ele>1081</ele>
        <time>2026-06-23T07:46:09.000Z</time>
      </trkpt>
      <trkpt lat="42.94435" lon="1.23591">
        <ele>1082</ele>
        <time>2026-06-23T07:46:10.000Z</time>
      </trkpt>
      <trkpt lat="42.94432" lon="1.23591">
        <ele>1083</ele>
        <time>2026-06-23T07:46:11.000Z</time>
      </trkpt>
      <trkpt lat="42.9443" lon="1.2359">
        <ele>1083</ele>
        <time>2026-06-23T07:46:12.000Z</time>
      </trkpt>
      <trkpt lat="42.94428" lon="1.23589">
        <ele>1083</ele>
        <time>2026-06-23T07:46:13.000Z</time>
      </trkpt>
      <trkpt lat="42.94426" lon="1.23588">
        <ele>1084</ele>
        <time>2026-06-23T07:46:14.000Z</time>
      </trkpt>
      <trkpt lat="42.94424" lon="1.23588">
        <ele>1084</ele>
        <time>2026-06-23T07:46:15.000Z</time>
      </trkpt>
      <trkpt lat="42.94422" lon="1.23587">
        <ele>1084</ele>
        <time>2026-06-23T07:46:16.000Z</time>
      </trkpt>
      <trkpt lat="42.9442" lon="1.23587">
        <ele>1085</ele>
        <time>2026-06-23T07:46:17.000Z</time>
      </trkpt>
      <trkpt lat="42.94418" lon="1.23586">
        <ele>1085</ele>
        <time>2026-06-23T07:46:18.000Z</time>
      </trkpt>
      <trkpt lat="42.94416" lon="1.23585">
        <ele>1086</ele>
        <time>2026-06-23T07:46:19.000Z</time>
      </trkpt>
      <trkpt lat="42.94414" lon="1.23584">
        <ele>1086</ele>
        <time>2026-06-23T07:46:20.000Z</time>
      </trkpt>
      <trkpt lat="42.94412" lon="1.23582">
        <ele>1087</ele>
        <time>2026-06-23T07:46:21.000Z</time>
      </trkpt>
      <trkpt lat="42.94409" lon="1.23582">
        <ele>1087</ele>
        <time>2026-06-23T07:46:22.000Z</time>
      </trkpt>
      <trkpt lat="42.94407" lon="1.23581">
        <ele>1087</ele>
        <time>2026-06-23T07:46:23.000Z</time>
      </trkpt>
      <trkpt lat="42.94404" lon="1.2358">
        <ele>1087</ele>
        <time>2026-06-23T07:46:24.000Z</time>
      </trkpt>
      <trkpt lat="42.94402" lon="1.23579">
        <ele>1088</ele>
        <time>2026-06-23T07:46:25.000Z</time>
      </trkpt>
      <trkpt lat="42.944" lon="1.23578">
        <ele>1088</ele>
        <time>2026-06-23T07:46:26.000Z</time>
      </trkpt>
      <trkpt lat="42.94398" lon="1.23578">
        <ele>1089</ele>
        <time>2026-06-23T07:46:27.000Z</time>
      </trkpt>
      <trkpt lat="42.94396" lon="1.23577">
        <ele>1089</ele>
        <time>2026-06-23T07:46:28.000Z</time>
      </trkpt>
      <trkpt lat="42.94394" lon="1.23576">
        <ele>1089</ele>
        <time>2026-06-23T07:46:29.000Z</time>
      </trkpt>
      <trkpt lat="42.94392" lon="1.23574">
        <ele>1089</ele>
        <time>2026-06-23T07:46:30.000Z</time>
      </trkpt>
      <trkpt lat="42.9439" lon="1.23574">
        <ele>1090</ele>
        <time>2026-06-23T07:46:31.000Z</time>
      </trkpt>
      <trkpt lat="42.94388" lon="1.23574">
        <ele>1090</ele>
        <time>2026-06-23T07:46:32.000Z</time>
      </trkpt>
      <trkpt lat="42.94386" lon="1.23573">
        <ele>1091</ele>
        <time>2026-06-23T07:46:33.000Z</time>
      </trkpt>
      <trkpt lat="42.94383" lon="1.23572">
        <ele>1091</ele>
        <time>2026-06-23T07:46:34.000Z</time>
      </trkpt>
      <trkpt lat="42.94381" lon="1.2357">
        <ele>1092</ele>
        <time>2026-06-23T07:46:35.000Z</time>
      </trkpt>
      <trkpt lat="42.94378" lon="1.23568">
        <ele>1092</ele>
        <time>2026-06-23T07:46:36.000Z</time>
      </trkpt>
      <trkpt lat="42.94375" lon="1.23567">
        <ele>1093</ele>
        <time>2026-06-23T07:46:37.000Z</time>
      </trkpt>
      <trkpt lat="42.94373" lon="1.23565">
        <ele>1094</ele>
        <time>2026-06-23T07:46:38.000Z</time>
      </trkpt>
      <trkpt lat="42.9437" lon="1.23563">
        <ele>1095</ele>
        <time>2026-06-23T07:46:39.000Z</time>
      </trkpt>
      <trkpt lat="42.94368" lon="1.23562">
        <ele>1096</ele>
        <time>2026-06-23T07:46:40.000Z</time>
      </trkpt>
      <trkpt lat="42.94365" lon="1.2356">
        <ele>1097</ele>
        <time>2026-06-23T07:46:41.000Z</time>
      </trkpt>
      <trkpt lat="42.94364" lon="1.23559">
        <ele>1097</ele>
        <time>2026-06-23T07:46:42.000Z</time>
      </trkpt>
      <trkpt lat="42.94362" lon="1.23557">
        <ele>1098</ele>
        <time>2026-06-23T07:46:43.000Z</time>
      </trkpt>
      <trkpt lat="42.9436" lon="1.23554">
        <ele>1098</ele>
        <time>2026-06-23T07:46:44.000Z</time>
      </trkpt>
      <trkpt lat="42.94358" lon="1.23553">
        <ele>1099</ele>
        <time>2026-06-23T07:46:45.000Z</time>
      </trkpt>
      <trkpt lat="42.94357" lon="1.2355">
        <ele>1100</ele>
        <time>2026-06-23T07:46:46.000Z</time>
      </trkpt>
      <trkpt lat="42.94355" lon="1.23548">
        <ele>1101</ele>
        <time>2026-06-23T07:46:47.000Z</time>
      </trkpt>
      <trkpt lat="42.94354" lon="1.23546">
        <ele>1102</ele>
        <time>2026-06-23T07:46:48.000Z</time>
      </trkpt>
      <trkpt lat="42.94353" lon="1.23543">
        <ele>1104</ele>
        <time>2026-06-23T07:46:49.000Z</time>
      </trkpt>
      <trkpt lat="42.94352" lon="1.2354">
        <ele>1105</ele>
        <time>2026-06-23T07:46:50.000Z</time>
      </trkpt>
      <trkpt lat="42.9435" lon="1.23538">
        <ele>1107</ele>
        <time>2026-06-23T07:46:51.000Z</time>
      </trkpt>
      <trkpt lat="42.94349" lon="1.23535">
        <ele>1108</ele>
        <time>2026-06-23T07:46:52.000Z</time>
      </trkpt>
      <trkpt lat="42.94347" lon="1.23533">
        <ele>1107</ele>
        <time>2026-06-23T07:46:53.000Z</time>
      </trkpt>
      <trkpt lat="42.94345" lon="1.23531">
        <ele>1108</ele>
        <time>2026-06-23T07:46:54.000Z</time>
      </trkpt>
      <trkpt lat="42.94343" lon="1.23528">
        <ele>1108</ele>
        <time>2026-06-23T07:46:55.000Z</time>
      </trkpt>
      <trkpt lat="42.94341" lon="1.23526">
        <ele>1108</ele>
        <time>2026-06-23T07:46:56.000Z</time>
      </trkpt>
      <trkpt lat="42.94339" lon="1.23523">
        <ele>1107</ele>
        <time>2026-06-23T07:46:57.000Z</time>
      </trkpt>
      <trkpt lat="42.94337" lon="1.23521">
        <ele>1107</ele>
        <time>2026-06-23T07:46:58.000Z</time>
      </trkpt>
      <trkpt lat="42.94335" lon="1.23518">
        <ele>1107</ele>
        <time>2026-06-23T07:46:59.000Z</time>
      </trkpt>
      <trkpt lat="42.94333" lon="1.23515">
        <ele>1107</ele>
        <time>2026-06-23T07:47:00.000Z</time>
      </trkpt>
      <trkpt lat="42.94331" lon="1.23512">
        <ele>1106</ele>
        <time>2026-06-23T07:47:01.000Z</time>
      </trkpt>
      <trkpt lat="42.94329" lon="1.23509">
        <ele>1107</ele>
        <time>2026-06-23T07:47:02.000Z</time>
      </trkpt>
      <trkpt lat="42.94328" lon="1.23506">
        <ele>1107</ele>
        <time>2026-06-23T07:47:03.000Z</time>
      </trkpt>
      <trkpt lat="42.94326" lon="1.23504">
        <ele>1107</ele>
        <time>2026-06-23T07:47:04.000Z</time>
      </trkpt>
      <trkpt lat="42.94325" lon="1.23501">
        <ele>1107</ele>
        <time>2026-06-23T07:47:05.000Z</time>
      </trkpt>
      <trkpt lat="42.94324" lon="1.23499">
        <ele>1108</ele>
        <time>2026-06-23T07:47:06.000Z</time>
      </trkpt>
      <trkpt lat="42.94322" lon="1.23497">
        <ele>1108</ele>
        <time>2026-06-23T07:47:07.000Z</time>
      </trkpt>
      <trkpt lat="42.9432" lon="1.23495">
        <ele>1108</ele>
        <time>2026-06-23T07:47:08.000Z</time>
      </trkpt>
      <trkpt lat="42.94319" lon="1.23493">
        <ele>1109</ele>
        <time>2026-06-23T07:47:09.000Z</time>
      </trkpt>
      <trkpt lat="42.94317" lon="1.23491">
        <ele>1109</ele>
        <time>2026-06-23T07:47:10.000Z</time>
      </trkpt>
      <trkpt lat="42.94316" lon="1.23489">
        <ele>1109</ele>
        <time>2026-06-23T07:47:11.000Z</time>
      </trkpt>
      <trkpt lat="42.94314" lon="1.23486">
        <ele>1109</ele>
        <time>2026-06-23T07:47:12.000Z</time>
      </trkpt>
      <trkpt lat="42.94312" lon="1.23483">
        <ele>1110</ele>
        <time>2026-06-23T07:47:13.000Z</time>
      </trkpt>
      <trkpt lat="42.94311" lon="1.23481">
        <ele>1110</ele>
        <time>2026-06-23T07:47:14.000Z</time>
      </trkpt>
      <trkpt lat="42.9431" lon="1.23479">
        <ele>1110</ele>
        <time>2026-06-23T07:47:15.000Z</time>
      </trkpt>
      <trkpt lat="42.94309" lon="1.23476">
        <ele>1111</ele>
        <time>2026-06-23T07:47:16.000Z</time>
      </trkpt>
      <trkpt lat="42.94308" lon="1.23473">
        <ele>1111</ele>
        <time>2026-06-23T07:47:17.000Z</time>
      </trkpt>
      <trkpt lat="42.94307" lon="1.2347">
        <ele>1110</ele>
        <time>2026-06-23T07:47:18.000Z</time>
      </trkpt>
      <trkpt lat="42.94305" lon="1.23467">
        <ele>1110</ele>
        <time>2026-06-23T07:47:19.000Z</time>
      </trkpt>
      <trkpt lat="42.94304" lon="1.23464">
        <ele>1111</ele>
        <time>2026-06-23T07:47:20.000Z</time>
      </trkpt>
      <trkpt lat="42.94302" lon="1.23461">
        <ele>1111</ele>
        <time>2026-06-23T07:47:21.000Z</time>
      </trkpt>
      <trkpt lat="42.94301" lon="1.23459">
        <ele>1111</ele>
        <time>2026-06-23T07:47:22.000Z</time>
      </trkpt>
      <trkpt lat="42.94299" lon="1.23456">
        <ele>1111</ele>
        <time>2026-06-23T07:47:23.000Z</time>
      </trkpt>
      <trkpt lat="42.94297" lon="1.23453">
        <ele>1111</ele>
        <time>2026-06-23T07:47:24.000Z</time>
      </trkpt>
      <trkpt lat="42.94296" lon="1.2345">
        <ele>1111</ele>
        <time>2026-06-23T07:47:25.000Z</time>
      </trkpt>
      <trkpt lat="42.94294" lon="1.23448">
        <ele>1112</ele>
        <time>2026-06-23T07:47:26.000Z</time>
      </trkpt>
      <trkpt lat="42.94292" lon="1.23445">
        <ele>1112</ele>
        <time>2026-06-23T07:47:27.000Z</time>
      </trkpt>
      <trkpt lat="42.9429" lon="1.23442">
        <ele>1111</ele>
        <time>2026-06-23T07:47:28.000Z</time>
      </trkpt>
      <trkpt lat="42.94288" lon="1.2344">
        <ele>1111</ele>
        <time>2026-06-23T07:47:29.000Z</time>
      </trkpt>
      <trkpt lat="42.94286" lon="1.23437">
        <ele>1110</ele>
        <time>2026-06-23T07:47:30.000Z</time>
      </trkpt>
      <trkpt lat="42.94284" lon="1.23435">
        <ele>1110</ele>
        <time>2026-06-23T07:47:31.000Z</time>
      </trkpt>
      <trkpt lat="42.94281" lon="1.23433">
        <ele>1110</ele>
        <time>2026-06-23T07:47:32.000Z</time>
      </trkpt>
      <trkpt lat="42.94278" lon="1.23432">
        <ele>1110</ele>
        <time>2026-06-23T07:47:33.000Z</time>
      </trkpt>
      <trkpt lat="42.94275" lon="1.2343">
        <ele>1109</ele>
        <time>2026-06-23T07:47:34.000Z</time>
      </trkpt>
      <trkpt lat="42.94272" lon="1.23428">
        <ele>1110</ele>
        <time>2026-06-23T07:47:35.000Z</time>
      </trkpt>
      <trkpt lat="42.94268" lon="1.23427">
        <ele>1110</ele>
        <time>2026-06-23T07:47:36.000Z</time>
      </trkpt>
      <trkpt lat="42.94265" lon="1.23426">
        <ele>1110</ele>
        <time>2026-06-23T07:47:37.000Z</time>
      </trkpt>
      <trkpt lat="42.94263" lon="1.23425">
        <ele>1111</ele>
        <time>2026-06-23T07:47:38.000Z</time>
      </trkpt>
      <trkpt lat="42.94261" lon="1.23424">
        <ele>1111</ele>
        <time>2026-06-23T07:47:39.000Z</time>
      </trkpt>
      <trkpt lat="42.9426" lon="1.23423">
        <ele>1111</ele>
        <time>2026-06-23T07:47:40.000Z</time>
      </trkpt>
      <trkpt lat="42.94259" lon="1.23422">
        <ele>1112</ele>
        <time>2026-06-23T07:47:41.000Z</time>
      </trkpt>
      <trkpt lat="42.94257" lon="1.23421">
        <ele>1112</ele>
        <time>2026-06-23T07:47:42.000Z</time>
      </trkpt>
      <trkpt lat="42.94255" lon="1.23419">
        <ele>1111</ele>
        <time>2026-06-23T07:47:43.000Z</time>
      </trkpt>
      <trkpt lat="42.94254" lon="1.23417">
        <ele>1111</ele>
        <time>2026-06-23T07:47:44.000Z</time>
      </trkpt>
      <trkpt lat="42.94252" lon="1.23415">
        <ele>1111</ele>
        <time>2026-06-23T07:47:45.000Z</time>
      </trkpt>
      <trkpt lat="42.94251" lon="1.23412">
        <ele>1111</ele>
        <time>2026-06-23T07:47:46.000Z</time>
      </trkpt>
      <trkpt lat="42.94249" lon="1.23411">
        <ele>1111</ele>
        <time>2026-06-23T07:47:47.000Z</time>
      </trkpt>
      <trkpt lat="42.94247" lon="1.23409">
        <ele>1110</ele>
        <time>2026-06-23T07:47:48.000Z</time>
      </trkpt>
      <trkpt lat="42.94245" lon="1.23408">
        <ele>1110</ele>
        <time>2026-06-23T07:47:49.000Z</time>
      </trkpt>
      <trkpt lat="42.94244" lon="1.23405">
        <ele>1110</ele>
        <time>2026-06-23T07:47:50.000Z</time>
      </trkpt>
      <trkpt lat="42.94242" lon="1.23404">
        <ele>1110</ele>
        <time>2026-06-23T07:47:51.000Z</time>
      </trkpt>
      <trkpt lat="42.94241" lon="1.23401">
        <ele>1110</ele>
        <time>2026-06-23T07:47:52.000Z</time>
      </trkpt>
      <trkpt lat="42.94239" lon="1.234">
        <ele>1111</ele>
        <time>2026-06-23T07:47:53.000Z</time>
      </trkpt>
      <trkpt lat="42.94238" lon="1.23398">
        <ele>1111</ele>
        <time>2026-06-23T07:47:54.000Z</time>
      </trkpt>
      <trkpt lat="42.94236" lon="1.23396">
        <ele>1112</ele>
        <time>2026-06-23T07:47:55.000Z</time>
      </trkpt>
      <trkpt lat="42.94234" lon="1.23394">
        <ele>1112</ele>
        <time>2026-06-23T07:47:56.000Z</time>
      </trkpt>
      <trkpt lat="42.94233" lon="1.23392">
        <ele>1113</ele>
        <time>2026-06-23T07:47:57.000Z</time>
      </trkpt>
      <trkpt lat="42.94231" lon="1.2339">
        <ele>1112</ele>
        <time>2026-06-23T07:47:58.000Z</time>
      </trkpt>
      <trkpt lat="42.9423" lon="1.23388">
        <ele>1112</ele>
        <time>2026-06-23T07:47:59.000Z</time>
      </trkpt>
      <trkpt lat="42.94228" lon="1.23387">
        <ele>1113</ele>
        <time>2026-06-23T07:48:00.000Z</time>
      </trkpt>
      <trkpt lat="42.94226" lon="1.23385">
        <ele>1113</ele>
        <time>2026-06-23T07:48:01.000Z</time>
      </trkpt>
      <trkpt lat="42.94225" lon="1.23383">
        <ele>1113</ele>
        <time>2026-06-23T07:48:02.000Z</time>
      </trkpt>
      <trkpt lat="42.94223" lon="1.23382">
        <ele>1113</ele>
        <time>2026-06-23T07:48:03.000Z</time>
      </trkpt>
      <trkpt lat="42.94221" lon="1.2338">
        <ele>1113</ele>
        <time>2026-06-23T07:48:04.000Z</time>
      </trkpt>
      <trkpt lat="42.9422" lon="1.23378">
        <ele>1113</ele>
        <time>2026-06-23T07:48:05.000Z</time>
      </trkpt>
      <trkpt lat="42.94217" lon="1.23376">
        <ele>1113</ele>
        <time>2026-06-23T07:48:06.000Z</time>
      </trkpt>
      <trkpt lat="42.94215" lon="1.23374">
        <ele>1114</ele>
        <time>2026-06-23T07:48:07.000Z</time>
      </trkpt>
      <trkpt lat="42.94213" lon="1.23372">
        <ele>1114</ele>
        <time>2026-06-23T07:48:08.000Z</time>
      </trkpt>
      <trkpt lat="42.94212" lon="1.2337">
        <ele>1115</ele>
        <time>2026-06-23T07:48:09.000Z</time>
      </trkpt>
      <trkpt lat="42.9421" lon="1.23368">
        <ele>1115</ele>
        <time>2026-06-23T07:48:10.000Z</time>
      </trkpt>
      <trkpt lat="42.94209" lon="1.23365">
        <ele>1116</ele>
        <time>2026-06-23T07:48:11.000Z</time>
      </trkpt>
      <trkpt lat="42.94209" lon="1.23363">
        <ele>1117</ele>
        <time>2026-06-23T07:48:12.000Z</time>
      </trkpt>
      <trkpt lat="42.94207" lon="1.2336">
        <ele>1117</ele>
        <time>2026-06-23T07:48:13.000Z</time>
      </trkpt>
      <trkpt lat="42.94207" lon="1.23357">
        <ele>1117</ele>
        <time>2026-06-23T07:48:14.000Z</time>
      </trkpt>
      <trkpt lat="42.94206" lon="1.23354">
        <ele>1118</ele>
        <time>2026-06-23T07:48:15.000Z</time>
      </trkpt>
      <trkpt lat="42.94205" lon="1.23352">
        <ele>1119</ele>
        <time>2026-06-23T07:48:16.000Z</time>
      </trkpt>
      <trkpt lat="42.94203" lon="1.2335">
        <ele>1119</ele>
        <time>2026-06-23T07:48:17.000Z</time>
      </trkpt>
      <trkpt lat="42.94202" lon="1.23347">
        <ele>1119</ele>
        <time>2026-06-23T07:48:18.000Z</time>
      </trkpt>
      <trkpt lat="42.94201" lon="1.23344">
        <ele>1119</ele>
        <time>2026-06-23T07:48:19.000Z</time>
      </trkpt>
      <trkpt lat="42.942" lon="1.23342">
        <ele>1119</ele>
        <time>2026-06-23T07:48:20.000Z</time>
      </trkpt>
      <trkpt lat="42.94198" lon="1.2334">
        <ele>1119</ele>
        <time>2026-06-23T07:48:21.000Z</time>
      </trkpt>
      <trkpt lat="42.94197" lon="1.23337">
        <ele>1119</ele>
        <time>2026-06-23T07:48:22.000Z</time>
      </trkpt>
      <trkpt lat="42.94196" lon="1.23334">
        <ele>1119</ele>
        <time>2026-06-23T07:48:23.000Z</time>
      </trkpt>
      <trkpt lat="42.94194" lon="1.23332">
        <ele>1119</ele>
        <time>2026-06-23T07:48:24.000Z</time>
      </trkpt>
      <trkpt lat="42.94193" lon="1.23331">
        <ele>1120</ele>
        <time>2026-06-23T07:48:25.000Z</time>
      </trkpt>
      <trkpt lat="42.94192" lon="1.23329">
        <ele>1120</ele>
        <time>2026-06-23T07:48:26.000Z</time>
      </trkpt>
      <trkpt lat="42.94191" lon="1.23327">
        <ele>1121</ele>
        <time>2026-06-23T07:48:27.000Z</time>
      </trkpt>
      <trkpt lat="42.94191" lon="1.23325">
        <ele>1121</ele>
        <time>2026-06-23T07:48:28.000Z</time>
      </trkpt>
      <trkpt lat="42.94191" lon="1.23323">
        <ele>1122</ele>
        <time>2026-06-23T07:48:29.000Z</time>
      </trkpt>
      <trkpt lat="42.94191" lon="1.23322">
        <ele>1122</ele>
        <time>2026-06-23T07:48:30.000Z</time>
      </trkpt>
      <trkpt lat="42.9419" lon="1.2332">
        <ele>1123</ele>
        <time>2026-06-23T07:48:31.000Z</time>
      </trkpt>
      <trkpt lat="42.94189" lon="1.23318">
        <ele>1123</ele>
        <time>2026-06-23T07:48:32.000Z</time>
      </trkpt>
      <trkpt lat="42.94189" lon="1.23315">
        <ele>1124</ele>
        <time>2026-06-23T07:48:33.000Z</time>
      </trkpt>
      <trkpt lat="42.94188" lon="1.23312">
        <ele>1125</ele>
        <time>2026-06-23T07:48:34.000Z</time>
      </trkpt>
      <trkpt lat="42.94187" lon="1.23309">
        <ele>1125</ele>
        <time>2026-06-23T07:48:35.000Z</time>
      </trkpt>
      <trkpt lat="42.94186" lon="1.23306">
        <ele>1125</ele>
        <time>2026-06-23T07:48:36.000Z</time>
      </trkpt>
      <trkpt lat="42.94185" lon="1.23304">
        <ele>1126</ele>
        <time>2026-06-23T07:48:37.000Z</time>
      </trkpt>
      <trkpt lat="42.94184" lon="1.23301">
        <ele>1127</ele>
        <time>2026-06-23T07:48:38.000Z</time>
      </trkpt>
      <trkpt lat="42.94183" lon="1.23298">
        <ele>1127</ele>
        <time>2026-06-23T07:48:39.000Z</time>
      </trkpt>
      <trkpt lat="42.94183" lon="1.23295">
        <ele>1127</ele>
        <time>2026-06-23T07:48:40.000Z</time>
      </trkpt>
      <trkpt lat="42.94183" lon="1.23293">
        <ele>1128</ele>
        <time>2026-06-23T07:48:41.000Z</time>
      </trkpt>
      <trkpt lat="42.94183" lon="1.23289">
        <ele>1128</ele>
        <time>2026-06-23T07:48:42.000Z</time>
      </trkpt>
      <trkpt lat="42.94182" lon="1.23286">
        <ele>1128</ele>
        <time>2026-06-23T07:48:43.000Z</time>
      </trkpt>
      <trkpt lat="42.94182" lon="1.23283">
        <ele>1128</ele>
        <time>2026-06-23T07:48:44.000Z</time>
      </trkpt>
      <trkpt lat="42.94181" lon="1.2328">
        <ele>1128</ele>
        <time>2026-06-23T07:48:45.000Z</time>
      </trkpt>
      <trkpt lat="42.94181" lon="1.23277">
        <ele>1129</ele>
        <time>2026-06-23T07:48:46.000Z</time>
      </trkpt>
      <trkpt lat="42.94181" lon="1.23274">
        <ele>1129</ele>
        <time>2026-06-23T07:48:47.000Z</time>
      </trkpt>
      <trkpt lat="42.94181" lon="1.23272">
        <ele>1130</ele>
        <time>2026-06-23T07:48:48.000Z</time>
      </trkpt>
      <trkpt lat="42.94181" lon="1.23269">
        <ele>1130</ele>
        <time>2026-06-23T07:48:49.000Z</time>
      </trkpt>
      <trkpt lat="42.94181" lon="1.23266">
        <ele>1130</ele>
        <time>2026-06-23T07:48:50.000Z</time>
      </trkpt>
      <trkpt lat="42.94181" lon="1.23263">
        <ele>1130</ele>
        <time>2026-06-23T07:48:51.000Z</time>
      </trkpt>
      <trkpt lat="42.94181" lon="1.2326">
        <ele>1130</ele>
        <time>2026-06-23T07:48:52.000Z</time>
      </trkpt>
      <trkpt lat="42.94181" lon="1.23257">
        <ele>1130</ele>
        <time>2026-06-23T07:48:53.000Z</time>
      </trkpt>
      <trkpt lat="42.94182" lon="1.23254">
        <ele>1130</ele>
        <time>2026-06-23T07:48:54.000Z</time>
      </trkpt>
      <trkpt lat="42.94182" lon="1.23251">
        <ele>1131</ele>
        <time>2026-06-23T07:48:55.000Z</time>
      </trkpt>
      <trkpt lat="42.94181" lon="1.23248">
        <ele>1132</ele>
        <time>2026-06-23T07:48:56.000Z</time>
      </trkpt>
      <trkpt lat="42.94181" lon="1.23245">
        <ele>1133</ele>
        <time>2026-06-23T07:48:57.000Z</time>
      </trkpt>
      <trkpt lat="42.94181" lon="1.23242">
        <ele>1133</ele>
        <time>2026-06-23T07:48:58.000Z</time>
      </trkpt>
      <trkpt lat="42.94181" lon="1.2324">
        <ele>1134</ele>
        <time>2026-06-23T07:48:59.000Z</time>
      </trkpt>
      <trkpt lat="42.94181" lon="1.23236">
        <ele>1134</ele>
        <time>2026-06-23T07:49:00.000Z</time>
      </trkpt>
      <trkpt lat="42.9418" lon="1.23233">
        <ele>1135</ele>
        <time>2026-06-23T07:49:01.000Z</time>
      </trkpt>
      <trkpt lat="42.9418" lon="1.2323">
        <ele>1135</ele>
        <time>2026-06-23T07:49:02.000Z</time>
      </trkpt>
      <trkpt lat="42.9418" lon="1.23227">
        <ele>1135</ele>
        <time>2026-06-23T07:49:03.000Z</time>
      </trkpt>
      <trkpt lat="42.9418" lon="1.23224">
        <ele>1135</ele>
        <time>2026-06-23T07:49:04.000Z</time>
      </trkpt>
      <trkpt lat="42.9418" lon="1.23222">
        <ele>1135</ele>
        <time>2026-06-23T07:49:05.000Z</time>
      </trkpt>
      <trkpt lat="42.9418" lon="1.23218">
        <ele>1135</ele>
        <time>2026-06-23T07:49:06.000Z</time>
      </trkpt>
      <trkpt lat="42.94181" lon="1.23215">
        <ele>1137</ele>
        <time>2026-06-23T07:49:07.000Z</time>
      </trkpt>
      <trkpt lat="42.94181" lon="1.23213">
        <ele>1137</ele>
        <time>2026-06-23T07:49:08.000Z</time>
      </trkpt>
      <trkpt lat="42.94181" lon="1.2321">
        <ele>1137</ele>
        <time>2026-06-23T07:49:09.000Z</time>
      </trkpt>
      <trkpt lat="42.9418" lon="1.23208">
        <ele>1138</ele>
        <time>2026-06-23T07:49:10.000Z</time>
      </trkpt>
      <trkpt lat="42.9418" lon="1.23205">
        <ele>1138</ele>
        <time>2026-06-23T07:49:11.000Z</time>
      </trkpt>
      <trkpt lat="42.9418" lon="1.23203">
        <ele>1139</ele>
        <time>2026-06-23T07:49:12.000Z</time>
      </trkpt>
      <trkpt lat="42.94181" lon="1.23199">
        <ele>1139</ele>
        <time>2026-06-23T07:49:13.000Z</time>
      </trkpt>
      <trkpt lat="42.94181" lon="1.23196">
        <ele>1139</ele>
        <time>2026-06-23T07:49:14.000Z</time>
      </trkpt>
      <trkpt lat="42.94181" lon="1.23192">
        <ele>1139</ele>
        <time>2026-06-23T07:49:15.000Z</time>
      </trkpt>
      <trkpt lat="42.9418" lon="1.23188">
        <ele>1139</ele>
        <time>2026-06-23T07:49:16.000Z</time>
      </trkpt>
      <trkpt lat="42.94179" lon="1.23184">
        <ele>1140</ele>
        <time>2026-06-23T07:49:17.000Z</time>
      </trkpt>
      <trkpt lat="42.94178" lon="1.2318">
        <ele>1140</ele>
        <time>2026-06-23T07:49:18.000Z</time>
      </trkpt>
      <trkpt lat="42.94177" lon="1.23177">
        <ele>1140</ele>
        <time>2026-06-23T07:49:19.000Z</time>
      </trkpt>
      <trkpt lat="42.94177" lon="1.23174">
        <ele>1141</ele>
        <time>2026-06-23T07:49:20.000Z</time>
      </trkpt>
      <trkpt lat="42.94176" lon="1.2317">
        <ele>1142</ele>
        <time>2026-06-23T07:49:21.000Z</time>
      </trkpt>
      <trkpt lat="42.94176" lon="1.23167">
        <ele>1142</ele>
        <time>2026-06-23T07:49:22.000Z</time>
      </trkpt>
      <trkpt lat="42.94176" lon="1.23165">
        <ele>1142</ele>
        <time>2026-06-23T07:49:23.000Z</time>
      </trkpt>
      <trkpt lat="42.94176" lon="1.23162">
        <ele>1143</ele>
        <time>2026-06-23T07:49:24.000Z</time>
      </trkpt>
      <trkpt lat="42.94176" lon="1.23157">
        <ele>1143</ele>
        <time>2026-06-23T07:49:25.000Z</time>
      </trkpt>
      <trkpt lat="42.94175" lon="1.23154">
        <ele>1144</ele>
        <time>2026-06-23T07:49:26.000Z</time>
      </trkpt>
      <trkpt lat="42.94175" lon="1.23149">
        <ele>1144</ele>
        <time>2026-06-23T07:49:27.000Z</time>
      </trkpt>
      <trkpt lat="42.94175" lon="1.23146">
        <ele>1144</ele>
        <time>2026-06-23T07:49:28.000Z</time>
      </trkpt>
      <trkpt lat="42.94176" lon="1.23142">
        <ele>1144</ele>
        <time>2026-06-23T07:49:29.000Z</time>
      </trkpt>
      <trkpt lat="42.94176" lon="1.23139">
        <ele>1144</ele>
        <time>2026-06-23T07:49:30.000Z</time>
      </trkpt>
      <trkpt lat="42.94177" lon="1.23137">
        <ele>1144</ele>
        <time>2026-06-23T07:49:31.000Z</time>
      </trkpt>
      <trkpt lat="42.94177" lon="1.23134">
        <ele>1144</ele>
        <time>2026-06-23T07:49:32.000Z</time>
      </trkpt>
      <trkpt lat="42.94178" lon="1.23131">
        <ele>1145</ele>
        <time>2026-06-23T07:49:33.000Z</time>
      </trkpt>
      <trkpt lat="42.94179" lon="1.23128">
        <ele>1145</ele>
        <time>2026-06-23T07:49:34.000Z</time>
      </trkpt>
      <trkpt lat="42.9418" lon="1.23125">
        <ele>1146</ele>
        <time>2026-06-23T07:49:35.000Z</time>
      </trkpt>
      <trkpt lat="42.9418" lon="1.23123">
        <ele>1146</ele>
        <time>2026-06-23T07:49:36.000Z</time>
      </trkpt>
      <trkpt lat="42.94181" lon="1.2312">
        <ele>1146</ele>
        <time>2026-06-23T07:49:37.000Z</time>
      </trkpt>
      <trkpt lat="42.94183" lon="1.23118">
        <ele>1146</ele>
        <time>2026-06-23T07:49:38.000Z</time>
      </trkpt>
      <trkpt lat="42.94183" lon="1.23116">
        <ele>1146</ele>
        <time>2026-06-23T07:49:39.000Z</time>
      </trkpt>
      <trkpt lat="42.94184" lon="1.23113">
        <ele>1147</ele>
        <time>2026-06-23T07:49:40.000Z</time>
      </trkpt>
      <trkpt lat="42.94186" lon="1.23111">
        <ele>1147</ele>
        <time>2026-06-23T07:49:41.000Z</time>
      </trkpt>
      <trkpt lat="42.94187" lon="1.23108">
        <ele>1148</ele>
        <time>2026-06-23T07:49:42.000Z</time>
      </trkpt>
      <trkpt lat="42.94188" lon="1.23106">
        <ele>1148</ele>
        <time>2026-06-23T07:49:43.000Z</time>
      </trkpt>
      <trkpt lat="42.94189" lon="1.23103">
        <ele>1148</ele>
        <time>2026-06-23T07:49:44.000Z</time>
      </trkpt>
      <trkpt lat="42.9419" lon="1.23102">
        <ele>1149</ele>
        <time>2026-06-23T07:49:45.000Z</time>
      </trkpt>
      <trkpt lat="42.94192" lon="1.23101">
        <ele>1149</ele>
        <time>2026-06-23T07:49:46.000Z</time>
      </trkpt>
      <trkpt lat="42.94195" lon="1.23098">
        <ele>1150</ele>
        <time>2026-06-23T07:49:47.000Z</time>
      </trkpt>
      <trkpt lat="42.94197" lon="1.23095">
        <ele>1152</ele>
        <time>2026-06-23T07:49:48.000Z</time>
      </trkpt>
      <trkpt lat="42.94198" lon="1.23093">
        <ele>1153</ele>
        <time>2026-06-23T07:49:49.000Z</time>
      </trkpt>
      <trkpt lat="42.942" lon="1.23091">
        <ele>1154</ele>
        <time>2026-06-23T07:49:50.000Z</time>
      </trkpt>
      <trkpt lat="42.94202" lon="1.23088">
        <ele>1154</ele>
        <time>2026-06-23T07:49:51.000Z</time>
      </trkpt>
      <trkpt lat="42.94204" lon="1.23085">
        <ele>1156</ele>
        <time>2026-06-23T07:49:52.000Z</time>
      </trkpt>
      <trkpt lat="42.94205" lon="1.23082">
        <ele>1157</ele>
        <time>2026-06-23T07:49:53.000Z</time>
      </trkpt>
      <trkpt lat="42.94206" lon="1.23079">
        <ele>1158</ele>
        <time>2026-06-23T07:49:54.000Z</time>
      </trkpt>
      <trkpt lat="42.94206" lon="1.23077">
        <ele>1158</ele>
        <time>2026-06-23T07:49:55.000Z</time>
      </trkpt>
      <trkpt lat="42.94208" lon="1.23074">
        <ele>1158</ele>
        <time>2026-06-23T07:49:56.000Z</time>
      </trkpt>
      <trkpt lat="42.94209" lon="1.23071">
        <ele>1159</ele>
        <time>2026-06-23T07:49:57.000Z</time>
      </trkpt>
      <trkpt lat="42.94211" lon="1.23068">
        <ele>1159</ele>
        <time>2026-06-23T07:49:58.000Z</time>
      </trkpt>
      <trkpt lat="42.94212" lon="1.23064">
        <ele>1159</ele>
        <time>2026-06-23T07:49:59.000Z</time>
      </trkpt>
      <trkpt lat="42.94213" lon="1.2306">
        <ele>1159</ele>
        <time>2026-06-23T07:50:00.000Z</time>
      </trkpt>
      <trkpt lat="42.94214" lon="1.23057">
        <ele>1159</ele>
        <time>2026-06-23T07:50:01.000Z</time>
      </trkpt>
      <trkpt lat="42.94215" lon="1.23054">
        <ele>1160</ele>
        <time>2026-06-23T07:50:02.000Z</time>
      </trkpt>
      <trkpt lat="42.94216" lon="1.23052">
        <ele>1160</ele>
        <time>2026-06-23T07:50:03.000Z</time>
      </trkpt>
      <trkpt lat="42.94216" lon="1.23049">
        <ele>1161</ele>
        <time>2026-06-23T07:50:04.000Z</time>
      </trkpt>
      <trkpt lat="42.94217" lon="1.23046">
        <ele>1162</ele>
        <time>2026-06-23T07:50:05.000Z</time>
      </trkpt>
      <trkpt lat="42.94217" lon="1.23043">
        <ele>1162</ele>
        <time>2026-06-23T07:50:06.000Z</time>
      </trkpt>
      <trkpt lat="42.94217" lon="1.23042">
        <ele>1162</ele>
        <time>2026-06-23T07:50:07.000Z</time>
      </trkpt>
      <trkpt lat="42.94218" lon="1.23039">
        <ele>1163</ele>
        <time>2026-06-23T07:50:08.000Z</time>
      </trkpt>
      <trkpt lat="42.94218" lon="1.23038">
        <ele>1164</ele>
        <time>2026-06-23T07:50:09.000Z</time>
      </trkpt>
      <trkpt lat="42.94218" lon="1.23035">
        <ele>1164</ele>
        <time>2026-06-23T07:50:10.000Z</time>
      </trkpt>
      <trkpt lat="42.9422" lon="1.23033">
        <ele>1165</ele>
        <time>2026-06-23T07:50:11.000Z</time>
      </trkpt>
      <trkpt lat="42.94221" lon="1.2303">
        <ele>1166</ele>
        <time>2026-06-23T07:50:12.000Z</time>
      </trkpt>
      <trkpt lat="42.94222" lon="1.23028">
        <ele>1166</ele>
        <time>2026-06-23T07:50:13.000Z</time>
      </trkpt>
      <trkpt lat="42.94223" lon="1.23024">
        <ele>1166</ele>
        <time>2026-06-23T07:50:14.000Z</time>
      </trkpt>
      <trkpt lat="42.94224" lon="1.2302">
        <ele>1167</ele>
        <time>2026-06-23T07:50:15.000Z</time>
      </trkpt>
      <trkpt lat="42.94226" lon="1.23017">
        <ele>1167</ele>
        <time>2026-06-23T07:50:16.000Z</time>
      </trkpt>
      <trkpt lat="42.94227" lon="1.23014">
        <ele>1168</ele>
        <time>2026-06-23T07:50:17.000Z</time>
      </trkpt>
      <trkpt lat="42.94228" lon="1.23011">
        <ele>1168</ele>
        <time>2026-06-23T07:50:18.000Z</time>
      </trkpt>
      <trkpt lat="42.94229" lon="1.23008">
        <ele>1168</ele>
        <time>2026-06-23T07:50:19.000Z</time>
      </trkpt>
      <trkpt lat="42.9423" lon="1.23005">
        <ele>1168</ele>
        <time>2026-06-23T07:50:20.000Z</time>
      </trkpt>
      <trkpt lat="42.94231" lon="1.23001">
        <ele>1168</ele>
        <time>2026-06-23T07:50:21.000Z</time>
      </trkpt>
      <trkpt lat="42.94232" lon="1.22998">
        <ele>1168</ele>
        <time>2026-06-23T07:50:22.000Z</time>
      </trkpt>
      <trkpt lat="42.94234" lon="1.22995">
        <ele>1169</ele>
        <time>2026-06-23T07:50:23.000Z</time>
      </trkpt>
      <trkpt lat="42.94235" lon="1.22992">
        <ele>1169</ele>
        <time>2026-06-23T07:50:24.000Z</time>
      </trkpt>
      <trkpt lat="42.94237" lon="1.22989">
        <ele>1169</ele>
        <time>2026-06-23T07:50:25.000Z</time>
      </trkpt>
      <trkpt lat="42.94238" lon="1.22987">
        <ele>1170</ele>
        <time>2026-06-23T07:50:26.000Z</time>
      </trkpt>
      <trkpt lat="42.94239" lon="1.22984">
        <ele>1170</ele>
        <time>2026-06-23T07:50:27.000Z</time>
      </trkpt>
      <trkpt lat="42.9424" lon="1.22982">
        <ele>1171</ele>
        <time>2026-06-23T07:50:28.000Z</time>
      </trkpt>
      <trkpt lat="42.94241" lon="1.22979">
        <ele>1171</ele>
        <time>2026-06-23T07:50:29.000Z</time>
      </trkpt>
      <trkpt lat="42.94242" lon="1.22976">
        <ele>1171</ele>
        <time>2026-06-23T07:50:30.000Z</time>
      </trkpt>
      <trkpt lat="42.94243" lon="1.22973">
        <ele>1171</ele>
        <time>2026-06-23T07:50:31.000Z</time>
      </trkpt>
      <trkpt lat="42.94244" lon="1.2297">
        <ele>1172</ele>
        <time>2026-06-23T07:50:32.000Z</time>
      </trkpt>
      <trkpt lat="42.94245" lon="1.22967">
        <ele>1172</ele>
        <time>2026-06-23T07:50:33.000Z</time>
      </trkpt>
      <trkpt lat="42.94246" lon="1.22964">
        <ele>1173</ele>
        <time>2026-06-23T07:50:34.000Z</time>
      </trkpt>
      <trkpt lat="42.94247" lon="1.22961">
        <ele>1173</ele>
        <time>2026-06-23T07:50:35.000Z</time>
      </trkpt>
      <trkpt lat="42.94248" lon="1.22958">
        <ele>1173</ele>
        <time>2026-06-23T07:50:36.000Z</time>
      </trkpt>
      <trkpt lat="42.94248" lon="1.22954">
        <ele>1173</ele>
        <time>2026-06-23T07:50:37.000Z</time>
      </trkpt>
      <trkpt lat="42.94249" lon="1.2295">
        <ele>1173</ele>
        <time>2026-06-23T07:50:38.000Z</time>
      </trkpt>
      <trkpt lat="42.9425" lon="1.22947">
        <ele>1174</ele>
        <time>2026-06-23T07:50:39.000Z</time>
      </trkpt>
      <trkpt lat="42.94251" lon="1.22943">
        <ele>1174</ele>
        <time>2026-06-23T07:50:40.000Z</time>
      </trkpt>
      <trkpt lat="42.94251" lon="1.2294">
        <ele>1174</ele>
        <time>2026-06-23T07:50:41.000Z</time>
      </trkpt>
      <trkpt lat="42.94251" lon="1.22936">
        <ele>1174</ele>
        <time>2026-06-23T07:50:42.000Z</time>
      </trkpt>
      <trkpt lat="42.94252" lon="1.22933">
        <ele>1175</ele>
        <time>2026-06-23T07:50:43.000Z</time>
      </trkpt>
      <trkpt lat="42.94252" lon="1.22929">
        <ele>1175</ele>
        <time>2026-06-23T07:50:44.000Z</time>
      </trkpt>
      <trkpt lat="42.94253" lon="1.22925">
        <ele>1176</ele>
        <time>2026-06-23T07:50:45.000Z</time>
      </trkpt>
      <trkpt lat="42.94253" lon="1.22923">
        <ele>1176</ele>
        <time>2026-06-23T07:50:46.000Z</time>
      </trkpt>
      <trkpt lat="42.94254" lon="1.22919">
        <ele>1177</ele>
        <time>2026-06-23T07:50:47.000Z</time>
      </trkpt>
      <trkpt lat="42.94254" lon="1.22916">
        <ele>1177</ele>
        <time>2026-06-23T07:50:48.000Z</time>
      </trkpt>
      <trkpt lat="42.94255" lon="1.22913">
        <ele>1177</ele>
        <time>2026-06-23T07:50:49.000Z</time>
      </trkpt>
      <trkpt lat="42.94255" lon="1.2291">
        <ele>1177</ele>
        <time>2026-06-23T07:50:50.000Z</time>
      </trkpt>
      <trkpt lat="42.94256" lon="1.22906">
        <ele>1177</ele>
        <time>2026-06-23T07:50:51.000Z</time>
      </trkpt>
      <trkpt lat="42.94257" lon="1.22903">
        <ele>1178</ele>
        <time>2026-06-23T07:50:52.000Z</time>
      </trkpt>
      <trkpt lat="42.94257" lon="1.229">
        <ele>1178</ele>
        <time>2026-06-23T07:50:53.000Z</time>
      </trkpt>
      <trkpt lat="42.94258" lon="1.22897">
        <ele>1178</ele>
        <time>2026-06-23T07:50:54.000Z</time>
      </trkpt>
      <trkpt lat="42.94258" lon="1.22895">
        <ele>1179</ele>
        <time>2026-06-23T07:50:55.000Z</time>
      </trkpt>
      <trkpt lat="42.9426" lon="1.22892">
        <ele>1179</ele>
        <time>2026-06-23T07:50:56.000Z</time>
      </trkpt>
      <trkpt lat="42.9426" lon="1.2289">
        <ele>1179</ele>
        <time>2026-06-23T07:50:57.000Z</time>
      </trkpt>
      <trkpt lat="42.94261" lon="1.22888">
        <ele>1179</ele>
        <time>2026-06-23T07:50:58.000Z</time>
      </trkpt>
      <trkpt lat="42.94262" lon="1.22886">
        <ele>1180</ele>
        <time>2026-06-23T07:50:59.000Z</time>
      </trkpt>
      <trkpt lat="42.94264" lon="1.22885">
        <ele>1180</ele>
        <time>2026-06-23T07:51:00.000Z</time>
      </trkpt>
      <trkpt lat="42.94264" lon="1.22882">
        <ele>1181</ele>
        <time>2026-06-23T07:51:01.000Z</time>
      </trkpt>
      <trkpt lat="42.94265" lon="1.2288">
        <ele>1182</ele>
        <time>2026-06-23T07:51:02.000Z</time>
      </trkpt>
      <trkpt lat="42.94267" lon="1.22878">
        <ele>1183</ele>
        <time>2026-06-23T07:51:03.000Z</time>
      </trkpt>
      <trkpt lat="42.94268" lon="1.22875">
        <ele>1183</ele>
        <time>2026-06-23T07:51:04.000Z</time>
      </trkpt>
      <trkpt lat="42.94269" lon="1.22873">
        <ele>1184</ele>
        <time>2026-06-23T07:51:05.000Z</time>
      </trkpt>
      <trkpt lat="42.9427" lon="1.22871">
        <ele>1185</ele>
        <time>2026-06-23T07:51:06.000Z</time>
      </trkpt>
      <trkpt lat="42.94272" lon="1.22869">
        <ele>1186</ele>
        <time>2026-06-23T07:51:07.000Z</time>
      </trkpt>
      <trkpt lat="42.94273" lon="1.22867">
        <ele>1187</ele>
        <time>2026-06-23T07:51:08.000Z</time>
      </trkpt>
      <trkpt lat="42.94274" lon="1.22864">
        <ele>1189</ele>
        <time>2026-06-23T07:51:09.000Z</time>
      </trkpt>
      <trkpt lat="42.94275" lon="1.22861">
        <ele>1189</ele>
        <time>2026-06-23T07:51:10.000Z</time>
      </trkpt>
      <trkpt lat="42.94276" lon="1.22858">
        <ele>1191</ele>
        <time>2026-06-23T07:51:11.000Z</time>
      </trkpt>
      <trkpt lat="42.94277" lon="1.22856">
        <ele>1192</ele>
        <time>2026-06-23T07:51:12.000Z</time>
      </trkpt>
      <trkpt lat="42.94277" lon="1.22853">
        <ele>1192</ele>
        <time>2026-06-23T07:51:13.000Z</time>
      </trkpt>
      <trkpt lat="42.94278" lon="1.2285">
        <ele>1193</ele>
        <time>2026-06-23T07:51:14.000Z</time>
      </trkpt>
      <trkpt lat="42.94278" lon="1.22847">
        <ele>1193</ele>
        <time>2026-06-23T07:51:15.000Z</time>
      </trkpt>
      <trkpt lat="42.94279" lon="1.22844">
        <ele>1193</ele>
        <time>2026-06-23T07:51:16.000Z</time>
      </trkpt>
      <trkpt lat="42.9428" lon="1.2284">
        <ele>1194</ele>
        <time>2026-06-23T07:51:17.000Z</time>
      </trkpt>
      <trkpt lat="42.9428" lon="1.22837">
        <ele>1194</ele>
        <time>2026-06-23T07:51:18.000Z</time>
      </trkpt>
      <trkpt lat="42.94281" lon="1.22833">
        <ele>1195</ele>
        <time>2026-06-23T07:51:19.000Z</time>
      </trkpt>
      <trkpt lat="42.94282" lon="1.2283">
        <ele>1195</ele>
        <time>2026-06-23T07:51:20.000Z</time>
      </trkpt>
      <trkpt lat="42.94283" lon="1.22826">
        <ele>1195</ele>
        <time>2026-06-23T07:51:21.000Z</time>
      </trkpt>
      <trkpt lat="42.94285" lon="1.22823">
        <ele>1195</ele>
        <time>2026-06-23T07:51:22.000Z</time>
      </trkpt>
      <trkpt lat="42.94286" lon="1.22818">
        <ele>1196</ele>
        <time>2026-06-23T07:51:23.000Z</time>
      </trkpt>
      <trkpt lat="42.94288" lon="1.22814">
        <ele>1197</ele>
        <time>2026-06-23T07:51:24.000Z</time>
      </trkpt>
      <trkpt lat="42.94289" lon="1.22808">
        <ele>1196</ele>
        <time>2026-06-23T07:51:25.000Z</time>
      </trkpt>
      <trkpt lat="42.94291" lon="1.22802">
        <ele>1196</ele>
        <time>2026-06-23T07:51:26.000Z</time>
      </trkpt>
      <trkpt lat="42.94293" lon="1.22794">
        <ele>1196</ele>
        <time>2026-06-23T07:51:27.000Z</time>
      </trkpt>
      <trkpt lat="42.94296" lon="1.22787">
        <ele>1196</ele>
        <time>2026-06-23T07:51:28.000Z</time>
      </trkpt>
      <trkpt lat="42.94297" lon="1.22782">
        <ele>1196</ele>
        <time>2026-06-23T07:51:29.000Z</time>
      </trkpt>
      <trkpt lat="42.94298" lon="1.22778">
        <ele>1196</ele>
        <time>2026-06-23T07:51:30.000Z</time>
      </trkpt>
      <trkpt lat="42.94299" lon="1.22774">
        <ele>1196</ele>
        <time>2026-06-23T07:51:31.000Z</time>
      </trkpt>
      <trkpt lat="42.943" lon="1.22769">
        <ele>1195</ele>
        <time>2026-06-23T07:51:32.000Z</time>
      </trkpt>
      <trkpt lat="42.943" lon="1.22764">
        <ele>1195</ele>
        <time>2026-06-23T07:51:33.000Z</time>
      </trkpt>
      <trkpt lat="42.94301" lon="1.2276">
        <ele>1195</ele>
        <time>2026-06-23T07:51:34.000Z</time>
      </trkpt>
      <trkpt lat="42.943" lon="1.22755">
        <ele>1195</ele>
        <time>2026-06-23T07:51:35.000Z</time>
      </trkpt>
      <trkpt lat="42.94298" lon="1.22749">
        <ele>1194</ele>
        <time>2026-06-23T07:51:36.000Z</time>
      </trkpt>
      <trkpt lat="42.94296" lon="1.22746">
        <ele>1193</ele>
        <time>2026-06-23T07:51:37.000Z</time>
      </trkpt>
      <trkpt lat="42.94294" lon="1.22745">
        <ele>1193</ele>
        <time>2026-06-23T07:51:38.000Z</time>
      </trkpt>
      <trkpt lat="42.94292" lon="1.22745">
        <ele>1192</ele>
        <time>2026-06-23T07:51:39.000Z</time>
      </trkpt>
      <trkpt lat="42.9429" lon="1.22746">
        <ele>1192</ele>
        <time>2026-06-23T07:51:40.000Z</time>
      </trkpt>
      <trkpt lat="42.94288" lon="1.22748">
        <ele>1191</ele>
        <time>2026-06-23T07:51:41.000Z</time>
      </trkpt>
      <trkpt lat="42.94286" lon="1.22751">
        <ele>1190</ele>
        <time>2026-06-23T07:51:42.000Z</time>
      </trkpt>
      <trkpt lat="42.94285" lon="1.22753">
        <ele>1190</ele>
        <time>2026-06-23T07:51:43.000Z</time>
      </trkpt>
      <trkpt lat="42.94284" lon="1.22756">
        <ele>1189</ele>
        <time>2026-06-23T07:51:44.000Z</time>
      </trkpt>
      <trkpt lat="42.94283" lon="1.22758">
        <ele>1188</ele>
        <time>2026-06-23T07:51:45.000Z</time>
      </trkpt>
      <trkpt lat="42.94281" lon="1.2276">
        <ele>1188</ele>
        <time>2026-06-23T07:51:46.000Z</time>
      </trkpt>
      <trkpt lat="42.94279" lon="1.22762">
        <ele>1188</ele>
        <time>2026-06-23T07:51:47.000Z</time>
      </trkpt>
      <trkpt lat="42.94278" lon="1.22764">
        <ele>1188</ele>
        <time>2026-06-23T07:51:48.000Z</time>
      </trkpt>
      <trkpt lat="42.94276" lon="1.22766">
        <ele>1188</ele>
        <time>2026-06-23T07:51:49.000Z</time>
      </trkpt>
      <trkpt lat="42.94274" lon="1.22768">
        <ele>1188</ele>
        <time>2026-06-23T07:51:50.000Z</time>
      </trkpt>
      <trkpt lat="42.94273" lon="1.2277">
        <ele>1189</ele>
        <time>2026-06-23T07:51:51.000Z</time>
      </trkpt>
      <trkpt lat="42.94272" lon="1.22773">
        <ele>1189</ele>
        <time>2026-06-23T07:51:52.000Z</time>
      </trkpt>
      <trkpt lat="42.94271" lon="1.22775">
        <ele>1188</ele>
        <time>2026-06-23T07:51:53.000Z</time>
      </trkpt>
      <trkpt lat="42.94269" lon="1.22778">
        <ele>1188</ele>
        <time>2026-06-23T07:51:54.000Z</time>
      </trkpt>
      <trkpt lat="42.94268" lon="1.2278">
        <ele>1188</ele>
        <time>2026-06-23T07:51:55.000Z</time>
      </trkpt>
      <trkpt lat="42.94266" lon="1.22783">
        <ele>1188</ele>
        <time>2026-06-23T07:51:56.000Z</time>
      </trkpt>
      <trkpt lat="42.94265" lon="1.22785">
        <ele>1188</ele>
        <time>2026-06-23T07:51:57.000Z</time>
      </trkpt>
      <trkpt lat="42.94264" lon="1.22788">
        <ele>1189</ele>
        <time>2026-06-23T07:51:58.000Z</time>
      </trkpt>
      <trkpt lat="42.94263" lon="1.22789">
        <ele>1189</ele>
        <time>2026-06-23T07:51:59.000Z</time>
      </trkpt>
      <trkpt lat="42.94262" lon="1.22792">
        <ele>1189</ele>
        <time>2026-06-23T07:52:00.000Z</time>
      </trkpt>
      <trkpt lat="42.94261" lon="1.22793">
        <ele>1189</ele>
        <time>2026-06-23T07:52:01.000Z</time>
      </trkpt>
      <trkpt lat="42.94259" lon="1.22795">
        <ele>1189</ele>
        <time>2026-06-23T07:52:02.000Z</time>
      </trkpt>
      <trkpt lat="42.94257" lon="1.22796">
        <ele>1189</ele>
        <time>2026-06-23T07:52:03.000Z</time>
      </trkpt>
      <trkpt lat="42.94255" lon="1.22798">
        <ele>1189</ele>
        <time>2026-06-23T07:52:04.000Z</time>
      </trkpt>
      <trkpt lat="42.94254" lon="1.228">
        <ele>1189</ele>
        <time>2026-06-23T07:52:05.000Z</time>
      </trkpt>
      <trkpt lat="42.94253" lon="1.22801">
        <ele>1189</ele>
        <time>2026-06-23T07:52:06.000Z</time>
      </trkpt>
      <trkpt lat="42.94251" lon="1.22803">
        <ele>1189</ele>
        <time>2026-06-23T07:52:07.000Z</time>
      </trkpt>
      <trkpt lat="42.9425" lon="1.22804">
        <ele>1189</ele>
        <time>2026-06-23T07:52:08.000Z</time>
      </trkpt>
      <trkpt lat="42.94249" lon="1.22806">
        <ele>1188</ele>
        <time>2026-06-23T07:52:09.000Z</time>
      </trkpt>
      <trkpt lat="42.94249" lon="1.22807">
        <ele>1188</ele>
        <time>2026-06-23T07:52:10.000Z</time>
      </trkpt>
      <trkpt lat="42.94248" lon="1.22809">
        <ele>1188</ele>
        <time>2026-06-23T07:52:11.000Z</time>
      </trkpt>
      <trkpt lat="42.94248" lon="1.22812">
        <ele>1188</ele>
        <time>2026-06-23T07:52:12.000Z</time>
      </trkpt>
      <trkpt lat="42.94247" lon="1.22815">
        <ele>1188</ele>
        <time>2026-06-23T07:52:13.000Z</time>
      </trkpt>
      <trkpt lat="42.94245" lon="1.22818">
        <ele>1189</ele>
        <time>2026-06-23T07:52:14.000Z</time>
      </trkpt>
      <trkpt lat="42.94244" lon="1.22821">
        <ele>1190</ele>
        <time>2026-06-23T07:52:15.000Z</time>
      </trkpt>
      <trkpt lat="42.94242" lon="1.22825">
        <ele>1190</ele>
        <time>2026-06-23T07:52:16.000Z</time>
      </trkpt>
      <trkpt lat="42.9424" lon="1.22827">
        <ele>1190</ele>
        <time>2026-06-23T07:52:17.000Z</time>
      </trkpt>
      <trkpt lat="42.94239" lon="1.2283">
        <ele>1190</ele>
        <time>2026-06-23T07:52:18.000Z</time>
      </trkpt>
      <trkpt lat="42.94237" lon="1.22832">
        <ele>1190</ele>
        <time>2026-06-23T07:52:19.000Z</time>
      </trkpt>
      <trkpt lat="42.94236" lon="1.22835">
        <ele>1190</ele>
        <time>2026-06-23T07:52:20.000Z</time>
      </trkpt>
      <trkpt lat="42.94234" lon="1.22837">
        <ele>1190</ele>
        <time>2026-06-23T07:52:21.000Z</time>
      </trkpt>
      <trkpt lat="42.94233" lon="1.22839">
        <ele>1190</ele>
        <time>2026-06-23T07:52:22.000Z</time>
      </trkpt>
      <trkpt lat="42.94231" lon="1.22842">
        <ele>1190</ele>
        <time>2026-06-23T07:52:23.000Z</time>
      </trkpt>
      <trkpt lat="42.9423" lon="1.22845">
        <ele>1191</ele>
        <time>2026-06-23T07:52:24.000Z</time>
      </trkpt>
      <trkpt lat="42.94227" lon="1.22848">
        <ele>1190</ele>
        <time>2026-06-23T07:52:25.000Z</time>
      </trkpt>
      <trkpt lat="42.94225" lon="1.2285">
        <ele>1190</ele>
        <time>2026-06-23T07:52:26.000Z</time>
      </trkpt>
      <trkpt lat="42.94223" lon="1.22852">
        <ele>1190</ele>
        <time>2026-06-23T07:52:27.000Z</time>
      </trkpt>
      <trkpt lat="42.94221" lon="1.22855">
        <ele>1190</ele>
        <time>2026-06-23T07:52:28.000Z</time>
      </trkpt>
      <trkpt lat="42.94219" lon="1.22857">
        <ele>1190</ele>
        <time>2026-06-23T07:52:29.000Z</time>
      </trkpt>
      <trkpt lat="42.94217" lon="1.2286">
        <ele>1190</ele>
        <time>2026-06-23T07:52:30.000Z</time>
      </trkpt>
      <trkpt lat="42.94216" lon="1.22862">
        <ele>1191</ele>
        <time>2026-06-23T07:52:31.000Z</time>
      </trkpt>
      <trkpt lat="42.94215" lon="1.22865">
        <ele>1191</ele>
        <time>2026-06-23T07:52:32.000Z</time>
      </trkpt>
      <trkpt lat="42.94214" lon="1.22866">
        <ele>1191</ele>
        <time>2026-06-23T07:52:33.000Z</time>
      </trkpt>
      <trkpt lat="42.94213" lon="1.22868">
        <ele>1191</ele>
        <time>2026-06-23T07:52:34.000Z</time>
      </trkpt>
      <trkpt lat="42.94212" lon="1.2287">
        <ele>1191</ele>
        <time>2026-06-23T07:52:35.000Z</time>
      </trkpt>
      <trkpt lat="42.94211" lon="1.22872">
        <ele>1192</ele>
        <time>2026-06-23T07:52:36.000Z</time>
      </trkpt>
      <trkpt lat="42.9421" lon="1.22874">
        <ele>1192</ele>
        <time>2026-06-23T07:52:37.000Z</time>
      </trkpt>
      <trkpt lat="42.94209" lon="1.22877">
        <ele>1192</ele>
        <time>2026-06-23T07:52:38.000Z</time>
      </trkpt>
      <trkpt lat="42.94208" lon="1.22879">
        <ele>1191</ele>
        <time>2026-06-23T07:52:39.000Z</time>
      </trkpt>
      <trkpt lat="42.94207" lon="1.22882">
        <ele>1192</ele>
        <time>2026-06-23T07:52:40.000Z</time>
      </trkpt>
      <trkpt lat="42.94205" lon="1.22884">
        <ele>1192</ele>
        <time>2026-06-23T07:52:41.000Z</time>
      </trkpt>
      <trkpt lat="42.94204" lon="1.22887">
        <ele>1193</ele>
        <time>2026-06-23T07:52:42.000Z</time>
      </trkpt>
      <trkpt lat="42.94203" lon="1.22888">
        <ele>1193</ele>
        <time>2026-06-23T07:52:43.000Z</time>
      </trkpt>
      <trkpt lat="42.94202" lon="1.2289">
        <ele>1194</ele>
        <time>2026-06-23T07:52:44.000Z</time>
      </trkpt>
      <trkpt lat="42.94201" lon="1.22892">
        <ele>1195</ele>
        <time>2026-06-23T07:52:45.000Z</time>
      </trkpt>
      <trkpt lat="42.94199" lon="1.22894">
        <ele>1195</ele>
        <time>2026-06-23T07:52:46.000Z</time>
      </trkpt>
      <trkpt lat="42.94196" lon="1.22897">
        <ele>1195</ele>
        <time>2026-06-23T07:52:47.000Z</time>
      </trkpt>
      <trkpt lat="42.94194" lon="1.229">
        <ele>1195</ele>
        <time>2026-06-23T07:52:48.000Z</time>
      </trkpt>
      <trkpt lat="42.94192" lon="1.22902">
        <ele>1195</ele>
        <time>2026-06-23T07:52:49.000Z</time>
      </trkpt>
      <trkpt lat="42.9419" lon="1.22904">
        <ele>1195</ele>
        <time>2026-06-23T07:52:50.000Z</time>
      </trkpt>
      <trkpt lat="42.94188" lon="1.22906">
        <ele>1195</ele>
        <time>2026-06-23T07:52:51.000Z</time>
      </trkpt>
      <trkpt lat="42.94187" lon="1.22908">
        <ele>1195</ele>
        <time>2026-06-23T07:52:52.000Z</time>
      </trkpt>
      <trkpt lat="42.94185" lon="1.2291">
        <ele>1196</ele>
        <time>2026-06-23T07:52:53.000Z</time>
      </trkpt>
      <trkpt lat="42.94184" lon="1.22911">
        <ele>1197</ele>
        <time>2026-06-23T07:52:54.000Z</time>
      </trkpt>
      <trkpt lat="42.94182" lon="1.22913">
        <ele>1197</ele>
        <time>2026-06-23T07:52:55.000Z</time>
      </trkpt>
      <trkpt lat="42.94181" lon="1.22915">
        <ele>1197</ele>
        <time>2026-06-23T07:52:56.000Z</time>
      </trkpt>
      <trkpt lat="42.94179" lon="1.22917">
        <ele>1197</ele>
        <time>2026-06-23T07:52:57.000Z</time>
      </trkpt>
      <trkpt lat="42.94178" lon="1.22919">
        <ele>1196</ele>
        <time>2026-06-23T07:52:58.000Z</time>
      </trkpt>
      <trkpt lat="42.94177" lon="1.22921">
        <ele>1196</ele>
        <time>2026-06-23T07:52:59.000Z</time>
      </trkpt>
      <trkpt lat="42.94176" lon="1.22923">
        <ele>1197</ele>
        <time>2026-06-23T07:53:00.000Z</time>
      </trkpt>
      <trkpt lat="42.94174" lon="1.22925">
        <ele>1197</ele>
        <time>2026-06-23T07:53:01.000Z</time>
      </trkpt>
      <trkpt lat="42.94174" lon="1.22926">
        <ele>1198</ele>
        <time>2026-06-23T07:53:02.000Z</time>
      </trkpt>
      <trkpt lat="42.94172" lon="1.22928">
        <ele>1198</ele>
        <time>2026-06-23T07:53:03.000Z</time>
      </trkpt>
      <trkpt lat="42.94171" lon="1.22931">
        <ele>1198</ele>
        <time>2026-06-23T07:53:04.000Z</time>
      </trkpt>
      <trkpt lat="42.94169" lon="1.22933">
        <ele>1198</ele>
        <time>2026-06-23T07:53:05.000Z</time>
      </trkpt>
      <trkpt lat="42.94168" lon="1.22935">
        <ele>1198</ele>
        <time>2026-06-23T07:53:06.000Z</time>
      </trkpt>
      <trkpt lat="42.94167" lon="1.22937">
        <ele>1199</ele>
        <time>2026-06-23T07:53:07.000Z</time>
      </trkpt>
      <trkpt lat="42.94165" lon="1.2294">
        <ele>1199</ele>
        <time>2026-06-23T07:53:08.000Z</time>
      </trkpt>
      <trkpt lat="42.94165" lon="1.22942">
        <ele>1198</ele>
        <time>2026-06-23T07:53:09.000Z</time>
      </trkpt>
      <trkpt lat="42.94164" lon="1.22945">
        <ele>1198</ele>
        <time>2026-06-23T07:53:10.000Z</time>
      </trkpt>
      <trkpt lat="42.94162" lon="1.22948">
        <ele>1199</ele>
        <time>2026-06-23T07:53:11.000Z</time>
      </trkpt>
      <trkpt lat="42.94161" lon="1.2295">
        <ele>1200</ele>
        <time>2026-06-23T07:53:12.000Z</time>
      </trkpt>
      <trkpt lat="42.9416" lon="1.22953">
        <ele>1201</ele>
        <time>2026-06-23T07:53:13.000Z</time>
      </trkpt>
      <trkpt lat="42.94158" lon="1.22955">
        <ele>1200</ele>
        <time>2026-06-23T07:53:14.000Z</time>
      </trkpt>
      <trkpt lat="42.94156" lon="1.22959">
        <ele>1200</ele>
        <time>2026-06-23T07:53:15.000Z</time>
      </trkpt>
      <trkpt lat="42.94154" lon="1.22963">
        <ele>1200</ele>
        <time>2026-06-23T07:53:16.000Z</time>
      </trkpt>
      <trkpt lat="42.94152" lon="1.22965">
        <ele>1200</ele>
        <time>2026-06-23T07:53:17.000Z</time>
      </trkpt>
      <trkpt lat="42.9415" lon="1.22968">
        <ele>1201</ele>
        <time>2026-06-23T07:53:18.000Z</time>
      </trkpt>
      <trkpt lat="42.94148" lon="1.2297">
        <ele>1200</ele>
        <time>2026-06-23T07:53:19.000Z</time>
      </trkpt>
      <trkpt lat="42.94147" lon="1.22973">
        <ele>1201</ele>
        <time>2026-06-23T07:53:20.000Z</time>
      </trkpt>
      <trkpt lat="42.94146" lon="1.22975">
        <ele>1201</ele>
        <time>2026-06-23T07:53:21.000Z</time>
      </trkpt>
      <trkpt lat="42.94144" lon="1.22978">
        <ele>1200</ele>
        <time>2026-06-23T07:53:22.000Z</time>
      </trkpt>
      <trkpt lat="42.94143" lon="1.2298">
        <ele>1200</ele>
        <time>2026-06-23T07:53:23.000Z</time>
      </trkpt>
      <trkpt lat="42.94142" lon="1.22983">
        <ele>1201</ele>
        <time>2026-06-23T07:53:24.000Z</time>
      </trkpt>
      <trkpt lat="42.9414" lon="1.22986">
        <ele>1201</ele>
        <time>2026-06-23T07:53:25.000Z</time>
      </trkpt>
      <trkpt lat="42.94139" lon="1.22989">
        <ele>1200</ele>
        <time>2026-06-23T07:53:26.000Z</time>
      </trkpt>
      <trkpt lat="42.94139" lon="1.22992">
        <ele>1201</ele>
        <time>2026-06-23T07:53:27.000Z</time>
      </trkpt>
      <trkpt lat="42.94138" lon="1.22994">
        <ele>1201</ele>
        <time>2026-06-23T07:53:28.000Z</time>
      </trkpt>
      <trkpt lat="42.94138" lon="1.22996">
        <ele>1201</ele>
        <time>2026-06-23T07:53:29.000Z</time>
      </trkpt>
      <trkpt lat="42.94138" lon="1.22998">
        <ele>1201</ele>
        <time>2026-06-23T07:53:30.000Z</time>
      </trkpt>
      <trkpt lat="42.94137" lon="1.23">
        <ele>1201</ele>
        <time>2026-06-23T07:53:31.000Z</time>
      </trkpt>
      <trkpt lat="42.94136" lon="1.23003">
        <ele>1201</ele>
        <time>2026-06-23T07:53:32.000Z</time>
      </trkpt>
      <trkpt lat="42.94135" lon="1.23005">
        <ele>1201</ele>
        <time>2026-06-23T07:53:33.000Z</time>
      </trkpt>
      <trkpt lat="42.94134" lon="1.23007">
        <ele>1201</ele>
        <time>2026-06-23T07:53:34.000Z</time>
      </trkpt>
      <trkpt lat="42.94133" lon="1.2301">
        <ele>1201</ele>
        <time>2026-06-23T07:53:35.000Z</time>
      </trkpt>
      <trkpt lat="42.94132" lon="1.23012">
        <ele>1201</ele>
        <time>2026-06-23T07:53:36.000Z</time>
      </trkpt>
      <trkpt lat="42.9413" lon="1.23015">
        <ele>1201</ele>
        <time>2026-06-23T07:53:37.000Z</time>
      </trkpt>
      <trkpt lat="42.94129" lon="1.23019">
        <ele>1201</ele>
        <time>2026-06-23T07:53:38.000Z</time>
      </trkpt>
      <trkpt lat="42.94128" lon="1.23021">
        <ele>1201</ele>
        <time>2026-06-23T07:53:39.000Z</time>
      </trkpt>
      <trkpt lat="42.94128" lon="1.23023">
        <ele>1201</ele>
        <time>2026-06-23T07:53:40.000Z</time>
      </trkpt>
      <trkpt lat="42.94127" lon="1.23025">
        <ele>1200</ele>
        <time>2026-06-23T07:53:41.000Z</time>
      </trkpt>
      <trkpt lat="42.94127" lon="1.23027">
        <ele>1200</ele>
        <time>2026-06-23T07:53:42.000Z</time>
      </trkpt>
      <trkpt lat="42.94126" lon="1.2303">
        <ele>1201</ele>
        <time>2026-06-23T07:53:43.000Z</time>
      </trkpt>
      <trkpt lat="42.94124" lon="1.23034">
        <ele>1201</ele>
        <time>2026-06-23T07:53:44.000Z</time>
      </trkpt>
      <trkpt lat="42.94122" lon="1.23035">
        <ele>1201</ele>
        <time>2026-06-23T07:53:45.000Z</time>
      </trkpt>
      <trkpt lat="42.94122" lon="1.23037">
        <ele>1202</ele>
        <time>2026-06-23T07:53:46.000Z</time>
      </trkpt>
      <trkpt lat="42.9412" lon="1.23039">
        <ele>1201</ele>
        <time>2026-06-23T07:53:47.000Z</time>
      </trkpt>
      <trkpt lat="42.94119" lon="1.23041">
        <ele>1201</ele>
        <time>2026-06-23T07:53:48.000Z</time>
      </trkpt>
      <trkpt lat="42.94119" lon="1.23043">
        <ele>1201</ele>
        <time>2026-06-23T07:53:49.000Z</time>
      </trkpt>
      <trkpt lat="42.94118" lon="1.23043">
        <ele>1200</ele>
        <time>2026-06-23T07:53:50.000Z</time>
      </trkpt>
      <trkpt lat="42.94117" lon="1.23046">
        <ele>1201</ele>
        <time>2026-06-23T07:53:51.000Z</time>
      </trkpt>
      <trkpt lat="42.94115" lon="1.23048">
        <ele>1200</ele>
        <time>2026-06-23T07:53:52.000Z</time>
      </trkpt>
      <trkpt lat="42.94114" lon="1.23049">
        <ele>1201</ele>
        <time>2026-06-23T07:53:53.000Z</time>
      </trkpt>
      <trkpt lat="42.94113" lon="1.2305">
        <ele>1201</ele>
        <time>2026-06-23T07:53:54.000Z</time>
      </trkpt>
      <trkpt lat="42.94112" lon="1.23051">
        <ele>1200</ele>
        <time>2026-06-23T07:53:55.000Z</time>
      </trkpt>
      <trkpt lat="42.9411" lon="1.23053">
        <ele>1200</ele>
        <time>2026-06-23T07:53:56.000Z</time>
      </trkpt>
      <trkpt lat="42.94108" lon="1.23055">
        <ele>1201</ele>
        <time>2026-06-23T07:53:57.000Z</time>
      </trkpt>
      <trkpt lat="42.94106" lon="1.23058">
        <ele>1202</ele>
        <time>2026-06-23T07:53:58.000Z</time>
      </trkpt>
      <trkpt lat="42.94105" lon="1.23059">
        <ele>1202</ele>
        <time>2026-06-23T07:53:59.000Z</time>
      </trkpt>
      <trkpt lat="42.94104" lon="1.23061">
        <ele>1201</ele>
        <time>2026-06-23T07:54:00.000Z</time>
      </trkpt>
      <trkpt lat="42.94103" lon="1.23063">
        <ele>1202</ele>
        <time>2026-06-23T07:54:01.000Z</time>
      </trkpt>
      <trkpt lat="42.94102" lon="1.23065">
        <ele>1203</ele>
        <time>2026-06-23T07:54:02.000Z</time>
      </trkpt>
      <trkpt lat="42.94101" lon="1.23069">
        <ele>1203</ele>
        <time>2026-06-23T07:54:03.000Z</time>
      </trkpt>
      <trkpt lat="42.941" lon="1.2307">
        <ele>1203</ele>
        <time>2026-06-23T07:54:04.000Z</time>
      </trkpt>
      <trkpt lat="42.94098" lon="1.23072">
        <ele>1203</ele>
        <time>2026-06-23T07:54:05.000Z</time>
      </trkpt>
      <trkpt lat="42.94097" lon="1.23075">
        <ele>1203</ele>
        <time>2026-06-23T07:54:06.000Z</time>
      </trkpt>
      <trkpt lat="42.94096" lon="1.23077">
        <ele>1204</ele>
        <time>2026-06-23T07:54:07.000Z</time>
      </trkpt>
      <trkpt lat="42.94096" lon="1.23079">
        <ele>1205</ele>
        <time>2026-06-23T07:54:08.000Z</time>
      </trkpt>
      <trkpt lat="42.94095" lon="1.23081">
        <ele>1205</ele>
        <time>2026-06-23T07:54:09.000Z</time>
      </trkpt>
      <trkpt lat="42.94093" lon="1.23083">
        <ele>1205</ele>
        <time>2026-06-23T07:54:10.000Z</time>
      </trkpt>
      <trkpt lat="42.94093" lon="1.23085">
        <ele>1205</ele>
        <time>2026-06-23T07:54:11.000Z</time>
      </trkpt>
      <trkpt lat="42.94092" lon="1.23087">
        <ele>1205</ele>
        <time>2026-06-23T07:54:12.000Z</time>
      </trkpt>
      <trkpt lat="42.94091" lon="1.23091">
        <ele>1206</ele>
        <time>2026-06-23T07:54:13.000Z</time>
      </trkpt>
      <trkpt lat="42.9409" lon="1.23094">
        <ele>1206</ele>
        <time>2026-06-23T07:54:14.000Z</time>
      </trkpt>
      <trkpt lat="42.94089" lon="1.23098">
        <ele>1207</ele>
        <time>2026-06-23T07:54:15.000Z</time>
      </trkpt>
      <trkpt lat="42.94088" lon="1.23101">
        <ele>1208</ele>
        <time>2026-06-23T07:54:16.000Z</time>
      </trkpt>
      <trkpt lat="42.94088" lon="1.23103">
        <ele>1208</ele>
        <time>2026-06-23T07:54:17.000Z</time>
      </trkpt>
      <trkpt lat="42.94086" lon="1.23106">
        <ele>1209</ele>
        <time>2026-06-23T07:54:18.000Z</time>
      </trkpt>
      <trkpt lat="42.94086" lon="1.23108">
        <ele>1209</ele>
        <time>2026-06-23T07:54:19.000Z</time>
      </trkpt>
      <trkpt lat="42.94086" lon="1.23112">
        <ele>1209</ele>
        <time>2026-06-23T07:54:20.000Z</time>
      </trkpt>
      <trkpt lat="42.94085" lon="1.23116">
        <ele>1209</ele>
        <time>2026-06-23T07:54:21.000Z</time>
      </trkpt>
      <trkpt lat="42.94084" lon="1.23119">
        <ele>1209</ele>
        <time>2026-06-23T07:54:22.000Z</time>
      </trkpt>
      <trkpt lat="42.94082" lon="1.23122">
        <ele>1209</ele>
        <time>2026-06-23T07:54:23.000Z</time>
      </trkpt>
      <trkpt lat="42.9408" lon="1.23125">
        <ele>1209</ele>
        <time>2026-06-23T07:54:24.000Z</time>
      </trkpt>
      <trkpt lat="42.9408" lon="1.23128">
        <ele>1209</ele>
        <time>2026-06-23T07:54:25.000Z</time>
      </trkpt>
      <trkpt lat="42.94079" lon="1.23131">
        <ele>1209</ele>
        <time>2026-06-23T07:54:26.000Z</time>
      </trkpt>
      <trkpt lat="42.94078" lon="1.23134">
        <ele>1210</ele>
        <time>2026-06-23T07:54:27.000Z</time>
      </trkpt>
      <trkpt lat="42.94076" lon="1.23137">
        <ele>1210</ele>
        <time>2026-06-23T07:54:28.000Z</time>
      </trkpt>
      <trkpt lat="42.94076" lon="1.2314">
        <ele>1210</ele>
        <time>2026-06-23T07:54:29.000Z</time>
      </trkpt>
      <trkpt lat="42.94075" lon="1.23142">
        <ele>1209</ele>
        <time>2026-06-23T07:54:30.000Z</time>
      </trkpt>
      <trkpt lat="42.94074" lon="1.23145">
        <ele>1209</ele>
        <time>2026-06-23T07:54:31.000Z</time>
      </trkpt>
      <trkpt lat="42.94074" lon="1.23147">
        <ele>1209</ele>
        <time>2026-06-23T07:54:32.000Z</time>
      </trkpt>
      <trkpt lat="42.94073" lon="1.23149">
        <ele>1209</ele>
        <time>2026-06-23T07:54:33.000Z</time>
      </trkpt>
      <trkpt lat="42.94073" lon="1.2315">
        <ele>1209</ele>
        <time>2026-06-23T07:54:34.000Z</time>
      </trkpt>
      <trkpt lat="42.94072" lon="1.23153">
        <ele>1209</ele>
        <time>2026-06-23T07:54:35.000Z</time>
      </trkpt>
      <trkpt lat="42.94072" lon="1.23156">
        <ele>1210</ele>
        <time>2026-06-23T07:54:36.000Z</time>
      </trkpt>
      <trkpt lat="42.94071" lon="1.23158">
        <ele>1210</ele>
        <time>2026-06-23T07:54:37.000Z</time>
      </trkpt>
      <trkpt lat="42.94071" lon="1.23161">
        <ele>1210</ele>
        <time>2026-06-23T07:54:38.000Z</time>
      </trkpt>
      <trkpt lat="42.9407" lon="1.23162">
        <ele>1210</ele>
        <time>2026-06-23T07:54:39.000Z</time>
      </trkpt>
      <trkpt lat="42.9407" lon="1.23164">
        <ele>1210</ele>
        <time>2026-06-23T07:54:40.000Z</time>
      </trkpt>
      <trkpt lat="42.94069" lon="1.23168">
        <ele>1212</ele>
        <time>2026-06-23T07:54:41.000Z</time>
      </trkpt>
      <trkpt lat="42.94069" lon="1.2317">
        <ele>1211</ele>
        <time>2026-06-23T07:54:42.000Z</time>
      </trkpt>
      <trkpt lat="42.94069" lon="1.23172">
        <ele>1211</ele>
        <time>2026-06-23T07:54:43.000Z</time>
      </trkpt>
      <trkpt lat="42.94068" lon="1.23174">
        <ele>1210</ele>
        <time>2026-06-23T07:54:44.000Z</time>
      </trkpt>
      <trkpt lat="42.94067" lon="1.23176">
        <ele>1211</ele>
        <time>2026-06-23T07:54:45.000Z</time>
      </trkpt>
      <trkpt lat="42.94067" lon="1.23177">
        <ele>1211</ele>
        <time>2026-06-23T07:54:46.000Z</time>
      </trkpt>
      <trkpt lat="42.94066" lon="1.2318">
        <ele>1211</ele>
        <time>2026-06-23T07:54:47.000Z</time>
      </trkpt>
      <trkpt lat="42.94065" lon="1.23181">
        <ele>1210</ele>
        <time>2026-06-23T07:54:48.000Z</time>
      </trkpt>
      <trkpt lat="42.94065" lon="1.23182">
        <ele>1210</ele>
        <time>2026-06-23T07:54:49.000Z</time>
      </trkpt>
      <trkpt lat="42.94063" lon="1.23183">
        <ele>1211</ele>
        <time>2026-06-23T07:54:50.000Z</time>
      </trkpt>
      <trkpt lat="42.94062" lon="1.23185">
        <ele>1211</ele>
        <time>2026-06-23T07:54:51.000Z</time>
      </trkpt>
      <trkpt lat="42.94061" lon="1.23187">
        <ele>1211</ele>
        <time>2026-06-23T07:54:52.000Z</time>
      </trkpt>
      <trkpt lat="42.9406" lon="1.23189">
        <ele>1211</ele>
        <time>2026-06-23T07:54:53.000Z</time>
      </trkpt>
      <trkpt lat="42.9406" lon="1.23193">
        <ele>1212</ele>
        <time>2026-06-23T07:54:54.000Z</time>
      </trkpt>
      <trkpt lat="42.94059" lon="1.23195">
        <ele>1212</ele>
        <time>2026-06-23T07:54:55.000Z</time>
      </trkpt>
      <trkpt lat="42.94058" lon="1.23197">
        <ele>1212</ele>
        <time>2026-06-23T07:54:56.000Z</time>
      </trkpt>
      <trkpt lat="42.94057" lon="1.23199">
        <ele>1212</ele>
        <time>2026-06-23T07:54:57.000Z</time>
      </trkpt>
      <trkpt lat="42.94057" lon="1.23203">
        <ele>1214</ele>
        <time>2026-06-23T07:54:58.000Z</time>
      </trkpt>
      <trkpt lat="42.94057" lon="1.23205">
        <ele>1214</ele>
        <time>2026-06-23T07:54:59.000Z</time>
      </trkpt>
      <trkpt lat="42.94057" lon="1.23208">
        <ele>1215</ele>
        <time>2026-06-23T07:55:00.000Z</time>
      </trkpt>
      <trkpt lat="42.94056" lon="1.23211">
        <ele>1215</ele>
        <time>2026-06-23T07:55:01.000Z</time>
      </trkpt>
      <trkpt lat="42.94055" lon="1.23213">
        <ele>1215</ele>
        <time>2026-06-23T07:55:02.000Z</time>
      </trkpt>
      <trkpt lat="42.94055" lon="1.23216">
        <ele>1215</ele>
        <time>2026-06-23T07:55:03.000Z</time>
      </trkpt>
      <trkpt lat="42.94055" lon="1.23219">
        <ele>1215</ele>
        <time>2026-06-23T07:55:04.000Z</time>
      </trkpt>
      <trkpt lat="42.94054" lon="1.23223">
        <ele>1215</ele>
        <time>2026-06-23T07:55:05.000Z</time>
      </trkpt>
      <trkpt lat="42.94054" lon="1.23226">
        <ele>1215</ele>
        <time>2026-06-23T07:55:06.000Z</time>
      </trkpt>
      <trkpt lat="42.94052" lon="1.23229">
        <ele>1215</ele>
        <time>2026-06-23T07:55:07.000Z</time>
      </trkpt>
      <trkpt lat="42.94052" lon="1.23232">
        <ele>1216</ele>
        <time>2026-06-23T07:55:08.000Z</time>
      </trkpt>
      <trkpt lat="42.94051" lon="1.23235">
        <ele>1217</ele>
        <time>2026-06-23T07:55:09.000Z</time>
      </trkpt>
      <trkpt lat="42.9405" lon="1.23237">
        <ele>1217</ele>
        <time>2026-06-23T07:55:10.000Z</time>
      </trkpt>
      <trkpt lat="42.9405" lon="1.23239">
        <ele>1217</ele>
        <time>2026-06-23T07:55:11.000Z</time>
      </trkpt>
      <trkpt lat="42.9405" lon="1.23242">
        <ele>1217</ele>
        <time>2026-06-23T07:55:12.000Z</time>
      </trkpt>
      <trkpt lat="42.9405" lon="1.23245">
        <ele>1217</ele>
        <time>2026-06-23T07:55:13.000Z</time>
      </trkpt>
      <trkpt lat="42.9405" lon="1.23247">
        <ele>1217</ele>
        <time>2026-06-23T07:55:14.000Z</time>
      </trkpt>
      <trkpt lat="42.94049" lon="1.23249">
        <ele>1216</ele>
        <time>2026-06-23T07:55:15.000Z</time>
      </trkpt>
      <trkpt lat="42.94048" lon="1.23252">
        <ele>1216</ele>
        <time>2026-06-23T07:55:16.000Z</time>
      </trkpt>
      <trkpt lat="42.94049" lon="1.23257">
        <ele>1218</ele>
        <time>2026-06-23T07:55:17.000Z</time>
      </trkpt>
      <trkpt lat="42.94049" lon="1.23259">
        <ele>1218</ele>
        <time>2026-06-23T07:55:18.000Z</time>
      </trkpt>
      <trkpt lat="42.94049" lon="1.23263">
        <ele>1221</ele>
        <time>2026-06-23T07:55:19.000Z</time>
      </trkpt>
      <trkpt lat="42.9405" lon="1.23265">
        <ele>1221</ele>
        <time>2026-06-23T07:55:20.000Z</time>
      </trkpt>
      <trkpt lat="42.9405" lon="1.23268">
        <ele>1222</ele>
        <time>2026-06-23T07:55:21.000Z</time>
      </trkpt>
      <trkpt lat="42.9405" lon="1.23268">
        <ele>1222</ele>
        <time>2026-06-23T07:55:22.000Z</time>
      </trkpt>
      <trkpt lat="42.9405" lon="1.23269">
        <ele>1222</ele>
        <time>2026-06-23T07:55:23.000Z</time>
      </trkpt>
      <trkpt lat="42.9405" lon="1.23269">
        <ele>1222</ele>
        <time>2026-06-23T07:55:24.000Z</time>
      </trkpt>
      <trkpt lat="42.9405" lon="1.23269">
        <ele>1222</ele>
        <time>2026-06-23T07:55:25.000Z</time>
      </trkpt>
      <trkpt lat="42.9405" lon="1.23269">
        <ele>1222</ele>
        <time>2026-06-23T07:55:26.000Z</time>
      </trkpt>
      <trkpt lat="42.9405" lon="1.23269">
        <ele>1222</ele>
        <time>2026-06-23T07:55:27.000Z</time>
      </trkpt>
      <trkpt lat="42.94049" lon="1.2327">
        <ele>1221</ele>
        <time>2026-06-23T07:55:28.000Z</time>
      </trkpt>
      <trkpt lat="42.94049" lon="1.2327">
        <ele>1221</ele>
        <time>2026-06-23T07:55:29.000Z</time>
      </trkpt>
      <trkpt lat="42.94049" lon="1.23271">
        <ele>1221</ele>
        <time>2026-06-23T07:55:30.000Z</time>
      </trkpt>
      <trkpt lat="42.94048" lon="1.23272">
        <ele>1221</ele>
        <time>2026-06-23T07:55:31.000Z</time>
      </trkpt>
      <trkpt lat="42.94049" lon="1.23274">
        <ele>1221</ele>
        <time>2026-06-23T07:55:32.000Z</time>
      </trkpt>
      <trkpt lat="42.9405" lon="1.23275">
        <ele>1221</ele>
        <time>2026-06-23T07:55:33.000Z</time>
      </trkpt>
      <trkpt lat="42.9405" lon="1.23278">
        <ele>1221</ele>
        <time>2026-06-23T07:55:34.000Z</time>
      </trkpt>
      <trkpt lat="42.9405" lon="1.2328">
        <ele>1221</ele>
        <time>2026-06-23T07:55:35.000Z</time>
      </trkpt>
      <trkpt lat="42.9405" lon="1.23283">
        <ele>1221</ele>
        <time>2026-06-23T07:55:36.000Z</time>
      </trkpt>
      <trkpt lat="42.94049" lon="1.23287">
        <ele>1221</ele>
        <time>2026-06-23T07:55:37.000Z</time>
      </trkpt>
      <trkpt lat="42.94048" lon="1.23289">
        <ele>1221</ele>
        <time>2026-06-23T07:55:38.000Z</time>
      </trkpt>
      <trkpt lat="42.94047" lon="1.23293">
        <ele>1221</ele>
        <time>2026-06-23T07:55:39.000Z</time>
      </trkpt>
      <trkpt lat="42.94047" lon="1.23295">
        <ele>1221</ele>
        <time>2026-06-23T07:55:40.000Z</time>
      </trkpt>
      <trkpt lat="42.94046" lon="1.23297">
        <ele>1221</ele>
        <time>2026-06-23T07:55:41.000Z</time>
      </trkpt>
      <trkpt lat="42.94046" lon="1.23298">
        <ele>1220</ele>
        <time>2026-06-23T07:55:42.000Z</time>
      </trkpt>
      <trkpt lat="42.94045" lon="1.233">
        <ele>1221</ele>
        <time>2026-06-23T07:55:43.000Z</time>
      </trkpt>
      <trkpt lat="42.94044" lon="1.23301">
        <ele>1220</ele>
        <time>2026-06-23T07:55:44.000Z</time>
      </trkpt>
      <trkpt lat="42.94045" lon="1.23302">
        <ele>1219</ele>
        <time>2026-06-23T07:55:45.000Z</time>
      </trkpt>
      <trkpt lat="42.94045" lon="1.23303">
        <ele>1218</ele>
        <time>2026-06-23T07:55:46.000Z</time>
      </trkpt>
      <trkpt lat="42.94047" lon="1.23305">
        <ele>1219</ele>
        <time>2026-06-23T07:55:47.000Z</time>
      </trkpt>
      <trkpt lat="42.94047" lon="1.23305">
        <ele>1220</ele>
        <time>2026-06-23T07:55:48.000Z</time>
      </trkpt>
      <trkpt lat="42.94047" lon="1.23306">
        <ele>1219</ele>
        <time>2026-06-23T07:55:49.000Z</time>
      </trkpt>
      <trkpt lat="42.94048" lon="1.23308">
        <ele>1220</ele>
        <time>2026-06-23T07:55:50.000Z</time>
      </trkpt>
      <trkpt lat="42.94047" lon="1.23308">
        <ele>1219</ele>
        <time>2026-06-23T07:55:51.000Z</time>
      </trkpt>
      <trkpt lat="42.94047" lon="1.23308">
        <ele>1219</ele>
        <time>2026-06-23T07:55:52.000Z</time>
      </trkpt>
      <trkpt lat="42.94047" lon="1.23309">
        <ele>1219</ele>
        <time>2026-06-23T07:55:53.000Z</time>
      </trkpt>
      <trkpt lat="42.94047" lon="1.23309">
        <ele>1219</ele>
        <time>2026-06-23T07:55:54.000Z</time>
      </trkpt>
      <trkpt lat="42.94048" lon="1.2331">
        <ele>1221</ele>
        <time>2026-06-23T07:55:55.000Z</time>
      </trkpt>
      <trkpt lat="42.94052" lon="1.23319">
        <ele>1222</ele>
        <time>2026-06-23T07:56:18.000Z</time>
      </trkpt>
      <trkpt lat="42.94052" lon="1.2332">
        <ele>1221</ele>
        <time>2026-06-23T07:56:19.000Z</time>
      </trkpt>
      <trkpt lat="42.94053" lon="1.2332">
        <ele>1221</ele>
        <time>2026-06-23T07:56:20.000Z</time>
      </trkpt>
      <trkpt lat="42.94053" lon="1.2332">
        <ele>1221</ele>
        <time>2026-06-23T07:56:21.000Z</time>
      </trkpt>
      <trkpt lat="42.94053" lon="1.23321">
        <ele>1220</ele>
        <time>2026-06-23T07:56:22.000Z</time>
      </trkpt>
      <trkpt lat="42.94053" lon="1.23321">
        <ele>1220</ele>
        <time>2026-06-23T07:56:23.000Z</time>
      </trkpt>
      <trkpt lat="42.94053" lon="1.23321">
        <ele>1220</ele>
        <time>2026-06-23T07:56:24.000Z</time>
      </trkpt>
      <trkpt lat="42.94054" lon="1.23321">
        <ele>1219</ele>
        <time>2026-06-23T07:56:25.000Z</time>
      </trkpt>
      <trkpt lat="42.94053" lon="1.23321">
        <ele>1219</ele>
        <time>2026-06-23T07:56:26.000Z</time>
      </trkpt>
      <trkpt lat="42.94053" lon="1.23322">
        <ele>1219</ele>
        <time>2026-06-23T07:56:50.000Z</time>
      </trkpt>
      <trkpt lat="42.94053" lon="1.23323">
        <ele>1220</ele>
        <time>2026-06-23T07:56:51.000Z</time>
      </trkpt>
      <trkpt lat="42.94053" lon="1.23323">
        <ele>1221</ele>
        <time>2026-06-23T07:56:52.000Z</time>
      </trkpt>
      <trkpt lat="42.94053" lon="1.23324">
        <ele>1222</ele>
        <time>2026-06-23T07:57:15.000Z</time>
      </trkpt>
      <trkpt lat="42.94054" lon="1.23323">
        <ele>1222</ele>
        <time>2026-06-23T07:57:16.000Z</time>
      </trkpt>
      <trkpt lat="42.94054" lon="1.23323">
        <ele>1222</ele>
        <time>2026-06-23T07:57:17.000Z</time>
      </trkpt>
      <trkpt lat="42.94053" lon="1.23322">
        <ele>1221</ele>
        <time>2026-06-23T07:57:18.000Z</time>
      </trkpt>
      <trkpt lat="42.94053" lon="1.23321">
        <ele>1220</ele>
        <time>2026-06-23T07:57:19.000Z</time>
      </trkpt>
      <trkpt lat="42.94054" lon="1.23325">
        <ele>1225</ele>
        <time>2026-06-23T07:58:26.000Z</time>
      </trkpt>
      <trkpt lat="42.94055" lon="1.23324">
        <ele>1226</ele>
        <time>2026-06-23T07:58:27.000Z</time>
      </trkpt>
      <trkpt lat="42.94056" lon="1.23322">
        <ele>1226</ele>
        <time>2026-06-23T07:58:28.000Z</time>
      </trkpt>
      <trkpt lat="42.94056" lon="1.23322">
        <ele>1227</ele>
        <time>2026-06-23T07:58:29.000Z</time>
      </trkpt>
      <trkpt lat="42.94057" lon="1.23322">
        <ele>1226</ele>
        <time>2026-06-23T07:58:30.000Z</time>
      </trkpt>
      <trkpt lat="42.94057" lon="1.23322">
        <ele>1226</ele>
        <time>2026-06-23T07:58:31.000Z</time>
      </trkpt>
      <trkpt lat="42.94058" lon="1.23323">
        <ele>1226</ele>
        <time>2026-06-23T07:58:32.000Z</time>
      </trkpt>
      <trkpt lat="42.9406" lon="1.23323">
        <ele>1226</ele>
        <time>2026-06-23T07:58:33.000Z</time>
      </trkpt>
      <trkpt lat="42.9406" lon="1.23324">
        <ele>1226</ele>
        <time>2026-06-23T07:58:34.000Z</time>
      </trkpt>
      <trkpt lat="42.9406" lon="1.23326">
        <ele>1226</ele>
        <time>2026-06-23T07:58:35.000Z</time>
      </trkpt>
      <trkpt lat="42.94061" lon="1.23326">
        <ele>1226</ele>
        <time>2026-06-23T07:58:36.000Z</time>
      </trkpt>
      <trkpt lat="42.94062" lon="1.23327">
        <ele>1227</ele>
        <time>2026-06-23T07:58:37.000Z</time>
      </trkpt>
      <trkpt lat="42.94062" lon="1.23327">
        <ele>1226</ele>
        <time>2026-06-23T07:58:38.000Z</time>
      </trkpt>
      <trkpt lat="42.94062" lon="1.23328">
        <ele>1226</ele>
        <time>2026-06-23T07:58:39.000Z</time>
      </trkpt>
      <trkpt lat="42.94061" lon="1.23329">
        <ele>1226</ele>
        <time>2026-06-23T07:58:40.000Z</time>
      </trkpt>
      <trkpt lat="42.9406" lon="1.23332">
        <ele>1226</ele>
        <time>2026-06-23T07:58:41.000Z</time>
      </trkpt>
      <trkpt lat="42.9406" lon="1.23334">
        <ele>1226</ele>
        <time>2026-06-23T07:58:42.000Z</time>
      </trkpt>
      <trkpt lat="42.94061" lon="1.23336">
        <ele>1226</ele>
        <time>2026-06-23T07:58:43.000Z</time>
      </trkpt>
      <trkpt lat="42.94061" lon="1.23338">
        <ele>1226</ele>
        <time>2026-06-23T07:58:44.000Z</time>
      </trkpt>
      <trkpt lat="42.94061" lon="1.2334">
        <ele>1226</ele>
        <time>2026-06-23T07:58:45.000Z</time>
      </trkpt>
      <trkpt lat="42.94061" lon="1.23341">
        <ele>1226</ele>
        <time>2026-06-23T07:58:46.000Z</time>
      </trkpt>
      <trkpt lat="42.94062" lon="1.23343">
        <ele>1226</ele>
        <time>2026-06-23T07:58:47.000Z</time>
      </trkpt>
      <trkpt lat="42.94061" lon="1.23346">
        <ele>1225</ele>
        <time>2026-06-23T07:58:48.000Z</time>
      </trkpt>
      <trkpt lat="42.9406" lon="1.23348">
        <ele>1225</ele>
        <time>2026-06-23T07:58:49.000Z</time>
      </trkpt>
      <trkpt lat="42.94059" lon="1.23351">
        <ele>1224</ele>
        <time>2026-06-23T07:58:50.000Z</time>
      </trkpt>
      <trkpt lat="42.94057" lon="1.23353">
        <ele>1224</ele>
        <time>2026-06-23T07:58:51.000Z</time>
      </trkpt>
      <trkpt lat="42.94056" lon="1.23357">
        <ele>1223</ele>
        <time>2026-06-23T07:58:52.000Z</time>
      </trkpt>
      <trkpt lat="42.94056" lon="1.2336">
        <ele>1223</ele>
        <time>2026-06-23T07:58:53.000Z</time>
      </trkpt>
      <trkpt lat="42.94055" lon="1.23364">
        <ele>1222</ele>
        <time>2026-06-23T07:58:54.000Z</time>
      </trkpt>
      <trkpt lat="42.94055" lon="1.23366">
        <ele>1222</ele>
        <time>2026-06-23T07:58:55.000Z</time>
      </trkpt>
      <trkpt lat="42.94054" lon="1.23369">
        <ele>1222</ele>
        <time>2026-06-23T07:58:56.000Z</time>
      </trkpt>
      <trkpt lat="42.94052" lon="1.23371">
        <ele>1222</ele>
        <time>2026-06-23T07:58:57.000Z</time>
      </trkpt>
      <trkpt lat="42.94051" lon="1.23374">
        <ele>1222</ele>
        <time>2026-06-23T07:58:58.000Z</time>
      </trkpt>
      <trkpt lat="42.9405" lon="1.23376">
        <ele>1221</ele>
        <time>2026-06-23T07:58:59.000Z</time>
      </trkpt>
      <trkpt lat="42.94049" lon="1.23378">
        <ele>1221</ele>
        <time>2026-06-23T07:59:00.000Z</time>
      </trkpt>
      <trkpt lat="42.94048" lon="1.23381">
        <ele>1222</ele>
        <time>2026-06-23T07:59:01.000Z</time>
      </trkpt>
      <trkpt lat="42.94047" lon="1.23384">
        <ele>1222</ele>
        <time>2026-06-23T07:59:02.000Z</time>
      </trkpt>
      <trkpt lat="42.94047" lon="1.23386">
        <ele>1222</ele>
        <time>2026-06-23T07:59:03.000Z</time>
      </trkpt>
      <trkpt lat="42.94047" lon="1.23389">
        <ele>1222</ele>
        <time>2026-06-23T07:59:04.000Z</time>
      </trkpt>
      <trkpt lat="42.94047" lon="1.23391">
        <ele>1222</ele>
        <time>2026-06-23T07:59:05.000Z</time>
      </trkpt>
      <trkpt lat="42.94048" lon="1.23394">
        <ele>1222</ele>
        <time>2026-06-23T07:59:06.000Z</time>
      </trkpt>
      <trkpt lat="42.94047" lon="1.23396">
        <ele>1222</ele>
        <time>2026-06-23T07:59:07.000Z</time>
      </trkpt>
      <trkpt lat="42.94047" lon="1.23399">
        <ele>1223</ele>
        <time>2026-06-23T07:59:08.000Z</time>
      </trkpt>
      <trkpt lat="42.94046" lon="1.23402">
        <ele>1223</ele>
        <time>2026-06-23T07:59:09.000Z</time>
      </trkpt>
      <trkpt lat="42.94045" lon="1.23404">
        <ele>1223</ele>
        <time>2026-06-23T07:59:10.000Z</time>
      </trkpt>
      <trkpt lat="42.94045" lon="1.23406">
        <ele>1223</ele>
        <time>2026-06-23T07:59:11.000Z</time>
      </trkpt>
      <trkpt lat="42.94046" lon="1.23408">
        <ele>1223</ele>
        <time>2026-06-23T07:59:12.000Z</time>
      </trkpt>
      <trkpt lat="42.94046" lon="1.23408">
        <ele>1223</ele>
        <time>2026-06-23T07:59:13.000Z</time>
      </trkpt>
      <trkpt lat="42.94046" lon="1.2341">
        <ele>1222</ele>
        <time>2026-06-23T07:59:14.000Z</time>
      </trkpt>
      <trkpt lat="42.94046" lon="1.23413">
        <ele>1223</ele>
        <time>2026-06-23T07:59:15.000Z</time>
      </trkpt>
      <trkpt lat="42.94046" lon="1.23416">
        <ele>1221</ele>
        <time>2026-06-23T07:59:16.000Z</time>
      </trkpt>
      <trkpt lat="42.94045" lon="1.23418">
        <ele>1221</ele>
        <time>2026-06-23T07:59:17.000Z</time>
      </trkpt>
      <trkpt lat="42.94045" lon="1.23421">
        <ele>1221</ele>
        <time>2026-06-23T07:59:18.000Z</time>
      </trkpt>
      <trkpt lat="42.94045" lon="1.23423">
        <ele>1220</ele>
        <time>2026-06-23T07:59:19.000Z</time>
      </trkpt>
      <trkpt lat="42.94044" lon="1.23427">
        <ele>1221</ele>
        <time>2026-06-23T07:59:20.000Z</time>
      </trkpt>
      <trkpt lat="42.94044" lon="1.2343">
        <ele>1221</ele>
        <time>2026-06-23T07:59:21.000Z</time>
      </trkpt>
      <trkpt lat="42.94043" lon="1.23433">
        <ele>1220</ele>
        <time>2026-06-23T07:59:22.000Z</time>
      </trkpt>
      <trkpt lat="42.94041" lon="1.23436">
        <ele>1220</ele>
        <time>2026-06-23T07:59:23.000Z</time>
      </trkpt>
      <trkpt lat="42.9404" lon="1.23439">
        <ele>1220</ele>
        <time>2026-06-23T07:59:24.000Z</time>
      </trkpt>
      <trkpt lat="42.94039" lon="1.23442">
        <ele>1220</ele>
        <time>2026-06-23T07:59:25.000Z</time>
      </trkpt>
      <trkpt lat="42.94038" lon="1.23444">
        <ele>1219</ele>
        <time>2026-06-23T07:59:26.000Z</time>
      </trkpt>
      <trkpt lat="42.94038" lon="1.23448">
        <ele>1219</ele>
        <time>2026-06-23T07:59:27.000Z</time>
      </trkpt>
      <trkpt lat="42.94038" lon="1.23451">
        <ele>1219</ele>
        <time>2026-06-23T07:59:28.000Z</time>
      </trkpt>
      <trkpt lat="42.94039" lon="1.23454">
        <ele>1218</ele>
        <time>2026-06-23T07:59:29.000Z</time>
      </trkpt>
      <trkpt lat="42.94039" lon="1.23456">
        <ele>1217</ele>
        <time>2026-06-23T07:59:30.000Z</time>
      </trkpt>
      <trkpt lat="42.94038" lon="1.23458">
        <ele>1217</ele>
        <time>2026-06-23T07:59:31.000Z</time>
      </trkpt>
      <trkpt lat="42.94038" lon="1.23459">
        <ele>1217</ele>
        <time>2026-06-23T07:59:32.000Z</time>
      </trkpt>
      <trkpt lat="42.94038" lon="1.23461">
        <ele>1218</ele>
        <time>2026-06-23T07:59:33.000Z</time>
      </trkpt>
      <trkpt lat="42.94038" lon="1.23461">
        <ele>1218</ele>
        <time>2026-06-23T07:59:34.000Z</time>
      </trkpt>
      <trkpt lat="42.94039" lon="1.23461">
        <ele>1218</ele>
        <time>2026-06-23T07:59:35.000Z</time>
      </trkpt>
      <trkpt lat="42.94039" lon="1.23462">
        <ele>1216</ele>
        <time>2026-06-23T07:59:36.000Z</time>
      </trkpt>
      <trkpt lat="42.9404" lon="1.23461">
        <ele>1217</ele>
        <time>2026-06-23T07:59:37.000Z</time>
      </trkpt>
      <trkpt lat="42.9404" lon="1.23462">
        <ele>1217</ele>
        <time>2026-06-23T07:59:38.000Z</time>
      </trkpt>
      <trkpt lat="42.94041" lon="1.23462">
        <ele>1217</ele>
        <time>2026-06-23T07:59:39.000Z</time>
      </trkpt>
      <trkpt lat="42.94041" lon="1.23462">
        <ele>1217</ele>
        <time>2026-06-23T07:59:40.000Z</time>
      </trkpt>
      <trkpt lat="42.94041" lon="1.23462">
        <ele>1217</ele>
        <time>2026-06-23T07:59:41.000Z</time>
      </trkpt>
      <trkpt lat="42.94041" lon="1.23462">
        <ele>1217</ele>
        <time>2026-06-23T07:59:42.000Z</time>
      </trkpt>
      <trkpt lat="42.94041" lon="1.23462">
        <ele>1217</ele>
        <time>2026-06-23T07:59:43.000Z</time>
      </trkpt>
      <trkpt lat="42.94041" lon="1.23462">
        <ele>1217</ele>
        <time>2026-06-23T07:59:44.000Z</time>
      </trkpt>
      <trkpt lat="42.94042" lon="1.23462">
        <ele>1218</ele>
        <time>2026-06-23T07:59:45.000Z</time>
      </trkpt>
      <trkpt lat="42.94043" lon="1.23462">
        <ele>1218</ele>
        <time>2026-06-23T07:59:46.000Z</time>
      </trkpt>
      <trkpt lat="42.94043" lon="1.23462">
        <ele>1218</ele>
        <time>2026-06-23T07:59:47.000Z</time>
      </trkpt>
      <trkpt lat="42.94043" lon="1.23462">
        <ele>1218</ele>
        <time>2026-06-23T07:59:48.000Z</time>
      </trkpt>
      <trkpt lat="42.94044" lon="1.23462">
        <ele>1218</ele>
        <time>2026-06-23T07:59:49.000Z</time>
      </trkpt>
      <trkpt lat="42.94043" lon="1.23463">
        <ele>1218</ele>
        <time>2026-06-23T07:59:50.000Z</time>
      </trkpt>
      <trkpt lat="42.94043" lon="1.23464">
        <ele>1218</ele>
        <time>2026-06-23T07:59:51.000Z</time>
      </trkpt>
      <trkpt lat="42.94043" lon="1.23465">
        <ele>1218</ele>
        <time>2026-06-23T07:59:52.000Z</time>
      </trkpt>
      <trkpt lat="42.94044" lon="1.23467">
        <ele>1220</ele>
        <time>2026-06-23T07:59:53.000Z</time>
      </trkpt>
      <trkpt lat="42.94043" lon="1.23468">
        <ele>1220</ele>
        <time>2026-06-23T07:59:54.000Z</time>
      </trkpt>
      <trkpt lat="42.94042" lon="1.23469">
        <ele>1220</ele>
        <time>2026-06-23T07:59:55.000Z</time>
      </trkpt>
      <trkpt lat="42.94043" lon="1.23469">
        <ele>1220</ele>
        <time>2026-06-23T07:59:56.000Z</time>
      </trkpt>
      <trkpt lat="42.94042" lon="1.23469">
        <ele>1220</ele>
        <time>2026-06-23T07:59:57.000Z</time>
      </trkpt>
      <trkpt lat="42.94041" lon="1.23469">
        <ele>1219</ele>
        <time>2026-06-23T07:59:58.000Z</time>
      </trkpt>
      <trkpt lat="42.94041" lon="1.23471">
        <ele>1219</ele>
        <time>2026-06-23T07:59:59.000Z</time>
      </trkpt>
      <trkpt lat="42.94042" lon="1.23472">
        <ele>1219</ele>
        <time>2026-06-23T08:00:00.000Z</time>
      </trkpt>
      <trkpt lat="42.94043" lon="1.23473">
        <ele>1220</ele>
        <time>2026-06-23T08:00:01.000Z</time>
      </trkpt>
      <trkpt lat="42.94043" lon="1.23475">
        <ele>1220</ele>
        <time>2026-06-23T08:00:02.000Z</time>
      </trkpt>
      <trkpt lat="42.94042" lon="1.23477">
        <ele>1220</ele>
        <time>2026-06-23T08:00:03.000Z</time>
      </trkpt>
      <trkpt lat="42.94042" lon="1.2348">
        <ele>1220</ele>
        <time>2026-06-23T08:00:04.000Z</time>
      </trkpt>
      <trkpt lat="42.94042" lon="1.23482">
        <ele>1221</ele>
        <time>2026-06-23T08:00:05.000Z</time>
      </trkpt>
      <trkpt lat="42.94042" lon="1.23485">
        <ele>1221</ele>
        <time>2026-06-23T08:00:06.000Z</time>
      </trkpt>
      <trkpt lat="42.94043" lon="1.23487">
        <ele>1220</ele>
        <time>2026-06-23T08:00:07.000Z</time>
      </trkpt>
      <trkpt lat="42.94045" lon="1.23488">
        <ele>1220</ele>
        <time>2026-06-23T08:00:08.000Z</time>
      </trkpt>
      <trkpt lat="42.94046" lon="1.2349">
        <ele>1220</ele>
        <time>2026-06-23T08:00:09.000Z</time>
      </trkpt>
      <trkpt lat="42.94049" lon="1.23492">
        <ele>1221</ele>
        <time>2026-06-23T08:00:10.000Z</time>
      </trkpt>
      <trkpt lat="42.9405" lon="1.23494">
        <ele>1222</ele>
        <time>2026-06-23T08:00:11.000Z</time>
      </trkpt>
      <trkpt lat="42.94052" lon="1.23497">
        <ele>1223</ele>
        <time>2026-06-23T08:00:12.000Z</time>
      </trkpt>
      <trkpt lat="42.94053" lon="1.23499">
        <ele>1223</ele>
        <time>2026-06-23T08:00:13.000Z</time>
      </trkpt>
      <trkpt lat="42.94055" lon="1.23501">
        <ele>1222</ele>
        <time>2026-06-23T08:00:14.000Z</time>
      </trkpt>
      <trkpt lat="42.94057" lon="1.23503">
        <ele>1222</ele>
        <time>2026-06-23T08:00:15.000Z</time>
      </trkpt>
      <trkpt lat="42.94058" lon="1.23505">
        <ele>1222</ele>
        <time>2026-06-23T08:00:16.000Z</time>
      </trkpt>
      <trkpt lat="42.94059" lon="1.23507">
        <ele>1223</ele>
        <time>2026-06-23T08:00:17.000Z</time>
      </trkpt>
      <trkpt lat="42.9406" lon="1.23509">
        <ele>1223</ele>
        <time>2026-06-23T08:00:18.000Z</time>
      </trkpt>
      <trkpt lat="42.94059" lon="1.23512">
        <ele>1222</ele>
        <time>2026-06-23T08:00:19.000Z</time>
      </trkpt>
      <trkpt lat="42.9406" lon="1.23514">
        <ele>1222</ele>
        <time>2026-06-23T08:00:20.000Z</time>
      </trkpt>
      <trkpt lat="42.94061" lon="1.23515">
        <ele>1222</ele>
        <time>2026-06-23T08:00:21.000Z</time>
      </trkpt>
      <trkpt lat="42.94063" lon="1.23517">
        <ele>1222</ele>
        <time>2026-06-23T08:00:22.000Z</time>
      </trkpt>
      <trkpt lat="42.94065" lon="1.2352">
        <ele>1222</ele>
        <time>2026-06-23T08:00:23.000Z</time>
      </trkpt>
      <trkpt lat="42.94066" lon="1.23523">
        <ele>1222</ele>
        <time>2026-06-23T08:00:24.000Z</time>
      </trkpt>
      <trkpt lat="42.94068" lon="1.23526">
        <ele>1222</ele>
        <time>2026-06-23T08:00:25.000Z</time>
      </trkpt>
      <trkpt lat="42.94068" lon="1.23529">
        <ele>1223</ele>
        <time>2026-06-23T08:00:26.000Z</time>
      </trkpt>
      <trkpt lat="42.94068" lon="1.23531">
        <ele>1223</ele>
        <time>2026-06-23T08:00:27.000Z</time>
      </trkpt>
      <trkpt lat="42.94069" lon="1.23535">
        <ele>1223</ele>
        <time>2026-06-23T08:00:28.000Z</time>
      </trkpt>
      <trkpt lat="42.9407" lon="1.23537">
        <ele>1223</ele>
        <time>2026-06-23T08:00:29.000Z</time>
      </trkpt>
      <trkpt lat="42.9407" lon="1.23541">
        <ele>1224</ele>
        <time>2026-06-23T08:00:30.000Z</time>
      </trkpt>
      <trkpt lat="42.94072" lon="1.23543">
        <ele>1224</ele>
        <time>2026-06-23T08:00:31.000Z</time>
      </trkpt>
      <trkpt lat="42.94074" lon="1.23545">
        <ele>1224</ele>
        <time>2026-06-23T08:00:32.000Z</time>
      </trkpt>
      <trkpt lat="42.94075" lon="1.23547">
        <ele>1225</ele>
        <time>2026-06-23T08:00:33.000Z</time>
      </trkpt>
      <trkpt lat="42.94076" lon="1.2355">
        <ele>1224</ele>
        <time>2026-06-23T08:00:34.000Z</time>
      </trkpt>
      <trkpt lat="42.94077" lon="1.23553">
        <ele>1225</ele>
        <time>2026-06-23T08:00:35.000Z</time>
      </trkpt>
      <trkpt lat="42.94078" lon="1.23555">
        <ele>1224</ele>
        <time>2026-06-23T08:00:36.000Z</time>
      </trkpt>
      <trkpt lat="42.94079" lon="1.23557">
        <ele>1224</ele>
        <time>2026-06-23T08:00:37.000Z</time>
      </trkpt>
      <trkpt lat="42.94081" lon="1.23558">
        <ele>1225</ele>
        <time>2026-06-23T08:00:38.000Z</time>
      </trkpt>
      <trkpt lat="42.94083" lon="1.2356">
        <ele>1225</ele>
        <time>2026-06-23T08:00:39.000Z</time>
      </trkpt>
      <trkpt lat="42.94085" lon="1.23561">
        <ele>1226</ele>
        <time>2026-06-23T08:00:40.000Z</time>
      </trkpt>
      <trkpt lat="42.94087" lon="1.23563">
        <ele>1226</ele>
        <time>2026-06-23T08:00:41.000Z</time>
      </trkpt>
      <trkpt lat="42.94089" lon="1.23565">
        <ele>1227</ele>
        <time>2026-06-23T08:00:42.000Z</time>
      </trkpt>
      <trkpt lat="42.9409" lon="1.23566">
        <ele>1227</ele>
        <time>2026-06-23T08:00:43.000Z</time>
      </trkpt>
      <trkpt lat="42.94092" lon="1.23568">
        <ele>1227</ele>
        <time>2026-06-23T08:00:44.000Z</time>
      </trkpt>
      <trkpt lat="42.94094" lon="1.2357">
        <ele>1227</ele>
        <time>2026-06-23T08:00:45.000Z</time>
      </trkpt>
      <trkpt lat="42.94096" lon="1.23571">
        <ele>1227</ele>
        <time>2026-06-23T08:00:46.000Z</time>
      </trkpt>
      <trkpt lat="42.94098" lon="1.23572">
        <ele>1228</ele>
        <time>2026-06-23T08:00:47.000Z</time>
      </trkpt>
      <trkpt lat="42.94099" lon="1.23573">
        <ele>1228</ele>
        <time>2026-06-23T08:00:48.000Z</time>
      </trkpt>
      <trkpt lat="42.94101" lon="1.23574">
        <ele>1228</ele>
        <time>2026-06-23T08:00:49.000Z</time>
      </trkpt>
      <trkpt lat="42.94103" lon="1.23577">
        <ele>1229</ele>
        <time>2026-06-23T08:00:50.000Z</time>
      </trkpt>
      <trkpt lat="42.94104" lon="1.23578">
        <ele>1229</ele>
        <time>2026-06-23T08:00:51.000Z</time>
      </trkpt>
      <trkpt lat="42.94106" lon="1.23581">
        <ele>1229</ele>
        <time>2026-06-23T08:00:52.000Z</time>
      </trkpt>
      <trkpt lat="42.94107" lon="1.23585">
        <ele>1229</ele>
        <time>2026-06-23T08:00:53.000Z</time>
      </trkpt>
      <trkpt lat="42.9411" lon="1.23586">
        <ele>1229</ele>
        <time>2026-06-23T08:00:54.000Z</time>
      </trkpt>
      <trkpt lat="42.94112" lon="1.23588">
        <ele>1230</ele>
        <time>2026-06-23T08:00:55.000Z</time>
      </trkpt>
      <trkpt lat="42.94114" lon="1.23591">
        <ele>1230</ele>
        <time>2026-06-23T08:00:56.000Z</time>
      </trkpt>
      <trkpt lat="42.94116" lon="1.23592">
        <ele>1230</ele>
        <time>2026-06-23T08:00:57.000Z</time>
      </trkpt>
      <trkpt lat="42.94118" lon="1.23595">
        <ele>1230</ele>
        <time>2026-06-23T08:00:58.000Z</time>
      </trkpt>
      <trkpt lat="42.94119" lon="1.23597">
        <ele>1231</ele>
        <time>2026-06-23T08:00:59.000Z</time>
      </trkpt>
      <trkpt lat="42.94121" lon="1.23598">
        <ele>1231</ele>
        <time>2026-06-23T08:01:00.000Z</time>
      </trkpt>
      <trkpt lat="42.94123" lon="1.236">
        <ele>1231</ele>
        <time>2026-06-23T08:01:01.000Z</time>
      </trkpt>
      <trkpt lat="42.94125" lon="1.23602">
        <ele>1231</ele>
        <time>2026-06-23T08:01:02.000Z</time>
      </trkpt>
      <trkpt lat="42.94127" lon="1.23604">
        <ele>1231</ele>
        <time>2026-06-23T08:01:03.000Z</time>
      </trkpt>
      <trkpt lat="42.94128" lon="1.23608">
        <ele>1231</ele>
        <time>2026-06-23T08:01:04.000Z</time>
      </trkpt>
      <trkpt lat="42.9413" lon="1.2361">
        <ele>1231</ele>
        <time>2026-06-23T08:01:05.000Z</time>
      </trkpt>
      <trkpt lat="42.94132" lon="1.23611">
        <ele>1231</ele>
        <time>2026-06-23T08:01:06.000Z</time>
      </trkpt>
      <trkpt lat="42.94134" lon="1.23612">
        <ele>1231</ele>
        <time>2026-06-23T08:01:07.000Z</time>
      </trkpt>
      <trkpt lat="42.94137" lon="1.23613">
        <ele>1231</ele>
        <time>2026-06-23T08:01:08.000Z</time>
      </trkpt>
      <trkpt lat="42.94138" lon="1.23615">
        <ele>1231</ele>
        <time>2026-06-23T08:01:09.000Z</time>
      </trkpt>
      <trkpt lat="42.94141" lon="1.23617">
        <ele>1230</ele>
        <time>2026-06-23T08:01:10.000Z</time>
      </trkpt>
      <trkpt lat="42.94142" lon="1.23619">
        <ele>1231</ele>
        <time>2026-06-23T08:01:11.000Z</time>
      </trkpt>
      <trkpt lat="42.94144" lon="1.23622">
        <ele>1231</ele>
        <time>2026-06-23T08:01:12.000Z</time>
      </trkpt>
      <trkpt lat="42.94145" lon="1.23624">
        <ele>1232</ele>
        <time>2026-06-23T08:01:13.000Z</time>
      </trkpt>
      <trkpt lat="42.94145" lon="1.23627">
        <ele>1231</ele>
        <time>2026-06-23T08:01:14.000Z</time>
      </trkpt>
      <trkpt lat="42.94147" lon="1.2363">
        <ele>1232</ele>
        <time>2026-06-23T08:01:15.000Z</time>
      </trkpt>
      <trkpt lat="42.94148" lon="1.23633">
        <ele>1233</ele>
        <time>2026-06-23T08:01:16.000Z</time>
      </trkpt>
      <trkpt lat="42.94149" lon="1.23636">
        <ele>1233</ele>
        <time>2026-06-23T08:01:17.000Z</time>
      </trkpt>
      <trkpt lat="42.94149" lon="1.23638">
        <ele>1233</ele>
        <time>2026-06-23T08:01:18.000Z</time>
      </trkpt>
      <trkpt lat="42.9415" lon="1.2364">
        <ele>1233</ele>
        <time>2026-06-23T08:01:19.000Z</time>
      </trkpt>
      <trkpt lat="42.9415" lon="1.23644">
        <ele>1234</ele>
        <time>2026-06-23T08:01:20.000Z</time>
      </trkpt>
      <trkpt lat="42.94151" lon="1.23646">
        <ele>1234</ele>
        <time>2026-06-23T08:01:21.000Z</time>
      </trkpt>
      <trkpt lat="42.94151" lon="1.23649">
        <ele>1234</ele>
        <time>2026-06-23T08:01:22.000Z</time>
      </trkpt>
      <trkpt lat="42.94151" lon="1.23653">
        <ele>1235</ele>
        <time>2026-06-23T08:01:23.000Z</time>
      </trkpt>
      <trkpt lat="42.94151" lon="1.23655">
        <ele>1235</ele>
        <time>2026-06-23T08:01:24.000Z</time>
      </trkpt>
      <trkpt lat="42.94151" lon="1.2366">
        <ele>1236</ele>
        <time>2026-06-23T08:01:25.000Z</time>
      </trkpt>
      <trkpt lat="42.94151" lon="1.23663">
        <ele>1236</ele>
        <time>2026-06-23T08:01:26.000Z</time>
      </trkpt>
      <trkpt lat="42.9415" lon="1.23667">
        <ele>1236</ele>
        <time>2026-06-23T08:01:27.000Z</time>
      </trkpt>
      <trkpt lat="42.94149" lon="1.23669">
        <ele>1236</ele>
        <time>2026-06-23T08:01:28.000Z</time>
      </trkpt>
      <trkpt lat="42.94148" lon="1.23674">
        <ele>1237</ele>
        <time>2026-06-23T08:01:29.000Z</time>
      </trkpt>
      <trkpt lat="42.94148" lon="1.23678">
        <ele>1238</ele>
        <time>2026-06-23T08:01:30.000Z</time>
      </trkpt>
      <trkpt lat="42.94147" lon="1.2368">
        <ele>1239</ele>
        <time>2026-06-23T08:01:31.000Z</time>
      </trkpt>
      <trkpt lat="42.94148" lon="1.23683">
        <ele>1240</ele>
        <time>2026-06-23T08:01:32.000Z</time>
      </trkpt>
      <trkpt lat="42.94148" lon="1.23686">
        <ele>1240</ele>
        <time>2026-06-23T08:01:33.000Z</time>
      </trkpt>
      <trkpt lat="42.94148" lon="1.23689">
        <ele>1241</ele>
        <time>2026-06-23T08:01:34.000Z</time>
      </trkpt>
      <trkpt lat="42.94148" lon="1.23692">
        <ele>1242</ele>
        <time>2026-06-23T08:01:35.000Z</time>
      </trkpt>
      <trkpt lat="42.94148" lon="1.23695">
        <ele>1242</ele>
        <time>2026-06-23T08:01:36.000Z</time>
      </trkpt>
      <trkpt lat="42.94148" lon="1.23699">
        <ele>1242</ele>
        <time>2026-06-23T08:01:37.000Z</time>
      </trkpt>
      <trkpt lat="42.94148" lon="1.23701">
        <ele>1242</ele>
        <time>2026-06-23T08:01:38.000Z</time>
      </trkpt>
      <trkpt lat="42.94148" lon="1.23704">
        <ele>1242</ele>
        <time>2026-06-23T08:01:39.000Z</time>
      </trkpt>
      <trkpt lat="42.94149" lon="1.23706">
        <ele>1243</ele>
        <time>2026-06-23T08:01:40.000Z</time>
      </trkpt>
      <trkpt lat="42.9415" lon="1.23709">
        <ele>1244</ele>
        <time>2026-06-23T08:01:41.000Z</time>
      </trkpt>
      <trkpt lat="42.9415" lon="1.23712">
        <ele>1244</ele>
        <time>2026-06-23T08:01:42.000Z</time>
      </trkpt>
      <trkpt lat="42.94149" lon="1.23715">
        <ele>1245</ele>
        <time>2026-06-23T08:01:43.000Z</time>
      </trkpt>
      <trkpt lat="42.9415" lon="1.23716">
        <ele>1245</ele>
        <time>2026-06-23T08:01:44.000Z</time>
      </trkpt>
      <trkpt lat="42.9415" lon="1.23719">
        <ele>1245</ele>
        <time>2026-06-23T08:01:45.000Z</time>
      </trkpt>
      <trkpt lat="42.94149" lon="1.23722">
        <ele>1245</ele>
        <time>2026-06-23T08:01:46.000Z</time>
      </trkpt>
      <trkpt lat="42.94149" lon="1.23726">
        <ele>1246</ele>
        <time>2026-06-23T08:01:47.000Z</time>
      </trkpt>
      <trkpt lat="42.94149" lon="1.23729">
        <ele>1245</ele>
        <time>2026-06-23T08:01:48.000Z</time>
      </trkpt>
      <trkpt lat="42.94149" lon="1.23732">
        <ele>1245</ele>
        <time>2026-06-23T08:01:49.000Z</time>
      </trkpt>
      <trkpt lat="42.9415" lon="1.23734">
        <ele>1246</ele>
        <time>2026-06-23T08:01:50.000Z</time>
      </trkpt>
      <trkpt lat="42.9415" lon="1.23737">
        <ele>1245</ele>
        <time>2026-06-23T08:01:51.000Z</time>
      </trkpt>
      <trkpt lat="42.9415" lon="1.2374">
        <ele>1246</ele>
        <time>2026-06-23T08:01:52.000Z</time>
      </trkpt>
      <trkpt lat="42.94151" lon="1.23743">
        <ele>1245</ele>
        <time>2026-06-23T08:01:53.000Z</time>
      </trkpt>
      <trkpt lat="42.94151" lon="1.23746">
        <ele>1245</ele>
        <time>2026-06-23T08:01:54.000Z</time>
      </trkpt>
      <trkpt lat="42.94152" lon="1.23749">
        <ele>1245</ele>
        <time>2026-06-23T08:01:55.000Z</time>
      </trkpt>
      <trkpt lat="42.94154" lon="1.23751">
        <ele>1245</ele>
        <time>2026-06-23T08:01:56.000Z</time>
      </trkpt>
      <trkpt lat="42.94156" lon="1.23754">
        <ele>1244</ele>
        <time>2026-06-23T08:01:57.000Z</time>
      </trkpt>
      <trkpt lat="42.94157" lon="1.23755">
        <ele>1244</ele>
        <time>2026-06-23T08:01:58.000Z</time>
      </trkpt>
      <trkpt lat="42.94159" lon="1.23758">
        <ele>1244</ele>
        <time>2026-06-23T08:01:59.000Z</time>
      </trkpt>
      <trkpt lat="42.94162" lon="1.2376">
        <ele>1244</ele>
        <time>2026-06-23T08:02:00.000Z</time>
      </trkpt>
      <trkpt lat="42.94163" lon="1.23765">
        <ele>1244</ele>
        <time>2026-06-23T08:02:01.000Z</time>
      </trkpt>
      <trkpt lat="42.94164" lon="1.23767">
        <ele>1244</ele>
        <time>2026-06-23T08:02:02.000Z</time>
      </trkpt>
      <trkpt lat="42.94165" lon="1.2377">
        <ele>1245</ele>
        <time>2026-06-23T08:02:03.000Z</time>
      </trkpt>
      <trkpt lat="42.94166" lon="1.23771">
        <ele>1244</ele>
        <time>2026-06-23T08:02:04.000Z</time>
      </trkpt>
      <trkpt lat="42.94168" lon="1.23773">
        <ele>1244</ele>
        <time>2026-06-23T08:02:05.000Z</time>
      </trkpt>
      <trkpt lat="42.94168" lon="1.23775">
        <ele>1244</ele>
        <time>2026-06-23T08:02:06.000Z</time>
      </trkpt>
      <trkpt lat="42.9417" lon="1.23777">
        <ele>1243</ele>
        <time>2026-06-23T08:02:07.000Z</time>
      </trkpt>
      <trkpt lat="42.94172" lon="1.23779">
        <ele>1243</ele>
        <time>2026-06-23T08:02:08.000Z</time>
      </trkpt>
      <trkpt lat="42.94173" lon="1.23782">
        <ele>1243</ele>
        <time>2026-06-23T08:02:09.000Z</time>
      </trkpt>
      <trkpt lat="42.94174" lon="1.23783">
        <ele>1242</ele>
        <time>2026-06-23T08:02:10.000Z</time>
      </trkpt>
      <trkpt lat="42.94177" lon="1.23786">
        <ele>1243</ele>
        <time>2026-06-23T08:02:11.000Z</time>
      </trkpt>
      <trkpt lat="42.94178" lon="1.2379">
        <ele>1243</ele>
        <time>2026-06-23T08:02:12.000Z</time>
      </trkpt>
      <trkpt lat="42.9418" lon="1.23792">
        <ele>1244</ele>
        <time>2026-06-23T08:02:13.000Z</time>
      </trkpt>
      <trkpt lat="42.94181" lon="1.23795">
        <ele>1243</ele>
        <time>2026-06-23T08:02:14.000Z</time>
      </trkpt>
      <trkpt lat="42.94182" lon="1.23798">
        <ele>1244</ele>
        <time>2026-06-23T08:02:15.000Z</time>
      </trkpt>
      <trkpt lat="42.94183" lon="1.23803">
        <ele>1244</ele>
        <time>2026-06-23T08:02:16.000Z</time>
      </trkpt>
      <trkpt lat="42.94184" lon="1.23805">
        <ele>1244</ele>
        <time>2026-06-23T08:02:17.000Z</time>
      </trkpt>
      <trkpt lat="42.94185" lon="1.23808">
        <ele>1244</ele>
        <time>2026-06-23T08:02:18.000Z</time>
      </trkpt>
      <trkpt lat="42.94187" lon="1.23809">
        <ele>1244</ele>
        <time>2026-06-23T08:02:19.000Z</time>
      </trkpt>
      <trkpt lat="42.94189" lon="1.23812">
        <ele>1245</ele>
        <time>2026-06-23T08:02:20.000Z</time>
      </trkpt>
      <trkpt lat="42.9419" lon="1.23815">
        <ele>1244</ele>
        <time>2026-06-23T08:02:21.000Z</time>
      </trkpt>
      <trkpt lat="42.94193" lon="1.23819">
        <ele>1245</ele>
        <time>2026-06-23T08:02:22.000Z</time>
      </trkpt>
      <trkpt lat="42.94194" lon="1.23822">
        <ele>1245</ele>
        <time>2026-06-23T08:02:23.000Z</time>
      </trkpt>
      <trkpt lat="42.94195" lon="1.23825">
        <ele>1245</ele>
        <time>2026-06-23T08:02:24.000Z</time>
      </trkpt>
      <trkpt lat="42.94196" lon="1.23827">
        <ele>1245</ele>
        <time>2026-06-23T08:02:25.000Z</time>
      </trkpt>
      <trkpt lat="42.94198" lon="1.2383">
        <ele>1246</ele>
        <time>2026-06-23T08:02:26.000Z</time>
      </trkpt>
      <trkpt lat="42.94199" lon="1.23833">
        <ele>1246</ele>
        <time>2026-06-23T08:02:27.000Z</time>
      </trkpt>
      <trkpt lat="42.942" lon="1.23836">
        <ele>1246</ele>
        <time>2026-06-23T08:02:28.000Z</time>
      </trkpt>
      <trkpt lat="42.94201" lon="1.23838">
        <ele>1246</ele>
        <time>2026-06-23T08:02:29.000Z</time>
      </trkpt>
      <trkpt lat="42.94202" lon="1.2384">
        <ele>1246</ele>
        <time>2026-06-23T08:02:30.000Z</time>
      </trkpt>
      <trkpt lat="42.94203" lon="1.23842">
        <ele>1246</ele>
        <time>2026-06-23T08:02:31.000Z</time>
      </trkpt>
      <trkpt lat="42.94203" lon="1.23845">
        <ele>1247</ele>
        <time>2026-06-23T08:02:32.000Z</time>
      </trkpt>
      <trkpt lat="42.94204" lon="1.23848">
        <ele>1247</ele>
        <time>2026-06-23T08:02:33.000Z</time>
      </trkpt>
      <trkpt lat="42.94206" lon="1.23851">
        <ele>1248</ele>
        <time>2026-06-23T08:02:34.000Z</time>
      </trkpt>
      <trkpt lat="42.94206" lon="1.23854">
        <ele>1248</ele>
        <time>2026-06-23T08:02:35.000Z</time>
      </trkpt>
      <trkpt lat="42.94206" lon="1.23857">
        <ele>1248</ele>
        <time>2026-06-23T08:02:36.000Z</time>
      </trkpt>
      <trkpt lat="42.94207" lon="1.2386">
        <ele>1249</ele>
        <time>2026-06-23T08:02:37.000Z</time>
      </trkpt>
      <trkpt lat="42.94207" lon="1.23862">
        <ele>1249</ele>
        <time>2026-06-23T08:02:38.000Z</time>
      </trkpt>
      <trkpt lat="42.94208" lon="1.23866">
        <ele>1249</ele>
        <time>2026-06-23T08:02:39.000Z</time>
      </trkpt>
      <trkpt lat="42.94208" lon="1.23869">
        <ele>1249</ele>
        <time>2026-06-23T08:02:40.000Z</time>
      </trkpt>
      <trkpt lat="42.9421" lon="1.23872">
        <ele>1249</ele>
        <time>2026-06-23T08:02:41.000Z</time>
      </trkpt>
      <trkpt lat="42.94211" lon="1.23874">
        <ele>1249</ele>
        <time>2026-06-23T08:02:42.000Z</time>
      </trkpt>
      <trkpt lat="42.94212" lon="1.23877">
        <ele>1250</ele>
        <time>2026-06-23T08:02:43.000Z</time>
      </trkpt>
      <trkpt lat="42.94212" lon="1.23881">
        <ele>1251</ele>
        <time>2026-06-23T08:02:44.000Z</time>
      </trkpt>
      <trkpt lat="42.94213" lon="1.23884">
        <ele>1252</ele>
        <time>2026-06-23T08:02:45.000Z</time>
      </trkpt>
      <trkpt lat="42.94213" lon="1.23888">
        <ele>1252</ele>
        <time>2026-06-23T08:02:46.000Z</time>
      </trkpt>
      <trkpt lat="42.94215" lon="1.23891">
        <ele>1252</ele>
        <time>2026-06-23T08:02:47.000Z</time>
      </trkpt>
      <trkpt lat="42.94216" lon="1.23893">
        <ele>1252</ele>
        <time>2026-06-23T08:02:48.000Z</time>
      </trkpt>
      <trkpt lat="42.94218" lon="1.23897">
        <ele>1253</ele>
        <time>2026-06-23T08:02:49.000Z</time>
      </trkpt>
      <trkpt lat="42.94218" lon="1.239">
        <ele>1253</ele>
        <time>2026-06-23T08:02:50.000Z</time>
      </trkpt>
      <trkpt lat="42.94218" lon="1.23903">
        <ele>1253</ele>
        <time>2026-06-23T08:02:51.000Z</time>
      </trkpt>
      <trkpt lat="42.94219" lon="1.23905">
        <ele>1254</ele>
        <time>2026-06-23T08:02:52.000Z</time>
      </trkpt>
      <trkpt lat="42.9422" lon="1.23909">
        <ele>1255</ele>
        <time>2026-06-23T08:02:53.000Z</time>
      </trkpt>
      <trkpt lat="42.94221" lon="1.23912">
        <ele>1255</ele>
        <time>2026-06-23T08:02:54.000Z</time>
      </trkpt>
      <trkpt lat="42.94221" lon="1.23915">
        <ele>1256</ele>
        <time>2026-06-23T08:02:55.000Z</time>
      </trkpt>
      <trkpt lat="42.94221" lon="1.23919">
        <ele>1257</ele>
        <time>2026-06-23T08:02:56.000Z</time>
      </trkpt>
      <trkpt lat="42.94222" lon="1.23922">
        <ele>1257</ele>
        <time>2026-06-23T08:02:57.000Z</time>
      </trkpt>
      <trkpt lat="42.94222" lon="1.23925">
        <ele>1257</ele>
        <time>2026-06-23T08:02:58.000Z</time>
      </trkpt>
      <trkpt lat="42.94223" lon="1.23928">
        <ele>1257</ele>
        <time>2026-06-23T08:02:59.000Z</time>
      </trkpt>
      <trkpt lat="42.94223" lon="1.23932">
        <ele>1257</ele>
        <time>2026-06-23T08:03:00.000Z</time>
      </trkpt>
      <trkpt lat="42.94223" lon="1.23936">
        <ele>1257</ele>
        <time>2026-06-23T08:03:01.000Z</time>
      </trkpt>
      <trkpt lat="42.94224" lon="1.2394">
        <ele>1257</ele>
        <time>2026-06-23T08:03:02.000Z</time>
      </trkpt>
      <trkpt lat="42.94224" lon="1.23945">
        <ele>1257</ele>
        <time>2026-06-23T08:03:03.000Z</time>
      </trkpt>
      <trkpt lat="42.94224" lon="1.2395">
        <ele>1257</ele>
        <time>2026-06-23T08:03:04.000Z</time>
      </trkpt>
      <trkpt lat="42.94223" lon="1.23955">
        <ele>1257</ele>
        <time>2026-06-23T08:03:05.000Z</time>
      </trkpt>
      <trkpt lat="42.94223" lon="1.23961">
        <ele>1257</ele>
        <time>2026-06-23T08:03:06.000Z</time>
      </trkpt>
      <trkpt lat="42.9422" lon="1.23966">
        <ele>1257</ele>
        <time>2026-06-23T08:03:07.000Z</time>
      </trkpt>
      <trkpt lat="42.94219" lon="1.23971">
        <ele>1258</ele>
        <time>2026-06-23T08:03:08.000Z</time>
      </trkpt>
      <trkpt lat="42.94217" lon="1.23976">
        <ele>1258</ele>
        <time>2026-06-23T08:03:09.000Z</time>
      </trkpt>
      <trkpt lat="42.94215" lon="1.2398">
        <ele>1259</ele>
        <time>2026-06-23T08:03:10.000Z</time>
      </trkpt>
      <trkpt lat="42.94213" lon="1.23983">
        <ele>1260</ele>
        <time>2026-06-23T08:03:11.000Z</time>
      </trkpt>
      <trkpt lat="42.94211" lon="1.23987">
        <ele>1260</ele>
        <time>2026-06-23T08:03:12.000Z</time>
      </trkpt>
      <trkpt lat="42.9421" lon="1.23991">
        <ele>1261</ele>
        <time>2026-06-23T08:03:13.000Z</time>
      </trkpt>
      <trkpt lat="42.94211" lon="1.23996">
        <ele>1262</ele>
        <time>2026-06-23T08:03:14.000Z</time>
      </trkpt>
      <trkpt lat="42.94211" lon="1.24">
        <ele>1262</ele>
        <time>2026-06-23T08:03:15.000Z</time>
      </trkpt>
      <trkpt lat="42.9421" lon="1.24004">
        <ele>1261</ele>
        <time>2026-06-23T08:03:16.000Z</time>
      </trkpt>
      <trkpt lat="42.94208" lon="1.24008">
        <ele>1261</ele>
        <time>2026-06-23T08:03:17.000Z</time>
      </trkpt>
      <trkpt lat="42.94206" lon="1.24012">
        <ele>1262</ele>
        <time>2026-06-23T08:03:18.000Z</time>
      </trkpt>
      <trkpt lat="42.94204" lon="1.24016">
        <ele>1262</ele>
        <time>2026-06-23T08:03:19.000Z</time>
      </trkpt>
      <trkpt lat="42.94201" lon="1.2402">
        <ele>1263</ele>
        <time>2026-06-23T08:03:20.000Z</time>
      </trkpt>
      <trkpt lat="42.94198" lon="1.24024">
        <ele>1263</ele>
        <time>2026-06-23T08:03:21.000Z</time>
      </trkpt>
      <trkpt lat="42.94194" lon="1.24027">
        <ele>1264</ele>
        <time>2026-06-23T08:03:22.000Z</time>
      </trkpt>
      <trkpt lat="42.94191" lon="1.2403">
        <ele>1265</ele>
        <time>2026-06-23T08:03:23.000Z</time>
      </trkpt>
      <trkpt lat="42.94187" lon="1.24034">
        <ele>1265</ele>
        <time>2026-06-23T08:03:24.000Z</time>
      </trkpt>
      <trkpt lat="42.94183" lon="1.24037">
        <ele>1265</ele>
        <time>2026-06-23T08:03:25.000Z</time>
      </trkpt>
      <trkpt lat="42.94179" lon="1.24041">
        <ele>1265</ele>
        <time>2026-06-23T08:03:26.000Z</time>
      </trkpt>
      <trkpt lat="42.94175" lon="1.24045">
        <ele>1265</ele>
        <time>2026-06-23T08:03:27.000Z</time>
      </trkpt>
      <trkpt lat="42.9417" lon="1.2405">
        <ele>1265</ele>
        <time>2026-06-23T08:03:28.000Z</time>
      </trkpt>
      <trkpt lat="42.94164" lon="1.24056">
        <ele>1265</ele>
        <time>2026-06-23T08:03:29.000Z</time>
      </trkpt>
      <trkpt lat="42.9416" lon="1.24062">
        <ele>1265</ele>
        <time>2026-06-23T08:03:30.000Z</time>
      </trkpt>
      <trkpt lat="42.94155" lon="1.24067">
        <ele>1265</ele>
        <time>2026-06-23T08:03:31.000Z</time>
      </trkpt>
      <trkpt lat="42.94152" lon="1.24072">
        <ele>1265</ele>
        <time>2026-06-23T08:03:32.000Z</time>
      </trkpt>
      <trkpt lat="42.94148" lon="1.24077">
        <ele>1265</ele>
        <time>2026-06-23T08:03:33.000Z</time>
      </trkpt>
      <trkpt lat="42.94143" lon="1.24083">
        <ele>1265</ele>
        <time>2026-06-23T08:03:34.000Z</time>
      </trkpt>
      <trkpt lat="42.94138" lon="1.24089">
        <ele>1265</ele>
        <time>2026-06-23T08:03:35.000Z</time>
      </trkpt>
      <trkpt lat="42.94132" lon="1.24097">
        <ele>1265</ele>
        <time>2026-06-23T08:03:36.000Z</time>
      </trkpt>
      <trkpt lat="42.94127" lon="1.24104">
        <ele>1265</ele>
        <time>2026-06-23T08:03:37.000Z</time>
      </trkpt>
      <trkpt lat="42.94122" lon="1.24112">
        <ele>1265</ele>
        <time>2026-06-23T08:03:38.000Z</time>
      </trkpt>
      <trkpt lat="42.94118" lon="1.24119">
        <ele>1265</ele>
        <time>2026-06-23T08:03:39.000Z</time>
      </trkpt>
      <trkpt lat="42.94115" lon="1.24127">
        <ele>1265</ele>
        <time>2026-06-23T08:03:40.000Z</time>
      </trkpt>
      <trkpt lat="42.94111" lon="1.24133">
        <ele>1265</ele>
        <time>2026-06-23T08:03:41.000Z</time>
      </trkpt>
      <trkpt lat="42.94107" lon="1.24139">
        <ele>1265</ele>
        <time>2026-06-23T08:03:42.000Z</time>
      </trkpt>
      <trkpt lat="42.94103" lon="1.24147">
        <ele>1265</ele>
        <time>2026-06-23T08:03:43.000Z</time>
      </trkpt>
      <trkpt lat="42.941" lon="1.24156">
        <ele>1266</ele>
        <time>2026-06-23T08:03:44.000Z</time>
      </trkpt>
      <trkpt lat="42.94098" lon="1.24164">
        <ele>1266</ele>
        <time>2026-06-23T08:03:45.000Z</time>
      </trkpt>
      <trkpt lat="42.94096" lon="1.24173">
        <ele>1266</ele>
        <time>2026-06-23T08:03:46.000Z</time>
      </trkpt>
      <trkpt lat="42.94094" lon="1.24183">
        <ele>1267</ele>
        <time>2026-06-23T08:03:47.000Z</time>
      </trkpt>
      <trkpt lat="42.94092" lon="1.24191">
        <ele>1268</ele>
        <time>2026-06-23T08:03:48.000Z</time>
      </trkpt>
      <trkpt lat="42.9409" lon="1.24199">
        <ele>1270</ele>
        <time>2026-06-23T08:03:49.000Z</time>
      </trkpt>
      <trkpt lat="42.94088" lon="1.24207">
        <ele>1270</ele>
        <time>2026-06-23T08:03:50.000Z</time>
      </trkpt>
      <trkpt lat="42.94086" lon="1.24215">
        <ele>1270</ele>
        <time>2026-06-23T08:03:51.000Z</time>
      </trkpt>
      <trkpt lat="42.94084" lon="1.24223">
        <ele>1271</ele>
        <time>2026-06-23T08:03:52.000Z</time>
      </trkpt>
      <trkpt lat="42.94082" lon="1.24232">
        <ele>1271</ele>
        <time>2026-06-23T08:03:53.000Z</time>
      </trkpt>
      <trkpt lat="42.94082" lon="1.24241">
        <ele>1271</ele>
        <time>2026-06-23T08:03:54.000Z</time>
      </trkpt>
      <trkpt lat="42.94082" lon="1.2425">
        <ele>1271</ele>
        <time>2026-06-23T08:03:55.000Z</time>
      </trkpt>
      <trkpt lat="42.94082" lon="1.24258">
        <ele>1272</ele>
        <time>2026-06-23T08:03:56.000Z</time>
      </trkpt>
      <trkpt lat="42.94081" lon="1.24267">
        <ele>1272</ele>
        <time>2026-06-23T08:03:57.000Z</time>
      </trkpt>
      <trkpt lat="42.94082" lon="1.24277">
        <ele>1273</ele>
        <time>2026-06-23T08:03:58.000Z</time>
      </trkpt>
      <trkpt lat="42.94082" lon="1.24286">
        <ele>1273</ele>
        <time>2026-06-23T08:03:59.000Z</time>
      </trkpt>
      <trkpt lat="42.94082" lon="1.24296">
        <ele>1273</ele>
        <time>2026-06-23T08:04:00.000Z</time>
      </trkpt>
      <trkpt lat="42.94082" lon="1.24304">
        <ele>1273</ele>
        <time>2026-06-23T08:04:01.000Z</time>
      </trkpt>
      <trkpt lat="42.94081" lon="1.24313">
        <ele>1273</ele>
        <time>2026-06-23T08:04:02.000Z</time>
      </trkpt>
      <trkpt lat="42.94079" lon="1.24322">
        <ele>1273</ele>
        <time>2026-06-23T08:04:03.000Z</time>
      </trkpt>
      <trkpt lat="42.94076" lon="1.24331">
        <ele>1273</ele>
        <time>2026-06-23T08:04:04.000Z</time>
      </trkpt>
      <trkpt lat="42.94072" lon="1.24338">
        <ele>1273</ele>
        <time>2026-06-23T08:04:05.000Z</time>
      </trkpt>
      <trkpt lat="42.94068" lon="1.24345">
        <ele>1272</ele>
        <time>2026-06-23T08:04:06.000Z</time>
      </trkpt>
      <trkpt lat="42.94065" lon="1.24351">
        <ele>1272</ele>
        <time>2026-06-23T08:04:07.000Z</time>
      </trkpt>
      <trkpt lat="42.9406" lon="1.24357">
        <ele>1271</ele>
        <time>2026-06-23T08:04:08.000Z</time>
      </trkpt>
      <trkpt lat="42.94056" lon="1.24363">
        <ele>1271</ele>
        <time>2026-06-23T08:04:09.000Z</time>
      </trkpt>
      <trkpt lat="42.94051" lon="1.2437">
        <ele>1271</ele>
        <time>2026-06-23T08:04:10.000Z</time>
      </trkpt>
      <trkpt lat="42.94046" lon="1.24374">
        <ele>1270</ele>
        <time>2026-06-23T08:04:11.000Z</time>
      </trkpt>
      <trkpt lat="42.94042" lon="1.24378">
        <ele>1270</ele>
        <time>2026-06-23T08:04:12.000Z</time>
      </trkpt>
      <trkpt lat="42.94036" lon="1.24379">
        <ele>1270</ele>
        <time>2026-06-23T08:04:13.000Z</time>
      </trkpt>
      <trkpt lat="42.9403" lon="1.24378">
        <ele>1269</ele>
        <time>2026-06-23T08:04:14.000Z</time>
      </trkpt>
      <trkpt lat="42.94025" lon="1.24377">
        <ele>1269</ele>
        <time>2026-06-23T08:04:15.000Z</time>
      </trkpt>
      <trkpt lat="42.9402" lon="1.24375">
        <ele>1268</ele>
        <time>2026-06-23T08:04:16.000Z</time>
      </trkpt>
      <trkpt lat="42.94015" lon="1.24375">
        <ele>1268</ele>
        <time>2026-06-23T08:04:17.000Z</time>
      </trkpt>
      <trkpt lat="42.9401" lon="1.24374">
        <ele>1267</ele>
        <time>2026-06-23T08:04:18.000Z</time>
      </trkpt>
      <trkpt lat="42.94005" lon="1.24374">
        <ele>1267</ele>
        <time>2026-06-23T08:04:19.000Z</time>
      </trkpt>
      <trkpt lat="42.94" lon="1.24374">
        <ele>1267</ele>
        <time>2026-06-23T08:04:20.000Z</time>
      </trkpt>
      <trkpt lat="42.93994" lon="1.24375">
        <ele>1266</ele>
        <time>2026-06-23T08:04:21.000Z</time>
      </trkpt>
      <trkpt lat="42.93988" lon="1.24375">
        <ele>1266</ele>
        <time>2026-06-23T08:04:22.000Z</time>
      </trkpt>
      <trkpt lat="42.93982" lon="1.24373">
        <ele>1266</ele>
        <time>2026-06-23T08:04:23.000Z</time>
      </trkpt>
      <trkpt lat="42.93975" lon="1.24373">
        <ele>1265</ele>
        <time>2026-06-23T08:04:24.000Z</time>
      </trkpt>
      <trkpt lat="42.93968" lon="1.24374">
        <ele>1265</ele>
        <time>2026-06-23T08:04:25.000Z</time>
      </trkpt>
      <trkpt lat="42.93963" lon="1.24376">
        <ele>1265</ele>
        <time>2026-06-23T08:04:26.000Z</time>
      </trkpt>
      <trkpt lat="42.93958" lon="1.24382">
        <ele>1266</ele>
        <time>2026-06-23T08:04:27.000Z</time>
      </trkpt>
      <trkpt lat="42.93953" lon="1.24388">
        <ele>1266</ele>
        <time>2026-06-23T08:04:28.000Z</time>
      </trkpt>
      <trkpt lat="42.93949" lon="1.24393">
        <ele>1266</ele>
        <time>2026-06-23T08:04:29.000Z</time>
      </trkpt>
      <trkpt lat="42.93946" lon="1.24398">
        <ele>1266</ele>
        <time>2026-06-23T08:04:30.000Z</time>
      </trkpt>
      <trkpt lat="42.93942" lon="1.24403">
        <ele>1265</ele>
        <time>2026-06-23T08:04:31.000Z</time>
      </trkpt>
      <trkpt lat="42.93938" lon="1.24406">
        <ele>1265</ele>
        <time>2026-06-23T08:04:32.000Z</time>
      </trkpt>
      <trkpt lat="42.93933" lon="1.24407">
        <ele>1264</ele>
        <time>2026-06-23T08:04:33.000Z</time>
      </trkpt>
      <trkpt lat="42.93928" lon="1.24407">
        <ele>1264</ele>
        <time>2026-06-23T08:04:34.000Z</time>
      </trkpt>
      <trkpt lat="42.93924" lon="1.24405">
        <ele>1264</ele>
        <time>2026-06-23T08:04:35.000Z</time>
      </trkpt>
      <trkpt lat="42.93919" lon="1.24401">
        <ele>1264</ele>
        <time>2026-06-23T08:04:36.000Z</time>
      </trkpt>
      <trkpt lat="42.93915" lon="1.24398">
        <ele>1263</ele>
        <time>2026-06-23T08:04:37.000Z</time>
      </trkpt>
      <trkpt lat="42.93911" lon="1.24397">
        <ele>1263</ele>
        <time>2026-06-23T08:04:38.000Z</time>
      </trkpt>
      <trkpt lat="42.93908" lon="1.24398">
        <ele>1264</ele>
        <time>2026-06-23T08:04:39.000Z</time>
      </trkpt>
      <trkpt lat="42.93905" lon="1.244">
        <ele>1264</ele>
        <time>2026-06-23T08:04:40.000Z</time>
      </trkpt>
      <trkpt lat="42.939" lon="1.24405">
        <ele>1264</ele>
        <time>2026-06-23T08:04:41.000Z</time>
      </trkpt>
      <trkpt lat="42.93894" lon="1.24411">
        <ele>1263</ele>
        <time>2026-06-23T08:04:42.000Z</time>
      </trkpt>
      <trkpt lat="42.9389" lon="1.24416">
        <ele>1263</ele>
        <time>2026-06-23T08:04:43.000Z</time>
      </trkpt>
      <trkpt lat="42.93885" lon="1.2442">
        <ele>1262</ele>
        <time>2026-06-23T08:04:44.000Z</time>
      </trkpt>
      <trkpt lat="42.9388" lon="1.24425">
        <ele>1262</ele>
        <time>2026-06-23T08:04:45.000Z</time>
      </trkpt>
      <trkpt lat="42.93875" lon="1.24431">
        <ele>1262</ele>
        <time>2026-06-23T08:04:46.000Z</time>
      </trkpt>
      <trkpt lat="42.9387" lon="1.24437">
        <ele>1261</ele>
        <time>2026-06-23T08:04:47.000Z</time>
      </trkpt>
      <trkpt lat="42.93865" lon="1.24443">
        <ele>1262</ele>
        <time>2026-06-23T08:04:48.000Z</time>
      </trkpt>
      <trkpt lat="42.9386" lon="1.24448">
        <ele>1262</ele>
        <time>2026-06-23T08:04:49.000Z</time>
      </trkpt>
      <trkpt lat="42.93857" lon="1.24454">
        <ele>1262</ele>
        <time>2026-06-23T08:04:50.000Z</time>
      </trkpt>
      <trkpt lat="42.93854" lon="1.24461">
        <ele>1262</ele>
        <time>2026-06-23T08:04:51.000Z</time>
      </trkpt>
      <trkpt lat="42.9385" lon="1.24467">
        <ele>1262</ele>
        <time>2026-06-23T08:04:52.000Z</time>
      </trkpt>
      <trkpt lat="42.93846" lon="1.24475">
        <ele>1263</ele>
        <time>2026-06-23T08:04:53.000Z</time>
      </trkpt>
      <trkpt lat="42.93842" lon="1.24481">
        <ele>1262</ele>
        <time>2026-06-23T08:04:54.000Z</time>
      </trkpt>
      <trkpt lat="42.9384" lon="1.24487">
        <ele>1262</ele>
        <time>2026-06-23T08:04:55.000Z</time>
      </trkpt>
      <trkpt lat="42.93837" lon="1.24494">
        <ele>1262</ele>
        <time>2026-06-23T08:04:56.000Z</time>
      </trkpt>
      <trkpt lat="42.93833" lon="1.245">
        <ele>1263</ele>
        <time>2026-06-23T08:04:57.000Z</time>
      </trkpt>
      <trkpt lat="42.93831" lon="1.24506">
        <ele>1262</ele>
        <time>2026-06-23T08:04:58.000Z</time>
      </trkpt>
      <trkpt lat="42.93829" lon="1.24513">
        <ele>1263</ele>
        <time>2026-06-23T08:04:59.000Z</time>
      </trkpt>
      <trkpt lat="42.93829" lon="1.24521">
        <ele>1263</ele>
        <time>2026-06-23T08:05:00.000Z</time>
      </trkpt>
      <trkpt lat="42.93829" lon="1.24528">
        <ele>1263</ele>
        <time>2026-06-23T08:05:01.000Z</time>
      </trkpt>
      <trkpt lat="42.93828" lon="1.24537">
        <ele>1262</ele>
        <time>2026-06-23T08:05:02.000Z</time>
      </trkpt>
      <trkpt lat="42.93827" lon="1.24546">
        <ele>1263</ele>
        <time>2026-06-23T08:05:03.000Z</time>
      </trkpt>
      <trkpt lat="42.93826" lon="1.24556">
        <ele>1263</ele>
        <time>2026-06-23T08:05:04.000Z</time>
      </trkpt>
      <trkpt lat="42.93825" lon="1.24565">
        <ele>1263</ele>
        <time>2026-06-23T08:05:05.000Z</time>
      </trkpt>
      <trkpt lat="42.93824" lon="1.24574">
        <ele>1262</ele>
        <time>2026-06-23T08:05:06.000Z</time>
      </trkpt>
      <trkpt lat="42.93824" lon="1.24584">
        <ele>1261</ele>
        <time>2026-06-23T08:05:07.000Z</time>
      </trkpt>
      <trkpt lat="42.93823" lon="1.24594">
        <ele>1261</ele>
        <time>2026-06-23T08:05:08.000Z</time>
      </trkpt>
      <trkpt lat="42.93823" lon="1.24604">
        <ele>1261</ele>
        <time>2026-06-23T08:05:09.000Z</time>
      </trkpt>
      <trkpt lat="42.93823" lon="1.24615">
        <ele>1260</ele>
        <time>2026-06-23T08:05:10.000Z</time>
      </trkpt>
      <trkpt lat="42.93823" lon="1.24626">
        <ele>1260</ele>
        <time>2026-06-23T08:05:11.000Z</time>
      </trkpt>
      <trkpt lat="42.93822" lon="1.24636">
        <ele>1260</ele>
        <time>2026-06-23T08:05:12.000Z</time>
      </trkpt>
      <trkpt lat="42.93823" lon="1.24645">
        <ele>1259</ele>
        <time>2026-06-23T08:05:13.000Z</time>
      </trkpt>
      <trkpt lat="42.93823" lon="1.24656">
        <ele>1258</ele>
        <time>2026-06-23T08:05:14.000Z</time>
      </trkpt>
      <trkpt lat="42.93823" lon="1.24666">
        <ele>1258</ele>
        <time>2026-06-23T08:05:15.000Z</time>
      </trkpt>
      <trkpt lat="42.93823" lon="1.24675">
        <ele>1257</ele>
        <time>2026-06-23T08:05:16.000Z</time>
      </trkpt>
      <trkpt lat="42.93823" lon="1.24685">
        <ele>1256</ele>
        <time>2026-06-23T08:05:17.000Z</time>
      </trkpt>
      <trkpt lat="42.93824" lon="1.24695">
        <ele>1256</ele>
        <time>2026-06-23T08:05:18.000Z</time>
      </trkpt>
      <trkpt lat="42.93822" lon="1.24705">
        <ele>1256</ele>
        <time>2026-06-23T08:05:19.000Z</time>
      </trkpt>
      <trkpt lat="42.93818" lon="1.24714">
        <ele>1255</ele>
        <time>2026-06-23T08:05:20.000Z</time>
      </trkpt>
      <trkpt lat="42.93813" lon="1.2472">
        <ele>1254</ele>
        <time>2026-06-23T08:05:21.000Z</time>
      </trkpt>
      <trkpt lat="42.93807" lon="1.24727">
        <ele>1252</ele>
        <time>2026-06-23T08:05:22.000Z</time>
      </trkpt>
      <trkpt lat="42.938" lon="1.24733">
        <ele>1251</ele>
        <time>2026-06-23T08:05:23.000Z</time>
      </trkpt>
      <trkpt lat="42.93794" lon="1.24741">
        <ele>1251</ele>
        <time>2026-06-23T08:05:24.000Z</time>
      </trkpt>
      <trkpt lat="42.9379" lon="1.24747">
        <ele>1250</ele>
        <time>2026-06-23T08:05:25.000Z</time>
      </trkpt>
      <trkpt lat="42.93785" lon="1.24753">
        <ele>1250</ele>
        <time>2026-06-23T08:05:26.000Z</time>
      </trkpt>
      <trkpt lat="42.93781" lon="1.24761">
        <ele>1250</ele>
        <time>2026-06-23T08:05:27.000Z</time>
      </trkpt>
      <trkpt lat="42.93777" lon="1.24768">
        <ele>1249</ele>
        <time>2026-06-23T08:05:28.000Z</time>
      </trkpt>
      <trkpt lat="42.93773" lon="1.24776">
        <ele>1248</ele>
        <time>2026-06-23T08:05:29.000Z</time>
      </trkpt>
      <trkpt lat="42.93768" lon="1.24784">
        <ele>1247</ele>
        <time>2026-06-23T08:05:30.000Z</time>
      </trkpt>
      <trkpt lat="42.93762" lon="1.2479">
        <ele>1246</ele>
        <time>2026-06-23T08:05:31.000Z</time>
      </trkpt>
      <trkpt lat="42.93757" lon="1.24798">
        <ele>1245</ele>
        <time>2026-06-23T08:05:32.000Z</time>
      </trkpt>
      <trkpt lat="42.93753" lon="1.24804">
        <ele>1244</ele>
        <time>2026-06-23T08:05:33.000Z</time>
      </trkpt>
      <trkpt lat="42.93749" lon="1.24811">
        <ele>1244</ele>
        <time>2026-06-23T08:05:34.000Z</time>
      </trkpt>
      <trkpt lat="42.93745" lon="1.24818">
        <ele>1242</ele>
        <time>2026-06-23T08:05:35.000Z</time>
      </trkpt>
      <trkpt lat="42.9374" lon="1.24824">
        <ele>1242</ele>
        <time>2026-06-23T08:05:36.000Z</time>
      </trkpt>
      <trkpt lat="42.93736" lon="1.2483">
        <ele>1242</ele>
        <time>2026-06-23T08:05:37.000Z</time>
      </trkpt>
      <trkpt lat="42.93731" lon="1.24836">
        <ele>1242</ele>
        <time>2026-06-23T08:05:38.000Z</time>
      </trkpt>
      <trkpt lat="42.93725" lon="1.24843">
        <ele>1241</ele>
        <time>2026-06-23T08:05:39.000Z</time>
      </trkpt>
      <trkpt lat="42.93718" lon="1.24849">
        <ele>1240</ele>
        <time>2026-06-23T08:05:40.000Z</time>
      </trkpt>
      <trkpt lat="42.93712" lon="1.24854">
        <ele>1239</ele>
        <time>2026-06-23T08:05:41.000Z</time>
      </trkpt>
      <trkpt lat="42.93708" lon="1.24858">
        <ele>1239</ele>
        <time>2026-06-23T08:05:42.000Z</time>
      </trkpt>
      <trkpt lat="42.93704" lon="1.24862">
        <ele>1239</ele>
        <time>2026-06-23T08:05:43.000Z</time>
      </trkpt>
      <trkpt lat="42.937" lon="1.24866">
        <ele>1238</ele>
        <time>2026-06-23T08:05:44.000Z</time>
      </trkpt>
      <trkpt lat="42.93695" lon="1.24869">
        <ele>1238</ele>
        <time>2026-06-23T08:05:45.000Z</time>
      </trkpt>
      <trkpt lat="42.93691" lon="1.24873">
        <ele>1237</ele>
        <time>2026-06-23T08:05:46.000Z</time>
      </trkpt>
      <trkpt lat="42.93688" lon="1.24879">
        <ele>1237</ele>
        <time>2026-06-23T08:05:47.000Z</time>
      </trkpt>
      <trkpt lat="42.93685" lon="1.24882">
        <ele>1237</ele>
        <time>2026-06-23T08:05:48.000Z</time>
      </trkpt>
      <trkpt lat="42.93683" lon="1.24885">
        <ele>1237</ele>
        <time>2026-06-23T08:05:49.000Z</time>
      </trkpt>
      <trkpt lat="42.93682" lon="1.24887">
        <ele>1237</ele>
        <time>2026-06-23T08:05:50.000Z</time>
      </trkpt>
      <trkpt lat="42.93679" lon="1.24889">
        <ele>1237</ele>
        <time>2026-06-23T08:05:51.000Z</time>
      </trkpt>
      <trkpt lat="42.93676" lon="1.24891">
        <ele>1236</ele>
        <time>2026-06-23T08:05:52.000Z</time>
      </trkpt>
      <trkpt lat="42.93674" lon="1.24893">
        <ele>1236</ele>
        <time>2026-06-23T08:05:53.000Z</time>
      </trkpt>
      <trkpt lat="42.93673" lon="1.24895">
        <ele>1237</ele>
        <time>2026-06-23T08:05:54.000Z</time>
      </trkpt>
      <trkpt lat="42.93672" lon="1.24898">
        <ele>1236</ele>
        <time>2026-06-23T08:05:55.000Z</time>
      </trkpt>
      <trkpt lat="42.93671" lon="1.24902">
        <ele>1236</ele>
        <time>2026-06-23T08:05:56.000Z</time>
      </trkpt>
      <trkpt lat="42.9367" lon="1.24905">
        <ele>1236</ele>
        <time>2026-06-23T08:05:57.000Z</time>
      </trkpt>
      <trkpt lat="42.93668" lon="1.24909">
        <ele>1236</ele>
        <time>2026-06-23T08:05:58.000Z</time>
      </trkpt>
      <trkpt lat="42.93667" lon="1.24913">
        <ele>1236</ele>
        <time>2026-06-23T08:05:59.000Z</time>
      </trkpt>
      <trkpt lat="42.93665" lon="1.24916">
        <ele>1237</ele>
        <time>2026-06-23T08:06:00.000Z</time>
      </trkpt>
      <trkpt lat="42.93663" lon="1.2492">
        <ele>1237</ele>
        <time>2026-06-23T08:06:01.000Z</time>
      </trkpt>
      <trkpt lat="42.93659" lon="1.24924">
        <ele>1237</ele>
        <time>2026-06-23T08:06:02.000Z</time>
      </trkpt>
      <trkpt lat="42.93656" lon="1.24926">
        <ele>1236</ele>
        <time>2026-06-23T08:06:03.000Z</time>
      </trkpt>
      <trkpt lat="42.93654" lon="1.24929">
        <ele>1236</ele>
        <time>2026-06-23T08:06:04.000Z</time>
      </trkpt>
      <trkpt lat="42.93653" lon="1.24931">
        <ele>1236</ele>
        <time>2026-06-23T08:06:05.000Z</time>
      </trkpt>
      <trkpt lat="42.9365" lon="1.24935">
        <ele>1236</ele>
        <time>2026-06-23T08:06:06.000Z</time>
      </trkpt>
      <trkpt lat="42.93649" lon="1.24938">
        <ele>1236</ele>
        <time>2026-06-23T08:06:07.000Z</time>
      </trkpt>
      <trkpt lat="42.93647" lon="1.2494">
        <ele>1236</ele>
        <time>2026-06-23T08:06:08.000Z</time>
      </trkpt>
      <trkpt lat="42.93645" lon="1.24944">
        <ele>1236</ele>
        <time>2026-06-23T08:06:09.000Z</time>
      </trkpt>
      <trkpt lat="42.93644" lon="1.24947">
        <ele>1236</ele>
        <time>2026-06-23T08:06:10.000Z</time>
      </trkpt>
      <trkpt lat="42.93643" lon="1.24951">
        <ele>1236</ele>
        <time>2026-06-23T08:06:11.000Z</time>
      </trkpt>
      <trkpt lat="42.93642" lon="1.24955">
        <ele>1237</ele>
        <time>2026-06-23T08:06:12.000Z</time>
      </trkpt>
      <trkpt lat="42.9364" lon="1.24959">
        <ele>1237</ele>
        <time>2026-06-23T08:06:13.000Z</time>
      </trkpt>
      <trkpt lat="42.93639" lon="1.24962">
        <ele>1238</ele>
        <time>2026-06-23T08:06:14.000Z</time>
      </trkpt>
      <trkpt lat="42.93637" lon="1.24966">
        <ele>1238</ele>
        <time>2026-06-23T08:06:15.000Z</time>
      </trkpt>
      <trkpt lat="42.93635" lon="1.24969">
        <ele>1239</ele>
        <time>2026-06-23T08:06:16.000Z</time>
      </trkpt>
      <trkpt lat="42.93632" lon="1.24973">
        <ele>1239</ele>
        <time>2026-06-23T08:06:17.000Z</time>
      </trkpt>
      <trkpt lat="42.93631" lon="1.24977">
        <ele>1240</ele>
        <time>2026-06-23T08:06:18.000Z</time>
      </trkpt>
      <trkpt lat="42.9363" lon="1.24981">
        <ele>1240</ele>
        <time>2026-06-23T08:06:19.000Z</time>
      </trkpt>
      <trkpt lat="42.93629" lon="1.24985">
        <ele>1240</ele>
        <time>2026-06-23T08:06:20.000Z</time>
      </trkpt>
      <trkpt lat="42.93628" lon="1.24989">
        <ele>1240</ele>
        <time>2026-06-23T08:06:21.000Z</time>
      </trkpt>
      <trkpt lat="42.93626" lon="1.24992">
        <ele>1240</ele>
        <time>2026-06-23T08:06:22.000Z</time>
      </trkpt>
      <trkpt lat="42.93625" lon="1.24997">
        <ele>1240</ele>
        <time>2026-06-23T08:06:23.000Z</time>
      </trkpt>
      <trkpt lat="42.93624" lon="1.25001">
        <ele>1241</ele>
        <time>2026-06-23T08:06:24.000Z</time>
      </trkpt>
      <trkpt lat="42.93622" lon="1.25005">
        <ele>1241</ele>
        <time>2026-06-23T08:06:25.000Z</time>
      </trkpt>
      <trkpt lat="42.9362" lon="1.25008">
        <ele>1241</ele>
        <time>2026-06-23T08:06:26.000Z</time>
      </trkpt>
      <trkpt lat="42.9362" lon="1.25011">
        <ele>1241</ele>
        <time>2026-06-23T08:06:27.000Z</time>
      </trkpt>
      <trkpt lat="42.93618" lon="1.25015">
        <ele>1241</ele>
        <time>2026-06-23T08:06:28.000Z</time>
      </trkpt>
      <trkpt lat="42.93616" lon="1.25018">
        <ele>1240</ele>
        <time>2026-06-23T08:06:29.000Z</time>
      </trkpt>
      <trkpt lat="42.93615" lon="1.25021">
        <ele>1240</ele>
        <time>2026-06-23T08:06:30.000Z</time>
      </trkpt>
      <trkpt lat="42.93614" lon="1.25023">
        <ele>1240</ele>
        <time>2026-06-23T08:06:31.000Z</time>
      </trkpt>
      <trkpt lat="42.93613" lon="1.25025">
        <ele>1241</ele>
        <time>2026-06-23T08:06:32.000Z</time>
      </trkpt>
      <trkpt lat="42.93611" lon="1.25028">
        <ele>1241</ele>
        <time>2026-06-23T08:06:33.000Z</time>
      </trkpt>
      <trkpt lat="42.9361" lon="1.25031">
        <ele>1242</ele>
        <time>2026-06-23T08:06:34.000Z</time>
      </trkpt>
      <trkpt lat="42.93608" lon="1.25034">
        <ele>1242</ele>
        <time>2026-06-23T08:06:35.000Z</time>
      </trkpt>
      <trkpt lat="42.93607" lon="1.25036">
        <ele>1242</ele>
        <time>2026-06-23T08:06:36.000Z</time>
      </trkpt>
      <trkpt lat="42.93605" lon="1.25038">
        <ele>1242</ele>
        <time>2026-06-23T08:06:37.000Z</time>
      </trkpt>
      <trkpt lat="42.93604" lon="1.2504">
        <ele>1242</ele>
        <time>2026-06-23T08:06:38.000Z</time>
      </trkpt>
      <trkpt lat="42.93603" lon="1.25043">
        <ele>1242</ele>
        <time>2026-06-23T08:06:39.000Z</time>
      </trkpt>
      <trkpt lat="42.93603" lon="1.25045">
        <ele>1241</ele>
        <time>2026-06-23T08:06:40.000Z</time>
      </trkpt>
      <trkpt lat="42.93602" lon="1.25047">
        <ele>1241</ele>
        <time>2026-06-23T08:06:41.000Z</time>
      </trkpt>
      <trkpt lat="42.93601" lon="1.2505">
        <ele>1241</ele>
        <time>2026-06-23T08:06:42.000Z</time>
      </trkpt>
      <trkpt lat="42.936" lon="1.25052">
        <ele>1241</ele>
        <time>2026-06-23T08:06:43.000Z</time>
      </trkpt>
      <trkpt lat="42.93599" lon="1.25056">
        <ele>1241</ele>
        <time>2026-06-23T08:06:44.000Z</time>
      </trkpt>
      <trkpt lat="42.93599" lon="1.25061">
        <ele>1242</ele>
        <time>2026-06-23T08:06:45.000Z</time>
      </trkpt>
      <trkpt lat="42.93598" lon="1.25065">
        <ele>1242</ele>
        <time>2026-06-23T08:06:46.000Z</time>
      </trkpt>
      <trkpt lat="42.93597" lon="1.25069">
        <ele>1243</ele>
        <time>2026-06-23T08:06:47.000Z</time>
      </trkpt>
      <trkpt lat="42.93597" lon="1.25072">
        <ele>1243</ele>
        <time>2026-06-23T08:06:48.000Z</time>
      </trkpt>
      <trkpt lat="42.93597" lon="1.25075">
        <ele>1243</ele>
        <time>2026-06-23T08:06:49.000Z</time>
      </trkpt>
      <trkpt lat="42.93597" lon="1.25078">
        <ele>1243</ele>
        <time>2026-06-23T08:06:50.000Z</time>
      </trkpt>
      <trkpt lat="42.93597" lon="1.2508">
        <ele>1243</ele>
        <time>2026-06-23T08:06:51.000Z</time>
      </trkpt>
      <trkpt lat="42.93597" lon="1.25084">
        <ele>1244</ele>
        <time>2026-06-23T08:06:52.000Z</time>
      </trkpt>
      <trkpt lat="42.93597" lon="1.25088">
        <ele>1244</ele>
        <time>2026-06-23T08:06:53.000Z</time>
      </trkpt>
      <trkpt lat="42.93597" lon="1.25091">
        <ele>1245</ele>
        <time>2026-06-23T08:06:54.000Z</time>
      </trkpt>
      <trkpt lat="42.93597" lon="1.25094">
        <ele>1245</ele>
        <time>2026-06-23T08:06:55.000Z</time>
      </trkpt>
      <trkpt lat="42.93597" lon="1.25098">
        <ele>1245</ele>
        <time>2026-06-23T08:06:56.000Z</time>
      </trkpt>
      <trkpt lat="42.93598" lon="1.25102">
        <ele>1245</ele>
        <time>2026-06-23T08:06:57.000Z</time>
      </trkpt>
      <trkpt lat="42.93597" lon="1.25105">
        <ele>1246</ele>
        <time>2026-06-23T08:06:58.000Z</time>
      </trkpt>
      <trkpt lat="42.93598" lon="1.25109">
        <ele>1246</ele>
        <time>2026-06-23T08:06:59.000Z</time>
      </trkpt>
      <trkpt lat="42.93597" lon="1.25112">
        <ele>1246</ele>
        <time>2026-06-23T08:07:00.000Z</time>
      </trkpt>
      <trkpt lat="42.93597" lon="1.25115">
        <ele>1246</ele>
        <time>2026-06-23T08:07:01.000Z</time>
      </trkpt>
      <trkpt lat="42.93596" lon="1.25118">
        <ele>1246</ele>
        <time>2026-06-23T08:07:02.000Z</time>
      </trkpt>
      <trkpt lat="42.93596" lon="1.2512">
        <ele>1246</ele>
        <time>2026-06-23T08:07:03.000Z</time>
      </trkpt>
      <trkpt lat="42.93596" lon="1.25123">
        <ele>1247</ele>
        <time>2026-06-23T08:07:04.000Z</time>
      </trkpt>
      <trkpt lat="42.93596" lon="1.25126">
        <ele>1248</ele>
        <time>2026-06-23T08:07:05.000Z</time>
      </trkpt>
      <trkpt lat="42.93596" lon="1.25129">
        <ele>1249</ele>
        <time>2026-06-23T08:07:06.000Z</time>
      </trkpt>
      <trkpt lat="42.93595" lon="1.25132">
        <ele>1250</ele>
        <time>2026-06-23T08:07:07.000Z</time>
      </trkpt>
      <trkpt lat="42.93596" lon="1.25134">
        <ele>1250</ele>
        <time>2026-06-23T08:07:08.000Z</time>
      </trkpt>
      <trkpt lat="42.93597" lon="1.25137">
        <ele>1251</ele>
        <time>2026-06-23T08:07:09.000Z</time>
      </trkpt>
      <trkpt lat="42.93597" lon="1.25141">
        <ele>1251</ele>
        <time>2026-06-23T08:07:10.000Z</time>
      </trkpt>
      <trkpt lat="42.93596" lon="1.25144">
        <ele>1251</ele>
        <time>2026-06-23T08:07:11.000Z</time>
      </trkpt>
      <trkpt lat="42.93596" lon="1.25147">
        <ele>1250</ele>
        <time>2026-06-23T08:07:12.000Z</time>
      </trkpt>
      <trkpt lat="42.93596" lon="1.2515">
        <ele>1250</ele>
        <time>2026-06-23T08:07:13.000Z</time>
      </trkpt>
      <trkpt lat="42.93596" lon="1.25152">
        <ele>1251</ele>
        <time>2026-06-23T08:07:14.000Z</time>
      </trkpt>
      <trkpt lat="42.93595" lon="1.25155">
        <ele>1252</ele>
        <time>2026-06-23T08:07:15.000Z</time>
      </trkpt>
      <trkpt lat="42.93595" lon="1.25159">
        <ele>1253</ele>
        <time>2026-06-23T08:07:16.000Z</time>
      </trkpt>
      <trkpt lat="42.93595" lon="1.25163">
        <ele>1254</ele>
        <time>2026-06-23T08:07:17.000Z</time>
      </trkpt>
      <trkpt lat="42.93595" lon="1.25166">
        <ele>1255</ele>
        <time>2026-06-23T08:07:18.000Z</time>
      </trkpt>
      <trkpt lat="42.93594" lon="1.2517">
        <ele>1255</ele>
        <time>2026-06-23T08:07:19.000Z</time>
      </trkpt>
      <trkpt lat="42.93593" lon="1.25173">
        <ele>1256</ele>
        <time>2026-06-23T08:07:20.000Z</time>
      </trkpt>
      <trkpt lat="42.93593" lon="1.25176">
        <ele>1256</ele>
        <time>2026-06-23T08:07:21.000Z</time>
      </trkpt>
      <trkpt lat="42.93592" lon="1.25179">
        <ele>1256</ele>
        <time>2026-06-23T08:07:22.000Z</time>
      </trkpt>
      <trkpt lat="42.93592" lon="1.25182">
        <ele>1257</ele>
        <time>2026-06-23T08:07:23.000Z</time>
      </trkpt>
      <trkpt lat="42.93591" lon="1.25186">
        <ele>1258</ele>
        <time>2026-06-23T08:07:24.000Z</time>
      </trkpt>
      <trkpt lat="42.93591" lon="1.2519">
        <ele>1259</ele>
        <time>2026-06-23T08:07:25.000Z</time>
      </trkpt>
      <trkpt lat="42.9359" lon="1.25193">
        <ele>1258</ele>
        <time>2026-06-23T08:07:26.000Z</time>
      </trkpt>
      <trkpt lat="42.93589" lon="1.25195">
        <ele>1258</ele>
        <time>2026-06-23T08:07:27.000Z</time>
      </trkpt>
      <trkpt lat="42.93588" lon="1.25197">
        <ele>1258</ele>
        <time>2026-06-23T08:07:28.000Z</time>
      </trkpt>
      <trkpt lat="42.93588" lon="1.25199">
        <ele>1259</ele>
        <time>2026-06-23T08:07:29.000Z</time>
      </trkpt>
      <trkpt lat="42.93587" lon="1.25201">
        <ele>1259</ele>
        <time>2026-06-23T08:07:30.000Z</time>
      </trkpt>
      <trkpt lat="42.93586" lon="1.25203">
        <ele>1259</ele>
        <time>2026-06-23T08:07:31.000Z</time>
      </trkpt>
      <trkpt lat="42.93584" lon="1.25205">
        <ele>1260</ele>
        <time>2026-06-23T08:07:32.000Z</time>
      </trkpt>
      <trkpt lat="42.93583" lon="1.25207">
        <ele>1260</ele>
        <time>2026-06-23T08:07:33.000Z</time>
      </trkpt>
      <trkpt lat="42.93581" lon="1.2521">
        <ele>1260</ele>
        <time>2026-06-23T08:07:34.000Z</time>
      </trkpt>
      <trkpt lat="42.9358" lon="1.25211">
        <ele>1260</ele>
        <time>2026-06-23T08:07:35.000Z</time>
      </trkpt>
      <trkpt lat="42.93579" lon="1.25214">
        <ele>1260</ele>
        <time>2026-06-23T08:07:36.000Z</time>
      </trkpt>
      <trkpt lat="42.93578" lon="1.25216">
        <ele>1260</ele>
        <time>2026-06-23T08:07:37.000Z</time>
      </trkpt>
      <trkpt lat="42.93577" lon="1.25218">
        <ele>1260</ele>
        <time>2026-06-23T08:07:38.000Z</time>
      </trkpt>
      <trkpt lat="42.93575" lon="1.2522">
        <ele>1261</ele>
        <time>2026-06-23T08:07:39.000Z</time>
      </trkpt>
      <trkpt lat="42.93574" lon="1.25223">
        <ele>1262</ele>
        <time>2026-06-23T08:07:40.000Z</time>
      </trkpt>
      <trkpt lat="42.93573" lon="1.25226">
        <ele>1262</ele>
        <time>2026-06-23T08:07:41.000Z</time>
      </trkpt>
      <trkpt lat="42.93572" lon="1.25228">
        <ele>1261</ele>
        <time>2026-06-23T08:07:42.000Z</time>
      </trkpt>
      <trkpt lat="42.93571" lon="1.25229">
        <ele>1261</ele>
        <time>2026-06-23T08:07:43.000Z</time>
      </trkpt>
      <trkpt lat="42.93571" lon="1.25231">
        <ele>1262</ele>
        <time>2026-06-23T08:07:44.000Z</time>
      </trkpt>
      <trkpt lat="42.93569" lon="1.25234">
        <ele>1262</ele>
        <time>2026-06-23T08:07:45.000Z</time>
      </trkpt>
      <trkpt lat="42.93568" lon="1.25237">
        <ele>1262</ele>
        <time>2026-06-23T08:07:46.000Z</time>
      </trkpt>
      <trkpt lat="42.93567" lon="1.2524">
        <ele>1262</ele>
        <time>2026-06-23T08:07:47.000Z</time>
      </trkpt>
      <trkpt lat="42.93565" lon="1.25243">
        <ele>1262</ele>
        <time>2026-06-23T08:07:48.000Z</time>
      </trkpt>
      <trkpt lat="42.93562" lon="1.25246">
        <ele>1261</ele>
        <time>2026-06-23T08:07:49.000Z</time>
      </trkpt>
      <trkpt lat="42.9356" lon="1.25249">
        <ele>1260</ele>
        <time>2026-06-23T08:07:50.000Z</time>
      </trkpt>
      <trkpt lat="42.9356" lon="1.25252">
        <ele>1261</ele>
        <time>2026-06-23T08:07:51.000Z</time>
      </trkpt>
      <trkpt lat="42.93559" lon="1.25254">
        <ele>1260</ele>
        <time>2026-06-23T08:07:52.000Z</time>
      </trkpt>
      <trkpt lat="42.93559" lon="1.25257">
        <ele>1260</ele>
        <time>2026-06-23T08:07:53.000Z</time>
      </trkpt>
      <trkpt lat="42.93558" lon="1.2526">
        <ele>1260</ele>
        <time>2026-06-23T08:07:54.000Z</time>
      </trkpt>
      <trkpt lat="42.93558" lon="1.25263">
        <ele>1261</ele>
        <time>2026-06-23T08:07:55.000Z</time>
      </trkpt>
      <trkpt lat="42.93557" lon="1.25266">
        <ele>1262</ele>
        <time>2026-06-23T08:07:56.000Z</time>
      </trkpt>
      <trkpt lat="42.93557" lon="1.25268">
        <ele>1263</ele>
        <time>2026-06-23T08:07:57.000Z</time>
      </trkpt>
      <trkpt lat="42.93558" lon="1.2527">
        <ele>1264</ele>
        <time>2026-06-23T08:07:58.000Z</time>
      </trkpt>
      <trkpt lat="42.93558" lon="1.25273">
        <ele>1265</ele>
        <time>2026-06-23T08:07:59.000Z</time>
      </trkpt>
      <trkpt lat="42.93558" lon="1.25275">
        <ele>1265</ele>
        <time>2026-06-23T08:08:00.000Z</time>
      </trkpt>
      <trkpt lat="42.93559" lon="1.25278">
        <ele>1266</ele>
        <time>2026-06-23T08:08:01.000Z</time>
      </trkpt>
      <trkpt lat="42.93559" lon="1.25281">
        <ele>1266</ele>
        <time>2026-06-23T08:08:02.000Z</time>
      </trkpt>
      <trkpt lat="42.93558" lon="1.25284">
        <ele>1266</ele>
        <time>2026-06-23T08:08:03.000Z</time>
      </trkpt>
      <trkpt lat="42.93559" lon="1.25287">
        <ele>1266</ele>
        <time>2026-06-23T08:08:04.000Z</time>
      </trkpt>
      <trkpt lat="42.9356" lon="1.25288">
        <ele>1266</ele>
        <time>2026-06-23T08:08:05.000Z</time>
      </trkpt>
      <trkpt lat="42.9356" lon="1.2529">
        <ele>1267</ele>
        <time>2026-06-23T08:08:06.000Z</time>
      </trkpt>
      <trkpt lat="42.93559" lon="1.25294">
        <ele>1268</ele>
        <time>2026-06-23T08:08:07.000Z</time>
      </trkpt>
      <trkpt lat="42.93558" lon="1.25297">
        <ele>1267</ele>
        <time>2026-06-23T08:08:08.000Z</time>
      </trkpt>
      <trkpt lat="42.93558" lon="1.253">
        <ele>1268</ele>
        <time>2026-06-23T08:08:09.000Z</time>
      </trkpt>
      <trkpt lat="42.93557" lon="1.25303">
        <ele>1267</ele>
        <time>2026-06-23T08:08:10.000Z</time>
      </trkpt>
      <trkpt lat="42.93556" lon="1.25306">
        <ele>1268</ele>
        <time>2026-06-23T08:08:11.000Z</time>
      </trkpt>
      <trkpt lat="42.93556" lon="1.2531">
        <ele>1267</ele>
        <time>2026-06-23T08:08:12.000Z</time>
      </trkpt>
      <trkpt lat="42.93555" lon="1.25313">
        <ele>1267</ele>
        <time>2026-06-23T08:08:13.000Z</time>
      </trkpt>
      <trkpt lat="42.93555" lon="1.25315">
        <ele>1268</ele>
        <time>2026-06-23T08:08:14.000Z</time>
      </trkpt>
      <trkpt lat="42.93555" lon="1.25318">
        <ele>1268</ele>
        <time>2026-06-23T08:08:15.000Z</time>
      </trkpt>
      <trkpt lat="42.93555" lon="1.25321">
        <ele>1268</ele>
        <time>2026-06-23T08:08:16.000Z</time>
      </trkpt>
      <trkpt lat="42.93556" lon="1.25323">
        <ele>1268</ele>
        <time>2026-06-23T08:08:17.000Z</time>
      </trkpt>
      <trkpt lat="42.93556" lon="1.25326">
        <ele>1268</ele>
        <time>2026-06-23T08:08:18.000Z</time>
      </trkpt>
      <trkpt lat="42.93556" lon="1.25328">
        <ele>1268</ele>
        <time>2026-06-23T08:08:19.000Z</time>
      </trkpt>
      <trkpt lat="42.93555" lon="1.2533">
        <ele>1269</ele>
        <time>2026-06-23T08:08:20.000Z</time>
      </trkpt>
      <trkpt lat="42.93555" lon="1.25333">
        <ele>1268</ele>
        <time>2026-06-23T08:08:21.000Z</time>
      </trkpt>
      <trkpt lat="42.93554" lon="1.25336">
        <ele>1268</ele>
        <time>2026-06-23T08:08:22.000Z</time>
      </trkpt>
      <trkpt lat="42.93554" lon="1.25339">
        <ele>1268</ele>
        <time>2026-06-23T08:08:23.000Z</time>
      </trkpt>
      <trkpt lat="42.93553" lon="1.25342">
        <ele>1267</ele>
        <time>2026-06-23T08:08:24.000Z</time>
      </trkpt>
      <trkpt lat="42.93552" lon="1.25345">
        <ele>1268</ele>
        <time>2026-06-23T08:08:25.000Z</time>
      </trkpt>
      <trkpt lat="42.93552" lon="1.25349">
        <ele>1268</ele>
        <time>2026-06-23T08:08:26.000Z</time>
      </trkpt>
      <trkpt lat="42.93552" lon="1.25351">
        <ele>1269</ele>
        <time>2026-06-23T08:08:27.000Z</time>
      </trkpt>
      <trkpt lat="42.93551" lon="1.25355">
        <ele>1269</ele>
        <time>2026-06-23T08:08:28.000Z</time>
      </trkpt>
      <trkpt lat="42.9355" lon="1.25358">
        <ele>1269</ele>
        <time>2026-06-23T08:08:29.000Z</time>
      </trkpt>
      <trkpt lat="42.93551" lon="1.25361">
        <ele>1269</ele>
        <time>2026-06-23T08:08:30.000Z</time>
      </trkpt>
      <trkpt lat="42.9355" lon="1.25365">
        <ele>1269</ele>
        <time>2026-06-23T08:08:31.000Z</time>
      </trkpt>
      <trkpt lat="42.9355" lon="1.25368">
        <ele>1269</ele>
        <time>2026-06-23T08:08:32.000Z</time>
      </trkpt>
      <trkpt lat="42.9355" lon="1.2537">
        <ele>1269</ele>
        <time>2026-06-23T08:08:33.000Z</time>
      </trkpt>
      <trkpt lat="42.93549" lon="1.25372">
        <ele>1269</ele>
        <time>2026-06-23T08:08:34.000Z</time>
      </trkpt>
      <trkpt lat="42.93548" lon="1.25375">
        <ele>1268</ele>
        <time>2026-06-23T08:08:35.000Z</time>
      </trkpt>
      <trkpt lat="42.93547" lon="1.25379">
        <ele>1269</ele>
        <time>2026-06-23T08:08:36.000Z</time>
      </trkpt>
      <trkpt lat="42.93547" lon="1.25381">
        <ele>1269</ele>
        <time>2026-06-23T08:08:37.000Z</time>
      </trkpt>
      <trkpt lat="42.93545" lon="1.25384">
        <ele>1269</ele>
        <time>2026-06-23T08:08:38.000Z</time>
      </trkpt>
      <trkpt lat="42.93544" lon="1.25387">
        <ele>1269</ele>
        <time>2026-06-23T08:08:39.000Z</time>
      </trkpt>
      <trkpt lat="42.93544" lon="1.2539">
        <ele>1269</ele>
        <time>2026-06-23T08:08:40.000Z</time>
      </trkpt>
      <trkpt lat="42.93544" lon="1.25393">
        <ele>1269</ele>
        <time>2026-06-23T08:08:41.000Z</time>
      </trkpt>
      <trkpt lat="42.93543" lon="1.25395">
        <ele>1269</ele>
        <time>2026-06-23T08:08:42.000Z</time>
      </trkpt>
      <trkpt lat="42.93543" lon="1.25399">
        <ele>1269</ele>
        <time>2026-06-23T08:08:43.000Z</time>
      </trkpt>
      <trkpt lat="42.93543" lon="1.25402">
        <ele>1269</ele>
        <time>2026-06-23T08:08:44.000Z</time>
      </trkpt>
      <trkpt lat="42.93542" lon="1.25405">
        <ele>1268</ele>
        <time>2026-06-23T08:08:45.000Z</time>
      </trkpt>
      <trkpt lat="42.93541" lon="1.25409">
        <ele>1269</ele>
        <time>2026-06-23T08:08:46.000Z</time>
      </trkpt>
      <trkpt lat="42.93541" lon="1.25411">
        <ele>1268</ele>
        <time>2026-06-23T08:08:47.000Z</time>
      </trkpt>
      <trkpt lat="42.93541" lon="1.25413">
        <ele>1269</ele>
        <time>2026-06-23T08:08:48.000Z</time>
      </trkpt>
      <trkpt lat="42.93541" lon="1.25415">
        <ele>1269</ele>
        <time>2026-06-23T08:08:49.000Z</time>
      </trkpt>
      <trkpt lat="42.93541" lon="1.25419">
        <ele>1269</ele>
        <time>2026-06-23T08:08:50.000Z</time>
      </trkpt>
      <trkpt lat="42.93541" lon="1.25421">
        <ele>1269</ele>
        <time>2026-06-23T08:08:51.000Z</time>
      </trkpt>
      <trkpt lat="42.93541" lon="1.25424">
        <ele>1270</ele>
        <time>2026-06-23T08:08:52.000Z</time>
      </trkpt>
      <trkpt lat="42.93543" lon="1.25427">
        <ele>1271</ele>
        <time>2026-06-23T08:08:53.000Z</time>
      </trkpt>
      <trkpt lat="42.93542" lon="1.25428">
        <ele>1272</ele>
        <time>2026-06-23T08:08:54.000Z</time>
      </trkpt>
      <trkpt lat="42.93542" lon="1.2543">
        <ele>1272</ele>
        <time>2026-06-23T08:08:55.000Z</time>
      </trkpt>
      <trkpt lat="42.93542" lon="1.25431">
        <ele>1272</ele>
        <time>2026-06-23T08:08:56.000Z</time>
      </trkpt>
      <trkpt lat="42.9354" lon="1.25434">
        <ele>1272</ele>
        <time>2026-06-23T08:08:57.000Z</time>
      </trkpt>
      <trkpt lat="42.9354" lon="1.25436">
        <ele>1272</ele>
        <time>2026-06-23T08:08:58.000Z</time>
      </trkpt>
      <trkpt lat="42.9354" lon="1.25439">
        <ele>1273</ele>
        <time>2026-06-23T08:08:59.000Z</time>
      </trkpt>
      <trkpt lat="42.9354" lon="1.2544">
        <ele>1273</ele>
        <time>2026-06-23T08:09:00.000Z</time>
      </trkpt>
      <trkpt lat="42.9354" lon="1.25441">
        <ele>1274</ele>
        <time>2026-06-23T08:09:01.000Z</time>
      </trkpt>
      <trkpt lat="42.9354" lon="1.25443">
        <ele>1274</ele>
        <time>2026-06-23T08:09:02.000Z</time>
      </trkpt>
      <trkpt lat="42.9354" lon="1.25445">
        <ele>1274</ele>
        <time>2026-06-23T08:09:03.000Z</time>
      </trkpt>
      <trkpt lat="42.9354" lon="1.25448">
        <ele>1274</ele>
        <time>2026-06-23T08:09:04.000Z</time>
      </trkpt>
      <trkpt lat="42.9354" lon="1.2545">
        <ele>1275</ele>
        <time>2026-06-23T08:09:05.000Z</time>
      </trkpt>
      <trkpt lat="42.9354" lon="1.25452">
        <ele>1275</ele>
        <time>2026-06-23T08:09:06.000Z</time>
      </trkpt>
      <trkpt lat="42.9354" lon="1.25455">
        <ele>1277</ele>
        <time>2026-06-23T08:09:07.000Z</time>
      </trkpt>
      <trkpt lat="42.93539" lon="1.25458">
        <ele>1277</ele>
        <time>2026-06-23T08:09:08.000Z</time>
      </trkpt>
      <trkpt lat="42.93539" lon="1.2546">
        <ele>1277</ele>
        <time>2026-06-23T08:09:09.000Z</time>
      </trkpt>
      <trkpt lat="42.93537" lon="1.25464">
        <ele>1277</ele>
        <time>2026-06-23T08:09:10.000Z</time>
      </trkpt>
      <trkpt lat="42.93536" lon="1.25467">
        <ele>1279</ele>
        <time>2026-06-23T08:09:11.000Z</time>
      </trkpt>
      <trkpt lat="42.93534" lon="1.2547">
        <ele>1279</ele>
        <time>2026-06-23T08:09:12.000Z</time>
      </trkpt>
      <trkpt lat="42.93534" lon="1.25473">
        <ele>1278</ele>
        <time>2026-06-23T08:09:13.000Z</time>
      </trkpt>
      <trkpt lat="42.93533" lon="1.25475">
        <ele>1278</ele>
        <time>2026-06-23T08:09:14.000Z</time>
      </trkpt>
      <trkpt lat="42.93533" lon="1.25478">
        <ele>1278</ele>
        <time>2026-06-23T08:09:15.000Z</time>
      </trkpt>
      <trkpt lat="42.93532" lon="1.25481">
        <ele>1278</ele>
        <time>2026-06-23T08:09:16.000Z</time>
      </trkpt>
      <trkpt lat="42.93532" lon="1.25484">
        <ele>1278</ele>
        <time>2026-06-23T08:09:17.000Z</time>
      </trkpt>
      <trkpt lat="42.93532" lon="1.25488">
        <ele>1279</ele>
        <time>2026-06-23T08:09:18.000Z</time>
      </trkpt>
      <trkpt lat="42.93531" lon="1.25491">
        <ele>1279</ele>
        <time>2026-06-23T08:09:19.000Z</time>
      </trkpt>
      <trkpt lat="42.9353" lon="1.25494">
        <ele>1279</ele>
        <time>2026-06-23T08:09:20.000Z</time>
      </trkpt>
      <trkpt lat="42.93529" lon="1.25497">
        <ele>1279</ele>
        <time>2026-06-23T08:09:21.000Z</time>
      </trkpt>
      <trkpt lat="42.93528" lon="1.255">
        <ele>1279</ele>
        <time>2026-06-23T08:09:22.000Z</time>
      </trkpt>
      <trkpt lat="42.93528" lon="1.25503">
        <ele>1279</ele>
        <time>2026-06-23T08:09:23.000Z</time>
      </trkpt>
      <trkpt lat="42.93528" lon="1.25506">
        <ele>1279</ele>
        <time>2026-06-23T08:09:24.000Z</time>
      </trkpt>
      <trkpt lat="42.93528" lon="1.2551">
        <ele>1280</ele>
        <time>2026-06-23T08:09:25.000Z</time>
      </trkpt>
      <trkpt lat="42.93527" lon="1.25512">
        <ele>1281</ele>
        <time>2026-06-23T08:09:26.000Z</time>
      </trkpt>
      <trkpt lat="42.93526" lon="1.25515">
        <ele>1281</ele>
        <time>2026-06-23T08:09:27.000Z</time>
      </trkpt>
      <trkpt lat="42.93527" lon="1.25517">
        <ele>1281</ele>
        <time>2026-06-23T08:09:28.000Z</time>
      </trkpt>
      <trkpt lat="42.93527" lon="1.25518">
        <ele>1281</ele>
        <time>2026-06-23T08:09:29.000Z</time>
      </trkpt>
      <trkpt lat="42.93527" lon="1.25521">
        <ele>1281</ele>
        <time>2026-06-23T08:09:30.000Z</time>
      </trkpt>
      <trkpt lat="42.93526" lon="1.25523">
        <ele>1281</ele>
        <time>2026-06-23T08:09:31.000Z</time>
      </trkpt>
      <trkpt lat="42.93525" lon="1.25526">
        <ele>1280</ele>
        <time>2026-06-23T08:09:32.000Z</time>
      </trkpt>
      <trkpt lat="42.93525" lon="1.25528">
        <ele>1281</ele>
        <time>2026-06-23T08:09:33.000Z</time>
      </trkpt>
      <trkpt lat="42.93525" lon="1.2553">
        <ele>1281</ele>
        <time>2026-06-23T08:09:34.000Z</time>
      </trkpt>
      <trkpt lat="42.93525" lon="1.25533">
        <ele>1281</ele>
        <time>2026-06-23T08:09:35.000Z</time>
      </trkpt>
      <trkpt lat="42.93525" lon="1.25535">
        <ele>1280</ele>
        <time>2026-06-23T08:09:36.000Z</time>
      </trkpt>
      <trkpt lat="42.93525" lon="1.25537">
        <ele>1279</ele>
        <time>2026-06-23T08:09:37.000Z</time>
      </trkpt>
      <trkpt lat="42.93525" lon="1.2554">
        <ele>1279</ele>
        <time>2026-06-23T08:09:38.000Z</time>
      </trkpt>
      <trkpt lat="42.93526" lon="1.25542">
        <ele>1278</ele>
        <time>2026-06-23T08:09:39.000Z</time>
      </trkpt>
      <trkpt lat="42.93527" lon="1.25545">
        <ele>1279</ele>
        <time>2026-06-23T08:09:40.000Z</time>
      </trkpt>
      <trkpt lat="42.93527" lon="1.25548">
        <ele>1279</ele>
        <time>2026-06-23T08:09:41.000Z</time>
      </trkpt>
      <trkpt lat="42.93527" lon="1.25551">
        <ele>1279</ele>
        <time>2026-06-23T08:09:42.000Z</time>
      </trkpt>
      <trkpt lat="42.93528" lon="1.25554">
        <ele>1279</ele>
        <time>2026-06-23T08:09:43.000Z</time>
      </trkpt>
      <trkpt lat="42.93528" lon="1.25557">
        <ele>1279</ele>
        <time>2026-06-23T08:09:44.000Z</time>
      </trkpt>
      <trkpt lat="42.93529" lon="1.2556">
        <ele>1278</ele>
        <time>2026-06-23T08:09:45.000Z</time>
      </trkpt>
      <trkpt lat="42.9353" lon="1.25563">
        <ele>1278</ele>
        <time>2026-06-23T08:09:46.000Z</time>
      </trkpt>
      <trkpt lat="42.93531" lon="1.25566">
        <ele>1278</ele>
        <time>2026-06-23T08:09:47.000Z</time>
      </trkpt>
      <trkpt lat="42.93531" lon="1.25569">
        <ele>1277</ele>
        <time>2026-06-23T08:09:48.000Z</time>
      </trkpt>
      <trkpt lat="42.93532" lon="1.25572">
        <ele>1277</ele>
        <time>2026-06-23T08:09:49.000Z</time>
      </trkpt>
      <trkpt lat="42.93532" lon="1.25574">
        <ele>1277</ele>
        <time>2026-06-23T08:09:50.000Z</time>
      </trkpt>
      <trkpt lat="42.93533" lon="1.25577">
        <ele>1277</ele>
        <time>2026-06-23T08:09:51.000Z</time>
      </trkpt>
      <trkpt lat="42.93534" lon="1.2558">
        <ele>1277</ele>
        <time>2026-06-23T08:09:52.000Z</time>
      </trkpt>
      <trkpt lat="42.93534" lon="1.25582">
        <ele>1276</ele>
        <time>2026-06-23T08:09:53.000Z</time>
      </trkpt>
      <trkpt lat="42.93534" lon="1.25586">
        <ele>1276</ele>
        <time>2026-06-23T08:09:54.000Z</time>
      </trkpt>
      <trkpt lat="42.93534" lon="1.2559">
        <ele>1276</ele>
        <time>2026-06-23T08:09:55.000Z</time>
      </trkpt>
      <trkpt lat="42.93534" lon="1.25594">
        <ele>1276</ele>
        <time>2026-06-23T08:09:56.000Z</time>
      </trkpt>
      <trkpt lat="42.93534" lon="1.25597">
        <ele>1275</ele>
        <time>2026-06-23T08:09:57.000Z</time>
      </trkpt>
      <trkpt lat="42.93534" lon="1.25599">
        <ele>1275</ele>
        <time>2026-06-23T08:09:58.000Z</time>
      </trkpt>
      <trkpt lat="42.93533" lon="1.25602">
        <ele>1275</ele>
        <time>2026-06-23T08:09:59.000Z</time>
      </trkpt>
      <trkpt lat="42.93533" lon="1.25604">
        <ele>1275</ele>
        <time>2026-06-23T08:10:00.000Z</time>
      </trkpt>
      <trkpt lat="42.93533" lon="1.25606">
        <ele>1274</ele>
        <time>2026-06-23T08:10:01.000Z</time>
      </trkpt>
      <trkpt lat="42.93534" lon="1.25611">
        <ele>1277</ele>
        <time>2026-06-23T08:10:02.000Z</time>
      </trkpt>
      <trkpt lat="42.93534" lon="1.25613">
        <ele>1277</ele>
        <time>2026-06-23T08:10:03.000Z</time>
      </trkpt>
      <trkpt lat="42.93534" lon="1.25616">
        <ele>1277</ele>
        <time>2026-06-23T08:10:04.000Z</time>
      </trkpt>
      <trkpt lat="42.93535" lon="1.2562">
        <ele>1278</ele>
        <time>2026-06-23T08:10:05.000Z</time>
      </trkpt>
      <trkpt lat="42.93534" lon="1.25623">
        <ele>1277</ele>
        <time>2026-06-23T08:10:06.000Z</time>
      </trkpt>
      <trkpt lat="42.93534" lon="1.25625">
        <ele>1276</ele>
        <time>2026-06-23T08:10:07.000Z</time>
      </trkpt>
      <trkpt lat="42.93533" lon="1.25629">
        <ele>1277</ele>
        <time>2026-06-23T08:10:08.000Z</time>
      </trkpt>
      <trkpt lat="42.93533" lon="1.25632">
        <ele>1277</ele>
        <time>2026-06-23T08:10:09.000Z</time>
      </trkpt>
      <trkpt lat="42.93533" lon="1.25635">
        <ele>1277</ele>
        <time>2026-06-23T08:10:10.000Z</time>
      </trkpt>
      <trkpt lat="42.93534" lon="1.25639">
        <ele>1277</ele>
        <time>2026-06-23T08:10:11.000Z</time>
      </trkpt>
      <trkpt lat="42.93534" lon="1.25641">
        <ele>1277</ele>
        <time>2026-06-23T08:10:12.000Z</time>
      </trkpt>
      <trkpt lat="42.93535" lon="1.25644">
        <ele>1278</ele>
        <time>2026-06-23T08:10:13.000Z</time>
      </trkpt>
      <trkpt lat="42.93535" lon="1.25647">
        <ele>1278</ele>
        <time>2026-06-23T08:10:14.000Z</time>
      </trkpt>
      <trkpt lat="42.93535" lon="1.2565">
        <ele>1277</ele>
        <time>2026-06-23T08:10:15.000Z</time>
      </trkpt>
      <trkpt lat="42.93536" lon="1.25651">
        <ele>1277</ele>
        <time>2026-06-23T08:10:16.000Z</time>
      </trkpt>
      <trkpt lat="42.93535" lon="1.25654">
        <ele>1278</ele>
        <time>2026-06-23T08:10:17.000Z</time>
      </trkpt>
      <trkpt lat="42.93534" lon="1.25656">
        <ele>1278</ele>
        <time>2026-06-23T08:10:18.000Z</time>
      </trkpt>
      <trkpt lat="42.93534" lon="1.25658">
        <ele>1278</ele>
        <time>2026-06-23T08:10:19.000Z</time>
      </trkpt>
      <trkpt lat="42.93535" lon="1.2566">
        <ele>1278</ele>
        <time>2026-06-23T08:10:20.000Z</time>
      </trkpt>
      <trkpt lat="42.93535" lon="1.25663">
        <ele>1278</ele>
        <time>2026-06-23T08:10:21.000Z</time>
      </trkpt>
      <trkpt lat="42.93535" lon="1.25665">
        <ele>1278</ele>
        <time>2026-06-23T08:10:22.000Z</time>
      </trkpt>
      <trkpt lat="42.93535" lon="1.25668">
        <ele>1278</ele>
        <time>2026-06-23T08:10:23.000Z</time>
      </trkpt>
      <trkpt lat="42.93536" lon="1.25669">
        <ele>1278</ele>
        <time>2026-06-23T08:10:24.000Z</time>
      </trkpt>
      <trkpt lat="42.93536" lon="1.25672">
        <ele>1277</ele>
        <time>2026-06-23T08:10:25.000Z</time>
      </trkpt>
      <trkpt lat="42.93536" lon="1.25674">
        <ele>1277</ele>
        <time>2026-06-23T08:10:26.000Z</time>
      </trkpt>
      <trkpt lat="42.93536" lon="1.25675">
        <ele>1277</ele>
        <time>2026-06-23T08:10:27.000Z</time>
      </trkpt>
      <trkpt lat="42.93536" lon="1.25677">
        <ele>1278</ele>
        <time>2026-06-23T08:10:28.000Z</time>
      </trkpt>
      <trkpt lat="42.93536" lon="1.2568">
        <ele>1277</ele>
        <time>2026-06-23T08:10:29.000Z</time>
      </trkpt>
      <trkpt lat="42.93536" lon="1.25684">
        <ele>1277</ele>
        <time>2026-06-23T08:10:30.000Z</time>
      </trkpt>
      <trkpt lat="42.93536" lon="1.25686">
        <ele>1277</ele>
        <time>2026-06-23T08:10:31.000Z</time>
      </trkpt>
      <trkpt lat="42.93536" lon="1.25689">
        <ele>1277</ele>
        <time>2026-06-23T08:10:32.000Z</time>
      </trkpt>
      <trkpt lat="42.93536" lon="1.2569">
        <ele>1277</ele>
        <time>2026-06-23T08:10:33.000Z</time>
      </trkpt>
      <trkpt lat="42.93536" lon="1.25694">
        <ele>1277</ele>
        <time>2026-06-23T08:10:34.000Z</time>
      </trkpt>
      <trkpt lat="42.93538" lon="1.25697">
        <ele>1277</ele>
        <time>2026-06-23T08:10:35.000Z</time>
      </trkpt>
      <trkpt lat="42.93538" lon="1.25699">
        <ele>1277</ele>
        <time>2026-06-23T08:10:36.000Z</time>
      </trkpt>
      <trkpt lat="42.93539" lon="1.257">
        <ele>1277</ele>
        <time>2026-06-23T08:10:37.000Z</time>
      </trkpt>
      <trkpt lat="42.93539" lon="1.25702">
        <ele>1277</ele>
        <time>2026-06-23T08:10:38.000Z</time>
      </trkpt>
      <trkpt lat="42.93538" lon="1.25703">
        <ele>1277</ele>
        <time>2026-06-23T08:10:39.000Z</time>
      </trkpt>
      <trkpt lat="42.93538" lon="1.25705">
        <ele>1277</ele>
        <time>2026-06-23T08:10:40.000Z</time>
      </trkpt>
      <trkpt lat="42.93537" lon="1.25706">
        <ele>1277</ele>
        <time>2026-06-23T08:10:41.000Z</time>
      </trkpt>
      <trkpt lat="42.93538" lon="1.25709">
        <ele>1277</ele>
        <time>2026-06-23T08:10:42.000Z</time>
      </trkpt>
      <trkpt lat="42.93539" lon="1.2571">
        <ele>1277</ele>
        <time>2026-06-23T08:10:43.000Z</time>
      </trkpt>
      <trkpt lat="42.9354" lon="1.25712">
        <ele>1277</ele>
        <time>2026-06-23T08:10:44.000Z</time>
      </trkpt>
      <trkpt lat="42.93543" lon="1.25715">
        <ele>1278</ele>
        <time>2026-06-23T08:10:45.000Z</time>
      </trkpt>
      <trkpt lat="42.93543" lon="1.25716">
        <ele>1279</ele>
        <time>2026-06-23T08:10:46.000Z</time>
      </trkpt>
      <trkpt lat="42.93545" lon="1.25719">
        <ele>1279</ele>
        <time>2026-06-23T08:10:47.000Z</time>
      </trkpt>
      <trkpt lat="42.93546" lon="1.25722">
        <ele>1279</ele>
        <time>2026-06-23T08:10:48.000Z</time>
      </trkpt>
      <trkpt lat="42.93546" lon="1.25724">
        <ele>1280</ele>
        <time>2026-06-23T08:10:49.000Z</time>
      </trkpt>
      <trkpt lat="42.93547" lon="1.25724">
        <ele>1280</ele>
        <time>2026-06-23T08:10:50.000Z</time>
      </trkpt>
      <trkpt lat="42.93551" lon="1.25727">
        <ele>1281</ele>
        <time>2026-06-23T08:10:51.000Z</time>
      </trkpt>
      <trkpt lat="42.93553" lon="1.2573">
        <ele>1281</ele>
        <time>2026-06-23T08:10:52.000Z</time>
      </trkpt>
      <trkpt lat="42.93554" lon="1.25732">
        <ele>1281</ele>
        <time>2026-06-23T08:10:53.000Z</time>
      </trkpt>
      <trkpt lat="42.93556" lon="1.25734">
        <ele>1281</ele>
        <time>2026-06-23T08:10:54.000Z</time>
      </trkpt>
      <trkpt lat="42.93558" lon="1.25735">
        <ele>1281</ele>
        <time>2026-06-23T08:10:55.000Z</time>
      </trkpt>
      <trkpt lat="42.93561" lon="1.25738">
        <ele>1282</ele>
        <time>2026-06-23T08:10:56.000Z</time>
      </trkpt>
      <trkpt lat="42.93563" lon="1.2574">
        <ele>1281</ele>
        <time>2026-06-23T08:10:57.000Z</time>
      </trkpt>
      <trkpt lat="42.93565" lon="1.25745">
        <ele>1283</ele>
        <time>2026-06-23T08:10:58.000Z</time>
      </trkpt>
      <trkpt lat="42.93566" lon="1.25747">
        <ele>1283</ele>
        <time>2026-06-23T08:10:59.000Z</time>
      </trkpt>
      <trkpt lat="42.93568" lon="1.25749">
        <ele>1284</ele>
        <time>2026-06-23T08:11:00.000Z</time>
      </trkpt>
      <trkpt lat="42.93569" lon="1.25753">
        <ele>1284</ele>
        <time>2026-06-23T08:11:01.000Z</time>
      </trkpt>
      <trkpt lat="42.93569" lon="1.25756">
        <ele>1285</ele>
        <time>2026-06-23T08:11:02.000Z</time>
      </trkpt>
      <trkpt lat="42.93571" lon="1.2576">
        <ele>1286</ele>
        <time>2026-06-23T08:11:03.000Z</time>
      </trkpt>
      <trkpt lat="42.93573" lon="1.25763">
        <ele>1286</ele>
        <time>2026-06-23T08:11:04.000Z</time>
      </trkpt>
      <trkpt lat="42.93574" lon="1.25765">
        <ele>1286</ele>
        <time>2026-06-23T08:11:05.000Z</time>
      </trkpt>
      <trkpt lat="42.93575" lon="1.25768">
        <ele>1286</ele>
        <time>2026-06-23T08:11:06.000Z</time>
      </trkpt>
      <trkpt lat="42.93575" lon="1.2577">
        <ele>1286</ele>
        <time>2026-06-23T08:11:07.000Z</time>
      </trkpt>
      <trkpt lat="42.93576" lon="1.25772">
        <ele>1286</ele>
        <time>2026-06-23T08:11:08.000Z</time>
      </trkpt>
      <trkpt lat="42.93577" lon="1.25775">
        <ele>1287</ele>
        <time>2026-06-23T08:11:09.000Z</time>
      </trkpt>
      <trkpt lat="42.93578" lon="1.25777">
        <ele>1287</ele>
        <time>2026-06-23T08:11:10.000Z</time>
      </trkpt>
      <trkpt lat="42.9358" lon="1.2578">
        <ele>1288</ele>
        <time>2026-06-23T08:11:11.000Z</time>
      </trkpt>
      <trkpt lat="42.9358" lon="1.25783">
        <ele>1287</ele>
        <time>2026-06-23T08:11:12.000Z</time>
      </trkpt>
      <trkpt lat="42.9358" lon="1.25785">
        <ele>1287</ele>
        <time>2026-06-23T08:11:13.000Z</time>
      </trkpt>
      <trkpt lat="42.93581" lon="1.25787">
        <ele>1288</ele>
        <time>2026-06-23T08:11:14.000Z</time>
      </trkpt>
      <trkpt lat="42.9358" lon="1.25789">
        <ele>1287</ele>
        <time>2026-06-23T08:11:15.000Z</time>
      </trkpt>
      <trkpt lat="42.93579" lon="1.25791">
        <ele>1287</ele>
        <time>2026-06-23T08:11:16.000Z</time>
      </trkpt>
      <trkpt lat="42.9358" lon="1.25794">
        <ele>1288</ele>
        <time>2026-06-23T08:11:17.000Z</time>
      </trkpt>
      <trkpt lat="42.9358" lon="1.25796">
        <ele>1288</ele>
        <time>2026-06-23T08:11:18.000Z</time>
      </trkpt>
      <trkpt lat="42.93581" lon="1.25799">
        <ele>1288</ele>
        <time>2026-06-23T08:11:19.000Z</time>
      </trkpt>
      <trkpt lat="42.93582" lon="1.25802">
        <ele>1288</ele>
        <time>2026-06-23T08:11:20.000Z</time>
      </trkpt>
      <trkpt lat="42.93582" lon="1.25804">
        <ele>1288</ele>
        <time>2026-06-23T08:11:21.000Z</time>
      </trkpt>
      <trkpt lat="42.93583" lon="1.25807">
        <ele>1289</ele>
        <time>2026-06-23T08:11:22.000Z</time>
      </trkpt>
      <trkpt lat="42.93583" lon="1.25808">
        <ele>1289</ele>
        <time>2026-06-23T08:11:23.000Z</time>
      </trkpt>
      <trkpt lat="42.93584" lon="1.2581">
        <ele>1288</ele>
        <time>2026-06-23T08:11:24.000Z</time>
      </trkpt>
      <trkpt lat="42.93584" lon="1.25811">
        <ele>1287</ele>
        <time>2026-06-23T08:11:25.000Z</time>
      </trkpt>
      <trkpt lat="42.93585" lon="1.25814">
        <ele>1287</ele>
        <time>2026-06-23T08:11:26.000Z</time>
      </trkpt>
      <trkpt lat="42.93587" lon="1.25816">
        <ele>1286</ele>
        <time>2026-06-23T08:11:27.000Z</time>
      </trkpt>
      <trkpt lat="42.93588" lon="1.25819">
        <ele>1286</ele>
        <time>2026-06-23T08:11:28.000Z</time>
      </trkpt>
      <trkpt lat="42.93589" lon="1.25821">
        <ele>1286</ele>
        <time>2026-06-23T08:11:29.000Z</time>
      </trkpt>
      <trkpt lat="42.9359" lon="1.25825">
        <ele>1287</ele>
        <time>2026-06-23T08:11:30.000Z</time>
      </trkpt>
      <trkpt lat="42.93592" lon="1.25829">
        <ele>1286</ele>
        <time>2026-06-23T08:11:31.000Z</time>
      </trkpt>
      <trkpt lat="42.93593" lon="1.25831">
        <ele>1286</ele>
        <time>2026-06-23T08:11:32.000Z</time>
      </trkpt>
      <trkpt lat="42.93595" lon="1.25833">
        <ele>1286</ele>
        <time>2026-06-23T08:11:33.000Z</time>
      </trkpt>
      <trkpt lat="42.93599" lon="1.25837">
        <ele>1287</ele>
        <time>2026-06-23T08:11:34.000Z</time>
      </trkpt>
      <trkpt lat="42.93601" lon="1.25841">
        <ele>1288</ele>
        <time>2026-06-23T08:11:35.000Z</time>
      </trkpt>
      <trkpt lat="42.93603" lon="1.25844">
        <ele>1288</ele>
        <time>2026-06-23T08:11:36.000Z</time>
      </trkpt>
      <trkpt lat="42.93604" lon="1.25846">
        <ele>1288</ele>
        <time>2026-06-23T08:11:37.000Z</time>
      </trkpt>
      <trkpt lat="42.93607" lon="1.25848">
        <ele>1288</ele>
        <time>2026-06-23T08:11:38.000Z</time>
      </trkpt>
      <trkpt lat="42.93609" lon="1.2585">
        <ele>1287</ele>
        <time>2026-06-23T08:11:39.000Z</time>
      </trkpt>
      <trkpt lat="42.93611" lon="1.25851">
        <ele>1287</ele>
        <time>2026-06-23T08:11:40.000Z</time>
      </trkpt>
      <trkpt lat="42.93613" lon="1.25853">
        <ele>1287</ele>
        <time>2026-06-23T08:11:41.000Z</time>
      </trkpt>
      <trkpt lat="42.93615" lon="1.25854">
        <ele>1288</ele>
        <time>2026-06-23T08:11:42.000Z</time>
      </trkpt>
      <trkpt lat="42.93616" lon="1.25855">
        <ele>1288</ele>
        <time>2026-06-23T08:11:43.000Z</time>
      </trkpt>
      <trkpt lat="42.93618" lon="1.25856">
        <ele>1288</ele>
        <time>2026-06-23T08:11:44.000Z</time>
      </trkpt>
      <trkpt lat="42.93619" lon="1.25857">
        <ele>1287</ele>
        <time>2026-06-23T08:11:45.000Z</time>
      </trkpt>
      <trkpt lat="42.9362" lon="1.25858">
        <ele>1287</ele>
        <time>2026-06-23T08:11:46.000Z</time>
      </trkpt>
      <trkpt lat="42.93621" lon="1.25862">
        <ele>1287</ele>
        <time>2026-06-23T08:11:47.000Z</time>
      </trkpt>
      <trkpt lat="42.93623" lon="1.25863">
        <ele>1287</ele>
        <time>2026-06-23T08:11:48.000Z</time>
      </trkpt>
      <trkpt lat="42.93624" lon="1.25866">
        <ele>1287</ele>
        <time>2026-06-23T08:11:49.000Z</time>
      </trkpt>
      <trkpt lat="42.93627" lon="1.25868">
        <ele>1287</ele>
        <time>2026-06-23T08:11:50.000Z</time>
      </trkpt>
      <trkpt lat="42.9363" lon="1.2587">
        <ele>1287</ele>
        <time>2026-06-23T08:11:51.000Z</time>
      </trkpt>
      <trkpt lat="42.93631" lon="1.2587">
        <ele>1287</ele>
        <time>2026-06-23T08:11:52.000Z</time>
      </trkpt>
      <trkpt lat="42.93633" lon="1.25871">
        <ele>1288</ele>
        <time>2026-06-23T08:11:53.000Z</time>
      </trkpt>
      <trkpt lat="42.93634" lon="1.25873">
        <ele>1288</ele>
        <time>2026-06-23T08:11:54.000Z</time>
      </trkpt>
      <trkpt lat="42.93636" lon="1.25875">
        <ele>1288</ele>
        <time>2026-06-23T08:11:55.000Z</time>
      </trkpt>
      <trkpt lat="42.93637" lon="1.25877">
        <ele>1290</ele>
        <time>2026-06-23T08:11:56.000Z</time>
      </trkpt>
      <trkpt lat="42.93638" lon="1.25879">
        <ele>1290</ele>
        <time>2026-06-23T08:11:57.000Z</time>
      </trkpt>
      <trkpt lat="42.9364" lon="1.25881">
        <ele>1290</ele>
        <time>2026-06-23T08:11:58.000Z</time>
      </trkpt>
      <trkpt lat="42.93641" lon="1.25883">
        <ele>1290</ele>
        <time>2026-06-23T08:11:59.000Z</time>
      </trkpt>
      <trkpt lat="42.93642" lon="1.25885">
        <ele>1290</ele>
        <time>2026-06-23T08:12:00.000Z</time>
      </trkpt>
      <trkpt lat="42.93643" lon="1.25888">
        <ele>1291</ele>
        <time>2026-06-23T08:12:01.000Z</time>
      </trkpt>
      <trkpt lat="42.93644" lon="1.2589">
        <ele>1291</ele>
        <time>2026-06-23T08:12:02.000Z</time>
      </trkpt>
      <trkpt lat="42.93646" lon="1.25892">
        <ele>1291</ele>
        <time>2026-06-23T08:12:03.000Z</time>
      </trkpt>
      <trkpt lat="42.93647" lon="1.25895">
        <ele>1291</ele>
        <time>2026-06-23T08:12:04.000Z</time>
      </trkpt>
      <trkpt lat="42.93649" lon="1.25897">
        <ele>1291</ele>
        <time>2026-06-23T08:12:05.000Z</time>
      </trkpt>
      <trkpt lat="42.9365" lon="1.25899">
        <ele>1291</ele>
        <time>2026-06-23T08:12:06.000Z</time>
      </trkpt>
      <trkpt lat="42.93651" lon="1.25902">
        <ele>1292</ele>
        <time>2026-06-23T08:12:07.000Z</time>
      </trkpt>
      <trkpt lat="42.93653" lon="1.25905">
        <ele>1292</ele>
        <time>2026-06-23T08:12:08.000Z</time>
      </trkpt>
      <trkpt lat="42.93654" lon="1.25908">
        <ele>1292</ele>
        <time>2026-06-23T08:12:09.000Z</time>
      </trkpt>
      <trkpt lat="42.93656" lon="1.25909">
        <ele>1292</ele>
        <time>2026-06-23T08:12:10.000Z</time>
      </trkpt>
      <trkpt lat="42.93656" lon="1.2591">
        <ele>1292</ele>
        <time>2026-06-23T08:12:11.000Z</time>
      </trkpt>
      <trkpt lat="42.93657" lon="1.25911">
        <ele>1292</ele>
        <time>2026-06-23T08:12:12.000Z</time>
      </trkpt>
      <trkpt lat="42.93657" lon="1.25911">
        <ele>1293</ele>
        <time>2026-06-23T08:12:13.000Z</time>
      </trkpt>
      <trkpt lat="42.93657" lon="1.25911">
        <ele>1294</ele>
        <time>2026-06-23T08:12:14.000Z</time>
      </trkpt>
      <trkpt lat="42.93657" lon="1.2591">
        <ele>1294</ele>
        <time>2026-06-23T08:12:15.000Z</time>
      </trkpt>
      <trkpt lat="42.93657" lon="1.2591">
        <ele>1295</ele>
        <time>2026-06-23T08:12:16.000Z</time>
      </trkpt>
      <trkpt lat="42.93657" lon="1.25909">
        <ele>1296</ele>
        <time>2026-06-23T08:12:17.000Z</time>
      </trkpt>
      <trkpt lat="42.93657" lon="1.25909">
        <ele>1297</ele>
        <time>2026-06-23T08:12:18.000Z</time>
      </trkpt>
      <trkpt lat="42.93657" lon="1.25909">
        <ele>1297</ele>
        <time>2026-06-23T08:12:19.000Z</time>
      </trkpt>
      <trkpt lat="42.93656" lon="1.25909">
        <ele>1297</ele>
        <time>2026-06-23T08:12:20.000Z</time>
      </trkpt>
      <trkpt lat="42.93657" lon="1.25908">
        <ele>1298</ele>
        <time>2026-06-23T08:12:21.000Z</time>
      </trkpt>
      <trkpt lat="42.93657" lon="1.25907">
        <ele>1297</ele>
        <time>2026-06-23T08:12:22.000Z</time>
      </trkpt>
      <trkpt lat="42.93657" lon="1.25906">
        <ele>1298</ele>
        <time>2026-06-23T08:12:23.000Z</time>
      </trkpt>
      <trkpt lat="42.93656" lon="1.25907">
        <ele>1298</ele>
        <time>2026-06-23T08:12:24.000Z</time>
      </trkpt>
      <trkpt lat="42.93656" lon="1.25906">
        <ele>1299</ele>
        <time>2026-06-23T08:12:25.000Z</time>
      </trkpt>
      <trkpt lat="42.93655" lon="1.25906">
        <ele>1299</ele>
        <time>2026-06-23T08:12:26.000Z</time>
      </trkpt>
      <trkpt lat="42.93654" lon="1.25906">
        <ele>1300</ele>
        <time>2026-06-23T08:12:27.000Z</time>
      </trkpt>
      <trkpt lat="42.93653" lon="1.25905">
        <ele>1301</ele>
        <time>2026-06-23T08:12:28.000Z</time>
      </trkpt>
      <trkpt lat="42.93653" lon="1.25903">
        <ele>1302</ele>
        <time>2026-06-23T08:12:29.000Z</time>
      </trkpt>
      <trkpt lat="42.93652" lon="1.25902">
        <ele>1303</ele>
        <time>2026-06-23T08:12:30.000Z</time>
      </trkpt>
      <trkpt lat="42.93652" lon="1.25901">
        <ele>1303</ele>
        <time>2026-06-23T08:12:31.000Z</time>
      </trkpt>
      <trkpt lat="42.9365" lon="1.25901">
        <ele>1303</ele>
        <time>2026-06-23T08:12:32.000Z</time>
      </trkpt>
      <trkpt lat="42.93649" lon="1.259">
        <ele>1303</ele>
        <time>2026-06-23T08:12:33.000Z</time>
      </trkpt>
      <trkpt lat="42.93648" lon="1.259">
        <ele>1303</ele>
        <time>2026-06-23T08:12:34.000Z</time>
      </trkpt>
      <trkpt lat="42.93646" lon="1.259">
        <ele>1303</ele>
        <time>2026-06-23T08:12:35.000Z</time>
      </trkpt>
      <trkpt lat="42.93645" lon="1.25899">
        <ele>1303</ele>
        <time>2026-06-23T08:12:36.000Z</time>
      </trkpt>
      <trkpt lat="42.93645" lon="1.25897">
        <ele>1304</ele>
        <time>2026-06-23T08:12:37.000Z</time>
      </trkpt>
      <trkpt lat="42.93645" lon="1.25896">
        <ele>1303</ele>
        <time>2026-06-23T08:12:38.000Z</time>
      </trkpt>
      <trkpt lat="42.93644" lon="1.25895">
        <ele>1303</ele>
        <time>2026-06-23T08:12:39.000Z</time>
      </trkpt>
      <trkpt lat="42.93643" lon="1.25893">
        <ele>1304</ele>
        <time>2026-06-23T08:12:40.000Z</time>
      </trkpt>
      <trkpt lat="42.93643" lon="1.25891">
        <ele>1304</ele>
        <time>2026-06-23T08:12:41.000Z</time>
      </trkpt>
      <trkpt lat="42.93642" lon="1.2589">
        <ele>1304</ele>
        <time>2026-06-23T08:12:42.000Z</time>
      </trkpt>
      <trkpt lat="42.93641" lon="1.25889">
        <ele>1304</ele>
        <time>2026-06-23T08:12:43.000Z</time>
      </trkpt>
      <trkpt lat="42.9364" lon="1.25887">
        <ele>1303</ele>
        <time>2026-06-23T08:12:44.000Z</time>
      </trkpt>
      <trkpt lat="42.93639" lon="1.25885">
        <ele>1304</ele>
        <time>2026-06-23T08:12:45.000Z</time>
      </trkpt>
      <trkpt lat="42.93638" lon="1.25884">
        <ele>1304</ele>
        <time>2026-06-23T08:12:46.000Z</time>
      </trkpt>
      <trkpt lat="42.93637" lon="1.25882">
        <ele>1304</ele>
        <time>2026-06-23T08:12:47.000Z</time>
      </trkpt>
      <trkpt lat="42.93637" lon="1.2588">
        <ele>1304</ele>
        <time>2026-06-23T08:12:48.000Z</time>
      </trkpt>
      <trkpt lat="42.93636" lon="1.25878">
        <ele>1304</ele>
        <time>2026-06-23T08:12:49.000Z</time>
      </trkpt>
      <trkpt lat="42.93635" lon="1.25876">
        <ele>1304</ele>
        <time>2026-06-23T08:12:50.000Z</time>
      </trkpt>
      <trkpt lat="42.93633" lon="1.25875">
        <ele>1304</ele>
        <time>2026-06-23T08:12:51.000Z</time>
      </trkpt>
      <trkpt lat="42.93633" lon="1.25872">
        <ele>1305</ele>
        <time>2026-06-23T08:12:52.000Z</time>
      </trkpt>
      <trkpt lat="42.93632" lon="1.2587">
        <ele>1305</ele>
        <time>2026-06-23T08:12:53.000Z</time>
      </trkpt>
      <trkpt lat="42.93631" lon="1.25867">
        <ele>1305</ele>
        <time>2026-06-23T08:12:54.000Z</time>
      </trkpt>
      <trkpt lat="42.93629" lon="1.25865">
        <ele>1306</ele>
        <time>2026-06-23T08:12:55.000Z</time>
      </trkpt>
      <trkpt lat="42.93629" lon="1.25861">
        <ele>1307</ele>
        <time>2026-06-23T08:12:56.000Z</time>
      </trkpt>
      <trkpt lat="42.93628" lon="1.25859">
        <ele>1306</ele>
        <time>2026-06-23T08:12:57.000Z</time>
      </trkpt>
      <trkpt lat="42.93627" lon="1.25855">
        <ele>1307</ele>
        <time>2026-06-23T08:12:58.000Z</time>
      </trkpt>
      <trkpt lat="42.93626" lon="1.25852">
        <ele>1307</ele>
        <time>2026-06-23T08:12:59.000Z</time>
      </trkpt>
      <trkpt lat="42.93624" lon="1.25849">
        <ele>1308</ele>
        <time>2026-06-23T08:13:00.000Z</time>
      </trkpt>
      <trkpt lat="42.93623" lon="1.25845">
        <ele>1308</ele>
        <time>2026-06-23T08:13:01.000Z</time>
      </trkpt>
      <trkpt lat="42.93622" lon="1.25841">
        <ele>1308</ele>
        <time>2026-06-23T08:13:02.000Z</time>
      </trkpt>
      <trkpt lat="42.9362" lon="1.25838">
        <ele>1309</ele>
        <time>2026-06-23T08:13:03.000Z</time>
      </trkpt>
      <trkpt lat="42.93619" lon="1.25834">
        <ele>1310</ele>
        <time>2026-06-23T08:13:04.000Z</time>
      </trkpt>
      <trkpt lat="42.93618" lon="1.2583">
        <ele>1310</ele>
        <time>2026-06-23T08:13:05.000Z</time>
      </trkpt>
      <trkpt lat="42.93616" lon="1.25826">
        <ele>1311</ele>
        <time>2026-06-23T08:13:06.000Z</time>
      </trkpt>
      <trkpt lat="42.93615" lon="1.25823">
        <ele>1311</ele>
        <time>2026-06-23T08:13:07.000Z</time>
      </trkpt>
      <trkpt lat="42.93614" lon="1.2582">
        <ele>1311</ele>
        <time>2026-06-23T08:13:08.000Z</time>
      </trkpt>
      <trkpt lat="42.93613" lon="1.25816">
        <ele>1311</ele>
        <time>2026-06-23T08:13:09.000Z</time>
      </trkpt>
      <trkpt lat="42.93612" lon="1.25813">
        <ele>1311</ele>
        <time>2026-06-23T08:13:10.000Z</time>
      </trkpt>
      <trkpt lat="42.93611" lon="1.2581">
        <ele>1312</ele>
        <time>2026-06-23T08:13:11.000Z</time>
      </trkpt>
      <trkpt lat="42.9361" lon="1.25808">
        <ele>1312</ele>
        <time>2026-06-23T08:13:12.000Z</time>
      </trkpt>
      <trkpt lat="42.93609" lon="1.25805">
        <ele>1313</ele>
        <time>2026-06-23T08:13:13.000Z</time>
      </trkpt>
      <trkpt lat="42.93607" lon="1.25802">
        <ele>1314</ele>
        <time>2026-06-23T08:13:14.000Z</time>
      </trkpt>
      <trkpt lat="42.93606" lon="1.25799">
        <ele>1314</ele>
        <time>2026-06-23T08:13:15.000Z</time>
      </trkpt>
      <trkpt lat="42.93603" lon="1.25798">
        <ele>1315</ele>
        <time>2026-06-23T08:13:16.000Z</time>
      </trkpt>
      <trkpt lat="42.93602" lon="1.25794">
        <ele>1315</ele>
        <time>2026-06-23T08:13:17.000Z</time>
      </trkpt>
      <trkpt lat="42.93599" lon="1.25792">
        <ele>1315</ele>
        <time>2026-06-23T08:13:18.000Z</time>
      </trkpt>
      <trkpt lat="42.93597" lon="1.2579">
        <ele>1315</ele>
        <time>2026-06-23T08:13:19.000Z</time>
      </trkpt>
      <trkpt lat="42.93594" lon="1.25788">
        <ele>1315</ele>
        <time>2026-06-23T08:13:20.000Z</time>
      </trkpt>
      <trkpt lat="42.93592" lon="1.25785">
        <ele>1315</ele>
        <time>2026-06-23T08:13:21.000Z</time>
      </trkpt>
      <trkpt lat="42.9359" lon="1.25782">
        <ele>1315</ele>
        <time>2026-06-23T08:13:22.000Z</time>
      </trkpt>
      <trkpt lat="42.93588" lon="1.25779">
        <ele>1316</ele>
        <time>2026-06-23T08:13:23.000Z</time>
      </trkpt>
      <trkpt lat="42.93585" lon="1.25776">
        <ele>1316</ele>
        <time>2026-06-23T08:13:24.000Z</time>
      </trkpt>
      <trkpt lat="42.93583" lon="1.25773">
        <ele>1316</ele>
        <time>2026-06-23T08:13:25.000Z</time>
      </trkpt>
      <trkpt lat="42.93581" lon="1.25771">
        <ele>1316</ele>
        <time>2026-06-23T08:13:26.000Z</time>
      </trkpt>
      <trkpt lat="42.93579" lon="1.25769">
        <ele>1316</ele>
        <time>2026-06-23T08:13:27.000Z</time>
      </trkpt>
      <trkpt lat="42.93579" lon="1.25767">
        <ele>1316</ele>
        <time>2026-06-23T08:13:28.000Z</time>
      </trkpt>
      <trkpt lat="42.93578" lon="1.25766">
        <ele>1317</ele>
        <time>2026-06-23T08:13:29.000Z</time>
      </trkpt>
      <trkpt lat="42.93576" lon="1.25763">
        <ele>1317</ele>
        <time>2026-06-23T08:13:30.000Z</time>
      </trkpt>
      <trkpt lat="42.93576" lon="1.2576">
        <ele>1316</ele>
        <time>2026-06-23T08:13:31.000Z</time>
      </trkpt>
      <trkpt lat="42.93575" lon="1.25758">
        <ele>1316</ele>
        <time>2026-06-23T08:13:32.000Z</time>
      </trkpt>
      <trkpt lat="42.93575" lon="1.25756">
        <ele>1316</ele>
        <time>2026-06-23T08:13:33.000Z</time>
      </trkpt>
      <trkpt lat="42.93573" lon="1.25753">
        <ele>1316</ele>
        <time>2026-06-23T08:13:34.000Z</time>
      </trkpt>
      <trkpt lat="42.93573" lon="1.25751">
        <ele>1317</ele>
        <time>2026-06-23T08:13:35.000Z</time>
      </trkpt>
      <trkpt lat="42.93572" lon="1.25748">
        <ele>1317</ele>
        <time>2026-06-23T08:13:36.000Z</time>
      </trkpt>
      <trkpt lat="42.93571" lon="1.25745">
        <ele>1318</ele>
        <time>2026-06-23T08:13:37.000Z</time>
      </trkpt>
      <trkpt lat="42.9357" lon="1.25743">
        <ele>1318</ele>
        <time>2026-06-23T08:13:38.000Z</time>
      </trkpt>
      <trkpt lat="42.93569" lon="1.25741">
        <ele>1318</ele>
        <time>2026-06-23T08:13:39.000Z</time>
      </trkpt>
      <trkpt lat="42.93568" lon="1.25739">
        <ele>1318</ele>
        <time>2026-06-23T08:13:40.000Z</time>
      </trkpt>
      <trkpt lat="42.93566" lon="1.25737">
        <ele>1318</ele>
        <time>2026-06-23T08:13:41.000Z</time>
      </trkpt>
      <trkpt lat="42.93564" lon="1.25736">
        <ele>1319</ele>
        <time>2026-06-23T08:13:42.000Z</time>
      </trkpt>
      <trkpt lat="42.93562" lon="1.25734">
        <ele>1319</ele>
        <time>2026-06-23T08:13:43.000Z</time>
      </trkpt>
      <trkpt lat="42.93561" lon="1.25732">
        <ele>1320</ele>
        <time>2026-06-23T08:13:44.000Z</time>
      </trkpt>
      <trkpt lat="42.93559" lon="1.25729">
        <ele>1319</ele>
        <time>2026-06-23T08:13:45.000Z</time>
      </trkpt>
      <trkpt lat="42.93558" lon="1.25728">
        <ele>1320</ele>
        <time>2026-06-23T08:13:46.000Z</time>
      </trkpt>
      <trkpt lat="42.93557" lon="1.25726">
        <ele>1320</ele>
        <time>2026-06-23T08:13:47.000Z</time>
      </trkpt>
      <trkpt lat="42.93556" lon="1.25724">
        <ele>1321</ele>
        <time>2026-06-23T08:13:48.000Z</time>
      </trkpt>
      <trkpt lat="42.93555" lon="1.25721">
        <ele>1321</ele>
        <time>2026-06-23T08:13:49.000Z</time>
      </trkpt>
      <trkpt lat="42.93554" lon="1.25719">
        <ele>1322</ele>
        <time>2026-06-23T08:13:50.000Z</time>
      </trkpt>
      <trkpt lat="42.93553" lon="1.25717">
        <ele>1322</ele>
        <time>2026-06-23T08:13:51.000Z</time>
      </trkpt>
      <trkpt lat="42.93551" lon="1.25716">
        <ele>1322</ele>
        <time>2026-06-23T08:13:52.000Z</time>
      </trkpt>
      <trkpt lat="42.9355" lon="1.25714">
        <ele>1323</ele>
        <time>2026-06-23T08:13:53.000Z</time>
      </trkpt>
      <trkpt lat="42.93549" lon="1.25712">
        <ele>1323</ele>
        <time>2026-06-23T08:13:54.000Z</time>
      </trkpt>
      <trkpt lat="42.93549" lon="1.2571">
        <ele>1323</ele>
        <time>2026-06-23T08:13:55.000Z</time>
      </trkpt>
      <trkpt lat="42.93547" lon="1.25708">
        <ele>1323</ele>
        <time>2026-06-23T08:13:56.000Z</time>
      </trkpt>
      <trkpt lat="42.93545" lon="1.25707">
        <ele>1322</ele>
        <time>2026-06-23T08:13:57.000Z</time>
      </trkpt>
      <trkpt lat="42.93543" lon="1.25705">
        <ele>1322</ele>
        <time>2026-06-23T08:13:58.000Z</time>
      </trkpt>
      <trkpt lat="42.93542" lon="1.25704">
        <ele>1323</ele>
        <time>2026-06-23T08:13:59.000Z</time>
      </trkpt>
      <trkpt lat="42.93541" lon="1.25703">
        <ele>1323</ele>
        <time>2026-06-23T08:14:00.000Z</time>
      </trkpt>
      <trkpt lat="42.9354" lon="1.25701">
        <ele>1323</ele>
        <time>2026-06-23T08:14:01.000Z</time>
      </trkpt>
      <trkpt lat="42.9354" lon="1.25699">
        <ele>1323</ele>
        <time>2026-06-23T08:14:02.000Z</time>
      </trkpt>
      <trkpt lat="42.93539" lon="1.25697">
        <ele>1323</ele>
        <time>2026-06-23T08:14:03.000Z</time>
      </trkpt>
      <trkpt lat="42.93538" lon="1.25695">
        <ele>1323</ele>
        <time>2026-06-23T08:14:04.000Z</time>
      </trkpt>
      <trkpt lat="42.93537" lon="1.25693">
        <ele>1324</ele>
        <time>2026-06-23T08:14:05.000Z</time>
      </trkpt>
      <trkpt lat="42.93536" lon="1.25691">
        <ele>1324</ele>
        <time>2026-06-23T08:14:06.000Z</time>
      </trkpt>
      <trkpt lat="42.93534" lon="1.25689">
        <ele>1325</ele>
        <time>2026-06-23T08:14:07.000Z</time>
      </trkpt>
      <trkpt lat="42.93534" lon="1.25687">
        <ele>1325</ele>
        <time>2026-06-23T08:14:08.000Z</time>
      </trkpt>
      <trkpt lat="42.93532" lon="1.25685">
        <ele>1325</ele>
        <time>2026-06-23T08:14:09.000Z</time>
      </trkpt>
      <trkpt lat="42.93531" lon="1.25684">
        <ele>1326</ele>
        <time>2026-06-23T08:14:10.000Z</time>
      </trkpt>
      <trkpt lat="42.93529" lon="1.25682">
        <ele>1326</ele>
        <time>2026-06-23T08:14:11.000Z</time>
      </trkpt>
      <trkpt lat="42.93529" lon="1.25681">
        <ele>1326</ele>
        <time>2026-06-23T08:14:12.000Z</time>
      </trkpt>
      <trkpt lat="42.93528" lon="1.2568">
        <ele>1327</ele>
        <time>2026-06-23T08:14:13.000Z</time>
      </trkpt>
      <trkpt lat="42.93528" lon="1.25679">
        <ele>1327</ele>
        <time>2026-06-23T08:14:14.000Z</time>
      </trkpt>
      <trkpt lat="42.93527" lon="1.25678">
        <ele>1328</ele>
        <time>2026-06-23T08:14:15.000Z</time>
      </trkpt>
      <trkpt lat="42.93526" lon="1.25676">
        <ele>1328</ele>
        <time>2026-06-23T08:14:16.000Z</time>
      </trkpt>
      <trkpt lat="42.93525" lon="1.25675">
        <ele>1328</ele>
        <time>2026-06-23T08:14:17.000Z</time>
      </trkpt>
      <trkpt lat="42.93524" lon="1.25674">
        <ele>1328</ele>
        <time>2026-06-23T08:14:18.000Z</time>
      </trkpt>
      <trkpt lat="42.93523" lon="1.25672">
        <ele>1329</ele>
        <time>2026-06-23T08:14:19.000Z</time>
      </trkpt>
      <trkpt lat="42.93522" lon="1.25671">
        <ele>1329</ele>
        <time>2026-06-23T08:14:20.000Z</time>
      </trkpt>
      <trkpt lat="42.93521" lon="1.2567">
        <ele>1328</ele>
        <time>2026-06-23T08:14:21.000Z</time>
      </trkpt>
      <trkpt lat="42.93521" lon="1.25669">
        <ele>1329</ele>
        <time>2026-06-23T08:14:22.000Z</time>
      </trkpt>
      <trkpt lat="42.93521" lon="1.25668">
        <ele>1328</ele>
        <time>2026-06-23T08:14:23.000Z</time>
      </trkpt>
      <trkpt lat="42.93519" lon="1.25667">
        <ele>1328</ele>
        <time>2026-06-23T08:14:24.000Z</time>
      </trkpt>
      <trkpt lat="42.93518" lon="1.25665">
        <ele>1327</ele>
        <time>2026-06-23T08:14:25.000Z</time>
      </trkpt>
      <trkpt lat="42.93516" lon="1.25663">
        <ele>1327</ele>
        <time>2026-06-23T08:14:26.000Z</time>
      </trkpt>
      <trkpt lat="42.93514" lon="1.25661">
        <ele>1328</ele>
        <time>2026-06-23T08:14:27.000Z</time>
      </trkpt>
      <trkpt lat="42.93512" lon="1.25659">
        <ele>1327</ele>
        <time>2026-06-23T08:14:28.000Z</time>
      </trkpt>
      <trkpt lat="42.9351" lon="1.25657">
        <ele>1327</ele>
        <time>2026-06-23T08:14:29.000Z</time>
      </trkpt>
      <trkpt lat="42.93509" lon="1.25656">
        <ele>1327</ele>
        <time>2026-06-23T08:14:30.000Z</time>
      </trkpt>
      <trkpt lat="42.93508" lon="1.25654">
        <ele>1327</ele>
        <time>2026-06-23T08:14:31.000Z</time>
      </trkpt>
      <trkpt lat="42.93508" lon="1.25652">
        <ele>1327</ele>
        <time>2026-06-23T08:14:32.000Z</time>
      </trkpt>
      <trkpt lat="42.93508" lon="1.25651">
        <ele>1327</ele>
        <time>2026-06-23T08:14:33.000Z</time>
      </trkpt>
      <trkpt lat="42.93508" lon="1.2565">
        <ele>1327</ele>
        <time>2026-06-23T08:14:34.000Z</time>
      </trkpt>
      <trkpt lat="42.93507" lon="1.25648">
        <ele>1327</ele>
        <time>2026-06-23T08:14:35.000Z</time>
      </trkpt>
      <trkpt lat="42.93507" lon="1.25647">
        <ele>1328</ele>
        <time>2026-06-23T08:14:36.000Z</time>
      </trkpt>
      <trkpt lat="42.93506" lon="1.25645">
        <ele>1328</ele>
        <time>2026-06-23T08:14:37.000Z</time>
      </trkpt>
      <trkpt lat="42.93505" lon="1.25645">
        <ele>1327</ele>
        <time>2026-06-23T08:14:38.000Z</time>
      </trkpt>
      <trkpt lat="42.93503" lon="1.25643">
        <ele>1327</ele>
        <time>2026-06-23T08:14:39.000Z</time>
      </trkpt>
      <trkpt lat="42.93502" lon="1.25641">
        <ele>1327</ele>
        <time>2026-06-23T08:14:40.000Z</time>
      </trkpt>
      <trkpt lat="42.93501" lon="1.25639">
        <ele>1327</ele>
        <time>2026-06-23T08:14:41.000Z</time>
      </trkpt>
      <trkpt lat="42.935" lon="1.25638">
        <ele>1327</ele>
        <time>2026-06-23T08:14:42.000Z</time>
      </trkpt>
      <trkpt lat="42.93498" lon="1.25636">
        <ele>1326</ele>
        <time>2026-06-23T08:14:43.000Z</time>
      </trkpt>
      <trkpt lat="42.93497" lon="1.25635">
        <ele>1326</ele>
        <time>2026-06-23T08:14:44.000Z</time>
      </trkpt>
      <trkpt lat="42.93495" lon="1.25634">
        <ele>1326</ele>
        <time>2026-06-23T08:14:45.000Z</time>
      </trkpt>
      <trkpt lat="42.93494" lon="1.25632">
        <ele>1326</ele>
        <time>2026-06-23T08:14:46.000Z</time>
      </trkpt>
      <trkpt lat="42.93493" lon="1.2563">
        <ele>1326</ele>
        <time>2026-06-23T08:14:47.000Z</time>
      </trkpt>
      <trkpt lat="42.93492" lon="1.25629">
        <ele>1325</ele>
        <time>2026-06-23T08:14:48.000Z</time>
      </trkpt>
      <trkpt lat="42.93491" lon="1.25629">
        <ele>1324</ele>
        <time>2026-06-23T08:14:49.000Z</time>
      </trkpt>
      <trkpt lat="42.9349" lon="1.25628">
        <ele>1325</ele>
        <time>2026-06-23T08:14:50.000Z</time>
      </trkpt>
      <trkpt lat="42.93488" lon="1.25626">
        <ele>1325</ele>
        <time>2026-06-23T08:14:51.000Z</time>
      </trkpt>
      <trkpt lat="42.93488" lon="1.25625">
        <ele>1326</ele>
        <time>2026-06-23T08:14:52.000Z</time>
      </trkpt>
      <trkpt lat="42.93487" lon="1.25623">
        <ele>1326</ele>
        <time>2026-06-23T08:14:53.000Z</time>
      </trkpt>
      <trkpt lat="42.93485" lon="1.25622">
        <ele>1326</ele>
        <time>2026-06-23T08:14:54.000Z</time>
      </trkpt>
      <trkpt lat="42.93484" lon="1.25621">
        <ele>1326</ele>
        <time>2026-06-23T08:14:55.000Z</time>
      </trkpt>
      <trkpt lat="42.93484" lon="1.25619">
        <ele>1326</ele>
        <time>2026-06-23T08:14:56.000Z</time>
      </trkpt>
      <trkpt lat="42.93483" lon="1.25617">
        <ele>1326</ele>
        <time>2026-06-23T08:14:57.000Z</time>
      </trkpt>
      <trkpt lat="42.93481" lon="1.25616">
        <ele>1326</ele>
        <time>2026-06-23T08:14:58.000Z</time>
      </trkpt>
      <trkpt lat="42.9348" lon="1.25614">
        <ele>1325</ele>
        <time>2026-06-23T08:14:59.000Z</time>
      </trkpt>
      <trkpt lat="42.93479" lon="1.25614">
        <ele>1325</ele>
        <time>2026-06-23T08:15:00.000Z</time>
      </trkpt>
      <trkpt lat="42.93478" lon="1.25612">
        <ele>1325</ele>
        <time>2026-06-23T08:15:01.000Z</time>
      </trkpt>
      <trkpt lat="42.93477" lon="1.25611">
        <ele>1325</ele>
        <time>2026-06-23T08:15:02.000Z</time>
      </trkpt>
      <trkpt lat="42.93476" lon="1.25609">
        <ele>1324</ele>
        <time>2026-06-23T08:15:03.000Z</time>
      </trkpt>
      <trkpt lat="42.93475" lon="1.25607">
        <ele>1325</ele>
        <time>2026-06-23T08:15:04.000Z</time>
      </trkpt>
      <trkpt lat="42.93475" lon="1.25605">
        <ele>1324</ele>
        <time>2026-06-23T08:15:05.000Z</time>
      </trkpt>
      <trkpt lat="42.93474" lon="1.25605">
        <ele>1323</ele>
        <time>2026-06-23T08:15:06.000Z</time>
      </trkpt>
      <trkpt lat="42.93474" lon="1.25604">
        <ele>1323</ele>
        <time>2026-06-23T08:15:07.000Z</time>
      </trkpt>
      <trkpt lat="42.93473" lon="1.25603">
        <ele>1324</ele>
        <time>2026-06-23T08:15:08.000Z</time>
      </trkpt>
      <trkpt lat="42.93472" lon="1.25601">
        <ele>1324</ele>
        <time>2026-06-23T08:15:09.000Z</time>
      </trkpt>
      <trkpt lat="42.93472" lon="1.256">
        <ele>1324</ele>
        <time>2026-06-23T08:15:10.000Z</time>
      </trkpt>
      <trkpt lat="42.93471" lon="1.25599">
        <ele>1324</ele>
        <time>2026-06-23T08:15:11.000Z</time>
      </trkpt>
      <trkpt lat="42.9347" lon="1.25598">
        <ele>1324</ele>
        <time>2026-06-23T08:15:12.000Z</time>
      </trkpt>
      <trkpt lat="42.93469" lon="1.25596">
        <ele>1324</ele>
        <time>2026-06-23T08:15:13.000Z</time>
      </trkpt>
      <trkpt lat="42.93467" lon="1.25595">
        <ele>1324</ele>
        <time>2026-06-23T08:15:14.000Z</time>
      </trkpt>
      <trkpt lat="42.93465" lon="1.25594">
        <ele>1324</ele>
        <time>2026-06-23T08:15:15.000Z</time>
      </trkpt>
      <trkpt lat="42.93463" lon="1.25593">
        <ele>1324</ele>
        <time>2026-06-23T08:15:16.000Z</time>
      </trkpt>
      <trkpt lat="42.9346" lon="1.25592">
        <ele>1324</ele>
        <time>2026-06-23T08:15:17.000Z</time>
      </trkpt>
      <trkpt lat="42.93459" lon="1.25591">
        <ele>1324</ele>
        <time>2026-06-23T08:15:18.000Z</time>
      </trkpt>
      <trkpt lat="42.93458" lon="1.2559">
        <ele>1324</ele>
        <time>2026-06-23T08:15:19.000Z</time>
      </trkpt>
      <trkpt lat="42.93456" lon="1.25588">
        <ele>1324</ele>
        <time>2026-06-23T08:15:20.000Z</time>
      </trkpt>
      <trkpt lat="42.93455" lon="1.25587">
        <ele>1323</ele>
        <time>2026-06-23T08:15:21.000Z</time>
      </trkpt>
      <trkpt lat="42.93454" lon="1.25586">
        <ele>1323</ele>
        <time>2026-06-23T08:15:22.000Z</time>
      </trkpt>
      <trkpt lat="42.93454" lon="1.25585">
        <ele>1323</ele>
        <time>2026-06-23T08:15:23.000Z</time>
      </trkpt>
      <trkpt lat="42.93452" lon="1.25584">
        <ele>1323</ele>
        <time>2026-06-23T08:15:24.000Z</time>
      </trkpt>
      <trkpt lat="42.93452" lon="1.25583">
        <ele>1323</ele>
        <time>2026-06-23T08:15:25.000Z</time>
      </trkpt>
      <trkpt lat="42.93451" lon="1.25582">
        <ele>1323</ele>
        <time>2026-06-23T08:15:26.000Z</time>
      </trkpt>
      <trkpt lat="42.93449" lon="1.25581">
        <ele>1323</ele>
        <time>2026-06-23T08:15:27.000Z</time>
      </trkpt>
      <trkpt lat="42.93447" lon="1.25579">
        <ele>1323</ele>
        <time>2026-06-23T08:15:28.000Z</time>
      </trkpt>
      <trkpt lat="42.93446" lon="1.25579">
        <ele>1323</ele>
        <time>2026-06-23T08:15:29.000Z</time>
      </trkpt>
      <trkpt lat="42.93444" lon="1.25577">
        <ele>1324</ele>
        <time>2026-06-23T08:15:30.000Z</time>
      </trkpt>
      <trkpt lat="42.93443" lon="1.25576">
        <ele>1324</ele>
        <time>2026-06-23T08:15:31.000Z</time>
      </trkpt>
      <trkpt lat="42.93441" lon="1.25574">
        <ele>1324</ele>
        <time>2026-06-23T08:15:32.000Z</time>
      </trkpt>
      <trkpt lat="42.93438" lon="1.25573">
        <ele>1324</ele>
        <time>2026-06-23T08:15:33.000Z</time>
      </trkpt>
      <trkpt lat="42.93436" lon="1.25571">
        <ele>1324</ele>
        <time>2026-06-23T08:15:34.000Z</time>
      </trkpt>
      <trkpt lat="42.93434" lon="1.2557">
        <ele>1322</ele>
        <time>2026-06-23T08:15:35.000Z</time>
      </trkpt>
      <trkpt lat="42.93432" lon="1.25568">
        <ele>1322</ele>
        <time>2026-06-23T08:15:36.000Z</time>
      </trkpt>
      <trkpt lat="42.93431" lon="1.25566">
        <ele>1322</ele>
        <time>2026-06-23T08:15:37.000Z</time>
      </trkpt>
      <trkpt lat="42.93429" lon="1.25565">
        <ele>1322</ele>
        <time>2026-06-23T08:15:38.000Z</time>
      </trkpt>
      <trkpt lat="42.93427" lon="1.25563">
        <ele>1321</ele>
        <time>2026-06-23T08:15:39.000Z</time>
      </trkpt>
      <trkpt lat="42.93425" lon="1.25561">
        <ele>1321</ele>
        <time>2026-06-23T08:15:40.000Z</time>
      </trkpt>
      <trkpt lat="42.93423" lon="1.2556">
        <ele>1320</ele>
        <time>2026-06-23T08:15:41.000Z</time>
      </trkpt>
      <trkpt lat="42.93421" lon="1.25558">
        <ele>1320</ele>
        <time>2026-06-23T08:15:42.000Z</time>
      </trkpt>
      <trkpt lat="42.93418" lon="1.25556">
        <ele>1320</ele>
        <time>2026-06-23T08:15:43.000Z</time>
      </trkpt>
      <trkpt lat="42.93416" lon="1.25555">
        <ele>1320</ele>
        <time>2026-06-23T08:15:44.000Z</time>
      </trkpt>
      <trkpt lat="42.93412" lon="1.25552">
        <ele>1323</ele>
        <time>2026-06-23T08:15:45.000Z</time>
      </trkpt>
      <trkpt lat="42.93411" lon="1.2555">
        <ele>1323</ele>
        <time>2026-06-23T08:15:46.000Z</time>
      </trkpt>
      <trkpt lat="42.93411" lon="1.25547">
        <ele>1322</ele>
        <time>2026-06-23T08:15:47.000Z</time>
      </trkpt>
      <trkpt lat="42.9341" lon="1.25546">
        <ele>1323</ele>
        <time>2026-06-23T08:15:48.000Z</time>
      </trkpt>
      <trkpt lat="42.9341" lon="1.25543">
        <ele>1323</ele>
        <time>2026-06-23T08:15:49.000Z</time>
      </trkpt>
      <trkpt lat="42.9341" lon="1.25541">
        <ele>1324</ele>
        <time>2026-06-23T08:15:50.000Z</time>
      </trkpt>
      <trkpt lat="42.9341" lon="1.25538">
        <ele>1325</ele>
        <time>2026-06-23T08:15:51.000Z</time>
      </trkpt>
      <trkpt lat="42.93409" lon="1.25535">
        <ele>1327</ele>
        <time>2026-06-23T08:15:52.000Z</time>
      </trkpt>
      <trkpt lat="42.93408" lon="1.25532">
        <ele>1327</ele>
        <time>2026-06-23T08:15:53.000Z</time>
      </trkpt>
      <trkpt lat="42.93407" lon="1.2553">
        <ele>1328</ele>
        <time>2026-06-23T08:15:54.000Z</time>
      </trkpt>
      <trkpt lat="42.93407" lon="1.25526">
        <ele>1330</ele>
        <time>2026-06-23T08:15:55.000Z</time>
      </trkpt>
      <trkpt lat="42.93406" lon="1.25523">
        <ele>1331</ele>
        <time>2026-06-23T08:15:56.000Z</time>
      </trkpt>
      <trkpt lat="42.93405" lon="1.25519">
        <ele>1332</ele>
        <time>2026-06-23T08:15:57.000Z</time>
      </trkpt>
      <trkpt lat="42.93405" lon="1.25516">
        <ele>1333</ele>
        <time>2026-06-23T08:15:58.000Z</time>
      </trkpt>
      <trkpt lat="42.93404" lon="1.25513">
        <ele>1333</ele>
        <time>2026-06-23T08:15:59.000Z</time>
      </trkpt>
      <trkpt lat="42.93404" lon="1.2551">
        <ele>1334</ele>
        <time>2026-06-23T08:16:00.000Z</time>
      </trkpt>
      <trkpt lat="42.93403" lon="1.25506">
        <ele>1334</ele>
        <time>2026-06-23T08:16:01.000Z</time>
      </trkpt>
      <trkpt lat="42.93402" lon="1.25503">
        <ele>1335</ele>
        <time>2026-06-23T08:16:02.000Z</time>
      </trkpt>
      <trkpt lat="42.934" lon="1.25501">
        <ele>1335</ele>
        <time>2026-06-23T08:16:03.000Z</time>
      </trkpt>
      <trkpt lat="42.93399" lon="1.25498">
        <ele>1334</ele>
        <time>2026-06-23T08:16:04.000Z</time>
      </trkpt>
      <trkpt lat="42.93397" lon="1.25492">
        <ele>1334</ele>
        <time>2026-06-23T08:16:05.000Z</time>
      </trkpt>
      <trkpt lat="42.93395" lon="1.25486">
        <ele>1335</ele>
        <time>2026-06-23T08:16:06.000Z</time>
      </trkpt>
      <trkpt lat="42.93394" lon="1.25481">
        <ele>1336</ele>
        <time>2026-06-23T08:16:07.000Z</time>
      </trkpt>
      <trkpt lat="42.93394" lon="1.25477">
        <ele>1337</ele>
        <time>2026-06-23T08:16:08.000Z</time>
      </trkpt>
      <trkpt lat="42.93394" lon="1.25472">
        <ele>1337</ele>
        <time>2026-06-23T08:16:09.000Z</time>
      </trkpt>
      <trkpt lat="42.93394" lon="1.25467">
        <ele>1337</ele>
        <time>2026-06-23T08:16:10.000Z</time>
      </trkpt>
      <trkpt lat="42.93394" lon="1.25462">
        <ele>1338</ele>
        <time>2026-06-23T08:16:11.000Z</time>
      </trkpt>
      <trkpt lat="42.93394" lon="1.25458">
        <ele>1338</ele>
        <time>2026-06-23T08:16:12.000Z</time>
      </trkpt>
      <trkpt lat="42.93395" lon="1.25454">
        <ele>1338</ele>
        <time>2026-06-23T08:16:13.000Z</time>
      </trkpt>
      <trkpt lat="42.93394" lon="1.25449">
        <ele>1338</ele>
        <time>2026-06-23T08:16:14.000Z</time>
      </trkpt>
      <trkpt lat="42.93395" lon="1.25444">
        <ele>1339</ele>
        <time>2026-06-23T08:16:15.000Z</time>
      </trkpt>
      <trkpt lat="42.93394" lon="1.25438">
        <ele>1339</ele>
        <time>2026-06-23T08:16:16.000Z</time>
      </trkpt>
      <trkpt lat="42.93393" lon="1.25433">
        <ele>1339</ele>
        <time>2026-06-23T08:16:17.000Z</time>
      </trkpt>
      <trkpt lat="42.93393" lon="1.25428">
        <ele>1340</ele>
        <time>2026-06-23T08:16:18.000Z</time>
      </trkpt>
      <trkpt lat="42.93392" lon="1.25423">
        <ele>1341</ele>
        <time>2026-06-23T08:16:19.000Z</time>
      </trkpt>
      <trkpt lat="42.93392" lon="1.25417">
        <ele>1341</ele>
        <time>2026-06-23T08:16:20.000Z</time>
      </trkpt>
      <trkpt lat="42.93392" lon="1.25412">
        <ele>1343</ele>
        <time>2026-06-23T08:16:21.000Z</time>
      </trkpt>
      <trkpt lat="42.93392" lon="1.25407">
        <ele>1343</ele>
        <time>2026-06-23T08:16:22.000Z</time>
      </trkpt>
      <trkpt lat="42.93392" lon="1.25402">
        <ele>1344</ele>
        <time>2026-06-23T08:16:23.000Z</time>
      </trkpt>
      <trkpt lat="42.93392" lon="1.25397">
        <ele>1344</ele>
        <time>2026-06-23T08:16:24.000Z</time>
      </trkpt>
      <trkpt lat="42.93391" lon="1.25393">
        <ele>1344</ele>
        <time>2026-06-23T08:16:25.000Z</time>
      </trkpt>
      <trkpt lat="42.9339" lon="1.2539">
        <ele>1344</ele>
        <time>2026-06-23T08:16:26.000Z</time>
      </trkpt>
      <trkpt lat="42.93388" lon="1.25387">
        <ele>1345</ele>
        <time>2026-06-23T08:16:27.000Z</time>
      </trkpt>
      <trkpt lat="42.93387" lon="1.25384">
        <ele>1346</ele>
        <time>2026-06-23T08:16:28.000Z</time>
      </trkpt>
      <trkpt lat="42.93385" lon="1.2538">
        <ele>1347</ele>
        <time>2026-06-23T08:16:29.000Z</time>
      </trkpt>
      <trkpt lat="42.93383" lon="1.25377">
        <ele>1348</ele>
        <time>2026-06-23T08:16:30.000Z</time>
      </trkpt>
      <trkpt lat="42.93382" lon="1.25373">
        <ele>1348</ele>
        <time>2026-06-23T08:16:31.000Z</time>
      </trkpt>
      <trkpt lat="42.93382" lon="1.25369">
        <ele>1348</ele>
        <time>2026-06-23T08:16:32.000Z</time>
      </trkpt>
      <trkpt lat="42.93382" lon="1.25364">
        <ele>1348</ele>
        <time>2026-06-23T08:16:33.000Z</time>
      </trkpt>
      <trkpt lat="42.93382" lon="1.25359">
        <ele>1349</ele>
        <time>2026-06-23T08:16:34.000Z</time>
      </trkpt>
      <trkpt lat="42.93382" lon="1.25355">
        <ele>1349</ele>
        <time>2026-06-23T08:16:35.000Z</time>
      </trkpt>
      <trkpt lat="42.93382" lon="1.25351">
        <ele>1348</ele>
        <time>2026-06-23T08:16:36.000Z</time>
      </trkpt>
      <trkpt lat="42.93381" lon="1.25347">
        <ele>1348</ele>
        <time>2026-06-23T08:16:37.000Z</time>
      </trkpt>
      <trkpt lat="42.9338" lon="1.25345">
        <ele>1347</ele>
        <time>2026-06-23T08:16:38.000Z</time>
      </trkpt>
      <trkpt lat="42.93378" lon="1.25343">
        <ele>1347</ele>
        <time>2026-06-23T08:16:39.000Z</time>
      </trkpt>
      <trkpt lat="42.93374" lon="1.25342">
        <ele>1346</ele>
        <time>2026-06-23T08:16:40.000Z</time>
      </trkpt>
      <trkpt lat="42.93371" lon="1.25342">
        <ele>1346</ele>
        <time>2026-06-23T08:16:41.000Z</time>
      </trkpt>
      <trkpt lat="42.93367" lon="1.25343">
        <ele>1346</ele>
        <time>2026-06-23T08:16:42.000Z</time>
      </trkpt>
      <trkpt lat="42.93363" lon="1.25345">
        <ele>1345</ele>
        <time>2026-06-23T08:16:43.000Z</time>
      </trkpt>
      <trkpt lat="42.93359" lon="1.25347">
        <ele>1344</ele>
        <time>2026-06-23T08:16:44.000Z</time>
      </trkpt>
      <trkpt lat="42.93355" lon="1.25349">
        <ele>1344</ele>
        <time>2026-06-23T08:16:45.000Z</time>
      </trkpt>
      <trkpt lat="42.93352" lon="1.25352">
        <ele>1344</ele>
        <time>2026-06-23T08:16:46.000Z</time>
      </trkpt>
      <trkpt lat="42.93348" lon="1.25354">
        <ele>1343</ele>
        <time>2026-06-23T08:16:47.000Z</time>
      </trkpt>
      <trkpt lat="42.93345" lon="1.25357">
        <ele>1342</ele>
        <time>2026-06-23T08:16:48.000Z</time>
      </trkpt>
      <trkpt lat="42.93342" lon="1.25361">
        <ele>1343</ele>
        <time>2026-06-23T08:16:49.000Z</time>
      </trkpt>
      <trkpt lat="42.93339" lon="1.25364">
        <ele>1342</ele>
        <time>2026-06-23T08:16:50.000Z</time>
      </trkpt>
      <trkpt lat="42.93334" lon="1.25368">
        <ele>1342</ele>
        <time>2026-06-23T08:16:51.000Z</time>
      </trkpt>
      <trkpt lat="42.93331" lon="1.25373">
        <ele>1341</ele>
        <time>2026-06-23T08:16:52.000Z</time>
      </trkpt>
      <trkpt lat="42.93327" lon="1.25379">
        <ele>1341</ele>
        <time>2026-06-23T08:16:53.000Z</time>
      </trkpt>
      <trkpt lat="42.93324" lon="1.25384">
        <ele>1342</ele>
        <time>2026-06-23T08:16:54.000Z</time>
      </trkpt>
      <trkpt lat="42.9332" lon="1.25391">
        <ele>1342</ele>
        <time>2026-06-23T08:16:55.000Z</time>
      </trkpt>
      <trkpt lat="42.93315" lon="1.25397">
        <ele>1341</ele>
        <time>2026-06-23T08:16:56.000Z</time>
      </trkpt>
      <trkpt lat="42.93311" lon="1.25403">
        <ele>1341</ele>
        <time>2026-06-23T08:16:57.000Z</time>
      </trkpt>
      <trkpt lat="42.93307" lon="1.25407">
        <ele>1342</ele>
        <time>2026-06-23T08:16:58.000Z</time>
      </trkpt>
      <trkpt lat="42.93303" lon="1.25412">
        <ele>1342</ele>
        <time>2026-06-23T08:16:59.000Z</time>
      </trkpt>
      <trkpt lat="42.933" lon="1.25418">
        <ele>1342</ele>
        <time>2026-06-23T08:17:00.000Z</time>
      </trkpt>
      <trkpt lat="42.93298" lon="1.25422">
        <ele>1342</ele>
        <time>2026-06-23T08:17:01.000Z</time>
      </trkpt>
      <trkpt lat="42.93295" lon="1.25427">
        <ele>1342</ele>
        <time>2026-06-23T08:17:02.000Z</time>
      </trkpt>
      <trkpt lat="42.93293" lon="1.25432">
        <ele>1342</ele>
        <time>2026-06-23T08:17:03.000Z</time>
      </trkpt>
      <trkpt lat="42.9329" lon="1.25436">
        <ele>1342</ele>
        <time>2026-06-23T08:17:04.000Z</time>
      </trkpt>
      <trkpt lat="42.93287" lon="1.25439">
        <ele>1342</ele>
        <time>2026-06-23T08:17:05.000Z</time>
      </trkpt>
      <trkpt lat="42.93283" lon="1.25445">
        <ele>1342</ele>
        <time>2026-06-23T08:17:06.000Z</time>
      </trkpt>
      <trkpt lat="42.9328" lon="1.2545">
        <ele>1342</ele>
        <time>2026-06-23T08:17:07.000Z</time>
      </trkpt>
      <trkpt lat="42.93275" lon="1.25457">
        <ele>1341</ele>
        <time>2026-06-23T08:17:08.000Z</time>
      </trkpt>
      <trkpt lat="42.93271" lon="1.25463">
        <ele>1342</ele>
        <time>2026-06-23T08:17:09.000Z</time>
      </trkpt>
      <trkpt lat="42.93266" lon="1.25471">
        <ele>1342</ele>
        <time>2026-06-23T08:17:10.000Z</time>
      </trkpt>
      <trkpt lat="42.93263" lon="1.25477">
        <ele>1342</ele>
        <time>2026-06-23T08:17:11.000Z</time>
      </trkpt>
      <trkpt lat="42.9326" lon="1.25484">
        <ele>1341</ele>
        <time>2026-06-23T08:17:12.000Z</time>
      </trkpt>
      <trkpt lat="42.93257" lon="1.25492">
        <ele>1342</ele>
        <time>2026-06-23T08:17:13.000Z</time>
      </trkpt>
      <trkpt lat="42.93255" lon="1.255">
        <ele>1341</ele>
        <time>2026-06-23T08:17:14.000Z</time>
      </trkpt>
      <trkpt lat="42.93252" lon="1.25508">
        <ele>1341</ele>
        <time>2026-06-23T08:17:15.000Z</time>
      </trkpt>
      <trkpt lat="42.93249" lon="1.25516">
        <ele>1342</ele>
        <time>2026-06-23T08:17:16.000Z</time>
      </trkpt>
      <trkpt lat="42.93247" lon="1.25523">
        <ele>1342</ele>
        <time>2026-06-23T08:17:17.000Z</time>
      </trkpt>
      <trkpt lat="42.93244" lon="1.25529">
        <ele>1342</ele>
        <time>2026-06-23T08:17:18.000Z</time>
      </trkpt>
      <trkpt lat="42.9324" lon="1.25535">
        <ele>1342</ele>
        <time>2026-06-23T08:17:19.000Z</time>
      </trkpt>
      <trkpt lat="42.93238" lon="1.25539">
        <ele>1342</ele>
        <time>2026-06-23T08:17:20.000Z</time>
      </trkpt>
      <trkpt lat="42.93235" lon="1.25543">
        <ele>1342</ele>
        <time>2026-06-23T08:17:21.000Z</time>
      </trkpt>
      <trkpt lat="42.93232" lon="1.25546">
        <ele>1341</ele>
        <time>2026-06-23T08:17:22.000Z</time>
      </trkpt>
      <trkpt lat="42.9323" lon="1.25548">
        <ele>1341</ele>
        <time>2026-06-23T08:17:23.000Z</time>
      </trkpt>
      <trkpt lat="42.93227" lon="1.2555">
        <ele>1341</ele>
        <time>2026-06-23T08:17:24.000Z</time>
      </trkpt>
      <trkpt lat="42.93223" lon="1.25551">
        <ele>1340</ele>
        <time>2026-06-23T08:17:25.000Z</time>
      </trkpt>
      <trkpt lat="42.93218" lon="1.25552">
        <ele>1340</ele>
        <time>2026-06-23T08:17:26.000Z</time>
      </trkpt>
      <trkpt lat="42.93214" lon="1.25553">
        <ele>1340</ele>
        <time>2026-06-23T08:17:27.000Z</time>
      </trkpt>
      <trkpt lat="42.9321" lon="1.25553">
        <ele>1340</ele>
        <time>2026-06-23T08:17:28.000Z</time>
      </trkpt>
      <trkpt lat="42.93206" lon="1.25554">
        <ele>1340</ele>
        <time>2026-06-23T08:17:29.000Z</time>
      </trkpt>
      <trkpt lat="42.93204" lon="1.25554">
        <ele>1340</ele>
        <time>2026-06-23T08:17:30.000Z</time>
      </trkpt>
      <trkpt lat="42.93201" lon="1.25551">
        <ele>1339</ele>
        <time>2026-06-23T08:17:31.000Z</time>
      </trkpt>
      <trkpt lat="42.932" lon="1.25548">
        <ele>1339</ele>
        <time>2026-06-23T08:17:32.000Z</time>
      </trkpt>
      <trkpt lat="42.932" lon="1.25543">
        <ele>1338</ele>
        <time>2026-06-23T08:17:33.000Z</time>
      </trkpt>
      <trkpt lat="42.93201" lon="1.25539">
        <ele>1338</ele>
        <time>2026-06-23T08:17:34.000Z</time>
      </trkpt>
      <trkpt lat="42.93202" lon="1.25534">
        <ele>1337</ele>
        <time>2026-06-23T08:17:35.000Z</time>
      </trkpt>
      <trkpt lat="42.93203" lon="1.25528">
        <ele>1336</ele>
        <time>2026-06-23T08:17:36.000Z</time>
      </trkpt>
      <trkpt lat="42.93206" lon="1.25519">
        <ele>1333</ele>
        <time>2026-06-23T08:17:37.000Z</time>
      </trkpt>
      <trkpt lat="42.93207" lon="1.25511">
        <ele>1333</ele>
        <time>2026-06-23T08:17:38.000Z</time>
      </trkpt>
      <trkpt lat="42.93208" lon="1.25506">
        <ele>1332</ele>
        <time>2026-06-23T08:17:39.000Z</time>
      </trkpt>
      <trkpt lat="42.9321" lon="1.25499">
        <ele>1331</ele>
        <time>2026-06-23T08:17:40.000Z</time>
      </trkpt>
      <trkpt lat="42.93211" lon="1.25491">
        <ele>1330</ele>
        <time>2026-06-23T08:17:41.000Z</time>
      </trkpt>
      <trkpt lat="42.93211" lon="1.25484">
        <ele>1330</ele>
        <time>2026-06-23T08:17:42.000Z</time>
      </trkpt>
      <trkpt lat="42.93212" lon="1.25477">
        <ele>1329</ele>
        <time>2026-06-23T08:17:43.000Z</time>
      </trkpt>
      <trkpt lat="42.93214" lon="1.25471">
        <ele>1328</ele>
        <time>2026-06-23T08:17:44.000Z</time>
      </trkpt>
      <trkpt lat="42.93214" lon="1.25466">
        <ele>1327</ele>
        <time>2026-06-23T08:17:45.000Z</time>
      </trkpt>
      <trkpt lat="42.93212" lon="1.25462">
        <ele>1327</ele>
        <time>2026-06-23T08:17:46.000Z</time>
      </trkpt>
      <trkpt lat="42.93209" lon="1.25463">
        <ele>1326</ele>
        <time>2026-06-23T08:17:47.000Z</time>
      </trkpt>
      <trkpt lat="42.93207" lon="1.25465">
        <ele>1325</ele>
        <time>2026-06-23T08:17:48.000Z</time>
      </trkpt>
      <trkpt lat="42.93207" lon="1.25466">
        <ele>1325</ele>
        <time>2026-06-23T08:17:49.000Z</time>
      </trkpt>
      <trkpt lat="42.93206" lon="1.25467">
        <ele>1325</ele>
        <time>2026-06-23T08:17:50.000Z</time>
      </trkpt>
      <trkpt lat="42.93204" lon="1.25469">
        <ele>1324</ele>
        <time>2026-06-23T08:17:51.000Z</time>
      </trkpt>
      <trkpt lat="42.93202" lon="1.25472">
        <ele>1324</ele>
        <time>2026-06-23T08:17:52.000Z</time>
      </trkpt>
      <trkpt lat="42.93199" lon="1.25477">
        <ele>1323</ele>
        <time>2026-06-23T08:17:53.000Z</time>
      </trkpt>
      <trkpt lat="42.93195" lon="1.25483">
        <ele>1323</ele>
        <time>2026-06-23T08:17:54.000Z</time>
      </trkpt>
      <trkpt lat="42.93191" lon="1.25488">
        <ele>1322</ele>
        <time>2026-06-23T08:17:55.000Z</time>
      </trkpt>
      <trkpt lat="42.93186" lon="1.25494">
        <ele>1321</ele>
        <time>2026-06-23T08:17:56.000Z</time>
      </trkpt>
      <trkpt lat="42.9318" lon="1.255">
        <ele>1321</ele>
        <time>2026-06-23T08:17:57.000Z</time>
      </trkpt>
      <trkpt lat="42.93174" lon="1.25505">
        <ele>1321</ele>
        <time>2026-06-23T08:17:58.000Z</time>
      </trkpt>
      <trkpt lat="42.93167" lon="1.2551">
        <ele>1321</ele>
        <time>2026-06-23T08:17:59.000Z</time>
      </trkpt>
      <trkpt lat="42.9316" lon="1.25514">
        <ele>1321</ele>
        <time>2026-06-23T08:18:00.000Z</time>
      </trkpt>
      <trkpt lat="42.93154" lon="1.25519">
        <ele>1320</ele>
        <time>2026-06-23T08:18:01.000Z</time>
      </trkpt>
      <trkpt lat="42.93146" lon="1.25523">
        <ele>1320</ele>
        <time>2026-06-23T08:18:02.000Z</time>
      </trkpt>
      <trkpt lat="42.93139" lon="1.25527">
        <ele>1320</ele>
        <time>2026-06-23T08:18:03.000Z</time>
      </trkpt>
      <trkpt lat="42.93133" lon="1.25531">
        <ele>1320</ele>
        <time>2026-06-23T08:18:04.000Z</time>
      </trkpt>
      <trkpt lat="42.93125" lon="1.25533">
        <ele>1320</ele>
        <time>2026-06-23T08:18:05.000Z</time>
      </trkpt>
      <trkpt lat="42.93119" lon="1.25535">
        <ele>1319</ele>
        <time>2026-06-23T08:18:06.000Z</time>
      </trkpt>
      <trkpt lat="42.93114" lon="1.25536">
        <ele>1318</ele>
        <time>2026-06-23T08:18:07.000Z</time>
      </trkpt>
      <trkpt lat="42.9311" lon="1.25536">
        <ele>1318</ele>
        <time>2026-06-23T08:18:08.000Z</time>
      </trkpt>
      <trkpt lat="42.93108" lon="1.25535">
        <ele>1317</ele>
        <time>2026-06-23T08:18:09.000Z</time>
      </trkpt>
      <trkpt lat="42.93106" lon="1.25532">
        <ele>1316</ele>
        <time>2026-06-23T08:18:10.000Z</time>
      </trkpt>
      <trkpt lat="42.93104" lon="1.25529">
        <ele>1315</ele>
        <time>2026-06-23T08:18:11.000Z</time>
      </trkpt>
      <trkpt lat="42.931" lon="1.25528">
        <ele>1315</ele>
        <time>2026-06-23T08:18:12.000Z</time>
      </trkpt>
      <trkpt lat="42.93097" lon="1.25527">
        <ele>1314</ele>
        <time>2026-06-23T08:18:13.000Z</time>
      </trkpt>
      <trkpt lat="42.93094" lon="1.25526">
        <ele>1313</ele>
        <time>2026-06-23T08:18:14.000Z</time>
      </trkpt>
      <trkpt lat="42.93089" lon="1.25526">
        <ele>1313</ele>
        <time>2026-06-23T08:18:15.000Z</time>
      </trkpt>
      <trkpt lat="42.93084" lon="1.25528">
        <ele>1312</ele>
        <time>2026-06-23T08:18:16.000Z</time>
      </trkpt>
      <trkpt lat="42.93076" lon="1.2553">
        <ele>1311</ele>
        <time>2026-06-23T08:18:17.000Z</time>
      </trkpt>
      <trkpt lat="42.93069" lon="1.25535">
        <ele>1309</ele>
        <time>2026-06-23T08:18:18.000Z</time>
      </trkpt>
      <trkpt lat="42.93062" lon="1.25541">
        <ele>1309</ele>
        <time>2026-06-23T08:18:19.000Z</time>
      </trkpt>
      <trkpt lat="42.93056" lon="1.25546">
        <ele>1308</ele>
        <time>2026-06-23T08:18:20.000Z</time>
      </trkpt>
      <trkpt lat="42.93052" lon="1.25549">
        <ele>1308</ele>
        <time>2026-06-23T08:18:21.000Z</time>
      </trkpt>
      <trkpt lat="42.93049" lon="1.25551">
        <ele>1308</ele>
        <time>2026-06-23T08:18:22.000Z</time>
      </trkpt>
      <trkpt lat="42.93047" lon="1.25552">
        <ele>1307</ele>
        <time>2026-06-23T08:18:23.000Z</time>
      </trkpt>
      <trkpt lat="42.93045" lon="1.25553">
        <ele>1307</ele>
        <time>2026-06-23T08:18:24.000Z</time>
      </trkpt>
      <trkpt lat="42.93043" lon="1.25555">
        <ele>1306</ele>
        <time>2026-06-23T08:18:25.000Z</time>
      </trkpt>
      <trkpt lat="42.93041" lon="1.25557">
        <ele>1306</ele>
        <time>2026-06-23T08:18:26.000Z</time>
      </trkpt>
      <trkpt lat="42.93038" lon="1.25559">
        <ele>1306</ele>
        <time>2026-06-23T08:18:27.000Z</time>
      </trkpt>
      <trkpt lat="42.93035" lon="1.25561">
        <ele>1305</ele>
        <time>2026-06-23T08:18:28.000Z</time>
      </trkpt>
      <trkpt lat="42.93032" lon="1.25563">
        <ele>1305</ele>
        <time>2026-06-23T08:18:29.000Z</time>
      </trkpt>
      <trkpt lat="42.9303" lon="1.25566">
        <ele>1304</ele>
        <time>2026-06-23T08:18:30.000Z</time>
      </trkpt>
      <trkpt lat="42.93028" lon="1.25569">
        <ele>1303</ele>
        <time>2026-06-23T08:18:31.000Z</time>
      </trkpt>
      <trkpt lat="42.93026" lon="1.25573">
        <ele>1303</ele>
        <time>2026-06-23T08:18:32.000Z</time>
      </trkpt>
      <trkpt lat="42.93024" lon="1.25577">
        <ele>1303</ele>
        <time>2026-06-23T08:18:33.000Z</time>
      </trkpt>
      <trkpt lat="42.93023" lon="1.2558">
        <ele>1302</ele>
        <time>2026-06-23T08:18:34.000Z</time>
      </trkpt>
      <trkpt lat="42.93021" lon="1.25584">
        <ele>1301</ele>
        <time>2026-06-23T08:18:35.000Z</time>
      </trkpt>
      <trkpt lat="42.93019" lon="1.25588">
        <ele>1300</ele>
        <time>2026-06-23T08:18:36.000Z</time>
      </trkpt>
      <trkpt lat="42.93018" lon="1.25592">
        <ele>1300</ele>
        <time>2026-06-23T08:18:37.000Z</time>
      </trkpt>
      <trkpt lat="42.93016" lon="1.25596">
        <ele>1299</ele>
        <time>2026-06-23T08:18:38.000Z</time>
      </trkpt>
      <trkpt lat="42.93015" lon="1.256">
        <ele>1298</ele>
        <time>2026-06-23T08:18:39.000Z</time>
      </trkpt>
      <trkpt lat="42.93013" lon="1.25604">
        <ele>1297</ele>
        <time>2026-06-23T08:18:40.000Z</time>
      </trkpt>
      <trkpt lat="42.93012" lon="1.25608">
        <ele>1297</ele>
        <time>2026-06-23T08:18:41.000Z</time>
      </trkpt>
      <trkpt lat="42.9301" lon="1.25612">
        <ele>1297</ele>
        <time>2026-06-23T08:18:42.000Z</time>
      </trkpt>
      <trkpt lat="42.93008" lon="1.25616">
        <ele>1296</ele>
        <time>2026-06-23T08:18:43.000Z</time>
      </trkpt>
      <trkpt lat="42.93006" lon="1.25621">
        <ele>1296</ele>
        <time>2026-06-23T08:18:44.000Z</time>
      </trkpt>
      <trkpt lat="42.93004" lon="1.25625">
        <ele>1296</ele>
        <time>2026-06-23T08:18:45.000Z</time>
      </trkpt>
      <trkpt lat="42.93002" lon="1.25629">
        <ele>1296</ele>
        <time>2026-06-23T08:18:46.000Z</time>
      </trkpt>
      <trkpt lat="42.93" lon="1.25634">
        <ele>1296</ele>
        <time>2026-06-23T08:18:47.000Z</time>
      </trkpt>
      <trkpt lat="42.92998" lon="1.25639">
        <ele>1295</ele>
        <time>2026-06-23T08:18:48.000Z</time>
      </trkpt>
      <trkpt lat="42.92996" lon="1.25644">
        <ele>1295</ele>
        <time>2026-06-23T08:18:49.000Z</time>
      </trkpt>
      <trkpt lat="42.92994" lon="1.25648">
        <ele>1295</ele>
        <time>2026-06-23T08:18:50.000Z</time>
      </trkpt>
      <trkpt lat="42.92992" lon="1.25653">
        <ele>1294</ele>
        <time>2026-06-23T08:18:51.000Z</time>
      </trkpt>
      <trkpt lat="42.92991" lon="1.25658">
        <ele>1294</ele>
        <time>2026-06-23T08:18:52.000Z</time>
      </trkpt>
      <trkpt lat="42.92989" lon="1.25663">
        <ele>1294</ele>
        <time>2026-06-23T08:18:53.000Z</time>
      </trkpt>
      <trkpt lat="42.92988" lon="1.25668">
        <ele>1293</ele>
        <time>2026-06-23T08:18:54.000Z</time>
      </trkpt>
      <trkpt lat="42.92987" lon="1.25673">
        <ele>1294</ele>
        <time>2026-06-23T08:18:55.000Z</time>
      </trkpt>
      <trkpt lat="42.92985" lon="1.25677">
        <ele>1293</ele>
        <time>2026-06-23T08:18:56.000Z</time>
      </trkpt>
      <trkpt lat="42.92984" lon="1.25682">
        <ele>1293</ele>
        <time>2026-06-23T08:18:57.000Z</time>
      </trkpt>
      <trkpt lat="42.92983" lon="1.25688">
        <ele>1293</ele>
        <time>2026-06-23T08:18:58.000Z</time>
      </trkpt>
      <trkpt lat="42.92982" lon="1.25693">
        <ele>1293</ele>
        <time>2026-06-23T08:18:59.000Z</time>
      </trkpt>
      <trkpt lat="42.92981" lon="1.25698">
        <ele>1293</ele>
        <time>2026-06-23T08:19:00.000Z</time>
      </trkpt>
      <trkpt lat="42.92981" lon="1.25702">
        <ele>1292</ele>
        <time>2026-06-23T08:19:01.000Z</time>
      </trkpt>
      <trkpt lat="42.9298" lon="1.25706">
        <ele>1292</ele>
        <time>2026-06-23T08:19:02.000Z</time>
      </trkpt>
      <trkpt lat="42.9298" lon="1.25711">
        <ele>1292</ele>
        <time>2026-06-23T08:19:03.000Z</time>
      </trkpt>
      <trkpt lat="42.92981" lon="1.25717">
        <ele>1291</ele>
        <time>2026-06-23T08:19:04.000Z</time>
      </trkpt>
      <trkpt lat="42.92981" lon="1.25722">
        <ele>1291</ele>
        <time>2026-06-23T08:19:05.000Z</time>
      </trkpt>
      <trkpt lat="42.92981" lon="1.25727">
        <ele>1291</ele>
        <time>2026-06-23T08:19:06.000Z</time>
      </trkpt>
      <trkpt lat="42.92981" lon="1.25732">
        <ele>1291</ele>
        <time>2026-06-23T08:19:07.000Z</time>
      </trkpt>
      <trkpt lat="42.92981" lon="1.25736">
        <ele>1290</ele>
        <time>2026-06-23T08:19:08.000Z</time>
      </trkpt>
      <trkpt lat="42.9298" lon="1.25741">
        <ele>1291</ele>
        <time>2026-06-23T08:19:09.000Z</time>
      </trkpt>
      <trkpt lat="42.9298" lon="1.25746">
        <ele>1291</ele>
        <time>2026-06-23T08:19:10.000Z</time>
      </trkpt>
      <trkpt lat="42.9298" lon="1.25752">
        <ele>1291</ele>
        <time>2026-06-23T08:19:11.000Z</time>
      </trkpt>
      <trkpt lat="42.92981" lon="1.25757">
        <ele>1290</ele>
        <time>2026-06-23T08:19:12.000Z</time>
      </trkpt>
      <trkpt lat="42.92982" lon="1.25762">
        <ele>1290</ele>
        <time>2026-06-23T08:19:13.000Z</time>
      </trkpt>
      <trkpt lat="42.92982" lon="1.25767">
        <ele>1290</ele>
        <time>2026-06-23T08:19:14.000Z</time>
      </trkpt>
      <trkpt lat="42.92982" lon="1.25772">
        <ele>1290</ele>
        <time>2026-06-23T08:19:15.000Z</time>
      </trkpt>
      <trkpt lat="42.92982" lon="1.25778">
        <ele>1290</ele>
        <time>2026-06-23T08:19:16.000Z</time>
      </trkpt>
      <trkpt lat="42.92983" lon="1.25783">
        <ele>1290</ele>
        <time>2026-06-23T08:19:17.000Z</time>
      </trkpt>
      <trkpt lat="42.92983" lon="1.25789">
        <ele>1290</ele>
        <time>2026-06-23T08:19:18.000Z</time>
      </trkpt>
      <trkpt lat="42.92983" lon="1.25795">
        <ele>1290</ele>
        <time>2026-06-23T08:19:19.000Z</time>
      </trkpt>
      <trkpt lat="42.92984" lon="1.25799">
        <ele>1290</ele>
        <time>2026-06-23T08:19:20.000Z</time>
      </trkpt>
      <trkpt lat="42.92985" lon="1.25805">
        <ele>1290</ele>
        <time>2026-06-23T08:19:21.000Z</time>
      </trkpt>
      <trkpt lat="42.92986" lon="1.2581">
        <ele>1290</ele>
        <time>2026-06-23T08:19:22.000Z</time>
      </trkpt>
      <trkpt lat="42.92987" lon="1.25816">
        <ele>1290</ele>
        <time>2026-06-23T08:19:23.000Z</time>
      </trkpt>
      <trkpt lat="42.92988" lon="1.25822">
        <ele>1290</ele>
        <time>2026-06-23T08:19:24.000Z</time>
      </trkpt>
      <trkpt lat="42.9299" lon="1.25826">
        <ele>1290</ele>
        <time>2026-06-23T08:19:25.000Z</time>
      </trkpt>
      <trkpt lat="42.92992" lon="1.25831">
        <ele>1291</ele>
        <time>2026-06-23T08:19:26.000Z</time>
      </trkpt>
      <trkpt lat="42.92994" lon="1.25836">
        <ele>1291</ele>
        <time>2026-06-23T08:19:27.000Z</time>
      </trkpt>
      <trkpt lat="42.92997" lon="1.25842">
        <ele>1292</ele>
        <time>2026-06-23T08:19:28.000Z</time>
      </trkpt>
      <trkpt lat="42.93" lon="1.25848">
        <ele>1292</ele>
        <time>2026-06-23T08:19:29.000Z</time>
      </trkpt>
      <trkpt lat="42.93004" lon="1.25852">
        <ele>1292</ele>
        <time>2026-06-23T08:19:30.000Z</time>
      </trkpt>
      <trkpt lat="42.93006" lon="1.25855">
        <ele>1292</ele>
        <time>2026-06-23T08:19:31.000Z</time>
      </trkpt>
      <trkpt lat="42.93008" lon="1.25859">
        <ele>1293</ele>
        <time>2026-06-23T08:19:32.000Z</time>
      </trkpt>
      <trkpt lat="42.93009" lon="1.25863">
        <ele>1292</ele>
        <time>2026-06-23T08:19:33.000Z</time>
      </trkpt>
      <trkpt lat="42.9301" lon="1.25867">
        <ele>1292</ele>
        <time>2026-06-23T08:19:34.000Z</time>
      </trkpt>
      <trkpt lat="42.93011" lon="1.25871">
        <ele>1292</ele>
        <time>2026-06-23T08:19:35.000Z</time>
      </trkpt>
      <trkpt lat="42.93012" lon="1.25874">
        <ele>1293</ele>
        <time>2026-06-23T08:19:36.000Z</time>
      </trkpt>
      <trkpt lat="42.93013" lon="1.25878">
        <ele>1293</ele>
        <time>2026-06-23T08:19:37.000Z</time>
      </trkpt>
      <trkpt lat="42.93015" lon="1.25882">
        <ele>1293</ele>
        <time>2026-06-23T08:19:38.000Z</time>
      </trkpt>
      <trkpt lat="42.93017" lon="1.25886">
        <ele>1293</ele>
        <time>2026-06-23T08:19:39.000Z</time>
      </trkpt>
      <trkpt lat="42.93019" lon="1.2589">
        <ele>1293</ele>
        <time>2026-06-23T08:19:40.000Z</time>
      </trkpt>
      <trkpt lat="42.9302" lon="1.25894">
        <ele>1293</ele>
        <time>2026-06-23T08:19:41.000Z</time>
      </trkpt>
      <trkpt lat="42.93021" lon="1.25898">
        <ele>1294</ele>
        <time>2026-06-23T08:19:42.000Z</time>
      </trkpt>
      <trkpt lat="42.93023" lon="1.25902">
        <ele>1294</ele>
        <time>2026-06-23T08:19:43.000Z</time>
      </trkpt>
      <trkpt lat="42.93023" lon="1.25906">
        <ele>1295</ele>
        <time>2026-06-23T08:19:44.000Z</time>
      </trkpt>
      <trkpt lat="42.93025" lon="1.2591">
        <ele>1294</ele>
        <time>2026-06-23T08:19:45.000Z</time>
      </trkpt>
      <trkpt lat="42.93026" lon="1.25915">
        <ele>1294</ele>
        <time>2026-06-23T08:19:46.000Z</time>
      </trkpt>
      <trkpt lat="42.93027" lon="1.25919">
        <ele>1294</ele>
        <time>2026-06-23T08:19:47.000Z</time>
      </trkpt>
      <trkpt lat="42.93028" lon="1.25923">
        <ele>1294</ele>
        <time>2026-06-23T08:19:48.000Z</time>
      </trkpt>
      <trkpt lat="42.93029" lon="1.25928">
        <ele>1294</ele>
        <time>2026-06-23T08:19:49.000Z</time>
      </trkpt>
      <trkpt lat="42.93031" lon="1.25932">
        <ele>1294</ele>
        <time>2026-06-23T08:19:50.000Z</time>
      </trkpt>
      <trkpt lat="42.93032" lon="1.25936">
        <ele>1293</ele>
        <time>2026-06-23T08:19:51.000Z</time>
      </trkpt>
      <trkpt lat="42.93032" lon="1.25941">
        <ele>1294</ele>
        <time>2026-06-23T08:19:52.000Z</time>
      </trkpt>
      <trkpt lat="42.93034" lon="1.25945">
        <ele>1293</ele>
        <time>2026-06-23T08:19:53.000Z</time>
      </trkpt>
      <trkpt lat="42.93036" lon="1.25948">
        <ele>1293</ele>
        <time>2026-06-23T08:19:54.000Z</time>
      </trkpt>
      <trkpt lat="42.93038" lon="1.25953">
        <ele>1293</ele>
        <time>2026-06-23T08:19:55.000Z</time>
      </trkpt>
      <trkpt lat="42.93041" lon="1.25957">
        <ele>1293</ele>
        <time>2026-06-23T08:19:56.000Z</time>
      </trkpt>
      <trkpt lat="42.93042" lon="1.25962">
        <ele>1293</ele>
        <time>2026-06-23T08:19:57.000Z</time>
      </trkpt>
      <trkpt lat="42.93044" lon="1.25967">
        <ele>1292</ele>
        <time>2026-06-23T08:19:58.000Z</time>
      </trkpt>
      <trkpt lat="42.93045" lon="1.25971">
        <ele>1292</ele>
        <time>2026-06-23T08:19:59.000Z</time>
      </trkpt>
      <trkpt lat="42.93046" lon="1.25976">
        <ele>1292</ele>
        <time>2026-06-23T08:20:00.000Z</time>
      </trkpt>
      <trkpt lat="42.93045" lon="1.25983">
        <ele>1292</ele>
        <time>2026-06-23T08:20:01.000Z</time>
      </trkpt>
      <trkpt lat="42.93044" lon="1.25989">
        <ele>1293</ele>
        <time>2026-06-23T08:20:02.000Z</time>
      </trkpt>
      <trkpt lat="42.93043" lon="1.25995">
        <ele>1294</ele>
        <time>2026-06-23T08:20:03.000Z</time>
      </trkpt>
      <trkpt lat="42.93042" lon="1.26001">
        <ele>1294</ele>
        <time>2026-06-23T08:20:04.000Z</time>
      </trkpt>
      <trkpt lat="42.93041" lon="1.26007">
        <ele>1295</ele>
        <time>2026-06-23T08:20:05.000Z</time>
      </trkpt>
      <trkpt lat="42.93041" lon="1.26012">
        <ele>1295</ele>
        <time>2026-06-23T08:20:06.000Z</time>
      </trkpt>
      <trkpt lat="42.93041" lon="1.26017">
        <ele>1295</ele>
        <time>2026-06-23T08:20:07.000Z</time>
      </trkpt>
      <trkpt lat="42.9304" lon="1.26022">
        <ele>1296</ele>
        <time>2026-06-23T08:20:08.000Z</time>
      </trkpt>
      <trkpt lat="42.93039" lon="1.26026">
        <ele>1296</ele>
        <time>2026-06-23T08:20:09.000Z</time>
      </trkpt>
      <trkpt lat="42.93037" lon="1.26031">
        <ele>1296</ele>
        <time>2026-06-23T08:20:10.000Z</time>
      </trkpt>
      <trkpt lat="42.93036" lon="1.26036">
        <ele>1296</ele>
        <time>2026-06-23T08:20:11.000Z</time>
      </trkpt>
      <trkpt lat="42.93035" lon="1.26041">
        <ele>1296</ele>
        <time>2026-06-23T08:20:12.000Z</time>
      </trkpt>
      <trkpt lat="42.93035" lon="1.26046">
        <ele>1296</ele>
        <time>2026-06-23T08:20:13.000Z</time>
      </trkpt>
      <trkpt lat="42.93035" lon="1.26051">
        <ele>1296</ele>
        <time>2026-06-23T08:20:14.000Z</time>
      </trkpt>
      <trkpt lat="42.93035" lon="1.26055">
        <ele>1297</ele>
        <time>2026-06-23T08:20:15.000Z</time>
      </trkpt>
      <trkpt lat="42.93035" lon="1.2606">
        <ele>1297</ele>
        <time>2026-06-23T08:20:16.000Z</time>
      </trkpt>
      <trkpt lat="42.93035" lon="1.26066">
        <ele>1297</ele>
        <time>2026-06-23T08:20:17.000Z</time>
      </trkpt>
      <trkpt lat="42.93035" lon="1.2607">
        <ele>1297</ele>
        <time>2026-06-23T08:20:18.000Z</time>
      </trkpt>
      <trkpt lat="42.93035" lon="1.26076">
        <ele>1297</ele>
        <time>2026-06-23T08:20:19.000Z</time>
      </trkpt>
      <trkpt lat="42.93036" lon="1.26081">
        <ele>1297</ele>
        <time>2026-06-23T08:20:20.000Z</time>
      </trkpt>
      <trkpt lat="42.93036" lon="1.26086">
        <ele>1297</ele>
        <time>2026-06-23T08:20:21.000Z</time>
      </trkpt>
      <trkpt lat="42.93037" lon="1.26091">
        <ele>1297</ele>
        <time>2026-06-23T08:20:22.000Z</time>
      </trkpt>
      <trkpt lat="42.93039" lon="1.26097">
        <ele>1297</ele>
        <time>2026-06-23T08:20:23.000Z</time>
      </trkpt>
      <trkpt lat="42.9304" lon="1.26103">
        <ele>1297</ele>
        <time>2026-06-23T08:20:24.000Z</time>
      </trkpt>
      <trkpt lat="42.93041" lon="1.26109">
        <ele>1297</ele>
        <time>2026-06-23T08:20:25.000Z</time>
      </trkpt>
      <trkpt lat="42.93043" lon="1.26115">
        <ele>1297</ele>
        <time>2026-06-23T08:20:26.000Z</time>
      </trkpt>
      <trkpt lat="42.93044" lon="1.26121">
        <ele>1297</ele>
        <time>2026-06-23T08:20:27.000Z</time>
      </trkpt>
      <trkpt lat="42.93044" lon="1.26127">
        <ele>1298</ele>
        <time>2026-06-23T08:20:28.000Z</time>
      </trkpt>
      <trkpt lat="42.93045" lon="1.26133">
        <ele>1299</ele>
        <time>2026-06-23T08:20:29.000Z</time>
      </trkpt>
      <trkpt lat="42.93045" lon="1.26139">
        <ele>1299</ele>
        <time>2026-06-23T08:20:30.000Z</time>
      </trkpt>
      <trkpt lat="42.93046" lon="1.26145">
        <ele>1299</ele>
        <time>2026-06-23T08:20:31.000Z</time>
      </trkpt>
      <trkpt lat="42.93047" lon="1.26151">
        <ele>1299</ele>
        <time>2026-06-23T08:20:32.000Z</time>
      </trkpt>
      <trkpt lat="42.93047" lon="1.26156">
        <ele>1300</ele>
        <time>2026-06-23T08:20:33.000Z</time>
      </trkpt>
      <trkpt lat="42.93049" lon="1.26163">
        <ele>1299</ele>
        <time>2026-06-23T08:20:34.000Z</time>
      </trkpt>
      <trkpt lat="42.93049" lon="1.26169">
        <ele>1299</ele>
        <time>2026-06-23T08:20:35.000Z</time>
      </trkpt>
      <trkpt lat="42.93051" lon="1.26175">
        <ele>1299</ele>
        <time>2026-06-23T08:20:36.000Z</time>
      </trkpt>
      <trkpt lat="42.93053" lon="1.2618">
        <ele>1299</ele>
        <time>2026-06-23T08:20:37.000Z</time>
      </trkpt>
      <trkpt lat="42.93055" lon="1.26186">
        <ele>1300</ele>
        <time>2026-06-23T08:20:38.000Z</time>
      </trkpt>
      <trkpt lat="42.93058" lon="1.26191">
        <ele>1300</ele>
        <time>2026-06-23T08:20:39.000Z</time>
      </trkpt>
      <trkpt lat="42.9306" lon="1.26195">
        <ele>1300</ele>
        <time>2026-06-23T08:20:40.000Z</time>
      </trkpt>
      <trkpt lat="42.93064" lon="1.26198">
        <ele>1299</ele>
        <time>2026-06-23T08:20:41.000Z</time>
      </trkpt>
      <trkpt lat="42.93068" lon="1.26201">
        <ele>1298</ele>
        <time>2026-06-23T08:20:42.000Z</time>
      </trkpt>
      <trkpt lat="42.93072" lon="1.26205">
        <ele>1297</ele>
        <time>2026-06-23T08:20:43.000Z</time>
      </trkpt>
      <trkpt lat="42.93077" lon="1.26208">
        <ele>1297</ele>
        <time>2026-06-23T08:20:44.000Z</time>
      </trkpt>
      <trkpt lat="42.93083" lon="1.26211">
        <ele>1295</ele>
        <time>2026-06-23T08:20:45.000Z</time>
      </trkpt>
      <trkpt lat="42.93087" lon="1.26212">
        <ele>1295</ele>
        <time>2026-06-23T08:20:46.000Z</time>
      </trkpt>
      <trkpt lat="42.93093" lon="1.26213">
        <ele>1294</ele>
        <time>2026-06-23T08:20:47.000Z</time>
      </trkpt>
      <trkpt lat="42.931" lon="1.26216">
        <ele>1293</ele>
        <time>2026-06-23T08:20:48.000Z</time>
      </trkpt>
      <trkpt lat="42.93107" lon="1.26218">
        <ele>1292</ele>
        <time>2026-06-23T08:20:49.000Z</time>
      </trkpt>
      <trkpt lat="42.93114" lon="1.26222">
        <ele>1291</ele>
        <time>2026-06-23T08:20:50.000Z</time>
      </trkpt>
      <trkpt lat="42.93121" lon="1.26226">
        <ele>1289</ele>
        <time>2026-06-23T08:20:51.000Z</time>
      </trkpt>
      <trkpt lat="42.93128" lon="1.26229">
        <ele>1288</ele>
        <time>2026-06-23T08:20:52.000Z</time>
      </trkpt>
      <trkpt lat="42.93134" lon="1.26233">
        <ele>1287</ele>
        <time>2026-06-23T08:20:53.000Z</time>
      </trkpt>
      <trkpt lat="42.93139" lon="1.26238">
        <ele>1286</ele>
        <time>2026-06-23T08:20:54.000Z</time>
      </trkpt>
      <trkpt lat="42.93144" lon="1.26242">
        <ele>1286</ele>
        <time>2026-06-23T08:20:55.000Z</time>
      </trkpt>
      <trkpt lat="42.93148" lon="1.26248">
        <ele>1286</ele>
        <time>2026-06-23T08:20:56.000Z</time>
      </trkpt>
      <trkpt lat="42.93152" lon="1.26253">
        <ele>1286</ele>
        <time>2026-06-23T08:20:57.000Z</time>
      </trkpt>
      <trkpt lat="42.93154" lon="1.26258">
        <ele>1286</ele>
        <time>2026-06-23T08:20:58.000Z</time>
      </trkpt>
      <trkpt lat="42.93157" lon="1.26265">
        <ele>1285</ele>
        <time>2026-06-23T08:20:59.000Z</time>
      </trkpt>
      <trkpt lat="42.9316" lon="1.26272">
        <ele>1286</ele>
        <time>2026-06-23T08:21:00.000Z</time>
      </trkpt>
      <trkpt lat="42.93164" lon="1.26277">
        <ele>1285</ele>
        <time>2026-06-23T08:21:01.000Z</time>
      </trkpt>
      <trkpt lat="42.93166" lon="1.26284">
        <ele>1285</ele>
        <time>2026-06-23T08:21:02.000Z</time>
      </trkpt>
      <trkpt lat="42.93167" lon="1.26292">
        <ele>1285</ele>
        <time>2026-06-23T08:21:03.000Z</time>
      </trkpt>
      <trkpt lat="42.93167" lon="1.26301">
        <ele>1285</ele>
        <time>2026-06-23T08:21:04.000Z</time>
      </trkpt>
      <trkpt lat="42.93165" lon="1.2631">
        <ele>1285</ele>
        <time>2026-06-23T08:21:05.000Z</time>
      </trkpt>
      <trkpt lat="42.93163" lon="1.26318">
        <ele>1285</ele>
        <time>2026-06-23T08:21:06.000Z</time>
      </trkpt>
      <trkpt lat="42.93161" lon="1.26326">
        <ele>1285</ele>
        <time>2026-06-23T08:21:07.000Z</time>
      </trkpt>
      <trkpt lat="42.9316" lon="1.26335">
        <ele>1285</ele>
        <time>2026-06-23T08:21:08.000Z</time>
      </trkpt>
      <trkpt lat="42.93159" lon="1.26344">
        <ele>1285</ele>
        <time>2026-06-23T08:21:09.000Z</time>
      </trkpt>
      <trkpt lat="42.9316" lon="1.26352">
        <ele>1285</ele>
        <time>2026-06-23T08:21:10.000Z</time>
      </trkpt>
      <trkpt lat="42.93161" lon="1.26357">
        <ele>1287</ele>
        <time>2026-06-23T08:21:11.000Z</time>
      </trkpt>
      <trkpt lat="42.93167" lon="1.26361">
        <ele>1287</ele>
        <time>2026-06-23T08:21:12.000Z</time>
      </trkpt>
      <trkpt lat="42.93172" lon="1.26365">
        <ele>1287</ele>
        <time>2026-06-23T08:21:13.000Z</time>
      </trkpt>
      <trkpt lat="42.93178" lon="1.26367">
        <ele>1287</ele>
        <time>2026-06-23T08:21:14.000Z</time>
      </trkpt>
      <trkpt lat="42.93184" lon="1.2637">
        <ele>1286</ele>
        <time>2026-06-23T08:21:15.000Z</time>
      </trkpt>
      <trkpt lat="42.9319" lon="1.26374">
        <ele>1286</ele>
        <time>2026-06-23T08:21:16.000Z</time>
      </trkpt>
      <trkpt lat="42.93196" lon="1.26377">
        <ele>1286</ele>
        <time>2026-06-23T08:21:17.000Z</time>
      </trkpt>
      <trkpt lat="42.932" lon="1.26382">
        <ele>1285</ele>
        <time>2026-06-23T08:21:18.000Z</time>
      </trkpt>
      <trkpt lat="42.93202" lon="1.2639">
        <ele>1285</ele>
        <time>2026-06-23T08:21:19.000Z</time>
      </trkpt>
      <trkpt lat="42.93203" lon="1.26399">
        <ele>1286</ele>
        <time>2026-06-23T08:21:20.000Z</time>
      </trkpt>
      <trkpt lat="42.93203" lon="1.26407">
        <ele>1286</ele>
        <time>2026-06-23T08:21:21.000Z</time>
      </trkpt>
      <trkpt lat="42.93202" lon="1.26416">
        <ele>1286</ele>
        <time>2026-06-23T08:21:22.000Z</time>
      </trkpt>
      <trkpt lat="42.932" lon="1.26424">
        <ele>1286</ele>
        <time>2026-06-23T08:21:23.000Z</time>
      </trkpt>
      <trkpt lat="42.93198" lon="1.26431">
        <ele>1286</ele>
        <time>2026-06-23T08:21:24.000Z</time>
      </trkpt>
      <trkpt lat="42.93194" lon="1.26438">
        <ele>1286</ele>
        <time>2026-06-23T08:21:25.000Z</time>
      </trkpt>
      <trkpt lat="42.93191" lon="1.26446">
        <ele>1287</ele>
        <time>2026-06-23T08:21:26.000Z</time>
      </trkpt>
      <trkpt lat="42.93189" lon="1.26452">
        <ele>1287</ele>
        <time>2026-06-23T08:21:27.000Z</time>
      </trkpt>
      <trkpt lat="42.93186" lon="1.26458">
        <ele>1288</ele>
        <time>2026-06-23T08:21:28.000Z</time>
      </trkpt>
      <trkpt lat="42.93182" lon="1.26466">
        <ele>1288</ele>
        <time>2026-06-23T08:21:29.000Z</time>
      </trkpt>
      <trkpt lat="42.9318" lon="1.26472">
        <ele>1287</ele>
        <time>2026-06-23T08:21:30.000Z</time>
      </trkpt>
      <trkpt lat="42.93177" lon="1.26479">
        <ele>1287</ele>
        <time>2026-06-23T08:21:31.000Z</time>
      </trkpt>
      <trkpt lat="42.93175" lon="1.26487">
        <ele>1287</ele>
        <time>2026-06-23T08:21:32.000Z</time>
      </trkpt>
      <trkpt lat="42.93173" lon="1.26495">
        <ele>1288</ele>
        <time>2026-06-23T08:21:33.000Z</time>
      </trkpt>
      <trkpt lat="42.93171" lon="1.26502">
        <ele>1288</ele>
        <time>2026-06-23T08:21:34.000Z</time>
      </trkpt>
      <trkpt lat="42.93168" lon="1.26511">
        <ele>1291</ele>
        <time>2026-06-23T08:21:35.000Z</time>
      </trkpt>
      <trkpt lat="42.93166" lon="1.26518">
        <ele>1292</ele>
        <time>2026-06-23T08:21:36.000Z</time>
      </trkpt>
      <trkpt lat="42.93164" lon="1.26525">
        <ele>1292</ele>
        <time>2026-06-23T08:21:37.000Z</time>
      </trkpt>
      <trkpt lat="42.93162" lon="1.26532">
        <ele>1293</ele>
        <time>2026-06-23T08:21:38.000Z</time>
      </trkpt>
      <trkpt lat="42.93161" lon="1.26538">
        <ele>1293</ele>
        <time>2026-06-23T08:21:39.000Z</time>
      </trkpt>
      <trkpt lat="42.93159" lon="1.26546">
        <ele>1294</ele>
        <time>2026-06-23T08:21:40.000Z</time>
      </trkpt>
      <trkpt lat="42.93158" lon="1.26554">
        <ele>1295</ele>
        <time>2026-06-23T08:21:41.000Z</time>
      </trkpt>
      <trkpt lat="42.93157" lon="1.26561">
        <ele>1296</ele>
        <time>2026-06-23T08:21:42.000Z</time>
      </trkpt>
      <trkpt lat="42.93155" lon="1.26569">
        <ele>1298</ele>
        <time>2026-06-23T08:21:43.000Z</time>
      </trkpt>
      <trkpt lat="42.93154" lon="1.26578">
        <ele>1298</ele>
        <time>2026-06-23T08:21:44.000Z</time>
      </trkpt>
      <trkpt lat="42.93153" lon="1.26586">
        <ele>1299</ele>
        <time>2026-06-23T08:21:45.000Z</time>
      </trkpt>
      <trkpt lat="42.93152" lon="1.26593">
        <ele>1299</ele>
        <time>2026-06-23T08:21:46.000Z</time>
      </trkpt>
      <trkpt lat="42.93152" lon="1.266">
        <ele>1299</ele>
        <time>2026-06-23T08:21:47.000Z</time>
      </trkpt>
      <trkpt lat="42.93151" lon="1.26608">
        <ele>1299</ele>
        <time>2026-06-23T08:21:48.000Z</time>
      </trkpt>
      <trkpt lat="42.9315" lon="1.26616">
        <ele>1299</ele>
        <time>2026-06-23T08:21:49.000Z</time>
      </trkpt>
      <trkpt lat="42.93149" lon="1.26623">
        <ele>1299</ele>
        <time>2026-06-23T08:21:50.000Z</time>
      </trkpt>
      <trkpt lat="42.93149" lon="1.26631">
        <ele>1299</ele>
        <time>2026-06-23T08:21:51.000Z</time>
      </trkpt>
      <trkpt lat="42.93148" lon="1.26637">
        <ele>1299</ele>
        <time>2026-06-23T08:21:52.000Z</time>
      </trkpt>
      <trkpt lat="42.93148" lon="1.26644">
        <ele>1300</ele>
        <time>2026-06-23T08:21:53.000Z</time>
      </trkpt>
      <trkpt lat="42.93147" lon="1.26651">
        <ele>1300</ele>
        <time>2026-06-23T08:21:54.000Z</time>
      </trkpt>
      <trkpt lat="42.93148" lon="1.26657">
        <ele>1300</ele>
        <time>2026-06-23T08:21:55.000Z</time>
      </trkpt>
      <trkpt lat="42.93148" lon="1.26665">
        <ele>1301</ele>
        <time>2026-06-23T08:21:56.000Z</time>
      </trkpt>
      <trkpt lat="42.93149" lon="1.26672">
        <ele>1302</ele>
        <time>2026-06-23T08:21:57.000Z</time>
      </trkpt>
      <trkpt lat="42.93149" lon="1.26679">
        <ele>1302</ele>
        <time>2026-06-23T08:21:58.000Z</time>
      </trkpt>
      <trkpt lat="42.93151" lon="1.26687">
        <ele>1301</ele>
        <time>2026-06-23T08:21:59.000Z</time>
      </trkpt>
      <trkpt lat="42.93152" lon="1.26693">
        <ele>1301</ele>
        <time>2026-06-23T08:22:00.000Z</time>
      </trkpt>
      <trkpt lat="42.93154" lon="1.26699">
        <ele>1301</ele>
        <time>2026-06-23T08:22:01.000Z</time>
      </trkpt>
      <trkpt lat="42.93156" lon="1.26706">
        <ele>1301</ele>
        <time>2026-06-23T08:22:02.000Z</time>
      </trkpt>
      <trkpt lat="42.93159" lon="1.26712">
        <ele>1301</ele>
        <time>2026-06-23T08:22:03.000Z</time>
      </trkpt>
      <trkpt lat="42.93163" lon="1.26717">
        <ele>1300</ele>
        <time>2026-06-23T08:22:04.000Z</time>
      </trkpt>
      <trkpt lat="42.93166" lon="1.26722">
        <ele>1301</ele>
        <time>2026-06-23T08:22:05.000Z</time>
      </trkpt>
      <trkpt lat="42.9317" lon="1.26726">
        <ele>1301</ele>
        <time>2026-06-23T08:22:06.000Z</time>
      </trkpt>
      <trkpt lat="42.93173" lon="1.2673">
        <ele>1301</ele>
        <time>2026-06-23T08:22:07.000Z</time>
      </trkpt>
      <trkpt lat="42.93176" lon="1.26734">
        <ele>1301</ele>
        <time>2026-06-23T08:22:08.000Z</time>
      </trkpt>
      <trkpt lat="42.93178" lon="1.26738">
        <ele>1301</ele>
        <time>2026-06-23T08:22:09.000Z</time>
      </trkpt>
      <trkpt lat="42.93181" lon="1.26742">
        <ele>1301</ele>
        <time>2026-06-23T08:22:10.000Z</time>
      </trkpt>
      <trkpt lat="42.93186" lon="1.26746">
        <ele>1300</ele>
        <time>2026-06-23T08:22:11.000Z</time>
      </trkpt>
      <trkpt lat="42.93191" lon="1.26748">
        <ele>1300</ele>
        <time>2026-06-23T08:22:12.000Z</time>
      </trkpt>
      <trkpt lat="42.93196" lon="1.26751">
        <ele>1300</ele>
        <time>2026-06-23T08:22:13.000Z</time>
      </trkpt>
      <trkpt lat="42.93202" lon="1.26753">
        <ele>1300</ele>
        <time>2026-06-23T08:22:14.000Z</time>
      </trkpt>
      <trkpt lat="42.93208" lon="1.26754">
        <ele>1299</ele>
        <time>2026-06-23T08:22:15.000Z</time>
      </trkpt>
      <trkpt lat="42.93214" lon="1.26753">
        <ele>1297</ele>
        <time>2026-06-23T08:22:16.000Z</time>
      </trkpt>
      <trkpt lat="42.9322" lon="1.26752">
        <ele>1296</ele>
        <time>2026-06-23T08:22:17.000Z</time>
      </trkpt>
      <trkpt lat="42.93225" lon="1.2675">
        <ele>1295</ele>
        <time>2026-06-23T08:22:18.000Z</time>
      </trkpt>
      <trkpt lat="42.9323" lon="1.26747">
        <ele>1294</ele>
        <time>2026-06-23T08:22:19.000Z</time>
      </trkpt>
      <trkpt lat="42.93236" lon="1.26743">
        <ele>1292</ele>
        <time>2026-06-23T08:22:20.000Z</time>
      </trkpt>
      <trkpt lat="42.93242" lon="1.26739">
        <ele>1291</ele>
        <time>2026-06-23T08:22:21.000Z</time>
      </trkpt>
      <trkpt lat="42.93246" lon="1.26735">
        <ele>1290</ele>
        <time>2026-06-23T08:22:22.000Z</time>
      </trkpt>
      <trkpt lat="42.93252" lon="1.26732">
        <ele>1290</ele>
        <time>2026-06-23T08:22:23.000Z</time>
      </trkpt>
      <trkpt lat="42.93258" lon="1.2673">
        <ele>1288</ele>
        <time>2026-06-23T08:22:24.000Z</time>
      </trkpt>
      <trkpt lat="42.93264" lon="1.26728">
        <ele>1286</ele>
        <time>2026-06-23T08:22:25.000Z</time>
      </trkpt>
      <trkpt lat="42.93269" lon="1.26726">
        <ele>1285</ele>
        <time>2026-06-23T08:22:26.000Z</time>
      </trkpt>
      <trkpt lat="42.93275" lon="1.26723">
        <ele>1285</ele>
        <time>2026-06-23T08:22:27.000Z</time>
      </trkpt>
      <trkpt lat="42.9328" lon="1.2672">
        <ele>1284</ele>
        <time>2026-06-23T08:22:28.000Z</time>
      </trkpt>
      <trkpt lat="42.93285" lon="1.26716">
        <ele>1284</ele>
        <time>2026-06-23T08:22:29.000Z</time>
      </trkpt>
      <trkpt lat="42.9329" lon="1.26713">
        <ele>1284</ele>
        <time>2026-06-23T08:22:30.000Z</time>
      </trkpt>
      <trkpt lat="42.93294" lon="1.2671">
        <ele>1283</ele>
        <time>2026-06-23T08:22:31.000Z</time>
      </trkpt>
      <trkpt lat="42.93299" lon="1.26708">
        <ele>1283</ele>
        <time>2026-06-23T08:22:32.000Z</time>
      </trkpt>
      <trkpt lat="42.93304" lon="1.26705">
        <ele>1283</ele>
        <time>2026-06-23T08:22:33.000Z</time>
      </trkpt>
      <trkpt lat="42.93309" lon="1.26701">
        <ele>1282</ele>
        <time>2026-06-23T08:22:34.000Z</time>
      </trkpt>
      <trkpt lat="42.93314" lon="1.26698">
        <ele>1282</ele>
        <time>2026-06-23T08:22:35.000Z</time>
      </trkpt>
      <trkpt lat="42.9332" lon="1.26695">
        <ele>1281</ele>
        <time>2026-06-23T08:22:36.000Z</time>
      </trkpt>
      <trkpt lat="42.93326" lon="1.26692">
        <ele>1281</ele>
        <time>2026-06-23T08:22:37.000Z</time>
      </trkpt>
      <trkpt lat="42.93331" lon="1.26689">
        <ele>1282</ele>
        <time>2026-06-23T08:22:38.000Z</time>
      </trkpt>
      <trkpt lat="42.93335" lon="1.26686">
        <ele>1282</ele>
        <time>2026-06-23T08:22:39.000Z</time>
      </trkpt>
      <trkpt lat="42.9334" lon="1.26682">
        <ele>1282</ele>
        <time>2026-06-23T08:22:40.000Z</time>
      </trkpt>
      <trkpt lat="42.93345" lon="1.26679">
        <ele>1282</ele>
        <time>2026-06-23T08:22:41.000Z</time>
      </trkpt>
      <trkpt lat="42.9335" lon="1.26677">
        <ele>1282</ele>
        <time>2026-06-23T08:22:42.000Z</time>
      </trkpt>
      <trkpt lat="42.93357" lon="1.26677">
        <ele>1283</ele>
        <time>2026-06-23T08:22:43.000Z</time>
      </trkpt>
      <trkpt lat="42.93362" lon="1.26679">
        <ele>1283</ele>
        <time>2026-06-23T08:22:44.000Z</time>
      </trkpt>
      <trkpt lat="42.93365" lon="1.26682">
        <ele>1282</ele>
        <time>2026-06-23T08:22:45.000Z</time>
      </trkpt>
      <trkpt lat="42.93368" lon="1.26686">
        <ele>1282</ele>
        <time>2026-06-23T08:22:46.000Z</time>
      </trkpt>
      <trkpt lat="42.9337" lon="1.26691">
        <ele>1282</ele>
        <time>2026-06-23T08:22:47.000Z</time>
      </trkpt>
      <trkpt lat="42.93371" lon="1.26695">
        <ele>1282</ele>
        <time>2026-06-23T08:22:48.000Z</time>
      </trkpt>
      <trkpt lat="42.93371" lon="1.267">
        <ele>1282</ele>
        <time>2026-06-23T08:22:49.000Z</time>
      </trkpt>
      <trkpt lat="42.9337" lon="1.26707">
        <ele>1282</ele>
        <time>2026-06-23T08:22:50.000Z</time>
      </trkpt>
      <trkpt lat="42.9337" lon="1.26714">
        <ele>1283</ele>
        <time>2026-06-23T08:22:51.000Z</time>
      </trkpt>
      <trkpt lat="42.93369" lon="1.2672">
        <ele>1283</ele>
        <time>2026-06-23T08:22:52.000Z</time>
      </trkpt>
      <trkpt lat="42.93368" lon="1.26727">
        <ele>1283</ele>
        <time>2026-06-23T08:22:53.000Z</time>
      </trkpt>
      <trkpt lat="42.93368" lon="1.26734">
        <ele>1283</ele>
        <time>2026-06-23T08:22:54.000Z</time>
      </trkpt>
      <trkpt lat="42.93369" lon="1.26739">
        <ele>1283</ele>
        <time>2026-06-23T08:22:55.000Z</time>
      </trkpt>
      <trkpt lat="42.93371" lon="1.26744">
        <ele>1284</ele>
        <time>2026-06-23T08:22:56.000Z</time>
      </trkpt>
      <trkpt lat="42.93375" lon="1.26749">
        <ele>1284</ele>
        <time>2026-06-23T08:22:57.000Z</time>
      </trkpt>
      <trkpt lat="42.93378" lon="1.26754">
        <ele>1285</ele>
        <time>2026-06-23T08:22:58.000Z</time>
      </trkpt>
      <trkpt lat="42.93383" lon="1.26756">
        <ele>1285</ele>
        <time>2026-06-23T08:22:59.000Z</time>
      </trkpt>
      <trkpt lat="42.93388" lon="1.26757">
        <ele>1285</ele>
        <time>2026-06-23T08:23:00.000Z</time>
      </trkpt>
      <trkpt lat="42.93394" lon="1.26757">
        <ele>1286</ele>
        <time>2026-06-23T08:23:01.000Z</time>
      </trkpt>
      <trkpt lat="42.934" lon="1.26757">
        <ele>1286</ele>
        <time>2026-06-23T08:23:02.000Z</time>
      </trkpt>
      <trkpt lat="42.93406" lon="1.26758">
        <ele>1286</ele>
        <time>2026-06-23T08:23:03.000Z</time>
      </trkpt>
      <trkpt lat="42.93412" lon="1.26758">
        <ele>1285</ele>
        <time>2026-06-23T08:23:04.000Z</time>
      </trkpt>
      <trkpt lat="42.93418" lon="1.26759">
        <ele>1284</ele>
        <time>2026-06-23T08:23:05.000Z</time>
      </trkpt>
      <trkpt lat="42.93424" lon="1.26762">
        <ele>1284</ele>
        <time>2026-06-23T08:23:06.000Z</time>
      </trkpt>
      <trkpt lat="42.93429" lon="1.26765">
        <ele>1284</ele>
        <time>2026-06-23T08:23:07.000Z</time>
      </trkpt>
      <trkpt lat="42.93435" lon="1.2677">
        <ele>1283</ele>
        <time>2026-06-23T08:23:08.000Z</time>
      </trkpt>
      <trkpt lat="42.9344" lon="1.26773">
        <ele>1283</ele>
        <time>2026-06-23T08:23:09.000Z</time>
      </trkpt>
      <trkpt lat="42.93444" lon="1.26778">
        <ele>1283</ele>
        <time>2026-06-23T08:23:10.000Z</time>
      </trkpt>
      <trkpt lat="42.93449" lon="1.26783">
        <ele>1283</ele>
        <time>2026-06-23T08:23:11.000Z</time>
      </trkpt>
      <trkpt lat="42.93452" lon="1.26787">
        <ele>1283</ele>
        <time>2026-06-23T08:23:12.000Z</time>
      </trkpt>
      <trkpt lat="42.93455" lon="1.26793">
        <ele>1283</ele>
        <time>2026-06-23T08:23:13.000Z</time>
      </trkpt>
      <trkpt lat="42.93458" lon="1.26799">
        <ele>1282</ele>
        <time>2026-06-23T08:23:14.000Z</time>
      </trkpt>
      <trkpt lat="42.9346" lon="1.26805">
        <ele>1282</ele>
        <time>2026-06-23T08:23:15.000Z</time>
      </trkpt>
      <trkpt lat="42.93462" lon="1.26811">
        <ele>1282</ele>
        <time>2026-06-23T08:23:16.000Z</time>
      </trkpt>
      <trkpt lat="42.93464" lon="1.26815">
        <ele>1282</ele>
        <time>2026-06-23T08:23:17.000Z</time>
      </trkpt>
      <trkpt lat="42.93466" lon="1.26821">
        <ele>1282</ele>
        <time>2026-06-23T08:23:18.000Z</time>
      </trkpt>
      <trkpt lat="42.93467" lon="1.26827">
        <ele>1282</ele>
        <time>2026-06-23T08:23:19.000Z</time>
      </trkpt>
      <trkpt lat="42.93467" lon="1.26833">
        <ele>1282</ele>
        <time>2026-06-23T08:23:20.000Z</time>
      </trkpt>
      <trkpt lat="42.93467" lon="1.26839">
        <ele>1282</ele>
        <time>2026-06-23T08:23:21.000Z</time>
      </trkpt>
      <trkpt lat="42.93466" lon="1.26846">
        <ele>1282</ele>
        <time>2026-06-23T08:23:22.000Z</time>
      </trkpt>
      <trkpt lat="42.93464" lon="1.26854">
        <ele>1283</ele>
        <time>2026-06-23T08:23:23.000Z</time>
      </trkpt>
      <trkpt lat="42.93463" lon="1.26861">
        <ele>1283</ele>
        <time>2026-06-23T08:23:24.000Z</time>
      </trkpt>
      <trkpt lat="42.93463" lon="1.26868">
        <ele>1283</ele>
        <time>2026-06-23T08:23:25.000Z</time>
      </trkpt>
      <trkpt lat="42.93462" lon="1.26875">
        <ele>1283</ele>
        <time>2026-06-23T08:23:26.000Z</time>
      </trkpt>
      <trkpt lat="42.93461" lon="1.26881">
        <ele>1283</ele>
        <time>2026-06-23T08:23:27.000Z</time>
      </trkpt>
      <trkpt lat="42.9346" lon="1.26887">
        <ele>1283</ele>
        <time>2026-06-23T08:23:28.000Z</time>
      </trkpt>
      <trkpt lat="42.9346" lon="1.26895">
        <ele>1284</ele>
        <time>2026-06-23T08:23:29.000Z</time>
      </trkpt>
      <trkpt lat="42.93458" lon="1.26903">
        <ele>1285</ele>
        <time>2026-06-23T08:23:30.000Z</time>
      </trkpt>
      <trkpt lat="42.93457" lon="1.2691">
        <ele>1286</ele>
        <time>2026-06-23T08:23:31.000Z</time>
      </trkpt>
      <trkpt lat="42.93456" lon="1.26917">
        <ele>1286</ele>
        <time>2026-06-23T08:23:32.000Z</time>
      </trkpt>
      <trkpt lat="42.93455" lon="1.26926">
        <ele>1288</ele>
        <time>2026-06-23T08:23:33.000Z</time>
      </trkpt>
      <trkpt lat="42.93454" lon="1.26933">
        <ele>1288</ele>
        <time>2026-06-23T08:23:34.000Z</time>
      </trkpt>
      <trkpt lat="42.93453" lon="1.26941">
        <ele>1289</ele>
        <time>2026-06-23T08:23:35.000Z</time>
      </trkpt>
      <trkpt lat="42.93452" lon="1.26948">
        <ele>1289</ele>
        <time>2026-06-23T08:23:36.000Z</time>
      </trkpt>
      <trkpt lat="42.9345" lon="1.26955">
        <ele>1290</ele>
        <time>2026-06-23T08:23:37.000Z</time>
      </trkpt>
      <trkpt lat="42.93449" lon="1.26962">
        <ele>1290</ele>
        <time>2026-06-23T08:23:38.000Z</time>
      </trkpt>
      <trkpt lat="42.93449" lon="1.26968">
        <ele>1291</ele>
        <time>2026-06-23T08:23:39.000Z</time>
      </trkpt>
      <trkpt lat="42.93448" lon="1.26976">
        <ele>1291</ele>
        <time>2026-06-23T08:23:40.000Z</time>
      </trkpt>
      <trkpt lat="42.93448" lon="1.26983">
        <ele>1292</ele>
        <time>2026-06-23T08:23:41.000Z</time>
      </trkpt>
      <trkpt lat="42.93448" lon="1.2699">
        <ele>1292</ele>
        <time>2026-06-23T08:23:42.000Z</time>
      </trkpt>
      <trkpt lat="42.93448" lon="1.26997">
        <ele>1293</ele>
        <time>2026-06-23T08:23:43.000Z</time>
      </trkpt>
      <trkpt lat="42.9345" lon="1.27003">
        <ele>1293</ele>
        <time>2026-06-23T08:23:44.000Z</time>
      </trkpt>
      <trkpt lat="42.93451" lon="1.27009">
        <ele>1294</ele>
        <time>2026-06-23T08:23:45.000Z</time>
      </trkpt>
      <trkpt lat="42.93453" lon="1.27016">
        <ele>1296</ele>
        <time>2026-06-23T08:23:46.000Z</time>
      </trkpt>
      <trkpt lat="42.93456" lon="1.27023">
        <ele>1296</ele>
        <time>2026-06-23T08:23:47.000Z</time>
      </trkpt>
      <trkpt lat="42.93459" lon="1.27028">
        <ele>1297</ele>
        <time>2026-06-23T08:23:48.000Z</time>
      </trkpt>
      <trkpt lat="42.93461" lon="1.27033">
        <ele>1297</ele>
        <time>2026-06-23T08:23:49.000Z</time>
      </trkpt>
      <trkpt lat="42.93463" lon="1.27038">
        <ele>1297</ele>
        <time>2026-06-23T08:23:50.000Z</time>
      </trkpt>
      <trkpt lat="42.93466" lon="1.27043">
        <ele>1297</ele>
        <time>2026-06-23T08:23:51.000Z</time>
      </trkpt>
      <trkpt lat="42.93468" lon="1.27047">
        <ele>1298</ele>
        <time>2026-06-23T08:23:52.000Z</time>
      </trkpt>
      <trkpt lat="42.93471" lon="1.27053">
        <ele>1298</ele>
        <time>2026-06-23T08:23:53.000Z</time>
      </trkpt>
      <trkpt lat="42.93473" lon="1.27058">
        <ele>1298</ele>
        <time>2026-06-23T08:23:54.000Z</time>
      </trkpt>
      <trkpt lat="42.93475" lon="1.27063">
        <ele>1299</ele>
        <time>2026-06-23T08:23:55.000Z</time>
      </trkpt>
      <trkpt lat="42.93478" lon="1.27069">
        <ele>1299</ele>
        <time>2026-06-23T08:23:56.000Z</time>
      </trkpt>
      <trkpt lat="42.93481" lon="1.27074">
        <ele>1299</ele>
        <time>2026-06-23T08:23:57.000Z</time>
      </trkpt>
      <trkpt lat="42.93486" lon="1.27078">
        <ele>1299</ele>
        <time>2026-06-23T08:23:58.000Z</time>
      </trkpt>
      <trkpt lat="42.93491" lon="1.27082">
        <ele>1299</ele>
        <time>2026-06-23T08:23:59.000Z</time>
      </trkpt>
      <trkpt lat="42.93495" lon="1.27087">
        <ele>1299</ele>
        <time>2026-06-23T08:24:00.000Z</time>
      </trkpt>
      <trkpt lat="42.93499" lon="1.27091">
        <ele>1299</ele>
        <time>2026-06-23T08:24:01.000Z</time>
      </trkpt>
      <trkpt lat="42.93503" lon="1.27096">
        <ele>1299</ele>
        <time>2026-06-23T08:24:02.000Z</time>
      </trkpt>
      <trkpt lat="42.93505" lon="1.271">
        <ele>1299</ele>
        <time>2026-06-23T08:24:03.000Z</time>
      </trkpt>
      <trkpt lat="42.93507" lon="1.27106">
        <ele>1299</ele>
        <time>2026-06-23T08:24:04.000Z</time>
      </trkpt>
      <trkpt lat="42.93507" lon="1.27113">
        <ele>1299</ele>
        <time>2026-06-23T08:24:05.000Z</time>
      </trkpt>
      <trkpt lat="42.93508" lon="1.2712">
        <ele>1299</ele>
        <time>2026-06-23T08:24:06.000Z</time>
      </trkpt>
      <trkpt lat="42.93508" lon="1.27127">
        <ele>1299</ele>
        <time>2026-06-23T08:24:07.000Z</time>
      </trkpt>
      <trkpt lat="42.93507" lon="1.27132">
        <ele>1299</ele>
        <time>2026-06-23T08:24:08.000Z</time>
      </trkpt>
      <trkpt lat="42.93504" lon="1.27137">
        <ele>1300</ele>
        <time>2026-06-23T08:24:09.000Z</time>
      </trkpt>
      <trkpt lat="42.93502" lon="1.27141">
        <ele>1300</ele>
        <time>2026-06-23T08:24:10.000Z</time>
      </trkpt>
      <trkpt lat="42.935" lon="1.27145">
        <ele>1300</ele>
        <time>2026-06-23T08:24:11.000Z</time>
      </trkpt>
      <trkpt lat="42.93498" lon="1.27149">
        <ele>1300</ele>
        <time>2026-06-23T08:24:12.000Z</time>
      </trkpt>
      <trkpt lat="42.93497" lon="1.27153">
        <ele>1300</ele>
        <time>2026-06-23T08:24:13.000Z</time>
      </trkpt>
      <trkpt lat="42.93495" lon="1.27157">
        <ele>1300</ele>
        <time>2026-06-23T08:24:14.000Z</time>
      </trkpt>
      <trkpt lat="42.93494" lon="1.27162">
        <ele>1300</ele>
        <time>2026-06-23T08:24:15.000Z</time>
      </trkpt>
      <trkpt lat="42.93493" lon="1.27168">
        <ele>1301</ele>
        <time>2026-06-23T08:24:16.000Z</time>
      </trkpt>
      <trkpt lat="42.93491" lon="1.27176">
        <ele>1301</ele>
        <time>2026-06-23T08:24:17.000Z</time>
      </trkpt>
      <trkpt lat="42.93489" lon="1.27182">
        <ele>1301</ele>
        <time>2026-06-23T08:24:18.000Z</time>
      </trkpt>
      <trkpt lat="42.93489" lon="1.27188">
        <ele>1302</ele>
        <time>2026-06-23T08:24:19.000Z</time>
      </trkpt>
      <trkpt lat="42.93489" lon="1.27196">
        <ele>1302</ele>
        <time>2026-06-23T08:24:20.000Z</time>
      </trkpt>
      <trkpt lat="42.93489" lon="1.27202">
        <ele>1302</ele>
        <time>2026-06-23T08:24:21.000Z</time>
      </trkpt>
      <trkpt lat="42.93491" lon="1.27209">
        <ele>1303</ele>
        <time>2026-06-23T08:24:22.000Z</time>
      </trkpt>
      <trkpt lat="42.93494" lon="1.27216">
        <ele>1303</ele>
        <time>2026-06-23T08:24:23.000Z</time>
      </trkpt>
      <trkpt lat="42.93497" lon="1.27222">
        <ele>1303</ele>
        <time>2026-06-23T08:24:24.000Z</time>
      </trkpt>
      <trkpt lat="42.935" lon="1.27228">
        <ele>1303</ele>
        <time>2026-06-23T08:24:25.000Z</time>
      </trkpt>
      <trkpt lat="42.93503" lon="1.27233">
        <ele>1303</ele>
        <time>2026-06-23T08:24:26.000Z</time>
      </trkpt>
      <trkpt lat="42.93506" lon="1.27238">
        <ele>1304</ele>
        <time>2026-06-23T08:24:27.000Z</time>
      </trkpt>
      <trkpt lat="42.93509" lon="1.27244">
        <ele>1303</ele>
        <time>2026-06-23T08:24:28.000Z</time>
      </trkpt>
      <trkpt lat="42.93512" lon="1.2725">
        <ele>1303</ele>
        <time>2026-06-23T08:24:29.000Z</time>
      </trkpt>
      <trkpt lat="42.93514" lon="1.27256">
        <ele>1303</ele>
        <time>2026-06-23T08:24:30.000Z</time>
      </trkpt>
      <trkpt lat="42.93517" lon="1.27263">
        <ele>1302</ele>
        <time>2026-06-23T08:24:31.000Z</time>
      </trkpt>
      <trkpt lat="42.93518" lon="1.27271">
        <ele>1302</ele>
        <time>2026-06-23T08:24:32.000Z</time>
      </trkpt>
      <trkpt lat="42.9352" lon="1.27279">
        <ele>1301</ele>
        <time>2026-06-23T08:24:33.000Z</time>
      </trkpt>
      <trkpt lat="42.9352" lon="1.27286">
        <ele>1301</ele>
        <time>2026-06-23T08:24:34.000Z</time>
      </trkpt>
      <trkpt lat="42.9352" lon="1.27294">
        <ele>1301</ele>
        <time>2026-06-23T08:24:35.000Z</time>
      </trkpt>
      <trkpt lat="42.9352" lon="1.27303">
        <ele>1302</ele>
        <time>2026-06-23T08:24:36.000Z</time>
      </trkpt>
      <trkpt lat="42.93521" lon="1.2731">
        <ele>1302</ele>
        <time>2026-06-23T08:24:37.000Z</time>
      </trkpt>
      <trkpt lat="42.93521" lon="1.27318">
        <ele>1302</ele>
        <time>2026-06-23T08:24:38.000Z</time>
      </trkpt>
      <trkpt lat="42.93521" lon="1.27328">
        <ele>1301</ele>
        <time>2026-06-23T08:24:39.000Z</time>
      </trkpt>
      <trkpt lat="42.93522" lon="1.27335">
        <ele>1302</ele>
        <time>2026-06-23T08:24:40.000Z</time>
      </trkpt>
      <trkpt lat="42.93522" lon="1.27343">
        <ele>1302</ele>
        <time>2026-06-23T08:24:41.000Z</time>
      </trkpt>
      <trkpt lat="42.93523" lon="1.27351">
        <ele>1302</ele>
        <time>2026-06-23T08:24:42.000Z</time>
      </trkpt>
      <trkpt lat="42.93524" lon="1.27358">
        <ele>1302</ele>
        <time>2026-06-23T08:24:43.000Z</time>
      </trkpt>
      <trkpt lat="42.93524" lon="1.27367">
        <ele>1302</ele>
        <time>2026-06-23T08:24:44.000Z</time>
      </trkpt>
      <trkpt lat="42.93525" lon="1.27374">
        <ele>1302</ele>
        <time>2026-06-23T08:24:45.000Z</time>
      </trkpt>
      <trkpt lat="42.93525" lon="1.27382">
        <ele>1302</ele>
        <time>2026-06-23T08:24:46.000Z</time>
      </trkpt>
      <trkpt lat="42.93525" lon="1.27389">
        <ele>1302</ele>
        <time>2026-06-23T08:24:47.000Z</time>
      </trkpt>
      <trkpt lat="42.93525" lon="1.27397">
        <ele>1303</ele>
        <time>2026-06-23T08:24:48.000Z</time>
      </trkpt>
      <trkpt lat="42.93524" lon="1.27405">
        <ele>1303</ele>
        <time>2026-06-23T08:24:49.000Z</time>
      </trkpt>
      <trkpt lat="42.93523" lon="1.27412">
        <ele>1303</ele>
        <time>2026-06-23T08:24:50.000Z</time>
      </trkpt>
      <trkpt lat="42.93522" lon="1.27418">
        <ele>1303</ele>
        <time>2026-06-23T08:24:51.000Z</time>
      </trkpt>
      <trkpt lat="42.9352" lon="1.27424">
        <ele>1304</ele>
        <time>2026-06-23T08:24:52.000Z</time>
      </trkpt>
      <trkpt lat="42.93516" lon="1.27428">
        <ele>1305</ele>
        <time>2026-06-23T08:24:53.000Z</time>
      </trkpt>
      <trkpt lat="42.93513" lon="1.27432">
        <ele>1305</ele>
        <time>2026-06-23T08:24:54.000Z</time>
      </trkpt>
      <trkpt lat="42.93509" lon="1.27435">
        <ele>1305</ele>
        <time>2026-06-23T08:24:55.000Z</time>
      </trkpt>
      <trkpt lat="42.93505" lon="1.2744">
        <ele>1306</ele>
        <time>2026-06-23T08:24:56.000Z</time>
      </trkpt>
      <trkpt lat="42.93501" lon="1.27444">
        <ele>1306</ele>
        <time>2026-06-23T08:24:57.000Z</time>
      </trkpt>
      <trkpt lat="42.93496" lon="1.2745">
        <ele>1307</ele>
        <time>2026-06-23T08:24:58.000Z</time>
      </trkpt>
      <trkpt lat="42.93492" lon="1.27455">
        <ele>1307</ele>
        <time>2026-06-23T08:24:59.000Z</time>
      </trkpt>
      <trkpt lat="42.93488" lon="1.27461">
        <ele>1307</ele>
        <time>2026-06-23T08:25:00.000Z</time>
      </trkpt>
      <trkpt lat="42.93483" lon="1.27467">
        <ele>1307</ele>
        <time>2026-06-23T08:25:01.000Z</time>
      </trkpt>
      <trkpt lat="42.93478" lon="1.27474">
        <ele>1308</ele>
        <time>2026-06-23T08:25:02.000Z</time>
      </trkpt>
      <trkpt lat="42.93474" lon="1.27483">
        <ele>1309</ele>
        <time>2026-06-23T08:25:03.000Z</time>
      </trkpt>
      <trkpt lat="42.93469" lon="1.27488">
        <ele>1309</ele>
        <time>2026-06-23T08:25:04.000Z</time>
      </trkpt>
      <trkpt lat="42.93464" lon="1.27494">
        <ele>1309</ele>
        <time>2026-06-23T08:25:05.000Z</time>
      </trkpt>
      <trkpt lat="42.9346" lon="1.27501">
        <ele>1309</ele>
        <time>2026-06-23T08:25:06.000Z</time>
      </trkpt>
      <trkpt lat="42.93454" lon="1.27509">
        <ele>1309</ele>
        <time>2026-06-23T08:25:07.000Z</time>
      </trkpt>
      <trkpt lat="42.93449" lon="1.27515">
        <ele>1309</ele>
        <time>2026-06-23T08:25:08.000Z</time>
      </trkpt>
      <trkpt lat="42.93444" lon="1.2752">
        <ele>1309</ele>
        <time>2026-06-23T08:25:09.000Z</time>
      </trkpt>
      <trkpt lat="42.9344" lon="1.27526">
        <ele>1309</ele>
        <time>2026-06-23T08:25:10.000Z</time>
      </trkpt>
      <trkpt lat="42.93437" lon="1.27533">
        <ele>1309</ele>
        <time>2026-06-23T08:25:11.000Z</time>
      </trkpt>
      <trkpt lat="42.93434" lon="1.2754">
        <ele>1309</ele>
        <time>2026-06-23T08:25:12.000Z</time>
      </trkpt>
      <trkpt lat="42.9343" lon="1.27547">
        <ele>1310</ele>
        <time>2026-06-23T08:25:13.000Z</time>
      </trkpt>
      <trkpt lat="42.93427" lon="1.27554">
        <ele>1309</ele>
        <time>2026-06-23T08:25:14.000Z</time>
      </trkpt>
      <trkpt lat="42.93424" lon="1.27561">
        <ele>1309</ele>
        <time>2026-06-23T08:25:15.000Z</time>
      </trkpt>
      <trkpt lat="42.93421" lon="1.27568">
        <ele>1308</ele>
        <time>2026-06-23T08:25:16.000Z</time>
      </trkpt>
      <trkpt lat="42.93418" lon="1.27573">
        <ele>1308</ele>
        <time>2026-06-23T08:25:17.000Z</time>
      </trkpt>
      <trkpt lat="42.93416" lon="1.27578">
        <ele>1308</ele>
        <time>2026-06-23T08:25:18.000Z</time>
      </trkpt>
      <trkpt lat="42.93413" lon="1.27584">
        <ele>1308</ele>
        <time>2026-06-23T08:25:19.000Z</time>
      </trkpt>
      <trkpt lat="42.93411" lon="1.27588">
        <ele>1309</ele>
        <time>2026-06-23T08:25:20.000Z</time>
      </trkpt>
      <trkpt lat="42.93408" lon="1.27592">
        <ele>1308</ele>
        <time>2026-06-23T08:25:21.000Z</time>
      </trkpt>
      <trkpt lat="42.93406" lon="1.27596">
        <ele>1308</ele>
        <time>2026-06-23T08:25:22.000Z</time>
      </trkpt>
      <trkpt lat="42.93402" lon="1.276">
        <ele>1308</ele>
        <time>2026-06-23T08:25:23.000Z</time>
      </trkpt>
      <trkpt lat="42.93398" lon="1.27605">
        <ele>1308</ele>
        <time>2026-06-23T08:25:24.000Z</time>
      </trkpt>
      <trkpt lat="42.93393" lon="1.2761">
        <ele>1309</ele>
        <time>2026-06-23T08:25:25.000Z</time>
      </trkpt>
      <trkpt lat="42.93388" lon="1.27614">
        <ele>1309</ele>
        <time>2026-06-23T08:25:26.000Z</time>
      </trkpt>
      <trkpt lat="42.93382" lon="1.27619">
        <ele>1309</ele>
        <time>2026-06-23T08:25:27.000Z</time>
      </trkpt>
      <trkpt lat="42.93375" lon="1.27624">
        <ele>1309</ele>
        <time>2026-06-23T08:25:28.000Z</time>
      </trkpt>
      <trkpt lat="42.93368" lon="1.27631">
        <ele>1309</ele>
        <time>2026-06-23T08:25:29.000Z</time>
      </trkpt>
      <trkpt lat="42.93361" lon="1.27638">
        <ele>1309</ele>
        <time>2026-06-23T08:25:30.000Z</time>
      </trkpt>
      <trkpt lat="42.93354" lon="1.27645">
        <ele>1308</ele>
        <time>2026-06-23T08:25:31.000Z</time>
      </trkpt>
      <trkpt lat="42.93348" lon="1.27651">
        <ele>1308</ele>
        <time>2026-06-23T08:25:32.000Z</time>
      </trkpt>
      <trkpt lat="42.93342" lon="1.27657">
        <ele>1308</ele>
        <time>2026-06-23T08:25:33.000Z</time>
      </trkpt>
      <trkpt lat="42.93337" lon="1.27662">
        <ele>1308</ele>
        <time>2026-06-23T08:25:34.000Z</time>
      </trkpt>
      <trkpt lat="42.93332" lon="1.27666">
        <ele>1308</ele>
        <time>2026-06-23T08:25:35.000Z</time>
      </trkpt>
      <trkpt lat="42.93328" lon="1.2767">
        <ele>1307</ele>
        <time>2026-06-23T08:25:36.000Z</time>
      </trkpt>
      <trkpt lat="42.93325" lon="1.27674">
        <ele>1307</ele>
        <time>2026-06-23T08:25:37.000Z</time>
      </trkpt>
      <trkpt lat="42.93323" lon="1.2768">
        <ele>1306</ele>
        <time>2026-06-23T08:25:38.000Z</time>
      </trkpt>
      <trkpt lat="42.93318" lon="1.27685">
        <ele>1305</ele>
        <time>2026-06-23T08:25:39.000Z</time>
      </trkpt>
      <trkpt lat="42.93315" lon="1.27689">
        <ele>1305</ele>
        <time>2026-06-23T08:25:40.000Z</time>
      </trkpt>
      <trkpt lat="42.9331" lon="1.27693">
        <ele>1305</ele>
        <time>2026-06-23T08:25:41.000Z</time>
      </trkpt>
      <trkpt lat="42.93307" lon="1.27698">
        <ele>1304</ele>
        <time>2026-06-23T08:25:42.000Z</time>
      </trkpt>
      <trkpt lat="42.93302" lon="1.27703">
        <ele>1303</ele>
        <time>2026-06-23T08:25:43.000Z</time>
      </trkpt>
      <trkpt lat="42.93298" lon="1.27708">
        <ele>1303</ele>
        <time>2026-06-23T08:25:44.000Z</time>
      </trkpt>
      <trkpt lat="42.93295" lon="1.27712">
        <ele>1302</ele>
        <time>2026-06-23T08:25:45.000Z</time>
      </trkpt>
      <trkpt lat="42.93292" lon="1.27715">
        <ele>1302</ele>
        <time>2026-06-23T08:25:46.000Z</time>
      </trkpt>
      <trkpt lat="42.93288" lon="1.27718">
        <ele>1302</ele>
        <time>2026-06-23T08:25:47.000Z</time>
      </trkpt>
      <trkpt lat="42.93285" lon="1.27721">
        <ele>1302</ele>
        <time>2026-06-23T08:25:48.000Z</time>
      </trkpt>
      <trkpt lat="42.9328" lon="1.27726">
        <ele>1303</ele>
        <time>2026-06-23T08:25:49.000Z</time>
      </trkpt>
      <trkpt lat="42.93276" lon="1.27732">
        <ele>1303</ele>
        <time>2026-06-23T08:25:50.000Z</time>
      </trkpt>
      <trkpt lat="42.93272" lon="1.27736">
        <ele>1302</ele>
        <time>2026-06-23T08:25:51.000Z</time>
      </trkpt>
      <trkpt lat="42.93267" lon="1.2774">
        <ele>1302</ele>
        <time>2026-06-23T08:25:52.000Z</time>
      </trkpt>
      <trkpt lat="42.93262" lon="1.27745">
        <ele>1302</ele>
        <time>2026-06-23T08:25:53.000Z</time>
      </trkpt>
      <trkpt lat="42.93258" lon="1.27749">
        <ele>1301</ele>
        <time>2026-06-23T08:25:54.000Z</time>
      </trkpt>
      <trkpt lat="42.93254" lon="1.27753">
        <ele>1301</ele>
        <time>2026-06-23T08:25:55.000Z</time>
      </trkpt>
      <trkpt lat="42.9325" lon="1.27757">
        <ele>1301</ele>
        <time>2026-06-23T08:25:56.000Z</time>
      </trkpt>
      <trkpt lat="42.93246" lon="1.27762">
        <ele>1301</ele>
        <time>2026-06-23T08:25:57.000Z</time>
      </trkpt>
      <trkpt lat="42.93243" lon="1.27768">
        <ele>1301</ele>
        <time>2026-06-23T08:25:58.000Z</time>
      </trkpt>
      <trkpt lat="42.9324" lon="1.27774">
        <ele>1301</ele>
        <time>2026-06-23T08:25:59.000Z</time>
      </trkpt>
      <trkpt lat="42.93238" lon="1.27778">
        <ele>1301</ele>
        <time>2026-06-23T08:26:00.000Z</time>
      </trkpt>
      <trkpt lat="42.93235" lon="1.27782">
        <ele>1300</ele>
        <time>2026-06-23T08:26:01.000Z</time>
      </trkpt>
      <trkpt lat="42.93233" lon="1.27786">
        <ele>1300</ele>
        <time>2026-06-23T08:26:02.000Z</time>
      </trkpt>
      <trkpt lat="42.93229" lon="1.2779">
        <ele>1301</ele>
        <time>2026-06-23T08:26:03.000Z</time>
      </trkpt>
      <trkpt lat="42.93225" lon="1.27793">
        <ele>1301</ele>
        <time>2026-06-23T08:26:04.000Z</time>
      </trkpt>
      <trkpt lat="42.93221" lon="1.27798">
        <ele>1300</ele>
        <time>2026-06-23T08:26:05.000Z</time>
      </trkpt>
      <trkpt lat="42.93216" lon="1.27801">
        <ele>1300</ele>
        <time>2026-06-23T08:26:06.000Z</time>
      </trkpt>
      <trkpt lat="42.93213" lon="1.27804">
        <ele>1300</ele>
        <time>2026-06-23T08:26:07.000Z</time>
      </trkpt>
      <trkpt lat="42.93209" lon="1.27807">
        <ele>1300</ele>
        <time>2026-06-23T08:26:08.000Z</time>
      </trkpt>
      <trkpt lat="42.93203" lon="1.27811">
        <ele>1299</ele>
        <time>2026-06-23T08:26:09.000Z</time>
      </trkpt>
      <trkpt lat="42.93197" lon="1.27813">
        <ele>1299</ele>
        <time>2026-06-23T08:26:10.000Z</time>
      </trkpt>
      <trkpt lat="42.93192" lon="1.27815">
        <ele>1299</ele>
        <time>2026-06-23T08:26:11.000Z</time>
      </trkpt>
      <trkpt lat="42.93186" lon="1.27819">
        <ele>1299</ele>
        <time>2026-06-23T08:26:12.000Z</time>
      </trkpt>
      <trkpt lat="42.9318" lon="1.27823">
        <ele>1299</ele>
        <time>2026-06-23T08:26:13.000Z</time>
      </trkpt>
      <trkpt lat="42.93174" lon="1.27827">
        <ele>1298</ele>
        <time>2026-06-23T08:26:14.000Z</time>
      </trkpt>
      <trkpt lat="42.93168" lon="1.27832">
        <ele>1298</ele>
        <time>2026-06-23T08:26:15.000Z</time>
      </trkpt>
      <trkpt lat="42.93161" lon="1.27838">
        <ele>1298</ele>
        <time>2026-06-23T08:26:16.000Z</time>
      </trkpt>
      <trkpt lat="42.93155" lon="1.27843">
        <ele>1297</ele>
        <time>2026-06-23T08:26:17.000Z</time>
      </trkpt>
      <trkpt lat="42.93148" lon="1.27848">
        <ele>1297</ele>
        <time>2026-06-23T08:26:18.000Z</time>
      </trkpt>
      <trkpt lat="42.93143" lon="1.27853">
        <ele>1296</ele>
        <time>2026-06-23T08:26:19.000Z</time>
      </trkpt>
      <trkpt lat="42.93138" lon="1.27857">
        <ele>1295</ele>
        <time>2026-06-23T08:26:20.000Z</time>
      </trkpt>
      <trkpt lat="42.93133" lon="1.27859">
        <ele>1294</ele>
        <time>2026-06-23T08:26:21.000Z</time>
      </trkpt>
      <trkpt lat="42.93128" lon="1.27861">
        <ele>1294</ele>
        <time>2026-06-23T08:26:22.000Z</time>
      </trkpt>
      <trkpt lat="42.93123" lon="1.27862">
        <ele>1294</ele>
        <time>2026-06-23T08:26:23.000Z</time>
      </trkpt>
      <trkpt lat="42.93119" lon="1.27865">
        <ele>1293</ele>
        <time>2026-06-23T08:26:24.000Z</time>
      </trkpt>
      <trkpt lat="42.93115" lon="1.27866">
        <ele>1293</ele>
        <time>2026-06-23T08:26:25.000Z</time>
      </trkpt>
      <trkpt lat="42.93111" lon="1.27867">
        <ele>1293</ele>
        <time>2026-06-23T08:26:26.000Z</time>
      </trkpt>
      <trkpt lat="42.93107" lon="1.27869">
        <ele>1293</ele>
        <time>2026-06-23T08:26:27.000Z</time>
      </trkpt>
      <trkpt lat="42.93104" lon="1.2787">
        <ele>1293</ele>
        <time>2026-06-23T08:26:28.000Z</time>
      </trkpt>
      <trkpt lat="42.93101" lon="1.27871">
        <ele>1293</ele>
        <time>2026-06-23T08:26:29.000Z</time>
      </trkpt>
      <trkpt lat="42.93097" lon="1.27872">
        <ele>1293</ele>
        <time>2026-06-23T08:26:30.000Z</time>
      </trkpt>
      <trkpt lat="42.93093" lon="1.27873">
        <ele>1293</ele>
        <time>2026-06-23T08:26:31.000Z</time>
      </trkpt>
      <trkpt lat="42.9309" lon="1.27875">
        <ele>1293</ele>
        <time>2026-06-23T08:26:32.000Z</time>
      </trkpt>
      <trkpt lat="42.93085" lon="1.27877">
        <ele>1293</ele>
        <time>2026-06-23T08:26:33.000Z</time>
      </trkpt>
      <trkpt lat="42.93078" lon="1.27879">
        <ele>1292</ele>
        <time>2026-06-23T08:26:34.000Z</time>
      </trkpt>
      <trkpt lat="42.93072" lon="1.27881">
        <ele>1293</ele>
        <time>2026-06-23T08:26:35.000Z</time>
      </trkpt>
      <trkpt lat="42.93066" lon="1.27884">
        <ele>1293</ele>
        <time>2026-06-23T08:26:36.000Z</time>
      </trkpt>
      <trkpt lat="42.93059" lon="1.27886">
        <ele>1293</ele>
        <time>2026-06-23T08:26:37.000Z</time>
      </trkpt>
      <trkpt lat="42.93054" lon="1.27887">
        <ele>1293</ele>
        <time>2026-06-23T08:26:38.000Z</time>
      </trkpt>
      <trkpt lat="42.93049" lon="1.27888">
        <ele>1293</ele>
        <time>2026-06-23T08:26:39.000Z</time>
      </trkpt>
      <trkpt lat="42.93043" lon="1.2789">
        <ele>1293</ele>
        <time>2026-06-23T08:26:40.000Z</time>
      </trkpt>
      <trkpt lat="42.93038" lon="1.27891">
        <ele>1294</ele>
        <time>2026-06-23T08:26:41.000Z</time>
      </trkpt>
      <trkpt lat="42.93031" lon="1.27892">
        <ele>1294</ele>
        <time>2026-06-23T08:26:42.000Z</time>
      </trkpt>
      <trkpt lat="42.93025" lon="1.27893">
        <ele>1294</ele>
        <time>2026-06-23T08:26:43.000Z</time>
      </trkpt>
      <trkpt lat="42.93019" lon="1.27896">
        <ele>1294</ele>
        <time>2026-06-23T08:26:44.000Z</time>
      </trkpt>
      <trkpt lat="42.93012" lon="1.27896">
        <ele>1294</ele>
        <time>2026-06-23T08:26:45.000Z</time>
      </trkpt>
      <trkpt lat="42.93005" lon="1.27897">
        <ele>1295</ele>
        <time>2026-06-23T08:26:46.000Z</time>
      </trkpt>
      <trkpt lat="42.92997" lon="1.27899">
        <ele>1295</ele>
        <time>2026-06-23T08:26:47.000Z</time>
      </trkpt>
      <trkpt lat="42.92989" lon="1.279">
        <ele>1295</ele>
        <time>2026-06-23T08:26:48.000Z</time>
      </trkpt>
      <trkpt lat="42.92982" lon="1.27902">
        <ele>1294</ele>
        <time>2026-06-23T08:26:49.000Z</time>
      </trkpt>
      <trkpt lat="42.92974" lon="1.27904">
        <ele>1294</ele>
        <time>2026-06-23T08:26:50.000Z</time>
      </trkpt>
      <trkpt lat="42.92966" lon="1.27906">
        <ele>1294</ele>
        <time>2026-06-23T08:26:51.000Z</time>
      </trkpt>
      <trkpt lat="42.92959" lon="1.27908">
        <ele>1294</ele>
        <time>2026-06-23T08:26:52.000Z</time>
      </trkpt>
      <trkpt lat="42.92949" lon="1.27912">
        <ele>1294</ele>
        <time>2026-06-23T08:26:53.000Z</time>
      </trkpt>
      <trkpt lat="42.92941" lon="1.27916">
        <ele>1294</ele>
        <time>2026-06-23T08:26:54.000Z</time>
      </trkpt>
      <trkpt lat="42.92933" lon="1.2792">
        <ele>1294</ele>
        <time>2026-06-23T08:26:55.000Z</time>
      </trkpt>
      <trkpt lat="42.92925" lon="1.27924">
        <ele>1294</ele>
        <time>2026-06-23T08:26:56.000Z</time>
      </trkpt>
      <trkpt lat="42.92918" lon="1.27928">
        <ele>1294</ele>
        <time>2026-06-23T08:26:57.000Z</time>
      </trkpt>
      <trkpt lat="42.92911" lon="1.27934">
        <ele>1294</ele>
        <time>2026-06-23T08:26:58.000Z</time>
      </trkpt>
      <trkpt lat="42.92904" lon="1.27939">
        <ele>1294</ele>
        <time>2026-06-23T08:26:59.000Z</time>
      </trkpt>
      <trkpt lat="42.92895" lon="1.27944">
        <ele>1293</ele>
        <time>2026-06-23T08:27:00.000Z</time>
      </trkpt>
      <trkpt lat="42.92886" lon="1.27948">
        <ele>1293</ele>
        <time>2026-06-23T08:27:01.000Z</time>
      </trkpt>
      <trkpt lat="42.92877" lon="1.27954">
        <ele>1293</ele>
        <time>2026-06-23T08:27:02.000Z</time>
      </trkpt>
      <trkpt lat="42.92868" lon="1.27959">
        <ele>1293</ele>
        <time>2026-06-23T08:27:03.000Z</time>
      </trkpt>
      <trkpt lat="42.9286" lon="1.27964">
        <ele>1294</ele>
        <time>2026-06-23T08:27:04.000Z</time>
      </trkpt>
      <trkpt lat="42.92852" lon="1.27968">
        <ele>1293</ele>
        <time>2026-06-23T08:27:05.000Z</time>
      </trkpt>
      <trkpt lat="42.92844" lon="1.27973">
        <ele>1293</ele>
        <time>2026-06-23T08:27:06.000Z</time>
      </trkpt>
      <trkpt lat="42.92836" lon="1.27978">
        <ele>1293</ele>
        <time>2026-06-23T08:27:07.000Z</time>
      </trkpt>
      <trkpt lat="42.92829" lon="1.27982">
        <ele>1292</ele>
        <time>2026-06-23T08:27:08.000Z</time>
      </trkpt>
      <trkpt lat="42.9282" lon="1.27987">
        <ele>1292</ele>
        <time>2026-06-23T08:27:09.000Z</time>
      </trkpt>
      <trkpt lat="42.92809" lon="1.27991">
        <ele>1291</ele>
        <time>2026-06-23T08:27:10.000Z</time>
      </trkpt>
      <trkpt lat="42.928" lon="1.27994">
        <ele>1292</ele>
        <time>2026-06-23T08:27:11.000Z</time>
      </trkpt>
      <trkpt lat="42.92793" lon="1.27996">
        <ele>1292</ele>
        <time>2026-06-23T08:27:12.000Z</time>
      </trkpt>
      <trkpt lat="42.92784" lon="1.27999">
        <ele>1290</ele>
        <time>2026-06-23T08:27:13.000Z</time>
      </trkpt>
      <trkpt lat="42.92776" lon="1.27999">
        <ele>1290</ele>
        <time>2026-06-23T08:27:14.000Z</time>
      </trkpt>
      <trkpt lat="42.92768" lon="1.28">
        <ele>1290</ele>
        <time>2026-06-23T08:27:15.000Z</time>
      </trkpt>
      <trkpt lat="42.92762" lon="1.27999">
        <ele>1290</ele>
        <time>2026-06-23T08:27:16.000Z</time>
      </trkpt>
      <trkpt lat="42.92756" lon="1.27998">
        <ele>1289</ele>
        <time>2026-06-23T08:27:17.000Z</time>
      </trkpt>
      <trkpt lat="42.92749" lon="1.27997">
        <ele>1288</ele>
        <time>2026-06-23T08:27:18.000Z</time>
      </trkpt>
      <trkpt lat="42.92742" lon="1.27997">
        <ele>1288</ele>
        <time>2026-06-23T08:27:19.000Z</time>
      </trkpt>
      <trkpt lat="42.92736" lon="1.27996">
        <ele>1287</ele>
        <time>2026-06-23T08:27:20.000Z</time>
      </trkpt>
      <trkpt lat="42.9273" lon="1.27998">
        <ele>1286</ele>
        <time>2026-06-23T08:27:21.000Z</time>
      </trkpt>
      <trkpt lat="42.92724" lon="1.28">
        <ele>1285</ele>
        <time>2026-06-23T08:27:22.000Z</time>
      </trkpt>
      <trkpt lat="42.92717" lon="1.28005">
        <ele>1284</ele>
        <time>2026-06-23T08:27:23.000Z</time>
      </trkpt>
      <trkpt lat="42.9271" lon="1.28011">
        <ele>1283</ele>
        <time>2026-06-23T08:27:24.000Z</time>
      </trkpt>
      <trkpt lat="42.92708" lon="1.28016">
        <ele>1283</ele>
        <time>2026-06-23T08:27:25.000Z</time>
      </trkpt>
      <trkpt lat="42.92706" lon="1.28021">
        <ele>1283</ele>
        <time>2026-06-23T08:27:26.000Z</time>
      </trkpt>
      <trkpt lat="42.92703" lon="1.28027">
        <ele>1283</ele>
        <time>2026-06-23T08:27:27.000Z</time>
      </trkpt>
      <trkpt lat="42.92697" lon="1.28033">
        <ele>1283</ele>
        <time>2026-06-23T08:27:28.000Z</time>
      </trkpt>
      <trkpt lat="42.92691" lon="1.28038">
        <ele>1283</ele>
        <time>2026-06-23T08:27:29.000Z</time>
      </trkpt>
      <trkpt lat="42.92683" lon="1.28042">
        <ele>1282</ele>
        <time>2026-06-23T08:27:30.000Z</time>
      </trkpt>
      <trkpt lat="42.92675" lon="1.28045">
        <ele>1281</ele>
        <time>2026-06-23T08:27:31.000Z</time>
      </trkpt>
      <trkpt lat="42.92666" lon="1.28049">
        <ele>1281</ele>
        <time>2026-06-23T08:27:32.000Z</time>
      </trkpt>
      <trkpt lat="42.92657" lon="1.28054">
        <ele>1281</ele>
        <time>2026-06-23T08:27:33.000Z</time>
      </trkpt>
      <trkpt lat="42.92648" lon="1.28058">
        <ele>1280</ele>
        <time>2026-06-23T08:27:34.000Z</time>
      </trkpt>
      <trkpt lat="42.92639" lon="1.28061">
        <ele>1280</ele>
        <time>2026-06-23T08:27:35.000Z</time>
      </trkpt>
      <trkpt lat="42.92631" lon="1.28064">
        <ele>1279</ele>
        <time>2026-06-23T08:27:36.000Z</time>
      </trkpt>
      <trkpt lat="42.92621" lon="1.28066">
        <ele>1279</ele>
        <time>2026-06-23T08:27:37.000Z</time>
      </trkpt>
      <trkpt lat="42.92612" lon="1.28066">
        <ele>1278</ele>
        <time>2026-06-23T08:27:38.000Z</time>
      </trkpt>
      <trkpt lat="42.92601" lon="1.28066">
        <ele>1276</ele>
        <time>2026-06-23T08:27:39.000Z</time>
      </trkpt>
      <trkpt lat="42.92591" lon="1.28067">
        <ele>1276</ele>
        <time>2026-06-23T08:27:40.000Z</time>
      </trkpt>
      <trkpt lat="42.9258" lon="1.28069">
        <ele>1275</ele>
        <time>2026-06-23T08:27:41.000Z</time>
      </trkpt>
      <trkpt lat="42.9257" lon="1.28072">
        <ele>1274</ele>
        <time>2026-06-23T08:27:42.000Z</time>
      </trkpt>
      <trkpt lat="42.92559" lon="1.28077">
        <ele>1273</ele>
        <time>2026-06-23T08:27:43.000Z</time>
      </trkpt>
      <trkpt lat="42.92549" lon="1.28081">
        <ele>1273</ele>
        <time>2026-06-23T08:27:44.000Z</time>
      </trkpt>
      <trkpt lat="42.92538" lon="1.28087">
        <ele>1272</ele>
        <time>2026-06-23T08:27:45.000Z</time>
      </trkpt>
      <trkpt lat="42.92528" lon="1.28094">
        <ele>1272</ele>
        <time>2026-06-23T08:27:46.000Z</time>
      </trkpt>
      <trkpt lat="42.92518" lon="1.281">
        <ele>1271</ele>
        <time>2026-06-23T08:27:47.000Z</time>
      </trkpt>
      <trkpt lat="42.92509" lon="1.28107">
        <ele>1270</ele>
        <time>2026-06-23T08:27:48.000Z</time>
      </trkpt>
      <trkpt lat="42.925" lon="1.28113">
        <ele>1269</ele>
        <time>2026-06-23T08:27:49.000Z</time>
      </trkpt>
      <trkpt lat="42.92491" lon="1.28121">
        <ele>1268</ele>
        <time>2026-06-23T08:27:50.000Z</time>
      </trkpt>
      <trkpt lat="42.92482" lon="1.28129">
        <ele>1264</ele>
        <time>2026-06-23T08:27:51.000Z</time>
      </trkpt>
      <trkpt lat="42.92473" lon="1.28136">
        <ele>1262</ele>
        <time>2026-06-23T08:27:52.000Z</time>
      </trkpt>
      <trkpt lat="42.92465" lon="1.28143">
        <ele>1260</ele>
        <time>2026-06-23T08:27:53.000Z</time>
      </trkpt>
      <trkpt lat="42.92456" lon="1.2815">
        <ele>1259</ele>
        <time>2026-06-23T08:27:54.000Z</time>
      </trkpt>
      <trkpt lat="42.92448" lon="1.2816">
        <ele>1258</ele>
        <time>2026-06-23T08:27:55.000Z</time>
      </trkpt>
      <trkpt lat="42.92439" lon="1.28167">
        <ele>1257</ele>
        <time>2026-06-23T08:27:56.000Z</time>
      </trkpt>
      <trkpt lat="42.9243" lon="1.28175">
        <ele>1255</ele>
        <time>2026-06-23T08:27:57.000Z</time>
      </trkpt>
      <trkpt lat="42.92421" lon="1.28182">
        <ele>1254</ele>
        <time>2026-06-23T08:27:58.000Z</time>
      </trkpt>
      <trkpt lat="42.92411" lon="1.28189">
        <ele>1254</ele>
        <time>2026-06-23T08:27:59.000Z</time>
      </trkpt>
      <trkpt lat="42.92402" lon="1.28195">
        <ele>1253</ele>
        <time>2026-06-23T08:28:00.000Z</time>
      </trkpt>
      <trkpt lat="42.92393" lon="1.28202">
        <ele>1252</ele>
        <time>2026-06-23T08:28:01.000Z</time>
      </trkpt>
      <trkpt lat="42.92384" lon="1.28208">
        <ele>1250</ele>
        <time>2026-06-23T08:28:02.000Z</time>
      </trkpt>
      <trkpt lat="42.92375" lon="1.28215">
        <ele>1248</ele>
        <time>2026-06-23T08:28:03.000Z</time>
      </trkpt>
      <trkpt lat="42.92367" lon="1.2822">
        <ele>1247</ele>
        <time>2026-06-23T08:28:04.000Z</time>
      </trkpt>
      <trkpt lat="42.92359" lon="1.28225">
        <ele>1245</ele>
        <time>2026-06-23T08:28:05.000Z</time>
      </trkpt>
      <trkpt lat="42.92352" lon="1.28233">
        <ele>1244</ele>
        <time>2026-06-23T08:28:06.000Z</time>
      </trkpt>
      <trkpt lat="42.92346" lon="1.2824">
        <ele>1243</ele>
        <time>2026-06-23T08:28:07.000Z</time>
      </trkpt>
      <trkpt lat="42.92343" lon="1.28244">
        <ele>1242</ele>
        <time>2026-06-23T08:28:08.000Z</time>
      </trkpt>
      <trkpt lat="42.92342" lon="1.28247">
        <ele>1241</ele>
        <time>2026-06-23T08:28:09.000Z</time>
      </trkpt>
      <trkpt lat="42.92341" lon="1.28248">
        <ele>1241</ele>
        <time>2026-06-23T08:28:10.000Z</time>
      </trkpt>
      <trkpt lat="42.9234" lon="1.28247">
        <ele>1240</ele>
        <time>2026-06-23T08:28:11.000Z</time>
      </trkpt>
      <trkpt lat="42.9234" lon="1.28245">
        <ele>1239</ele>
        <time>2026-06-23T08:28:12.000Z</time>
      </trkpt>
      <trkpt lat="42.92342" lon="1.28241">
        <ele>1239</ele>
        <time>2026-06-23T08:28:13.000Z</time>
      </trkpt>
      <trkpt lat="42.92345" lon="1.28239">
        <ele>1238</ele>
        <time>2026-06-23T08:28:14.000Z</time>
      </trkpt>
      <trkpt lat="42.92349" lon="1.28236">
        <ele>1238</ele>
        <time>2026-06-23T08:28:15.000Z</time>
      </trkpt>
      <trkpt lat="42.92354" lon="1.28231">
        <ele>1237</ele>
        <time>2026-06-23T08:28:16.000Z</time>
      </trkpt>
      <trkpt lat="42.92359" lon="1.28226">
        <ele>1236</ele>
        <time>2026-06-23T08:28:17.000Z</time>
      </trkpt>
      <trkpt lat="42.92364" lon="1.28219">
        <ele>1235</ele>
        <time>2026-06-23T08:28:18.000Z</time>
      </trkpt>
      <trkpt lat="42.92369" lon="1.28212">
        <ele>1236</ele>
        <time>2026-06-23T08:28:19.000Z</time>
      </trkpt>
      <trkpt lat="42.92373" lon="1.28206">
        <ele>1236</ele>
        <time>2026-06-23T08:28:20.000Z</time>
      </trkpt>
      <trkpt lat="42.92377" lon="1.282">
        <ele>1235</ele>
        <time>2026-06-23T08:28:21.000Z</time>
      </trkpt>
      <trkpt lat="42.9238" lon="1.28194">
        <ele>1235</ele>
        <time>2026-06-23T08:28:22.000Z</time>
      </trkpt>
      <trkpt lat="42.92384" lon="1.28187">
        <ele>1235</ele>
        <time>2026-06-23T08:28:23.000Z</time>
      </trkpt>
      <trkpt lat="42.9239" lon="1.2818">
        <ele>1234</ele>
        <time>2026-06-23T08:28:24.000Z</time>
      </trkpt>
      <trkpt lat="42.92394" lon="1.28173">
        <ele>1233</ele>
        <time>2026-06-23T08:28:25.000Z</time>
      </trkpt>
      <trkpt lat="42.92399" lon="1.28167">
        <ele>1233</ele>
        <time>2026-06-23T08:28:26.000Z</time>
      </trkpt>
      <trkpt lat="42.92402" lon="1.2816">
        <ele>1233</ele>
        <time>2026-06-23T08:28:27.000Z</time>
      </trkpt>
      <trkpt lat="42.92406" lon="1.28153">
        <ele>1233</ele>
        <time>2026-06-23T08:28:28.000Z</time>
      </trkpt>
      <trkpt lat="42.92411" lon="1.28145">
        <ele>1233</ele>
        <time>2026-06-23T08:28:29.000Z</time>
      </trkpt>
      <trkpt lat="42.92416" lon="1.28138">
        <ele>1233</ele>
        <time>2026-06-23T08:28:30.000Z</time>
      </trkpt>
      <trkpt lat="42.92423" lon="1.2813">
        <ele>1233</ele>
        <time>2026-06-23T08:28:31.000Z</time>
      </trkpt>
      <trkpt lat="42.92428" lon="1.28121">
        <ele>1233</ele>
        <time>2026-06-23T08:28:32.000Z</time>
      </trkpt>
      <trkpt lat="42.92433" lon="1.2811">
        <ele>1233</ele>
        <time>2026-06-23T08:28:33.000Z</time>
      </trkpt>
      <trkpt lat="42.92435" lon="1.28098">
        <ele>1233</ele>
        <time>2026-06-23T08:28:34.000Z</time>
      </trkpt>
      <trkpt lat="42.92438" lon="1.28086">
        <ele>1233</ele>
        <time>2026-06-23T08:28:35.000Z</time>
      </trkpt>
      <trkpt lat="42.9244" lon="1.28075">
        <ele>1233</ele>
        <time>2026-06-23T08:28:36.000Z</time>
      </trkpt>
      <trkpt lat="42.92442" lon="1.28063">
        <ele>1233</ele>
        <time>2026-06-23T08:28:37.000Z</time>
      </trkpt>
      <trkpt lat="42.92444" lon="1.28052">
        <ele>1234</ele>
        <time>2026-06-23T08:28:38.000Z</time>
      </trkpt>
      <trkpt lat="42.92445" lon="1.28041">
        <ele>1234</ele>
        <time>2026-06-23T08:28:39.000Z</time>
      </trkpt>
      <trkpt lat="42.92448" lon="1.2803">
        <ele>1234</ele>
        <time>2026-06-23T08:28:40.000Z</time>
      </trkpt>
      <trkpt lat="42.92451" lon="1.28019">
        <ele>1234</ele>
        <time>2026-06-23T08:28:41.000Z</time>
      </trkpt>
      <trkpt lat="42.92454" lon="1.28008">
        <ele>1233</ele>
        <time>2026-06-23T08:28:42.000Z</time>
      </trkpt>
      <trkpt lat="42.92457" lon="1.27996">
        <ele>1233</ele>
        <time>2026-06-23T08:28:43.000Z</time>
      </trkpt>
      <trkpt lat="42.92461" lon="1.27984">
        <ele>1233</ele>
        <time>2026-06-23T08:28:44.000Z</time>
      </trkpt>
      <trkpt lat="42.92464" lon="1.27971">
        <ele>1233</ele>
        <time>2026-06-23T08:28:45.000Z</time>
      </trkpt>
      <trkpt lat="42.92466" lon="1.27957">
        <ele>1232</ele>
        <time>2026-06-23T08:28:46.000Z</time>
      </trkpt>
      <trkpt lat="42.92468" lon="1.27945">
        <ele>1231</ele>
        <time>2026-06-23T08:28:47.000Z</time>
      </trkpt>
      <trkpt lat="42.9247" lon="1.27933">
        <ele>1231</ele>
        <time>2026-06-23T08:28:48.000Z</time>
      </trkpt>
      <trkpt lat="42.92472" lon="1.27921">
        <ele>1230</ele>
        <time>2026-06-23T08:28:49.000Z</time>
      </trkpt>
      <trkpt lat="42.92474" lon="1.27908">
        <ele>1230</ele>
        <time>2026-06-23T08:28:50.000Z</time>
      </trkpt>
      <trkpt lat="42.92477" lon="1.27894">
        <ele>1229</ele>
        <time>2026-06-23T08:28:51.000Z</time>
      </trkpt>
      <trkpt lat="42.92481" lon="1.27881">
        <ele>1229</ele>
        <time>2026-06-23T08:28:52.000Z</time>
      </trkpt>
      <trkpt lat="42.92488" lon="1.2787">
        <ele>1228</ele>
        <time>2026-06-23T08:28:53.000Z</time>
      </trkpt>
      <trkpt lat="42.92494" lon="1.27859">
        <ele>1227</ele>
        <time>2026-06-23T08:28:54.000Z</time>
      </trkpt>
      <trkpt lat="42.92501" lon="1.2785">
        <ele>1226</ele>
        <time>2026-06-23T08:28:55.000Z</time>
      </trkpt>
      <trkpt lat="42.92507" lon="1.27844">
        <ele>1225</ele>
        <time>2026-06-23T08:28:56.000Z</time>
      </trkpt>
      <trkpt lat="42.92514" lon="1.27839">
        <ele>1224</ele>
        <time>2026-06-23T08:28:57.000Z</time>
      </trkpt>
      <trkpt lat="42.92521" lon="1.27835">
        <ele>1222</ele>
        <time>2026-06-23T08:28:58.000Z</time>
      </trkpt>
      <trkpt lat="42.92527" lon="1.27833">
        <ele>1221</ele>
        <time>2026-06-23T08:28:59.000Z</time>
      </trkpt>
      <trkpt lat="42.92535" lon="1.27835">
        <ele>1220</ele>
        <time>2026-06-23T08:29:00.000Z</time>
      </trkpt>
      <trkpt lat="42.92541" lon="1.2784">
        <ele>1219</ele>
        <time>2026-06-23T08:29:01.000Z</time>
      </trkpt>
      <trkpt lat="42.92546" lon="1.27847">
        <ele>1217</ele>
        <time>2026-06-23T08:29:02.000Z</time>
      </trkpt>
      <trkpt lat="42.92551" lon="1.27855">
        <ele>1216</ele>
        <time>2026-06-23T08:29:03.000Z</time>
      </trkpt>
      <trkpt lat="42.92555" lon="1.27863">
        <ele>1215</ele>
        <time>2026-06-23T08:29:04.000Z</time>
      </trkpt>
      <trkpt lat="42.9256" lon="1.27868">
        <ele>1214</ele>
        <time>2026-06-23T08:29:05.000Z</time>
      </trkpt>
      <trkpt lat="42.92564" lon="1.27875">
        <ele>1214</ele>
        <time>2026-06-23T08:29:06.000Z</time>
      </trkpt>
      <trkpt lat="42.92569" lon="1.2788">
        <ele>1214</ele>
        <time>2026-06-23T08:29:07.000Z</time>
      </trkpt>
      <trkpt lat="42.92573" lon="1.27884">
        <ele>1214</ele>
        <time>2026-06-23T08:29:08.000Z</time>
      </trkpt>
      <trkpt lat="42.92579" lon="1.27887">
        <ele>1213</ele>
        <time>2026-06-23T08:29:09.000Z</time>
      </trkpt>
      <trkpt lat="42.92584" lon="1.27885">
        <ele>1213</ele>
        <time>2026-06-23T08:29:10.000Z</time>
      </trkpt>
      <trkpt lat="42.92589" lon="1.2788">
        <ele>1213</ele>
        <time>2026-06-23T08:29:11.000Z</time>
      </trkpt>
      <trkpt lat="42.92594" lon="1.27875">
        <ele>1212</ele>
        <time>2026-06-23T08:29:12.000Z</time>
      </trkpt>
      <trkpt lat="42.926" lon="1.27867">
        <ele>1212</ele>
        <time>2026-06-23T08:29:13.000Z</time>
      </trkpt>
      <trkpt lat="42.92607" lon="1.27859">
        <ele>1212</ele>
        <time>2026-06-23T08:29:14.000Z</time>
      </trkpt>
      <trkpt lat="42.92615" lon="1.2785">
        <ele>1211</ele>
        <time>2026-06-23T08:29:15.000Z</time>
      </trkpt>
      <trkpt lat="42.92621" lon="1.27843">
        <ele>1211</ele>
        <time>2026-06-23T08:29:16.000Z</time>
      </trkpt>
      <trkpt lat="42.92627" lon="1.27834">
        <ele>1210</ele>
        <time>2026-06-23T08:29:17.000Z</time>
      </trkpt>
      <trkpt lat="42.92633" lon="1.27826">
        <ele>1208</ele>
        <time>2026-06-23T08:29:18.000Z</time>
      </trkpt>
      <trkpt lat="42.92637" lon="1.27819">
        <ele>1208</ele>
        <time>2026-06-23T08:29:19.000Z</time>
      </trkpt>
      <trkpt lat="42.92641" lon="1.27812">
        <ele>1207</ele>
        <time>2026-06-23T08:29:20.000Z</time>
      </trkpt>
      <trkpt lat="42.92644" lon="1.27803">
        <ele>1207</ele>
        <time>2026-06-23T08:29:21.000Z</time>
      </trkpt>
      <trkpt lat="42.92647" lon="1.27795">
        <ele>1207</ele>
        <time>2026-06-23T08:29:22.000Z</time>
      </trkpt>
      <trkpt lat="42.92649" lon="1.27789">
        <ele>1206</ele>
        <time>2026-06-23T08:29:23.000Z</time>
      </trkpt>
      <trkpt lat="42.92653" lon="1.27782">
        <ele>1206</ele>
        <time>2026-06-23T08:29:24.000Z</time>
      </trkpt>
      <trkpt lat="42.92656" lon="1.27775">
        <ele>1206</ele>
        <time>2026-06-23T08:29:25.000Z</time>
      </trkpt>
      <trkpt lat="42.92658" lon="1.27768">
        <ele>1206</ele>
        <time>2026-06-23T08:29:26.000Z</time>
      </trkpt>
      <trkpt lat="42.92661" lon="1.27762">
        <ele>1206</ele>
        <time>2026-06-23T08:29:27.000Z</time>
      </trkpt>
      <trkpt lat="42.92665" lon="1.27755">
        <ele>1206</ele>
        <time>2026-06-23T08:29:28.000Z</time>
      </trkpt>
      <trkpt lat="42.92668" lon="1.27749">
        <ele>1206</ele>
        <time>2026-06-23T08:29:29.000Z</time>
      </trkpt>
      <trkpt lat="42.92672" lon="1.27743">
        <ele>1205</ele>
        <time>2026-06-23T08:29:30.000Z</time>
      </trkpt>
      <trkpt lat="42.92674" lon="1.27737">
        <ele>1205</ele>
        <time>2026-06-23T08:29:31.000Z</time>
      </trkpt>
      <trkpt lat="42.92676" lon="1.27732">
        <ele>1205</ele>
        <time>2026-06-23T08:29:32.000Z</time>
      </trkpt>
      <trkpt lat="42.92679" lon="1.27726">
        <ele>1205</ele>
        <time>2026-06-23T08:29:33.000Z</time>
      </trkpt>
      <trkpt lat="42.92682" lon="1.2772">
        <ele>1205</ele>
        <time>2026-06-23T08:29:34.000Z</time>
      </trkpt>
      <trkpt lat="42.92685" lon="1.27714">
        <ele>1205</ele>
        <time>2026-06-23T08:29:35.000Z</time>
      </trkpt>
      <trkpt lat="42.92687" lon="1.27709">
        <ele>1204</ele>
        <time>2026-06-23T08:29:36.000Z</time>
      </trkpt>
      <trkpt lat="42.9269" lon="1.27705">
        <ele>1203</ele>
        <time>2026-06-23T08:29:37.000Z</time>
      </trkpt>
      <trkpt lat="42.92691" lon="1.27701">
        <ele>1203</ele>
        <time>2026-06-23T08:29:38.000Z</time>
      </trkpt>
      <trkpt lat="42.92693" lon="1.27697">
        <ele>1203</ele>
        <time>2026-06-23T08:29:39.000Z</time>
      </trkpt>
      <trkpt lat="42.92696" lon="1.27693">
        <ele>1203</ele>
        <time>2026-06-23T08:29:40.000Z</time>
      </trkpt>
      <trkpt lat="42.92698" lon="1.2769">
        <ele>1203</ele>
        <time>2026-06-23T08:29:41.000Z</time>
      </trkpt>
      <trkpt lat="42.927" lon="1.27686">
        <ele>1203</ele>
        <time>2026-06-23T08:29:42.000Z</time>
      </trkpt>
      <trkpt lat="42.92702" lon="1.27683">
        <ele>1203</ele>
        <time>2026-06-23T08:29:43.000Z</time>
      </trkpt>
      <trkpt lat="42.92705" lon="1.27681">
        <ele>1203</ele>
        <time>2026-06-23T08:29:44.000Z</time>
      </trkpt>
      <trkpt lat="42.92707" lon="1.2768">
        <ele>1203</ele>
        <time>2026-06-23T08:29:45.000Z</time>
      </trkpt>
      <trkpt lat="42.9271" lon="1.27679">
        <ele>1202</ele>
        <time>2026-06-23T08:29:46.000Z</time>
      </trkpt>
      <trkpt lat="42.92713" lon="1.27679">
        <ele>1202</ele>
        <time>2026-06-23T08:29:47.000Z</time>
      </trkpt>
      <trkpt lat="42.92715" lon="1.2768">
        <ele>1201</ele>
        <time>2026-06-23T08:29:48.000Z</time>
      </trkpt>
      <trkpt lat="42.92717" lon="1.27681">
        <ele>1200</ele>
        <time>2026-06-23T08:29:49.000Z</time>
      </trkpt>
      <trkpt lat="42.92719" lon="1.27683">
        <ele>1200</ele>
        <time>2026-06-23T08:29:50.000Z</time>
      </trkpt>
      <trkpt lat="42.92722" lon="1.27685">
        <ele>1199</ele>
        <time>2026-06-23T08:29:51.000Z</time>
      </trkpt>
      <trkpt lat="42.92725" lon="1.27686">
        <ele>1199</ele>
        <time>2026-06-23T08:29:52.000Z</time>
      </trkpt>
      <trkpt lat="42.92727" lon="1.27689">
        <ele>1198</ele>
        <time>2026-06-23T08:29:53.000Z</time>
      </trkpt>
      <trkpt lat="42.92729" lon="1.27692">
        <ele>1198</ele>
        <time>2026-06-23T08:29:54.000Z</time>
      </trkpt>
      <trkpt lat="42.92731" lon="1.27695">
        <ele>1197</ele>
        <time>2026-06-23T08:29:55.000Z</time>
      </trkpt>
      <trkpt lat="42.92734" lon="1.27698">
        <ele>1197</ele>
        <time>2026-06-23T08:29:56.000Z</time>
      </trkpt>
      <trkpt lat="42.92736" lon="1.27701">
        <ele>1196</ele>
        <time>2026-06-23T08:29:57.000Z</time>
      </trkpt>
      <trkpt lat="42.92738" lon="1.27705">
        <ele>1196</ele>
        <time>2026-06-23T08:29:58.000Z</time>
      </trkpt>
      <trkpt lat="42.92741" lon="1.27708">
        <ele>1196</ele>
        <time>2026-06-23T08:29:59.000Z</time>
      </trkpt>
      <trkpt lat="42.92744" lon="1.27712">
        <ele>1196</ele>
        <time>2026-06-23T08:30:00.000Z</time>
      </trkpt>
      <trkpt lat="42.92747" lon="1.27716">
        <ele>1195</ele>
        <time>2026-06-23T08:30:01.000Z</time>
      </trkpt>
      <trkpt lat="42.9275" lon="1.27719">
        <ele>1195</ele>
        <time>2026-06-23T08:30:02.000Z</time>
      </trkpt>
      <trkpt lat="42.92753" lon="1.27723">
        <ele>1195</ele>
        <time>2026-06-23T08:30:03.000Z</time>
      </trkpt>
      <trkpt lat="42.92756" lon="1.27726">
        <ele>1194</ele>
        <time>2026-06-23T08:30:04.000Z</time>
      </trkpt>
      <trkpt lat="42.92759" lon="1.27729">
        <ele>1194</ele>
        <time>2026-06-23T08:30:05.000Z</time>
      </trkpt>
      <trkpt lat="42.92763" lon="1.27732">
        <ele>1193</ele>
        <time>2026-06-23T08:30:06.000Z</time>
      </trkpt>
      <trkpt lat="42.92766" lon="1.27736">
        <ele>1193</ele>
        <time>2026-06-23T08:30:07.000Z</time>
      </trkpt>
      <trkpt lat="42.9277" lon="1.2774">
        <ele>1194</ele>
        <time>2026-06-23T08:30:08.000Z</time>
      </trkpt>
      <trkpt lat="42.92773" lon="1.27742">
        <ele>1194</ele>
        <time>2026-06-23T08:30:09.000Z</time>
      </trkpt>
      <trkpt lat="42.92776" lon="1.27747">
        <ele>1195</ele>
        <time>2026-06-23T08:30:10.000Z</time>
      </trkpt>
      <trkpt lat="42.92781" lon="1.2775">
        <ele>1195</ele>
        <time>2026-06-23T08:30:11.000Z</time>
      </trkpt>
      <trkpt lat="42.92785" lon="1.27754">
        <ele>1195</ele>
        <time>2026-06-23T08:30:12.000Z</time>
      </trkpt>
      <trkpt lat="42.92788" lon="1.27757">
        <ele>1194</ele>
        <time>2026-06-23T08:30:13.000Z</time>
      </trkpt>
      <trkpt lat="42.92793" lon="1.27761">
        <ele>1194</ele>
        <time>2026-06-23T08:30:14.000Z</time>
      </trkpt>
      <trkpt lat="42.92796" lon="1.27764">
        <ele>1194</ele>
        <time>2026-06-23T08:30:15.000Z</time>
      </trkpt>
      <trkpt lat="42.92799" lon="1.27767">
        <ele>1194</ele>
        <time>2026-06-23T08:30:16.000Z</time>
      </trkpt>
      <trkpt lat="42.92802" lon="1.27768">
        <ele>1194</ele>
        <time>2026-06-23T08:30:17.000Z</time>
      </trkpt>
      <trkpt lat="42.92805" lon="1.27769">
        <ele>1194</ele>
        <time>2026-06-23T08:30:18.000Z</time>
      </trkpt>
      <trkpt lat="42.92809" lon="1.27769">
        <ele>1194</ele>
        <time>2026-06-23T08:30:19.000Z</time>
      </trkpt>
      <trkpt lat="42.92815" lon="1.27766">
        <ele>1193</ele>
        <time>2026-06-23T08:30:20.000Z</time>
      </trkpt>
      <trkpt lat="42.92821" lon="1.27761">
        <ele>1192</ele>
        <time>2026-06-23T08:30:21.000Z</time>
      </trkpt>
      <trkpt lat="42.92825" lon="1.27755">
        <ele>1192</ele>
        <time>2026-06-23T08:30:22.000Z</time>
      </trkpt>
      <trkpt lat="42.92829" lon="1.27749">
        <ele>1192</ele>
        <time>2026-06-23T08:30:23.000Z</time>
      </trkpt>
      <trkpt lat="42.92833" lon="1.27743">
        <ele>1192</ele>
        <time>2026-06-23T08:30:24.000Z</time>
      </trkpt>
      <trkpt lat="42.92837" lon="1.27736">
        <ele>1192</ele>
        <time>2026-06-23T08:30:25.000Z</time>
      </trkpt>
      <trkpt lat="42.9284" lon="1.27728">
        <ele>1192</ele>
        <time>2026-06-23T08:30:26.000Z</time>
      </trkpt>
      <trkpt lat="42.92843" lon="1.27718">
        <ele>1191</ele>
        <time>2026-06-23T08:30:27.000Z</time>
      </trkpt>
      <trkpt lat="42.92848" lon="1.27711">
        <ele>1191</ele>
        <time>2026-06-23T08:30:28.000Z</time>
      </trkpt>
      <trkpt lat="42.92854" lon="1.27701">
        <ele>1190</ele>
        <time>2026-06-23T08:30:29.000Z</time>
      </trkpt>
      <trkpt lat="42.9286" lon="1.2769">
        <ele>1189</ele>
        <time>2026-06-23T08:30:30.000Z</time>
      </trkpt>
      <trkpt lat="42.92867" lon="1.2768">
        <ele>1188</ele>
        <time>2026-06-23T08:30:31.000Z</time>
      </trkpt>
      <trkpt lat="42.92874" lon="1.2767">
        <ele>1186</ele>
        <time>2026-06-23T08:30:32.000Z</time>
      </trkpt>
      <trkpt lat="42.92882" lon="1.2766">
        <ele>1184</ele>
        <time>2026-06-23T08:30:33.000Z</time>
      </trkpt>
      <trkpt lat="42.9289" lon="1.27649">
        <ele>1182</ele>
        <time>2026-06-23T08:30:34.000Z</time>
      </trkpt>
      <trkpt lat="42.92898" lon="1.27641">
        <ele>1181</ele>
        <time>2026-06-23T08:30:35.000Z</time>
      </trkpt>
      <trkpt lat="42.92906" lon="1.27631">
        <ele>1180</ele>
        <time>2026-06-23T08:30:36.000Z</time>
      </trkpt>
      <trkpt lat="42.92914" lon="1.27622">
        <ele>1180</ele>
        <time>2026-06-23T08:30:37.000Z</time>
      </trkpt>
      <trkpt lat="42.92923" lon="1.27614">
        <ele>1180</ele>
        <time>2026-06-23T08:30:38.000Z</time>
      </trkpt>
      <trkpt lat="42.9293" lon="1.27607">
        <ele>1179</ele>
        <time>2026-06-23T08:30:39.000Z</time>
      </trkpt>
      <trkpt lat="42.92937" lon="1.276">
        <ele>1179</ele>
        <time>2026-06-23T08:30:40.000Z</time>
      </trkpt>
      <trkpt lat="42.92945" lon="1.27594">
        <ele>1177</ele>
        <time>2026-06-23T08:30:41.000Z</time>
      </trkpt>
      <trkpt lat="42.9295" lon="1.27589">
        <ele>1175</ele>
        <time>2026-06-23T08:30:42.000Z</time>
      </trkpt>
      <trkpt lat="42.92956" lon="1.27585">
        <ele>1175</ele>
        <time>2026-06-23T08:30:43.000Z</time>
      </trkpt>
      <trkpt lat="42.92963" lon="1.27582">
        <ele>1175</ele>
        <time>2026-06-23T08:30:44.000Z</time>
      </trkpt>
      <trkpt lat="42.92971" lon="1.27581">
        <ele>1174</ele>
        <time>2026-06-23T08:30:45.000Z</time>
      </trkpt>
      <trkpt lat="42.9298" lon="1.27581">
        <ele>1174</ele>
        <time>2026-06-23T08:30:46.000Z</time>
      </trkpt>
      <trkpt lat="42.92989" lon="1.2758">
        <ele>1173</ele>
        <time>2026-06-23T08:30:47.000Z</time>
      </trkpt>
      <trkpt lat="42.92998" lon="1.27579">
        <ele>1173</ele>
        <time>2026-06-23T08:30:48.000Z</time>
      </trkpt>
      <trkpt lat="42.93006" lon="1.27576">
        <ele>1173</ele>
        <time>2026-06-23T08:30:49.000Z</time>
      </trkpt>
      <trkpt lat="42.93015" lon="1.27571">
        <ele>1172</ele>
        <time>2026-06-23T08:30:50.000Z</time>
      </trkpt>
      <trkpt lat="42.93022" lon="1.27563">
        <ele>1171</ele>
        <time>2026-06-23T08:30:51.000Z</time>
      </trkpt>
      <trkpt lat="42.93029" lon="1.27553">
        <ele>1171</ele>
        <time>2026-06-23T08:30:52.000Z</time>
      </trkpt>
      <trkpt lat="42.93034" lon="1.27543">
        <ele>1170</ele>
        <time>2026-06-23T08:30:53.000Z</time>
      </trkpt>
      <trkpt lat="42.9304" lon="1.27535">
        <ele>1169</ele>
        <time>2026-06-23T08:30:54.000Z</time>
      </trkpt>
      <trkpt lat="42.93046" lon="1.27526">
        <ele>1167</ele>
        <time>2026-06-23T08:30:55.000Z</time>
      </trkpt>
      <trkpt lat="42.93052" lon="1.2752">
        <ele>1167</ele>
        <time>2026-06-23T08:30:56.000Z</time>
      </trkpt>
      <trkpt lat="42.93058" lon="1.27514">
        <ele>1166</ele>
        <time>2026-06-23T08:30:57.000Z</time>
      </trkpt>
      <trkpt lat="42.93064" lon="1.27509">
        <ele>1166</ele>
        <time>2026-06-23T08:30:58.000Z</time>
      </trkpt>
      <trkpt lat="42.93069" lon="1.27504">
        <ele>1166</ele>
        <time>2026-06-23T08:30:59.000Z</time>
      </trkpt>
      <trkpt lat="42.93075" lon="1.275">
        <ele>1166</ele>
        <time>2026-06-23T08:31:00.000Z</time>
      </trkpt>
      <trkpt lat="42.9308" lon="1.27497">
        <ele>1166</ele>
        <time>2026-06-23T08:31:01.000Z</time>
      </trkpt>
      <trkpt lat="42.93085" lon="1.27495">
        <ele>1164</ele>
        <time>2026-06-23T08:31:02.000Z</time>
      </trkpt>
      <trkpt lat="42.9309" lon="1.27493">
        <ele>1163</ele>
        <time>2026-06-23T08:31:03.000Z</time>
      </trkpt>
      <trkpt lat="42.93094" lon="1.27491">
        <ele>1163</ele>
        <time>2026-06-23T08:31:04.000Z</time>
      </trkpt>
      <trkpt lat="42.931" lon="1.27489">
        <ele>1162</ele>
        <time>2026-06-23T08:31:05.000Z</time>
      </trkpt>
      <trkpt lat="42.93105" lon="1.27486">
        <ele>1163</ele>
        <time>2026-06-23T08:31:06.000Z</time>
      </trkpt>
      <trkpt lat="42.9311" lon="1.27484">
        <ele>1163</ele>
        <time>2026-06-23T08:31:07.000Z</time>
      </trkpt>
      <trkpt lat="42.93116" lon="1.27484">
        <ele>1163</ele>
        <time>2026-06-23T08:31:08.000Z</time>
      </trkpt>
      <trkpt lat="42.93122" lon="1.27483">
        <ele>1163</ele>
        <time>2026-06-23T08:31:09.000Z</time>
      </trkpt>
      <trkpt lat="42.93128" lon="1.27484">
        <ele>1163</ele>
        <time>2026-06-23T08:31:10.000Z</time>
      </trkpt>
      <trkpt lat="42.93133" lon="1.27485">
        <ele>1163</ele>
        <time>2026-06-23T08:31:11.000Z</time>
      </trkpt>
      <trkpt lat="42.93139" lon="1.27486">
        <ele>1163</ele>
        <time>2026-06-23T08:31:12.000Z</time>
      </trkpt>
      <trkpt lat="42.93144" lon="1.27486">
        <ele>1163</ele>
        <time>2026-06-23T08:31:13.000Z</time>
      </trkpt>
      <trkpt lat="42.93149" lon="1.27486">
        <ele>1163</ele>
        <time>2026-06-23T08:31:14.000Z</time>
      </trkpt>
      <trkpt lat="42.93155" lon="1.27487">
        <ele>1163</ele>
        <time>2026-06-23T08:31:15.000Z</time>
      </trkpt>
      <trkpt lat="42.93161" lon="1.27486">
        <ele>1162</ele>
        <time>2026-06-23T08:31:16.000Z</time>
      </trkpt>
      <trkpt lat="42.93166" lon="1.27485">
        <ele>1162</ele>
        <time>2026-06-23T08:31:17.000Z</time>
      </trkpt>
      <trkpt lat="42.93171" lon="1.27483">
        <ele>1162</ele>
        <time>2026-06-23T08:31:18.000Z</time>
      </trkpt>
      <trkpt lat="42.93177" lon="1.27482">
        <ele>1162</ele>
        <time>2026-06-23T08:31:19.000Z</time>
      </trkpt>
      <trkpt lat="42.93183" lon="1.2748">
        <ele>1162</ele>
        <time>2026-06-23T08:31:20.000Z</time>
      </trkpt>
      <trkpt lat="42.93187" lon="1.27478">
        <ele>1161</ele>
        <time>2026-06-23T08:31:21.000Z</time>
      </trkpt>
      <trkpt lat="42.93192" lon="1.27476">
        <ele>1160</ele>
        <time>2026-06-23T08:31:22.000Z</time>
      </trkpt>
      <trkpt lat="42.93196" lon="1.27474">
        <ele>1161</ele>
        <time>2026-06-23T08:31:23.000Z</time>
      </trkpt>
      <trkpt lat="42.93201" lon="1.27473">
        <ele>1161</ele>
        <time>2026-06-23T08:31:24.000Z</time>
      </trkpt>
      <trkpt lat="42.93207" lon="1.27471">
        <ele>1161</ele>
        <time>2026-06-23T08:31:25.000Z</time>
      </trkpt>
      <trkpt lat="42.93212" lon="1.27469">
        <ele>1161</ele>
        <time>2026-06-23T08:31:26.000Z</time>
      </trkpt>
      <trkpt lat="42.93217" lon="1.27467">
        <ele>1161</ele>
        <time>2026-06-23T08:31:27.000Z</time>
      </trkpt>
      <trkpt lat="42.93222" lon="1.27463">
        <ele>1161</ele>
        <time>2026-06-23T08:31:28.000Z</time>
      </trkpt>
      <trkpt lat="42.93226" lon="1.27458">
        <ele>1162</ele>
        <time>2026-06-23T08:31:29.000Z</time>
      </trkpt>
      <trkpt lat="42.9323" lon="1.27453">
        <ele>1162</ele>
        <time>2026-06-23T08:31:30.000Z</time>
      </trkpt>
      <trkpt lat="42.93234" lon="1.27449">
        <ele>1162</ele>
        <time>2026-06-23T08:31:31.000Z</time>
      </trkpt>
      <trkpt lat="42.93239" lon="1.27442">
        <ele>1162</ele>
        <time>2026-06-23T08:31:32.000Z</time>
      </trkpt>
      <trkpt lat="42.93243" lon="1.27435">
        <ele>1162</ele>
        <time>2026-06-23T08:31:33.000Z</time>
      </trkpt>
      <trkpt lat="42.93246" lon="1.2743">
        <ele>1162</ele>
        <time>2026-06-23T08:31:34.000Z</time>
      </trkpt>
      <trkpt lat="42.9325" lon="1.27425">
        <ele>1162</ele>
        <time>2026-06-23T08:31:35.000Z</time>
      </trkpt>
      <trkpt lat="42.93254" lon="1.27421">
        <ele>1162</ele>
        <time>2026-06-23T08:31:36.000Z</time>
      </trkpt>
      <trkpt lat="42.93258" lon="1.27416">
        <ele>1162</ele>
        <time>2026-06-23T08:31:37.000Z</time>
      </trkpt>
      <trkpt lat="42.93265" lon="1.27411">
        <ele>1163</ele>
        <time>2026-06-23T08:31:38.000Z</time>
      </trkpt>
      <trkpt lat="42.9327" lon="1.27408">
        <ele>1163</ele>
        <time>2026-06-23T08:31:39.000Z</time>
      </trkpt>
      <trkpt lat="42.93275" lon="1.27405">
        <ele>1163</ele>
        <time>2026-06-23T08:31:40.000Z</time>
      </trkpt>
      <trkpt lat="42.93279" lon="1.274">
        <ele>1163</ele>
        <time>2026-06-23T08:31:41.000Z</time>
      </trkpt>
      <trkpt lat="42.93284" lon="1.27396">
        <ele>1163</ele>
        <time>2026-06-23T08:31:42.000Z</time>
      </trkpt>
      <trkpt lat="42.93288" lon="1.27391">
        <ele>1163</ele>
        <time>2026-06-23T08:31:43.000Z</time>
      </trkpt>
      <trkpt lat="42.93292" lon="1.27385">
        <ele>1163</ele>
        <time>2026-06-23T08:31:44.000Z</time>
      </trkpt>
      <trkpt lat="42.93296" lon="1.2738">
        <ele>1163</ele>
        <time>2026-06-23T08:31:45.000Z</time>
      </trkpt>
      <trkpt lat="42.93301" lon="1.27374">
        <ele>1163</ele>
        <time>2026-06-23T08:31:46.000Z</time>
      </trkpt>
      <trkpt lat="42.93305" lon="1.27366">
        <ele>1163</ele>
        <time>2026-06-23T08:31:47.000Z</time>
      </trkpt>
      <trkpt lat="42.93308" lon="1.27358">
        <ele>1163</ele>
        <time>2026-06-23T08:31:48.000Z</time>
      </trkpt>
      <trkpt lat="42.9331" lon="1.27349">
        <ele>1163</ele>
        <time>2026-06-23T08:31:49.000Z</time>
      </trkpt>
      <trkpt lat="42.93313" lon="1.27341">
        <ele>1164</ele>
        <time>2026-06-23T08:31:50.000Z</time>
      </trkpt>
      <trkpt lat="42.93313" lon="1.27332">
        <ele>1164</ele>
        <time>2026-06-23T08:31:51.000Z</time>
      </trkpt>
      <trkpt lat="42.93315" lon="1.27323">
        <ele>1165</ele>
        <time>2026-06-23T08:31:52.000Z</time>
      </trkpt>
      <trkpt lat="42.93315" lon="1.27315">
        <ele>1166</ele>
        <time>2026-06-23T08:31:53.000Z</time>
      </trkpt>
      <trkpt lat="42.93314" lon="1.27308">
        <ele>1166</ele>
        <time>2026-06-23T08:31:54.000Z</time>
      </trkpt>
      <trkpt lat="42.93313" lon="1.273">
        <ele>1166</ele>
        <time>2026-06-23T08:31:55.000Z</time>
      </trkpt>
      <trkpt lat="42.9331" lon="1.27296">
        <ele>1166</ele>
        <time>2026-06-23T08:31:56.000Z</time>
      </trkpt>
      <trkpt lat="42.93305" lon="1.27289">
        <ele>1166</ele>
        <time>2026-06-23T08:31:57.000Z</time>
      </trkpt>
      <trkpt lat="42.93302" lon="1.27282">
        <ele>1166</ele>
        <time>2026-06-23T08:31:58.000Z</time>
      </trkpt>
      <trkpt lat="42.933" lon="1.27274">
        <ele>1166</ele>
        <time>2026-06-23T08:31:59.000Z</time>
      </trkpt>
      <trkpt lat="42.93298" lon="1.27267">
        <ele>1166</ele>
        <time>2026-06-23T08:32:00.000Z</time>
      </trkpt>
      <trkpt lat="42.93297" lon="1.27259">
        <ele>1166</ele>
        <time>2026-06-23T08:32:01.000Z</time>
      </trkpt>
      <trkpt lat="42.93296" lon="1.27251">
        <ele>1166</ele>
        <time>2026-06-23T08:32:02.000Z</time>
      </trkpt>
      <trkpt lat="42.93296" lon="1.27245">
        <ele>1166</ele>
        <time>2026-06-23T08:32:03.000Z</time>
      </trkpt>
      <trkpt lat="42.93297" lon="1.27238">
        <ele>1166</ele>
        <time>2026-06-23T08:32:04.000Z</time>
      </trkpt>
      <trkpt lat="42.93298" lon="1.27232">
        <ele>1166</ele>
        <time>2026-06-23T08:32:05.000Z</time>
      </trkpt>
      <trkpt lat="42.93298" lon="1.27223">
        <ele>1166</ele>
        <time>2026-06-23T08:32:06.000Z</time>
      </trkpt>
      <trkpt lat="42.93296" lon="1.27218">
        <ele>1166</ele>
        <time>2026-06-23T08:32:07.000Z</time>
      </trkpt>
      <trkpt lat="42.93293" lon="1.27213">
        <ele>1166</ele>
        <time>2026-06-23T08:32:08.000Z</time>
      </trkpt>
      <trkpt lat="42.93288" lon="1.27209">
        <ele>1166</ele>
        <time>2026-06-23T08:32:09.000Z</time>
      </trkpt>
      <trkpt lat="42.93283" lon="1.27204">
        <ele>1165</ele>
        <time>2026-06-23T08:32:10.000Z</time>
      </trkpt>
      <trkpt lat="42.93278" lon="1.27199">
        <ele>1164</ele>
        <time>2026-06-23T08:32:11.000Z</time>
      </trkpt>
      <trkpt lat="42.93272" lon="1.27193">
        <ele>1164</ele>
        <time>2026-06-23T08:32:12.000Z</time>
      </trkpt>
      <trkpt lat="42.93267" lon="1.27187">
        <ele>1164</ele>
        <time>2026-06-23T08:32:13.000Z</time>
      </trkpt>
      <trkpt lat="42.93265" lon="1.27179">
        <ele>1163</ele>
        <time>2026-06-23T08:32:14.000Z</time>
      </trkpt>
      <trkpt lat="42.93264" lon="1.27171">
        <ele>1162</ele>
        <time>2026-06-23T08:32:15.000Z</time>
      </trkpt>
      <trkpt lat="42.93264" lon="1.27164">
        <ele>1162</ele>
        <time>2026-06-23T08:32:16.000Z</time>
      </trkpt>
      <trkpt lat="42.93265" lon="1.27155">
        <ele>1161</ele>
        <time>2026-06-23T08:32:17.000Z</time>
      </trkpt>
      <trkpt lat="42.93267" lon="1.27148">
        <ele>1161</ele>
        <time>2026-06-23T08:32:18.000Z</time>
      </trkpt>
      <trkpt lat="42.9327" lon="1.27141">
        <ele>1160</ele>
        <time>2026-06-23T08:32:19.000Z</time>
      </trkpt>
      <trkpt lat="42.93272" lon="1.27134">
        <ele>1160</ele>
        <time>2026-06-23T08:32:20.000Z</time>
      </trkpt>
      <trkpt lat="42.93274" lon="1.27128">
        <ele>1160</ele>
        <time>2026-06-23T08:32:21.000Z</time>
      </trkpt>
      <trkpt lat="42.93276" lon="1.2712">
        <ele>1159</ele>
        <time>2026-06-23T08:32:22.000Z</time>
      </trkpt>
      <trkpt lat="42.93279" lon="1.27114">
        <ele>1159</ele>
        <time>2026-06-23T08:32:23.000Z</time>
      </trkpt>
      <trkpt lat="42.93282" lon="1.27108">
        <ele>1159</ele>
        <time>2026-06-23T08:32:24.000Z</time>
      </trkpt>
      <trkpt lat="42.93284" lon="1.27101">
        <ele>1159</ele>
        <time>2026-06-23T08:32:25.000Z</time>
      </trkpt>
      <trkpt lat="42.93287" lon="1.27095">
        <ele>1159</ele>
        <time>2026-06-23T08:32:26.000Z</time>
      </trkpt>
      <trkpt lat="42.93289" lon="1.27088">
        <ele>1159</ele>
        <time>2026-06-23T08:32:27.000Z</time>
      </trkpt>
      <trkpt lat="42.9329" lon="1.27082">
        <ele>1158</ele>
        <time>2026-06-23T08:32:28.000Z</time>
      </trkpt>
      <trkpt lat="42.9329" lon="1.27075">
        <ele>1157</ele>
        <time>2026-06-23T08:32:29.000Z</time>
      </trkpt>
      <trkpt lat="42.9329" lon="1.27067">
        <ele>1158</ele>
        <time>2026-06-23T08:32:30.000Z</time>
      </trkpt>
      <trkpt lat="42.9329" lon="1.2706">
        <ele>1158</ele>
        <time>2026-06-23T08:32:31.000Z</time>
      </trkpt>
      <trkpt lat="42.9329" lon="1.27053">
        <ele>1158</ele>
        <time>2026-06-23T08:32:32.000Z</time>
      </trkpt>
      <trkpt lat="42.9329" lon="1.27045">
        <ele>1158</ele>
        <time>2026-06-23T08:32:33.000Z</time>
      </trkpt>
      <trkpt lat="42.93289" lon="1.27037">
        <ele>1159</ele>
        <time>2026-06-23T08:32:34.000Z</time>
      </trkpt>
      <trkpt lat="42.93289" lon="1.2703">
        <ele>1159</ele>
        <time>2026-06-23T08:32:35.000Z</time>
      </trkpt>
      <trkpt lat="42.9329" lon="1.27023">
        <ele>1158</ele>
        <time>2026-06-23T08:32:36.000Z</time>
      </trkpt>
      <trkpt lat="42.93291" lon="1.27016">
        <ele>1158</ele>
        <time>2026-06-23T08:32:37.000Z</time>
      </trkpt>
      <trkpt lat="42.93291" lon="1.2701">
        <ele>1158</ele>
        <time>2026-06-23T08:32:38.000Z</time>
      </trkpt>
      <trkpt lat="42.93291" lon="1.27004">
        <ele>1158</ele>
        <time>2026-06-23T08:32:39.000Z</time>
      </trkpt>
      <trkpt lat="42.93292" lon="1.26997">
        <ele>1159</ele>
        <time>2026-06-23T08:32:40.000Z</time>
      </trkpt>
      <trkpt lat="42.93292" lon="1.26991">
        <ele>1158</ele>
        <time>2026-06-23T08:32:41.000Z</time>
      </trkpt>
      <trkpt lat="42.9329" lon="1.26984">
        <ele>1158</ele>
        <time>2026-06-23T08:32:42.000Z</time>
      </trkpt>
      <trkpt lat="42.93287" lon="1.26977">
        <ele>1157</ele>
        <time>2026-06-23T08:32:43.000Z</time>
      </trkpt>
      <trkpt lat="42.93283" lon="1.26973">
        <ele>1158</ele>
        <time>2026-06-23T08:32:44.000Z</time>
      </trkpt>
      <trkpt lat="42.93279" lon="1.26971">
        <ele>1158</ele>
        <time>2026-06-23T08:32:45.000Z</time>
      </trkpt>
      <trkpt lat="42.93274" lon="1.26971">
        <ele>1158</ele>
        <time>2026-06-23T08:32:46.000Z</time>
      </trkpt>
      <trkpt lat="42.93268" lon="1.26974">
        <ele>1158</ele>
        <time>2026-06-23T08:32:47.000Z</time>
      </trkpt>
      <trkpt lat="42.93262" lon="1.26978">
        <ele>1158</ele>
        <time>2026-06-23T08:32:48.000Z</time>
      </trkpt>
      <trkpt lat="42.93256" lon="1.26981">
        <ele>1158</ele>
        <time>2026-06-23T08:32:49.000Z</time>
      </trkpt>
      <trkpt lat="42.9325" lon="1.26985">
        <ele>1159</ele>
        <time>2026-06-23T08:32:50.000Z</time>
      </trkpt>
      <trkpt lat="42.93245" lon="1.26987">
        <ele>1159</ele>
        <time>2026-06-23T08:32:51.000Z</time>
      </trkpt>
      <trkpt lat="42.9324" lon="1.26989">
        <ele>1159</ele>
        <time>2026-06-23T08:32:52.000Z</time>
      </trkpt>
      <trkpt lat="42.93235" lon="1.26991">
        <ele>1159</ele>
        <time>2026-06-23T08:32:53.000Z</time>
      </trkpt>
      <trkpt lat="42.9323" lon="1.26993">
        <ele>1160</ele>
        <time>2026-06-23T08:32:54.000Z</time>
      </trkpt>
      <trkpt lat="42.93224" lon="1.26995">
        <ele>1160</ele>
        <time>2026-06-23T08:32:55.000Z</time>
      </trkpt>
      <trkpt lat="42.93219" lon="1.26996">
        <ele>1160</ele>
        <time>2026-06-23T08:32:56.000Z</time>
      </trkpt>
      <trkpt lat="42.93214" lon="1.26999">
        <ele>1160</ele>
        <time>2026-06-23T08:32:57.000Z</time>
      </trkpt>
      <trkpt lat="42.93209" lon="1.27001">
        <ele>1159</ele>
        <time>2026-06-23T08:32:58.000Z</time>
      </trkpt>
      <trkpt lat="42.93204" lon="1.27003">
        <ele>1159</ele>
        <time>2026-06-23T08:32:59.000Z</time>
      </trkpt>
      <trkpt lat="42.93201" lon="1.27006">
        <ele>1158</ele>
        <time>2026-06-23T08:33:00.000Z</time>
      </trkpt>
      <trkpt lat="42.93197" lon="1.27009">
        <ele>1157</ele>
        <time>2026-06-23T08:33:01.000Z</time>
      </trkpt>
      <trkpt lat="42.93194" lon="1.2701">
        <ele>1157</ele>
        <time>2026-06-23T08:33:02.000Z</time>
      </trkpt>
      <trkpt lat="42.9319" lon="1.27013">
        <ele>1157</ele>
        <time>2026-06-23T08:33:03.000Z</time>
      </trkpt>
      <trkpt lat="42.93186" lon="1.27016">
        <ele>1157</ele>
        <time>2026-06-23T08:33:04.000Z</time>
      </trkpt>
      <trkpt lat="42.93181" lon="1.2702">
        <ele>1157</ele>
        <time>2026-06-23T08:33:05.000Z</time>
      </trkpt>
      <trkpt lat="42.93175" lon="1.27021">
        <ele>1156</ele>
        <time>2026-06-23T08:33:06.000Z</time>
      </trkpt>
      <trkpt lat="42.93169" lon="1.27021">
        <ele>1156</ele>
        <time>2026-06-23T08:33:07.000Z</time>
      </trkpt>
      <trkpt lat="42.93162" lon="1.27022">
        <ele>1155</ele>
        <time>2026-06-23T08:33:08.000Z</time>
      </trkpt>
      <trkpt lat="42.93157" lon="1.27022">
        <ele>1155</ele>
        <time>2026-06-23T08:33:09.000Z</time>
      </trkpt>
      <trkpt lat="42.93151" lon="1.27019">
        <ele>1154</ele>
        <time>2026-06-23T08:33:10.000Z</time>
      </trkpt>
      <trkpt lat="42.93145" lon="1.27016">
        <ele>1154</ele>
        <time>2026-06-23T08:33:11.000Z</time>
      </trkpt>
      <trkpt lat="42.9314" lon="1.27012">
        <ele>1153</ele>
        <time>2026-06-23T08:33:12.000Z</time>
      </trkpt>
      <trkpt lat="42.93136" lon="1.27007">
        <ele>1152</ele>
        <time>2026-06-23T08:33:13.000Z</time>
      </trkpt>
      <trkpt lat="42.93131" lon="1.27002">
        <ele>1151</ele>
        <time>2026-06-23T08:33:14.000Z</time>
      </trkpt>
      <trkpt lat="42.93127" lon="1.26999">
        <ele>1151</ele>
        <time>2026-06-23T08:33:15.000Z</time>
      </trkpt>
      <trkpt lat="42.93123" lon="1.26996">
        <ele>1150</ele>
        <time>2026-06-23T08:33:16.000Z</time>
      </trkpt>
      <trkpt lat="42.93119" lon="1.26991">
        <ele>1150</ele>
        <time>2026-06-23T08:33:17.000Z</time>
      </trkpt>
      <trkpt lat="42.93114" lon="1.26989">
        <ele>1150</ele>
        <time>2026-06-23T08:33:18.000Z</time>
      </trkpt>
      <trkpt lat="42.93108" lon="1.26987">
        <ele>1150</ele>
        <time>2026-06-23T08:33:19.000Z</time>
      </trkpt>
      <trkpt lat="42.93103" lon="1.26988">
        <ele>1151</ele>
        <time>2026-06-23T08:33:20.000Z</time>
      </trkpt>
      <trkpt lat="42.93098" lon="1.2699">
        <ele>1151</ele>
        <time>2026-06-23T08:33:21.000Z</time>
      </trkpt>
      <trkpt lat="42.93094" lon="1.2699">
        <ele>1151</ele>
        <time>2026-06-23T08:33:22.000Z</time>
      </trkpt>
      <trkpt lat="42.93089" lon="1.2699">
        <ele>1151</ele>
        <time>2026-06-23T08:33:23.000Z</time>
      </trkpt>
      <trkpt lat="42.93083" lon="1.26989">
        <ele>1151</ele>
        <time>2026-06-23T08:33:24.000Z</time>
      </trkpt>
      <trkpt lat="42.93078" lon="1.26988">
        <ele>1150</ele>
        <time>2026-06-23T08:33:25.000Z</time>
      </trkpt>
      <trkpt lat="42.93071" lon="1.26987">
        <ele>1149</ele>
        <time>2026-06-23T08:33:26.000Z</time>
      </trkpt>
      <trkpt lat="42.93066" lon="1.26983">
        <ele>1149</ele>
        <time>2026-06-23T08:33:27.000Z</time>
      </trkpt>
      <trkpt lat="42.93061" lon="1.26979">
        <ele>1148</ele>
        <time>2026-06-23T08:33:28.000Z</time>
      </trkpt>
      <trkpt lat="42.93055" lon="1.26974">
        <ele>1146</ele>
        <time>2026-06-23T08:33:29.000Z</time>
      </trkpt>
      <trkpt lat="42.93051" lon="1.26968">
        <ele>1145</ele>
        <time>2026-06-23T08:33:30.000Z</time>
      </trkpt>
      <trkpt lat="42.93047" lon="1.26961">
        <ele>1144</ele>
        <time>2026-06-23T08:33:31.000Z</time>
      </trkpt>
      <trkpt lat="42.93045" lon="1.26955">
        <ele>1144</ele>
        <time>2026-06-23T08:33:32.000Z</time>
      </trkpt>
      <trkpt lat="42.93043" lon="1.26948">
        <ele>1144</ele>
        <time>2026-06-23T08:33:33.000Z</time>
      </trkpt>
      <trkpt lat="42.93044" lon="1.26942">
        <ele>1144</ele>
        <time>2026-06-23T08:33:34.000Z</time>
      </trkpt>
      <trkpt lat="42.93045" lon="1.26934">
        <ele>1144</ele>
        <time>2026-06-23T08:33:35.000Z</time>
      </trkpt>
      <trkpt lat="42.93046" lon="1.26927">
        <ele>1143</ele>
        <time>2026-06-23T08:33:36.000Z</time>
      </trkpt>
      <trkpt lat="42.93048" lon="1.26921">
        <ele>1143</ele>
        <time>2026-06-23T08:33:37.000Z</time>
      </trkpt>
      <trkpt lat="42.93051" lon="1.26915">
        <ele>1143</ele>
        <time>2026-06-23T08:33:38.000Z</time>
      </trkpt>
      <trkpt lat="42.93052" lon="1.26908">
        <ele>1142</ele>
        <time>2026-06-23T08:33:39.000Z</time>
      </trkpt>
      <trkpt lat="42.93052" lon="1.26903">
        <ele>1143</ele>
        <time>2026-06-23T08:33:40.000Z</time>
      </trkpt>
      <trkpt lat="42.93052" lon="1.26897">
        <ele>1143</ele>
        <time>2026-06-23T08:33:41.000Z</time>
      </trkpt>
      <trkpt lat="42.93052" lon="1.26889">
        <ele>1143</ele>
        <time>2026-06-23T08:33:42.000Z</time>
      </trkpt>
      <trkpt lat="42.93051" lon="1.26881">
        <ele>1142</ele>
        <time>2026-06-23T08:33:43.000Z</time>
      </trkpt>
      <trkpt lat="42.93051" lon="1.26875">
        <ele>1142</ele>
        <time>2026-06-23T08:33:44.000Z</time>
      </trkpt>
      <trkpt lat="42.9305" lon="1.26868">
        <ele>1142</ele>
        <time>2026-06-23T08:33:45.000Z</time>
      </trkpt>
      <trkpt lat="42.9305" lon="1.26861">
        <ele>1142</ele>
        <time>2026-06-23T08:33:46.000Z</time>
      </trkpt>
      <trkpt lat="42.9305" lon="1.26855">
        <ele>1142</ele>
        <time>2026-06-23T08:33:47.000Z</time>
      </trkpt>
      <trkpt lat="42.93049" lon="1.2685">
        <ele>1142</ele>
        <time>2026-06-23T08:33:48.000Z</time>
      </trkpt>
      <trkpt lat="42.93047" lon="1.26845">
        <ele>1142</ele>
        <time>2026-06-23T08:33:49.000Z</time>
      </trkpt>
      <trkpt lat="42.93045" lon="1.26839">
        <ele>1142</ele>
        <time>2026-06-23T08:33:50.000Z</time>
      </trkpt>
      <trkpt lat="42.93041" lon="1.26831">
        <ele>1142</ele>
        <time>2026-06-23T08:33:51.000Z</time>
      </trkpt>
      <trkpt lat="42.93037" lon="1.26825">
        <ele>1142</ele>
        <time>2026-06-23T08:33:52.000Z</time>
      </trkpt>
      <trkpt lat="42.93033" lon="1.26818">
        <ele>1142</ele>
        <time>2026-06-23T08:33:53.000Z</time>
      </trkpt>
      <trkpt lat="42.93029" lon="1.26811">
        <ele>1142</ele>
        <time>2026-06-23T08:33:54.000Z</time>
      </trkpt>
      <trkpt lat="42.93027" lon="1.26803">
        <ele>1142</ele>
        <time>2026-06-23T08:33:55.000Z</time>
      </trkpt>
      <trkpt lat="42.93024" lon="1.26796">
        <ele>1142</ele>
        <time>2026-06-23T08:33:56.000Z</time>
      </trkpt>
      <trkpt lat="42.93021" lon="1.26789">
        <ele>1142</ele>
        <time>2026-06-23T08:33:57.000Z</time>
      </trkpt>
      <trkpt lat="42.93018" lon="1.26783">
        <ele>1141</ele>
        <time>2026-06-23T08:33:58.000Z</time>
      </trkpt>
      <trkpt lat="42.93015" lon="1.26777">
        <ele>1141</ele>
        <time>2026-06-23T08:33:59.000Z</time>
      </trkpt>
      <trkpt lat="42.93013" lon="1.26772">
        <ele>1141</ele>
        <time>2026-06-23T08:34:00.000Z</time>
      </trkpt>
      <trkpt lat="42.93011" lon="1.26767">
        <ele>1141</ele>
        <time>2026-06-23T08:34:01.000Z</time>
      </trkpt>
      <trkpt lat="42.93009" lon="1.26762">
        <ele>1142</ele>
        <time>2026-06-23T08:34:02.000Z</time>
      </trkpt>
      <trkpt lat="42.93006" lon="1.26757">
        <ele>1141</ele>
        <time>2026-06-23T08:34:03.000Z</time>
      </trkpt>
      <trkpt lat="42.93003" lon="1.26752">
        <ele>1142</ele>
        <time>2026-06-23T08:34:04.000Z</time>
      </trkpt>
      <trkpt lat="42.93" lon="1.26747">
        <ele>1142</ele>
        <time>2026-06-23T08:34:05.000Z</time>
      </trkpt>
      <trkpt lat="42.92998" lon="1.26742">
        <ele>1141</ele>
        <time>2026-06-23T08:34:06.000Z</time>
      </trkpt>
      <trkpt lat="42.92995" lon="1.26737">
        <ele>1141</ele>
        <time>2026-06-23T08:34:07.000Z</time>
      </trkpt>
      <trkpt lat="42.92993" lon="1.26732">
        <ele>1141</ele>
        <time>2026-06-23T08:34:08.000Z</time>
      </trkpt>
      <trkpt lat="42.92989" lon="1.26727">
        <ele>1142</ele>
        <time>2026-06-23T08:34:09.000Z</time>
      </trkpt>
      <trkpt lat="42.92984" lon="1.26723">
        <ele>1143</ele>
        <time>2026-06-23T08:34:10.000Z</time>
      </trkpt>
      <trkpt lat="42.92979" lon="1.26718">
        <ele>1143</ele>
        <time>2026-06-23T08:34:11.000Z</time>
      </trkpt>
      <trkpt lat="42.92974" lon="1.26714">
        <ele>1143</ele>
        <time>2026-06-23T08:34:12.000Z</time>
      </trkpt>
      <trkpt lat="42.9297" lon="1.2671">
        <ele>1143</ele>
        <time>2026-06-23T08:34:13.000Z</time>
      </trkpt>
      <trkpt lat="42.92966" lon="1.26707">
        <ele>1143</ele>
        <time>2026-06-23T08:34:14.000Z</time>
      </trkpt>
      <trkpt lat="42.92961" lon="1.26704">
        <ele>1144</ele>
        <time>2026-06-23T08:34:15.000Z</time>
      </trkpt>
      <trkpt lat="42.92958" lon="1.26701">
        <ele>1144</ele>
        <time>2026-06-23T08:34:16.000Z</time>
      </trkpt>
      <trkpt lat="42.92954" lon="1.26698">
        <ele>1145</ele>
        <time>2026-06-23T08:34:17.000Z</time>
      </trkpt>
      <trkpt lat="42.92949" lon="1.26694">
        <ele>1144</ele>
        <time>2026-06-23T08:34:18.000Z</time>
      </trkpt>
      <trkpt lat="42.92944" lon="1.26689">
        <ele>1144</ele>
        <time>2026-06-23T08:34:19.000Z</time>
      </trkpt>
      <trkpt lat="42.92938" lon="1.26685">
        <ele>1144</ele>
        <time>2026-06-23T08:34:20.000Z</time>
      </trkpt>
      <trkpt lat="42.92934" lon="1.2668">
        <ele>1143</ele>
        <time>2026-06-23T08:34:21.000Z</time>
      </trkpt>
      <trkpt lat="42.92929" lon="1.26674">
        <ele>1143</ele>
        <time>2026-06-23T08:34:22.000Z</time>
      </trkpt>
      <trkpt lat="42.92924" lon="1.26668">
        <ele>1142</ele>
        <time>2026-06-23T08:34:23.000Z</time>
      </trkpt>
      <trkpt lat="42.9292" lon="1.26661">
        <ele>1141</ele>
        <time>2026-06-23T08:34:24.000Z</time>
      </trkpt>
      <trkpt lat="42.92916" lon="1.26656">
        <ele>1141</ele>
        <time>2026-06-23T08:34:25.000Z</time>
      </trkpt>
      <trkpt lat="42.92912" lon="1.2665">
        <ele>1140</ele>
        <time>2026-06-23T08:34:26.000Z</time>
      </trkpt>
      <trkpt lat="42.92908" lon="1.26644">
        <ele>1140</ele>
        <time>2026-06-23T08:34:27.000Z</time>
      </trkpt>
      <trkpt lat="42.92904" lon="1.26639">
        <ele>1140</ele>
        <time>2026-06-23T08:34:28.000Z</time>
      </trkpt>
      <trkpt lat="42.92899" lon="1.26634">
        <ele>1140</ele>
        <time>2026-06-23T08:34:29.000Z</time>
      </trkpt>
      <trkpt lat="42.92894" lon="1.26631">
        <ele>1141</ele>
        <time>2026-06-23T08:34:30.000Z</time>
      </trkpt>
      <trkpt lat="42.92889" lon="1.26628">
        <ele>1142</ele>
        <time>2026-06-23T08:34:31.000Z</time>
      </trkpt>
      <trkpt lat="42.92884" lon="1.26624">
        <ele>1143</ele>
        <time>2026-06-23T08:34:32.000Z</time>
      </trkpt>
      <trkpt lat="42.92879" lon="1.26621">
        <ele>1144</ele>
        <time>2026-06-23T08:34:33.000Z</time>
      </trkpt>
      <trkpt lat="42.92876" lon="1.26615">
        <ele>1144</ele>
        <time>2026-06-23T08:34:34.000Z</time>
      </trkpt>
      <trkpt lat="42.92872" lon="1.26609">
        <ele>1144</ele>
        <time>2026-06-23T08:34:35.000Z</time>
      </trkpt>
      <trkpt lat="42.9287" lon="1.26603">
        <ele>1144</ele>
        <time>2026-06-23T08:34:36.000Z</time>
      </trkpt>
      <trkpt lat="42.92869" lon="1.26596">
        <ele>1144</ele>
        <time>2026-06-23T08:34:37.000Z</time>
      </trkpt>
      <trkpt lat="42.92869" lon="1.26587">
        <ele>1144</ele>
        <time>2026-06-23T08:34:38.000Z</time>
      </trkpt>
      <trkpt lat="42.92871" lon="1.26578">
        <ele>1144</ele>
        <time>2026-06-23T08:34:39.000Z</time>
      </trkpt>
      <trkpt lat="42.92875" lon="1.2657">
        <ele>1144</ele>
        <time>2026-06-23T08:34:40.000Z</time>
      </trkpt>
      <trkpt lat="42.92878" lon="1.26561">
        <ele>1144</ele>
        <time>2026-06-23T08:34:41.000Z</time>
      </trkpt>
      <trkpt lat="42.92881" lon="1.26553">
        <ele>1145</ele>
        <time>2026-06-23T08:34:42.000Z</time>
      </trkpt>
      <trkpt lat="42.92886" lon="1.26548">
        <ele>1145</ele>
        <time>2026-06-23T08:34:43.000Z</time>
      </trkpt>
      <trkpt lat="42.9289" lon="1.26542">
        <ele>1145</ele>
        <time>2026-06-23T08:34:44.000Z</time>
      </trkpt>
      <trkpt lat="42.92895" lon="1.26538">
        <ele>1144</ele>
        <time>2026-06-23T08:34:45.000Z</time>
      </trkpt>
      <trkpt lat="42.929" lon="1.26533">
        <ele>1144</ele>
        <time>2026-06-23T08:34:46.000Z</time>
      </trkpt>
      <trkpt lat="42.92904" lon="1.2653">
        <ele>1144</ele>
        <time>2026-06-23T08:34:47.000Z</time>
      </trkpt>
      <trkpt lat="42.92909" lon="1.26526">
        <ele>1144</ele>
        <time>2026-06-23T08:34:48.000Z</time>
      </trkpt>
      <trkpt lat="42.92914" lon="1.26522">
        <ele>1145</ele>
        <time>2026-06-23T08:34:49.000Z</time>
      </trkpt>
      <trkpt lat="42.9292" lon="1.26518">
        <ele>1146</ele>
        <time>2026-06-23T08:34:50.000Z</time>
      </trkpt>
      <trkpt lat="42.92925" lon="1.26514">
        <ele>1146</ele>
        <time>2026-06-23T08:34:51.000Z</time>
      </trkpt>
      <trkpt lat="42.9293" lon="1.2651">
        <ele>1146</ele>
        <time>2026-06-23T08:34:52.000Z</time>
      </trkpt>
      <trkpt lat="42.92934" lon="1.26506">
        <ele>1146</ele>
        <time>2026-06-23T08:34:53.000Z</time>
      </trkpt>
      <trkpt lat="42.92939" lon="1.26503">
        <ele>1146</ele>
        <time>2026-06-23T08:34:54.000Z</time>
      </trkpt>
      <trkpt lat="42.92943" lon="1.265">
        <ele>1146</ele>
        <time>2026-06-23T08:34:55.000Z</time>
      </trkpt>
      <trkpt lat="42.92948" lon="1.26497">
        <ele>1147</ele>
        <time>2026-06-23T08:34:56.000Z</time>
      </trkpt>
      <trkpt lat="42.92953" lon="1.26494">
        <ele>1147</ele>
        <time>2026-06-23T08:34:57.000Z</time>
      </trkpt>
      <trkpt lat="42.92958" lon="1.26491">
        <ele>1147</ele>
        <time>2026-06-23T08:34:58.000Z</time>
      </trkpt>
      <trkpt lat="42.92964" lon="1.26487">
        <ele>1147</ele>
        <time>2026-06-23T08:34:59.000Z</time>
      </trkpt>
      <trkpt lat="42.92969" lon="1.26485">
        <ele>1147</ele>
        <time>2026-06-23T08:35:00.000Z</time>
      </trkpt>
      <trkpt lat="42.92973" lon="1.26482">
        <ele>1147</ele>
        <time>2026-06-23T08:35:01.000Z</time>
      </trkpt>
      <trkpt lat="42.92977" lon="1.2648">
        <ele>1147</ele>
        <time>2026-06-23T08:35:02.000Z</time>
      </trkpt>
      <trkpt lat="42.92982" lon="1.26478">
        <ele>1148</ele>
        <time>2026-06-23T08:35:03.000Z</time>
      </trkpt>
      <trkpt lat="42.92987" lon="1.26475">
        <ele>1148</ele>
        <time>2026-06-23T08:35:04.000Z</time>
      </trkpt>
      <trkpt lat="42.92991" lon="1.26473">
        <ele>1148</ele>
        <time>2026-06-23T08:35:05.000Z</time>
      </trkpt>
      <trkpt lat="42.92994" lon="1.26469">
        <ele>1147</ele>
        <time>2026-06-23T08:35:06.000Z</time>
      </trkpt>
      <trkpt lat="42.92998" lon="1.26464">
        <ele>1148</ele>
        <time>2026-06-23T08:35:07.000Z</time>
      </trkpt>
      <trkpt lat="42.93" lon="1.26458">
        <ele>1148</ele>
        <time>2026-06-23T08:35:08.000Z</time>
      </trkpt>
      <trkpt lat="42.93001" lon="1.26451">
        <ele>1148</ele>
        <time>2026-06-23T08:35:09.000Z</time>
      </trkpt>
      <trkpt lat="42.93002" lon="1.26446">
        <ele>1148</ele>
        <time>2026-06-23T08:35:10.000Z</time>
      </trkpt>
      <trkpt lat="42.93002" lon="1.26442">
        <ele>1148</ele>
        <time>2026-06-23T08:35:11.000Z</time>
      </trkpt>
      <trkpt lat="42.93001" lon="1.26438">
        <ele>1148</ele>
        <time>2026-06-23T08:35:12.000Z</time>
      </trkpt>
      <trkpt lat="42.93" lon="1.26435">
        <ele>1148</ele>
        <time>2026-06-23T08:35:13.000Z</time>
      </trkpt>
      <trkpt lat="42.92998" lon="1.26431">
        <ele>1148</ele>
        <time>2026-06-23T08:35:14.000Z</time>
      </trkpt>
      <trkpt lat="42.92995" lon="1.26427">
        <ele>1148</ele>
        <time>2026-06-23T08:35:15.000Z</time>
      </trkpt>
      <trkpt lat="42.92992" lon="1.26422">
        <ele>1148</ele>
        <time>2026-06-23T08:35:16.000Z</time>
      </trkpt>
      <trkpt lat="42.92987" lon="1.26417">
        <ele>1148</ele>
        <time>2026-06-23T08:35:17.000Z</time>
      </trkpt>
      <trkpt lat="42.92982" lon="1.26414">
        <ele>1148</ele>
        <time>2026-06-23T08:35:18.000Z</time>
      </trkpt>
      <trkpt lat="42.92975" lon="1.2641">
        <ele>1148</ele>
        <time>2026-06-23T08:35:19.000Z</time>
      </trkpt>
      <trkpt lat="42.92969" lon="1.26406">
        <ele>1148</ele>
        <time>2026-06-23T08:35:20.000Z</time>
      </trkpt>
      <trkpt lat="42.92963" lon="1.264">
        <ele>1148</ele>
        <time>2026-06-23T08:35:21.000Z</time>
      </trkpt>
      <trkpt lat="42.92959" lon="1.26395">
        <ele>1148</ele>
        <time>2026-06-23T08:35:22.000Z</time>
      </trkpt>
      <trkpt lat="42.92952" lon="1.26388">
        <ele>1148</ele>
        <time>2026-06-23T08:35:23.000Z</time>
      </trkpt>
      <trkpt lat="42.92948" lon="1.26383">
        <ele>1148</ele>
        <time>2026-06-23T08:35:24.000Z</time>
      </trkpt>
      <trkpt lat="42.92943" lon="1.26376">
        <ele>1147</ele>
        <time>2026-06-23T08:35:25.000Z</time>
      </trkpt>
      <trkpt lat="42.92939" lon="1.26369">
        <ele>1147</ele>
        <time>2026-06-23T08:35:26.000Z</time>
      </trkpt>
      <trkpt lat="42.92934" lon="1.26363">
        <ele>1147</ele>
        <time>2026-06-23T08:35:27.000Z</time>
      </trkpt>
      <trkpt lat="42.9293" lon="1.26356">
        <ele>1147</ele>
        <time>2026-06-23T08:35:28.000Z</time>
      </trkpt>
      <trkpt lat="42.92926" lon="1.26348">
        <ele>1146</ele>
        <time>2026-06-23T08:35:29.000Z</time>
      </trkpt>
      <trkpt lat="42.92921" lon="1.26341">
        <ele>1146</ele>
        <time>2026-06-23T08:35:30.000Z</time>
      </trkpt>
      <trkpt lat="42.92915" lon="1.26335">
        <ele>1146</ele>
        <time>2026-06-23T08:35:31.000Z</time>
      </trkpt>
      <trkpt lat="42.92909" lon="1.2633">
        <ele>1145</ele>
        <time>2026-06-23T08:35:32.000Z</time>
      </trkpt>
      <trkpt lat="42.92904" lon="1.26323">
        <ele>1144</ele>
        <time>2026-06-23T08:35:33.000Z</time>
      </trkpt>
      <trkpt lat="42.92899" lon="1.26317">
        <ele>1144</ele>
        <time>2026-06-23T08:35:34.000Z</time>
      </trkpt>
      <trkpt lat="42.92894" lon="1.26311">
        <ele>1144</ele>
        <time>2026-06-23T08:35:35.000Z</time>
      </trkpt>
      <trkpt lat="42.9289" lon="1.26305">
        <ele>1144</ele>
        <time>2026-06-23T08:35:36.000Z</time>
      </trkpt>
      <trkpt lat="42.92886" lon="1.26298">
        <ele>1143</ele>
        <time>2026-06-23T08:35:37.000Z</time>
      </trkpt>
      <trkpt lat="42.92882" lon="1.26292">
        <ele>1144</ele>
        <time>2026-06-23T08:35:38.000Z</time>
      </trkpt>
      <trkpt lat="42.92878" lon="1.26286">
        <ele>1144</ele>
        <time>2026-06-23T08:35:39.000Z</time>
      </trkpt>
      <trkpt lat="42.92875" lon="1.2628">
        <ele>1144</ele>
        <time>2026-06-23T08:35:40.000Z</time>
      </trkpt>
      <trkpt lat="42.92871" lon="1.26274">
        <ele>1144</ele>
        <time>2026-06-23T08:35:41.000Z</time>
      </trkpt>
      <trkpt lat="42.92868" lon="1.26268">
        <ele>1144</ele>
        <time>2026-06-23T08:35:42.000Z</time>
      </trkpt>
      <trkpt lat="42.92866" lon="1.26262">
        <ele>1145</ele>
        <time>2026-06-23T08:35:43.000Z</time>
      </trkpt>
      <trkpt lat="42.92862" lon="1.26254">
        <ele>1145</ele>
        <time>2026-06-23T08:35:44.000Z</time>
      </trkpt>
      <trkpt lat="42.9286" lon="1.26246">
        <ele>1145</ele>
        <time>2026-06-23T08:35:45.000Z</time>
      </trkpt>
      <trkpt lat="42.92859" lon="1.26238">
        <ele>1145</ele>
        <time>2026-06-23T08:35:46.000Z</time>
      </trkpt>
      <trkpt lat="42.92857" lon="1.2623">
        <ele>1145</ele>
        <time>2026-06-23T08:35:47.000Z</time>
      </trkpt>
      <trkpt lat="42.92855" lon="1.26223">
        <ele>1145</ele>
        <time>2026-06-23T08:35:48.000Z</time>
      </trkpt>
      <trkpt lat="42.92853" lon="1.26217">
        <ele>1145</ele>
        <time>2026-06-23T08:35:49.000Z</time>
      </trkpt>
      <trkpt lat="42.92851" lon="1.2621">
        <ele>1146</ele>
        <time>2026-06-23T08:35:50.000Z</time>
      </trkpt>
      <trkpt lat="42.92849" lon="1.26202">
        <ele>1146</ele>
        <time>2026-06-23T08:35:51.000Z</time>
      </trkpt>
      <trkpt lat="42.92847" lon="1.26196">
        <ele>1146</ele>
        <time>2026-06-23T08:35:52.000Z</time>
      </trkpt>
      <trkpt lat="42.92845" lon="1.26188">
        <ele>1147</ele>
        <time>2026-06-23T08:35:53.000Z</time>
      </trkpt>
      <trkpt lat="42.92843" lon="1.26182">
        <ele>1147</ele>
        <time>2026-06-23T08:35:54.000Z</time>
      </trkpt>
      <trkpt lat="42.92841" lon="1.26176">
        <ele>1147</ele>
        <time>2026-06-23T08:35:55.000Z</time>
      </trkpt>
      <trkpt lat="42.92839" lon="1.2617">
        <ele>1148</ele>
        <time>2026-06-23T08:35:56.000Z</time>
      </trkpt>
      <trkpt lat="42.92837" lon="1.26162">
        <ele>1148</ele>
        <time>2026-06-23T08:35:57.000Z</time>
      </trkpt>
      <trkpt lat="42.92836" lon="1.26155">
        <ele>1148</ele>
        <time>2026-06-23T08:35:58.000Z</time>
      </trkpt>
      <trkpt lat="42.92834" lon="1.26147">
        <ele>1148</ele>
        <time>2026-06-23T08:35:59.000Z</time>
      </trkpt>
      <trkpt lat="42.92832" lon="1.2614">
        <ele>1148</ele>
        <time>2026-06-23T08:36:00.000Z</time>
      </trkpt>
      <trkpt lat="42.92831" lon="1.26133">
        <ele>1148</ele>
        <time>2026-06-23T08:36:01.000Z</time>
      </trkpt>
      <trkpt lat="42.9283" lon="1.26126">
        <ele>1148</ele>
        <time>2026-06-23T08:36:02.000Z</time>
      </trkpt>
      <trkpt lat="42.9283" lon="1.26119">
        <ele>1148</ele>
        <time>2026-06-23T08:36:03.000Z</time>
      </trkpt>
      <trkpt lat="42.92829" lon="1.26111">
        <ele>1149</ele>
        <time>2026-06-23T08:36:04.000Z</time>
      </trkpt>
      <trkpt lat="42.92828" lon="1.26104">
        <ele>1149</ele>
        <time>2026-06-23T08:36:05.000Z</time>
      </trkpt>
      <trkpt lat="42.92827" lon="1.26097">
        <ele>1150</ele>
        <time>2026-06-23T08:36:06.000Z</time>
      </trkpt>
      <trkpt lat="42.92825" lon="1.2609">
        <ele>1150</ele>
        <time>2026-06-23T08:36:07.000Z</time>
      </trkpt>
      <trkpt lat="42.92824" lon="1.26083">
        <ele>1151</ele>
        <time>2026-06-23T08:36:08.000Z</time>
      </trkpt>
      <trkpt lat="42.92824" lon="1.26077">
        <ele>1151</ele>
        <time>2026-06-23T08:36:09.000Z</time>
      </trkpt>
      <trkpt lat="42.92825" lon="1.2607">
        <ele>1151</ele>
        <time>2026-06-23T08:36:10.000Z</time>
      </trkpt>
      <trkpt lat="42.92825" lon="1.26062">
        <ele>1151</ele>
        <time>2026-06-23T08:36:11.000Z</time>
      </trkpt>
      <trkpt lat="42.92825" lon="1.26056">
        <ele>1152</ele>
        <time>2026-06-23T08:36:12.000Z</time>
      </trkpt>
      <trkpt lat="42.92826" lon="1.26049">
        <ele>1151</ele>
        <time>2026-06-23T08:36:13.000Z</time>
      </trkpt>
      <trkpt lat="42.92827" lon="1.26044">
        <ele>1151</ele>
        <time>2026-06-23T08:36:14.000Z</time>
      </trkpt>
      <trkpt lat="42.92828" lon="1.26038">
        <ele>1153</ele>
        <time>2026-06-23T08:36:15.000Z</time>
      </trkpt>
      <trkpt lat="42.92828" lon="1.26032">
        <ele>1153</ele>
        <time>2026-06-23T08:36:16.000Z</time>
      </trkpt>
      <trkpt lat="42.9283" lon="1.26025">
        <ele>1153</ele>
        <time>2026-06-23T08:36:17.000Z</time>
      </trkpt>
      <trkpt lat="42.92831" lon="1.2602">
        <ele>1153</ele>
        <time>2026-06-23T08:36:18.000Z</time>
      </trkpt>
      <trkpt lat="42.92831" lon="1.26013">
        <ele>1152</ele>
        <time>2026-06-23T08:36:19.000Z</time>
      </trkpt>
      <trkpt lat="42.92831" lon="1.26007">
        <ele>1152</ele>
        <time>2026-06-23T08:36:20.000Z</time>
      </trkpt>
      <trkpt lat="42.92832" lon="1.26">
        <ele>1153</ele>
        <time>2026-06-23T08:36:21.000Z</time>
      </trkpt>
      <trkpt lat="42.92832" lon="1.25992">
        <ele>1152</ele>
        <time>2026-06-23T08:36:22.000Z</time>
      </trkpt>
      <trkpt lat="42.92833" lon="1.25982">
        <ele>1152</ele>
        <time>2026-06-23T08:36:23.000Z</time>
      </trkpt>
      <trkpt lat="42.92833" lon="1.25975">
        <ele>1152</ele>
        <time>2026-06-23T08:36:24.000Z</time>
      </trkpt>
      <trkpt lat="42.92835" lon="1.25967">
        <ele>1153</ele>
        <time>2026-06-23T08:36:25.000Z</time>
      </trkpt>
      <trkpt lat="42.92835" lon="1.25959">
        <ele>1152</ele>
        <time>2026-06-23T08:36:26.000Z</time>
      </trkpt>
      <trkpt lat="42.92835" lon="1.25952">
        <ele>1153</ele>
        <time>2026-06-23T08:36:27.000Z</time>
      </trkpt>
      <trkpt lat="42.92836" lon="1.25945">
        <ele>1154</ele>
        <time>2026-06-23T08:36:28.000Z</time>
      </trkpt>
      <trkpt lat="42.92836" lon="1.25938">
        <ele>1154</ele>
        <time>2026-06-23T08:36:29.000Z</time>
      </trkpt>
      <trkpt lat="42.92837" lon="1.2593">
        <ele>1155</ele>
        <time>2026-06-23T08:36:30.000Z</time>
      </trkpt>
      <trkpt lat="42.92837" lon="1.25923">
        <ele>1155</ele>
        <time>2026-06-23T08:36:31.000Z</time>
      </trkpt>
      <trkpt lat="42.92837" lon="1.25915">
        <ele>1155</ele>
        <time>2026-06-23T08:36:32.000Z</time>
      </trkpt>
      <trkpt lat="42.92838" lon="1.25908">
        <ele>1155</ele>
        <time>2026-06-23T08:36:33.000Z</time>
      </trkpt>
      <trkpt lat="42.92837" lon="1.25902">
        <ele>1155</ele>
        <time>2026-06-23T08:36:34.000Z</time>
      </trkpt>
      <trkpt lat="42.92837" lon="1.25895">
        <ele>1155</ele>
        <time>2026-06-23T08:36:35.000Z</time>
      </trkpt>
      <trkpt lat="42.92839" lon="1.25889">
        <ele>1155</ele>
        <time>2026-06-23T08:36:36.000Z</time>
      </trkpt>
      <trkpt lat="42.9284" lon="1.25883">
        <ele>1155</ele>
        <time>2026-06-23T08:36:37.000Z</time>
      </trkpt>
      <trkpt lat="42.9284" lon="1.25876">
        <ele>1156</ele>
        <time>2026-06-23T08:36:38.000Z</time>
      </trkpt>
      <trkpt lat="42.92841" lon="1.25869">
        <ele>1156</ele>
        <time>2026-06-23T08:36:39.000Z</time>
      </trkpt>
      <trkpt lat="42.92843" lon="1.25862">
        <ele>1156</ele>
        <time>2026-06-23T08:36:40.000Z</time>
      </trkpt>
      <trkpt lat="42.92843" lon="1.25855">
        <ele>1156</ele>
        <time>2026-06-23T08:36:41.000Z</time>
      </trkpt>
      <trkpt lat="42.92843" lon="1.25846">
        <ele>1157</ele>
        <time>2026-06-23T08:36:42.000Z</time>
      </trkpt>
      <trkpt lat="42.92843" lon="1.25838">
        <ele>1157</ele>
        <time>2026-06-23T08:36:43.000Z</time>
      </trkpt>
      <trkpt lat="42.92843" lon="1.25829">
        <ele>1157</ele>
        <time>2026-06-23T08:36:44.000Z</time>
      </trkpt>
      <trkpt lat="42.92843" lon="1.25821">
        <ele>1157</ele>
        <time>2026-06-23T08:36:45.000Z</time>
      </trkpt>
      <trkpt lat="42.92842" lon="1.25813">
        <ele>1157</ele>
        <time>2026-06-23T08:36:46.000Z</time>
      </trkpt>
      <trkpt lat="42.92842" lon="1.25805">
        <ele>1157</ele>
        <time>2026-06-23T08:36:47.000Z</time>
      </trkpt>
      <trkpt lat="42.92842" lon="1.25797">
        <ele>1157</ele>
        <time>2026-06-23T08:36:48.000Z</time>
      </trkpt>
      <trkpt lat="42.92841" lon="1.25789">
        <ele>1157</ele>
        <time>2026-06-23T08:36:49.000Z</time>
      </trkpt>
      <trkpt lat="42.9284" lon="1.25781">
        <ele>1157</ele>
        <time>2026-06-23T08:36:50.000Z</time>
      </trkpt>
      <trkpt lat="42.92839" lon="1.25774">
        <ele>1157</ele>
        <time>2026-06-23T08:36:51.000Z</time>
      </trkpt>
      <trkpt lat="42.92836" lon="1.25767">
        <ele>1157</ele>
        <time>2026-06-23T08:36:52.000Z</time>
      </trkpt>
      <trkpt lat="42.92833" lon="1.2576">
        <ele>1156</ele>
        <time>2026-06-23T08:36:53.000Z</time>
      </trkpt>
      <trkpt lat="42.92831" lon="1.25752">
        <ele>1156</ele>
        <time>2026-06-23T08:36:54.000Z</time>
      </trkpt>
      <trkpt lat="42.92828" lon="1.25744">
        <ele>1156</ele>
        <time>2026-06-23T08:36:55.000Z</time>
      </trkpt>
      <trkpt lat="42.92825" lon="1.25737">
        <ele>1156</ele>
        <time>2026-06-23T08:36:56.000Z</time>
      </trkpt>
      <trkpt lat="42.92822" lon="1.2573">
        <ele>1156</ele>
        <time>2026-06-23T08:36:57.000Z</time>
      </trkpt>
      <trkpt lat="42.92819" lon="1.25724">
        <ele>1156</ele>
        <time>2026-06-23T08:36:58.000Z</time>
      </trkpt>
      <trkpt lat="42.92817" lon="1.25717">
        <ele>1156</ele>
        <time>2026-06-23T08:36:59.000Z</time>
      </trkpt>
      <trkpt lat="42.92816" lon="1.25709">
        <ele>1156</ele>
        <time>2026-06-23T08:37:00.000Z</time>
      </trkpt>
      <trkpt lat="42.92814" lon="1.25701">
        <ele>1156</ele>
        <time>2026-06-23T08:37:01.000Z</time>
      </trkpt>
      <trkpt lat="42.92812" lon="1.25693">
        <ele>1155</ele>
        <time>2026-06-23T08:37:02.000Z</time>
      </trkpt>
      <trkpt lat="42.92809" lon="1.25685">
        <ele>1155</ele>
        <time>2026-06-23T08:37:03.000Z</time>
      </trkpt>
      <trkpt lat="42.92807" lon="1.25677">
        <ele>1155</ele>
        <time>2026-06-23T08:37:04.000Z</time>
      </trkpt>
      <trkpt lat="42.92804" lon="1.25669">
        <ele>1154</ele>
        <time>2026-06-23T08:37:05.000Z</time>
      </trkpt>
      <trkpt lat="42.92803" lon="1.2566">
        <ele>1155</ele>
        <time>2026-06-23T08:37:06.000Z</time>
      </trkpt>
      <trkpt lat="42.92801" lon="1.25652">
        <ele>1155</ele>
        <time>2026-06-23T08:37:07.000Z</time>
      </trkpt>
      <trkpt lat="42.92799" lon="1.25644">
        <ele>1155</ele>
        <time>2026-06-23T08:37:08.000Z</time>
      </trkpt>
      <trkpt lat="42.92797" lon="1.25635">
        <ele>1155</ele>
        <time>2026-06-23T08:37:09.000Z</time>
      </trkpt>
      <trkpt lat="42.92796" lon="1.25626">
        <ele>1155</ele>
        <time>2026-06-23T08:37:10.000Z</time>
      </trkpt>
      <trkpt lat="42.92795" lon="1.25617">
        <ele>1155</ele>
        <time>2026-06-23T08:37:11.000Z</time>
      </trkpt>
      <trkpt lat="42.92794" lon="1.25608">
        <ele>1155</ele>
        <time>2026-06-23T08:37:12.000Z</time>
      </trkpt>
      <trkpt lat="42.92792" lon="1.25598">
        <ele>1155</ele>
        <time>2026-06-23T08:37:13.000Z</time>
      </trkpt>
      <trkpt lat="42.92791" lon="1.25589">
        <ele>1156</ele>
        <time>2026-06-23T08:37:14.000Z</time>
      </trkpt>
      <trkpt lat="42.9279" lon="1.2558">
        <ele>1157</ele>
        <time>2026-06-23T08:37:15.000Z</time>
      </trkpt>
      <trkpt lat="42.92789" lon="1.25571">
        <ele>1157</ele>
        <time>2026-06-23T08:37:16.000Z</time>
      </trkpt>
      <trkpt lat="42.92788" lon="1.25563">
        <ele>1157</ele>
        <time>2026-06-23T08:37:17.000Z</time>
      </trkpt>
      <trkpt lat="42.92787" lon="1.25553">
        <ele>1157</ele>
        <time>2026-06-23T08:37:18.000Z</time>
      </trkpt>
      <trkpt lat="42.92787" lon="1.25544">
        <ele>1158</ele>
        <time>2026-06-23T08:37:19.000Z</time>
      </trkpt>
      <trkpt lat="42.92787" lon="1.25535">
        <ele>1158</ele>
        <time>2026-06-23T08:37:20.000Z</time>
      </trkpt>
      <trkpt lat="42.92787" lon="1.25527">
        <ele>1158</ele>
        <time>2026-06-23T08:37:21.000Z</time>
      </trkpt>
      <trkpt lat="42.92788" lon="1.25519">
        <ele>1158</ele>
        <time>2026-06-23T08:37:22.000Z</time>
      </trkpt>
      <trkpt lat="42.92789" lon="1.2551">
        <ele>1157</ele>
        <time>2026-06-23T08:37:23.000Z</time>
      </trkpt>
      <trkpt lat="42.9279" lon="1.25502">
        <ele>1158</ele>
        <time>2026-06-23T08:37:24.000Z</time>
      </trkpt>
      <trkpt lat="42.92791" lon="1.25493">
        <ele>1158</ele>
        <time>2026-06-23T08:37:25.000Z</time>
      </trkpt>
      <trkpt lat="42.92792" lon="1.25484">
        <ele>1157</ele>
        <time>2026-06-23T08:37:26.000Z</time>
      </trkpt>
      <trkpt lat="42.92793" lon="1.25475">
        <ele>1157</ele>
        <time>2026-06-23T08:37:27.000Z</time>
      </trkpt>
      <trkpt lat="42.92794" lon="1.25467">
        <ele>1156</ele>
        <time>2026-06-23T08:37:28.000Z</time>
      </trkpt>
      <trkpt lat="42.92795" lon="1.25459">
        <ele>1156</ele>
        <time>2026-06-23T08:37:29.000Z</time>
      </trkpt>
      <trkpt lat="42.92797" lon="1.25451">
        <ele>1156</ele>
        <time>2026-06-23T08:37:30.000Z</time>
      </trkpt>
      <trkpt lat="42.92798" lon="1.25444">
        <ele>1156</ele>
        <time>2026-06-23T08:37:31.000Z</time>
      </trkpt>
      <trkpt lat="42.92799" lon="1.25438">
        <ele>1156</ele>
        <time>2026-06-23T08:37:32.000Z</time>
      </trkpt>
      <trkpt lat="42.928" lon="1.25433">
        <ele>1156</ele>
        <time>2026-06-23T08:37:33.000Z</time>
      </trkpt>
      <trkpt lat="42.92801" lon="1.2543">
        <ele>1156</ele>
        <time>2026-06-23T08:37:34.000Z</time>
      </trkpt>
      <trkpt lat="42.928" lon="1.25429">
        <ele>1156</ele>
        <time>2026-06-23T08:37:35.000Z</time>
      </trkpt>
      <trkpt lat="42.92801" lon="1.25427">
        <ele>1156</ele>
        <time>2026-06-23T08:37:36.000Z</time>
      </trkpt>
      <trkpt lat="42.92802" lon="1.25426">
        <ele>1156</ele>
        <time>2026-06-23T08:37:37.000Z</time>
      </trkpt>
      <trkpt lat="42.92803" lon="1.25424">
        <ele>1156</ele>
        <time>2026-06-23T08:37:38.000Z</time>
      </trkpt>
      <trkpt lat="42.92804" lon="1.25422">
        <ele>1157</ele>
        <time>2026-06-23T08:37:39.000Z</time>
      </trkpt>
      <trkpt lat="42.92806" lon="1.25419">
        <ele>1157</ele>
        <time>2026-06-23T08:37:40.000Z</time>
      </trkpt>
      <trkpt lat="42.92807" lon="1.25414">
        <ele>1157</ele>
        <time>2026-06-23T08:37:41.000Z</time>
      </trkpt>
      <trkpt lat="42.92808" lon="1.25409">
        <ele>1158</ele>
        <time>2026-06-23T08:37:42.000Z</time>
      </trkpt>
      <trkpt lat="42.92809" lon="1.25404">
        <ele>1158</ele>
        <time>2026-06-23T08:37:43.000Z</time>
      </trkpt>
      <trkpt lat="42.92811" lon="1.25397">
        <ele>1158</ele>
        <time>2026-06-23T08:37:44.000Z</time>
      </trkpt>
      <trkpt lat="42.92815" lon="1.25388">
        <ele>1158</ele>
        <time>2026-06-23T08:37:45.000Z</time>
      </trkpt>
      <trkpt lat="42.9282" lon="1.25383">
        <ele>1158</ele>
        <time>2026-06-23T08:37:46.000Z</time>
      </trkpt>
      <trkpt lat="42.92824" lon="1.25377">
        <ele>1157</ele>
        <time>2026-06-23T08:37:47.000Z</time>
      </trkpt>
      <trkpt lat="42.92828" lon="1.25371">
        <ele>1158</ele>
        <time>2026-06-23T08:37:48.000Z</time>
      </trkpt>
      <trkpt lat="42.92832" lon="1.25366">
        <ele>1158</ele>
        <time>2026-06-23T08:37:49.000Z</time>
      </trkpt>
      <trkpt lat="42.92837" lon="1.25362">
        <ele>1158</ele>
        <time>2026-06-23T08:37:50.000Z</time>
      </trkpt>
      <trkpt lat="42.92842" lon="1.25358">
        <ele>1158</ele>
        <time>2026-06-23T08:37:51.000Z</time>
      </trkpt>
      <trkpt lat="42.92847" lon="1.25355">
        <ele>1159</ele>
        <time>2026-06-23T08:37:52.000Z</time>
      </trkpt>
      <trkpt lat="42.92852" lon="1.25351">
        <ele>1158</ele>
        <time>2026-06-23T08:37:53.000Z</time>
      </trkpt>
      <trkpt lat="42.92859" lon="1.2535">
        <ele>1159</ele>
        <time>2026-06-23T08:37:54.000Z</time>
      </trkpt>
      <trkpt lat="42.92864" lon="1.25349">
        <ele>1160</ele>
        <time>2026-06-23T08:37:55.000Z</time>
      </trkpt>
      <trkpt lat="42.92869" lon="1.25349">
        <ele>1160</ele>
        <time>2026-06-23T08:37:56.000Z</time>
      </trkpt>
      <trkpt lat="42.92875" lon="1.2535">
        <ele>1161</ele>
        <time>2026-06-23T08:37:57.000Z</time>
      </trkpt>
      <trkpt lat="42.9288" lon="1.25349">
        <ele>1161</ele>
        <time>2026-06-23T08:37:58.000Z</time>
      </trkpt>
      <trkpt lat="42.92883" lon="1.25349">
        <ele>1161</ele>
        <time>2026-06-23T08:37:59.000Z</time>
      </trkpt>
      <trkpt lat="42.92885" lon="1.25349">
        <ele>1161</ele>
        <time>2026-06-23T08:38:00.000Z</time>
      </trkpt>
      <trkpt lat="42.92889" lon="1.2535">
        <ele>1161</ele>
        <time>2026-06-23T08:38:01.000Z</time>
      </trkpt>
      <trkpt lat="42.92893" lon="1.25349">
        <ele>1161</ele>
        <time>2026-06-23T08:38:02.000Z</time>
      </trkpt>
      <trkpt lat="42.92898" lon="1.2535">
        <ele>1161</ele>
        <time>2026-06-23T08:38:03.000Z</time>
      </trkpt>
      <trkpt lat="42.92902" lon="1.25349">
        <ele>1160</ele>
        <time>2026-06-23T08:38:04.000Z</time>
      </trkpt>
      <trkpt lat="42.92906" lon="1.25348">
        <ele>1161</ele>
        <time>2026-06-23T08:38:05.000Z</time>
      </trkpt>
      <trkpt lat="42.92911" lon="1.25349">
        <ele>1160</ele>
        <time>2026-06-23T08:38:06.000Z</time>
      </trkpt>
      <trkpt lat="42.92916" lon="1.25348">
        <ele>1160</ele>
        <time>2026-06-23T08:38:07.000Z</time>
      </trkpt>
      <trkpt lat="42.92921" lon="1.25347">
        <ele>1159</ele>
        <time>2026-06-23T08:38:08.000Z</time>
      </trkpt>
      <trkpt lat="42.92925" lon="1.25346">
        <ele>1159</ele>
        <time>2026-06-23T08:38:09.000Z</time>
      </trkpt>
      <trkpt lat="42.9293" lon="1.25344">
        <ele>1160</ele>
        <time>2026-06-23T08:38:10.000Z</time>
      </trkpt>
      <trkpt lat="42.92936" lon="1.25342">
        <ele>1160</ele>
        <time>2026-06-23T08:38:11.000Z</time>
      </trkpt>
      <trkpt lat="42.92941" lon="1.25341">
        <ele>1161</ele>
        <time>2026-06-23T08:38:12.000Z</time>
      </trkpt>
      <trkpt lat="42.92947" lon="1.25339">
        <ele>1161</ele>
        <time>2026-06-23T08:38:13.000Z</time>
      </trkpt>
      <trkpt lat="42.92952" lon="1.25337">
        <ele>1161</ele>
        <time>2026-06-23T08:38:14.000Z</time>
      </trkpt>
      <trkpt lat="42.92958" lon="1.25335">
        <ele>1161</ele>
        <time>2026-06-23T08:38:15.000Z</time>
      </trkpt>
      <trkpt lat="42.92963" lon="1.25334">
        <ele>1161</ele>
        <time>2026-06-23T08:38:16.000Z</time>
      </trkpt>
      <trkpt lat="42.92968" lon="1.25332">
        <ele>1161</ele>
        <time>2026-06-23T08:38:17.000Z</time>
      </trkpt>
      <trkpt lat="42.92972" lon="1.2533">
        <ele>1161</ele>
        <time>2026-06-23T08:38:18.000Z</time>
      </trkpt>
      <trkpt lat="42.92977" lon="1.25328">
        <ele>1161</ele>
        <time>2026-06-23T08:38:19.000Z</time>
      </trkpt>
      <trkpt lat="42.92982" lon="1.25324">
        <ele>1161</ele>
        <time>2026-06-23T08:38:20.000Z</time>
      </trkpt>
      <trkpt lat="42.92986" lon="1.25322">
        <ele>1161</ele>
        <time>2026-06-23T08:38:21.000Z</time>
      </trkpt>
      <trkpt lat="42.92991" lon="1.25318">
        <ele>1161</ele>
        <time>2026-06-23T08:38:22.000Z</time>
      </trkpt>
      <trkpt lat="42.92996" lon="1.25312">
        <ele>1161</ele>
        <time>2026-06-23T08:38:23.000Z</time>
      </trkpt>
      <trkpt lat="42.92997" lon="1.25303">
        <ele>1161</ele>
        <time>2026-06-23T08:38:24.000Z</time>
      </trkpt>
      <trkpt lat="42.92999" lon="1.25299">
        <ele>1160</ele>
        <time>2026-06-23T08:38:25.000Z</time>
      </trkpt>
      <trkpt lat="42.92999" lon="1.25293">
        <ele>1160</ele>
        <time>2026-06-23T08:38:26.000Z</time>
      </trkpt>
      <trkpt lat="42.92997" lon="1.25287">
        <ele>1160</ele>
        <time>2026-06-23T08:38:27.000Z</time>
      </trkpt>
      <trkpt lat="42.92993" lon="1.25278">
        <ele>1159</ele>
        <time>2026-06-23T08:38:28.000Z</time>
      </trkpt>
      <trkpt lat="42.92988" lon="1.25272">
        <ele>1159</ele>
        <time>2026-06-23T08:38:29.000Z</time>
      </trkpt>
      <trkpt lat="42.92984" lon="1.25266">
        <ele>1158</ele>
        <time>2026-06-23T08:38:30.000Z</time>
      </trkpt>
      <trkpt lat="42.92981" lon="1.25259">
        <ele>1158</ele>
        <time>2026-06-23T08:38:31.000Z</time>
      </trkpt>
      <trkpt lat="42.92978" lon="1.25252">
        <ele>1158</ele>
        <time>2026-06-23T08:38:32.000Z</time>
      </trkpt>
      <trkpt lat="42.92976" lon="1.25245">
        <ele>1158</ele>
        <time>2026-06-23T08:38:33.000Z</time>
      </trkpt>
      <trkpt lat="42.92975" lon="1.25237">
        <ele>1158</ele>
        <time>2026-06-23T08:38:34.000Z</time>
      </trkpt>
      <trkpt lat="42.92976" lon="1.25229">
        <ele>1158</ele>
        <time>2026-06-23T08:38:35.000Z</time>
      </trkpt>
      <trkpt lat="42.92977" lon="1.25222">
        <ele>1158</ele>
        <time>2026-06-23T08:38:36.000Z</time>
      </trkpt>
      <trkpt lat="42.92978" lon="1.25216">
        <ele>1158</ele>
        <time>2026-06-23T08:38:37.000Z</time>
      </trkpt>
      <trkpt lat="42.92979" lon="1.25209">
        <ele>1159</ele>
        <time>2026-06-23T08:38:38.000Z</time>
      </trkpt>
      <trkpt lat="42.9298" lon="1.25202">
        <ele>1159</ele>
        <time>2026-06-23T08:38:39.000Z</time>
      </trkpt>
      <trkpt lat="42.92981" lon="1.25195">
        <ele>1160</ele>
        <time>2026-06-23T08:38:40.000Z</time>
      </trkpt>
      <trkpt lat="42.92983" lon="1.25188">
        <ele>1160</ele>
        <time>2026-06-23T08:38:41.000Z</time>
      </trkpt>
      <trkpt lat="42.92986" lon="1.25181">
        <ele>1161</ele>
        <time>2026-06-23T08:38:42.000Z</time>
      </trkpt>
      <trkpt lat="42.92988" lon="1.25174">
        <ele>1161</ele>
        <time>2026-06-23T08:38:43.000Z</time>
      </trkpt>
      <trkpt lat="42.92991" lon="1.25167">
        <ele>1161</ele>
        <time>2026-06-23T08:38:44.000Z</time>
      </trkpt>
      <trkpt lat="42.92993" lon="1.2516">
        <ele>1162</ele>
        <time>2026-06-23T08:38:45.000Z</time>
      </trkpt>
      <trkpt lat="42.92996" lon="1.25153">
        <ele>1163</ele>
        <time>2026-06-23T08:38:46.000Z</time>
      </trkpt>
      <trkpt lat="42.92998" lon="1.25145">
        <ele>1163</ele>
        <time>2026-06-23T08:38:47.000Z</time>
      </trkpt>
      <trkpt lat="42.93002" lon="1.25138">
        <ele>1163</ele>
        <time>2026-06-23T08:38:48.000Z</time>
      </trkpt>
      <trkpt lat="42.93004" lon="1.25131">
        <ele>1164</ele>
        <time>2026-06-23T08:38:49.000Z</time>
      </trkpt>
      <trkpt lat="42.93006" lon="1.25124">
        <ele>1165</ele>
        <time>2026-06-23T08:38:50.000Z</time>
      </trkpt>
      <trkpt lat="42.9301" lon="1.25117">
        <ele>1165</ele>
        <time>2026-06-23T08:38:51.000Z</time>
      </trkpt>
      <trkpt lat="42.93012" lon="1.25111">
        <ele>1165</ele>
        <time>2026-06-23T08:38:52.000Z</time>
      </trkpt>
      <trkpt lat="42.93015" lon="1.25106">
        <ele>1165</ele>
        <time>2026-06-23T08:38:53.000Z</time>
      </trkpt>
      <trkpt lat="42.93018" lon="1.25101">
        <ele>1164</ele>
        <time>2026-06-23T08:38:54.000Z</time>
      </trkpt>
      <trkpt lat="42.93021" lon="1.25097">
        <ele>1164</ele>
        <time>2026-06-23T08:38:55.000Z</time>
      </trkpt>
      <trkpt lat="42.93025" lon="1.25092">
        <ele>1164</ele>
        <time>2026-06-23T08:38:56.000Z</time>
      </trkpt>
      <trkpt lat="42.93028" lon="1.25087">
        <ele>1164</ele>
        <time>2026-06-23T08:38:57.000Z</time>
      </trkpt>
      <trkpt lat="42.9303" lon="1.25082">
        <ele>1165</ele>
        <time>2026-06-23T08:38:58.000Z</time>
      </trkpt>
      <trkpt lat="42.93034" lon="1.25077">
        <ele>1164</ele>
        <time>2026-06-23T08:38:59.000Z</time>
      </trkpt>
      <trkpt lat="42.93036" lon="1.2507">
        <ele>1164</ele>
        <time>2026-06-23T08:39:00.000Z</time>
      </trkpt>
      <trkpt lat="42.9304" lon="1.25064">
        <ele>1164</ele>
        <time>2026-06-23T08:39:01.000Z</time>
      </trkpt>
      <trkpt lat="42.93042" lon="1.25058">
        <ele>1164</ele>
        <time>2026-06-23T08:39:02.000Z</time>
      </trkpt>
      <trkpt lat="42.93044" lon="1.25051">
        <ele>1163</ele>
        <time>2026-06-23T08:39:03.000Z</time>
      </trkpt>
      <trkpt lat="42.93046" lon="1.25045">
        <ele>1163</ele>
        <time>2026-06-23T08:39:04.000Z</time>
      </trkpt>
      <trkpt lat="42.93047" lon="1.25037">
        <ele>1163</ele>
        <time>2026-06-23T08:39:05.000Z</time>
      </trkpt>
      <trkpt lat="42.93047" lon="1.25029">
        <ele>1163</ele>
        <time>2026-06-23T08:39:06.000Z</time>
      </trkpt>
      <trkpt lat="42.93045" lon="1.25021">
        <ele>1163</ele>
        <time>2026-06-23T08:39:07.000Z</time>
      </trkpt>
      <trkpt lat="42.93043" lon="1.25016">
        <ele>1163</ele>
        <time>2026-06-23T08:39:08.000Z</time>
      </trkpt>
      <trkpt lat="42.93039" lon="1.25011">
        <ele>1163</ele>
        <time>2026-06-23T08:39:09.000Z</time>
      </trkpt>
      <trkpt lat="42.93033" lon="1.25005">
        <ele>1163</ele>
        <time>2026-06-23T08:39:10.000Z</time>
      </trkpt>
      <trkpt lat="42.93027" lon="1.24999">
        <ele>1162</ele>
        <time>2026-06-23T08:39:11.000Z</time>
      </trkpt>
      <trkpt lat="42.93022" lon="1.24994">
        <ele>1162</ele>
        <time>2026-06-23T08:39:12.000Z</time>
      </trkpt>
      <trkpt lat="42.93017" lon="1.24987">
        <ele>1162</ele>
        <time>2026-06-23T08:39:13.000Z</time>
      </trkpt>
      <trkpt lat="42.93012" lon="1.2498">
        <ele>1161</ele>
        <time>2026-06-23T08:39:14.000Z</time>
      </trkpt>
      <trkpt lat="42.93009" lon="1.24972">
        <ele>1161</ele>
        <time>2026-06-23T08:39:15.000Z</time>
      </trkpt>
      <trkpt lat="42.93007" lon="1.24963">
        <ele>1161</ele>
        <time>2026-06-23T08:39:16.000Z</time>
      </trkpt>
      <trkpt lat="42.93006" lon="1.24955">
        <ele>1160</ele>
        <time>2026-06-23T08:39:17.000Z</time>
      </trkpt>
      <trkpt lat="42.93007" lon="1.24947">
        <ele>1159</ele>
        <time>2026-06-23T08:39:18.000Z</time>
      </trkpt>
      <trkpt lat="42.93007" lon="1.24938">
        <ele>1159</ele>
        <time>2026-06-23T08:39:19.000Z</time>
      </trkpt>
      <trkpt lat="42.93007" lon="1.2493">
        <ele>1158</ele>
        <time>2026-06-23T08:39:20.000Z</time>
      </trkpt>
      <trkpt lat="42.93007" lon="1.24922">
        <ele>1158</ele>
        <time>2026-06-23T08:39:21.000Z</time>
      </trkpt>
      <trkpt lat="42.93007" lon="1.24914">
        <ele>1158</ele>
        <time>2026-06-23T08:39:22.000Z</time>
      </trkpt>
      <trkpt lat="42.93007" lon="1.24907">
        <ele>1158</ele>
        <time>2026-06-23T08:39:23.000Z</time>
      </trkpt>
      <trkpt lat="42.93005" lon="1.24898">
        <ele>1158</ele>
        <time>2026-06-23T08:39:24.000Z</time>
      </trkpt>
      <trkpt lat="42.93004" lon="1.24891">
        <ele>1157</ele>
        <time>2026-06-23T08:39:25.000Z</time>
      </trkpt>
      <trkpt lat="42.93003" lon="1.24884">
        <ele>1157</ele>
        <time>2026-06-23T08:39:26.000Z</time>
      </trkpt>
      <trkpt lat="42.93002" lon="1.24876">
        <ele>1157</ele>
        <time>2026-06-23T08:39:27.000Z</time>
      </trkpt>
      <trkpt lat="42.93001" lon="1.24868">
        <ele>1157</ele>
        <time>2026-06-23T08:39:28.000Z</time>
      </trkpt>
      <trkpt lat="42.92999" lon="1.24859">
        <ele>1157</ele>
        <time>2026-06-23T08:39:29.000Z</time>
      </trkpt>
      <trkpt lat="42.92998" lon="1.24851">
        <ele>1157</ele>
        <time>2026-06-23T08:39:30.000Z</time>
      </trkpt>
      <trkpt lat="42.92995" lon="1.24842">
        <ele>1157</ele>
        <time>2026-06-23T08:39:31.000Z</time>
      </trkpt>
      <trkpt lat="42.92994" lon="1.24834">
        <ele>1157</ele>
        <time>2026-06-23T08:39:32.000Z</time>
      </trkpt>
      <trkpt lat="42.92992" lon="1.24828">
        <ele>1156</ele>
        <time>2026-06-23T08:39:33.000Z</time>
      </trkpt>
      <trkpt lat="42.92991" lon="1.2482">
        <ele>1155</ele>
        <time>2026-06-23T08:39:34.000Z</time>
      </trkpt>
      <trkpt lat="42.92991" lon="1.24811">
        <ele>1155</ele>
        <time>2026-06-23T08:39:35.000Z</time>
      </trkpt>
      <trkpt lat="42.9299" lon="1.24803">
        <ele>1154</ele>
        <time>2026-06-23T08:39:36.000Z</time>
      </trkpt>
      <trkpt lat="42.92991" lon="1.24793">
        <ele>1153</ele>
        <time>2026-06-23T08:39:37.000Z</time>
      </trkpt>
      <trkpt lat="42.92991" lon="1.24784">
        <ele>1152</ele>
        <time>2026-06-23T08:39:38.000Z</time>
      </trkpt>
      <trkpt lat="42.92992" lon="1.24774">
        <ele>1152</ele>
        <time>2026-06-23T08:39:39.000Z</time>
      </trkpt>
      <trkpt lat="42.92992" lon="1.24766">
        <ele>1151</ele>
        <time>2026-06-23T08:39:40.000Z</time>
      </trkpt>
      <trkpt lat="42.92993" lon="1.24757">
        <ele>1151</ele>
        <time>2026-06-23T08:39:41.000Z</time>
      </trkpt>
      <trkpt lat="42.92993" lon="1.24749">
        <ele>1151</ele>
        <time>2026-06-23T08:39:42.000Z</time>
      </trkpt>
      <trkpt lat="42.92993" lon="1.2474">
        <ele>1151</ele>
        <time>2026-06-23T08:39:43.000Z</time>
      </trkpt>
      <trkpt lat="42.92993" lon="1.24731">
        <ele>1151</ele>
        <time>2026-06-23T08:39:44.000Z</time>
      </trkpt>
      <trkpt lat="42.92992" lon="1.24722">
        <ele>1150</ele>
        <time>2026-06-23T08:39:45.000Z</time>
      </trkpt>
      <trkpt lat="42.92991" lon="1.24714">
        <ele>1150</ele>
        <time>2026-06-23T08:39:46.000Z</time>
      </trkpt>
      <trkpt lat="42.92989" lon="1.24705">
        <ele>1150</ele>
        <time>2026-06-23T08:39:47.000Z</time>
      </trkpt>
      <trkpt lat="42.92987" lon="1.24695">
        <ele>1150</ele>
        <time>2026-06-23T08:39:48.000Z</time>
      </trkpt>
      <trkpt lat="42.92985" lon="1.24686">
        <ele>1150</ele>
        <time>2026-06-23T08:39:49.000Z</time>
      </trkpt>
      <trkpt lat="42.92984" lon="1.24677">
        <ele>1149</ele>
        <time>2026-06-23T08:39:50.000Z</time>
      </trkpt>
      <trkpt lat="42.92982" lon="1.24668">
        <ele>1149</ele>
        <time>2026-06-23T08:39:51.000Z</time>
      </trkpt>
      <trkpt lat="42.92979" lon="1.24659">
        <ele>1149</ele>
        <time>2026-06-23T08:39:52.000Z</time>
      </trkpt>
      <trkpt lat="42.92977" lon="1.2465">
        <ele>1149</ele>
        <time>2026-06-23T08:39:53.000Z</time>
      </trkpt>
      <trkpt lat="42.92975" lon="1.2464">
        <ele>1149</ele>
        <time>2026-06-23T08:39:54.000Z</time>
      </trkpt>
      <trkpt lat="42.92974" lon="1.24629">
        <ele>1149</ele>
        <time>2026-06-23T08:39:55.000Z</time>
      </trkpt>
      <trkpt lat="42.92972" lon="1.2462">
        <ele>1148</ele>
        <time>2026-06-23T08:39:56.000Z</time>
      </trkpt>
      <trkpt lat="42.92972" lon="1.2461">
        <ele>1148</ele>
        <time>2026-06-23T08:39:57.000Z</time>
      </trkpt>
      <trkpt lat="42.92971" lon="1.246">
        <ele>1148</ele>
        <time>2026-06-23T08:39:58.000Z</time>
      </trkpt>
      <trkpt lat="42.92972" lon="1.24589">
        <ele>1148</ele>
        <time>2026-06-23T08:39:59.000Z</time>
      </trkpt>
      <trkpt lat="42.92973" lon="1.24579">
        <ele>1148</ele>
        <time>2026-06-23T08:40:00.000Z</time>
      </trkpt>
      <trkpt lat="42.92975" lon="1.24568">
        <ele>1148</ele>
        <time>2026-06-23T08:40:01.000Z</time>
      </trkpt>
      <trkpt lat="42.92977" lon="1.24558">
        <ele>1148</ele>
        <time>2026-06-23T08:40:02.000Z</time>
      </trkpt>
      <trkpt lat="42.92979" lon="1.24547">
        <ele>1149</ele>
        <time>2026-06-23T08:40:03.000Z</time>
      </trkpt>
      <trkpt lat="42.92982" lon="1.24537">
        <ele>1149</ele>
        <time>2026-06-23T08:40:04.000Z</time>
      </trkpt>
      <trkpt lat="42.92986" lon="1.24525">
        <ele>1149</ele>
        <time>2026-06-23T08:40:05.000Z</time>
      </trkpt>
      <trkpt lat="42.9299" lon="1.24514">
        <ele>1150</ele>
        <time>2026-06-23T08:40:06.000Z</time>
      </trkpt>
      <trkpt lat="42.92994" lon="1.24504">
        <ele>1150</ele>
        <time>2026-06-23T08:40:07.000Z</time>
      </trkpt>
      <trkpt lat="42.92999" lon="1.24496">
        <ele>1150</ele>
        <time>2026-06-23T08:40:08.000Z</time>
      </trkpt>
      <trkpt lat="42.93003" lon="1.24487">
        <ele>1150</ele>
        <time>2026-06-23T08:40:09.000Z</time>
      </trkpt>
      <trkpt lat="42.93009" lon="1.24479">
        <ele>1149</ele>
        <time>2026-06-23T08:40:10.000Z</time>
      </trkpt>
      <trkpt lat="42.93015" lon="1.24472">
        <ele>1149</ele>
        <time>2026-06-23T08:40:11.000Z</time>
      </trkpt>
      <trkpt lat="42.93021" lon="1.24467">
        <ele>1148</ele>
        <time>2026-06-23T08:40:12.000Z</time>
      </trkpt>
      <trkpt lat="42.93027" lon="1.24463">
        <ele>1147</ele>
        <time>2026-06-23T08:40:13.000Z</time>
      </trkpt>
      <trkpt lat="42.93033" lon="1.2446">
        <ele>1146</ele>
        <time>2026-06-23T08:40:14.000Z</time>
      </trkpt>
      <trkpt lat="42.9304" lon="1.24458">
        <ele>1146</ele>
        <time>2026-06-23T08:40:15.000Z</time>
      </trkpt>
      <trkpt lat="42.93047" lon="1.24455">
        <ele>1146</ele>
        <time>2026-06-23T08:40:16.000Z</time>
      </trkpt>
      <trkpt lat="42.93054" lon="1.24453">
        <ele>1146</ele>
        <time>2026-06-23T08:40:17.000Z</time>
      </trkpt>
      <trkpt lat="42.93061" lon="1.24451">
        <ele>1145</ele>
        <time>2026-06-23T08:40:18.000Z</time>
      </trkpt>
      <trkpt lat="42.93067" lon="1.24452">
        <ele>1145</ele>
        <time>2026-06-23T08:40:19.000Z</time>
      </trkpt>
      <trkpt lat="42.93073" lon="1.24452">
        <ele>1145</ele>
        <time>2026-06-23T08:40:20.000Z</time>
      </trkpt>
      <trkpt lat="42.93078" lon="1.24453">
        <ele>1145</ele>
        <time>2026-06-23T08:40:21.000Z</time>
      </trkpt>
      <trkpt lat="42.93083" lon="1.24452">
        <ele>1145</ele>
        <time>2026-06-23T08:40:22.000Z</time>
      </trkpt>
      <trkpt lat="42.93089" lon="1.24451">
        <ele>1145</ele>
        <time>2026-06-23T08:40:23.000Z</time>
      </trkpt>
      <trkpt lat="42.93093" lon="1.24445">
        <ele>1145</ele>
        <time>2026-06-23T08:40:24.000Z</time>
      </trkpt>
      <trkpt lat="42.93096" lon="1.24437">
        <ele>1145</ele>
        <time>2026-06-23T08:40:25.000Z</time>
      </trkpt>
      <trkpt lat="42.93097" lon="1.24427">
        <ele>1144</ele>
        <time>2026-06-23T08:40:26.000Z</time>
      </trkpt>
      <trkpt lat="42.93098" lon="1.24419">
        <ele>1144</ele>
        <time>2026-06-23T08:40:27.000Z</time>
      </trkpt>
      <trkpt lat="42.93099" lon="1.24411">
        <ele>1144</ele>
        <time>2026-06-23T08:40:28.000Z</time>
      </trkpt>
      <trkpt lat="42.931" lon="1.24403">
        <ele>1144</ele>
        <time>2026-06-23T08:40:29.000Z</time>
      </trkpt>
      <trkpt lat="42.93102" lon="1.24395">
        <ele>1144</ele>
        <time>2026-06-23T08:40:30.000Z</time>
      </trkpt>
      <trkpt lat="42.93105" lon="1.24387">
        <ele>1144</ele>
        <time>2026-06-23T08:40:31.000Z</time>
      </trkpt>
      <trkpt lat="42.93107" lon="1.2438">
        <ele>1145</ele>
        <time>2026-06-23T08:40:32.000Z</time>
      </trkpt>
      <trkpt lat="42.9311" lon="1.24372">
        <ele>1146</ele>
        <time>2026-06-23T08:40:33.000Z</time>
      </trkpt>
      <trkpt lat="42.93113" lon="1.24366">
        <ele>1147</ele>
        <time>2026-06-23T08:40:34.000Z</time>
      </trkpt>
      <trkpt lat="42.93116" lon="1.24359">
        <ele>1147</ele>
        <time>2026-06-23T08:40:35.000Z</time>
      </trkpt>
      <trkpt lat="42.93118" lon="1.24352">
        <ele>1147</ele>
        <time>2026-06-23T08:40:36.000Z</time>
      </trkpt>
      <trkpt lat="42.9312" lon="1.24345">
        <ele>1147</ele>
        <time>2026-06-23T08:40:37.000Z</time>
      </trkpt>
      <trkpt lat="42.93123" lon="1.24338">
        <ele>1148</ele>
        <time>2026-06-23T08:40:38.000Z</time>
      </trkpt>
      <trkpt lat="42.93125" lon="1.24331">
        <ele>1148</ele>
        <time>2026-06-23T08:40:39.000Z</time>
      </trkpt>
      <trkpt lat="42.93127" lon="1.24325">
        <ele>1149</ele>
        <time>2026-06-23T08:40:40.000Z</time>
      </trkpt>
      <trkpt lat="42.9313" lon="1.24318">
        <ele>1149</ele>
        <time>2026-06-23T08:40:41.000Z</time>
      </trkpt>
      <trkpt lat="42.93133" lon="1.2431">
        <ele>1149</ele>
        <time>2026-06-23T08:40:42.000Z</time>
      </trkpt>
      <trkpt lat="42.93136" lon="1.24304">
        <ele>1149</ele>
        <time>2026-06-23T08:40:43.000Z</time>
      </trkpt>
      <trkpt lat="42.9314" lon="1.24298">
        <ele>1149</ele>
        <time>2026-06-23T08:40:44.000Z</time>
      </trkpt>
      <trkpt lat="42.93143" lon="1.24293">
        <ele>1149</ele>
        <time>2026-06-23T08:40:45.000Z</time>
      </trkpt>
      <trkpt lat="42.93147" lon="1.24287">
        <ele>1148</ele>
        <time>2026-06-23T08:40:46.000Z</time>
      </trkpt>
      <trkpt lat="42.9315" lon="1.24283">
        <ele>1148</ele>
        <time>2026-06-23T08:40:47.000Z</time>
      </trkpt>
      <trkpt lat="42.93154" lon="1.24276">
        <ele>1147</ele>
        <time>2026-06-23T08:40:48.000Z</time>
      </trkpt>
      <trkpt lat="42.93158" lon="1.24271">
        <ele>1147</ele>
        <time>2026-06-23T08:40:49.000Z</time>
      </trkpt>
      <trkpt lat="42.93163" lon="1.24266">
        <ele>1147</ele>
        <time>2026-06-23T08:40:50.000Z</time>
      </trkpt>
      <trkpt lat="42.93167" lon="1.24261">
        <ele>1147</ele>
        <time>2026-06-23T08:40:51.000Z</time>
      </trkpt>
      <trkpt lat="42.93172" lon="1.24257">
        <ele>1147</ele>
        <time>2026-06-23T08:40:52.000Z</time>
      </trkpt>
      <trkpt lat="42.93176" lon="1.24253">
        <ele>1146</ele>
        <time>2026-06-23T08:40:53.000Z</time>
      </trkpt>
      <trkpt lat="42.9318" lon="1.24249">
        <ele>1147</ele>
        <time>2026-06-23T08:40:54.000Z</time>
      </trkpt>
      <trkpt lat="42.93185" lon="1.24246">
        <ele>1146</ele>
        <time>2026-06-23T08:40:55.000Z</time>
      </trkpt>
      <trkpt lat="42.9319" lon="1.24241">
        <ele>1147</ele>
        <time>2026-06-23T08:40:56.000Z</time>
      </trkpt>
      <trkpt lat="42.93193" lon="1.24235">
        <ele>1147</ele>
        <time>2026-06-23T08:40:57.000Z</time>
      </trkpt>
      <trkpt lat="42.93197" lon="1.24228">
        <ele>1147</ele>
        <time>2026-06-23T08:40:58.000Z</time>
      </trkpt>
      <trkpt lat="42.932" lon="1.2422">
        <ele>1147</ele>
        <time>2026-06-23T08:40:59.000Z</time>
      </trkpt>
      <trkpt lat="42.93203" lon="1.24211">
        <ele>1147</ele>
        <time>2026-06-23T08:41:00.000Z</time>
      </trkpt>
      <trkpt lat="42.93206" lon="1.24204">
        <ele>1146</ele>
        <time>2026-06-23T08:41:01.000Z</time>
      </trkpt>
      <trkpt lat="42.93209" lon="1.24196">
        <ele>1147</ele>
        <time>2026-06-23T08:41:02.000Z</time>
      </trkpt>
      <trkpt lat="42.9321" lon="1.24188">
        <ele>1146</ele>
        <time>2026-06-23T08:41:03.000Z</time>
      </trkpt>
      <trkpt lat="42.93212" lon="1.24178">
        <ele>1146</ele>
        <time>2026-06-23T08:41:04.000Z</time>
      </trkpt>
      <trkpt lat="42.93214" lon="1.2417">
        <ele>1146</ele>
        <time>2026-06-23T08:41:05.000Z</time>
      </trkpt>
      <trkpt lat="42.93215" lon="1.2416">
        <ele>1147</ele>
        <time>2026-06-23T08:41:06.000Z</time>
      </trkpt>
      <trkpt lat="42.93216" lon="1.24151">
        <ele>1147</ele>
        <time>2026-06-23T08:41:07.000Z</time>
      </trkpt>
      <trkpt lat="42.93217" lon="1.24142">
        <ele>1147</ele>
        <time>2026-06-23T08:41:08.000Z</time>
      </trkpt>
      <trkpt lat="42.93218" lon="1.24134">
        <ele>1147</ele>
        <time>2026-06-23T08:41:09.000Z</time>
      </trkpt>
      <trkpt lat="42.93218" lon="1.24125">
        <ele>1147</ele>
        <time>2026-06-23T08:41:10.000Z</time>
      </trkpt>
      <trkpt lat="42.93218" lon="1.24116">
        <ele>1148</ele>
        <time>2026-06-23T08:41:11.000Z</time>
      </trkpt>
      <trkpt lat="42.93218" lon="1.24108">
        <ele>1148</ele>
        <time>2026-06-23T08:41:12.000Z</time>
      </trkpt>
      <trkpt lat="42.93218" lon="1.24099">
        <ele>1148</ele>
        <time>2026-06-23T08:41:13.000Z</time>
      </trkpt>
      <trkpt lat="42.93217" lon="1.2409">
        <ele>1148</ele>
        <time>2026-06-23T08:41:14.000Z</time>
      </trkpt>
      <trkpt lat="42.93216" lon="1.2408">
        <ele>1148</ele>
        <time>2026-06-23T08:41:15.000Z</time>
      </trkpt>
      <trkpt lat="42.93216" lon="1.24072">
        <ele>1147</ele>
        <time>2026-06-23T08:41:16.000Z</time>
      </trkpt>
      <trkpt lat="42.93217" lon="1.24064">
        <ele>1147</ele>
        <time>2026-06-23T08:41:17.000Z</time>
      </trkpt>
      <trkpt lat="42.93217" lon="1.24054">
        <ele>1146</ele>
        <time>2026-06-23T08:41:18.000Z</time>
      </trkpt>
      <trkpt lat="42.93218" lon="1.24046">
        <ele>1146</ele>
        <time>2026-06-23T08:41:19.000Z</time>
      </trkpt>
      <trkpt lat="42.93218" lon="1.24038">
        <ele>1145</ele>
        <time>2026-06-23T08:41:20.000Z</time>
      </trkpt>
      <trkpt lat="42.93218" lon="1.2403">
        <ele>1144</ele>
        <time>2026-06-23T08:41:21.000Z</time>
      </trkpt>
      <trkpt lat="42.93217" lon="1.24022">
        <ele>1144</ele>
        <time>2026-06-23T08:41:22.000Z</time>
      </trkpt>
      <trkpt lat="42.93217" lon="1.24015">
        <ele>1143</ele>
        <time>2026-06-23T08:41:23.000Z</time>
      </trkpt>
      <trkpt lat="42.93216" lon="1.24007">
        <ele>1144</ele>
        <time>2026-06-23T08:41:24.000Z</time>
      </trkpt>
      <trkpt lat="42.93214" lon="1.23999">
        <ele>1144</ele>
        <time>2026-06-23T08:41:25.000Z</time>
      </trkpt>
      <trkpt lat="42.93212" lon="1.2399">
        <ele>1143</ele>
        <time>2026-06-23T08:41:26.000Z</time>
      </trkpt>
      <trkpt lat="42.93211" lon="1.23982">
        <ele>1143</ele>
        <time>2026-06-23T08:41:27.000Z</time>
      </trkpt>
      <trkpt lat="42.93207" lon="1.23974">
        <ele>1142</ele>
        <time>2026-06-23T08:41:28.000Z</time>
      </trkpt>
      <trkpt lat="42.93205" lon="1.23966">
        <ele>1142</ele>
        <time>2026-06-23T08:41:29.000Z</time>
      </trkpt>
      <trkpt lat="42.93202" lon="1.23957">
        <ele>1142</ele>
        <time>2026-06-23T08:41:30.000Z</time>
      </trkpt>
      <trkpt lat="42.93201" lon="1.23949">
        <ele>1141</ele>
        <time>2026-06-23T08:41:31.000Z</time>
      </trkpt>
      <trkpt lat="42.93199" lon="1.23939">
        <ele>1140</ele>
        <time>2026-06-23T08:41:32.000Z</time>
      </trkpt>
      <trkpt lat="42.932" lon="1.23928">
        <ele>1138</ele>
        <time>2026-06-23T08:41:33.000Z</time>
      </trkpt>
      <trkpt lat="42.932" lon="1.23918">
        <ele>1138</ele>
        <time>2026-06-23T08:41:34.000Z</time>
      </trkpt>
      <trkpt lat="42.93202" lon="1.23907">
        <ele>1138</ele>
        <time>2026-06-23T08:41:35.000Z</time>
      </trkpt>
      <trkpt lat="42.93204" lon="1.23897">
        <ele>1137</ele>
        <time>2026-06-23T08:41:36.000Z</time>
      </trkpt>
      <trkpt lat="42.93208" lon="1.23887">
        <ele>1138</ele>
        <time>2026-06-23T08:41:37.000Z</time>
      </trkpt>
      <trkpt lat="42.93212" lon="1.23878">
        <ele>1138</ele>
        <time>2026-06-23T08:41:38.000Z</time>
      </trkpt>
      <trkpt lat="42.93216" lon="1.23869">
        <ele>1139</ele>
        <time>2026-06-23T08:41:39.000Z</time>
      </trkpt>
      <trkpt lat="42.93223" lon="1.23861">
        <ele>1139</ele>
        <time>2026-06-23T08:41:40.000Z</time>
      </trkpt>
      <trkpt lat="42.93229" lon="1.23853">
        <ele>1139</ele>
        <time>2026-06-23T08:41:41.000Z</time>
      </trkpt>
      <trkpt lat="42.93236" lon="1.23844">
        <ele>1138</ele>
        <time>2026-06-23T08:41:42.000Z</time>
      </trkpt>
      <trkpt lat="42.93243" lon="1.23835">
        <ele>1138</ele>
        <time>2026-06-23T08:41:43.000Z</time>
      </trkpt>
      <trkpt lat="42.93249" lon="1.23827">
        <ele>1137</ele>
        <time>2026-06-23T08:41:44.000Z</time>
      </trkpt>
      <trkpt lat="42.93256" lon="1.23819">
        <ele>1137</ele>
        <time>2026-06-23T08:41:45.000Z</time>
      </trkpt>
      <trkpt lat="42.93262" lon="1.23811">
        <ele>1137</ele>
        <time>2026-06-23T08:41:46.000Z</time>
      </trkpt>
      <trkpt lat="42.93269" lon="1.23802">
        <ele>1136</ele>
        <time>2026-06-23T08:41:47.000Z</time>
      </trkpt>
      <trkpt lat="42.93275" lon="1.23793">
        <ele>1135</ele>
        <time>2026-06-23T08:41:48.000Z</time>
      </trkpt>
      <trkpt lat="42.93282" lon="1.23784">
        <ele>1135</ele>
        <time>2026-06-23T08:41:49.000Z</time>
      </trkpt>
      <trkpt lat="42.93289" lon="1.23775">
        <ele>1135</ele>
        <time>2026-06-23T08:41:50.000Z</time>
      </trkpt>
      <trkpt lat="42.93297" lon="1.23764">
        <ele>1135</ele>
        <time>2026-06-23T08:41:51.000Z</time>
      </trkpt>
      <trkpt lat="42.93305" lon="1.23753">
        <ele>1134</ele>
        <time>2026-06-23T08:41:52.000Z</time>
      </trkpt>
      <trkpt lat="42.93313" lon="1.23742">
        <ele>1134</ele>
        <time>2026-06-23T08:41:53.000Z</time>
      </trkpt>
      <trkpt lat="42.93322" lon="1.23732">
        <ele>1134</ele>
        <time>2026-06-23T08:41:54.000Z</time>
      </trkpt>
      <trkpt lat="42.93329" lon="1.23721">
        <ele>1133</ele>
        <time>2026-06-23T08:41:55.000Z</time>
      </trkpt>
      <trkpt lat="42.93337" lon="1.23711">
        <ele>1133</ele>
        <time>2026-06-23T08:41:56.000Z</time>
      </trkpt>
      <trkpt lat="42.93343" lon="1.23702">
        <ele>1132</ele>
        <time>2026-06-23T08:41:57.000Z</time>
      </trkpt>
      <trkpt lat="42.9335" lon="1.23693">
        <ele>1132</ele>
        <time>2026-06-23T08:41:58.000Z</time>
      </trkpt>
      <trkpt lat="42.93357" lon="1.23685">
        <ele>1132</ele>
        <time>2026-06-23T08:41:59.000Z</time>
      </trkpt>
      <trkpt lat="42.93363" lon="1.23679">
        <ele>1131</ele>
        <time>2026-06-23T08:42:00.000Z</time>
      </trkpt>
      <trkpt lat="42.9337" lon="1.23671">
        <ele>1131</ele>
        <time>2026-06-23T08:42:01.000Z</time>
      </trkpt>
      <trkpt lat="42.93374" lon="1.23663">
        <ele>1130</ele>
        <time>2026-06-23T08:42:02.000Z</time>
      </trkpt>
      <trkpt lat="42.93377" lon="1.23653">
        <ele>1129</ele>
        <time>2026-06-23T08:42:03.000Z</time>
      </trkpt>
      <trkpt lat="42.93374" lon="1.2364">
        <ele>1127</ele>
        <time>2026-06-23T08:42:04.000Z</time>
      </trkpt>
      <trkpt lat="42.93371" lon="1.23627">
        <ele>1127</ele>
        <time>2026-06-23T08:42:05.000Z</time>
      </trkpt>
      <trkpt lat="42.93368" lon="1.23615">
        <ele>1127</ele>
        <time>2026-06-23T08:42:06.000Z</time>
      </trkpt>
      <trkpt lat="42.93365" lon="1.23604">
        <ele>1127</ele>
        <time>2026-06-23T08:42:07.000Z</time>
      </trkpt>
      <trkpt lat="42.93362" lon="1.23593">
        <ele>1126</ele>
        <time>2026-06-23T08:42:08.000Z</time>
      </trkpt>
      <trkpt lat="42.93359" lon="1.2358">
        <ele>1125</ele>
        <time>2026-06-23T08:42:09.000Z</time>
      </trkpt>
      <trkpt lat="42.93357" lon="1.23568">
        <ele>1124</ele>
        <time>2026-06-23T08:42:10.000Z</time>
      </trkpt>
      <trkpt lat="42.93356" lon="1.23555">
        <ele>1124</ele>
        <time>2026-06-23T08:42:11.000Z</time>
      </trkpt>
      <trkpt lat="42.93357" lon="1.23542">
        <ele>1123</ele>
        <time>2026-06-23T08:42:12.000Z</time>
      </trkpt>
      <trkpt lat="42.93359" lon="1.2353">
        <ele>1123</ele>
        <time>2026-06-23T08:42:13.000Z</time>
      </trkpt>
      <trkpt lat="42.93363" lon="1.23518">
        <ele>1122</ele>
        <time>2026-06-23T08:42:14.000Z</time>
      </trkpt>
      <trkpt lat="42.93368" lon="1.23507">
        <ele>1122</ele>
        <time>2026-06-23T08:42:15.000Z</time>
      </trkpt>
      <trkpt lat="42.93373" lon="1.23496">
        <ele>1122</ele>
        <time>2026-06-23T08:42:16.000Z</time>
      </trkpt>
      <trkpt lat="42.93379" lon="1.23486">
        <ele>1123</ele>
        <time>2026-06-23T08:42:17.000Z</time>
      </trkpt>
      <trkpt lat="42.93385" lon="1.23477">
        <ele>1124</ele>
        <time>2026-06-23T08:42:18.000Z</time>
      </trkpt>
      <trkpt lat="42.93391" lon="1.23467">
        <ele>1123</ele>
        <time>2026-06-23T08:42:19.000Z</time>
      </trkpt>
      <trkpt lat="42.93397" lon="1.23458">
        <ele>1122</ele>
        <time>2026-06-23T08:42:20.000Z</time>
      </trkpt>
      <trkpt lat="42.93403" lon="1.2345">
        <ele>1122</ele>
        <time>2026-06-23T08:42:21.000Z</time>
      </trkpt>
      <trkpt lat="42.93409" lon="1.23443">
        <ele>1121</ele>
        <time>2026-06-23T08:42:22.000Z</time>
      </trkpt>
      <trkpt lat="42.93416" lon="1.23436">
        <ele>1120</ele>
        <time>2026-06-23T08:42:23.000Z</time>
      </trkpt>
      <trkpt lat="42.93425" lon="1.23428">
        <ele>1119</ele>
        <time>2026-06-23T08:42:24.000Z</time>
      </trkpt>
      <trkpt lat="42.93434" lon="1.2342">
        <ele>1118</ele>
        <time>2026-06-23T08:42:25.000Z</time>
      </trkpt>
      <trkpt lat="42.93441" lon="1.23413">
        <ele>1118</ele>
        <time>2026-06-23T08:42:26.000Z</time>
      </trkpt>
      <trkpt lat="42.93447" lon="1.23407">
        <ele>1118</ele>
        <time>2026-06-23T08:42:27.000Z</time>
      </trkpt>
      <trkpt lat="42.93451" lon="1.23402">
        <ele>1117</ele>
        <time>2026-06-23T08:42:28.000Z</time>
      </trkpt>
      <trkpt lat="42.93454" lon="1.23393">
        <ele>1116</ele>
        <time>2026-06-23T08:42:29.000Z</time>
      </trkpt>
      <trkpt lat="42.93456" lon="1.23383">
        <ele>1115</ele>
        <time>2026-06-23T08:42:30.000Z</time>
      </trkpt>
      <trkpt lat="42.93456" lon="1.2337">
        <ele>1114</ele>
        <time>2026-06-23T08:42:31.000Z</time>
      </trkpt>
      <trkpt lat="42.93452" lon="1.23355">
        <ele>1113</ele>
        <time>2026-06-23T08:42:32.000Z</time>
      </trkpt>
      <trkpt lat="42.93451" lon="1.23342">
        <ele>1112</ele>
        <time>2026-06-23T08:42:33.000Z</time>
      </trkpt>
      <trkpt lat="42.93449" lon="1.23329">
        <ele>1110</ele>
        <time>2026-06-23T08:42:34.000Z</time>
      </trkpt>
      <trkpt lat="42.93448" lon="1.23316">
        <ele>1109</ele>
        <time>2026-06-23T08:42:35.000Z</time>
      </trkpt>
      <trkpt lat="42.93448" lon="1.23303">
        <ele>1108</ele>
        <time>2026-06-23T08:42:36.000Z</time>
      </trkpt>
      <trkpt lat="42.93449" lon="1.23289">
        <ele>1108</ele>
        <time>2026-06-23T08:42:37.000Z</time>
      </trkpt>
      <trkpt lat="42.93451" lon="1.23277">
        <ele>1108</ele>
        <time>2026-06-23T08:42:38.000Z</time>
      </trkpt>
      <trkpt lat="42.93455" lon="1.23266">
        <ele>1106</ele>
        <time>2026-06-23T08:42:39.000Z</time>
      </trkpt>
      <trkpt lat="42.9346" lon="1.23254">
        <ele>1106</ele>
        <time>2026-06-23T08:42:40.000Z</time>
      </trkpt>
      <trkpt lat="42.93467" lon="1.23242">
        <ele>1106</ele>
        <time>2026-06-23T08:42:41.000Z</time>
      </trkpt>
      <trkpt lat="42.93473" lon="1.23232">
        <ele>1106</ele>
        <time>2026-06-23T08:42:42.000Z</time>
      </trkpt>
      <trkpt lat="42.93478" lon="1.23225">
        <ele>1106</ele>
        <time>2026-06-23T08:42:43.000Z</time>
      </trkpt>
      <trkpt lat="42.93483" lon="1.23217">
        <ele>1104</ele>
        <time>2026-06-23T08:42:44.000Z</time>
      </trkpt>
      <trkpt lat="42.93488" lon="1.23209">
        <ele>1104</ele>
        <time>2026-06-23T08:42:45.000Z</time>
      </trkpt>
      <trkpt lat="42.93493" lon="1.23199">
        <ele>1102</ele>
        <time>2026-06-23T08:42:46.000Z</time>
      </trkpt>
      <trkpt lat="42.93499" lon="1.2319">
        <ele>1101</ele>
        <time>2026-06-23T08:42:47.000Z</time>
      </trkpt>
      <trkpt lat="42.93507" lon="1.23181">
        <ele>1099</ele>
        <time>2026-06-23T08:42:48.000Z</time>
      </trkpt>
      <trkpt lat="42.93514" lon="1.23173">
        <ele>1098</ele>
        <time>2026-06-23T08:42:49.000Z</time>
      </trkpt>
      <trkpt lat="42.93524" lon="1.23166">
        <ele>1096</ele>
        <time>2026-06-23T08:42:50.000Z</time>
      </trkpt>
      <trkpt lat="42.93534" lon="1.23158">
        <ele>1094</ele>
        <time>2026-06-23T08:42:51.000Z</time>
      </trkpt>
      <trkpt lat="42.93542" lon="1.23151">
        <ele>1093</ele>
        <time>2026-06-23T08:42:52.000Z</time>
      </trkpt>
      <trkpt lat="42.9355" lon="1.23143">
        <ele>1093</ele>
        <time>2026-06-23T08:42:53.000Z</time>
      </trkpt>
      <trkpt lat="42.93558" lon="1.23134">
        <ele>1092</ele>
        <time>2026-06-23T08:42:54.000Z</time>
      </trkpt>
      <trkpt lat="42.93566" lon="1.23125">
        <ele>1091</ele>
        <time>2026-06-23T08:42:55.000Z</time>
      </trkpt>
      <trkpt lat="42.93574" lon="1.23117">
        <ele>1090</ele>
        <time>2026-06-23T08:42:56.000Z</time>
      </trkpt>
      <trkpt lat="42.93583" lon="1.2311">
        <ele>1088</ele>
        <time>2026-06-23T08:42:57.000Z</time>
      </trkpt>
      <trkpt lat="42.93591" lon="1.23101">
        <ele>1088</ele>
        <time>2026-06-23T08:42:58.000Z</time>
      </trkpt>
      <trkpt lat="42.93601" lon="1.23093">
        <ele>1086</ele>
        <time>2026-06-23T08:42:59.000Z</time>
      </trkpt>
      <trkpt lat="42.9361" lon="1.23084">
        <ele>1085</ele>
        <time>2026-06-23T08:43:00.000Z</time>
      </trkpt>
      <trkpt lat="42.93617" lon="1.23075">
        <ele>1084</ele>
        <time>2026-06-23T08:43:01.000Z</time>
      </trkpt>
      <trkpt lat="42.93625" lon="1.23066">
        <ele>1084</ele>
        <time>2026-06-23T08:43:02.000Z</time>
      </trkpt>
      <trkpt lat="42.93631" lon="1.23056">
        <ele>1084</ele>
        <time>2026-06-23T08:43:03.000Z</time>
      </trkpt>
      <trkpt lat="42.93638" lon="1.23046">
        <ele>1082</ele>
        <time>2026-06-23T08:43:04.000Z</time>
      </trkpt>
      <trkpt lat="42.93645" lon="1.23034">
        <ele>1082</ele>
        <time>2026-06-23T08:43:05.000Z</time>
      </trkpt>
      <trkpt lat="42.93646" lon="1.2302">
        <ele>1082</ele>
        <time>2026-06-23T08:43:06.000Z</time>
      </trkpt>
      <trkpt lat="42.93647" lon="1.23002">
        <ele>1082</ele>
        <time>2026-06-23T08:43:07.000Z</time>
      </trkpt>
      <trkpt lat="42.93647" lon="1.22984">
        <ele>1082</ele>
        <time>2026-06-23T08:43:08.000Z</time>
      </trkpt>
      <trkpt lat="42.93647" lon="1.22966">
        <ele>1083</ele>
        <time>2026-06-23T08:43:09.000Z</time>
      </trkpt>
      <trkpt lat="42.93647" lon="1.2295">
        <ele>1082</ele>
        <time>2026-06-23T08:43:10.000Z</time>
      </trkpt>
      <trkpt lat="42.93645" lon="1.22932">
        <ele>1081</ele>
        <time>2026-06-23T08:43:11.000Z</time>
      </trkpt>
      <trkpt lat="42.93645" lon="1.22915">
        <ele>1079</ele>
        <time>2026-06-23T08:43:12.000Z</time>
      </trkpt>
      <trkpt lat="42.93645" lon="1.22898">
        <ele>1077</ele>
        <time>2026-06-23T08:43:13.000Z</time>
      </trkpt>
      <trkpt lat="42.93646" lon="1.22882">
        <ele>1075</ele>
        <time>2026-06-23T08:43:14.000Z</time>
      </trkpt>
      <trkpt lat="42.93647" lon="1.22868">
        <ele>1073</ele>
        <time>2026-06-23T08:43:15.000Z</time>
      </trkpt>
      <trkpt lat="42.93647" lon="1.22853">
        <ele>1070</ele>
        <time>2026-06-23T08:43:16.000Z</time>
      </trkpt>
      <trkpt lat="42.93647" lon="1.22838">
        <ele>1068</ele>
        <time>2026-06-23T08:43:17.000Z</time>
      </trkpt>
      <trkpt lat="42.93647" lon="1.22822">
        <ele>1066</ele>
        <time>2026-06-23T08:43:18.000Z</time>
      </trkpt>
      <trkpt lat="42.93647" lon="1.22807">
        <ele>1063</ele>
        <time>2026-06-23T08:43:19.000Z</time>
      </trkpt>
      <trkpt lat="42.93646" lon="1.22793">
        <ele>1062</ele>
        <time>2026-06-23T08:43:20.000Z</time>
      </trkpt>
      <trkpt lat="42.93643" lon="1.22779">
        <ele>1061</ele>
        <time>2026-06-23T08:43:21.000Z</time>
      </trkpt>
      <trkpt lat="42.93641" lon="1.22765">
        <ele>1060</ele>
        <time>2026-06-23T08:43:22.000Z</time>
      </trkpt>
      <trkpt lat="42.9364" lon="1.22751">
        <ele>1059</ele>
        <time>2026-06-23T08:43:23.000Z</time>
      </trkpt>
      <trkpt lat="42.93639" lon="1.22737">
        <ele>1058</ele>
        <time>2026-06-23T08:43:24.000Z</time>
      </trkpt>
      <trkpt lat="42.93638" lon="1.22724">
        <ele>1057</ele>
        <time>2026-06-23T08:43:25.000Z</time>
      </trkpt>
      <trkpt lat="42.93637" lon="1.22711">
        <ele>1055</ele>
        <time>2026-06-23T08:43:26.000Z</time>
      </trkpt>
      <trkpt lat="42.93638" lon="1.22699">
        <ele>1054</ele>
        <time>2026-06-23T08:43:27.000Z</time>
      </trkpt>
      <trkpt lat="42.93641" lon="1.22688">
        <ele>1053</ele>
        <time>2026-06-23T08:43:28.000Z</time>
      </trkpt>
      <trkpt lat="42.93645" lon="1.22677">
        <ele>1053</ele>
        <time>2026-06-23T08:43:29.000Z</time>
      </trkpt>
      <trkpt lat="42.93649" lon="1.22667">
        <ele>1052</ele>
        <time>2026-06-23T08:43:30.000Z</time>
      </trkpt>
      <trkpt lat="42.93654" lon="1.22657">
        <ele>1052</ele>
        <time>2026-06-23T08:43:31.000Z</time>
      </trkpt>
      <trkpt lat="42.93661" lon="1.22646">
        <ele>1050</ele>
        <time>2026-06-23T08:43:32.000Z</time>
      </trkpt>
      <trkpt lat="42.93669" lon="1.22635">
        <ele>1049</ele>
        <time>2026-06-23T08:43:33.000Z</time>
      </trkpt>
      <trkpt lat="42.93676" lon="1.22624">
        <ele>1048</ele>
        <time>2026-06-23T08:43:34.000Z</time>
      </trkpt>
      <trkpt lat="42.93682" lon="1.22615">
        <ele>1047</ele>
        <time>2026-06-23T08:43:35.000Z</time>
      </trkpt>
      <trkpt lat="42.93689" lon="1.22606">
        <ele>1047</ele>
        <time>2026-06-23T08:43:36.000Z</time>
      </trkpt>
      <trkpt lat="42.93694" lon="1.22598">
        <ele>1047</ele>
        <time>2026-06-23T08:43:37.000Z</time>
      </trkpt>
      <trkpt lat="42.93698" lon="1.22588">
        <ele>1046</ele>
        <time>2026-06-23T08:43:38.000Z</time>
      </trkpt>
      <trkpt lat="42.93701" lon="1.22578">
        <ele>1046</ele>
        <time>2026-06-23T08:43:39.000Z</time>
      </trkpt>
      <trkpt lat="42.93703" lon="1.22566">
        <ele>1044</ele>
        <time>2026-06-23T08:43:40.000Z</time>
      </trkpt>
      <trkpt lat="42.93704" lon="1.22552">
        <ele>1041</ele>
        <time>2026-06-23T08:43:41.000Z</time>
      </trkpt>
      <trkpt lat="42.93703" lon="1.22539">
        <ele>1039</ele>
        <time>2026-06-23T08:43:42.000Z</time>
      </trkpt>
      <trkpt lat="42.93699" lon="1.22526">
        <ele>1038</ele>
        <time>2026-06-23T08:43:43.000Z</time>
      </trkpt>
      <trkpt lat="42.93696" lon="1.22513">
        <ele>1037</ele>
        <time>2026-06-23T08:43:44.000Z</time>
      </trkpt>
      <trkpt lat="42.93692" lon="1.225">
        <ele>1035</ele>
        <time>2026-06-23T08:43:45.000Z</time>
      </trkpt>
      <trkpt lat="42.9369" lon="1.22486">
        <ele>1034</ele>
        <time>2026-06-23T08:43:46.000Z</time>
      </trkpt>
      <trkpt lat="42.93688" lon="1.22473">
        <ele>1033</ele>
        <time>2026-06-23T08:43:47.000Z</time>
      </trkpt>
      <trkpt lat="42.93686" lon="1.2246">
        <ele>1033</ele>
        <time>2026-06-23T08:43:48.000Z</time>
      </trkpt>
      <trkpt lat="42.93685" lon="1.22446">
        <ele>1033</ele>
        <time>2026-06-23T08:43:49.000Z</time>
      </trkpt>
      <trkpt lat="42.93685" lon="1.22431">
        <ele>1032</ele>
        <time>2026-06-23T08:43:50.000Z</time>
      </trkpt>
      <trkpt lat="42.93686" lon="1.22417">
        <ele>1031</ele>
        <time>2026-06-23T08:43:51.000Z</time>
      </trkpt>
      <trkpt lat="42.93686" lon="1.22403">
        <ele>1030</ele>
        <time>2026-06-23T08:43:52.000Z</time>
      </trkpt>
      <trkpt lat="42.93686" lon="1.2239">
        <ele>1028</ele>
        <time>2026-06-23T08:43:53.000Z</time>
      </trkpt>
      <trkpt lat="42.93686" lon="1.22376">
        <ele>1026</ele>
        <time>2026-06-23T08:43:54.000Z</time>
      </trkpt>
      <trkpt lat="42.93685" lon="1.22364">
        <ele>1025</ele>
        <time>2026-06-23T08:43:55.000Z</time>
      </trkpt>
      <trkpt lat="42.93684" lon="1.22353">
        <ele>1024</ele>
        <time>2026-06-23T08:43:56.000Z</time>
      </trkpt>
      <trkpt lat="42.93684" lon="1.22342">
        <ele>1022</ele>
        <time>2026-06-23T08:43:57.000Z</time>
      </trkpt>
      <trkpt lat="42.93682" lon="1.22332">
        <ele>1021</ele>
        <time>2026-06-23T08:43:58.000Z</time>
      </trkpt>
      <trkpt lat="42.93678" lon="1.22323">
        <ele>1019</ele>
        <time>2026-06-23T08:43:59.000Z</time>
      </trkpt>
      <trkpt lat="42.93672" lon="1.22318">
        <ele>1019</ele>
        <time>2026-06-23T08:44:00.000Z</time>
      </trkpt>
      <trkpt lat="42.93667" lon="1.22314">
        <ele>1019</ele>
        <time>2026-06-23T08:44:01.000Z</time>
      </trkpt>
      <trkpt lat="42.93662" lon="1.2231">
        <ele>1018</ele>
        <time>2026-06-23T08:44:02.000Z</time>
      </trkpt>
      <trkpt lat="42.93657" lon="1.22306">
        <ele>1018</ele>
        <time>2026-06-23T08:44:03.000Z</time>
      </trkpt>
      <trkpt lat="42.93651" lon="1.22301">
        <ele>1017</ele>
        <time>2026-06-23T08:44:04.000Z</time>
      </trkpt>
      <trkpt lat="42.93647" lon="1.22295">
        <ele>1017</ele>
        <time>2026-06-23T08:44:05.000Z</time>
      </trkpt>
      <trkpt lat="42.93642" lon="1.2229">
        <ele>1017</ele>
        <time>2026-06-23T08:44:06.000Z</time>
      </trkpt>
      <trkpt lat="42.93638" lon="1.22285">
        <ele>1016</ele>
        <time>2026-06-23T08:44:07.000Z</time>
      </trkpt>
      <trkpt lat="42.93633" lon="1.22282">
        <ele>1015</ele>
        <time>2026-06-23T08:44:08.000Z</time>
      </trkpt>
      <trkpt lat="42.93628" lon="1.22282">
        <ele>1014</ele>
        <time>2026-06-23T08:44:09.000Z</time>
      </trkpt>
      <trkpt lat="42.93623" lon="1.22283">
        <ele>1014</ele>
        <time>2026-06-23T08:44:10.000Z</time>
      </trkpt>
      <trkpt lat="42.93618" lon="1.22283">
        <ele>1014</ele>
        <time>2026-06-23T08:44:11.000Z</time>
      </trkpt>
      <trkpt lat="42.93612" lon="1.22282">
        <ele>1013</ele>
        <time>2026-06-23T08:44:12.000Z</time>
      </trkpt>
      <trkpt lat="42.93605" lon="1.22281">
        <ele>1012</ele>
        <time>2026-06-23T08:44:13.000Z</time>
      </trkpt>
      <trkpt lat="42.93598" lon="1.22279">
        <ele>1011</ele>
        <time>2026-06-23T08:44:14.000Z</time>
      </trkpt>
      <trkpt lat="42.93591" lon="1.22276">
        <ele>1011</ele>
        <time>2026-06-23T08:44:15.000Z</time>
      </trkpt>
      <trkpt lat="42.93585" lon="1.2227">
        <ele>1010</ele>
        <time>2026-06-23T08:44:16.000Z</time>
      </trkpt>
      <trkpt lat="42.93581" lon="1.22262">
        <ele>1009</ele>
        <time>2026-06-23T08:44:17.000Z</time>
      </trkpt>
      <trkpt lat="42.93577" lon="1.22254">
        <ele>1009</ele>
        <time>2026-06-23T08:44:18.000Z</time>
      </trkpt>
      <trkpt lat="42.93573" lon="1.22246">
        <ele>1008</ele>
        <time>2026-06-23T08:44:19.000Z</time>
      </trkpt>
      <trkpt lat="42.93569" lon="1.22238">
        <ele>1008</ele>
        <time>2026-06-23T08:44:20.000Z</time>
      </trkpt>
      <trkpt lat="42.93565" lon="1.2223">
        <ele>1007</ele>
        <time>2026-06-23T08:44:21.000Z</time>
      </trkpt>
      <trkpt lat="42.93562" lon="1.22221">
        <ele>1007</ele>
        <time>2026-06-23T08:44:22.000Z</time>
      </trkpt>
      <trkpt lat="42.93557" lon="1.22213">
        <ele>1007</ele>
        <time>2026-06-23T08:44:23.000Z</time>
      </trkpt>
      <trkpt lat="42.93553" lon="1.22204">
        <ele>1006</ele>
        <time>2026-06-23T08:44:24.000Z</time>
      </trkpt>
      <trkpt lat="42.93548" lon="1.22196">
        <ele>1006</ele>
        <time>2026-06-23T08:44:25.000Z</time>
      </trkpt>
      <trkpt lat="42.93544" lon="1.22186">
        <ele>1006</ele>
        <time>2026-06-23T08:44:26.000Z</time>
      </trkpt>
      <trkpt lat="42.93538" lon="1.22182">
        <ele>1004</ele>
        <time>2026-06-23T08:44:27.000Z</time>
      </trkpt>
      <trkpt lat="42.9353" lon="1.22178">
        <ele>1003</ele>
        <time>2026-06-23T08:44:28.000Z</time>
      </trkpt>
      <trkpt lat="42.93522" lon="1.22176">
        <ele>1002</ele>
        <time>2026-06-23T08:44:29.000Z</time>
      </trkpt>
      <trkpt lat="42.93513" lon="1.22177">
        <ele>1001</ele>
        <time>2026-06-23T08:44:30.000Z</time>
      </trkpt>
      <trkpt lat="42.93503" lon="1.22176">
        <ele>1001</ele>
        <time>2026-06-23T08:44:31.000Z</time>
      </trkpt>
      <trkpt lat="42.93493" lon="1.22177">
        <ele>1000</ele>
        <time>2026-06-23T08:44:32.000Z</time>
      </trkpt>
      <trkpt lat="42.93483" lon="1.22178">
        <ele>999</ele>
        <time>2026-06-23T08:44:33.000Z</time>
      </trkpt>
      <trkpt lat="42.93474" lon="1.22178">
        <ele>999</ele>
        <time>2026-06-23T08:44:34.000Z</time>
      </trkpt>
      <trkpt lat="42.93466" lon="1.22178">
        <ele>1000</ele>
        <time>2026-06-23T08:44:35.000Z</time>
      </trkpt>
      <trkpt lat="42.93457" lon="1.22174">
        <ele>999</ele>
        <time>2026-06-23T08:44:36.000Z</time>
      </trkpt>
      <trkpt lat="42.93448" lon="1.2217">
        <ele>999</ele>
        <time>2026-06-23T08:44:37.000Z</time>
      </trkpt>
      <trkpt lat="42.93439" lon="1.22163">
        <ele>998</ele>
        <time>2026-06-23T08:44:38.000Z</time>
      </trkpt>
      <trkpt lat="42.93431" lon="1.22156">
        <ele>998</ele>
        <time>2026-06-23T08:44:39.000Z</time>
      </trkpt>
      <trkpt lat="42.93424" lon="1.22149">
        <ele>998</ele>
        <time>2026-06-23T08:44:40.000Z</time>
      </trkpt>
      <trkpt lat="42.93416" lon="1.22143">
        <ele>998</ele>
        <time>2026-06-23T08:44:41.000Z</time>
      </trkpt>
      <trkpt lat="42.93408" lon="1.22136">
        <ele>998</ele>
        <time>2026-06-23T08:44:42.000Z</time>
      </trkpt>
      <trkpt lat="42.93401" lon="1.22129">
        <ele>997</ele>
        <time>2026-06-23T08:44:43.000Z</time>
      </trkpt>
      <trkpt lat="42.93394" lon="1.22121">
        <ele>995</ele>
        <time>2026-06-23T08:44:44.000Z</time>
      </trkpt>
      <trkpt lat="42.93387" lon="1.22114">
        <ele>994</ele>
        <time>2026-06-23T08:44:45.000Z</time>
      </trkpt>
      <trkpt lat="42.9338" lon="1.22106">
        <ele>993</ele>
        <time>2026-06-23T08:44:46.000Z</time>
      </trkpt>
      <trkpt lat="42.93373" lon="1.22099">
        <ele>992</ele>
        <time>2026-06-23T08:44:47.000Z</time>
      </trkpt>
      <trkpt lat="42.93367" lon="1.22091">
        <ele>991</ele>
        <time>2026-06-23T08:44:48.000Z</time>
      </trkpt>
      <trkpt lat="42.93361" lon="1.22084">
        <ele>991</ele>
        <time>2026-06-23T08:44:49.000Z</time>
      </trkpt>
      <trkpt lat="42.93354" lon="1.22076">
        <ele>989</ele>
        <time>2026-06-23T08:44:50.000Z</time>
      </trkpt>
      <trkpt lat="42.93346" lon="1.22068">
        <ele>988</ele>
        <time>2026-06-23T08:44:51.000Z</time>
      </trkpt>
      <trkpt lat="42.9334" lon="1.2206">
        <ele>987</ele>
        <time>2026-06-23T08:44:52.000Z</time>
      </trkpt>
      <trkpt lat="42.93334" lon="1.22052">
        <ele>987</ele>
        <time>2026-06-23T08:44:53.000Z</time>
      </trkpt>
      <trkpt lat="42.9333" lon="1.22043">
        <ele>986</ele>
        <time>2026-06-23T08:44:54.000Z</time>
      </trkpt>
      <trkpt lat="42.93325" lon="1.22033">
        <ele>986</ele>
        <time>2026-06-23T08:44:55.000Z</time>
      </trkpt>
      <trkpt lat="42.93323" lon="1.22024">
        <ele>986</ele>
        <time>2026-06-23T08:44:56.000Z</time>
      </trkpt>
      <trkpt lat="42.93322" lon="1.22014">
        <ele>986</ele>
        <time>2026-06-23T08:44:57.000Z</time>
      </trkpt>
      <trkpt lat="42.93322" lon="1.22004">
        <ele>986</ele>
        <time>2026-06-23T08:44:58.000Z</time>
      </trkpt>
      <trkpt lat="42.9332" lon="1.21993">
        <ele>986</ele>
        <time>2026-06-23T08:44:59.000Z</time>
      </trkpt>
      <trkpt lat="42.93321" lon="1.21983">
        <ele>987</ele>
        <time>2026-06-23T08:45:00.000Z</time>
      </trkpt>
      <trkpt lat="42.93322" lon="1.21973">
        <ele>987</ele>
        <time>2026-06-23T08:45:01.000Z</time>
      </trkpt>
      <trkpt lat="42.93323" lon="1.21965">
        <ele>987</ele>
        <time>2026-06-23T08:45:02.000Z</time>
      </trkpt>
      <trkpt lat="42.93324" lon="1.21956">
        <ele>986</ele>
        <time>2026-06-23T08:45:03.000Z</time>
      </trkpt>
      <trkpt lat="42.93325" lon="1.21948">
        <ele>986</ele>
        <time>2026-06-23T08:45:04.000Z</time>
      </trkpt>
      <trkpt lat="42.93326" lon="1.2194">
        <ele>986</ele>
        <time>2026-06-23T08:45:05.000Z</time>
      </trkpt>
      <trkpt lat="42.93327" lon="1.21932">
        <ele>986</ele>
        <time>2026-06-23T08:45:06.000Z</time>
      </trkpt>
      <trkpt lat="42.93329" lon="1.21923">
        <ele>986</ele>
        <time>2026-06-23T08:45:07.000Z</time>
      </trkpt>
      <trkpt lat="42.9333" lon="1.21916">
        <ele>986</ele>
        <time>2026-06-23T08:45:08.000Z</time>
      </trkpt>
      <trkpt lat="42.93332" lon="1.21908">
        <ele>987</ele>
        <time>2026-06-23T08:45:09.000Z</time>
      </trkpt>
      <trkpt lat="42.93334" lon="1.219">
        <ele>988</ele>
        <time>2026-06-23T08:45:10.000Z</time>
      </trkpt>
      <trkpt lat="42.93335" lon="1.21893">
        <ele>988</ele>
        <time>2026-06-23T08:45:11.000Z</time>
      </trkpt>
      <trkpt lat="42.93336" lon="1.21885">
        <ele>988</ele>
        <time>2026-06-23T08:45:12.000Z</time>
      </trkpt>
      <trkpt lat="42.93336" lon="1.21878">
        <ele>989</ele>
        <time>2026-06-23T08:45:13.000Z</time>
      </trkpt>
      <trkpt lat="42.93336" lon="1.21871">
        <ele>989</ele>
        <time>2026-06-23T08:45:14.000Z</time>
      </trkpt>
      <trkpt lat="42.93334" lon="1.21864">
        <ele>990</ele>
        <time>2026-06-23T08:45:15.000Z</time>
      </trkpt>
      <trkpt lat="42.93332" lon="1.21862">
        <ele>989</ele>
        <time>2026-06-23T08:45:16.000Z</time>
      </trkpt>
      <trkpt lat="42.93329" lon="1.2186">
        <ele>990</ele>
        <time>2026-06-23T08:45:17.000Z</time>
      </trkpt>
      <trkpt lat="42.93326" lon="1.21859">
        <ele>990</ele>
        <time>2026-06-23T08:45:18.000Z</time>
      </trkpt>
      <trkpt lat="42.93322" lon="1.21856">
        <ele>990</ele>
        <time>2026-06-23T08:45:19.000Z</time>
      </trkpt>
      <trkpt lat="42.93317" lon="1.21854">
        <ele>991</ele>
        <time>2026-06-23T08:45:20.000Z</time>
      </trkpt>
      <trkpt lat="42.93311" lon="1.21851">
        <ele>992</ele>
        <time>2026-06-23T08:45:21.000Z</time>
      </trkpt>
      <trkpt lat="42.93307" lon="1.21849">
        <ele>991</ele>
        <time>2026-06-23T08:45:22.000Z</time>
      </trkpt>
      <trkpt lat="42.93302" lon="1.21844">
        <ele>992</ele>
        <time>2026-06-23T08:45:23.000Z</time>
      </trkpt>
      <trkpt lat="42.93297" lon="1.2184">
        <ele>992</ele>
        <time>2026-06-23T08:45:24.000Z</time>
      </trkpt>
      <trkpt lat="42.93293" lon="1.21835">
        <ele>993</ele>
        <time>2026-06-23T08:45:25.000Z</time>
      </trkpt>
      <trkpt lat="42.93289" lon="1.21831">
        <ele>993</ele>
        <time>2026-06-23T08:45:26.000Z</time>
      </trkpt>
      <trkpt lat="42.93284" lon="1.21826">
        <ele>994</ele>
        <time>2026-06-23T08:45:27.000Z</time>
      </trkpt>
      <trkpt lat="42.93278" lon="1.21823">
        <ele>994</ele>
        <time>2026-06-23T08:45:28.000Z</time>
      </trkpt>
      <trkpt lat="42.93274" lon="1.2182">
        <ele>995</ele>
        <time>2026-06-23T08:45:29.000Z</time>
      </trkpt>
      <trkpt lat="42.93271" lon="1.21819">
        <ele>995</ele>
        <time>2026-06-23T08:45:30.000Z</time>
      </trkpt>
      <trkpt lat="42.93268" lon="1.2182">
        <ele>995</ele>
        <time>2026-06-23T08:45:31.000Z</time>
      </trkpt>
      <trkpt lat="42.93264" lon="1.2182">
        <ele>995</ele>
        <time>2026-06-23T08:45:32.000Z</time>
      </trkpt>
      <trkpt lat="42.93261" lon="1.21818">
        <ele>995</ele>
        <time>2026-06-23T08:45:33.000Z</time>
      </trkpt>
      <trkpt lat="42.93258" lon="1.21816">
        <ele>995</ele>
        <time>2026-06-23T08:45:34.000Z</time>
      </trkpt>
      <trkpt lat="42.93254" lon="1.21813">
        <ele>994</ele>
        <time>2026-06-23T08:45:35.000Z</time>
      </trkpt>
      <trkpt lat="42.9325" lon="1.21811">
        <ele>994</ele>
        <time>2026-06-23T08:45:36.000Z</time>
      </trkpt>
      <trkpt lat="42.93246" lon="1.2181">
        <ele>995</ele>
        <time>2026-06-23T08:45:37.000Z</time>
      </trkpt>
      <trkpt lat="42.93242" lon="1.21809">
        <ele>995</ele>
        <time>2026-06-23T08:45:38.000Z</time>
      </trkpt>
      <trkpt lat="42.93236" lon="1.21808">
        <ele>994</ele>
        <time>2026-06-23T08:45:39.000Z</time>
      </trkpt>
      <trkpt lat="42.93229" lon="1.21809">
        <ele>995</ele>
        <time>2026-06-23T08:45:40.000Z</time>
      </trkpt>
      <trkpt lat="42.93224" lon="1.21809">
        <ele>995</ele>
        <time>2026-06-23T08:45:41.000Z</time>
      </trkpt>
      <trkpt lat="42.93217" lon="1.21809">
        <ele>994</ele>
        <time>2026-06-23T08:45:42.000Z</time>
      </trkpt>
      <trkpt lat="42.93209" lon="1.2181">
        <ele>994</ele>
        <time>2026-06-23T08:45:43.000Z</time>
      </trkpt>
      <trkpt lat="42.93201" lon="1.21809">
        <ele>994</ele>
        <time>2026-06-23T08:45:44.000Z</time>
      </trkpt>
      <trkpt lat="42.93193" lon="1.2181">
        <ele>993</ele>
        <time>2026-06-23T08:45:45.000Z</time>
      </trkpt>
      <trkpt lat="42.93186" lon="1.21809">
        <ele>993</ele>
        <time>2026-06-23T08:45:46.000Z</time>
      </trkpt>
      <trkpt lat="42.93179" lon="1.21809">
        <ele>992</ele>
        <time>2026-06-23T08:45:47.000Z</time>
      </trkpt>
      <trkpt lat="42.93172" lon="1.21807">
        <ele>991</ele>
        <time>2026-06-23T08:45:48.000Z</time>
      </trkpt>
      <trkpt lat="42.93166" lon="1.21806">
        <ele>991</ele>
        <time>2026-06-23T08:45:49.000Z</time>
      </trkpt>
      <trkpt lat="42.9316" lon="1.21804">
        <ele>991</ele>
        <time>2026-06-23T08:45:50.000Z</time>
      </trkpt>
      <trkpt lat="42.93153" lon="1.21801">
        <ele>992</ele>
        <time>2026-06-23T08:45:51.000Z</time>
      </trkpt>
      <trkpt lat="42.93148" lon="1.21798">
        <ele>992</ele>
        <time>2026-06-23T08:45:52.000Z</time>
      </trkpt>
      <trkpt lat="42.93141" lon="1.21798">
        <ele>993</ele>
        <time>2026-06-23T08:45:53.000Z</time>
      </trkpt>
      <trkpt lat="42.93135" lon="1.21796">
        <ele>993</ele>
        <time>2026-06-23T08:45:54.000Z</time>
      </trkpt>
      <trkpt lat="42.93128" lon="1.21796">
        <ele>993</ele>
        <time>2026-06-23T08:45:55.000Z</time>
      </trkpt>
      <trkpt lat="42.93121" lon="1.21795">
        <ele>992</ele>
        <time>2026-06-23T08:45:56.000Z</time>
      </trkpt>
      <trkpt lat="42.93114" lon="1.21793">
        <ele>992</ele>
        <time>2026-06-23T08:45:57.000Z</time>
      </trkpt>
      <trkpt lat="42.93107" lon="1.21792">
        <ele>992</ele>
        <time>2026-06-23T08:45:58.000Z</time>
      </trkpt>
      <trkpt lat="42.931" lon="1.21788">
        <ele>991</ele>
        <time>2026-06-23T08:45:59.000Z</time>
      </trkpt>
      <trkpt lat="42.93092" lon="1.21783">
        <ele>991</ele>
        <time>2026-06-23T08:46:00.000Z</time>
      </trkpt>
      <trkpt lat="42.93085" lon="1.21777">
        <ele>991</ele>
        <time>2026-06-23T08:46:01.000Z</time>
      </trkpt>
      <trkpt lat="42.9308" lon="1.21769">
        <ele>992</ele>
        <time>2026-06-23T08:46:02.000Z</time>
      </trkpt>
      <trkpt lat="42.93076" lon="1.21762">
        <ele>991</ele>
        <time>2026-06-23T08:46:03.000Z</time>
      </trkpt>
      <trkpt lat="42.93073" lon="1.21752">
        <ele>990</ele>
        <time>2026-06-23T08:46:04.000Z</time>
      </trkpt>
      <trkpt lat="42.9307" lon="1.21744">
        <ele>990</ele>
        <time>2026-06-23T08:46:05.000Z</time>
      </trkpt>
      <trkpt lat="42.93067" lon="1.21737">
        <ele>989</ele>
        <time>2026-06-23T08:46:06.000Z</time>
      </trkpt>
      <trkpt lat="42.93063" lon="1.21729">
        <ele>988</ele>
        <time>2026-06-23T08:46:07.000Z</time>
      </trkpt>
      <trkpt lat="42.9306" lon="1.21721">
        <ele>987</ele>
        <time>2026-06-23T08:46:08.000Z</time>
      </trkpt>
      <trkpt lat="42.93056" lon="1.21714">
        <ele>987</ele>
        <time>2026-06-23T08:46:09.000Z</time>
      </trkpt>
      <trkpt lat="42.93053" lon="1.21706">
        <ele>986</ele>
        <time>2026-06-23T08:46:10.000Z</time>
      </trkpt>
      <trkpt lat="42.93049" lon="1.21699">
        <ele>986</ele>
        <time>2026-06-23T08:46:11.000Z</time>
      </trkpt>
      <trkpt lat="42.93046" lon="1.2169">
        <ele>985</ele>
        <time>2026-06-23T08:46:12.000Z</time>
      </trkpt>
      <trkpt lat="42.93043" lon="1.21683">
        <ele>984</ele>
        <time>2026-06-23T08:46:13.000Z</time>
      </trkpt>
      <trkpt lat="42.9304" lon="1.21676">
        <ele>984</ele>
        <time>2026-06-23T08:46:14.000Z</time>
      </trkpt>
      <trkpt lat="42.93038" lon="1.21667">
        <ele>983</ele>
        <time>2026-06-23T08:46:15.000Z</time>
      </trkpt>
      <trkpt lat="42.93037" lon="1.21659">
        <ele>983</ele>
        <time>2026-06-23T08:46:16.000Z</time>
      </trkpt>
      <trkpt lat="42.93039" lon="1.2165">
        <ele>983</ele>
        <time>2026-06-23T08:46:17.000Z</time>
      </trkpt>
      <trkpt lat="42.93041" lon="1.21643">
        <ele>983</ele>
        <time>2026-06-23T08:46:18.000Z</time>
      </trkpt>
      <trkpt lat="42.93045" lon="1.21634">
        <ele>985</ele>
        <time>2026-06-23T08:46:19.000Z</time>
      </trkpt>
      <trkpt lat="42.93048" lon="1.21625">
        <ele>985</ele>
        <time>2026-06-23T08:46:20.000Z</time>
      </trkpt>
      <trkpt lat="42.93049" lon="1.21616">
        <ele>986</ele>
        <time>2026-06-23T08:46:21.000Z</time>
      </trkpt>
      <trkpt lat="42.9305" lon="1.21608">
        <ele>987</ele>
        <time>2026-06-23T08:46:22.000Z</time>
      </trkpt>
      <trkpt lat="42.93049" lon="1.21602">
        <ele>987</ele>
        <time>2026-06-23T08:46:23.000Z</time>
      </trkpt>
      <trkpt lat="42.93045" lon="1.21596">
        <ele>987</ele>
        <time>2026-06-23T08:46:24.000Z</time>
      </trkpt>
      <trkpt lat="42.9304" lon="1.21591">
        <ele>986</ele>
        <time>2026-06-23T08:46:25.000Z</time>
      </trkpt>
      <trkpt lat="42.93034" lon="1.21587">
        <ele>987</ele>
        <time>2026-06-23T08:46:26.000Z</time>
      </trkpt>
      <trkpt lat="42.93029" lon="1.21585">
        <ele>987</ele>
        <time>2026-06-23T08:46:27.000Z</time>
      </trkpt>
      <trkpt lat="42.93023" lon="1.21584">
        <ele>987</ele>
        <time>2026-06-23T08:46:28.000Z</time>
      </trkpt>
      <trkpt lat="42.93016" lon="1.21587">
        <ele>987</ele>
        <time>2026-06-23T08:46:29.000Z</time>
      </trkpt>
      <trkpt lat="42.93009" lon="1.21589">
        <ele>987</ele>
        <time>2026-06-23T08:46:30.000Z</time>
      </trkpt>
      <trkpt lat="42.93001" lon="1.21593">
        <ele>987</ele>
        <time>2026-06-23T08:46:31.000Z</time>
      </trkpt>
      <trkpt lat="42.92994" lon="1.21596">
        <ele>987</ele>
        <time>2026-06-23T08:46:32.000Z</time>
      </trkpt>
      <trkpt lat="42.92988" lon="1.216">
        <ele>987</ele>
        <time>2026-06-23T08:46:33.000Z</time>
      </trkpt>
      <trkpt lat="42.92983" lon="1.21602">
        <ele>987</ele>
        <time>2026-06-23T08:46:34.000Z</time>
      </trkpt>
      <trkpt lat="42.92977" lon="1.21606">
        <ele>987</ele>
        <time>2026-06-23T08:46:35.000Z</time>
      </trkpt>
      <trkpt lat="42.92972" lon="1.21608">
        <ele>987</ele>
        <time>2026-06-23T08:46:36.000Z</time>
      </trkpt>
      <trkpt lat="42.92967" lon="1.21609">
        <ele>988</ele>
        <time>2026-06-23T08:46:37.000Z</time>
      </trkpt>
      <trkpt lat="42.92961" lon="1.21609">
        <ele>988</ele>
        <time>2026-06-23T08:46:38.000Z</time>
      </trkpt>
      <trkpt lat="42.92956" lon="1.21608">
        <ele>988</ele>
        <time>2026-06-23T08:46:39.000Z</time>
      </trkpt>
      <trkpt lat="42.92951" lon="1.21607">
        <ele>988</ele>
        <time>2026-06-23T08:46:40.000Z</time>
      </trkpt>
      <trkpt lat="42.92945" lon="1.21606">
        <ele>989</ele>
        <time>2026-06-23T08:46:41.000Z</time>
      </trkpt>
      <trkpt lat="42.92941" lon="1.21604">
        <ele>990</ele>
        <time>2026-06-23T08:46:42.000Z</time>
      </trkpt>
      <trkpt lat="42.92936" lon="1.21601">
        <ele>990</ele>
        <time>2026-06-23T08:46:43.000Z</time>
      </trkpt>
      <trkpt lat="42.9293" lon="1.21597">
        <ele>989</ele>
        <time>2026-06-23T08:46:44.000Z</time>
      </trkpt>
      <trkpt lat="42.92925" lon="1.21594">
        <ele>989</ele>
        <time>2026-06-23T08:46:45.000Z</time>
      </trkpt>
      <trkpt lat="42.92919" lon="1.2159">
        <ele>990</ele>
        <time>2026-06-23T08:46:46.000Z</time>
      </trkpt>
      <trkpt lat="42.92914" lon="1.21586">
        <ele>990</ele>
        <time>2026-06-23T08:46:47.000Z</time>
      </trkpt>
      <trkpt lat="42.92909" lon="1.21582">
        <ele>990</ele>
        <time>2026-06-23T08:46:48.000Z</time>
      </trkpt>
      <trkpt lat="42.92904" lon="1.21578">
        <ele>990</ele>
        <time>2026-06-23T08:46:49.000Z</time>
      </trkpt>
      <trkpt lat="42.92899" lon="1.21573">
        <ele>990</ele>
        <time>2026-06-23T08:46:50.000Z</time>
      </trkpt>
      <trkpt lat="42.92893" lon="1.21569">
        <ele>990</ele>
        <time>2026-06-23T08:46:51.000Z</time>
      </trkpt>
      <trkpt lat="42.92888" lon="1.21566">
        <ele>990</ele>
        <time>2026-06-23T08:46:52.000Z</time>
      </trkpt>
      <trkpt lat="42.92884" lon="1.21562">
        <ele>990</ele>
        <time>2026-06-23T08:46:53.000Z</time>
      </trkpt>
      <trkpt lat="42.92879" lon="1.21558">
        <ele>990</ele>
        <time>2026-06-23T08:46:54.000Z</time>
      </trkpt>
      <trkpt lat="42.92875" lon="1.21553">
        <ele>990</ele>
        <time>2026-06-23T08:46:55.000Z</time>
      </trkpt>
      <trkpt lat="42.9287" lon="1.21548">
        <ele>990</ele>
        <time>2026-06-23T08:46:56.000Z</time>
      </trkpt>
      <trkpt lat="42.92865" lon="1.21542">
        <ele>989</ele>
        <time>2026-06-23T08:46:57.000Z</time>
      </trkpt>
      <trkpt lat="42.92861" lon="1.21534">
        <ele>989</ele>
        <time>2026-06-23T08:46:58.000Z</time>
      </trkpt>
      <trkpt lat="42.92858" lon="1.21525">
        <ele>988</ele>
        <time>2026-06-23T08:46:59.000Z</time>
      </trkpt>
      <trkpt lat="42.92856" lon="1.21518">
        <ele>988</ele>
        <time>2026-06-23T08:47:00.000Z</time>
      </trkpt>
      <trkpt lat="42.92853" lon="1.21511">
        <ele>987</ele>
        <time>2026-06-23T08:47:01.000Z</time>
      </trkpt>
      <trkpt lat="42.92852" lon="1.21503">
        <ele>987</ele>
        <time>2026-06-23T08:47:02.000Z</time>
      </trkpt>
      <trkpt lat="42.92851" lon="1.21495">
        <ele>987</ele>
        <time>2026-06-23T08:47:03.000Z</time>
      </trkpt>
      <trkpt lat="42.9285" lon="1.21487">
        <ele>987</ele>
        <time>2026-06-23T08:47:04.000Z</time>
      </trkpt>
      <trkpt lat="42.92849" lon="1.2148">
        <ele>986</ele>
        <time>2026-06-23T08:47:05.000Z</time>
      </trkpt>
      <trkpt lat="42.92848" lon="1.21472">
        <ele>987</ele>
        <time>2026-06-23T08:47:06.000Z</time>
      </trkpt>
      <trkpt lat="42.92848" lon="1.21465">
        <ele>987</ele>
        <time>2026-06-23T08:47:07.000Z</time>
      </trkpt>
      <trkpt lat="42.92846" lon="1.21459">
        <ele>987</ele>
        <time>2026-06-23T08:47:08.000Z</time>
      </trkpt>
      <trkpt lat="42.92843" lon="1.21455">
        <ele>987</ele>
        <time>2026-06-23T08:47:09.000Z</time>
      </trkpt>
      <trkpt lat="42.9284" lon="1.21455">
        <ele>987</ele>
        <time>2026-06-23T08:47:10.000Z</time>
      </trkpt>
      <trkpt lat="42.92836" lon="1.21453">
        <ele>987</ele>
        <time>2026-06-23T08:47:11.000Z</time>
      </trkpt>
      <trkpt lat="42.92831" lon="1.2145">
        <ele>987</ele>
        <time>2026-06-23T08:47:12.000Z</time>
      </trkpt>
      <trkpt lat="42.92827" lon="1.21449">
        <ele>987</ele>
        <time>2026-06-23T08:47:13.000Z</time>
      </trkpt>
      <trkpt lat="42.92823" lon="1.21449">
        <ele>988</ele>
        <time>2026-06-23T08:47:14.000Z</time>
      </trkpt>
      <trkpt lat="42.92819" lon="1.21449">
        <ele>989</ele>
        <time>2026-06-23T08:47:15.000Z</time>
      </trkpt>
      <trkpt lat="42.92815" lon="1.21449">
        <ele>989</ele>
        <time>2026-06-23T08:47:16.000Z</time>
      </trkpt>
      <trkpt lat="42.92811" lon="1.2145">
        <ele>990</ele>
        <time>2026-06-23T08:47:17.000Z</time>
      </trkpt>
      <trkpt lat="42.92808" lon="1.21451">
        <ele>990</ele>
        <time>2026-06-23T08:47:18.000Z</time>
      </trkpt>
      <trkpt lat="42.92804" lon="1.21453">
        <ele>991</ele>
        <time>2026-06-23T08:47:19.000Z</time>
      </trkpt>
      <trkpt lat="42.92799" lon="1.21455">
        <ele>991</ele>
        <time>2026-06-23T08:47:20.000Z</time>
      </trkpt>
      <trkpt lat="42.92794" lon="1.21459">
        <ele>990</ele>
        <time>2026-06-23T08:47:21.000Z</time>
      </trkpt>
      <trkpt lat="42.92788" lon="1.21462">
        <ele>991</ele>
        <time>2026-06-23T08:47:22.000Z</time>
      </trkpt>
      <trkpt lat="42.92781" lon="1.21465">
        <ele>991</ele>
        <time>2026-06-23T08:47:23.000Z</time>
      </trkpt>
      <trkpt lat="42.92774" lon="1.21467">
        <ele>991</ele>
        <time>2026-06-23T08:47:24.000Z</time>
      </trkpt>
      <trkpt lat="42.92766" lon="1.2147">
        <ele>992</ele>
        <time>2026-06-23T08:47:25.000Z</time>
      </trkpt>
      <trkpt lat="42.9276" lon="1.21475">
        <ele>992</ele>
        <time>2026-06-23T08:47:26.000Z</time>
      </trkpt>
      <trkpt lat="42.92755" lon="1.21479">
        <ele>992</ele>
        <time>2026-06-23T08:47:27.000Z</time>
      </trkpt>
      <trkpt lat="42.9275" lon="1.21483">
        <ele>993</ele>
        <time>2026-06-23T08:47:28.000Z</time>
      </trkpt>
      <trkpt lat="42.92745" lon="1.21488">
        <ele>993</ele>
        <time>2026-06-23T08:47:29.000Z</time>
      </trkpt>
      <trkpt lat="42.9274" lon="1.21492">
        <ele>992</ele>
        <time>2026-06-23T08:47:30.000Z</time>
      </trkpt>
      <trkpt lat="42.92735" lon="1.21496">
        <ele>992</ele>
        <time>2026-06-23T08:47:31.000Z</time>
      </trkpt>
      <trkpt lat="42.9273" lon="1.215">
        <ele>992</ele>
        <time>2026-06-23T08:47:32.000Z</time>
      </trkpt>
      <trkpt lat="42.92726" lon="1.21502">
        <ele>993</ele>
        <time>2026-06-23T08:47:33.000Z</time>
      </trkpt>
      <trkpt lat="42.9272" lon="1.21505">
        <ele>992</ele>
        <time>2026-06-23T08:47:34.000Z</time>
      </trkpt>
      <trkpt lat="42.92715" lon="1.21508">
        <ele>993</ele>
        <time>2026-06-23T08:47:35.000Z</time>
      </trkpt>
      <trkpt lat="42.92711" lon="1.21511">
        <ele>993</ele>
        <time>2026-06-23T08:47:36.000Z</time>
      </trkpt>
      <trkpt lat="42.92706" lon="1.21513">
        <ele>993</ele>
        <time>2026-06-23T08:47:37.000Z</time>
      </trkpt>
      <trkpt lat="42.927" lon="1.21517">
        <ele>993</ele>
        <time>2026-06-23T08:47:38.000Z</time>
      </trkpt>
      <trkpt lat="42.92695" lon="1.2152">
        <ele>992</ele>
        <time>2026-06-23T08:47:39.000Z</time>
      </trkpt>
      <trkpt lat="42.92691" lon="1.21524">
        <ele>992</ele>
        <time>2026-06-23T08:47:40.000Z</time>
      </trkpt>
      <trkpt lat="42.92687" lon="1.21527">
        <ele>992</ele>
        <time>2026-06-23T08:47:41.000Z</time>
      </trkpt>
      <trkpt lat="42.92683" lon="1.2153">
        <ele>992</ele>
        <time>2026-06-23T08:47:42.000Z</time>
      </trkpt>
      <trkpt lat="42.92678" lon="1.21531">
        <ele>992</ele>
        <time>2026-06-23T08:47:43.000Z</time>
      </trkpt>
      <trkpt lat="42.92674" lon="1.21534">
        <ele>992</ele>
        <time>2026-06-23T08:47:44.000Z</time>
      </trkpt>
      <trkpt lat="42.9267" lon="1.21538">
        <ele>992</ele>
        <time>2026-06-23T08:47:45.000Z</time>
      </trkpt>
      <trkpt lat="42.92665" lon="1.2154">
        <ele>993</ele>
        <time>2026-06-23T08:47:46.000Z</time>
      </trkpt>
      <trkpt lat="42.92662" lon="1.21543">
        <ele>993</ele>
        <time>2026-06-23T08:47:47.000Z</time>
      </trkpt>
      <trkpt lat="42.92658" lon="1.21546">
        <ele>993</ele>
        <time>2026-06-23T08:47:48.000Z</time>
      </trkpt>
      <trkpt lat="42.92654" lon="1.21549">
        <ele>993</ele>
        <time>2026-06-23T08:47:49.000Z</time>
      </trkpt>
      <trkpt lat="42.9265" lon="1.21553">
        <ele>994</ele>
        <time>2026-06-23T08:47:50.000Z</time>
      </trkpt>
      <trkpt lat="42.92646" lon="1.21556">
        <ele>994</ele>
        <time>2026-06-23T08:47:51.000Z</time>
      </trkpt>
      <trkpt lat="42.92642" lon="1.2156">
        <ele>995</ele>
        <time>2026-06-23T08:47:52.000Z</time>
      </trkpt>
      <trkpt lat="42.92638" lon="1.21564">
        <ele>995</ele>
        <time>2026-06-23T08:47:53.000Z</time>
      </trkpt>
      <trkpt lat="42.92634" lon="1.21568">
        <ele>995</ele>
        <time>2026-06-23T08:47:54.000Z</time>
      </trkpt>
      <trkpt lat="42.92628" lon="1.21572">
        <ele>996</ele>
        <time>2026-06-23T08:47:55.000Z</time>
      </trkpt>
      <trkpt lat="42.92623" lon="1.21576">
        <ele>996</ele>
        <time>2026-06-23T08:47:56.000Z</time>
      </trkpt>
      <trkpt lat="42.92617" lon="1.21579">
        <ele>996</ele>
        <time>2026-06-23T08:47:57.000Z</time>
      </trkpt>
      <trkpt lat="42.92612" lon="1.21583">
        <ele>996</ele>
        <time>2026-06-23T08:47:58.000Z</time>
      </trkpt>
      <trkpt lat="42.92606" lon="1.21587">
        <ele>995</ele>
        <time>2026-06-23T08:47:59.000Z</time>
      </trkpt>
      <trkpt lat="42.926" lon="1.21591">
        <ele>995</ele>
        <time>2026-06-23T08:48:00.000Z</time>
      </trkpt>
      <trkpt lat="42.92595" lon="1.21594">
        <ele>994</ele>
        <time>2026-06-23T08:48:01.000Z</time>
      </trkpt>
      <trkpt lat="42.92589" lon="1.21598">
        <ele>994</ele>
        <time>2026-06-23T08:48:02.000Z</time>
      </trkpt>
      <trkpt lat="42.92583" lon="1.21602">
        <ele>994</ele>
        <time>2026-06-23T08:48:03.000Z</time>
      </trkpt>
      <trkpt lat="42.92577" lon="1.21606">
        <ele>994</ele>
        <time>2026-06-23T08:48:04.000Z</time>
      </trkpt>
      <trkpt lat="42.92571" lon="1.21609">
        <ele>994</ele>
        <time>2026-06-23T08:48:05.000Z</time>
      </trkpt>
      <trkpt lat="42.92565" lon="1.2161">
        <ele>994</ele>
        <time>2026-06-23T08:48:06.000Z</time>
      </trkpt>
      <trkpt lat="42.92559" lon="1.21612">
        <ele>993</ele>
        <time>2026-06-23T08:48:07.000Z</time>
      </trkpt>
      <trkpt lat="42.92552" lon="1.21614">
        <ele>993</ele>
        <time>2026-06-23T08:48:08.000Z</time>
      </trkpt>
      <trkpt lat="42.92546" lon="1.21614">
        <ele>992</ele>
        <time>2026-06-23T08:48:09.000Z</time>
      </trkpt>
      <trkpt lat="42.92539" lon="1.21613">
        <ele>992</ele>
        <time>2026-06-23T08:48:10.000Z</time>
      </trkpt>
      <trkpt lat="42.92532" lon="1.21613">
        <ele>991</ele>
        <time>2026-06-23T08:48:11.000Z</time>
      </trkpt>
      <trkpt lat="42.92525" lon="1.21611">
        <ele>991</ele>
        <time>2026-06-23T08:48:12.000Z</time>
      </trkpt>
      <trkpt lat="42.92519" lon="1.21609">
        <ele>991</ele>
        <time>2026-06-23T08:48:13.000Z</time>
      </trkpt>
      <trkpt lat="42.92513" lon="1.21607">
        <ele>990</ele>
        <time>2026-06-23T08:48:14.000Z</time>
      </trkpt>
      <trkpt lat="42.92507" lon="1.21606">
        <ele>990</ele>
        <time>2026-06-23T08:48:15.000Z</time>
      </trkpt>
      <trkpt lat="42.92501" lon="1.21609">
        <ele>990</ele>
        <time>2026-06-23T08:48:16.000Z</time>
      </trkpt>
      <trkpt lat="42.92495" lon="1.21612">
        <ele>990</ele>
        <time>2026-06-23T08:48:17.000Z</time>
      </trkpt>
      <trkpt lat="42.9249" lon="1.21615">
        <ele>991</ele>
        <time>2026-06-23T08:48:18.000Z</time>
      </trkpt>
      <trkpt lat="42.92482" lon="1.2162">
        <ele>992</ele>
        <time>2026-06-23T08:48:19.000Z</time>
      </trkpt>
      <trkpt lat="42.92476" lon="1.21625">
        <ele>992</ele>
        <time>2026-06-23T08:48:20.000Z</time>
      </trkpt>
      <trkpt lat="42.92468" lon="1.21629">
        <ele>992</ele>
        <time>2026-06-23T08:48:21.000Z</time>
      </trkpt>
      <trkpt lat="42.92461" lon="1.21634">
        <ele>993</ele>
        <time>2026-06-23T08:48:22.000Z</time>
      </trkpt>
      <trkpt lat="42.92453" lon="1.21638">
        <ele>993</ele>
        <time>2026-06-23T08:48:23.000Z</time>
      </trkpt>
      <trkpt lat="42.92445" lon="1.21642">
        <ele>993</ele>
        <time>2026-06-23T08:48:24.000Z</time>
      </trkpt>
      <trkpt lat="42.92438" lon="1.21645">
        <ele>993</ele>
        <time>2026-06-23T08:48:25.000Z</time>
      </trkpt>
      <trkpt lat="42.9243" lon="1.21648">
        <ele>993</ele>
        <time>2026-06-23T08:48:26.000Z</time>
      </trkpt>
      <trkpt lat="42.92423" lon="1.21651">
        <ele>993</ele>
        <time>2026-06-23T08:48:27.000Z</time>
      </trkpt>
      <trkpt lat="42.92416" lon="1.21655">
        <ele>993</ele>
        <time>2026-06-23T08:48:28.000Z</time>
      </trkpt>
      <trkpt lat="42.92408" lon="1.21659">
        <ele>993</ele>
        <time>2026-06-23T08:48:29.000Z</time>
      </trkpt>
      <trkpt lat="42.92402" lon="1.21662">
        <ele>992</ele>
        <time>2026-06-23T08:48:30.000Z</time>
      </trkpt>
      <trkpt lat="42.92396" lon="1.21665">
        <ele>992</ele>
        <time>2026-06-23T08:48:31.000Z</time>
      </trkpt>
      <trkpt lat="42.92389" lon="1.21668">
        <ele>992</ele>
        <time>2026-06-23T08:48:32.000Z</time>
      </trkpt>
      <trkpt lat="42.92383" lon="1.2167">
        <ele>993</ele>
        <time>2026-06-23T08:48:33.000Z</time>
      </trkpt>
      <trkpt lat="42.92375" lon="1.21674">
        <ele>993</ele>
        <time>2026-06-23T08:48:34.000Z</time>
      </trkpt>
      <trkpt lat="42.92368" lon="1.21677">
        <ele>993</ele>
        <time>2026-06-23T08:48:35.000Z</time>
      </trkpt>
      <trkpt lat="42.92361" lon="1.2168">
        <ele>993</ele>
        <time>2026-06-23T08:48:36.000Z</time>
      </trkpt>
      <trkpt lat="42.92354" lon="1.21683">
        <ele>993</ele>
        <time>2026-06-23T08:48:37.000Z</time>
      </trkpt>
      <trkpt lat="42.92347" lon="1.21686">
        <ele>992</ele>
        <time>2026-06-23T08:48:38.000Z</time>
      </trkpt>
      <trkpt lat="42.92341" lon="1.21688">
        <ele>992</ele>
        <time>2026-06-23T08:48:39.000Z</time>
      </trkpt>
      <trkpt lat="42.92334" lon="1.21691">
        <ele>992</ele>
        <time>2026-06-23T08:48:40.000Z</time>
      </trkpt>
      <trkpt lat="42.92327" lon="1.21693">
        <ele>992</ele>
        <time>2026-06-23T08:48:41.000Z</time>
      </trkpt>
      <trkpt lat="42.92321" lon="1.21695">
        <ele>992</ele>
        <time>2026-06-23T08:48:42.000Z</time>
      </trkpt>
      <trkpt lat="42.92314" lon="1.21698">
        <ele>991</ele>
        <time>2026-06-23T08:48:43.000Z</time>
      </trkpt>
      <trkpt lat="42.92308" lon="1.21701">
        <ele>992</ele>
        <time>2026-06-23T08:48:44.000Z</time>
      </trkpt>
      <trkpt lat="42.92301" lon="1.21703">
        <ele>991</ele>
        <time>2026-06-23T08:48:45.000Z</time>
      </trkpt>
      <trkpt lat="42.92295" lon="1.21706">
        <ele>991</ele>
        <time>2026-06-23T08:48:46.000Z</time>
      </trkpt>
      <trkpt lat="42.92288" lon="1.21707">
        <ele>991</ele>
        <time>2026-06-23T08:48:47.000Z</time>
      </trkpt>
      <trkpt lat="42.92281" lon="1.21708">
        <ele>991</ele>
        <time>2026-06-23T08:48:48.000Z</time>
      </trkpt>
      <trkpt lat="42.92275" lon="1.21707">
        <ele>991</ele>
        <time>2026-06-23T08:48:49.000Z</time>
      </trkpt>
      <trkpt lat="42.92268" lon="1.21708">
        <ele>991</ele>
        <time>2026-06-23T08:48:50.000Z</time>
      </trkpt>
      <trkpt lat="42.92261" lon="1.2171">
        <ele>991</ele>
        <time>2026-06-23T08:48:51.000Z</time>
      </trkpt>
      <trkpt lat="42.92255" lon="1.21712">
        <ele>991</ele>
        <time>2026-06-23T08:48:52.000Z</time>
      </trkpt>
      <trkpt lat="42.9225" lon="1.21716">
        <ele>990</ele>
        <time>2026-06-23T08:48:53.000Z</time>
      </trkpt>
      <trkpt lat="42.92244" lon="1.21718">
        <ele>990</ele>
        <time>2026-06-23T08:48:54.000Z</time>
      </trkpt>
      <trkpt lat="42.92238" lon="1.21723">
        <ele>990</ele>
        <time>2026-06-23T08:48:55.000Z</time>
      </trkpt>
      <trkpt lat="42.92232" lon="1.21727">
        <ele>990</ele>
        <time>2026-06-23T08:48:56.000Z</time>
      </trkpt>
      <trkpt lat="42.92226" lon="1.21731">
        <ele>989</ele>
        <time>2026-06-23T08:48:57.000Z</time>
      </trkpt>
      <trkpt lat="42.9222" lon="1.21736">
        <ele>988</ele>
        <time>2026-06-23T08:48:58.000Z</time>
      </trkpt>
      <trkpt lat="42.92213" lon="1.21741">
        <ele>988</ele>
        <time>2026-06-23T08:48:59.000Z</time>
      </trkpt>
      <trkpt lat="42.92206" lon="1.21746">
        <ele>987</ele>
        <time>2026-06-23T08:49:00.000Z</time>
      </trkpt>
      <trkpt lat="42.92198" lon="1.21751">
        <ele>986</ele>
        <time>2026-06-23T08:49:01.000Z</time>
      </trkpt>
      <trkpt lat="42.92192" lon="1.21755">
        <ele>985</ele>
        <time>2026-06-23T08:49:02.000Z</time>
      </trkpt>
      <trkpt lat="42.92185" lon="1.21758">
        <ele>984</ele>
        <time>2026-06-23T08:49:03.000Z</time>
      </trkpt>
      <trkpt lat="42.92179" lon="1.21762">
        <ele>984</ele>
        <time>2026-06-23T08:49:04.000Z</time>
      </trkpt>
      <trkpt lat="42.92172" lon="1.21764">
        <ele>983</ele>
        <time>2026-06-23T08:49:05.000Z</time>
      </trkpt>
      <trkpt lat="42.92166" lon="1.21767">
        <ele>982</ele>
        <time>2026-06-23T08:49:06.000Z</time>
      </trkpt>
      <trkpt lat="42.9216" lon="1.21769">
        <ele>982</ele>
        <time>2026-06-23T08:49:07.000Z</time>
      </trkpt>
      <trkpt lat="42.92153" lon="1.2177">
        <ele>981</ele>
        <time>2026-06-23T08:49:08.000Z</time>
      </trkpt>
      <trkpt lat="42.92148" lon="1.21772">
        <ele>981</ele>
        <time>2026-06-23T08:49:09.000Z</time>
      </trkpt>
      <trkpt lat="42.92141" lon="1.21772">
        <ele>980</ele>
        <time>2026-06-23T08:49:10.000Z</time>
      </trkpt>
      <trkpt lat="42.92134" lon="1.21775">
        <ele>979</ele>
        <time>2026-06-23T08:49:11.000Z</time>
      </trkpt>
      <trkpt lat="42.92127" lon="1.21778">
        <ele>979</ele>
        <time>2026-06-23T08:49:12.000Z</time>
      </trkpt>
      <trkpt lat="42.9212" lon="1.2178">
        <ele>979</ele>
        <time>2026-06-23T08:49:13.000Z</time>
      </trkpt>
      <trkpt lat="42.92115" lon="1.21783">
        <ele>979</ele>
        <time>2026-06-23T08:49:14.000Z</time>
      </trkpt>
      <trkpt lat="42.92109" lon="1.21785">
        <ele>978</ele>
        <time>2026-06-23T08:49:15.000Z</time>
      </trkpt>
      <trkpt lat="42.92104" lon="1.21788">
        <ele>978</ele>
        <time>2026-06-23T08:49:16.000Z</time>
      </trkpt>
      <trkpt lat="42.92098" lon="1.21791">
        <ele>977</ele>
        <time>2026-06-23T08:49:17.000Z</time>
      </trkpt>
      <trkpt lat="42.92093" lon="1.21793">
        <ele>977</ele>
        <time>2026-06-23T08:49:18.000Z</time>
      </trkpt>
      <trkpt lat="42.92087" lon="1.21797">
        <ele>977</ele>
        <time>2026-06-23T08:49:19.000Z</time>
      </trkpt>
      <trkpt lat="42.92081" lon="1.21799">
        <ele>976</ele>
        <time>2026-06-23T08:49:20.000Z</time>
      </trkpt>
      <trkpt lat="42.92076" lon="1.21802">
        <ele>975</ele>
        <time>2026-06-23T08:49:21.000Z</time>
      </trkpt>
      <trkpt lat="42.92071" lon="1.21806">
        <ele>974</ele>
        <time>2026-06-23T08:49:22.000Z</time>
      </trkpt>
      <trkpt lat="42.92064" lon="1.2181">
        <ele>973</ele>
        <time>2026-06-23T08:49:23.000Z</time>
      </trkpt>
      <trkpt lat="42.92058" lon="1.21814">
        <ele>972</ele>
        <time>2026-06-23T08:49:24.000Z</time>
      </trkpt>
      <trkpt lat="42.9205" lon="1.21819">
        <ele>970</ele>
        <time>2026-06-23T08:49:25.000Z</time>
      </trkpt>
      <trkpt lat="42.92043" lon="1.21823">
        <ele>969</ele>
        <time>2026-06-23T08:49:26.000Z</time>
      </trkpt>
      <trkpt lat="42.92035" lon="1.21827">
        <ele>969</ele>
        <time>2026-06-23T08:49:27.000Z</time>
      </trkpt>
      <trkpt lat="42.92028" lon="1.2183">
        <ele>969</ele>
        <time>2026-06-23T08:49:28.000Z</time>
      </trkpt>
      <trkpt lat="42.92019" lon="1.21834">
        <ele>969</ele>
        <time>2026-06-23T08:49:29.000Z</time>
      </trkpt>
      <trkpt lat="42.92011" lon="1.21837">
        <ele>968</ele>
        <time>2026-06-23T08:49:30.000Z</time>
      </trkpt>
      <trkpt lat="42.92003" lon="1.2184">
        <ele>968</ele>
        <time>2026-06-23T08:49:31.000Z</time>
      </trkpt>
      <trkpt lat="42.91995" lon="1.21843">
        <ele>968</ele>
        <time>2026-06-23T08:49:32.000Z</time>
      </trkpt>
      <trkpt lat="42.91987" lon="1.21847">
        <ele>968</ele>
        <time>2026-06-23T08:49:33.000Z</time>
      </trkpt>
      <trkpt lat="42.91979" lon="1.2185">
        <ele>968</ele>
        <time>2026-06-23T08:49:34.000Z</time>
      </trkpt>
      <trkpt lat="42.91971" lon="1.21854">
        <ele>968</ele>
        <time>2026-06-23T08:49:35.000Z</time>
      </trkpt>
      <trkpt lat="42.91962" lon="1.21858">
        <ele>968</ele>
        <time>2026-06-23T08:49:36.000Z</time>
      </trkpt>
      <trkpt lat="42.91954" lon="1.21861">
        <ele>967</ele>
        <time>2026-06-23T08:49:37.000Z</time>
      </trkpt>
      <trkpt lat="42.91945" lon="1.21864">
        <ele>966</ele>
        <time>2026-06-23T08:49:38.000Z</time>
      </trkpt>
      <trkpt lat="42.91935" lon="1.21866">
        <ele>966</ele>
        <time>2026-06-23T08:49:39.000Z</time>
      </trkpt>
      <trkpt lat="42.91925" lon="1.21867">
        <ele>965</ele>
        <time>2026-06-23T08:49:40.000Z</time>
      </trkpt>
      <trkpt lat="42.91914" lon="1.21869">
        <ele>965</ele>
        <time>2026-06-23T08:49:41.000Z</time>
      </trkpt>
      <trkpt lat="42.91903" lon="1.21869">
        <ele>964</ele>
        <time>2026-06-23T08:49:42.000Z</time>
      </trkpt>
      <trkpt lat="42.91894" lon="1.21869">
        <ele>963</ele>
        <time>2026-06-23T08:49:43.000Z</time>
      </trkpt>
      <trkpt lat="42.91885" lon="1.21869">
        <ele>963</ele>
        <time>2026-06-23T08:49:44.000Z</time>
      </trkpt>
      <trkpt lat="42.91876" lon="1.21869">
        <ele>962</ele>
        <time>2026-06-23T08:49:45.000Z</time>
      </trkpt>
      <trkpt lat="42.91867" lon="1.21869">
        <ele>961</ele>
        <time>2026-06-23T08:49:46.000Z</time>
      </trkpt>
      <trkpt lat="42.91858" lon="1.21868">
        <ele>959</ele>
        <time>2026-06-23T08:49:47.000Z</time>
      </trkpt>
      <trkpt lat="42.91849" lon="1.2187">
        <ele>958</ele>
        <time>2026-06-23T08:49:48.000Z</time>
      </trkpt>
      <trkpt lat="42.91841" lon="1.2187">
        <ele>957</ele>
        <time>2026-06-23T08:49:49.000Z</time>
      </trkpt>
      <trkpt lat="42.91832" lon="1.21872">
        <ele>956</ele>
        <time>2026-06-23T08:49:50.000Z</time>
      </trkpt>
      <trkpt lat="42.91826" lon="1.21874">
        <ele>956</ele>
        <time>2026-06-23T08:49:51.000Z</time>
      </trkpt>
      <trkpt lat="42.9182" lon="1.21875">
        <ele>956</ele>
        <time>2026-06-23T08:49:52.000Z</time>
      </trkpt>
      <trkpt lat="42.91817" lon="1.21874">
        <ele>955</ele>
        <time>2026-06-23T08:49:53.000Z</time>
      </trkpt>
      <trkpt lat="42.91815" lon="1.21872">
        <ele>955</ele>
        <time>2026-06-23T08:49:54.000Z</time>
      </trkpt>
      <trkpt lat="42.91812" lon="1.21871">
        <ele>954</ele>
        <time>2026-06-23T08:49:55.000Z</time>
      </trkpt>
      <trkpt lat="42.9181" lon="1.2187">
        <ele>954</ele>
        <time>2026-06-23T08:49:56.000Z</time>
      </trkpt>
      <trkpt lat="42.91809" lon="1.21868">
        <ele>953</ele>
        <time>2026-06-23T08:49:57.000Z</time>
      </trkpt>
      <trkpt lat="42.91808" lon="1.21866">
        <ele>953</ele>
        <time>2026-06-23T08:49:58.000Z</time>
      </trkpt>
      <trkpt lat="42.91808" lon="1.21865">
        <ele>952</ele>
        <time>2026-06-23T08:49:59.000Z</time>
      </trkpt>
      <trkpt lat="42.91808" lon="1.21864">
        <ele>952</ele>
        <time>2026-06-23T08:50:00.000Z</time>
      </trkpt>
      <trkpt lat="42.91808" lon="1.21862">
        <ele>952</ele>
        <time>2026-06-23T08:50:01.000Z</time>
      </trkpt>
      <trkpt lat="42.91807" lon="1.21859">
        <ele>951</ele>
        <time>2026-06-23T08:50:02.000Z</time>
      </trkpt>
      <trkpt lat="42.91806" lon="1.21856">
        <ele>950</ele>
        <time>2026-06-23T08:50:03.000Z</time>
      </trkpt>
      <trkpt lat="42.91805" lon="1.21852">
        <ele>950</ele>
        <time>2026-06-23T08:50:04.000Z</time>
      </trkpt>
      <trkpt lat="42.91805" lon="1.21846">
        <ele>949</ele>
        <time>2026-06-23T08:50:05.000Z</time>
      </trkpt>
      <trkpt lat="42.91804" lon="1.21839">
        <ele>947</ele>
        <time>2026-06-23T08:50:06.000Z</time>
      </trkpt>
      <trkpt lat="42.91804" lon="1.21829">
        <ele>946</ele>
        <time>2026-06-23T08:50:07.000Z</time>
      </trkpt>
      <trkpt lat="42.91805" lon="1.2182">
        <ele>946</ele>
        <time>2026-06-23T08:50:08.000Z</time>
      </trkpt>
      <trkpt lat="42.91807" lon="1.21813">
        <ele>945</ele>
        <time>2026-06-23T08:50:09.000Z</time>
      </trkpt>
      <trkpt lat="42.91809" lon="1.21804">
        <ele>946</ele>
        <time>2026-06-23T08:50:10.000Z</time>
      </trkpt>
      <trkpt lat="42.91811" lon="1.21797">
        <ele>946</ele>
        <time>2026-06-23T08:50:11.000Z</time>
      </trkpt>
      <trkpt lat="42.91813" lon="1.21789">
        <ele>946</ele>
        <time>2026-06-23T08:50:12.000Z</time>
      </trkpt>
      <trkpt lat="42.91814" lon="1.21783">
        <ele>946</ele>
        <time>2026-06-23T08:50:13.000Z</time>
      </trkpt>
      <trkpt lat="42.91815" lon="1.21777">
        <ele>946</ele>
        <time>2026-06-23T08:50:14.000Z</time>
      </trkpt>
      <trkpt lat="42.91816" lon="1.21771">
        <ele>946</ele>
        <time>2026-06-23T08:50:15.000Z</time>
      </trkpt>
      <trkpt lat="42.91818" lon="1.21764">
        <ele>946</ele>
        <time>2026-06-23T08:50:16.000Z</time>
      </trkpt>
      <trkpt lat="42.9182" lon="1.21756">
        <ele>946</ele>
        <time>2026-06-23T08:50:17.000Z</time>
      </trkpt>
      <trkpt lat="42.91822" lon="1.21749">
        <ele>945</ele>
        <time>2026-06-23T08:50:18.000Z</time>
      </trkpt>
      <trkpt lat="42.91823" lon="1.21741">
        <ele>944</ele>
        <time>2026-06-23T08:50:19.000Z</time>
      </trkpt>
      <trkpt lat="42.91824" lon="1.21733">
        <ele>944</ele>
        <time>2026-06-23T08:50:20.000Z</time>
      </trkpt>
      <trkpt lat="42.91826" lon="1.21725">
        <ele>943</ele>
        <time>2026-06-23T08:50:21.000Z</time>
      </trkpt>
      <trkpt lat="42.91826" lon="1.21717">
        <ele>943</ele>
        <time>2026-06-23T08:50:22.000Z</time>
      </trkpt>
      <trkpt lat="42.91828" lon="1.21709">
        <ele>942</ele>
        <time>2026-06-23T08:50:23.000Z</time>
      </trkpt>
      <trkpt lat="42.91829" lon="1.217">
        <ele>941</ele>
        <time>2026-06-23T08:50:24.000Z</time>
      </trkpt>
      <trkpt lat="42.91831" lon="1.21692">
        <ele>940</ele>
        <time>2026-06-23T08:50:25.000Z</time>
      </trkpt>
      <trkpt lat="42.91832" lon="1.21685">
        <ele>940</ele>
        <time>2026-06-23T08:50:26.000Z</time>
      </trkpt>
      <trkpt lat="42.91833" lon="1.21679">
        <ele>940</ele>
        <time>2026-06-23T08:50:27.000Z</time>
      </trkpt>
      <trkpt lat="42.91834" lon="1.21673">
        <ele>939</ele>
        <time>2026-06-23T08:50:28.000Z</time>
      </trkpt>
      <trkpt lat="42.91836" lon="1.21668">
        <ele>939</ele>
        <time>2026-06-23T08:50:29.000Z</time>
      </trkpt>
      <trkpt lat="42.91837" lon="1.21661">
        <ele>939</ele>
        <time>2026-06-23T08:50:30.000Z</time>
      </trkpt>
      <trkpt lat="42.9184" lon="1.21656">
        <ele>938</ele>
        <time>2026-06-23T08:50:31.000Z</time>
      </trkpt>
      <trkpt lat="42.91841" lon="1.21651">
        <ele>938</ele>
        <time>2026-06-23T08:50:32.000Z</time>
      </trkpt>
      <trkpt lat="42.91842" lon="1.21644">
        <ele>938</ele>
        <time>2026-06-23T08:50:33.000Z</time>
      </trkpt>
      <trkpt lat="42.91844" lon="1.21638">
        <ele>938</ele>
        <time>2026-06-23T08:50:34.000Z</time>
      </trkpt>
      <trkpt lat="42.91845" lon="1.21631">
        <ele>938</ele>
        <time>2026-06-23T08:50:35.000Z</time>
      </trkpt>
      <trkpt lat="42.91846" lon="1.21625">
        <ele>937</ele>
        <time>2026-06-23T08:50:36.000Z</time>
      </trkpt>
      <trkpt lat="42.91848" lon="1.21619">
        <ele>936</ele>
        <time>2026-06-23T08:50:37.000Z</time>
      </trkpt>
      <trkpt lat="42.91849" lon="1.21612">
        <ele>936</ele>
        <time>2026-06-23T08:50:38.000Z</time>
      </trkpt>
      <trkpt lat="42.91851" lon="1.21603">
        <ele>936</ele>
        <time>2026-06-23T08:50:39.000Z</time>
      </trkpt>
      <trkpt lat="42.91852" lon="1.21593">
        <ele>936</ele>
        <time>2026-06-23T08:50:40.000Z</time>
      </trkpt>
      <trkpt lat="42.91855" lon="1.21583">
        <ele>935</ele>
        <time>2026-06-23T08:50:41.000Z</time>
      </trkpt>
      <trkpt lat="42.91857" lon="1.21573">
        <ele>935</ele>
        <time>2026-06-23T08:50:42.000Z</time>
      </trkpt>
      <trkpt lat="42.9186" lon="1.21562">
        <ele>935</ele>
        <time>2026-06-23T08:50:43.000Z</time>
      </trkpt>
      <trkpt lat="42.91862" lon="1.21553">
        <ele>934</ele>
        <time>2026-06-23T08:50:44.000Z</time>
      </trkpt>
      <trkpt lat="42.91865" lon="1.21544">
        <ele>932</ele>
        <time>2026-06-23T08:50:45.000Z</time>
      </trkpt>
      <trkpt lat="42.91868" lon="1.21535">
        <ele>931</ele>
        <time>2026-06-23T08:50:46.000Z</time>
      </trkpt>
      <trkpt lat="42.91871" lon="1.21525">
        <ele>931</ele>
        <time>2026-06-23T08:50:47.000Z</time>
      </trkpt>
      <trkpt lat="42.91874" lon="1.21516">
        <ele>930</ele>
        <time>2026-06-23T08:50:48.000Z</time>
      </trkpt>
      <trkpt lat="42.91877" lon="1.21507">
        <ele>929</ele>
        <time>2026-06-23T08:50:49.000Z</time>
      </trkpt>
      <trkpt lat="42.9188" lon="1.21497">
        <ele>927</ele>
        <time>2026-06-23T08:50:50.000Z</time>
      </trkpt>
      <trkpt lat="42.91883" lon="1.21486">
        <ele>926</ele>
        <time>2026-06-23T08:50:51.000Z</time>
      </trkpt>
      <trkpt lat="42.91884" lon="1.21477">
        <ele>925</ele>
        <time>2026-06-23T08:50:52.000Z</time>
      </trkpt>
      <trkpt lat="42.91885" lon="1.21467">
        <ele>925</ele>
        <time>2026-06-23T08:50:53.000Z</time>
      </trkpt>
      <trkpt lat="42.91886" lon="1.21461">
        <ele>924</ele>
        <time>2026-06-23T08:50:54.000Z</time>
      </trkpt>
      <trkpt lat="42.91887" lon="1.21457">
        <ele>923</ele>
        <time>2026-06-23T08:50:55.000Z</time>
      </trkpt>
      <trkpt lat="42.91887" lon="1.21453">
        <ele>922</ele>
        <time>2026-06-23T08:50:56.000Z</time>
      </trkpt>
      <trkpt lat="42.91886" lon="1.21448">
        <ele>921</ele>
        <time>2026-06-23T08:50:57.000Z</time>
      </trkpt>
      <trkpt lat="42.91885" lon="1.21446">
        <ele>920</ele>
        <time>2026-06-23T08:50:58.000Z</time>
      </trkpt>
      <trkpt lat="42.91882" lon="1.21444">
        <ele>918</ele>
        <time>2026-06-23T08:50:59.000Z</time>
      </trkpt>
      <trkpt lat="42.91878" lon="1.21446">
        <ele>917</ele>
        <time>2026-06-23T08:51:00.000Z</time>
      </trkpt>
      <trkpt lat="42.91871" lon="1.21451">
        <ele>914</ele>
        <time>2026-06-23T08:51:01.000Z</time>
      </trkpt>
      <trkpt lat="42.91863" lon="1.21458">
        <ele>913</ele>
        <time>2026-06-23T08:51:02.000Z</time>
      </trkpt>
      <trkpt lat="42.91855" lon="1.21466">
        <ele>911</ele>
        <time>2026-06-23T08:51:03.000Z</time>
      </trkpt>
      <trkpt lat="42.91848" lon="1.21473">
        <ele>910</ele>
        <time>2026-06-23T08:51:04.000Z</time>
      </trkpt>
      <trkpt lat="42.9184" lon="1.21481">
        <ele>909</ele>
        <time>2026-06-23T08:51:05.000Z</time>
      </trkpt>
      <trkpt lat="42.91834" lon="1.2149">
        <ele>908</ele>
        <time>2026-06-23T08:51:06.000Z</time>
      </trkpt>
      <trkpt lat="42.91829" lon="1.21499">
        <ele>907</ele>
        <time>2026-06-23T08:51:07.000Z</time>
      </trkpt>
      <trkpt lat="42.91824" lon="1.21508">
        <ele>905</ele>
        <time>2026-06-23T08:51:08.000Z</time>
      </trkpt>
      <trkpt lat="42.91819" lon="1.21515">
        <ele>905</ele>
        <time>2026-06-23T08:51:09.000Z</time>
      </trkpt>
      <trkpt lat="42.91813" lon="1.21523">
        <ele>903</ele>
        <time>2026-06-23T08:51:10.000Z</time>
      </trkpt>
      <trkpt lat="42.91808" lon="1.21529">
        <ele>902</ele>
        <time>2026-06-23T08:51:11.000Z</time>
      </trkpt>
      <trkpt lat="42.91802" lon="1.21537">
        <ele>902</ele>
        <time>2026-06-23T08:51:12.000Z</time>
      </trkpt>
      <trkpt lat="42.91796" lon="1.21543">
        <ele>901</ele>
        <time>2026-06-23T08:51:13.000Z</time>
      </trkpt>
      <trkpt lat="42.91791" lon="1.21548">
        <ele>901</ele>
        <time>2026-06-23T08:51:14.000Z</time>
      </trkpt>
      <trkpt lat="42.91785" lon="1.21555">
        <ele>900</ele>
        <time>2026-06-23T08:51:15.000Z</time>
      </trkpt>
      <trkpt lat="42.9178" lon="1.2156">
        <ele>900</ele>
        <time>2026-06-23T08:51:16.000Z</time>
      </trkpt>
      <trkpt lat="42.91775" lon="1.21565">
        <ele>899</ele>
        <time>2026-06-23T08:51:17.000Z</time>
      </trkpt>
      <trkpt lat="42.9177" lon="1.21571">
        <ele>898</ele>
        <time>2026-06-23T08:51:18.000Z</time>
      </trkpt>
      <trkpt lat="42.91766" lon="1.21576">
        <ele>898</ele>
        <time>2026-06-23T08:51:19.000Z</time>
      </trkpt>
      <trkpt lat="42.91761" lon="1.21581">
        <ele>897</ele>
        <time>2026-06-23T08:51:20.000Z</time>
      </trkpt>
      <trkpt lat="42.91757" lon="1.21585">
        <ele>896</ele>
        <time>2026-06-23T08:51:21.000Z</time>
      </trkpt>
      <trkpt lat="42.91752" lon="1.2159">
        <ele>895</ele>
        <time>2026-06-23T08:51:22.000Z</time>
      </trkpt>
      <trkpt lat="42.91747" lon="1.21594">
        <ele>895</ele>
        <time>2026-06-23T08:51:23.000Z</time>
      </trkpt>
      <trkpt lat="42.91742" lon="1.21599">
        <ele>894</ele>
        <time>2026-06-23T08:51:24.000Z</time>
      </trkpt>
      <trkpt lat="42.91737" lon="1.21604">
        <ele>893</ele>
        <time>2026-06-23T08:51:25.000Z</time>
      </trkpt>
      <trkpt lat="42.91733" lon="1.21608">
        <ele>893</ele>
        <time>2026-06-23T08:51:26.000Z</time>
      </trkpt>
      <trkpt lat="42.91728" lon="1.21613">
        <ele>892</ele>
        <time>2026-06-23T08:51:27.000Z</time>
      </trkpt>
      <trkpt lat="42.91724" lon="1.21617">
        <ele>891</ele>
        <time>2026-06-23T08:51:28.000Z</time>
      </trkpt>
      <trkpt lat="42.9172" lon="1.21622">
        <ele>891</ele>
        <time>2026-06-23T08:51:29.000Z</time>
      </trkpt>
      <trkpt lat="42.91716" lon="1.21626">
        <ele>891</ele>
        <time>2026-06-23T08:51:30.000Z</time>
      </trkpt>
      <trkpt lat="42.91711" lon="1.21631">
        <ele>891</ele>
        <time>2026-06-23T08:51:31.000Z</time>
      </trkpt>
      <trkpt lat="42.91707" lon="1.21636">
        <ele>891</ele>
        <time>2026-06-23T08:51:32.000Z</time>
      </trkpt>
      <trkpt lat="42.91702" lon="1.21642">
        <ele>890</ele>
        <time>2026-06-23T08:51:33.000Z</time>
      </trkpt>
      <trkpt lat="42.91697" lon="1.21647">
        <ele>890</ele>
        <time>2026-06-23T08:51:34.000Z</time>
      </trkpt>
      <trkpt lat="42.91692" lon="1.2165">
        <ele>890</ele>
        <time>2026-06-23T08:51:35.000Z</time>
      </trkpt>
      <trkpt lat="42.91686" lon="1.21654">
        <ele>889</ele>
        <time>2026-06-23T08:51:36.000Z</time>
      </trkpt>
      <trkpt lat="42.91679" lon="1.21658">
        <ele>889</ele>
        <time>2026-06-23T08:51:37.000Z</time>
      </trkpt>
      <trkpt lat="42.91674" lon="1.21663">
        <ele>888</ele>
        <time>2026-06-23T08:51:38.000Z</time>
      </trkpt>
      <trkpt lat="42.91667" lon="1.21666">
        <ele>887</ele>
        <time>2026-06-23T08:51:39.000Z</time>
      </trkpt>
      <trkpt lat="42.91661" lon="1.2167">
        <ele>887</ele>
        <time>2026-06-23T08:51:40.000Z</time>
      </trkpt>
      <trkpt lat="42.91654" lon="1.21674">
        <ele>887</ele>
        <time>2026-06-23T08:51:41.000Z</time>
      </trkpt>
      <trkpt lat="42.91648" lon="1.21678">
        <ele>886</ele>
        <time>2026-06-23T08:51:42.000Z</time>
      </trkpt>
      <trkpt lat="42.91642" lon="1.21681">
        <ele>886</ele>
        <time>2026-06-23T08:51:43.000Z</time>
      </trkpt>
      <trkpt lat="42.91636" lon="1.21684">
        <ele>885</ele>
        <time>2026-06-23T08:51:44.000Z</time>
      </trkpt>
      <trkpt lat="42.91631" lon="1.21688">
        <ele>885</ele>
        <time>2026-06-23T08:51:45.000Z</time>
      </trkpt>
      <trkpt lat="42.91625" lon="1.21692">
        <ele>885</ele>
        <time>2026-06-23T08:51:46.000Z</time>
      </trkpt>
      <trkpt lat="42.91619" lon="1.21696">
        <ele>885</ele>
        <time>2026-06-23T08:51:47.000Z</time>
      </trkpt>
      <trkpt lat="42.91614" lon="1.217">
        <ele>884</ele>
        <time>2026-06-23T08:51:48.000Z</time>
      </trkpt>
      <trkpt lat="42.91608" lon="1.21703">
        <ele>884</ele>
        <time>2026-06-23T08:51:49.000Z</time>
      </trkpt>
      <trkpt lat="42.91601" lon="1.21706">
        <ele>883</ele>
        <time>2026-06-23T08:51:50.000Z</time>
      </trkpt>
      <trkpt lat="42.91595" lon="1.2171">
        <ele>882</ele>
        <time>2026-06-23T08:51:51.000Z</time>
      </trkpt>
      <trkpt lat="42.91589" lon="1.21716">
        <ele>881</ele>
        <time>2026-06-23T08:51:52.000Z</time>
      </trkpt>
      <trkpt lat="42.91585" lon="1.21721">
        <ele>880</ele>
        <time>2026-06-23T08:51:53.000Z</time>
      </trkpt>
      <trkpt lat="42.91579" lon="1.21727">
        <ele>879</ele>
        <time>2026-06-23T08:51:54.000Z</time>
      </trkpt>
      <trkpt lat="42.91574" lon="1.21733">
        <ele>879</ele>
        <time>2026-06-23T08:51:55.000Z</time>
      </trkpt>
      <trkpt lat="42.91569" lon="1.21738">
        <ele>879</ele>
        <time>2026-06-23T08:51:56.000Z</time>
      </trkpt>
      <trkpt lat="42.91564" lon="1.21744">
        <ele>877</ele>
        <time>2026-06-23T08:51:57.000Z</time>
      </trkpt>
      <trkpt lat="42.9156" lon="1.2175">
        <ele>875</ele>
        <time>2026-06-23T08:51:58.000Z</time>
      </trkpt>
      <trkpt lat="42.91556" lon="1.21755">
        <ele>874</ele>
        <time>2026-06-23T08:51:59.000Z</time>
      </trkpt>
      <trkpt lat="42.91552" lon="1.2176">
        <ele>872</ele>
        <time>2026-06-23T08:52:00.000Z</time>
      </trkpt>
      <trkpt lat="42.91549" lon="1.21765">
        <ele>871</ele>
        <time>2026-06-23T08:52:01.000Z</time>
      </trkpt>
      <trkpt lat="42.91544" lon="1.21769">
        <ele>870</ele>
        <time>2026-06-23T08:52:02.000Z</time>
      </trkpt>
      <trkpt lat="42.9154" lon="1.21772">
        <ele>869</ele>
        <time>2026-06-23T08:52:03.000Z</time>
      </trkpt>
      <trkpt lat="42.91538" lon="1.21778">
        <ele>868</ele>
        <time>2026-06-23T08:52:04.000Z</time>
      </trkpt>
      <trkpt lat="42.91535" lon="1.21784">
        <ele>866</ele>
        <time>2026-06-23T08:52:05.000Z</time>
      </trkpt>
      <trkpt lat="42.91532" lon="1.2179">
        <ele>865</ele>
        <time>2026-06-23T08:52:06.000Z</time>
      </trkpt>
      <trkpt lat="42.91529" lon="1.21798">
        <ele>864</ele>
        <time>2026-06-23T08:52:07.000Z</time>
      </trkpt>
      <trkpt lat="42.91526" lon="1.21805">
        <ele>863</ele>
        <time>2026-06-23T08:52:08.000Z</time>
      </trkpt>
      <trkpt lat="42.91523" lon="1.21814">
        <ele>862</ele>
        <time>2026-06-23T08:52:09.000Z</time>
      </trkpt>
      <trkpt lat="42.91519" lon="1.21825">
        <ele>862</ele>
        <time>2026-06-23T08:52:10.000Z</time>
      </trkpt>
      <trkpt lat="42.91513" lon="1.21834">
        <ele>861</ele>
        <time>2026-06-23T08:52:11.000Z</time>
      </trkpt>
      <trkpt lat="42.91506" lon="1.21844">
        <ele>861</ele>
        <time>2026-06-23T08:52:12.000Z</time>
      </trkpt>
      <trkpt lat="42.91498" lon="1.21854">
        <ele>860</ele>
        <time>2026-06-23T08:52:13.000Z</time>
      </trkpt>
      <trkpt lat="42.91491" lon="1.21865">
        <ele>859</ele>
        <time>2026-06-23T08:52:14.000Z</time>
      </trkpt>
      <trkpt lat="42.91483" lon="1.21879">
        <ele>857</ele>
        <time>2026-06-23T08:52:15.000Z</time>
      </trkpt>
      <trkpt lat="42.91474" lon="1.21891">
        <ele>854</ele>
        <time>2026-06-23T08:52:16.000Z</time>
      </trkpt>
      <trkpt lat="42.91468" lon="1.21903">
        <ele>852</ele>
        <time>2026-06-23T08:52:17.000Z</time>
      </trkpt>
      <trkpt lat="42.91461" lon="1.21915">
        <ele>851</ele>
        <time>2026-06-23T08:52:18.000Z</time>
      </trkpt>
      <trkpt lat="42.91457" lon="1.21928">
        <ele>849</ele>
        <time>2026-06-23T08:52:19.000Z</time>
      </trkpt>
      <trkpt lat="42.91453" lon="1.2194">
        <ele>848</ele>
        <time>2026-06-23T08:52:20.000Z</time>
      </trkpt>
      <trkpt lat="42.91449" lon="1.2195">
        <ele>848</ele>
        <time>2026-06-23T08:52:21.000Z</time>
      </trkpt>
      <trkpt lat="42.91447" lon="1.2196">
        <ele>847</ele>
        <time>2026-06-23T08:52:22.000Z</time>
      </trkpt>
      <trkpt lat="42.91445" lon="1.21968">
        <ele>846</ele>
        <time>2026-06-23T08:52:23.000Z</time>
      </trkpt>
      <trkpt lat="42.91442" lon="1.21975">
        <ele>846</ele>
        <time>2026-06-23T08:52:24.000Z</time>
      </trkpt>
      <trkpt lat="42.9144" lon="1.2198">
        <ele>845</ele>
        <time>2026-06-23T08:52:25.000Z</time>
      </trkpt>
      <trkpt lat="42.91437" lon="1.21986">
        <ele>844</ele>
        <time>2026-06-23T08:52:26.000Z</time>
      </trkpt>
      <trkpt lat="42.91434" lon="1.21992">
        <ele>843</ele>
        <time>2026-06-23T08:52:27.000Z</time>
      </trkpt>
      <trkpt lat="42.91431" lon="1.21999">
        <ele>841</ele>
        <time>2026-06-23T08:52:28.000Z</time>
      </trkpt>
      <trkpt lat="42.91429" lon="1.22004">
        <ele>840</ele>
        <time>2026-06-23T08:52:29.000Z</time>
      </trkpt>
      <trkpt lat="42.91427" lon="1.2201">
        <ele>839</ele>
        <time>2026-06-23T08:52:30.000Z</time>
      </trkpt>
      <trkpt lat="42.91425" lon="1.22017">
        <ele>839</ele>
        <time>2026-06-23T08:52:31.000Z</time>
      </trkpt>
      <trkpt lat="42.91423" lon="1.22024">
        <ele>839</ele>
        <time>2026-06-23T08:52:32.000Z</time>
      </trkpt>
      <trkpt lat="42.91422" lon="1.2203">
        <ele>838</ele>
        <time>2026-06-23T08:52:33.000Z</time>
      </trkpt>
      <trkpt lat="42.91421" lon="1.22037">
        <ele>837</ele>
        <time>2026-06-23T08:52:34.000Z</time>
      </trkpt>
      <trkpt lat="42.91419" lon="1.22043">
        <ele>837</ele>
        <time>2026-06-23T08:52:35.000Z</time>
      </trkpt>
      <trkpt lat="42.91419" lon="1.2205">
        <ele>836</ele>
        <time>2026-06-23T08:52:36.000Z</time>
      </trkpt>
      <trkpt lat="42.91418" lon="1.22057">
        <ele>836</ele>
        <time>2026-06-23T08:52:37.000Z</time>
      </trkpt>
      <trkpt lat="42.91417" lon="1.22063">
        <ele>836</ele>
        <time>2026-06-23T08:52:38.000Z</time>
      </trkpt>
      <trkpt lat="42.91415" lon="1.2207">
        <ele>835</ele>
        <time>2026-06-23T08:52:39.000Z</time>
      </trkpt>
      <trkpt lat="42.91415" lon="1.22076">
        <ele>836</ele>
        <time>2026-06-23T08:52:40.000Z</time>
      </trkpt>
      <trkpt lat="42.91414" lon="1.22081">
        <ele>836</ele>
        <time>2026-06-23T08:52:41.000Z</time>
      </trkpt>
      <trkpt lat="42.91412" lon="1.22086">
        <ele>836</ele>
        <time>2026-06-23T08:52:42.000Z</time>
      </trkpt>
      <trkpt lat="42.91411" lon="1.2209">
        <ele>836</ele>
        <time>2026-06-23T08:52:43.000Z</time>
      </trkpt>
      <trkpt lat="42.91407" lon="1.22092">
        <ele>835</ele>
        <time>2026-06-23T08:52:44.000Z</time>
      </trkpt>
      <trkpt lat="42.91405" lon="1.22096">
        <ele>835</ele>
        <time>2026-06-23T08:52:45.000Z</time>
      </trkpt>
      <trkpt lat="42.91403" lon="1.221">
        <ele>835</ele>
        <time>2026-06-23T08:52:46.000Z</time>
      </trkpt>
      <trkpt lat="42.91402" lon="1.22105">
        <ele>835</ele>
        <time>2026-06-23T08:52:47.000Z</time>
      </trkpt>
      <trkpt lat="42.91403" lon="1.22109">
        <ele>835</ele>
        <time>2026-06-23T08:52:48.000Z</time>
      </trkpt>
      <trkpt lat="42.91404" lon="1.22112">
        <ele>835</ele>
        <time>2026-06-23T08:52:49.000Z</time>
      </trkpt>
      <trkpt lat="42.91406" lon="1.22116">
        <ele>834</ele>
        <time>2026-06-23T08:52:50.000Z</time>
      </trkpt>
      <trkpt lat="42.91408" lon="1.22119">
        <ele>833</ele>
        <time>2026-06-23T08:52:51.000Z</time>
      </trkpt>
      <trkpt lat="42.9141" lon="1.22123">
        <ele>833</ele>
        <time>2026-06-23T08:52:52.000Z</time>
      </trkpt>
      <trkpt lat="42.91412" lon="1.22126">
        <ele>832</ele>
        <time>2026-06-23T08:52:53.000Z</time>
      </trkpt>
      <trkpt lat="42.91415" lon="1.22129">
        <ele>832</ele>
        <time>2026-06-23T08:52:54.000Z</time>
      </trkpt>
      <trkpt lat="42.91417" lon="1.22131">
        <ele>831</ele>
        <time>2026-06-23T08:52:55.000Z</time>
      </trkpt>
      <trkpt lat="42.9142" lon="1.22134">
        <ele>831</ele>
        <time>2026-06-23T08:52:56.000Z</time>
      </trkpt>
      <trkpt lat="42.91423" lon="1.22135">
        <ele>831</ele>
        <time>2026-06-23T08:52:57.000Z</time>
      </trkpt>
      <trkpt lat="42.91426" lon="1.22135">
        <ele>831</ele>
        <time>2026-06-23T08:52:58.000Z</time>
      </trkpt>
      <trkpt lat="42.91429" lon="1.22135">
        <ele>831</ele>
        <time>2026-06-23T08:52:59.000Z</time>
      </trkpt>
      <trkpt lat="42.91432" lon="1.22135">
        <ele>830</ele>
        <time>2026-06-23T08:53:00.000Z</time>
      </trkpt>
      <trkpt lat="42.91434" lon="1.22134">
        <ele>830</ele>
        <time>2026-06-23T08:53:01.000Z</time>
      </trkpt>
      <trkpt lat="42.91436" lon="1.22132">
        <ele>829</ele>
        <time>2026-06-23T08:53:02.000Z</time>
      </trkpt>
      <trkpt lat="42.91437" lon="1.22131">
        <ele>828</ele>
        <time>2026-06-23T08:53:03.000Z</time>
      </trkpt>
      <trkpt lat="42.91438" lon="1.22131">
        <ele>828</ele>
        <time>2026-06-23T08:53:04.000Z</time>
      </trkpt>
      <trkpt lat="42.91438" lon="1.22131">
        <ele>827</ele>
        <time>2026-06-23T08:53:05.000Z</time>
      </trkpt>
      <trkpt lat="42.91439" lon="1.22133">
        <ele>827</ele>
        <time>2026-06-23T08:53:06.000Z</time>
      </trkpt>
      <trkpt lat="42.91438" lon="1.22133">
        <ele>826</ele>
        <time>2026-06-23T08:53:07.000Z</time>
      </trkpt>
      <trkpt lat="42.91438" lon="1.22132">
        <ele>826</ele>
        <time>2026-06-23T08:53:08.000Z</time>
      </trkpt>
      <trkpt lat="42.91439" lon="1.22132">
        <ele>825</ele>
        <time>2026-06-23T08:53:09.000Z</time>
      </trkpt>
      <trkpt lat="42.9144" lon="1.22133">
        <ele>826</ele>
        <time>2026-06-23T08:53:10.000Z</time>
      </trkpt>
      <trkpt lat="42.9144" lon="1.22133">
        <ele>826</ele>
        <time>2026-06-23T08:53:11.000Z</time>
      </trkpt>
      <trkpt lat="42.9144" lon="1.22133">
        <ele>826</ele>
        <time>2026-06-23T08:53:12.000Z</time>
      </trkpt>
      <trkpt lat="42.9144" lon="1.22134">
        <ele>826</ele>
        <time>2026-06-23T08:53:13.000Z</time>
      </trkpt>
      <trkpt lat="42.91439" lon="1.22134">
        <ele>825</ele>
        <time>2026-06-23T08:53:14.000Z</time>
      </trkpt>
      <trkpt lat="42.91439" lon="1.22135">
        <ele>825</ele>
        <time>2026-06-23T08:53:15.000Z</time>
      </trkpt>
      <trkpt lat="42.91439" lon="1.22135">
        <ele>825</ele>
        <time>2026-06-23T08:53:16.000Z</time>
      </trkpt>
      <trkpt lat="42.91439" lon="1.22136">
        <ele>825</ele>
        <time>2026-06-23T08:53:17.000Z</time>
      </trkpt>
      <trkpt lat="42.91439" lon="1.22136">
        <ele>825</ele>
        <time>2026-06-23T08:53:18.000Z</time>
      </trkpt>
      <trkpt lat="42.91439" lon="1.22136">
        <ele>825</ele>
        <time>2026-06-23T08:53:19.000Z</time>
      </trkpt>
      <trkpt lat="42.91439" lon="1.22137">
        <ele>825</ele>
        <time>2026-06-23T08:53:20.000Z</time>
      </trkpt>
      <trkpt lat="42.91439" lon="1.22137">
        <ele>825</ele>
        <time>2026-06-23T08:53:21.000Z</time>
      </trkpt>
      <trkpt lat="42.91438" lon="1.22136">
        <ele>824</ele>
        <time>2026-06-23T08:53:22.000Z</time>
      </trkpt>
      <trkpt lat="42.91439" lon="1.22136">
        <ele>824</ele>
        <time>2026-06-23T08:53:23.000Z</time>
      </trkpt>
      <trkpt lat="42.91439" lon="1.22136">
        <ele>824</ele>
        <time>2026-06-23T08:53:24.000Z</time>
      </trkpt>
      <trkpt lat="42.91438" lon="1.22136">
        <ele>823</ele>
        <time>2026-06-23T08:53:25.000Z</time>
      </trkpt>
      <trkpt lat="42.91438" lon="1.22136">
        <ele>823</ele>
        <time>2026-06-23T08:53:26.000Z</time>
      </trkpt>
      <trkpt lat="42.91437" lon="1.22136">
        <ele>822</ele>
        <time>2026-06-23T08:53:27.000Z</time>
      </trkpt>
      <trkpt lat="42.91436" lon="1.22135">
        <ele>822</ele>
        <time>2026-06-23T08:53:28.000Z</time>
      </trkpt>
      <trkpt lat="42.91434" lon="1.22136">
        <ele>821</ele>
        <time>2026-06-23T08:53:29.000Z</time>
      </trkpt>
      <trkpt lat="42.91431" lon="1.22136">
        <ele>821</ele>
        <time>2026-06-23T08:53:30.000Z</time>
      </trkpt>
      <trkpt lat="42.91428" lon="1.22135">
        <ele>820</ele>
        <time>2026-06-23T08:53:31.000Z</time>
      </trkpt>
      <trkpt lat="42.91426" lon="1.22133">
        <ele>820</ele>
        <time>2026-06-23T08:53:32.000Z</time>
      </trkpt>
      <trkpt lat="42.91423" lon="1.22132">
        <ele>820</ele>
        <time>2026-06-23T08:53:33.000Z</time>
      </trkpt>
      <trkpt lat="42.91421" lon="1.22127">
        <ele>819</ele>
        <time>2026-06-23T08:53:34.000Z</time>
      </trkpt>
      <trkpt lat="42.9142" lon="1.22121">
        <ele>820</ele>
        <time>2026-06-23T08:53:35.000Z</time>
      </trkpt>
      <trkpt lat="42.91419" lon="1.22116">
        <ele>820</ele>
        <time>2026-06-23T08:53:36.000Z</time>
      </trkpt>
      <trkpt lat="42.91418" lon="1.22111">
        <ele>820</ele>
        <time>2026-06-23T08:53:37.000Z</time>
      </trkpt>
      <trkpt lat="42.91416" lon="1.22108">
        <ele>820</ele>
        <time>2026-06-23T08:53:38.000Z</time>
      </trkpt>
      <trkpt lat="42.91413" lon="1.22107">
        <ele>820</ele>
        <time>2026-06-23T08:53:39.000Z</time>
      </trkpt>
      <trkpt lat="42.91408" lon="1.22109">
        <ele>820</ele>
        <time>2026-06-23T08:53:40.000Z</time>
      </trkpt>
      <trkpt lat="42.91402" lon="1.22113">
        <ele>818</ele>
        <time>2026-06-23T08:53:41.000Z</time>
      </trkpt>
      <trkpt lat="42.91394" lon="1.22117">
        <ele>816</ele>
        <time>2026-06-23T08:53:42.000Z</time>
      </trkpt>
      <trkpt lat="42.91386" lon="1.22121">
        <ele>814</ele>
        <time>2026-06-23T08:53:43.000Z</time>
      </trkpt>
      <trkpt lat="42.91377" lon="1.22124">
        <ele>814</ele>
        <time>2026-06-23T08:53:44.000Z</time>
      </trkpt>
      <trkpt lat="42.91367" lon="1.22124">
        <ele>812</ele>
        <time>2026-06-23T08:53:45.000Z</time>
      </trkpt>
      <trkpt lat="42.91357" lon="1.22122">
        <ele>810</ele>
        <time>2026-06-23T08:53:46.000Z</time>
      </trkpt>
      <trkpt lat="42.91346" lon="1.22119">
        <ele>808</ele>
        <time>2026-06-23T08:53:47.000Z</time>
      </trkpt>
      <trkpt lat="42.91335" lon="1.22116">
        <ele>807</ele>
        <time>2026-06-23T08:53:48.000Z</time>
      </trkpt>
      <trkpt lat="42.91323" lon="1.22114">
        <ele>806</ele>
        <time>2026-06-23T08:53:49.000Z</time>
      </trkpt>
      <trkpt lat="42.91313" lon="1.22113">
        <ele>805</ele>
        <time>2026-06-23T08:53:50.000Z</time>
      </trkpt>
      <trkpt lat="42.91302" lon="1.22112">
        <ele>805</ele>
        <time>2026-06-23T08:53:51.000Z</time>
      </trkpt>
      <trkpt lat="42.91292" lon="1.22112">
        <ele>804</ele>
        <time>2026-06-23T08:53:52.000Z</time>
      </trkpt>
      <trkpt lat="42.91284" lon="1.22111">
        <ele>804</ele>
        <time>2026-06-23T08:53:53.000Z</time>
      </trkpt>
      <trkpt lat="42.91279" lon="1.22112">
        <ele>803</ele>
        <time>2026-06-23T08:53:54.000Z</time>
      </trkpt>
      <trkpt lat="42.91275" lon="1.22113">
        <ele>802</ele>
        <time>2026-06-23T08:53:55.000Z</time>
      </trkpt>
      <trkpt lat="42.91272" lon="1.22118">
        <ele>801</ele>
        <time>2026-06-23T08:53:56.000Z</time>
      </trkpt>
      <trkpt lat="42.91273" lon="1.22123">
        <ele>801</ele>
        <time>2026-06-23T08:53:57.000Z</time>
      </trkpt>
      <trkpt lat="42.91277" lon="1.22129">
        <ele>801</ele>
        <time>2026-06-23T08:53:58.000Z</time>
      </trkpt>
      <trkpt lat="42.91284" lon="1.22137">
        <ele>800</ele>
        <time>2026-06-23T08:53:59.000Z</time>
      </trkpt>
      <trkpt lat="42.91291" lon="1.22142">
        <ele>799</ele>
        <time>2026-06-23T08:54:00.000Z</time>
      </trkpt>
      <trkpt lat="42.91298" lon="1.22147">
        <ele>798</ele>
        <time>2026-06-23T08:54:01.000Z</time>
      </trkpt>
      <trkpt lat="42.91307" lon="1.22151">
        <ele>797</ele>
        <time>2026-06-23T08:54:02.000Z</time>
      </trkpt>
      <trkpt lat="42.91317" lon="1.22153">
        <ele>797</ele>
        <time>2026-06-23T08:54:03.000Z</time>
      </trkpt>
      <trkpt lat="42.91326" lon="1.22156">
        <ele>797</ele>
        <time>2026-06-23T08:54:04.000Z</time>
      </trkpt>
      <trkpt lat="42.91334" lon="1.22159">
        <ele>796</ele>
        <time>2026-06-23T08:54:05.000Z</time>
      </trkpt>
      <trkpt lat="42.91343" lon="1.22164">
        <ele>796</ele>
        <time>2026-06-23T08:54:06.000Z</time>
      </trkpt>
      <trkpt lat="42.91351" lon="1.2217">
        <ele>795</ele>
        <time>2026-06-23T08:54:07.000Z</time>
      </trkpt>
      <trkpt lat="42.91358" lon="1.22177">
        <ele>795</ele>
        <time>2026-06-23T08:54:08.000Z</time>
      </trkpt>
      <trkpt lat="42.91365" lon="1.22186">
        <ele>795</ele>
        <time>2026-06-23T08:54:09.000Z</time>
      </trkpt>
      <trkpt lat="42.9137" lon="1.22197">
        <ele>795</ele>
        <time>2026-06-23T08:54:10.000Z</time>
      </trkpt>
      <trkpt lat="42.91374" lon="1.22213">
        <ele>795</ele>
        <time>2026-06-23T08:54:11.000Z</time>
      </trkpt>
      <trkpt lat="42.91378" lon="1.22229">
        <ele>795</ele>
        <time>2026-06-23T08:54:12.000Z</time>
      </trkpt>
      <trkpt lat="42.91379" lon="1.22242">
        <ele>795</ele>
        <time>2026-06-23T08:54:13.000Z</time>
      </trkpt>
      <trkpt lat="42.91379" lon="1.22254">
        <ele>795</ele>
        <time>2026-06-23T08:54:14.000Z</time>
      </trkpt>
      <trkpt lat="42.91381" lon="1.22263">
        <ele>796</ele>
        <time>2026-06-23T08:54:15.000Z</time>
      </trkpt>
      <trkpt lat="42.91384" lon="1.22272">
        <ele>796</ele>
        <time>2026-06-23T08:54:16.000Z</time>
      </trkpt>
      <trkpt lat="42.91388" lon="1.22277">
        <ele>796</ele>
        <time>2026-06-23T08:54:17.000Z</time>
      </trkpt>
      <trkpt lat="42.91391" lon="1.22282">
        <ele>796</ele>
        <time>2026-06-23T08:54:18.000Z</time>
      </trkpt>
      <trkpt lat="42.91392" lon="1.22286">
        <ele>796</ele>
        <time>2026-06-23T08:54:19.000Z</time>
      </trkpt>
      <trkpt lat="42.9139" lon="1.22289">
        <ele>795</ele>
        <time>2026-06-23T08:54:20.000Z</time>
      </trkpt>
      <trkpt lat="42.91387" lon="1.22291">
        <ele>795</ele>
        <time>2026-06-23T08:54:21.000Z</time>
      </trkpt>
      <trkpt lat="42.9138" lon="1.22291">
        <ele>794</ele>
        <time>2026-06-23T08:54:22.000Z</time>
      </trkpt>
      <trkpt lat="42.91374" lon="1.22287">
        <ele>793</ele>
        <time>2026-06-23T08:54:23.000Z</time>
      </trkpt>
      <trkpt lat="42.91369" lon="1.22282">
        <ele>792</ele>
        <time>2026-06-23T08:54:24.000Z</time>
      </trkpt>
      <trkpt lat="42.91365" lon="1.22277">
        <ele>790</ele>
        <time>2026-06-23T08:54:25.000Z</time>
      </trkpt>
      <trkpt lat="42.91362" lon="1.22271">
        <ele>788</ele>
        <time>2026-06-23T08:54:26.000Z</time>
      </trkpt>
      <trkpt lat="42.91358" lon="1.22264">
        <ele>787</ele>
        <time>2026-06-23T08:54:27.000Z</time>
      </trkpt>
      <trkpt lat="42.91354" lon="1.22257">
        <ele>785</ele>
        <time>2026-06-23T08:54:28.000Z</time>
      </trkpt>
      <trkpt lat="42.91349" lon="1.2225">
        <ele>783</ele>
        <time>2026-06-23T08:54:29.000Z</time>
      </trkpt>
      <trkpt lat="42.91343" lon="1.22244">
        <ele>782</ele>
        <time>2026-06-23T08:54:30.000Z</time>
      </trkpt>
      <trkpt lat="42.91337" lon="1.22238">
        <ele>781</ele>
        <time>2026-06-23T08:54:31.000Z</time>
      </trkpt>
      <trkpt lat="42.9133" lon="1.22233">
        <ele>780</ele>
        <time>2026-06-23T08:54:32.000Z</time>
      </trkpt>
      <trkpt lat="42.91323" lon="1.22229">
        <ele>780</ele>
        <time>2026-06-23T08:54:33.000Z</time>
      </trkpt>
      <trkpt lat="42.91315" lon="1.22227">
        <ele>781</ele>
        <time>2026-06-23T08:54:34.000Z</time>
      </trkpt>
      <trkpt lat="42.91307" lon="1.22228">
        <ele>781</ele>
        <time>2026-06-23T08:54:35.000Z</time>
      </trkpt>
      <trkpt lat="42.91299" lon="1.22231">
        <ele>780</ele>
        <time>2026-06-23T08:54:36.000Z</time>
      </trkpt>
      <trkpt lat="42.9129" lon="1.22234">
        <ele>780</ele>
        <time>2026-06-23T08:54:37.000Z</time>
      </trkpt>
      <trkpt lat="42.91281" lon="1.22237">
        <ele>780</ele>
        <time>2026-06-23T08:54:38.000Z</time>
      </trkpt>
      <trkpt lat="42.91272" lon="1.2224">
        <ele>779</ele>
        <time>2026-06-23T08:54:39.000Z</time>
      </trkpt>
      <trkpt lat="42.91264" lon="1.22243">
        <ele>779</ele>
        <time>2026-06-23T08:54:40.000Z</time>
      </trkpt>
      <trkpt lat="42.91257" lon="1.22246">
        <ele>778</ele>
        <time>2026-06-23T08:54:41.000Z</time>
      </trkpt>
      <trkpt lat="42.91251" lon="1.2225">
        <ele>778</ele>
        <time>2026-06-23T08:54:42.000Z</time>
      </trkpt>
      <trkpt lat="42.91245" lon="1.22253">
        <ele>777</ele>
        <time>2026-06-23T08:54:43.000Z</time>
      </trkpt>
      <trkpt lat="42.91239" lon="1.22257">
        <ele>776</ele>
        <time>2026-06-23T08:54:44.000Z</time>
      </trkpt>
      <trkpt lat="42.91235" lon="1.22262">
        <ele>775</ele>
        <time>2026-06-23T08:54:45.000Z</time>
      </trkpt>
      <trkpt lat="42.9123" lon="1.22267">
        <ele>774</ele>
        <time>2026-06-23T08:54:46.000Z</time>
      </trkpt>
      <trkpt lat="42.91225" lon="1.22273">
        <ele>774</ele>
        <time>2026-06-23T08:54:47.000Z</time>
      </trkpt>
      <trkpt lat="42.9122" lon="1.2228">
        <ele>773</ele>
        <time>2026-06-23T08:54:48.000Z</time>
      </trkpt>
      <trkpt lat="42.91215" lon="1.22288">
        <ele>773</ele>
        <time>2026-06-23T08:54:49.000Z</time>
      </trkpt>
      <trkpt lat="42.91208" lon="1.22297">
        <ele>772</ele>
        <time>2026-06-23T08:54:50.000Z</time>
      </trkpt>
      <trkpt lat="42.91201" lon="1.22307">
        <ele>771</ele>
        <time>2026-06-23T08:54:51.000Z</time>
      </trkpt>
      <trkpt lat="42.91194" lon="1.22318">
        <ele>770</ele>
        <time>2026-06-23T08:54:52.000Z</time>
      </trkpt>
      <trkpt lat="42.91187" lon="1.22327">
        <ele>769</ele>
        <time>2026-06-23T08:54:53.000Z</time>
      </trkpt>
      <trkpt lat="42.91181" lon="1.22335">
        <ele>769</ele>
        <time>2026-06-23T08:54:54.000Z</time>
      </trkpt>
      <trkpt lat="42.91173" lon="1.22344">
        <ele>769</ele>
        <time>2026-06-23T08:54:55.000Z</time>
      </trkpt>
      <trkpt lat="42.91166" lon="1.2235">
        <ele>768</ele>
        <time>2026-06-23T08:54:56.000Z</time>
      </trkpt>
      <trkpt lat="42.91161" lon="1.22354">
        <ele>767</ele>
        <time>2026-06-23T08:54:57.000Z</time>
      </trkpt>
      <trkpt lat="42.91155" lon="1.22359">
        <ele>764</ele>
        <time>2026-06-23T08:54:58.000Z</time>
      </trkpt>
      <trkpt lat="42.9115" lon="1.22367">
        <ele>761</ele>
        <time>2026-06-23T08:54:59.000Z</time>
      </trkpt>
      <trkpt lat="42.91146" lon="1.22376">
        <ele>759</ele>
        <time>2026-06-23T08:55:00.000Z</time>
      </trkpt>
      <trkpt lat="42.91143" lon="1.22385">
        <ele>758</ele>
        <time>2026-06-23T08:55:01.000Z</time>
      </trkpt>
      <trkpt lat="42.91142" lon="1.22395">
        <ele>757</ele>
        <time>2026-06-23T08:55:02.000Z</time>
      </trkpt>
      <trkpt lat="42.91141" lon="1.22404">
        <ele>756</ele>
        <time>2026-06-23T08:55:03.000Z</time>
      </trkpt>
      <trkpt lat="42.9114" lon="1.22414">
        <ele>755</ele>
        <time>2026-06-23T08:55:04.000Z</time>
      </trkpt>
      <trkpt lat="42.91138" lon="1.22423">
        <ele>754</ele>
        <time>2026-06-23T08:55:05.000Z</time>
      </trkpt>
      <trkpt lat="42.91137" lon="1.22431">
        <ele>753</ele>
        <time>2026-06-23T08:55:06.000Z</time>
      </trkpt>
      <trkpt lat="42.91135" lon="1.22439">
        <ele>751</ele>
        <time>2026-06-23T08:55:07.000Z</time>
      </trkpt>
      <trkpt lat="42.91133" lon="1.22446">
        <ele>749</ele>
        <time>2026-06-23T08:55:08.000Z</time>
      </trkpt>
      <trkpt lat="42.91129" lon="1.22451">
        <ele>748</ele>
        <time>2026-06-23T08:55:09.000Z</time>
      </trkpt>
      <trkpt lat="42.91126" lon="1.22455">
        <ele>748</ele>
        <time>2026-06-23T08:55:10.000Z</time>
      </trkpt>
      <trkpt lat="42.91123" lon="1.22459">
        <ele>746</ele>
        <time>2026-06-23T08:55:11.000Z</time>
      </trkpt>
      <trkpt lat="42.91121" lon="1.22461">
        <ele>745</ele>
        <time>2026-06-23T08:55:12.000Z</time>
      </trkpt>
      <trkpt lat="42.91119" lon="1.22462">
        <ele>743</ele>
        <time>2026-06-23T08:55:13.000Z</time>
      </trkpt>
      <trkpt lat="42.91116" lon="1.22463">
        <ele>742</ele>
        <time>2026-06-23T08:55:14.000Z</time>
      </trkpt>
      <trkpt lat="42.91113" lon="1.22463">
        <ele>740</ele>
        <time>2026-06-23T08:55:15.000Z</time>
      </trkpt>
      <trkpt lat="42.91109" lon="1.22466">
        <ele>739</ele>
        <time>2026-06-23T08:55:16.000Z</time>
      </trkpt>
      <trkpt lat="42.91107" lon="1.22469">
        <ele>736</ele>
        <time>2026-06-23T08:55:17.000Z</time>
      </trkpt>
      <trkpt lat="42.91107" lon="1.22473">
        <ele>736</ele>
        <time>2026-06-23T08:55:18.000Z</time>
      </trkpt>
      <trkpt lat="42.91109" lon="1.2248">
        <ele>735</ele>
        <time>2026-06-23T08:55:19.000Z</time>
      </trkpt>
      <trkpt lat="42.91114" lon="1.22484">
        <ele>732</ele>
        <time>2026-06-23T08:55:20.000Z</time>
      </trkpt>
      <trkpt lat="42.91122" lon="1.22486">
        <ele>732</ele>
        <time>2026-06-23T08:55:21.000Z</time>
      </trkpt>
      <trkpt lat="42.9113" lon="1.22489">
        <ele>730</ele>
        <time>2026-06-23T08:55:22.000Z</time>
      </trkpt>
      <trkpt lat="42.91138" lon="1.22488">
        <ele>730</ele>
        <time>2026-06-23T08:55:23.000Z</time>
      </trkpt>
      <trkpt lat="42.91145" lon="1.22489">
        <ele>728</ele>
        <time>2026-06-23T08:55:24.000Z</time>
      </trkpt>
      <trkpt lat="42.91152" lon="1.2249">
        <ele>727</ele>
        <time>2026-06-23T08:55:25.000Z</time>
      </trkpt>
      <trkpt lat="42.91159" lon="1.22491">
        <ele>725</ele>
        <time>2026-06-23T08:55:26.000Z</time>
      </trkpt>
      <trkpt lat="42.91166" lon="1.22491">
        <ele>724</ele>
        <time>2026-06-23T08:55:27.000Z</time>
      </trkpt>
      <trkpt lat="42.91174" lon="1.2249">
        <ele>723</ele>
        <time>2026-06-23T08:55:28.000Z</time>
      </trkpt>
      <trkpt lat="42.91181" lon="1.22489">
        <ele>721</ele>
        <time>2026-06-23T08:55:29.000Z</time>
      </trkpt>
      <trkpt lat="42.91188" lon="1.22486">
        <ele>721</ele>
        <time>2026-06-23T08:55:30.000Z</time>
      </trkpt>
      <trkpt lat="42.91197" lon="1.22484">
        <ele>720</ele>
        <time>2026-06-23T08:55:31.000Z</time>
      </trkpt>
      <trkpt lat="42.91205" lon="1.22482">
        <ele>719</ele>
        <time>2026-06-23T08:55:32.000Z</time>
      </trkpt>
      <trkpt lat="42.91213" lon="1.22479">
        <ele>719</ele>
        <time>2026-06-23T08:55:33.000Z</time>
      </trkpt>
      <trkpt lat="42.91222" lon="1.22477">
        <ele>719</ele>
        <time>2026-06-23T08:55:34.000Z</time>
      </trkpt>
      <trkpt lat="42.91229" lon="1.22475">
        <ele>718</ele>
        <time>2026-06-23T08:55:35.000Z</time>
      </trkpt>
      <trkpt lat="42.91237" lon="1.22473">
        <ele>717</ele>
        <time>2026-06-23T08:55:36.000Z</time>
      </trkpt>
      <trkpt lat="42.91244" lon="1.22473">
        <ele>717</ele>
        <time>2026-06-23T08:55:37.000Z</time>
      </trkpt>
      <trkpt lat="42.91252" lon="1.22474">
        <ele>717</ele>
        <time>2026-06-23T08:55:38.000Z</time>
      </trkpt>
      <trkpt lat="42.9126" lon="1.22478">
        <ele>717</ele>
        <time>2026-06-23T08:55:39.000Z</time>
      </trkpt>
      <trkpt lat="42.91266" lon="1.22483">
        <ele>716</ele>
        <time>2026-06-23T08:55:40.000Z</time>
      </trkpt>
      <trkpt lat="42.9127" lon="1.22487">
        <ele>716</ele>
        <time>2026-06-23T08:55:41.000Z</time>
      </trkpt>
      <trkpt lat="42.91272" lon="1.2249">
        <ele>716</ele>
        <time>2026-06-23T08:55:42.000Z</time>
      </trkpt>
      <trkpt lat="42.91273" lon="1.22491">
        <ele>717</ele>
        <time>2026-06-23T08:55:43.000Z</time>
      </trkpt>
      <trkpt lat="42.91274" lon="1.22493">
        <ele>716</ele>
        <time>2026-06-23T08:55:44.000Z</time>
      </trkpt>
      <trkpt lat="42.91274" lon="1.22494">
        <ele>717</ele>
        <time>2026-06-23T08:55:45.000Z</time>
      </trkpt>
      <trkpt lat="42.91274" lon="1.22494">
        <ele>717</ele>
        <time>2026-06-23T08:55:46.000Z</time>
      </trkpt>
      <trkpt lat="42.91274" lon="1.22494">
        <ele>717</ele>
        <time>2026-06-23T08:55:47.000Z</time>
      </trkpt>
      <trkpt lat="42.91273" lon="1.22494">
        <ele>717</ele>
        <time>2026-06-23T08:55:48.000Z</time>
      </trkpt>
      <trkpt lat="42.91273" lon="1.22494">
        <ele>717</ele>
        <time>2026-06-23T08:55:49.000Z</time>
      </trkpt>
      <trkpt lat="42.91274" lon="1.22495">
        <ele>717</ele>
        <time>2026-06-23T08:55:50.000Z</time>
      </trkpt>
      <trkpt lat="42.91274" lon="1.22496">
        <ele>716</ele>
        <time>2026-06-23T08:55:51.000Z</time>
      </trkpt>
      <trkpt lat="42.91273" lon="1.22497">
        <ele>716</ele>
        <time>2026-06-23T08:55:52.000Z</time>
      </trkpt>
      <trkpt lat="42.91274" lon="1.22499">
        <ele>717</ele>
        <time>2026-06-23T08:55:53.000Z</time>
      </trkpt>
      <trkpt lat="42.91272" lon="1.22508">
        <ele>718</ele>
        <time>2026-06-23T08:58:40.000Z</time>
      </trkpt>
      <trkpt lat="42.91272" lon="1.22508">
        <ele>718</ele>
        <time>2026-06-23T08:58:41.000Z</time>
      </trkpt>
      <trkpt lat="42.91271" lon="1.22507">
        <ele>718</ele>
        <time>2026-06-23T08:58:42.000Z</time>
      </trkpt>
      <trkpt lat="42.91272" lon="1.22507">
        <ele>715</ele>
        <time>2026-06-23T09:00:06.000Z</time>
      </trkpt>
      <trkpt lat="42.91272" lon="1.22507">
        <ele>715</ele>
        <time>2026-06-23T09:00:07.000Z</time>
      </trkpt>
      <trkpt lat="42.91273" lon="1.22507">
        <ele>715</ele>
        <time>2026-06-23T09:00:08.000Z</time>
      </trkpt>
      <trkpt lat="42.91273" lon="1.22503">
        <ele>715</ele>
        <time>2026-06-23T09:01:05.000Z</time>
      </trkpt>
      <trkpt lat="42.91273" lon="1.22504">
        <ele>716</ele>
        <time>2026-06-23T09:01:06.000Z</time>
      </trkpt>
      <trkpt lat="42.91273" lon="1.22503">
        <ele>716</ele>
        <time>2026-06-23T09:01:07.000Z</time>
      </trkpt>
      <trkpt lat="42.91272" lon="1.225">
        <ele>715</ele>
        <time>2026-06-23T09:01:33.000Z</time>
      </trkpt>
      <trkpt lat="42.91272" lon="1.225">
        <ele>715</ele>
        <time>2026-06-23T09:01:34.000Z</time>
      </trkpt>
      <trkpt lat="42.91272" lon="1.225">
        <ele>715</ele>
        <time>2026-06-23T09:01:35.000Z</time>
      </trkpt>
      <trkpt lat="42.91271" lon="1.22499">
        <ele>714</ele>
        <time>2026-06-23T09:04:37.000Z</time>
      </trkpt>
      <trkpt lat="42.91272" lon="1.225">
        <ele>714</ele>
        <time>2026-06-23T09:04:38.000Z</time>
      </trkpt>
      <trkpt lat="42.91272" lon="1.22501">
        <ele>715</ele>
        <time>2026-06-23T09:04:39.000Z</time>
      </trkpt>
      <trkpt lat="42.91273" lon="1.22503">
        <ele>715</ele>
        <time>2026-06-23T09:04:40.000Z</time>
      </trkpt>
      <trkpt lat="42.91274" lon="1.22505">
        <ele>714</ele>
        <time>2026-06-23T09:04:41.000Z</time>
      </trkpt>
      <trkpt lat="42.91276" lon="1.22508">
        <ele>714</ele>
        <time>2026-06-23T09:04:42.000Z</time>
      </trkpt>
      <trkpt lat="42.91278" lon="1.22511">
        <ele>714</ele>
        <time>2026-06-23T09:04:43.000Z</time>
      </trkpt>
      <trkpt lat="42.9128" lon="1.22515">
        <ele>713</ele>
        <time>2026-06-23T09:04:44.000Z</time>
      </trkpt>
      <trkpt lat="42.91284" lon="1.22519">
        <ele>714</ele>
        <time>2026-06-23T09:04:45.000Z</time>
      </trkpt>
      <trkpt lat="42.91288" lon="1.22522">
        <ele>714</ele>
        <time>2026-06-23T09:04:46.000Z</time>
      </trkpt>
      <trkpt lat="42.91291" lon="1.22528">
        <ele>714</ele>
        <time>2026-06-23T09:04:47.000Z</time>
      </trkpt>
      <trkpt lat="42.91294" lon="1.22533">
        <ele>714</ele>
        <time>2026-06-23T09:04:48.000Z</time>
      </trkpt>
      <trkpt lat="42.91299" lon="1.22538">
        <ele>714</ele>
        <time>2026-06-23T09:04:49.000Z</time>
      </trkpt>
      <trkpt lat="42.91304" lon="1.22543">
        <ele>713</ele>
        <time>2026-06-23T09:04:50.000Z</time>
      </trkpt>
      <trkpt lat="42.91309" lon="1.22548">
        <ele>713</ele>
        <time>2026-06-23T09:04:51.000Z</time>
      </trkpt>
      <trkpt lat="42.91314" lon="1.22551">
        <ele>713</ele>
        <time>2026-06-23T09:04:52.000Z</time>
      </trkpt>
      <trkpt lat="42.9132" lon="1.22555">
        <ele>713</ele>
        <time>2026-06-23T09:04:53.000Z</time>
      </trkpt>
      <trkpt lat="42.91325" lon="1.22558">
        <ele>714</ele>
        <time>2026-06-23T09:04:54.000Z</time>
      </trkpt>
      <trkpt lat="42.91331" lon="1.2256">
        <ele>714</ele>
        <time>2026-06-23T09:04:55.000Z</time>
      </trkpt>
      <trkpt lat="42.91337" lon="1.22562">
        <ele>714</ele>
        <time>2026-06-23T09:04:56.000Z</time>
      </trkpt>
      <trkpt lat="42.91343" lon="1.22565">
        <ele>714</ele>
        <time>2026-06-23T09:04:57.000Z</time>
      </trkpt>
      <trkpt lat="42.91349" lon="1.22566">
        <ele>714</ele>
        <time>2026-06-23T09:04:58.000Z</time>
      </trkpt>
      <trkpt lat="42.91356" lon="1.22568">
        <ele>714</ele>
        <time>2026-06-23T09:04:59.000Z</time>
      </trkpt>
      <trkpt lat="42.91362" lon="1.2257">
        <ele>714</ele>
        <time>2026-06-23T09:05:00.000Z</time>
      </trkpt>
      <trkpt lat="42.91368" lon="1.22572">
        <ele>714</ele>
        <time>2026-06-23T09:05:01.000Z</time>
      </trkpt>
      <trkpt lat="42.91375" lon="1.22574">
        <ele>714</ele>
        <time>2026-06-23T09:05:02.000Z</time>
      </trkpt>
      <trkpt lat="42.91381" lon="1.22577">
        <ele>714</ele>
        <time>2026-06-23T09:05:03.000Z</time>
      </trkpt>
      <trkpt lat="42.91388" lon="1.2258">
        <ele>713</ele>
        <time>2026-06-23T09:05:04.000Z</time>
      </trkpt>
      <trkpt lat="42.91394" lon="1.22584">
        <ele>713</ele>
        <time>2026-06-23T09:05:05.000Z</time>
      </trkpt>
      <trkpt lat="42.914" lon="1.22589">
        <ele>712</ele>
        <time>2026-06-23T09:05:06.000Z</time>
      </trkpt>
      <trkpt lat="42.91405" lon="1.22596">
        <ele>711</ele>
        <time>2026-06-23T09:05:07.000Z</time>
      </trkpt>
      <trkpt lat="42.9141" lon="1.22604">
        <ele>711</ele>
        <time>2026-06-23T09:05:08.000Z</time>
      </trkpt>
      <trkpt lat="42.91414" lon="1.22612">
        <ele>711</ele>
        <time>2026-06-23T09:05:09.000Z</time>
      </trkpt>
      <trkpt lat="42.91419" lon="1.22621">
        <ele>711</ele>
        <time>2026-06-23T09:05:10.000Z</time>
      </trkpt>
      <trkpt lat="42.91424" lon="1.22631">
        <ele>712</ele>
        <time>2026-06-23T09:05:11.000Z</time>
      </trkpt>
      <trkpt lat="42.91428" lon="1.22639">
        <ele>712</ele>
        <time>2026-06-23T09:05:12.000Z</time>
      </trkpt>
      <trkpt lat="42.91433" lon="1.22647">
        <ele>712</ele>
        <time>2026-06-23T09:05:13.000Z</time>
      </trkpt>
      <trkpt lat="42.91438" lon="1.22656">
        <ele>711</ele>
        <time>2026-06-23T09:05:14.000Z</time>
      </trkpt>
      <trkpt lat="42.91441" lon="1.22666">
        <ele>711</ele>
        <time>2026-06-23T09:05:15.000Z</time>
      </trkpt>
      <trkpt lat="42.91445" lon="1.22674">
        <ele>711</ele>
        <time>2026-06-23T09:05:16.000Z</time>
      </trkpt>
      <trkpt lat="42.91449" lon="1.22683">
        <ele>711</ele>
        <time>2026-06-23T09:05:17.000Z</time>
      </trkpt>
      <trkpt lat="42.91453" lon="1.22692">
        <ele>711</ele>
        <time>2026-06-23T09:05:18.000Z</time>
      </trkpt>
      <trkpt lat="42.91457" lon="1.22701">
        <ele>711</ele>
        <time>2026-06-23T09:05:19.000Z</time>
      </trkpt>
      <trkpt lat="42.91461" lon="1.22709">
        <ele>710</ele>
        <time>2026-06-23T09:05:20.000Z</time>
      </trkpt>
      <trkpt lat="42.91465" lon="1.22717">
        <ele>710</ele>
        <time>2026-06-23T09:05:21.000Z</time>
      </trkpt>
      <trkpt lat="42.91468" lon="1.22724">
        <ele>709</ele>
        <time>2026-06-23T09:05:22.000Z</time>
      </trkpt>
      <trkpt lat="42.91472" lon="1.22732">
        <ele>708</ele>
        <time>2026-06-23T09:05:23.000Z</time>
      </trkpt>
      <trkpt lat="42.91476" lon="1.2274">
        <ele>708</ele>
        <time>2026-06-23T09:05:24.000Z</time>
      </trkpt>
      <trkpt lat="42.9148" lon="1.22748">
        <ele>708</ele>
        <time>2026-06-23T09:05:25.000Z</time>
      </trkpt>
      <trkpt lat="42.91483" lon="1.22757">
        <ele>707</ele>
        <time>2026-06-23T09:05:26.000Z</time>
      </trkpt>
      <trkpt lat="42.91486" lon="1.22765">
        <ele>707</ele>
        <time>2026-06-23T09:05:27.000Z</time>
      </trkpt>
      <trkpt lat="42.91489" lon="1.22775">
        <ele>707</ele>
        <time>2026-06-23T09:05:28.000Z</time>
      </trkpt>
      <trkpt lat="42.91491" lon="1.22783">
        <ele>707</ele>
        <time>2026-06-23T09:05:29.000Z</time>
      </trkpt>
      <trkpt lat="42.91492" lon="1.22792">
        <ele>707</ele>
        <time>2026-06-23T09:05:30.000Z</time>
      </trkpt>
      <trkpt lat="42.91491" lon="1.22801">
        <ele>707</ele>
        <time>2026-06-23T09:05:31.000Z</time>
      </trkpt>
      <trkpt lat="42.91489" lon="1.2281">
        <ele>707</ele>
        <time>2026-06-23T09:05:32.000Z</time>
      </trkpt>
      <trkpt lat="42.91487" lon="1.22821">
        <ele>707</ele>
        <time>2026-06-23T09:05:33.000Z</time>
      </trkpt>
      <trkpt lat="42.91483" lon="1.22832">
        <ele>707</ele>
        <time>2026-06-23T09:05:34.000Z</time>
      </trkpt>
      <trkpt lat="42.91479" lon="1.22841">
        <ele>706</ele>
        <time>2026-06-23T09:05:35.000Z</time>
      </trkpt>
      <trkpt lat="42.91474" lon="1.22848">
        <ele>707</ele>
        <time>2026-06-23T09:05:36.000Z</time>
      </trkpt>
      <trkpt lat="42.91469" lon="1.22855">
        <ele>707</ele>
        <time>2026-06-23T09:05:37.000Z</time>
      </trkpt>
      <trkpt lat="42.91465" lon="1.2286">
        <ele>707</ele>
        <time>2026-06-23T09:05:38.000Z</time>
      </trkpt>
      <trkpt lat="42.9146" lon="1.22866">
        <ele>706</ele>
        <time>2026-06-23T09:05:39.000Z</time>
      </trkpt>
      <trkpt lat="42.91455" lon="1.22872">
        <ele>706</ele>
        <time>2026-06-23T09:05:40.000Z</time>
      </trkpt>
      <trkpt lat="42.9145" lon="1.22876">
        <ele>706</ele>
        <time>2026-06-23T09:05:41.000Z</time>
      </trkpt>
      <trkpt lat="42.91445" lon="1.22882">
        <ele>706</ele>
        <time>2026-06-23T09:05:42.000Z</time>
      </trkpt>
      <trkpt lat="42.9144" lon="1.22888">
        <ele>706</ele>
        <time>2026-06-23T09:05:43.000Z</time>
      </trkpt>
      <trkpt lat="42.91436" lon="1.22893">
        <ele>706</ele>
        <time>2026-06-23T09:05:44.000Z</time>
      </trkpt>
      <trkpt lat="42.91433" lon="1.229">
        <ele>706</ele>
        <time>2026-06-23T09:05:45.000Z</time>
      </trkpt>
      <trkpt lat="42.91431" lon="1.22906">
        <ele>706</ele>
        <time>2026-06-23T09:05:46.000Z</time>
      </trkpt>
      <trkpt lat="42.91429" lon="1.2291">
        <ele>706</ele>
        <time>2026-06-23T09:05:47.000Z</time>
      </trkpt>
      <trkpt lat="42.91427" lon="1.22915">
        <ele>706</ele>
        <time>2026-06-23T09:05:48.000Z</time>
      </trkpt>
      <trkpt lat="42.91426" lon="1.22921">
        <ele>706</ele>
        <time>2026-06-23T09:05:49.000Z</time>
      </trkpt>
      <trkpt lat="42.91425" lon="1.22927">
        <ele>706</ele>
        <time>2026-06-23T09:05:50.000Z</time>
      </trkpt>
      <trkpt lat="42.91424" lon="1.22933">
        <ele>707</ele>
        <time>2026-06-23T09:05:51.000Z</time>
      </trkpt>
      <trkpt lat="42.91423" lon="1.22941">
        <ele>707</ele>
        <time>2026-06-23T09:05:52.000Z</time>
      </trkpt>
      <trkpt lat="42.91421" lon="1.22948">
        <ele>706</ele>
        <time>2026-06-23T09:05:53.000Z</time>
      </trkpt>
      <trkpt lat="42.91419" lon="1.22954">
        <ele>706</ele>
        <time>2026-06-23T09:05:54.000Z</time>
      </trkpt>
      <trkpt lat="42.91416" lon="1.22958">
        <ele>706</ele>
        <time>2026-06-23T09:05:55.000Z</time>
      </trkpt>
      <trkpt lat="42.91413" lon="1.22962">
        <ele>706</ele>
        <time>2026-06-23T09:05:56.000Z</time>
      </trkpt>
      <trkpt lat="42.91409" lon="1.22961">
        <ele>706</ele>
        <time>2026-06-23T09:05:57.000Z</time>
      </trkpt>
      <trkpt lat="42.91407" lon="1.2296">
        <ele>705</ele>
        <time>2026-06-23T09:05:58.000Z</time>
      </trkpt>
      <trkpt lat="42.91404" lon="1.22959">
        <ele>705</ele>
        <time>2026-06-23T09:05:59.000Z</time>
      </trkpt>
      <trkpt lat="42.91402" lon="1.22957">
        <ele>705</ele>
        <time>2026-06-23T09:06:00.000Z</time>
      </trkpt>
      <trkpt lat="42.914" lon="1.22954">
        <ele>705</ele>
        <time>2026-06-23T09:06:01.000Z</time>
      </trkpt>
      <trkpt lat="42.91398" lon="1.22952">
        <ele>705</ele>
        <time>2026-06-23T09:06:02.000Z</time>
      </trkpt>
      <trkpt lat="42.91396" lon="1.22951">
        <ele>706</ele>
        <time>2026-06-23T09:06:03.000Z</time>
      </trkpt>
      <trkpt lat="42.91395" lon="1.22951">
        <ele>706</ele>
        <time>2026-06-23T09:06:04.000Z</time>
      </trkpt>
      <trkpt lat="42.91394" lon="1.22952">
        <ele>705</ele>
        <time>2026-06-23T09:06:05.000Z</time>
      </trkpt>
      <trkpt lat="42.91393" lon="1.22951">
        <ele>705</ele>
        <time>2026-06-23T09:06:06.000Z</time>
      </trkpt>
      <trkpt lat="42.91393" lon="1.2295">
        <ele>705</ele>
        <time>2026-06-23T09:06:07.000Z</time>
      </trkpt>
      <trkpt lat="42.91392" lon="1.22949">
        <ele>705</ele>
        <time>2026-06-23T09:06:08.000Z</time>
      </trkpt>
      <trkpt lat="42.91393" lon="1.22948">
        <ele>705</ele>
        <time>2026-06-23T09:06:09.000Z</time>
      </trkpt>
      <trkpt lat="42.91392" lon="1.22948">
        <ele>705</ele>
        <time>2026-06-23T09:06:10.000Z</time>
      </trkpt>
      <trkpt lat="42.91392" lon="1.22948">
        <ele>705</ele>
        <time>2026-06-23T09:06:11.000Z</time>
      </trkpt>
      <trkpt lat="42.91392" lon="1.22947">
        <ele>704</ele>
        <time>2026-06-23T09:06:12.000Z</time>
      </trkpt>
      <trkpt lat="42.91391" lon="1.22946">
        <ele>704</ele>
        <time>2026-06-23T09:06:13.000Z</time>
      </trkpt>
      <trkpt lat="42.9139" lon="1.22945">
        <ele>704</ele>
        <time>2026-06-23T09:06:14.000Z</time>
      </trkpt>
      <trkpt lat="42.91391" lon="1.22943">
        <ele>704</ele>
        <time>2026-06-23T09:06:15.000Z</time>
      </trkpt>
      <trkpt lat="42.9139" lon="1.22942">
        <ele>704</ele>
        <time>2026-06-23T09:06:16.000Z</time>
      </trkpt>
      <trkpt lat="42.91389" lon="1.2294">
        <ele>704</ele>
        <time>2026-06-23T09:06:17.000Z</time>
      </trkpt>
      <trkpt lat="42.91388" lon="1.22938">
        <ele>704</ele>
        <time>2026-06-23T09:06:18.000Z</time>
      </trkpt>
      <trkpt lat="42.91386" lon="1.22937">
        <ele>704</ele>
        <time>2026-06-23T09:06:19.000Z</time>
      </trkpt>
      <trkpt lat="42.91384" lon="1.22936">
        <ele>703</ele>
        <time>2026-06-23T09:06:20.000Z</time>
      </trkpt>
      <trkpt lat="42.91382" lon="1.22936">
        <ele>702</ele>
        <time>2026-06-23T09:06:21.000Z</time>
      </trkpt>
      <trkpt lat="42.9138" lon="1.22936">
        <ele>701</ele>
        <time>2026-06-23T09:06:22.000Z</time>
      </trkpt>
      <trkpt lat="42.91378" lon="1.22935">
        <ele>701</ele>
        <time>2026-06-23T09:06:23.000Z</time>
      </trkpt>
      <trkpt lat="42.91377" lon="1.22935">
        <ele>701</ele>
        <time>2026-06-23T09:06:24.000Z</time>
      </trkpt>
      <trkpt lat="42.91376" lon="1.22934">
        <ele>700</ele>
        <time>2026-06-23T09:06:25.000Z</time>
      </trkpt>
      <trkpt lat="42.91375" lon="1.22934">
        <ele>700</ele>
        <time>2026-06-23T09:06:26.000Z</time>
      </trkpt>
      <trkpt lat="42.91375" lon="1.22935">
        <ele>700</ele>
        <time>2026-06-23T09:06:27.000Z</time>
      </trkpt>
      <trkpt lat="42.91374" lon="1.22935">
        <ele>700</ele>
        <time>2026-06-23T09:06:28.000Z</time>
      </trkpt>
      <trkpt lat="42.91374" lon="1.22935">
        <ele>700</ele>
        <time>2026-06-23T09:06:29.000Z</time>
      </trkpt>
      <trkpt lat="42.91374" lon="1.22935">
        <ele>700</ele>
        <time>2026-06-23T09:06:30.000Z</time>
      </trkpt>
      <trkpt lat="42.91375" lon="1.22936">
        <ele>699</ele>
        <time>2026-06-23T09:06:31.000Z</time>
      </trkpt>
      <trkpt lat="42.91375" lon="1.22937">
        <ele>699</ele>
        <time>2026-06-23T09:06:32.000Z</time>
      </trkpt>
      <trkpt lat="42.91375" lon="1.22938">
        <ele>699</ele>
        <time>2026-06-23T09:06:33.000Z</time>
      </trkpt>
      <trkpt lat="42.91374" lon="1.22938">
        <ele>699</ele>
        <time>2026-06-23T09:06:34.000Z</time>
      </trkpt>
      <trkpt lat="42.91374" lon="1.22937">
        <ele>699</ele>
        <time>2026-06-23T09:06:35.000Z</time>
      </trkpt>
      <trkpt lat="42.91373" lon="1.22938">
        <ele>698</ele>
        <time>2026-06-23T09:06:54.000Z</time>
      </trkpt>
      <trkpt lat="42.91373" lon="1.22939">
        <ele>697</ele>
        <time>2026-06-23T09:06:55.000Z</time>
      </trkpt>
      <trkpt lat="42.91373" lon="1.22938">
        <ele>697</ele>
        <time>2026-06-23T09:06:56.000Z</time>
      </trkpt>
      <trkpt lat="42.91373" lon="1.22939">
        <ele>697</ele>
        <time>2026-06-23T09:06:57.000Z</time>
      </trkpt>
      <trkpt lat="42.91371" lon="1.22939">
        <ele>697</ele>
        <time>2026-06-23T09:06:58.000Z</time>
      </trkpt>
      <trkpt lat="42.91371" lon="1.22938">
        <ele>696</ele>
        <time>2026-06-23T09:06:59.000Z</time>
      </trkpt>
      <trkpt lat="42.91372" lon="1.22938">
        <ele>697</ele>
        <time>2026-06-23T09:07:13.000Z</time>
      </trkpt>
      <trkpt lat="42.91372" lon="1.22939">
        <ele>698</ele>
        <time>2026-06-23T09:07:14.000Z</time>
      </trkpt>
      <trkpt lat="42.91372" lon="1.22939">
        <ele>698</ele>
        <time>2026-06-23T09:07:15.000Z</time>
      </trkpt>
      <trkpt lat="42.91372" lon="1.2294">
        <ele>698</ele>
        <time>2026-06-23T09:07:16.000Z</time>
      </trkpt>
      <trkpt lat="42.91373" lon="1.22941">
        <ele>698</ele>
        <time>2026-06-23T09:07:17.000Z</time>
      </trkpt>
      <trkpt lat="42.91373" lon="1.2294">
        <ele>698</ele>
        <time>2026-06-23T09:07:18.000Z</time>
      </trkpt>
      <trkpt lat="42.91373" lon="1.22939">
        <ele>697</ele>
        <time>2026-06-23T09:07:19.000Z</time>
      </trkpt>
      <trkpt lat="42.91373" lon="1.22939">
        <ele>698</ele>
        <time>2026-06-23T09:07:20.000Z</time>
      </trkpt>
      <trkpt lat="42.91373" lon="1.22939">
        <ele>697</ele>
        <time>2026-06-23T09:07:21.000Z</time>
      </trkpt>
      <trkpt lat="42.91374" lon="1.22938">
        <ele>697</ele>
        <time>2026-06-23T09:07:22.000Z</time>
      </trkpt>
      <trkpt lat="42.91374" lon="1.22937">
        <ele>697</ele>
        <time>2026-06-23T09:07:23.000Z</time>
      </trkpt>
      <trkpt lat="42.91374" lon="1.22936">
        <ele>696</ele>
        <time>2026-06-23T09:07:24.000Z</time>
      </trkpt>
      <trkpt lat="42.91374" lon="1.22935">
        <ele>696</ele>
        <time>2026-06-23T09:07:25.000Z</time>
      </trkpt>
      <trkpt lat="42.91374" lon="1.22935">
        <ele>696</ele>
        <time>2026-06-23T09:07:26.000Z</time>
      </trkpt>
      <trkpt lat="42.91374" lon="1.22935">
        <ele>696</ele>
        <time>2026-06-23T09:07:27.000Z</time>
      </trkpt>
      <trkpt lat="42.91373" lon="1.22934">
        <ele>696</ele>
        <time>2026-06-23T09:07:28.000Z</time>
      </trkpt>
      <trkpt lat="42.91373" lon="1.22933">
        <ele>695</ele>
        <time>2026-06-23T09:07:29.000Z</time>
      </trkpt>
      <trkpt lat="42.91373" lon="1.22933">
        <ele>695</ele>
        <time>2026-06-23T09:07:30.000Z</time>
      </trkpt>
      <trkpt lat="42.91373" lon="1.22933">
        <ele>695</ele>
        <time>2026-06-23T09:07:31.000Z</time>
      </trkpt>
      <trkpt lat="42.91372" lon="1.22933">
        <ele>695</ele>
        <time>2026-06-23T09:07:32.000Z</time>
      </trkpt>
      <trkpt lat="42.91372" lon="1.22933">
        <ele>695</ele>
        <time>2026-06-23T09:07:33.000Z</time>
      </trkpt>
      <trkpt lat="42.91372" lon="1.22934">
        <ele>695</ele>
        <time>2026-06-23T09:07:34.000Z</time>
      </trkpt>
      <trkpt lat="42.91371" lon="1.22934">
        <ele>695</ele>
        <time>2026-06-23T09:07:35.000Z</time>
      </trkpt>
      <trkpt lat="42.91372" lon="1.22934">
        <ele>696</ele>
        <time>2026-06-23T09:07:36.000Z</time>
      </trkpt>
      <trkpt lat="42.91372" lon="1.22933">
        <ele>696</ele>
        <time>2026-06-23T09:07:37.000Z</time>
      </trkpt>
      <trkpt lat="42.91373" lon="1.22934">
        <ele>696</ele>
        <time>2026-06-23T09:07:38.000Z</time>
      </trkpt>
      <trkpt lat="42.91373" lon="1.22933">
        <ele>694</ele>
        <time>2026-06-23T09:07:39.000Z</time>
      </trkpt>
      <trkpt lat="42.91373" lon="1.22933">
        <ele>694</ele>
        <time>2026-06-23T09:07:40.000Z</time>
      </trkpt>
      <trkpt lat="42.91373" lon="1.22933">
        <ele>693</ele>
        <time>2026-06-23T09:07:41.000Z</time>
      </trkpt>
      <trkpt lat="42.91373" lon="1.22932">
        <ele>691</ele>
        <time>2026-06-23T09:07:42.000Z</time>
      </trkpt>
      <trkpt lat="42.91372" lon="1.22932">
        <ele>690</ele>
        <time>2026-06-23T09:07:43.000Z</time>
      </trkpt>
      <trkpt lat="42.91372" lon="1.22932">
        <ele>691</ele>
        <time>2026-06-23T09:07:44.000Z</time>
      </trkpt>
      <trkpt lat="42.91371" lon="1.22931">
        <ele>691</ele>
        <time>2026-06-23T09:07:45.000Z</time>
      </trkpt>
      <trkpt lat="42.91371" lon="1.22932">
        <ele>690</ele>
        <time>2026-06-23T09:07:46.000Z</time>
      </trkpt>
      <trkpt lat="42.91371" lon="1.22933">
        <ele>690</ele>
        <time>2026-06-23T09:07:47.000Z</time>
      </trkpt>
    </trkseg>
  </trk>
</gpx>